<?xml version="1.0" encoding="UTF-8"?>
<gpx xmlns="http://www.topografix.com/GPX/1/1" xmlns:gpsies="https://www.gpsies.com/GPX/1/0" creator="AllTrails https://www.alltrails.com/ - osoli_cascata_course" version="1.1" xmlns:xsi="http://www.w3.org/2001/XMLSchema-instance" xsi:schemaLocation="http://www.topografix.com/GPX/1/1 http://www.topografix.com/GPX/1/1/gpx.xsd https://www.gpsies.com/GPX/1/0 https://www.gpsies.com/gpsies.xsd">
  <metadata>
    <name>osoli_cascata_course</name>
    <link href="https://www.gpsies.com/">
      <text>osoli_cascata_course on AllTrails</text>
    </link>
    <time>2024-05-17T07:56:39Z</time>
  </metadata>
  <trk>
    <name>osoli_cascata_course on AllTrails</name>
    <trkseg>
      <trkpt lat="42.84507698" lon="13.64142369">
        <ele>106.00000</ele>
        <time>2024-02-02T11:55:21Z</time>
      </trkpt>
      <trkpt lat="42.84506726" lon="13.64134850">
        <ele>106.00000</ele>
        <time>2024-02-02T11:55:22Z</time>
      </trkpt>
      <trkpt lat="42.84506072" lon="13.64125530">
        <ele>106.00000</ele>
        <time>2024-02-02T11:55:23Z</time>
      </trkpt>
      <trkpt lat="42.84505510" lon="13.64117559">
        <ele>106.00000</ele>
        <time>2024-02-02T11:55:24Z</time>
      </trkpt>
      <trkpt lat="42.84504781" lon="13.64109143">
        <ele>106.00000</ele>
        <time>2024-02-02T11:55:25Z</time>
      </trkpt>
      <trkpt lat="42.84504228" lon="13.64102220">
        <ele>106.00000</ele>
        <time>2024-02-02T11:55:26Z</time>
      </trkpt>
      <trkpt lat="42.84503515" lon="13.64093628">
        <ele>106.00000</ele>
        <time>2024-02-02T11:55:27Z</time>
      </trkpt>
      <trkpt lat="42.84502602" lon="13.64084802">
        <ele>106.00000</ele>
        <time>2024-02-02T11:55:28Z</time>
      </trkpt>
      <trkpt lat="42.84501512" lon="13.64074224">
        <ele>106.00000</ele>
        <time>2024-02-02T11:55:29Z</time>
      </trkpt>
      <trkpt lat="42.84501093" lon="13.64065138">
        <ele>106.00000</ele>
        <time>2024-02-02T11:55:30Z</time>
      </trkpt>
      <trkpt lat="42.84500984" lon="13.64056144">
        <ele>106.00000</ele>
        <time>2024-02-02T11:55:31Z</time>
      </trkpt>
      <trkpt lat="42.84500707" lon="13.64048886">
        <ele>105.00000</ele>
        <time>2024-02-02T11:55:32Z</time>
      </trkpt>
      <trkpt lat="42.84500682" lon="13.64039909">
        <ele>105.00000</ele>
        <time>2024-02-02T11:55:33Z</time>
      </trkpt>
      <trkpt lat="42.84500766" lon="13.64028995">
        <ele>105.00000</ele>
        <time>2024-02-02T11:55:34Z</time>
      </trkpt>
      <trkpt lat="42.84500691" lon="13.64019725">
        <ele>105.00000</ele>
        <time>2024-02-02T11:55:35Z</time>
      </trkpt>
      <trkpt lat="42.84500573" lon="13.64010245">
        <ele>105.00000</ele>
        <time>2024-02-02T11:55:36Z</time>
      </trkpt>
      <trkpt lat="42.84500624" lon="13.64000748">
        <ele>105.00000</ele>
        <time>2024-02-02T11:55:37Z</time>
      </trkpt>
      <trkpt lat="42.84500783" lon="13.63991176">
        <ele>105.00000</ele>
        <time>2024-02-02T11:55:38Z</time>
      </trkpt>
      <trkpt lat="42.84500883" lon="13.63981638">
        <ele>105.00000</ele>
        <time>2024-02-02T11:55:39Z</time>
      </trkpt>
      <trkpt lat="42.84501302" lon="13.63972216">
        <ele>105.00000</ele>
        <time>2024-02-02T11:55:40Z</time>
      </trkpt>
      <trkpt lat="42.84501705" lon="13.63962502">
        <ele>105.00000</ele>
        <time>2024-02-02T11:55:41Z</time>
      </trkpt>
      <trkpt lat="42.84502426" lon="13.63952896">
        <ele>104.00000</ele>
        <time>2024-02-02T11:55:42Z</time>
      </trkpt>
      <trkpt lat="42.84503088" lon="13.63943190">
        <ele>104.00000</ele>
        <time>2024-02-02T11:55:43Z</time>
      </trkpt>
      <trkpt lat="42.84503675" lon="13.63933660">
        <ele>104.00000</ele>
        <time>2024-02-02T11:55:44Z</time>
      </trkpt>
      <trkpt lat="42.84504027" lon="13.63924037">
        <ele>104.00000</ele>
        <time>2024-02-02T11:55:45Z</time>
      </trkpt>
      <trkpt lat="42.84504228" lon="13.63914339">
        <ele>104.00000</ele>
        <time>2024-02-02T11:55:46Z</time>
      </trkpt>
      <trkpt lat="42.84504798" lon="13.63904792">
        <ele>104.00000</ele>
        <time>2024-02-02T11:55:47Z</time>
      </trkpt>
      <trkpt lat="42.84505250" lon="13.63895120">
        <ele>104.00000</ele>
        <time>2024-02-02T11:55:48Z</time>
      </trkpt>
      <trkpt lat="42.84505644" lon="13.63885371">
        <ele>104.00000</ele>
        <time>2024-02-02T11:55:49Z</time>
      </trkpt>
      <trkpt lat="42.84506139" lon="13.63875489">
        <ele>104.00000</ele>
        <time>2024-02-02T11:55:50Z</time>
      </trkpt>
      <trkpt lat="42.84506793" lon="13.63865632">
        <ele>104.00000</ele>
        <time>2024-02-02T11:55:51Z</time>
      </trkpt>
      <trkpt lat="42.84507446" lon="13.63855725">
        <ele>104.00000</ele>
        <time>2024-02-02T11:55:52Z</time>
      </trkpt>
      <trkpt lat="42.84507974" lon="13.63845868">
        <ele>104.00000</ele>
        <time>2024-02-02T11:55:53Z</time>
      </trkpt>
      <trkpt lat="42.84508662" lon="13.63835901">
        <ele>104.00000</ele>
        <time>2024-02-02T11:55:54Z</time>
      </trkpt>
      <trkpt lat="42.84509089" lon="13.63826078">
        <ele>104.00000</ele>
        <time>2024-02-02T11:55:55Z</time>
      </trkpt>
      <trkpt lat="42.84509760" lon="13.63816397">
        <ele>104.00000</ele>
        <time>2024-02-02T11:55:56Z</time>
      </trkpt>
      <trkpt lat="42.84510271" lon="13.63806875">
        <ele>104.00000</ele>
        <time>2024-02-02T11:55:57Z</time>
      </trkpt>
      <trkpt lat="42.84510975" lon="13.63797009">
        <ele>104.00000</ele>
        <time>2024-02-02T11:55:58Z</time>
      </trkpt>
      <trkpt lat="42.84511646" lon="13.63787136">
        <ele>104.00000</ele>
        <time>2024-02-02T11:55:59Z</time>
      </trkpt>
      <trkpt lat="42.84512224" lon="13.63777329">
        <ele>104.00000</ele>
        <time>2024-02-02T11:56:00Z</time>
      </trkpt>
      <trkpt lat="42.84512534" lon="13.63767497">
        <ele>104.00000</ele>
        <time>2024-02-02T11:56:01Z</time>
      </trkpt>
      <trkpt lat="42.84512970" lon="13.63757380">
        <ele>104.00000</ele>
        <time>2024-02-02T11:56:02Z</time>
      </trkpt>
      <trkpt lat="42.84513632" lon="13.63747422">
        <ele>104.00000</ele>
        <time>2024-02-02T11:56:03Z</time>
      </trkpt>
      <trkpt lat="42.84514395" lon="13.63737347">
        <ele>104.00000</ele>
        <time>2024-02-02T11:56:04Z</time>
      </trkpt>
      <trkpt lat="42.84515057" lon="13.63727138">
        <ele>104.00000</ele>
        <time>2024-02-02T11:56:05Z</time>
      </trkpt>
      <trkpt lat="42.84515652" lon="13.63716853">
        <ele>104.00000</ele>
        <time>2024-02-02T11:56:06Z</time>
      </trkpt>
      <trkpt lat="42.84515837" lon="13.63706351">
        <ele>104.00000</ele>
        <time>2024-02-02T11:56:07Z</time>
      </trkpt>
      <trkpt lat="42.84516197" lon="13.63695999">
        <ele>104.00000</ele>
        <time>2024-02-02T11:56:08Z</time>
      </trkpt>
      <trkpt lat="42.84516759" lon="13.63685756">
        <ele>104.00000</ele>
        <time>2024-02-02T11:56:09Z</time>
      </trkpt>
      <trkpt lat="42.84517337" lon="13.63675489">
        <ele>104.00000</ele>
        <time>2024-02-02T11:56:10Z</time>
      </trkpt>
      <trkpt lat="42.84517815" lon="13.63665279">
        <ele>105.00000</ele>
        <time>2024-02-02T11:56:11Z</time>
      </trkpt>
      <trkpt lat="42.84518251" lon="13.63655104">
        <ele>105.00000</ele>
        <time>2024-02-02T11:56:12Z</time>
      </trkpt>
      <trkpt lat="42.84518762" lon="13.63644844">
        <ele>105.00000</ele>
        <time>2024-02-02T11:56:13Z</time>
      </trkpt>
      <trkpt lat="42.84519131" lon="13.63634459">
        <ele>105.00000</ele>
        <time>2024-02-02T11:56:14Z</time>
      </trkpt>
      <trkpt lat="42.84519290" lon="13.63624049">
        <ele>106.00000</ele>
        <time>2024-02-02T11:56:15Z</time>
      </trkpt>
      <trkpt lat="42.84519567" lon="13.63613697">
        <ele>106.00000</ele>
        <time>2024-02-02T11:56:16Z</time>
      </trkpt>
      <trkpt lat="42.84519977" lon="13.63603471">
        <ele>107.00000</ele>
        <time>2024-02-02T11:56:17Z</time>
      </trkpt>
      <trkpt lat="42.84520338" lon="13.63593153">
        <ele>107.00000</ele>
        <time>2024-02-02T11:56:18Z</time>
      </trkpt>
      <trkpt lat="42.84520765" lon="13.63582952">
        <ele>107.00000</ele>
        <time>2024-02-02T11:56:19Z</time>
      </trkpt>
      <trkpt lat="42.84521235" lon="13.63572902">
        <ele>107.00000</ele>
        <time>2024-02-02T11:56:20Z</time>
      </trkpt>
      <trkpt lat="42.84521771" lon="13.63562945">
        <ele>107.00000</ele>
        <time>2024-02-02T11:56:21Z</time>
      </trkpt>
      <trkpt lat="42.84522132" lon="13.63553029">
        <ele>107.00000</ele>
        <time>2024-02-02T11:56:22Z</time>
      </trkpt>
      <trkpt lat="42.84522534" lon="13.63543155">
        <ele>106.00000</ele>
        <time>2024-02-02T11:56:23Z</time>
      </trkpt>
      <trkpt lat="42.84523070" lon="13.63533432">
        <ele>106.00000</ele>
        <time>2024-02-02T11:56:24Z</time>
      </trkpt>
      <trkpt lat="42.84523632" lon="13.63523793">
        <ele>106.00000</ele>
        <time>2024-02-02T11:56:25Z</time>
      </trkpt>
      <trkpt lat="42.84524043" lon="13.63514028">
        <ele>106.00000</ele>
        <time>2024-02-02T11:56:26Z</time>
      </trkpt>
      <trkpt lat="42.84524101" lon="13.63504263">
        <ele>106.00000</ele>
        <time>2024-02-02T11:56:27Z</time>
      </trkpt>
      <trkpt lat="42.84524101" lon="13.63494565">
        <ele>106.00000</ele>
        <time>2024-02-02T11:56:28Z</time>
      </trkpt>
      <trkpt lat="42.84523657" lon="13.63484683">
        <ele>106.00000</ele>
        <time>2024-02-02T11:56:29Z</time>
      </trkpt>
      <trkpt lat="42.84523347" lon="13.63477022">
        <ele>107.00000</ele>
        <time>2024-02-02T11:56:30Z</time>
      </trkpt>
      <trkpt lat="42.84523104" lon="13.63467299">
        <ele>107.00000</ele>
        <time>2024-02-02T11:56:31Z</time>
      </trkpt>
      <trkpt lat="42.84522534" lon="13.63455464">
        <ele>107.00000</ele>
        <time>2024-02-02T11:56:32Z</time>
      </trkpt>
      <trkpt lat="42.84522006" lon="13.63445556">
        <ele>107.00000</ele>
        <time>2024-02-02T11:56:33Z</time>
      </trkpt>
      <trkpt lat="42.84521536" lon="13.63435657">
        <ele>107.00000</ele>
        <time>2024-02-02T11:56:34Z</time>
      </trkpt>
      <trkpt lat="42.84520992" lon="13.63425725">
        <ele>106.00000</ele>
        <time>2024-02-02T11:56:35Z</time>
      </trkpt>
      <trkpt lat="42.84520103" lon="13.63415733">
        <ele>106.00000</ele>
        <time>2024-02-02T11:56:36Z</time>
      </trkpt>
      <trkpt lat="42.84519206" lon="13.63405876">
        <ele>106.00000</ele>
        <time>2024-02-02T11:56:37Z</time>
      </trkpt>
      <trkpt lat="42.84518284" lon="13.63398115">
        <ele>106.00000</ele>
        <time>2024-02-02T11:56:38Z</time>
      </trkpt>
      <trkpt lat="42.84516968" lon="13.63386439">
        <ele>105.00000</ele>
        <time>2024-02-02T11:56:39Z</time>
      </trkpt>
      <trkpt lat="42.84515795" lon="13.63376665">
        <ele>105.00000</ele>
        <time>2024-02-02T11:56:40Z</time>
      </trkpt>
      <trkpt lat="42.84514739" lon="13.63368770">
        <ele>105.00000</ele>
        <time>2024-02-02T11:56:41Z</time>
      </trkpt>
      <trkpt lat="42.84512920" lon="13.63356775">
        <ele>104.00000</ele>
        <time>2024-02-02T11:56:42Z</time>
      </trkpt>
      <trkpt lat="42.84511629" lon="13.63348796">
        <ele>104.00000</ele>
        <time>2024-02-02T11:56:43Z</time>
      </trkpt>
      <trkpt lat="42.84509642" lon="13.63336994">
        <ele>104.00000</ele>
        <time>2024-02-02T11:56:44Z</time>
      </trkpt>
      <trkpt lat="42.84507958" lon="13.63327078">
        <ele>104.00000</ele>
        <time>2024-02-02T11:56:45Z</time>
      </trkpt>
      <trkpt lat="42.84506533" lon="13.63319115">
        <ele>104.00000</ele>
        <time>2024-02-02T11:56:46Z</time>
      </trkpt>
      <trkpt lat="42.84504907" lon="13.63309233">
        <ele>104.00000</ele>
        <time>2024-02-02T11:56:47Z</time>
      </trkpt>
      <trkpt lat="42.84503423" lon="13.63299468">
        <ele>105.00000</ele>
        <time>2024-02-02T11:56:48Z</time>
      </trkpt>
      <trkpt lat="42.84501529" lon="13.63287717">
        <ele>105.00000</ele>
        <time>2024-02-02T11:56:49Z</time>
      </trkpt>
      <trkpt lat="42.84499844" lon="13.63277927">
        <ele>106.00000</ele>
        <time>2024-02-02T11:56:50Z</time>
      </trkpt>
      <trkpt lat="42.84498268" lon="13.63268028">
        <ele>106.00000</ele>
        <time>2024-02-02T11:56:51Z</time>
      </trkpt>
      <trkpt lat="42.84496734" lon="13.63260165">
        <ele>106.00000</ele>
        <time>2024-02-02T11:56:52Z</time>
      </trkpt>
      <trkpt lat="42.84494907" lon="13.63250358">
        <ele>107.00000</ele>
        <time>2024-02-02T11:56:53Z</time>
      </trkpt>
      <trkpt lat="42.84492770" lon="13.63238691">
        <ele>107.00000</ele>
        <time>2024-02-02T11:56:54Z</time>
      </trkpt>
      <trkpt lat="42.84490993" lon="13.63229027">
        <ele>107.00000</ele>
        <time>2024-02-02T11:56:55Z</time>
      </trkpt>
      <trkpt lat="42.84489140" lon="13.63219236">
        <ele>107.00000</ele>
        <time>2024-02-02T11:56:56Z</time>
      </trkpt>
      <trkpt lat="42.84487657" lon="13.63211483">
        <ele>108.00000</ele>
        <time>2024-02-02T11:56:57Z</time>
      </trkpt>
      <trkpt lat="42.84485788" lon="13.63201718">
        <ele>108.00000</ele>
        <time>2024-02-02T11:56:58Z</time>
      </trkpt>
      <trkpt lat="42.84483449" lon="13.63189933">
        <ele>109.00000</ele>
        <time>2024-02-02T11:56:59Z</time>
      </trkpt>
      <trkpt lat="42.84481404" lon="13.63179967">
        <ele>109.00000</ele>
        <time>2024-02-02T11:57:00Z</time>
      </trkpt>
      <trkpt lat="42.84479795" lon="13.63170345">
        <ele>109.00000</ele>
        <time>2024-02-02T11:57:01Z</time>
      </trkpt>
      <trkpt lat="42.84478194" lon="13.63160580">
        <ele>109.00000</ele>
        <time>2024-02-02T11:57:02Z</time>
      </trkpt>
      <trkpt lat="42.84476702" lon="13.63152801">
        <ele>109.00000</ele>
        <time>2024-02-02T11:57:03Z</time>
      </trkpt>
      <trkpt lat="42.84475201" lon="13.63143372">
        <ele>109.00000</ele>
        <time>2024-02-02T11:57:04Z</time>
      </trkpt>
      <trkpt lat="42.84473550" lon="13.63131981">
        <ele>108.00000</ele>
        <time>2024-02-02T11:57:05Z</time>
      </trkpt>
      <trkpt lat="42.84472335" lon="13.63122467">
        <ele>108.00000</ele>
        <time>2024-02-02T11:57:06Z</time>
      </trkpt>
      <trkpt lat="42.84471379" lon="13.63112610">
        <ele>109.00000</ele>
        <time>2024-02-02T11:57:07Z</time>
      </trkpt>
      <trkpt lat="42.84470298" lon="13.63104840">
        <ele>109.00000</ele>
        <time>2024-02-02T11:57:08Z</time>
      </trkpt>
      <trkpt lat="42.84468538" lon="13.63095008">
        <ele>109.00000</ele>
        <time>2024-02-02T11:57:09Z</time>
      </trkpt>
      <trkpt lat="42.84466736" lon="13.63085268">
        <ele>109.00000</ele>
        <time>2024-02-02T11:57:10Z</time>
      </trkpt>
      <trkpt lat="42.84464699" lon="13.63073593">
        <ele>109.00000</ele>
        <time>2024-02-02T11:57:11Z</time>
      </trkpt>
      <trkpt lat="42.84463182" lon="13.63065856">
        <ele>109.00000</ele>
        <time>2024-02-02T11:57:12Z</time>
      </trkpt>
      <trkpt lat="42.84461530" lon="13.63056133">
        <ele>109.00000</ele>
        <time>2024-02-02T11:57:13Z</time>
      </trkpt>
      <trkpt lat="42.84460072" lon="13.63046485">
        <ele>109.00000</ele>
        <time>2024-02-02T11:57:14Z</time>
      </trkpt>
      <trkpt lat="42.84458387" lon="13.63036796">
        <ele>109.00000</ele>
        <time>2024-02-02T11:57:15Z</time>
      </trkpt>
      <trkpt lat="42.84456811" lon="13.63027090">
        <ele>109.00000</ele>
        <time>2024-02-02T11:57:16Z</time>
      </trkpt>
      <trkpt lat="42.84455202" lon="13.63017342">
        <ele>109.00000</ele>
        <time>2024-02-02T11:57:17Z</time>
      </trkpt>
      <trkpt lat="42.84453433" lon="13.63007518">
        <ele>109.00000</ele>
        <time>2024-02-02T11:57:18Z</time>
      </trkpt>
      <trkpt lat="42.84451665" lon="13.62997678">
        <ele>109.00000</ele>
        <time>2024-02-02T11:57:19Z</time>
      </trkpt>
      <trkpt lat="42.84449913" lon="13.62987921">
        <ele>108.00000</ele>
        <time>2024-02-02T11:57:20Z</time>
      </trkpt>
      <trkpt lat="42.84448362" lon="13.62978123">
        <ele>108.00000</ele>
        <time>2024-02-02T11:57:21Z</time>
      </trkpt>
      <trkpt lat="42.84446644" lon="13.62968173">
        <ele>107.00000</ele>
        <time>2024-02-02T11:57:22Z</time>
      </trkpt>
      <trkpt lat="42.84444859" lon="13.62958266">
        <ele>107.00000</ele>
        <time>2024-02-02T11:57:23Z</time>
      </trkpt>
      <trkpt lat="42.84443300" lon="13.62948291">
        <ele>107.00000</ele>
        <time>2024-02-02T11:57:24Z</time>
      </trkpt>
      <trkpt lat="42.84441892" lon="13.62938476">
        <ele>107.00000</ele>
        <time>2024-02-02T11:57:25Z</time>
      </trkpt>
      <trkpt lat="42.84440433" lon="13.62928619">
        <ele>108.00000</ele>
        <time>2024-02-02T11:57:26Z</time>
      </trkpt>
      <trkpt lat="42.84438849" lon="13.62918796">
        <ele>109.00000</ele>
        <time>2024-02-02T11:57:27Z</time>
      </trkpt>
      <trkpt lat="42.84437340" lon="13.62909014">
        <ele>110.00000</ele>
        <time>2024-02-02T11:57:28Z</time>
      </trkpt>
      <trkpt lat="42.84435798" lon="13.62899140">
        <ele>111.00000</ele>
        <time>2024-02-02T11:57:29Z</time>
      </trkpt>
      <trkpt lat="42.84434398" lon="13.62889434">
        <ele>112.00000</ele>
        <time>2024-02-02T11:57:30Z</time>
      </trkpt>
      <trkpt lat="42.84432973" lon="13.62879778">
        <ele>112.00000</ele>
        <time>2024-02-02T11:57:31Z</time>
      </trkpt>
      <trkpt lat="42.84431775" lon="13.62870323">
        <ele>113.00000</ele>
        <time>2024-02-02T11:57:32Z</time>
      </trkpt>
      <trkpt lat="42.84430760" lon="13.62860550">
        <ele>113.00000</ele>
        <time>2024-02-02T11:57:33Z</time>
      </trkpt>
      <trkpt lat="42.84429713" lon="13.62850693">
        <ele>113.00000</ele>
        <time>2024-02-02T11:57:34Z</time>
      </trkpt>
      <trkpt lat="42.84428833" lon="13.62840970">
        <ele>113.00000</ele>
        <time>2024-02-02T11:57:35Z</time>
      </trkpt>
      <trkpt lat="42.84427902" lon="13.62831364">
        <ele>113.00000</ele>
        <time>2024-02-02T11:57:36Z</time>
      </trkpt>
      <trkpt lat="42.84427005" lon="13.62821800">
        <ele>112.00000</ele>
        <time>2024-02-02T11:57:37Z</time>
      </trkpt>
      <trkpt lat="42.84425882" lon="13.62811909">
        <ele>111.00000</ele>
        <time>2024-02-02T11:57:38Z</time>
      </trkpt>
      <trkpt lat="42.84424893" lon="13.62802136">
        <ele>111.00000</ele>
        <time>2024-02-02T11:57:39Z</time>
      </trkpt>
      <trkpt lat="42.84423845" lon="13.62792363">
        <ele>111.00000</ele>
        <time>2024-02-02T11:57:40Z</time>
      </trkpt>
      <trkpt lat="42.84423057" lon="13.62782556">
        <ele>112.00000</ele>
        <time>2024-02-02T11:57:41Z</time>
      </trkpt>
      <trkpt lat="42.84422378" lon="13.62772699">
        <ele>112.00000</ele>
        <time>2024-02-02T11:57:42Z</time>
      </trkpt>
      <trkpt lat="42.84421809" lon="13.62762792">
        <ele>112.00000</ele>
        <time>2024-02-02T11:57:43Z</time>
      </trkpt>
      <trkpt lat="42.84421348" lon="13.62752825">
        <ele>112.00000</ele>
        <time>2024-02-02T11:57:44Z</time>
      </trkpt>
      <trkpt lat="42.84420476" lon="13.62742901">
        <ele>112.00000</ele>
        <time>2024-02-02T11:57:45Z</time>
      </trkpt>
      <trkpt lat="42.84419788" lon="13.62732994">
        <ele>112.00000</ele>
        <time>2024-02-02T11:57:46Z</time>
      </trkpt>
      <trkpt lat="42.84419110" lon="13.62723053">
        <ele>112.00000</ele>
        <time>2024-02-02T11:57:47Z</time>
      </trkpt>
      <trkpt lat="42.84418422" lon="13.62711075">
        <ele>111.00000</ele>
        <time>2024-02-02T11:57:48Z</time>
      </trkpt>
      <trkpt lat="42.84417802" lon="13.62701134">
        <ele>111.00000</ele>
        <time>2024-02-02T11:57:49Z</time>
      </trkpt>
      <trkpt lat="42.84417324" lon="13.62693029">
        <ele>110.00000</ele>
        <time>2024-02-02T11:57:50Z</time>
      </trkpt>
      <trkpt lat="42.84416536" lon="13.62680942">
        <ele>110.00000</ele>
        <time>2024-02-02T11:57:51Z</time>
      </trkpt>
      <trkpt lat="42.84416025" lon="13.62670859">
        <ele>110.00000</ele>
        <time>2024-02-02T11:57:52Z</time>
      </trkpt>
      <trkpt lat="42.84415673" lon="13.62660750">
        <ele>109.00000</ele>
        <time>2024-02-02T11:57:53Z</time>
      </trkpt>
      <trkpt lat="42.84415354" lon="13.62650625">
        <ele>109.00000</ele>
        <time>2024-02-02T11:57:54Z</time>
      </trkpt>
      <trkpt lat="42.84414868" lon="13.62640558">
        <ele>109.00000</ele>
        <time>2024-02-02T11:57:55Z</time>
      </trkpt>
      <trkpt lat="42.84414231" lon="13.62630550">
        <ele>109.00000</ele>
        <time>2024-02-02T11:57:56Z</time>
      </trkpt>
      <trkpt lat="42.84413527" lon="13.62620525">
        <ele>109.00000</ele>
        <time>2024-02-02T11:57:57Z</time>
      </trkpt>
      <trkpt lat="42.84412966" lon="13.62610643">
        <ele>109.00000</ele>
        <time>2024-02-02T11:57:58Z</time>
      </trkpt>
      <trkpt lat="42.84412580" lon="13.62600744">
        <ele>109.00000</ele>
        <time>2024-02-02T11:57:59Z</time>
      </trkpt>
      <trkpt lat="42.84412052" lon="13.62590711">
        <ele>109.00000</ele>
        <time>2024-02-02T11:58:00Z</time>
      </trkpt>
      <trkpt lat="42.84411625" lon="13.62582698">
        <ele>110.00000</ele>
        <time>2024-02-02T11:58:01Z</time>
      </trkpt>
      <trkpt lat="42.84410795" lon="13.62570980">
        <ele>110.00000</ele>
        <time>2024-02-02T11:58:02Z</time>
      </trkpt>
      <trkpt lat="42.84410309" lon="13.62563285">
        <ele>111.00000</ele>
        <time>2024-02-02T11:58:03Z</time>
      </trkpt>
      <trkpt lat="42.84409931" lon="13.62553613">
        <ele>111.00000</ele>
        <time>2024-02-02T11:58:04Z</time>
      </trkpt>
      <trkpt lat="42.84409604" lon="13.62543898">
        <ele>112.00000</ele>
        <time>2024-02-02T11:58:05Z</time>
      </trkpt>
      <trkpt lat="42.84409060" lon="13.62534251">
        <ele>112.00000</ele>
        <time>2024-02-02T11:58:06Z</time>
      </trkpt>
      <trkpt lat="42.84408833" lon="13.62524913">
        <ele>112.00000</ele>
        <time>2024-02-02T11:58:07Z</time>
      </trkpt>
      <trkpt lat="42.84409110" lon="13.62515693">
        <ele>113.00000</ele>
        <time>2024-02-02T11:58:08Z</time>
      </trkpt>
      <trkpt lat="42.84410392" lon="13.62506666">
        <ele>113.00000</ele>
        <time>2024-02-02T11:58:09Z</time>
      </trkpt>
      <trkpt lat="42.84412831" lon="13.62498200">
        <ele>113.00000</ele>
        <time>2024-02-02T11:58:10Z</time>
      </trkpt>
      <trkpt lat="42.84415857" lon="13.62490422">
        <ele>114.00000</ele>
        <time>2024-02-02T11:58:11Z</time>
      </trkpt>
      <trkpt lat="42.84419219" lon="13.62483012">
        <ele>114.00000</ele>
        <time>2024-02-02T11:58:12Z</time>
      </trkpt>
      <trkpt lat="42.84423384" lon="13.62476407">
        <ele>114.00000</ele>
        <time>2024-02-02T11:58:13Z</time>
      </trkpt>
      <trkpt lat="42.84427735" lon="13.62470070">
        <ele>114.00000</ele>
        <time>2024-02-02T11:58:14Z</time>
      </trkpt>
      <trkpt lat="42.84431775" lon="13.62463499">
        <ele>114.00000</ele>
        <time>2024-02-02T11:58:15Z</time>
      </trkpt>
      <trkpt lat="42.84435287" lon="13.62456483">
        <ele>114.00000</ele>
        <time>2024-02-02T11:58:16Z</time>
      </trkpt>
      <trkpt lat="42.84437642" lon="13.62448906">
        <ele>114.00000</ele>
        <time>2024-02-02T11:58:17Z</time>
      </trkpt>
      <trkpt lat="42.84438606" lon="13.62440809">
        <ele>115.00000</ele>
        <time>2024-02-02T11:58:18Z</time>
      </trkpt>
      <trkpt lat="42.84437650" lon="13.62432695">
        <ele>115.00000</ele>
        <time>2024-02-02T11:58:19Z</time>
      </trkpt>
      <trkpt lat="42.84435119" lon="13.62425730">
        <ele>115.00000</ele>
        <time>2024-02-02T11:58:20Z</time>
      </trkpt>
      <trkpt lat="42.84431029" lon="13.62419997">
        <ele>115.00000</ele>
        <time>2024-02-02T11:58:21Z</time>
      </trkpt>
      <trkpt lat="42.84426117" lon="13.62415026">
        <ele>115.00000</ele>
        <time>2024-02-02T11:58:22Z</time>
      </trkpt>
      <trkpt lat="42.84420895" lon="13.62409704">
        <ele>115.00000</ele>
        <time>2024-02-02T11:58:23Z</time>
      </trkpt>
      <trkpt lat="42.84416243" lon="13.62403443">
        <ele>115.00000</ele>
        <time>2024-02-02T11:58:24Z</time>
      </trkpt>
      <trkpt lat="42.84412739" lon="13.62396150">
        <ele>115.00000</ele>
        <time>2024-02-02T11:58:25Z</time>
      </trkpt>
      <trkpt lat="42.84410577" lon="13.62387743">
        <ele>115.00000</ele>
        <time>2024-02-02T11:58:26Z</time>
      </trkpt>
      <trkpt lat="42.84410208" lon="13.62379227">
        <ele>116.00000</ele>
        <time>2024-02-02T11:58:27Z</time>
      </trkpt>
      <trkpt lat="42.84410694" lon="13.62370619">
        <ele>116.00000</ele>
        <time>2024-02-02T11:58:28Z</time>
      </trkpt>
      <trkpt lat="42.84411625" lon="13.62362028">
        <ele>117.00000</ele>
        <time>2024-02-02T11:58:29Z</time>
      </trkpt>
      <trkpt lat="42.84412614" lon="13.62353562">
        <ele>117.00000</ele>
        <time>2024-02-02T11:58:30Z</time>
      </trkpt>
      <trkpt lat="42.84413703" lon="13.62345163">
        <ele>117.00000</ele>
        <time>2024-02-02T11:58:31Z</time>
      </trkpt>
      <trkpt lat="42.84414877" lon="13.62336932">
        <ele>117.00000</ele>
        <time>2024-02-02T11:58:32Z</time>
      </trkpt>
      <trkpt lat="42.84416092" lon="13.62328609">
        <ele>116.00000</ele>
        <time>2024-02-02T11:58:33Z</time>
      </trkpt>
      <trkpt lat="42.84417475" lon="13.62320143">
        <ele>117.00000</ele>
        <time>2024-02-02T11:58:34Z</time>
      </trkpt>
      <trkpt lat="42.84418632" lon="13.62311569">
        <ele>117.00000</ele>
        <time>2024-02-02T11:58:35Z</time>
      </trkpt>
      <trkpt lat="42.84419814" lon="13.62302684">
        <ele>117.00000</ele>
        <time>2024-02-02T11:58:36Z</time>
      </trkpt>
      <trkpt lat="42.84421029" lon="13.62293573">
        <ele>117.00000</ele>
        <time>2024-02-02T11:58:37Z</time>
      </trkpt>
      <trkpt lat="42.84422278" lon="13.62284445">
        <ele>117.00000</ele>
        <time>2024-02-02T11:58:38Z</time>
      </trkpt>
      <trkpt lat="42.84423485" lon="13.62275233">
        <ele>117.00000</ele>
        <time>2024-02-02T11:58:39Z</time>
      </trkpt>
      <trkpt lat="42.84424818" lon="13.62266088">
        <ele>117.00000</ele>
        <time>2024-02-02T11:58:40Z</time>
      </trkpt>
      <trkpt lat="42.84425748" lon="13.62257002">
        <ele>117.00000</ele>
        <time>2024-02-02T11:58:41Z</time>
      </trkpt>
      <trkpt lat="42.84426762" lon="13.62247782">
        <ele>117.00000</ele>
        <time>2024-02-02T11:58:42Z</time>
      </trkpt>
      <trkpt lat="42.84427852" lon="13.62238361">
        <ele>117.00000</ele>
        <time>2024-02-02T11:58:43Z</time>
      </trkpt>
      <trkpt lat="42.84429017" lon="13.62229074">
        <ele>117.00000</ele>
        <time>2024-02-02T11:58:44Z</time>
      </trkpt>
      <trkpt lat="42.84429763" lon="13.62219812">
        <ele>116.00000</ele>
        <time>2024-02-02T11:58:45Z</time>
      </trkpt>
      <trkpt lat="42.84430718" lon="13.62210541">
        <ele>116.00000</ele>
        <time>2024-02-02T11:58:46Z</time>
      </trkpt>
      <trkpt lat="42.84432043" lon="13.62201154">
        <ele>116.00000</ele>
        <time>2024-02-02T11:58:47Z</time>
      </trkpt>
      <trkpt lat="42.84433183" lon="13.62191917">
        <ele>116.00000</ele>
        <time>2024-02-02T11:58:48Z</time>
      </trkpt>
      <trkpt lat="42.84434398" lon="13.62182395">
        <ele>116.00000</ele>
        <time>2024-02-02T11:58:49Z</time>
      </trkpt>
      <trkpt lat="42.84435739" lon="13.62172898">
        <ele>116.00000</ele>
        <time>2024-02-02T11:58:50Z</time>
      </trkpt>
      <trkpt lat="42.84437298" lon="13.62163318">
        <ele>116.00000</ele>
        <time>2024-02-02T11:58:51Z</time>
      </trkpt>
      <trkpt lat="42.84438782" lon="13.62153653">
        <ele>116.00000</ele>
        <time>2024-02-02T11:58:52Z</time>
      </trkpt>
      <trkpt lat="42.84440240" lon="13.62143662">
        <ele>117.00000</ele>
        <time>2024-02-02T11:58:53Z</time>
      </trkpt>
      <trkpt lat="42.84441900" lon="13.62133621">
        <ele>117.00000</ele>
        <time>2024-02-02T11:58:54Z</time>
      </trkpt>
      <trkpt lat="42.84443677" lon="13.62123428">
        <ele>117.00000</ele>
        <time>2024-02-02T11:58:55Z</time>
      </trkpt>
      <trkpt lat="42.84445622" lon="13.62113177">
        <ele>117.00000</ele>
        <time>2024-02-02T11:58:56Z</time>
      </trkpt>
      <trkpt lat="42.84447608" lon="13.62102792">
        <ele>118.00000</ele>
        <time>2024-02-02T11:58:57Z</time>
      </trkpt>
      <trkpt lat="42.84449888" lon="13.62092382">
        <ele>118.00000</ele>
        <time>2024-02-02T11:58:58Z</time>
      </trkpt>
      <trkpt lat="42.84452151" lon="13.62081804">
        <ele>118.00000</ele>
        <time>2024-02-02T11:58:59Z</time>
      </trkpt>
      <trkpt lat="42.84454515" lon="13.62071109">
        <ele>118.00000</ele>
        <time>2024-02-02T11:59:00Z</time>
      </trkpt>
      <trkpt lat="42.84456778" lon="13.62060606">
        <ele>119.00000</ele>
        <time>2024-02-02T11:59:01Z</time>
      </trkpt>
      <trkpt lat="42.84458940" lon="13.62050011">
        <ele>119.00000</ele>
        <time>2024-02-02T11:59:02Z</time>
      </trkpt>
      <trkpt lat="42.84461715" lon="13.62037220">
        <ele>119.00000</ele>
        <time>2024-02-02T11:59:03Z</time>
      </trkpt>
      <trkpt lat="42.84464011" lon="13.62028637">
        <ele>119.00000</ele>
        <time>2024-02-02T11:59:04Z</time>
      </trkpt>
      <trkpt lat="42.84466752" lon="13.62017766">
        <ele>118.00000</ele>
        <time>2024-02-02T11:59:05Z</time>
      </trkpt>
      <trkpt lat="42.84469594" lon="13.62006995">
        <ele>118.00000</ele>
        <time>2024-02-02T11:59:06Z</time>
      </trkpt>
      <trkpt lat="42.84472603" lon="13.61996292">
        <ele>117.00000</ele>
        <time>2024-02-02T11:59:07Z</time>
      </trkpt>
      <trkpt lat="42.84475897" lon="13.61985764">
        <ele>117.00000</ele>
        <time>2024-02-02T11:59:08Z</time>
      </trkpt>
      <trkpt lat="42.84479828" lon="13.61975831">
        <ele>117.00000</ele>
        <time>2024-02-02T11:59:09Z</time>
      </trkpt>
      <trkpt lat="42.84484371" lon="13.61966301">
        <ele>116.00000</ele>
        <time>2024-02-02T11:59:10Z</time>
      </trkpt>
      <trkpt lat="42.84489266" lon="13.61957240">
        <ele>116.00000</ele>
        <time>2024-02-02T11:59:11Z</time>
      </trkpt>
      <trkpt lat="42.84494186" lon="13.61948045">
        <ele>115.00000</ele>
        <time>2024-02-02T11:59:12Z</time>
      </trkpt>
      <trkpt lat="42.84499014" lon="13.61936076">
        <ele>115.00000</ele>
        <time>2024-02-02T11:59:13Z</time>
      </trkpt>
      <trkpt lat="42.84501043" lon="13.61927309">
        <ele>115.00000</ele>
        <time>2024-02-02T11:59:14Z</time>
      </trkpt>
      <trkpt lat="42.84503105" lon="13.61916027">
        <ele>114.00000</ele>
        <time>2024-02-02T11:59:15Z</time>
      </trkpt>
      <trkpt lat="42.84504815" lon="13.61904644">
        <ele>114.00000</ele>
        <time>2024-02-02T11:59:16Z</time>
      </trkpt>
      <trkpt lat="42.84507170" lon="13.61893513">
        <ele>113.00000</ele>
        <time>2024-02-02T11:59:17Z</time>
      </trkpt>
      <trkpt lat="42.84510154" lon="13.61882465">
        <ele>113.00000</ele>
        <time>2024-02-02T11:59:18Z</time>
      </trkpt>
      <trkpt lat="42.84513557" lon="13.61871678">
        <ele>113.00000</ele>
        <time>2024-02-02T11:59:19Z</time>
      </trkpt>
      <trkpt lat="42.84517027" lon="13.61861050">
        <ele>113.00000</ele>
        <time>2024-02-02T11:59:20Z</time>
      </trkpt>
      <trkpt lat="42.84520715" lon="13.61850983">
        <ele>113.00000</ele>
        <time>2024-02-02T11:59:21Z</time>
      </trkpt>
      <trkpt lat="42.84524185" lon="13.61840874">
        <ele>113.00000</ele>
        <time>2024-02-02T11:59:22Z</time>
      </trkpt>
      <trkpt lat="42.84527496" lon="13.61830623">
        <ele>112.00000</ele>
        <time>2024-02-02T11:59:23Z</time>
      </trkpt>
      <trkpt lat="42.84530790" lon="13.61820213">
        <ele>112.00000</ele>
        <time>2024-02-02T11:59:24Z</time>
      </trkpt>
      <trkpt lat="42.84533900" lon="13.61809736">
        <ele>111.00000</ele>
        <time>2024-02-02T11:59:25Z</time>
      </trkpt>
      <trkpt lat="42.84537144" lon="13.61799384">
        <ele>111.00000</ele>
        <time>2024-02-02T11:59:26Z</time>
      </trkpt>
      <trkpt lat="42.84540404" lon="13.61789208">
        <ele>110.00000</ele>
        <time>2024-02-02T11:59:27Z</time>
      </trkpt>
      <trkpt lat="42.84543757" lon="13.61779142">
        <ele>110.00000</ele>
        <time>2024-02-02T11:59:28Z</time>
      </trkpt>
      <trkpt lat="42.84546724" lon="13.61768891">
        <ele>111.00000</ele>
        <time>2024-02-02T11:59:29Z</time>
      </trkpt>
      <trkpt lat="42.84549104" lon="13.61758338">
        <ele>111.00000</ele>
        <time>2024-02-02T11:59:30Z</time>
      </trkpt>
      <trkpt lat="42.84551158" lon="13.61747617">
        <ele>111.00000</ele>
        <time>2024-02-02T11:59:31Z</time>
      </trkpt>
      <trkpt lat="42.84552809" lon="13.61736453">
        <ele>112.00000</ele>
        <time>2024-02-02T11:59:32Z</time>
      </trkpt>
      <trkpt lat="42.84553983" lon="13.61725280">
        <ele>113.00000</ele>
        <time>2024-02-02T11:59:33Z</time>
      </trkpt>
      <trkpt lat="42.84554368" lon="13.61714014">
        <ele>114.00000</ele>
        <time>2024-02-02T11:59:34Z</time>
      </trkpt>
      <trkpt lat="42.84554502" lon="13.61702715">
        <ele>114.00000</ele>
        <time>2024-02-02T11:59:35Z</time>
      </trkpt>
      <trkpt lat="42.84554569" lon="13.61691475">
        <ele>115.00000</ele>
        <time>2024-02-02T11:59:36Z</time>
      </trkpt>
      <trkpt lat="42.84554461" lon="13.61680042">
        <ele>115.00000</ele>
        <time>2024-02-02T11:59:37Z</time>
      </trkpt>
      <trkpt lat="42.84554259" lon="13.61668928">
        <ele>115.00000</ele>
        <time>2024-02-02T11:59:38Z</time>
      </trkpt>
      <trkpt lat="42.84554762" lon="13.61657939">
        <ele>116.00000</ele>
        <time>2024-02-02T11:59:39Z</time>
      </trkpt>
      <trkpt lat="42.84555776" lon="13.61646942">
        <ele>116.00000</ele>
        <time>2024-02-02T11:59:40Z</time>
      </trkpt>
      <trkpt lat="42.84557579" lon="13.61636230">
        <ele>116.00000</ele>
        <time>2024-02-02T11:59:41Z</time>
      </trkpt>
      <trkpt lat="42.84559976" lon="13.61625744">
        <ele>116.00000</ele>
        <time>2024-02-02T11:59:42Z</time>
      </trkpt>
      <trkpt lat="42.84562415" lon="13.61615560">
        <ele>116.00000</ele>
        <time>2024-02-02T11:59:43Z</time>
      </trkpt>
      <trkpt lat="42.84565147" lon="13.61605737">
        <ele>116.00000</ele>
        <time>2024-02-02T11:59:44Z</time>
      </trkpt>
      <trkpt lat="42.84567805" lon="13.61596232">
        <ele>116.00000</ele>
        <time>2024-02-02T11:59:45Z</time>
      </trkpt>
      <trkpt lat="42.84570906" lon="13.61587087">
        <ele>116.00000</ele>
        <time>2024-02-02T11:59:46Z</time>
      </trkpt>
      <trkpt lat="42.84574083" lon="13.61578093">
        <ele>116.00000</ele>
        <time>2024-02-02T11:59:47Z</time>
      </trkpt>
      <trkpt lat="42.84577108" lon="13.61569250">
        <ele>116.00000</ele>
        <time>2024-02-02T11:59:48Z</time>
      </trkpt>
      <trkpt lat="42.84580260" lon="13.61560491">
        <ele>116.00000</ele>
        <time>2024-02-02T11:59:49Z</time>
      </trkpt>
      <trkpt lat="42.84583403" lon="13.61552000">
        <ele>116.00000</ele>
        <time>2024-02-02T11:59:50Z</time>
      </trkpt>
      <trkpt lat="42.84586781" lon="13.61543484">
        <ele>116.00000</ele>
        <time>2024-02-02T11:59:51Z</time>
      </trkpt>
      <trkpt lat="42.84590385" lon="13.61535438">
        <ele>116.00000</ele>
        <time>2024-02-02T11:59:52Z</time>
      </trkpt>
      <trkpt lat="42.84593864" lon="13.61527618">
        <ele>117.00000</ele>
        <time>2024-02-02T11:59:53Z</time>
      </trkpt>
      <trkpt lat="42.84597300" lon="13.61519495">
        <ele>117.00000</ele>
        <time>2024-02-02T11:59:54Z</time>
      </trkpt>
      <trkpt lat="42.84600703" lon="13.61511449">
        <ele>117.00000</ele>
        <time>2024-02-02T11:59:55Z</time>
      </trkpt>
      <trkpt lat="42.84604945" lon="13.61501533">
        <ele>117.00000</ele>
        <time>2024-02-02T11:59:56Z</time>
      </trkpt>
      <trkpt lat="42.84607568" lon="13.61494392">
        <ele>116.00000</ele>
        <time>2024-02-02T11:59:57Z</time>
      </trkpt>
      <trkpt lat="42.84611105" lon="13.61485498">
        <ele>116.00000</ele>
        <time>2024-02-02T11:59:58Z</time>
      </trkpt>
      <trkpt lat="42.84614576" lon="13.61476480">
        <ele>116.00000</ele>
        <time>2024-02-02T11:59:59Z</time>
      </trkpt>
      <trkpt lat="42.84617752" lon="13.61467871">
        <ele>116.00000</ele>
        <time>2024-02-02T12:00:00Z</time>
      </trkpt>
      <trkpt lat="42.84621415" lon="13.61459221">
        <ele>116.00000</ele>
        <time>2024-02-02T12:00:01Z</time>
      </trkpt>
      <trkpt lat="42.84625237" lon="13.61450320">
        <ele>117.00000</ele>
        <time>2024-02-02T12:00:02Z</time>
      </trkpt>
      <trkpt lat="42.84628774" lon="13.61441317">
        <ele>117.00000</ele>
        <time>2024-02-02T12:00:03Z</time>
      </trkpt>
      <trkpt lat="42.84632069" lon="13.61432122">
        <ele>117.00000</ele>
        <time>2024-02-02T12:00:04Z</time>
      </trkpt>
      <trkpt lat="42.84635514" lon="13.61422726">
        <ele>117.00000</ele>
        <time>2024-02-02T12:00:05Z</time>
      </trkpt>
      <trkpt lat="42.84639093" lon="13.61413288">
        <ele>118.00000</ele>
        <time>2024-02-02T12:00:06Z</time>
      </trkpt>
      <trkpt lat="42.84642705" lon="13.61403792">
        <ele>118.00000</ele>
        <time>2024-02-02T12:00:07Z</time>
      </trkpt>
      <trkpt lat="42.84646318" lon="13.61394144">
        <ele>118.00000</ele>
        <time>2024-02-02T12:00:08Z</time>
      </trkpt>
      <trkpt lat="42.84649805" lon="13.61384580">
        <ele>118.00000</ele>
        <time>2024-02-02T12:00:09Z</time>
      </trkpt>
      <trkpt lat="42.84653518" lon="13.61375276">
        <ele>118.00000</ele>
        <time>2024-02-02T12:00:10Z</time>
      </trkpt>
      <trkpt lat="42.84657021" lon="13.61365796">
        <ele>118.00000</ele>
        <time>2024-02-02T12:00:11Z</time>
      </trkpt>
      <trkpt lat="42.84660642" lon="13.61356367">
        <ele>119.00000</ele>
        <time>2024-02-02T12:00:12Z</time>
      </trkpt>
      <trkpt lat="42.84664230" lon="13.61346686">
        <ele>119.00000</ele>
        <time>2024-02-02T12:00:13Z</time>
      </trkpt>
      <trkpt lat="42.84667616" lon="13.61336996">
        <ele>118.00000</ele>
        <time>2024-02-02T12:00:14Z</time>
      </trkpt>
      <trkpt lat="42.84671061" lon="13.61327106">
        <ele>119.00000</ele>
        <time>2024-02-02T12:00:15Z</time>
      </trkpt>
      <trkpt lat="42.84675152" lon="13.61315463">
        <ele>119.00000</ele>
        <time>2024-02-02T12:00:16Z</time>
      </trkpt>
      <trkpt lat="42.84677985" lon="13.61307735">
        <ele>119.00000</ele>
        <time>2024-02-02T12:00:17Z</time>
      </trkpt>
      <trkpt lat="42.84681354" lon="13.61298096">
        <ele>118.00000</ele>
        <time>2024-02-02T12:00:18Z</time>
      </trkpt>
      <trkpt lat="42.84684564" lon="13.61288473">
        <ele>118.00000</ele>
        <time>2024-02-02T12:00:19Z</time>
      </trkpt>
      <trkpt lat="42.84687917" lon="13.61278784">
        <ele>117.00000</ele>
        <time>2024-02-02T12:00:20Z</time>
      </trkpt>
      <trkpt lat="42.84691412" lon="13.61269178">
        <ele>116.00000</ele>
        <time>2024-02-02T12:00:21Z</time>
      </trkpt>
      <trkpt lat="42.84694430" lon="13.61259321">
        <ele>116.00000</ele>
        <time>2024-02-02T12:00:22Z</time>
      </trkpt>
      <trkpt lat="42.84698436" lon="13.61247620">
        <ele>116.00000</ele>
        <time>2024-02-02T12:00:23Z</time>
      </trkpt>
      <trkpt lat="42.84701060" lon="13.61239942">
        <ele>116.00000</ele>
        <time>2024-02-02T12:00:24Z</time>
      </trkpt>
      <trkpt lat="42.84704153" lon="13.61230404">
        <ele>116.00000</ele>
        <time>2024-02-02T12:00:25Z</time>
      </trkpt>
      <trkpt lat="42.84707229" lon="13.61220723">
        <ele>116.00000</ele>
        <time>2024-02-02T12:00:26Z</time>
      </trkpt>
      <trkpt lat="42.84710423" lon="13.61211259">
        <ele>117.00000</ele>
        <time>2024-02-02T12:00:27Z</time>
      </trkpt>
      <trkpt lat="42.84713423" lon="13.61201805">
        <ele>117.00000</ele>
        <time>2024-02-02T12:00:28Z</time>
      </trkpt>
      <trkpt lat="42.84716424" lon="13.61192191">
        <ele>117.00000</ele>
        <time>2024-02-02T12:00:29Z</time>
      </trkpt>
      <trkpt lat="42.84719341" lon="13.61182585">
        <ele>117.00000</ele>
        <time>2024-02-02T12:00:30Z</time>
      </trkpt>
      <trkpt lat="42.84722182" lon="13.61172937">
        <ele>117.00000</ele>
        <time>2024-02-02T12:00:31Z</time>
      </trkpt>
      <trkpt lat="42.84724974" lon="13.61163365">
        <ele>118.00000</ele>
        <time>2024-02-02T12:00:32Z</time>
      </trkpt>
      <trkpt lat="42.84727966" lon="13.61153852">
        <ele>118.00000</ele>
        <time>2024-02-02T12:00:33Z</time>
      </trkpt>
      <trkpt lat="42.84730824" lon="13.61144271">
        <ele>118.00000</ele>
        <time>2024-02-02T12:00:34Z</time>
      </trkpt>
      <trkpt lat="42.84733942" lon="13.61134624">
        <ele>118.00000</ele>
        <time>2024-02-02T12:00:35Z</time>
      </trkpt>
      <trkpt lat="42.84737471" lon="13.61125688">
        <ele>118.00000</ele>
        <time>2024-02-02T12:00:36Z</time>
      </trkpt>
      <trkpt lat="42.84742240" lon="13.61117877">
        <ele>118.00000</ele>
        <time>2024-02-02T12:00:37Z</time>
      </trkpt>
      <trkpt lat="42.84747705" lon="13.61111154">
        <ele>118.00000</ele>
        <time>2024-02-02T12:00:38Z</time>
      </trkpt>
      <trkpt lat="42.84753179" lon="13.61105094">
        <ele>116.00000</ele>
        <time>2024-02-02T12:00:39Z</time>
      </trkpt>
      <trkpt lat="42.84758057" lon="13.61098598">
        <ele>115.00000</ele>
        <time>2024-02-02T12:00:40Z</time>
      </trkpt>
      <trkpt lat="42.84761728" lon="13.61091331">
        <ele>114.00000</ele>
        <time>2024-02-02T12:00:41Z</time>
      </trkpt>
      <trkpt lat="42.84764075" lon="13.61083636">
        <ele>113.00000</ele>
        <time>2024-02-02T12:00:42Z</time>
      </trkpt>
      <trkpt lat="42.84765115" lon="13.61075288">
        <ele>113.00000</ele>
        <time>2024-02-02T12:00:43Z</time>
      </trkpt>
      <trkpt lat="42.84764369" lon="13.61064777">
        <ele>113.00000</ele>
        <time>2024-02-02T12:00:44Z</time>
      </trkpt>
      <trkpt lat="42.84761779" lon="13.61057979">
        <ele>114.00000</ele>
        <time>2024-02-02T12:00:45Z</time>
      </trkpt>
      <trkpt lat="42.84756355" lon="13.61050645">
        <ele>115.00000</ele>
        <time>2024-02-02T12:00:46Z</time>
      </trkpt>
      <trkpt lat="42.84749432" lon="13.61044979">
        <ele>117.00000</ele>
        <time>2024-02-02T12:00:47Z</time>
      </trkpt>
      <trkpt lat="42.84742265" lon="13.61040688">
        <ele>118.00000</ele>
        <time>2024-02-02T12:00:48Z</time>
      </trkpt>
      <trkpt lat="42.84735392" lon="13.61037402">
        <ele>119.00000</ele>
        <time>2024-02-02T12:00:49Z</time>
      </trkpt>
      <trkpt lat="42.84728511" lon="13.61034611">
        <ele>119.00000</ele>
        <time>2024-02-02T12:00:50Z</time>
      </trkpt>
      <trkpt lat="42.84722199" lon="13.61031912">
        <ele>120.00000</ele>
        <time>2024-02-02T12:00:51Z</time>
      </trkpt>
      <trkpt lat="42.84716273" lon="13.61028844">
        <ele>120.00000</ele>
        <time>2024-02-02T12:00:52Z</time>
      </trkpt>
      <trkpt lat="42.84710657" lon="13.61025600">
        <ele>121.00000</ele>
        <time>2024-02-02T12:00:53Z</time>
      </trkpt>
      <trkpt lat="42.84705653" lon="13.61022155">
        <ele>121.00000</ele>
        <time>2024-02-02T12:00:54Z</time>
      </trkpt>
      <trkpt lat="42.84701655" lon="13.61018048">
        <ele>121.00000</ele>
        <time>2024-02-02T12:00:55Z</time>
      </trkpt>
      <trkpt lat="42.84698386" lon="13.61013958">
        <ele>121.00000</ele>
        <time>2024-02-02T12:00:56Z</time>
      </trkpt>
      <trkpt lat="42.84696165" lon="13.61010136">
        <ele>121.00000</ele>
        <time>2024-02-02T12:00:57Z</time>
      </trkpt>
      <trkpt lat="42.84694497" lon="13.61006632">
        <ele>121.00000</ele>
        <time>2024-02-02T12:00:58Z</time>
      </trkpt>
      <trkpt lat="42.84693500" lon="13.61005039">
        <ele>121.00000</ele>
        <time>2024-02-02T12:00:59Z</time>
      </trkpt>
      <trkpt lat="42.84692041" lon="13.61003598">
        <ele>121.00000</ele>
        <time>2024-02-02T12:01:00Z</time>
      </trkpt>
      <trkpt lat="42.84691002" lon="13.61002047">
        <ele>121.00000</ele>
        <time>2024-02-02T12:01:01Z</time>
      </trkpt>
      <trkpt lat="42.84690549" lon="13.60999558">
        <ele>121.00000</ele>
        <time>2024-02-02T12:01:02Z</time>
      </trkpt>
      <trkpt lat="42.84690432" lon="13.60996004">
        <ele>122.00000</ele>
        <time>2024-02-02T12:01:03Z</time>
      </trkpt>
      <trkpt lat="42.84690281" lon="13.60989399">
        <ele>122.00000</ele>
        <time>2024-02-02T12:01:04Z</time>
      </trkpt>
      <trkpt lat="42.84690842" lon="13.60982140">
        <ele>122.00000</ele>
        <time>2024-02-02T12:01:05Z</time>
      </trkpt>
      <trkpt lat="42.84691622" lon="13.60975787">
        <ele>122.00000</ele>
        <time>2024-02-02T12:01:06Z</time>
      </trkpt>
      <trkpt lat="42.84692695" lon="13.60967212">
        <ele>123.00000</ele>
        <time>2024-02-02T12:01:07Z</time>
      </trkpt>
      <trkpt lat="42.84695209" lon="13.60956165">
        <ele>123.00000</ele>
        <time>2024-02-02T12:01:08Z</time>
      </trkpt>
      <trkpt lat="42.84697121" lon="13.60946190">
        <ele>123.00000</ele>
        <time>2024-02-02T12:01:09Z</time>
      </trkpt>
      <trkpt lat="42.84698596" lon="13.60936266">
        <ele>123.00000</ele>
        <time>2024-02-02T12:01:10Z</time>
      </trkpt>
      <trkpt lat="42.84700716" lon="13.60926132">
        <ele>123.00000</ele>
        <time>2024-02-02T12:01:11Z</time>
      </trkpt>
      <trkpt lat="42.84702929" lon="13.60916141">
        <ele>123.00000</ele>
        <time>2024-02-02T12:01:12Z</time>
      </trkpt>
      <trkpt lat="42.84705796" lon="13.60906024">
        <ele>122.00000</ele>
        <time>2024-02-02T12:01:13Z</time>
      </trkpt>
      <trkpt lat="42.84708629" lon="13.60896142">
        <ele>122.00000</ele>
        <time>2024-02-02T12:01:14Z</time>
      </trkpt>
      <trkpt lat="42.84711495" lon="13.60886410">
        <ele>122.00000</ele>
        <time>2024-02-02T12:01:15Z</time>
      </trkpt>
      <trkpt lat="42.84714153" lon="13.60876268">
        <ele>122.00000</ele>
        <time>2024-02-02T12:01:16Z</time>
      </trkpt>
      <trkpt lat="42.84717321" lon="13.60865573">
        <ele>122.00000</ele>
        <time>2024-02-02T12:01:17Z</time>
      </trkpt>
      <trkpt lat="42.84720070" lon="13.60854861">
        <ele>122.00000</ele>
        <time>2024-02-02T12:01:18Z</time>
      </trkpt>
      <trkpt lat="42.84723012" lon="13.60844316">
        <ele>121.00000</ele>
        <time>2024-02-02T12:01:19Z</time>
      </trkpt>
      <trkpt lat="42.84726164" lon="13.60834233">
        <ele>121.00000</ele>
        <time>2024-02-02T12:01:20Z</time>
      </trkpt>
      <trkpt lat="42.84729290" lon="13.60823663">
        <ele>121.00000</ele>
        <time>2024-02-02T12:01:21Z</time>
      </trkpt>
      <trkpt lat="42.84731847" lon="13.60815382">
        <ele>121.00000</ele>
        <time>2024-02-02T12:01:22Z</time>
      </trkpt>
      <trkpt lat="42.84735526" lon="13.60802893">
        <ele>121.00000</ele>
        <time>2024-02-02T12:01:23Z</time>
      </trkpt>
      <trkpt lat="42.84738108" lon="13.60792608">
        <ele>121.00000</ele>
        <time>2024-02-02T12:01:24Z</time>
      </trkpt>
      <trkpt lat="42.84741234" lon="13.60782969">
        <ele>121.00000</ele>
        <time>2024-02-02T12:01:25Z</time>
      </trkpt>
      <trkpt lat="42.84743908" lon="13.60773263">
        <ele>121.00000</ele>
        <time>2024-02-02T12:01:26Z</time>
      </trkpt>
      <trkpt lat="42.84746414" lon="13.60764060">
        <ele>121.00000</ele>
        <time>2024-02-02T12:01:27Z</time>
      </trkpt>
      <trkpt lat="42.84749139" lon="13.60755292">
        <ele>121.00000</ele>
        <time>2024-02-02T12:01:28Z</time>
      </trkpt>
      <trkpt lat="42.84751888" lon="13.60746642">
        <ele>122.00000</ele>
        <time>2024-02-02T12:01:29Z</time>
      </trkpt>
      <trkpt lat="42.84754469" lon="13.60738009">
        <ele>122.00000</ele>
        <time>2024-02-02T12:01:30Z</time>
      </trkpt>
      <trkpt lat="42.84756858" lon="13.60728939">
        <ele>122.00000</ele>
        <time>2024-02-02T12:01:31Z</time>
      </trkpt>
      <trkpt lat="42.84759616" lon="13.60720004">
        <ele>123.00000</ele>
        <time>2024-02-02T12:01:32Z</time>
      </trkpt>
      <trkpt lat="42.84762508" lon="13.60711514">
        <ele>123.00000</ele>
        <time>2024-02-02T12:01:33Z</time>
      </trkpt>
      <trkpt lat="42.84765475" lon="13.60702872">
        <ele>123.00000</ele>
        <time>2024-02-02T12:01:34Z</time>
      </trkpt>
      <trkpt lat="42.84768844" lon="13.60694280">
        <ele>123.00000</ele>
        <time>2024-02-02T12:01:35Z</time>
      </trkpt>
      <trkpt lat="42.84772323" lon="13.60685664">
        <ele>123.00000</ele>
        <time>2024-02-02T12:01:36Z</time>
      </trkpt>
      <trkpt lat="42.84775701" lon="13.60676896">
        <ele>123.00000</ele>
        <time>2024-02-02T12:01:37Z</time>
      </trkpt>
      <trkpt lat="42.84779246" lon="13.60668187">
        <ele>123.00000</ele>
        <time>2024-02-02T12:01:38Z</time>
      </trkpt>
      <trkpt lat="42.84783043" lon="13.60659655">
        <ele>124.00000</ele>
        <time>2024-02-02T12:01:39Z</time>
      </trkpt>
      <trkpt lat="42.84786958" lon="13.60651114">
        <ele>124.00000</ele>
        <time>2024-02-02T12:01:40Z</time>
      </trkpt>
      <trkpt lat="42.84790822" lon="13.60642539">
        <ele>124.00000</ele>
        <time>2024-02-02T12:01:41Z</time>
      </trkpt>
      <trkpt lat="42.84794493" lon="13.60633822">
        <ele>124.00000</ele>
        <time>2024-02-02T12:01:42Z</time>
      </trkpt>
      <trkpt lat="42.84798156" lon="13.60625146">
        <ele>124.00000</ele>
        <time>2024-02-02T12:01:43Z</time>
      </trkpt>
      <trkpt lat="42.84801961" lon="13.60616555">
        <ele>124.00000</ele>
        <time>2024-02-02T12:01:44Z</time>
      </trkpt>
      <trkpt lat="42.84805549" lon="13.60607838">
        <ele>125.00000</ele>
        <time>2024-02-02T12:01:45Z</time>
      </trkpt>
      <trkpt lat="42.84809270" lon="13.60599297">
        <ele>125.00000</ele>
        <time>2024-02-02T12:01:46Z</time>
      </trkpt>
      <trkpt lat="42.84813059" lon="13.60590764">
        <ele>125.00000</ele>
        <time>2024-02-02T12:01:47Z</time>
      </trkpt>
      <trkpt lat="42.84816705" lon="13.60582223">
        <ele>125.00000</ele>
        <time>2024-02-02T12:01:48Z</time>
      </trkpt>
      <trkpt lat="42.84820670" lon="13.60573598">
        <ele>124.00000</ele>
        <time>2024-02-02T12:01:49Z</time>
      </trkpt>
      <trkpt lat="42.84824358" lon="13.60564922">
        <ele>124.00000</ele>
        <time>2024-02-02T12:01:50Z</time>
      </trkpt>
      <trkpt lat="42.84828063" lon="13.60556155">
        <ele>124.00000</ele>
        <time>2024-02-02T12:01:51Z</time>
      </trkpt>
      <trkpt lat="42.84831725" lon="13.60547262">
        <ele>124.00000</ele>
        <time>2024-02-02T12:01:52Z</time>
      </trkpt>
      <trkpt lat="42.84835388" lon="13.60538494">
        <ele>123.00000</ele>
        <time>2024-02-02T12:01:53Z</time>
      </trkpt>
      <trkpt lat="42.84838942" lon="13.60529735">
        <ele>123.00000</ele>
        <time>2024-02-02T12:01:54Z</time>
      </trkpt>
      <trkpt lat="42.84842547" lon="13.60521211">
        <ele>123.00000</ele>
        <time>2024-02-02T12:01:55Z</time>
      </trkpt>
      <trkpt lat="42.84845765" lon="13.60512334">
        <ele>124.00000</ele>
        <time>2024-02-02T12:01:56Z</time>
      </trkpt>
      <trkpt lat="42.84848540" lon="13.60503114">
        <ele>124.00000</ele>
        <time>2024-02-02T12:01:57Z</time>
      </trkpt>
      <trkpt lat="42.84850887" lon="13.60493768">
        <ele>125.00000</ele>
        <time>2024-02-02T12:01:58Z</time>
      </trkpt>
      <trkpt lat="42.84852957" lon="13.60484171">
        <ele>125.00000</ele>
        <time>2024-02-02T12:01:59Z</time>
      </trkpt>
      <trkpt lat="42.84854893" lon="13.60474373">
        <ele>125.00000</ele>
        <time>2024-02-02T12:02:00Z</time>
      </trkpt>
      <trkpt lat="42.84856829" lon="13.60464164">
        <ele>126.00000</ele>
        <time>2024-02-02T12:02:01Z</time>
      </trkpt>
      <trkpt lat="42.84858824" lon="13.60453929">
        <ele>126.00000</ele>
        <time>2024-02-02T12:02:02Z</time>
      </trkpt>
      <trkpt lat="42.84860786" lon="13.60443670">
        <ele>127.00000</ele>
        <time>2024-02-02T12:02:03Z</time>
      </trkpt>
      <trkpt lat="42.84862906" lon="13.60433612">
        <ele>127.00000</ele>
        <time>2024-02-02T12:02:04Z</time>
      </trkpt>
      <trkpt lat="42.84864859" lon="13.60423453">
        <ele>127.00000</ele>
        <time>2024-02-02T12:02:05Z</time>
      </trkpt>
      <trkpt lat="42.84866846" lon="13.60413176">
        <ele>127.00000</ele>
        <time>2024-02-02T12:02:06Z</time>
      </trkpt>
      <trkpt lat="42.84868774" lon="13.60403143">
        <ele>127.00000</ele>
        <time>2024-02-02T12:02:07Z</time>
      </trkpt>
      <trkpt lat="42.84870726" lon="13.60392859">
        <ele>127.00000</ele>
        <time>2024-02-02T12:02:08Z</time>
      </trkpt>
      <trkpt lat="42.84872839" lon="13.60382549">
        <ele>127.00000</ele>
        <time>2024-02-02T12:02:09Z</time>
      </trkpt>
      <trkpt lat="42.84874792" lon="13.60372281">
        <ele>127.00000</ele>
        <time>2024-02-02T12:02:10Z</time>
      </trkpt>
      <trkpt lat="42.84876225" lon="13.60364167">
        <ele>127.00000</ele>
        <time>2024-02-02T12:02:11Z</time>
      </trkpt>
      <trkpt lat="42.84878337" lon="13.60352014">
        <ele>127.00000</ele>
        <time>2024-02-02T12:02:12Z</time>
      </trkpt>
      <trkpt lat="42.84880215" lon="13.60341779">
        <ele>127.00000</ele>
        <time>2024-02-02T12:02:13Z</time>
      </trkpt>
      <trkpt lat="42.84882185" lon="13.60331579">
        <ele>127.00000</ele>
        <time>2024-02-02T12:02:14Z</time>
      </trkpt>
      <trkpt lat="42.84884255" lon="13.60321512">
        <ele>127.00000</ele>
        <time>2024-02-02T12:02:15Z</time>
      </trkpt>
      <trkpt lat="42.84886350" lon="13.60311378">
        <ele>127.00000</ele>
        <time>2024-02-02T12:02:16Z</time>
      </trkpt>
      <trkpt lat="42.84888613" lon="13.60301488">
        <ele>127.00000</ele>
        <time>2024-02-02T12:02:17Z</time>
      </trkpt>
      <trkpt lat="42.84890843" lon="13.60291530">
        <ele>127.00000</ele>
        <time>2024-02-02T12:02:18Z</time>
      </trkpt>
      <trkpt lat="42.84892863" lon="13.60281296">
        <ele>127.00000</ele>
        <time>2024-02-02T12:02:19Z</time>
      </trkpt>
      <trkpt lat="42.84894933" lon="13.60271028">
        <ele>127.00000</ele>
        <time>2024-02-02T12:02:20Z</time>
      </trkpt>
      <trkpt lat="42.84897037" lon="13.60260768">
        <ele>127.00000</ele>
        <time>2024-02-02T12:02:21Z</time>
      </trkpt>
      <trkpt lat="42.84899225" lon="13.60250534">
        <ele>127.00000</ele>
        <time>2024-02-02T12:02:22Z</time>
      </trkpt>
      <trkpt lat="42.84900759" lon="13.60242244">
        <ele>127.00000</ele>
        <time>2024-02-02T12:02:23Z</time>
      </trkpt>
      <trkpt lat="42.84903106" lon="13.60229923">
        <ele>127.00000</ele>
        <time>2024-02-02T12:02:24Z</time>
      </trkpt>
      <trkpt lat="42.84905151" lon="13.60219479">
        <ele>127.00000</ele>
        <time>2024-02-02T12:02:25Z</time>
      </trkpt>
      <trkpt lat="42.84907255" lon="13.60209094">
        <ele>127.00000</ele>
        <time>2024-02-02T12:02:26Z</time>
      </trkpt>
      <trkpt lat="42.84909308" lon="13.60198600">
        <ele>127.00000</ele>
        <time>2024-02-02T12:02:27Z</time>
      </trkpt>
      <trkpt lat="42.84911261" lon="13.60187921">
        <ele>126.00000</ele>
        <time>2024-02-02T12:02:28Z</time>
      </trkpt>
      <trkpt lat="42.84913533" lon="13.60177318">
        <ele>126.00000</ele>
        <time>2024-02-02T12:02:29Z</time>
      </trkpt>
      <trkpt lat="42.84915603" lon="13.60166656">
        <ele>125.00000</ele>
        <time>2024-02-02T12:02:30Z</time>
      </trkpt>
      <trkpt lat="42.84917305" lon="13.60155827">
        <ele>125.00000</ele>
        <time>2024-02-02T12:02:31Z</time>
      </trkpt>
      <trkpt lat="42.84919157" lon="13.60145148">
        <ele>125.00000</ele>
        <time>2024-02-02T12:02:32Z</time>
      </trkpt>
      <trkpt lat="42.84921890" lon="13.60134679">
        <ele>126.00000</ele>
        <time>2024-02-02T12:02:33Z</time>
      </trkpt>
      <trkpt lat="42.84924387" lon="13.60124001">
        <ele>126.00000</ele>
        <time>2024-02-02T12:02:34Z</time>
      </trkpt>
      <trkpt lat="42.84926910" lon="13.60113305">
        <ele>126.00000</ele>
        <time>2024-02-02T12:02:35Z</time>
      </trkpt>
      <trkpt lat="42.84928754" lon="13.60104504">
        <ele>127.00000</ele>
        <time>2024-02-02T12:02:36Z</time>
      </trkpt>
      <trkpt lat="42.84932065" lon="13.60091730">
        <ele>127.00000</ele>
        <time>2024-02-02T12:02:37Z</time>
      </trkpt>
      <trkpt lat="42.84935309" lon="13.60081437">
        <ele>128.00000</ele>
        <time>2024-02-02T12:02:38Z</time>
      </trkpt>
      <trkpt lat="42.84938586" lon="13.60071178">
        <ele>128.00000</ele>
        <time>2024-02-02T12:02:39Z</time>
      </trkpt>
      <trkpt lat="42.84941771" lon="13.60061212">
        <ele>128.00000</ele>
        <time>2024-02-02T12:02:40Z</time>
      </trkpt>
      <trkpt lat="42.84944663" lon="13.60051355">
        <ele>128.00000</ele>
        <time>2024-02-02T12:02:41Z</time>
      </trkpt>
      <trkpt lat="42.84947421" lon="13.60041724">
        <ele>128.00000</ele>
        <time>2024-02-02T12:02:42Z</time>
      </trkpt>
      <trkpt lat="42.84950061" lon="13.60032370">
        <ele>128.00000</ele>
        <time>2024-02-02T12:02:43Z</time>
      </trkpt>
      <trkpt lat="42.84952358" lon="13.60023125">
        <ele>128.00000</ele>
        <time>2024-02-02T12:02:44Z</time>
      </trkpt>
      <trkpt lat="42.84954512" lon="13.60013913">
        <ele>128.00000</ele>
        <time>2024-02-02T12:02:45Z</time>
      </trkpt>
      <trkpt lat="42.84956649" lon="13.60004961">
        <ele>128.00000</ele>
        <time>2024-02-02T12:02:46Z</time>
      </trkpt>
      <trkpt lat="42.84958879" lon="13.59996152">
        <ele>128.00000</ele>
        <time>2024-02-02T12:02:47Z</time>
      </trkpt>
      <trkpt lat="42.84961360" lon="13.59987837">
        <ele>128.00000</ele>
        <time>2024-02-02T12:02:48Z</time>
      </trkpt>
      <trkpt lat="42.84963984" lon="13.59980075">
        <ele>128.00000</ele>
        <time>2024-02-02T12:02:49Z</time>
      </trkpt>
      <trkpt lat="42.84966624" lon="13.59972364">
        <ele>128.00000</ele>
        <time>2024-02-02T12:02:50Z</time>
      </trkpt>
      <trkpt lat="42.84970010" lon="13.59964761">
        <ele>128.00000</ele>
        <time>2024-02-02T12:02:51Z</time>
      </trkpt>
      <trkpt lat="42.84973338" lon="13.59957134">
        <ele>129.00000</ele>
        <time>2024-02-02T12:02:52Z</time>
      </trkpt>
      <trkpt lat="42.84976280" lon="13.59949573">
        <ele>129.00000</ele>
        <time>2024-02-02T12:02:53Z</time>
      </trkpt>
      <trkpt lat="42.84979884" lon="13.59942432">
        <ele>129.00000</ele>
        <time>2024-02-02T12:02:54Z</time>
      </trkpt>
      <trkpt lat="42.84983723" lon="13.59935433">
        <ele>129.00000</ele>
        <time>2024-02-02T12:02:55Z</time>
      </trkpt>
      <trkpt lat="42.84987528" lon="13.59928610">
        <ele>130.00000</ele>
        <time>2024-02-02T12:02:56Z</time>
      </trkpt>
      <trkpt lat="42.84991476" lon="13.59921905">
        <ele>130.00000</ele>
        <time>2024-02-02T12:02:57Z</time>
      </trkpt>
      <trkpt lat="42.84995432" lon="13.59915141">
        <ele>130.00000</ele>
        <time>2024-02-02T12:02:58Z</time>
      </trkpt>
      <trkpt lat="42.84999037" lon="13.59908368">
        <ele>130.00000</ele>
        <time>2024-02-02T12:02:59Z</time>
      </trkpt>
      <trkpt lat="42.85002834" lon="13.59901646">
        <ele>131.00000</ele>
        <time>2024-02-02T12:03:00Z</time>
      </trkpt>
      <trkpt lat="42.85005876" lon="13.59896130">
        <ele>131.00000</ele>
        <time>2024-02-02T12:03:01Z</time>
      </trkpt>
      <trkpt lat="42.85009916" lon="13.59887614">
        <ele>131.00000</ele>
        <time>2024-02-02T12:03:02Z</time>
      </trkpt>
      <trkpt lat="42.85012842" lon="13.59880448">
        <ele>132.00000</ele>
        <time>2024-02-02T12:03:03Z</time>
      </trkpt>
      <trkpt lat="42.85015893" lon="13.59872988">
        <ele>132.00000</ele>
        <time>2024-02-02T12:03:04Z</time>
      </trkpt>
      <trkpt lat="42.85019036" lon="13.59865545">
        <ele>133.00000</ele>
        <time>2024-02-02T12:03:05Z</time>
      </trkpt>
      <trkpt lat="42.85022162" lon="13.59857951">
        <ele>134.00000</ele>
        <time>2024-02-02T12:03:06Z</time>
      </trkpt>
      <trkpt lat="42.85024962" lon="13.59850097">
        <ele>134.00000</ele>
        <time>2024-02-02T12:03:07Z</time>
      </trkpt>
      <trkpt lat="42.85027711" lon="13.59842260">
        <ele>134.00000</ele>
        <time>2024-02-02T12:03:08Z</time>
      </trkpt>
      <trkpt lat="42.85030301" lon="13.59834406">
        <ele>134.00000</ele>
        <time>2024-02-02T12:03:09Z</time>
      </trkpt>
      <trkpt lat="42.85032824" lon="13.59826837">
        <ele>134.00000</ele>
        <time>2024-02-02T12:03:10Z</time>
      </trkpt>
      <trkpt lat="42.85035322" lon="13.59819252">
        <ele>135.00000</ele>
        <time>2024-02-02T12:03:11Z</time>
      </trkpt>
      <trkpt lat="42.85037996" lon="13.59811624">
        <ele>135.00000</ele>
        <time>2024-02-02T12:03:12Z</time>
      </trkpt>
      <trkpt lat="42.85040318" lon="13.59805128">
        <ele>135.00000</ele>
        <time>2024-02-02T12:03:13Z</time>
      </trkpt>
      <trkpt lat="42.85043905" lon="13.59795548">
        <ele>135.00000</ele>
        <time>2024-02-02T12:03:14Z</time>
      </trkpt>
      <trkpt lat="42.85046705" lon="13.59787560">
        <ele>136.00000</ele>
        <time>2024-02-02T12:03:15Z</time>
      </trkpt>
      <trkpt lat="42.85049404" lon="13.59779429">
        <ele>136.00000</ele>
        <time>2024-02-02T12:03:16Z</time>
      </trkpt>
      <trkpt lat="42.85051608" lon="13.59772866">
        <ele>136.00000</ele>
        <time>2024-02-02T12:03:17Z</time>
      </trkpt>
      <trkpt lat="42.85054969" lon="13.59763495">
        <ele>137.00000</ele>
        <time>2024-02-02T12:03:18Z</time>
      </trkpt>
      <trkpt lat="42.85057567" lon="13.59755373">
        <ele>138.00000</ele>
        <time>2024-02-02T12:03:19Z</time>
      </trkpt>
      <trkpt lat="42.85060149" lon="13.59747595">
        <ele>138.00000</ele>
        <time>2024-02-02T12:03:20Z</time>
      </trkpt>
      <trkpt lat="42.85062219" lon="13.59739992">
        <ele>139.00000</ele>
        <time>2024-02-02T12:03:21Z</time>
      </trkpt>
      <trkpt lat="42.85063820" lon="13.59733806">
        <ele>139.00000</ele>
        <time>2024-02-02T12:03:22Z</time>
      </trkpt>
      <trkpt lat="42.85066301" lon="13.59724653">
        <ele>139.00000</ele>
        <time>2024-02-02T12:03:23Z</time>
      </trkpt>
      <trkpt lat="42.85068506" lon="13.59716732">
        <ele>139.00000</ele>
        <time>2024-02-02T12:03:24Z</time>
      </trkpt>
      <trkpt lat="42.85071180" lon="13.59709390">
        <ele>139.00000</ele>
        <time>2024-02-02T12:03:25Z</time>
      </trkpt>
      <trkpt lat="42.85073988" lon="13.59701871">
        <ele>139.00000</ele>
        <time>2024-02-02T12:03:26Z</time>
      </trkpt>
      <trkpt lat="42.85075647" lon="13.59695585">
        <ele>139.00000</ele>
        <time>2024-02-02T12:03:27Z</time>
      </trkpt>
      <trkpt lat="42.85077575" lon="13.59687890">
        <ele>140.00000</ele>
        <time>2024-02-02T12:03:28Z</time>
      </trkpt>
      <trkpt lat="42.85080383" lon="13.59679014">
        <ele>140.00000</ele>
        <time>2024-02-02T12:03:29Z</time>
      </trkpt>
      <trkpt lat="42.85082261" lon="13.59671629">
        <ele>140.00000</ele>
        <time>2024-02-02T12:03:30Z</time>
      </trkpt>
      <trkpt lat="42.85083484" lon="13.59664932">
        <ele>139.00000</ele>
        <time>2024-02-02T12:03:31Z</time>
      </trkpt>
      <trkpt lat="42.85084784" lon="13.59658135">
        <ele>139.00000</ele>
        <time>2024-02-02T12:03:32Z</time>
      </trkpt>
      <trkpt lat="42.85086460" lon="13.59651521">
        <ele>139.00000</ele>
        <time>2024-02-02T12:03:33Z</time>
      </trkpt>
      <trkpt lat="42.85088287" lon="13.59645193">
        <ele>139.00000</ele>
        <time>2024-02-02T12:03:34Z</time>
      </trkpt>
      <trkpt lat="42.85089620" lon="13.59639099">
        <ele>139.00000</ele>
        <time>2024-02-02T12:03:35Z</time>
      </trkpt>
      <trkpt lat="42.85090726" lon="13.59634338">
        <ele>138.00000</ele>
        <time>2024-02-02T12:03:36Z</time>
      </trkpt>
      <trkpt lat="42.85093065" lon="13.59628764">
        <ele>138.00000</ele>
        <time>2024-02-02T12:03:37Z</time>
      </trkpt>
      <trkpt lat="42.85093895" lon="13.59622377">
        <ele>138.00000</ele>
        <time>2024-02-02T12:03:38Z</time>
      </trkpt>
      <trkpt lat="42.85095236" lon="13.59617147">
        <ele>138.00000</ele>
        <time>2024-02-02T12:03:39Z</time>
      </trkpt>
      <trkpt lat="42.85096418" lon="13.59611908">
        <ele>138.00000</ele>
        <time>2024-02-02T12:03:40Z</time>
      </trkpt>
      <trkpt lat="42.85096837" lon="13.59607147">
        <ele>138.00000</ele>
        <time>2024-02-02T12:03:41Z</time>
      </trkpt>
      <trkpt lat="42.85097784" lon="13.59600442">
        <ele>138.00000</ele>
        <time>2024-02-02T12:03:42Z</time>
      </trkpt>
      <trkpt lat="42.85099267" lon="13.59594298">
        <ele>138.00000</ele>
        <time>2024-02-02T12:03:43Z</time>
      </trkpt>
      <trkpt lat="42.85100324" lon="13.59587500">
        <ele>139.00000</ele>
        <time>2024-02-02T12:03:44Z</time>
      </trkpt>
      <trkpt lat="42.85101355" lon="13.59581826">
        <ele>139.00000</ele>
        <time>2024-02-02T12:03:45Z</time>
      </trkpt>
      <trkpt lat="42.85102226" lon="13.59577476">
        <ele>139.00000</ele>
        <time>2024-02-02T12:03:46Z</time>
      </trkpt>
      <trkpt lat="42.85102671" lon="13.59574014">
        <ele>139.00000</ele>
        <time>2024-02-02T12:03:47Z</time>
      </trkpt>
      <trkpt lat="42.85102905" lon="13.59570879">
        <ele>139.00000</ele>
        <time>2024-02-02T12:03:48Z</time>
      </trkpt>
      <trkpt lat="42.85103391" lon="13.59567325">
        <ele>139.00000</ele>
        <time>2024-02-02T12:03:49Z</time>
      </trkpt>
      <trkpt lat="42.85104297" lon="13.59563377">
        <ele>139.00000</ele>
        <time>2024-02-02T12:03:50Z</time>
      </trkpt>
      <trkpt lat="42.85104783" lon="13.59559999">
        <ele>139.00000</ele>
        <time>2024-02-02T12:03:51Z</time>
      </trkpt>
      <trkpt lat="42.85105789" lon="13.59554392">
        <ele>139.00000</ele>
        <time>2024-02-02T12:03:52Z</time>
      </trkpt>
      <trkpt lat="42.85106551" lon="13.59550151">
        <ele>139.00000</ele>
        <time>2024-02-02T12:03:53Z</time>
      </trkpt>
      <trkpt lat="42.85106090" lon="13.59543428">
        <ele>139.00000</ele>
        <time>2024-02-02T12:03:54Z</time>
      </trkpt>
      <trkpt lat="42.85106602" lon="13.59537234">
        <ele>139.00000</ele>
        <time>2024-02-02T12:03:55Z</time>
      </trkpt>
      <trkpt lat="42.85107021" lon="13.59530260">
        <ele>139.00000</ele>
        <time>2024-02-02T12:03:56Z</time>
      </trkpt>
      <trkpt lat="42.85107683" lon="13.59524619">
        <ele>140.00000</ele>
        <time>2024-02-02T12:03:57Z</time>
      </trkpt>
      <trkpt lat="42.85109250" lon="13.59516229">
        <ele>140.00000</ele>
        <time>2024-02-02T12:03:58Z</time>
      </trkpt>
      <trkpt lat="42.85110332" lon="13.59508744">
        <ele>141.00000</ele>
        <time>2024-02-02T12:03:59Z</time>
      </trkpt>
      <trkpt lat="42.85111287" lon="13.59501929">
        <ele>141.00000</ele>
        <time>2024-02-02T12:04:00Z</time>
      </trkpt>
      <trkpt lat="42.85112285" lon="13.59495459">
        <ele>142.00000</ele>
        <time>2024-02-02T12:04:01Z</time>
      </trkpt>
      <trkpt lat="42.85113525" lon="13.59491108">
        <ele>142.00000</ele>
        <time>2024-02-02T12:04:02Z</time>
      </trkpt>
      <trkpt lat="42.85114623" lon="13.59484571">
        <ele>142.00000</ele>
        <time>2024-02-02T12:04:03Z</time>
      </trkpt>
      <trkpt lat="42.85115587" lon="13.59479600">
        <ele>142.00000</ele>
        <time>2024-02-02T12:04:04Z</time>
      </trkpt>
      <trkpt lat="42.85118252" lon="13.59474512">
        <ele>142.00000</ele>
        <time>2024-02-02T12:04:05Z</time>
      </trkpt>
      <trkpt lat="42.85121857" lon="13.59468787">
        <ele>142.00000</ele>
        <time>2024-02-02T12:04:06Z</time>
      </trkpt>
      <trkpt lat="42.85124740" lon="13.59462291">
        <ele>142.00000</ele>
        <time>2024-02-02T12:04:07Z</time>
      </trkpt>
      <trkpt lat="42.85126861" lon="13.59456374">
        <ele>143.00000</ele>
        <time>2024-02-02T12:04:08Z</time>
      </trkpt>
      <trkpt lat="42.85127917" lon="13.59452099">
        <ele>143.00000</ele>
        <time>2024-02-02T12:04:09Z</time>
      </trkpt>
      <trkpt lat="42.85128420" lon="13.59448092">
        <ele>143.00000</ele>
        <time>2024-02-02T12:04:10Z</time>
      </trkpt>
      <trkpt lat="42.85129015" lon="13.59443675">
        <ele>143.00000</ele>
        <time>2024-02-02T12:04:11Z</time>
      </trkpt>
      <trkpt lat="42.85129233" lon="13.59440691">
        <ele>143.00000</ele>
        <time>2024-02-02T12:04:12Z</time>
      </trkpt>
      <trkpt lat="42.85129694" lon="13.59437640">
        <ele>143.00000</ele>
        <time>2024-02-02T12:04:13Z</time>
      </trkpt>
      <trkpt lat="42.85131932" lon="13.59434019">
        <ele>143.00000</ele>
        <time>2024-02-02T12:04:14Z</time>
      </trkpt>
      <trkpt lat="42.85132242" lon="13.59429292">
        <ele>144.00000</ele>
        <time>2024-02-02T12:04:15Z</time>
      </trkpt>
      <trkpt lat="42.85132359" lon="13.59425629">
        <ele>144.00000</ele>
        <time>2024-02-02T12:04:16Z</time>
      </trkpt>
      <trkpt lat="42.85131823" lon="13.59420944">
        <ele>144.00000</ele>
        <time>2024-02-02T12:04:17Z</time>
      </trkpt>
      <trkpt lat="42.85132292" lon="13.59416224">
        <ele>145.00000</ele>
        <time>2024-02-02T12:04:18Z</time>
      </trkpt>
      <trkpt lat="42.85133256" lon="13.59411707">
        <ele>145.00000</ele>
        <time>2024-02-02T12:04:19Z</time>
      </trkpt>
      <trkpt lat="42.85133918" lon="13.59407491">
        <ele>145.00000</ele>
        <time>2024-02-02T12:04:20Z</time>
      </trkpt>
      <trkpt lat="42.85134782" lon="13.59403727">
        <ele>145.00000</ele>
        <time>2024-02-02T12:04:21Z</time>
      </trkpt>
      <trkpt lat="42.85134958" lon="13.59400416">
        <ele>145.00000</ele>
        <time>2024-02-02T12:04:22Z</time>
      </trkpt>
      <trkpt lat="42.85134924" lon="13.59396561">
        <ele>145.00000</ele>
        <time>2024-02-02T12:04:23Z</time>
      </trkpt>
      <trkpt lat="42.85134539" lon="13.59392680">
        <ele>145.00000</ele>
        <time>2024-02-02T12:04:24Z</time>
      </trkpt>
      <trkpt lat="42.85134958" lon="13.59388606">
        <ele>145.00000</ele>
        <time>2024-02-02T12:04:25Z</time>
      </trkpt>
      <trkpt lat="42.85135586" lon="13.59383837">
        <ele>145.00000</ele>
        <time>2024-02-02T12:04:26Z</time>
      </trkpt>
      <trkpt lat="42.85134857" lon="13.59379788">
        <ele>145.00000</ele>
        <time>2024-02-02T12:04:27Z</time>
      </trkpt>
      <trkpt lat="42.85134002" lon="13.59376771">
        <ele>145.00000</ele>
        <time>2024-02-02T12:04:28Z</time>
      </trkpt>
      <trkpt lat="42.85134145" lon="13.59374742">
        <ele>145.00000</ele>
        <time>2024-02-02T12:04:29Z</time>
      </trkpt>
      <trkpt lat="42.85134228" lon="13.59373502">
        <ele>145.00000</ele>
        <time>2024-02-02T12:04:30Z</time>
      </trkpt>
      <trkpt lat="42.85134488" lon="13.59372152">
        <ele>145.00000</ele>
        <time>2024-02-02T12:04:31Z</time>
      </trkpt>
      <trkpt lat="42.85134924" lon="13.59369789">
        <ele>145.00000</ele>
        <time>2024-02-02T12:04:32Z</time>
      </trkpt>
      <trkpt lat="42.85135159" lon="13.59366327">
        <ele>145.00000</ele>
        <time>2024-02-02T12:04:33Z</time>
      </trkpt>
      <trkpt lat="42.85134723" lon="13.59361591">
        <ele>145.00000</ele>
        <time>2024-02-02T12:04:34Z</time>
      </trkpt>
      <trkpt lat="42.85134413" lon="13.59355607">
        <ele>146.00000</ele>
        <time>2024-02-02T12:04:35Z</time>
      </trkpt>
      <trkpt lat="42.85134614" lon="13.59349320">
        <ele>146.00000</ele>
        <time>2024-02-02T12:04:36Z</time>
      </trkpt>
      <trkpt lat="42.85135284" lon="13.59342807">
        <ele>146.00000</ele>
        <time>2024-02-02T12:04:37Z</time>
      </trkpt>
      <trkpt lat="42.85135251" lon="13.59335498">
        <ele>146.00000</ele>
        <time>2024-02-02T12:04:38Z</time>
      </trkpt>
      <trkpt lat="42.85134849" lon="13.59328131">
        <ele>146.00000</ele>
        <time>2024-02-02T12:04:39Z</time>
      </trkpt>
      <trkpt lat="42.85134731" lon="13.59321886">
        <ele>146.00000</ele>
        <time>2024-02-02T12:04:40Z</time>
      </trkpt>
      <trkpt lat="42.85136357" lon="13.59314250">
        <ele>146.00000</ele>
        <time>2024-02-02T12:04:41Z</time>
      </trkpt>
      <trkpt lat="42.85137112" lon="13.59306807">
        <ele>147.00000</ele>
        <time>2024-02-02T12:04:42Z</time>
      </trkpt>
      <trkpt lat="42.85137698" lon="13.59299666">
        <ele>147.00000</ele>
        <time>2024-02-02T12:04:43Z</time>
      </trkpt>
      <trkpt lat="42.85138755" lon="13.59291728">
        <ele>147.00000</ele>
        <time>2024-02-02T12:04:44Z</time>
      </trkpt>
      <trkpt lat="42.85139450" lon="13.59283237">
        <ele>147.00000</ele>
        <time>2024-02-02T12:04:45Z</time>
      </trkpt>
      <trkpt lat="42.85139199" lon="13.59274327">
        <ele>148.00000</ele>
        <time>2024-02-02T12:04:46Z</time>
      </trkpt>
      <trkpt lat="42.85139987" lon="13.59266021">
        <ele>148.00000</ele>
        <time>2024-02-02T12:04:47Z</time>
      </trkpt>
      <trkpt lat="42.85141898" lon="13.59257605">
        <ele>149.00000</ele>
        <time>2024-02-02T12:04:48Z</time>
      </trkpt>
      <trkpt lat="42.85144270" lon="13.59250556">
        <ele>149.00000</ele>
        <time>2024-02-02T12:04:49Z</time>
      </trkpt>
      <trkpt lat="42.85147874" lon="13.59242979">
        <ele>149.00000</ele>
        <time>2024-02-02T12:04:50Z</time>
      </trkpt>
      <trkpt lat="42.85148360" lon="13.59234513">
        <ele>149.00000</ele>
        <time>2024-02-02T12:04:51Z</time>
      </trkpt>
      <trkpt lat="42.85147120" lon="13.59227422">
        <ele>149.00000</ele>
        <time>2024-02-02T12:04:52Z</time>
      </trkpt>
      <trkpt lat="42.85147614" lon="13.59220331">
        <ele>149.00000</ele>
        <time>2024-02-02T12:04:53Z</time>
      </trkpt>
      <trkpt lat="42.85148134" lon="13.59212142">
        <ele>150.00000</ele>
        <time>2024-02-02T12:04:54Z</time>
      </trkpt>
      <trkpt lat="42.85148888" lon="13.59204129">
        <ele>150.00000</ele>
        <time>2024-02-02T12:04:55Z</time>
      </trkpt>
      <trkpt lat="42.85149467" lon="13.59196267">
        <ele>150.00000</ele>
        <time>2024-02-02T12:04:56Z</time>
      </trkpt>
      <trkpt lat="42.85150816" lon="13.59188857">
        <ele>151.00000</ele>
        <time>2024-02-02T12:04:57Z</time>
      </trkpt>
      <trkpt lat="42.85152325" lon="13.59180609">
        <ele>151.00000</ele>
        <time>2024-02-02T12:04:58Z</time>
      </trkpt>
      <trkpt lat="42.85154177" lon="13.59172588">
        <ele>152.00000</ele>
        <time>2024-02-02T12:04:59Z</time>
      </trkpt>
      <trkpt lat="42.85155351" lon="13.59162873">
        <ele>152.00000</ele>
        <time>2024-02-02T12:05:00Z</time>
      </trkpt>
      <trkpt lat="42.85155720" lon="13.59156218">
        <ele>152.00000</ele>
        <time>2024-02-02T12:05:01Z</time>
      </trkpt>
      <trkpt lat="42.85155979" lon="13.59147568">
        <ele>153.00000</ele>
        <time>2024-02-02T12:05:02Z</time>
      </trkpt>
      <trkpt lat="42.85156273" lon="13.59138783">
        <ele>153.00000</ele>
        <time>2024-02-02T12:05:03Z</time>
      </trkpt>
      <trkpt lat="42.85156860" lon="13.59130075">
        <ele>153.00000</ele>
        <time>2024-02-02T12:05:04Z</time>
      </trkpt>
      <trkpt lat="42.85158058" lon="13.59119589">
        <ele>154.00000</ele>
        <time>2024-02-02T12:05:05Z</time>
      </trkpt>
      <trkpt lat="42.85158142" lon="13.59112464">
        <ele>154.00000</ele>
        <time>2024-02-02T12:05:06Z</time>
      </trkpt>
      <trkpt lat="42.85159424" lon="13.59101761">
        <ele>155.00000</ele>
        <time>2024-02-02T12:05:07Z</time>
      </trkpt>
      <trkpt lat="42.85160439" lon="13.59092859">
        <ele>155.00000</ele>
        <time>2024-02-02T12:05:08Z</time>
      </trkpt>
      <trkpt lat="42.85161327" lon="13.59085667">
        <ele>155.00000</ele>
        <time>2024-02-02T12:05:09Z</time>
      </trkpt>
      <trkpt lat="42.85162727" lon="13.59074804">
        <ele>155.00000</ele>
        <time>2024-02-02T12:05:10Z</time>
      </trkpt>
      <trkpt lat="42.85163976" lon="13.59065962">
        <ele>155.00000</ele>
        <time>2024-02-02T12:05:11Z</time>
      </trkpt>
      <trkpt lat="42.85164948" lon="13.59058560">
        <ele>155.00000</ele>
        <time>2024-02-02T12:05:12Z</time>
      </trkpt>
      <trkpt lat="42.85165937" lon="13.59049667">
        <ele>154.00000</ele>
        <time>2024-02-02T12:05:13Z</time>
      </trkpt>
      <trkpt lat="42.85166842" lon="13.59039131">
        <ele>154.00000</ele>
        <time>2024-02-02T12:05:14Z</time>
      </trkpt>
      <trkpt lat="42.85167555" lon="13.59032300">
        <ele>154.00000</ele>
        <time>2024-02-02T12:05:15Z</time>
      </trkpt>
      <trkpt lat="42.85168309" lon="13.59023817">
        <ele>153.00000</ele>
        <time>2024-02-02T12:05:16Z</time>
      </trkpt>
      <trkpt lat="42.85168795" lon="13.59015620">
        <ele>153.00000</ele>
        <time>2024-02-02T12:05:17Z</time>
      </trkpt>
      <trkpt lat="42.85169634" lon="13.59006073">
        <ele>153.00000</ele>
        <time>2024-02-02T12:05:18Z</time>
      </trkpt>
      <trkpt lat="42.85170765" lon="13.58999946">
        <ele>152.00000</ele>
        <time>2024-02-02T12:05:19Z</time>
      </trkpt>
      <trkpt lat="42.85171964" lon="13.58991002">
        <ele>153.00000</ele>
        <time>2024-02-02T12:05:20Z</time>
      </trkpt>
      <trkpt lat="42.85170841" lon="13.58984364">
        <ele>153.00000</ele>
        <time>2024-02-02T12:05:21Z</time>
      </trkpt>
      <trkpt lat="42.85169810" lon="13.58973987">
        <ele>153.00000</ele>
        <time>2024-02-02T12:05:22Z</time>
      </trkpt>
      <trkpt lat="42.85170463" lon="13.58967022">
        <ele>153.00000</ele>
        <time>2024-02-02T12:05:23Z</time>
      </trkpt>
      <trkpt lat="42.85171444" lon="13.58958371">
        <ele>154.00000</ele>
        <time>2024-02-02T12:05:24Z</time>
      </trkpt>
      <trkpt lat="42.85173045" lon="13.58949897">
        <ele>154.00000</ele>
        <time>2024-02-02T12:05:25Z</time>
      </trkpt>
      <trkpt lat="42.85174663" lon="13.58941608">
        <ele>154.00000</ele>
        <time>2024-02-02T12:05:26Z</time>
      </trkpt>
      <trkpt lat="42.85176012" lon="13.58933050">
        <ele>154.00000</ele>
        <time>2024-02-02T12:05:27Z</time>
      </trkpt>
      <trkpt lat="42.85178183" lon="13.58922824">
        <ele>154.00000</ele>
        <time>2024-02-02T12:05:28Z</time>
      </trkpt>
      <trkpt lat="42.85179776" lon="13.58916227">
        <ele>154.00000</ele>
        <time>2024-02-02T12:05:29Z</time>
      </trkpt>
      <trkpt lat="42.85182458" lon="13.58908013">
        <ele>154.00000</ele>
        <time>2024-02-02T12:05:30Z</time>
      </trkpt>
      <trkpt lat="42.85184562" lon="13.58899329">
        <ele>154.00000</ele>
        <time>2024-02-02T12:05:31Z</time>
      </trkpt>
      <trkpt lat="42.85185148" lon="13.58890671">
        <ele>154.00000</ele>
        <time>2024-02-02T12:05:32Z</time>
      </trkpt>
      <trkpt lat="42.85187479" lon="13.58880738">
        <ele>153.00000</ele>
        <time>2024-02-02T12:05:33Z</time>
      </trkpt>
      <trkpt lat="42.85189214" lon="13.58873882">
        <ele>153.00000</ele>
        <time>2024-02-02T12:05:34Z</time>
      </trkpt>
      <trkpt lat="42.85191368" lon="13.58865223">
        <ele>152.00000</ele>
        <time>2024-02-02T12:05:35Z</time>
      </trkpt>
      <trkpt lat="42.85193530" lon="13.58856590">
        <ele>151.00000</ele>
        <time>2024-02-02T12:05:36Z</time>
      </trkpt>
      <trkpt lat="42.85196187" lon="13.58848049">
        <ele>151.00000</ele>
        <time>2024-02-02T12:05:37Z</time>
      </trkpt>
      <trkpt lat="42.85198668" lon="13.58839399">
        <ele>151.00000</ele>
        <time>2024-02-02T12:05:38Z</time>
      </trkpt>
      <trkpt lat="42.85201074" lon="13.58831495">
        <ele>151.00000</ele>
        <time>2024-02-02T12:05:39Z</time>
      </trkpt>
      <trkpt lat="42.85204611" lon="13.58825753">
        <ele>151.00000</ele>
        <time>2024-02-02T12:05:40Z</time>
      </trkpt>
      <trkpt lat="42.85209741" lon="13.58821176">
        <ele>151.00000</ele>
        <time>2024-02-02T12:05:41Z</time>
      </trkpt>
      <trkpt lat="42.85213362" lon="13.58819106">
        <ele>151.00000</ele>
        <time>2024-02-02T12:05:42Z</time>
      </trkpt>
      <trkpt lat="42.85218626" lon="13.58817555">
        <ele>151.00000</ele>
        <time>2024-02-02T12:05:43Z</time>
      </trkpt>
      <trkpt lat="42.85224736" lon="13.58816340">
        <ele>151.00000</ele>
        <time>2024-02-02T12:05:44Z</time>
      </trkpt>
      <trkpt lat="42.85231106" lon="13.58815686">
        <ele>151.00000</ele>
        <time>2024-02-02T12:05:45Z</time>
      </trkpt>
      <trkpt lat="42.85237535" lon="13.58815695">
        <ele>152.00000</ele>
        <time>2024-02-02T12:05:46Z</time>
      </trkpt>
      <trkpt lat="42.85244266" lon="13.58815343">
        <ele>152.00000</ele>
        <time>2024-02-02T12:05:47Z</time>
      </trkpt>
      <trkpt lat="42.85251089" lon="13.58814270">
        <ele>153.00000</ele>
        <time>2024-02-02T12:05:48Z</time>
      </trkpt>
      <trkpt lat="42.85257970" lon="13.58813909">
        <ele>153.00000</ele>
        <time>2024-02-02T12:05:49Z</time>
      </trkpt>
      <trkpt lat="42.85266210" lon="13.58812962">
        <ele>153.00000</ele>
        <time>2024-02-02T12:05:50Z</time>
      </trkpt>
      <trkpt lat="42.85272127" lon="13.58812401">
        <ele>154.00000</ele>
        <time>2024-02-02T12:05:51Z</time>
      </trkpt>
      <trkpt lat="42.85279328" lon="13.58812132">
        <ele>154.00000</ele>
        <time>2024-02-02T12:05:52Z</time>
      </trkpt>
      <trkpt lat="42.85287919" lon="13.58811311">
        <ele>154.00000</ele>
        <time>2024-02-02T12:05:53Z</time>
      </trkpt>
      <trkpt lat="42.85293820" lon="13.58810607">
        <ele>154.00000</ele>
        <time>2024-02-02T12:05:54Z</time>
      </trkpt>
      <trkpt lat="42.85301414" lon="13.58810246">
        <ele>154.00000</ele>
        <time>2024-02-02T12:05:55Z</time>
      </trkpt>
      <trkpt lat="42.85308673" lon="13.58809718">
        <ele>154.00000</ele>
        <time>2024-02-02T12:05:56Z</time>
      </trkpt>
      <trkpt lat="42.85315738" lon="13.58809366">
        <ele>154.00000</ele>
        <time>2024-02-02T12:05:57Z</time>
      </trkpt>
      <trkpt lat="42.85322863" lon="13.58809718">
        <ele>154.00000</ele>
        <time>2024-02-02T12:05:58Z</time>
      </trkpt>
      <trkpt lat="42.85329636" lon="13.58809668">
        <ele>153.00000</ele>
        <time>2024-02-02T12:05:59Z</time>
      </trkpt>
      <trkpt lat="42.85336417" lon="13.58809475">
        <ele>153.00000</ele>
        <time>2024-02-02T12:06:00Z</time>
      </trkpt>
      <trkpt lat="42.85342787" lon="13.58808511">
        <ele>152.00000</ele>
        <time>2024-02-02T12:06:01Z</time>
      </trkpt>
      <trkpt lat="42.85349635" lon="13.58807371">
        <ele>152.00000</ele>
        <time>2024-02-02T12:06:02Z</time>
      </trkpt>
      <trkpt lat="42.85358604" lon="13.58808453">
        <ele>151.00000</ele>
        <time>2024-02-02T12:06:03Z</time>
      </trkpt>
      <trkpt lat="42.85365502" lon="13.58809894">
        <ele>150.00000</ele>
        <time>2024-02-02T12:06:04Z</time>
      </trkpt>
      <trkpt lat="42.85371637" lon="13.58810774">
        <ele>150.00000</ele>
        <time>2024-02-02T12:06:05Z</time>
      </trkpt>
      <trkpt lat="42.85375711" lon="13.58810355">
        <ele>150.00000</ele>
        <time>2024-02-02T12:06:06Z</time>
      </trkpt>
      <trkpt lat="42.85381444" lon="13.58812786">
        <ele>149.00000</ele>
        <time>2024-02-02T12:06:07Z</time>
      </trkpt>
      <trkpt lat="42.85387328" lon="13.58816960">
        <ele>149.00000</ele>
        <time>2024-02-02T12:06:08Z</time>
      </trkpt>
      <trkpt lat="42.85392818" lon="13.58817053">
        <ele>149.00000</ele>
        <time>2024-02-02T12:06:09Z</time>
      </trkpt>
      <trkpt lat="42.85394621" lon="13.58817136">
        <ele>149.00000</ele>
        <time>2024-02-02T12:06:10Z</time>
      </trkpt>
      <trkpt lat="42.85397252" lon="13.58818804">
        <ele>149.00000</ele>
        <time>2024-02-02T12:06:11Z</time>
      </trkpt>
      <trkpt lat="42.85400765" lon="13.58820531">
        <ele>149.00000</ele>
        <time>2024-02-02T12:06:12Z</time>
      </trkpt>
      <trkpt lat="42.85404964" lon="13.58822920">
        <ele>149.00000</ele>
        <time>2024-02-02T12:06:13Z</time>
      </trkpt>
      <trkpt lat="42.85408216" lon="13.58823959">
        <ele>149.00000</ele>
        <time>2024-02-02T12:06:14Z</time>
      </trkpt>
      <trkpt lat="42.85412709" lon="13.58824118">
        <ele>149.00000</ele>
        <time>2024-02-02T12:06:15Z</time>
      </trkpt>
      <trkpt lat="42.85417445" lon="13.58822073">
        <ele>149.00000</ele>
        <time>2024-02-02T12:06:16Z</time>
      </trkpt>
      <trkpt lat="42.85421317" lon="13.58817673">
        <ele>149.00000</ele>
        <time>2024-02-02T12:06:17Z</time>
      </trkpt>
      <trkpt lat="42.85424469" lon="13.58812258">
        <ele>148.00000</ele>
        <time>2024-02-02T12:06:18Z</time>
      </trkpt>
      <trkpt lat="42.85426204" lon="13.58805871">
        <ele>148.00000</ele>
        <time>2024-02-02T12:06:19Z</time>
      </trkpt>
      <trkpt lat="42.85426463" lon="13.58799241">
        <ele>148.00000</ele>
        <time>2024-02-02T12:06:20Z</time>
      </trkpt>
      <trkpt lat="42.85425349" lon="13.58792854">
        <ele>148.00000</ele>
        <time>2024-02-02T12:06:21Z</time>
      </trkpt>
      <trkpt lat="42.85422951" lon="13.58786727">
        <ele>148.00000</ele>
        <time>2024-02-02T12:06:22Z</time>
      </trkpt>
      <trkpt lat="42.85420177" lon="13.58780960">
        <ele>148.00000</ele>
        <time>2024-02-02T12:06:23Z</time>
      </trkpt>
      <trkpt lat="42.85417906" lon="13.58775428">
        <ele>148.00000</ele>
        <time>2024-02-02T12:06:24Z</time>
      </trkpt>
      <trkpt lat="42.85415869" lon="13.58768991">
        <ele>148.00000</ele>
        <time>2024-02-02T12:06:25Z</time>
      </trkpt>
      <trkpt lat="42.85414209" lon="13.58761983">
        <ele>148.00000</ele>
        <time>2024-02-02T12:06:26Z</time>
      </trkpt>
      <trkpt lat="42.85413731" lon="13.58754524">
        <ele>149.00000</ele>
        <time>2024-02-02T12:06:27Z</time>
      </trkpt>
      <trkpt lat="42.85415911" lon="13.58746469">
        <ele>149.00000</ele>
        <time>2024-02-02T12:06:28Z</time>
      </trkpt>
      <trkpt lat="42.85417168" lon="13.58738179">
        <ele>149.00000</ele>
        <time>2024-02-02T12:06:29Z</time>
      </trkpt>
      <trkpt lat="42.85417109" lon="13.58729587">
        <ele>150.00000</ele>
        <time>2024-02-02T12:06:30Z</time>
      </trkpt>
      <trkpt lat="42.85417134" lon="13.58720988">
        <ele>150.00000</ele>
        <time>2024-02-02T12:06:31Z</time>
      </trkpt>
      <trkpt lat="42.85416975" lon="13.58712622">
        <ele>150.00000</ele>
        <time>2024-02-02T12:06:32Z</time>
      </trkpt>
      <trkpt lat="42.85417520" lon="13.58704391">
        <ele>150.00000</ele>
        <time>2024-02-02T12:06:33Z</time>
      </trkpt>
      <trkpt lat="42.85418266" lon="13.58696303">
        <ele>150.00000</ele>
        <time>2024-02-02T12:06:34Z</time>
      </trkpt>
      <trkpt lat="42.85418459" lon="13.58685951">
        <ele>149.00000</ele>
        <time>2024-02-02T12:06:35Z</time>
      </trkpt>
      <trkpt lat="42.85419045" lon="13.58678843">
        <ele>149.00000</ele>
        <time>2024-02-02T12:06:36Z</time>
      </trkpt>
      <trkpt lat="42.85418442" lon="13.58669539">
        <ele>148.00000</ele>
        <time>2024-02-02T12:06:37Z</time>
      </trkpt>
      <trkpt lat="42.85416891" lon="13.58659749">
        <ele>146.00000</ele>
        <time>2024-02-02T12:06:38Z</time>
      </trkpt>
      <trkpt lat="42.85416447" lon="13.58650278">
        <ele>145.00000</ele>
        <time>2024-02-02T12:06:39Z</time>
      </trkpt>
      <trkpt lat="42.85416154" lon="13.58640789">
        <ele>143.00000</ele>
        <time>2024-02-02T12:06:40Z</time>
      </trkpt>
      <trkpt lat="42.85415693" lon="13.58631393">
        <ele>141.00000</ele>
        <time>2024-02-02T12:06:41Z</time>
      </trkpt>
      <trkpt lat="42.85414754" lon="13.58621872">
        <ele>140.00000</ele>
        <time>2024-02-02T12:06:42Z</time>
      </trkpt>
      <trkpt lat="42.85413748" lon="13.58612040">
        <ele>138.00000</ele>
        <time>2024-02-02T12:06:43Z</time>
      </trkpt>
      <trkpt lat="42.85412935" lon="13.58600154">
        <ele>136.00000</ele>
        <time>2024-02-02T12:06:44Z</time>
      </trkpt>
      <trkpt lat="42.85412114" lon="13.58592124">
        <ele>135.00000</ele>
        <time>2024-02-02T12:06:45Z</time>
      </trkpt>
      <trkpt lat="42.85411368" lon="13.58582250">
        <ele>133.00000</ele>
        <time>2024-02-02T12:06:46Z</time>
      </trkpt>
      <trkpt lat="42.85410722" lon="13.58572619">
        <ele>132.00000</ele>
        <time>2024-02-02T12:06:47Z</time>
      </trkpt>
      <trkpt lat="42.85410094" lon="13.58563299">
        <ele>131.00000</ele>
        <time>2024-02-02T12:06:48Z</time>
      </trkpt>
      <trkpt lat="42.85408987" lon="13.58554020">
        <ele>130.00000</ele>
        <time>2024-02-02T12:06:49Z</time>
      </trkpt>
      <trkpt lat="42.85407906" lon="13.58545018">
        <ele>132.00000</ele>
        <time>2024-02-02T12:06:50Z</time>
      </trkpt>
      <trkpt lat="42.85406825" lon="13.58534742">
        <ele>135.00000</ele>
        <time>2024-02-02T12:06:51Z</time>
      </trkpt>
      <trkpt lat="42.85406288" lon="13.58527801">
        <ele>136.00000</ele>
        <time>2024-02-02T12:06:52Z</time>
      </trkpt>
      <trkpt lat="42.85405634" lon="13.58519378">
        <ele>139.00000</ele>
        <time>2024-02-02T12:06:53Z</time>
      </trkpt>
      <trkpt lat="42.85404880" lon="13.58509370">
        <ele>143.00000</ele>
        <time>2024-02-02T12:06:54Z</time>
      </trkpt>
      <trkpt lat="42.85404888" lon="13.58502672">
        <ele>145.00000</ele>
        <time>2024-02-02T12:06:55Z</time>
      </trkpt>
      <trkpt lat="42.85405618" lon="13.58494517">
        <ele>147.00000</ele>
        <time>2024-02-02T12:06:56Z</time>
      </trkpt>
      <trkpt lat="42.85406263" lon="13.58486294">
        <ele>150.00000</ele>
        <time>2024-02-02T12:06:57Z</time>
      </trkpt>
      <trkpt lat="42.85406833" lon="13.58477887">
        <ele>152.00000</ele>
        <time>2024-02-02T12:06:58Z</time>
      </trkpt>
      <trkpt lat="42.85406808" lon="13.58469489">
        <ele>154.00000</ele>
        <time>2024-02-02T12:06:59Z</time>
      </trkpt>
      <trkpt lat="42.85406766" lon="13.58461459">
        <ele>156.00000</ele>
        <time>2024-02-02T12:07:00Z</time>
      </trkpt>
      <trkpt lat="42.85406934" lon="13.58453840">
        <ele>158.00000</ele>
        <time>2024-02-02T12:07:01Z</time>
      </trkpt>
      <trkpt lat="42.85407084" lon="13.58446422">
        <ele>159.00000</ele>
        <time>2024-02-02T12:07:02Z</time>
      </trkpt>
      <trkpt lat="42.85407068" lon="13.58438987">
        <ele>160.00000</ele>
        <time>2024-02-02T12:07:03Z</time>
      </trkpt>
      <trkpt lat="42.85407244" lon="13.58430865">
        <ele>160.00000</ele>
        <time>2024-02-02T12:07:04Z</time>
      </trkpt>
      <trkpt lat="42.85407520" lon="13.58425048">
        <ele>159.00000</ele>
        <time>2024-02-02T12:07:05Z</time>
      </trkpt>
      <trkpt lat="42.85407437" lon="13.58420731">
        <ele>160.00000</ele>
        <time>2024-02-02T12:07:06Z</time>
      </trkpt>
      <trkpt lat="42.85407386" lon="13.58418661">
        <ele>160.00000</ele>
        <time>2024-02-02T12:07:07Z</time>
      </trkpt>
      <trkpt lat="42.85407152" lon="13.58416959">
        <ele>160.00000</ele>
        <time>2024-02-02T12:07:08Z</time>
      </trkpt>
      <trkpt lat="42.85406959" lon="13.58415249">
        <ele>159.00000</ele>
        <time>2024-02-02T12:07:09Z</time>
      </trkpt>
      <trkpt lat="42.85407043" lon="13.58414369">
        <ele>159.00000</ele>
        <time>2024-02-02T12:07:10Z</time>
      </trkpt>
      <trkpt lat="42.85407009" lon="13.58413606">
        <ele>159.00000</ele>
        <time>2024-02-02T12:07:11Z</time>
      </trkpt>
      <trkpt lat="42.85407219" lon="13.58413120">
        <ele>159.00000</ele>
        <time>2024-02-02T12:07:13Z</time>
      </trkpt>
      <trkpt lat="42.85408317" lon="13.58403263">
        <ele>158.00000</ele>
        <time>2024-02-02T12:07:18Z</time>
      </trkpt>
      <trkpt lat="42.85407361" lon="13.58395359">
        <ele>156.00000</ele>
        <time>2024-02-02T12:07:19Z</time>
      </trkpt>
      <trkpt lat="42.85406984" lon="13.58386114">
        <ele>155.00000</ele>
        <time>2024-02-02T12:07:20Z</time>
      </trkpt>
      <trkpt lat="42.85405517" lon="13.58373876">
        <ele>154.00000</ele>
        <time>2024-02-02T12:07:21Z</time>
      </trkpt>
      <trkpt lat="42.85404704" lon="13.58364975">
        <ele>152.00000</ele>
        <time>2024-02-02T12:07:22Z</time>
      </trkpt>
      <trkpt lat="42.85404168" lon="13.58353743">
        <ele>151.00000</ele>
        <time>2024-02-02T12:07:23Z</time>
      </trkpt>
      <trkpt lat="42.85402483" lon="13.58341941">
        <ele>150.00000</ele>
        <time>2024-02-02T12:07:24Z</time>
      </trkpt>
      <trkpt lat="42.85401611" lon="13.58328748">
        <ele>149.00000</ele>
        <time>2024-02-02T12:07:25Z</time>
      </trkpt>
      <trkpt lat="42.85400588" lon="13.58317499">
        <ele>149.00000</ele>
        <time>2024-02-02T12:07:26Z</time>
      </trkpt>
      <trkpt lat="42.85399943" lon="13.58308363">
        <ele>149.00000</ele>
        <time>2024-02-02T12:07:27Z</time>
      </trkpt>
      <trkpt lat="42.85398744" lon="13.58296645">
        <ele>149.00000</ele>
        <time>2024-02-02T12:07:28Z</time>
      </trkpt>
      <trkpt lat="42.85397655" lon="13.58282966">
        <ele>149.00000</ele>
        <time>2024-02-02T12:07:29Z</time>
      </trkpt>
      <trkpt lat="42.85397194" lon="13.58272137">
        <ele>149.00000</ele>
        <time>2024-02-02T12:07:30Z</time>
      </trkpt>
      <trkpt lat="42.85396758" lon="13.58261659">
        <ele>149.00000</ele>
        <time>2024-02-02T12:07:31Z</time>
      </trkpt>
      <trkpt lat="42.85396507" lon="13.58253235">
        <ele>149.00000</ele>
        <time>2024-02-02T12:07:32Z</time>
      </trkpt>
      <trkpt lat="42.85396599" lon="13.58242725">
        <ele>149.00000</ele>
        <time>2024-02-02T12:07:33Z</time>
      </trkpt>
      <trkpt lat="42.85396372" lon="13.58232297">
        <ele>150.00000</ele>
        <time>2024-02-02T12:07:34Z</time>
      </trkpt>
      <trkpt lat="42.85395710" lon="13.58219582">
        <ele>151.00000</ele>
        <time>2024-02-02T12:07:35Z</time>
      </trkpt>
      <trkpt lat="42.85395140" lon="13.58210982">
        <ele>152.00000</ele>
        <time>2024-02-02T12:07:36Z</time>
      </trkpt>
      <trkpt lat="42.85394813" lon="13.58200949">
        <ele>153.00000</ele>
        <time>2024-02-02T12:07:37Z</time>
      </trkpt>
      <trkpt lat="42.85394101" lon="13.58191209">
        <ele>154.00000</ele>
        <time>2024-02-02T12:07:38Z</time>
      </trkpt>
      <trkpt lat="42.85393833" lon="13.58181478">
        <ele>155.00000</ele>
        <time>2024-02-02T12:07:39Z</time>
      </trkpt>
      <trkpt lat="42.85393447" lon="13.58169383">
        <ele>156.00000</ele>
        <time>2024-02-02T12:07:40Z</time>
      </trkpt>
      <trkpt lat="42.85393103" lon="13.58161135">
        <ele>156.00000</ele>
        <time>2024-02-02T12:07:41Z</time>
      </trkpt>
      <trkpt lat="42.85392676" lon="13.58150943">
        <ele>157.00000</ele>
        <time>2024-02-02T12:07:42Z</time>
      </trkpt>
      <trkpt lat="42.85392148" lon="13.58140868">
        <ele>157.00000</ele>
        <time>2024-02-02T12:07:43Z</time>
      </trkpt>
      <trkpt lat="42.85391285" lon="13.58128731">
        <ele>158.00000</ele>
        <time>2024-02-02T12:07:44Z</time>
      </trkpt>
      <trkpt lat="42.85390681" lon="13.58120433">
        <ele>158.00000</ele>
        <time>2024-02-02T12:07:45Z</time>
      </trkpt>
      <trkpt lat="42.85390069" lon="13.58111070">
        <ele>158.00000</ele>
        <time>2024-02-02T12:07:46Z</time>
      </trkpt>
      <trkpt lat="42.85391276" lon="13.58102252">
        <ele>158.00000</ele>
        <time>2024-02-02T12:07:47Z</time>
      </trkpt>
      <trkpt lat="42.85393632" lon="13.58093619">
        <ele>158.00000</ele>
        <time>2024-02-02T12:07:48Z</time>
      </trkpt>
      <trkpt lat="42.85393908" lon="13.58084935">
        <ele>158.00000</ele>
        <time>2024-02-02T12:07:49Z</time>
      </trkpt>
      <trkpt lat="42.85392173" lon="13.58074198">
        <ele>158.00000</ele>
        <time>2024-02-02T12:07:50Z</time>
      </trkpt>
      <trkpt lat="42.85390346" lon="13.58067048">
        <ele>158.00000</ele>
        <time>2024-02-02T12:07:51Z</time>
      </trkpt>
      <trkpt lat="42.85389021" lon="13.58058591">
        <ele>158.00000</ele>
        <time>2024-02-02T12:07:52Z</time>
      </trkpt>
      <trkpt lat="42.85387999" lon="13.58049832">
        <ele>158.00000</ele>
        <time>2024-02-02T12:07:53Z</time>
      </trkpt>
      <trkpt lat="42.85387370" lon="13.58041500">
        <ele>158.00000</ele>
        <time>2024-02-02T12:07:54Z</time>
      </trkpt>
      <trkpt lat="42.85387362" lon="13.58033169">
        <ele>158.00000</ele>
        <time>2024-02-02T12:07:55Z</time>
      </trkpt>
      <trkpt lat="42.85386976" lon="13.58025130">
        <ele>157.00000</ele>
        <time>2024-02-02T12:07:56Z</time>
      </trkpt>
      <trkpt lat="42.85386121" lon="13.58017813">
        <ele>157.00000</ele>
        <time>2024-02-02T12:07:57Z</time>
      </trkpt>
      <trkpt lat="42.85385669" lon="13.58010102">
        <ele>156.00000</ele>
        <time>2024-02-02T12:07:58Z</time>
      </trkpt>
      <trkpt lat="42.85386716" lon="13.58002021">
        <ele>155.00000</ele>
        <time>2024-02-02T12:07:59Z</time>
      </trkpt>
      <trkpt lat="42.85386499" lon="13.57993329">
        <ele>155.00000</ele>
        <time>2024-02-02T12:08:00Z</time>
      </trkpt>
      <trkpt lat="42.85383448" lon="13.57984252">
        <ele>155.00000</ele>
        <time>2024-02-02T12:08:01Z</time>
      </trkpt>
      <trkpt lat="42.85381947" lon="13.57974001">
        <ele>155.00000</ele>
        <time>2024-02-02T12:08:02Z</time>
      </trkpt>
      <trkpt lat="42.85382173" lon="13.57964261">
        <ele>155.00000</ele>
        <time>2024-02-02T12:08:03Z</time>
      </trkpt>
      <trkpt lat="42.85382123" lon="13.57955820">
        <ele>155.00000</ele>
        <time>2024-02-02T12:08:04Z</time>
      </trkpt>
      <trkpt lat="42.85382081" lon="13.57947137">
        <ele>155.00000</ele>
        <time>2024-02-02T12:08:05Z</time>
      </trkpt>
      <trkpt lat="42.85381092" lon="13.57936676">
        <ele>156.00000</ele>
        <time>2024-02-02T12:08:06Z</time>
      </trkpt>
      <trkpt lat="42.85380162" lon="13.57929334">
        <ele>156.00000</ele>
        <time>2024-02-02T12:08:07Z</time>
      </trkpt>
      <trkpt lat="42.85378502" lon="13.57920365">
        <ele>156.00000</ele>
        <time>2024-02-02T12:08:08Z</time>
      </trkpt>
      <trkpt lat="42.85378301" lon="13.57910617">
        <ele>156.00000</ele>
        <time>2024-02-02T12:08:09Z</time>
      </trkpt>
      <trkpt lat="42.85378812" lon="13.57902939">
        <ele>157.00000</ele>
        <time>2024-02-02T12:08:10Z</time>
      </trkpt>
      <trkpt lat="42.85381025" lon="13.57895110">
        <ele>157.00000</ele>
        <time>2024-02-02T12:08:11Z</time>
      </trkpt>
      <trkpt lat="42.85382081" lon="13.57888782">
        <ele>156.00000</ele>
        <time>2024-02-02T12:08:12Z</time>
      </trkpt>
      <trkpt lat="42.85382249" lon="13.57880886">
        <ele>157.00000</ele>
        <time>2024-02-02T12:08:13Z</time>
      </trkpt>
      <trkpt lat="42.85381947" lon="13.57872320">
        <ele>157.00000</ele>
        <time>2024-02-02T12:08:14Z</time>
      </trkpt>
      <trkpt lat="42.85381360" lon="13.57865866">
        <ele>158.00000</ele>
        <time>2024-02-02T12:08:15Z</time>
      </trkpt>
      <trkpt lat="42.85380288" lon="13.57858682">
        <ele>158.00000</ele>
        <time>2024-02-02T12:08:16Z</time>
      </trkpt>
      <trkpt lat="42.85380681" lon="13.57853117">
        <ele>158.00000</ele>
        <time>2024-02-02T12:08:17Z</time>
      </trkpt>
      <trkpt lat="42.85381386" lon="13.57846143">
        <ele>158.00000</ele>
        <time>2024-02-02T12:08:18Z</time>
      </trkpt>
      <trkpt lat="42.85381520" lon="13.57837367">
        <ele>158.00000</ele>
        <time>2024-02-02T12:08:19Z</time>
      </trkpt>
      <trkpt lat="42.85379785" lon="13.57829371">
        <ele>158.00000</ele>
        <time>2024-02-02T12:08:20Z</time>
      </trkpt>
      <trkpt lat="42.85376574" lon="13.57821660">
        <ele>158.00000</ele>
        <time>2024-02-02T12:08:21Z</time>
      </trkpt>
      <trkpt lat="42.85374211" lon="13.57815692">
        <ele>157.00000</ele>
        <time>2024-02-02T12:08:22Z</time>
      </trkpt>
      <trkpt lat="42.85372836" lon="13.57809665">
        <ele>157.00000</ele>
        <time>2024-02-02T12:08:23Z</time>
      </trkpt>
      <trkpt lat="42.85369265" lon="13.57803077">
        <ele>157.00000</ele>
        <time>2024-02-02T12:08:24Z</time>
      </trkpt>
      <trkpt lat="42.85367262" lon="13.57797956">
        <ele>157.00000</ele>
        <time>2024-02-02T12:08:25Z</time>
      </trkpt>
      <trkpt lat="42.85365636" lon="13.57792340">
        <ele>157.00000</ele>
        <time>2024-02-02T12:08:26Z</time>
      </trkpt>
      <trkpt lat="42.85364781" lon="13.57787034">
        <ele>157.00000</ele>
        <time>2024-02-02T12:08:27Z</time>
      </trkpt>
      <trkpt lat="42.85363582" lon="13.57780178">
        <ele>157.00000</ele>
        <time>2024-02-02T12:08:28Z</time>
      </trkpt>
      <trkpt lat="42.85361294" lon="13.57771066">
        <ele>157.00000</ele>
        <time>2024-02-02T12:08:29Z</time>
      </trkpt>
      <trkpt lat="42.85360917" lon="13.57765870">
        <ele>157.00000</ele>
        <time>2024-02-02T12:08:30Z</time>
      </trkpt>
      <trkpt lat="42.85360489" lon="13.57759449">
        <ele>157.00000</ele>
        <time>2024-02-02T12:08:31Z</time>
      </trkpt>
      <trkpt lat="42.85359894" lon="13.57753263">
        <ele>157.00000</ele>
        <time>2024-02-02T12:08:32Z</time>
      </trkpt>
      <trkpt lat="42.85359970" lon="13.57746893">
        <ele>157.00000</ele>
        <time>2024-02-02T12:08:33Z</time>
      </trkpt>
      <trkpt lat="42.85359886" lon="13.57740716">
        <ele>157.00000</ele>
        <time>2024-02-02T12:08:34Z</time>
      </trkpt>
      <trkpt lat="42.85360070" lon="13.57734563">
        <ele>157.00000</ele>
        <time>2024-02-02T12:08:35Z</time>
      </trkpt>
      <trkpt lat="42.85359953" lon="13.57728755">
        <ele>157.00000</ele>
        <time>2024-02-02T12:08:36Z</time>
      </trkpt>
      <trkpt lat="42.85359735" lon="13.57723164">
        <ele>158.00000</ele>
        <time>2024-02-02T12:08:37Z</time>
      </trkpt>
      <trkpt lat="42.85359735" lon="13.57717657">
        <ele>158.00000</ele>
        <time>2024-02-02T12:08:38Z</time>
      </trkpt>
      <trkpt lat="42.85360137" lon="13.57713005">
        <ele>158.00000</ele>
        <time>2024-02-02T12:08:39Z</time>
      </trkpt>
      <trkpt lat="42.85360699" lon="13.57706962">
        <ele>159.00000</ele>
        <time>2024-02-02T12:08:40Z</time>
      </trkpt>
      <trkpt lat="42.85361663" lon="13.57703098">
        <ele>159.00000</ele>
        <time>2024-02-02T12:08:41Z</time>
      </trkpt>
      <trkpt lat="42.85362660" lon="13.57697901">
        <ele>159.00000</ele>
        <time>2024-02-02T12:08:42Z</time>
      </trkpt>
      <trkpt lat="42.85362870" lon="13.57692302">
        <ele>160.00000</ele>
        <time>2024-02-02T12:08:43Z</time>
      </trkpt>
      <trkpt lat="42.85362401" lon="13.57687055">
        <ele>160.00000</ele>
        <time>2024-02-02T12:08:44Z</time>
      </trkpt>
      <trkpt lat="42.85362342" lon="13.57682403">
        <ele>160.00000</ele>
        <time>2024-02-02T12:08:45Z</time>
      </trkpt>
      <trkpt lat="42.85362275" lon="13.57677273">
        <ele>161.00000</ele>
        <time>2024-02-02T12:08:46Z</time>
      </trkpt>
      <trkpt lat="42.85362560" lon="13.57673736">
        <ele>161.00000</ele>
        <time>2024-02-02T12:08:47Z</time>
      </trkpt>
      <trkpt lat="42.85363071" lon="13.57668975">
        <ele>161.00000</ele>
        <time>2024-02-02T12:08:48Z</time>
      </trkpt>
      <trkpt lat="42.85363742" lon="13.57663912">
        <ele>161.00000</ele>
        <time>2024-02-02T12:08:49Z</time>
      </trkpt>
      <trkpt lat="42.85364178" lon="13.57658070">
        <ele>161.00000</ele>
        <time>2024-02-02T12:08:50Z</time>
      </trkpt>
      <trkpt lat="42.85365435" lon="13.57654315">
        <ele>161.00000</ele>
        <time>2024-02-02T12:08:51Z</time>
      </trkpt>
      <trkpt lat="42.85365368" lon="13.57649789">
        <ele>161.00000</ele>
        <time>2024-02-02T12:08:52Z</time>
      </trkpt>
      <trkpt lat="42.85365795" lon="13.57645682">
        <ele>161.00000</ele>
        <time>2024-02-02T12:08:53Z</time>
      </trkpt>
      <trkpt lat="42.85366005" lon="13.57641315">
        <ele>161.00000</ele>
        <time>2024-02-02T12:08:54Z</time>
      </trkpt>
      <trkpt lat="42.85366382" lon="13.57638104">
        <ele>161.00000</ele>
        <time>2024-02-02T12:08:55Z</time>
      </trkpt>
      <trkpt lat="42.85366407" lon="13.57634198">
        <ele>161.00000</ele>
        <time>2024-02-02T12:08:56Z</time>
      </trkpt>
      <trkpt lat="42.85365787" lon="13.57630418">
        <ele>161.00000</ele>
        <time>2024-02-02T12:08:57Z</time>
      </trkpt>
      <trkpt lat="42.85365242" lon="13.57626420">
        <ele>161.00000</ele>
        <time>2024-02-02T12:08:58Z</time>
      </trkpt>
      <trkpt lat="42.85364303" lon="13.57621902">
        <ele>161.00000</ele>
        <time>2024-02-02T12:08:59Z</time>
      </trkpt>
      <trkpt lat="42.85361395" lon="13.57615557">
        <ele>161.00000</ele>
        <time>2024-02-02T12:09:00Z</time>
      </trkpt>
      <trkpt lat="42.85359048" lon="13.57610528">
        <ele>161.00000</ele>
        <time>2024-02-02T12:09:01Z</time>
      </trkpt>
      <trkpt lat="42.85357036" lon="13.57603915">
        <ele>161.00000</ele>
        <time>2024-02-02T12:09:02Z</time>
      </trkpt>
      <trkpt lat="42.85356550" lon="13.57597310">
        <ele>161.00000</ele>
        <time>2024-02-02T12:09:03Z</time>
      </trkpt>
      <trkpt lat="42.85356399" lon="13.57589146">
        <ele>161.00000</ele>
        <time>2024-02-02T12:09:04Z</time>
      </trkpt>
      <trkpt lat="42.85356701" lon="13.57580998">
        <ele>161.00000</ele>
        <time>2024-02-02T12:09:05Z</time>
      </trkpt>
      <trkpt lat="42.85357640" lon="13.57572700">
        <ele>161.00000</ele>
        <time>2024-02-02T12:09:06Z</time>
      </trkpt>
      <trkpt lat="42.85358302" lon="13.57564846">
        <ele>161.00000</ele>
        <time>2024-02-02T12:09:07Z</time>
      </trkpt>
      <trkpt lat="42.85359266" lon="13.57555232">
        <ele>162.00000</ele>
        <time>2024-02-02T12:09:08Z</time>
      </trkpt>
      <trkpt lat="42.85359593" lon="13.57546725">
        <ele>162.00000</ele>
        <time>2024-02-02T12:09:09Z</time>
      </trkpt>
      <trkpt lat="42.85361126" lon="13.57538033">
        <ele>163.00000</ele>
        <time>2024-02-02T12:09:10Z</time>
      </trkpt>
      <trkpt lat="42.85361738" lon="13.57529559">
        <ele>163.00000</ele>
        <time>2024-02-02T12:09:11Z</time>
      </trkpt>
      <trkpt lat="42.85362577" lon="13.57521780">
        <ele>163.00000</ele>
        <time>2024-02-02T12:09:12Z</time>
      </trkpt>
      <trkpt lat="42.85362853" lon="13.57514144">
        <ele>163.00000</ele>
        <time>2024-02-02T12:09:13Z</time>
      </trkpt>
      <trkpt lat="42.85363314" lon="13.57506441">
        <ele>163.00000</ele>
        <time>2024-02-02T12:09:14Z</time>
      </trkpt>
      <trkpt lat="42.85365678" lon="13.57498520">
        <ele>163.00000</ele>
        <time>2024-02-02T12:09:15Z</time>
      </trkpt>
      <trkpt lat="42.85365477" lon="13.57490683">
        <ele>163.00000</ele>
        <time>2024-02-02T12:09:16Z</time>
      </trkpt>
      <trkpt lat="42.85363390" lon="13.57481799">
        <ele>163.00000</ele>
        <time>2024-02-02T12:09:17Z</time>
      </trkpt>
      <trkpt lat="42.85362862" lon="13.57473081">
        <ele>163.00000</ele>
        <time>2024-02-02T12:09:18Z</time>
      </trkpt>
      <trkpt lat="42.85362618" lon="13.57465010">
        <ele>163.00000</ele>
        <time>2024-02-02T12:09:19Z</time>
      </trkpt>
      <trkpt lat="42.85361621" lon="13.57454339">
        <ele>162.00000</ele>
        <time>2024-02-02T12:09:20Z</time>
      </trkpt>
      <trkpt lat="42.85361344" lon="13.57446603">
        <ele>162.00000</ele>
        <time>2024-02-02T12:09:21Z</time>
      </trkpt>
      <trkpt lat="42.85360959" lon="13.57435338">
        <ele>161.00000</ele>
        <time>2024-02-02T12:09:22Z</time>
      </trkpt>
      <trkpt lat="42.85361395" lon="13.57427551">
        <ele>162.00000</ele>
        <time>2024-02-02T12:09:23Z</time>
      </trkpt>
      <trkpt lat="42.85360389" lon="13.57418557">
        <ele>161.00000</ele>
        <time>2024-02-02T12:09:24Z</time>
      </trkpt>
      <trkpt lat="42.85359970" lon="13.57409605">
        <ele>162.00000</ele>
        <time>2024-02-02T12:09:25Z</time>
      </trkpt>
      <trkpt lat="42.85360967" lon="13.57399044">
        <ele>162.00000</ele>
        <time>2024-02-02T12:09:26Z</time>
      </trkpt>
      <trkpt lat="42.85362049" lon="13.57390352">
        <ele>162.00000</ele>
        <time>2024-02-02T12:09:27Z</time>
      </trkpt>
      <trkpt lat="42.85362191" lon="13.57383403">
        <ele>163.00000</ele>
        <time>2024-02-02T12:09:28Z</time>
      </trkpt>
      <trkpt lat="42.85362459" lon="13.57374804">
        <ele>163.00000</ele>
        <time>2024-02-02T12:09:29Z</time>
      </trkpt>
      <trkpt lat="42.85362308" lon="13.57366170">
        <ele>164.00000</ele>
        <time>2024-02-02T12:09:30Z</time>
      </trkpt>
      <trkpt lat="42.85363364" lon="13.57357000">
        <ele>164.00000</ele>
        <time>2024-02-02T12:09:31Z</time>
      </trkpt>
      <trkpt lat="42.85364303" lon="13.57347671">
        <ele>164.00000</ele>
        <time>2024-02-02T12:09:32Z</time>
      </trkpt>
      <trkpt lat="42.85365141" lon="13.57337730">
        <ele>164.00000</ele>
        <time>2024-02-02T12:09:33Z</time>
      </trkpt>
      <trkpt lat="42.85366256" lon="13.57325962">
        <ele>164.00000</ele>
        <time>2024-02-02T12:09:34Z</time>
      </trkpt>
      <trkpt lat="42.85366441" lon="13.57316172">
        <ele>163.00000</ele>
        <time>2024-02-02T12:09:35Z</time>
      </trkpt>
      <trkpt lat="42.85365100" lon="13.57306852">
        <ele>163.00000</ele>
        <time>2024-02-02T12:09:36Z</time>
      </trkpt>
      <trkpt lat="42.85364488" lon="13.57299350">
        <ele>163.00000</ele>
        <time>2024-02-02T12:09:37Z</time>
      </trkpt>
      <trkpt lat="42.85365468" lon="13.57290096">
        <ele>163.00000</ele>
        <time>2024-02-02T12:09:38Z</time>
      </trkpt>
      <trkpt lat="42.85367497" lon="13.57278772">
        <ele>162.00000</ele>
        <time>2024-02-02T12:09:39Z</time>
      </trkpt>
      <trkpt lat="42.85369710" lon="13.57269141">
        <ele>162.00000</ele>
        <time>2024-02-02T12:09:40Z</time>
      </trkpt>
      <trkpt lat="42.85372165" lon="13.57259083">
        <ele>162.00000</ele>
        <time>2024-02-02T12:09:41Z</time>
      </trkpt>
      <trkpt lat="42.85374202" lon="13.57251070">
        <ele>161.00000</ele>
        <time>2024-02-02T12:09:42Z</time>
      </trkpt>
      <trkpt lat="42.85375602" lon="13.57241741">
        <ele>161.00000</ele>
        <time>2024-02-02T12:09:43Z</time>
      </trkpt>
      <trkpt lat="42.85376759" lon="13.57231959">
        <ele>161.00000</ele>
        <time>2024-02-02T12:09:44Z</time>
      </trkpt>
      <trkpt lat="42.85376910" lon="13.57222320">
        <ele>162.00000</ele>
        <time>2024-02-02T12:09:45Z</time>
      </trkpt>
      <trkpt lat="42.85377060" lon="13.57212681">
        <ele>162.00000</ele>
        <time>2024-02-02T12:09:46Z</time>
      </trkpt>
      <trkpt lat="42.85378133" lon="13.57202899">
        <ele>163.00000</ele>
        <time>2024-02-02T12:09:47Z</time>
      </trkpt>
      <trkpt lat="42.85379231" lon="13.57193226">
        <ele>164.00000</ele>
        <time>2024-02-02T12:09:48Z</time>
      </trkpt>
      <trkpt lat="42.85379935" lon="13.57183520">
        <ele>164.00000</ele>
        <time>2024-02-02T12:09:49Z</time>
      </trkpt>
      <trkpt lat="42.85381243" lon="13.57172473">
        <ele>165.00000</ele>
        <time>2024-02-02T12:09:50Z</time>
      </trkpt>
      <trkpt lat="42.85382576" lon="13.57163169">
        <ele>165.00000</ele>
        <time>2024-02-02T12:09:51Z</time>
      </trkpt>
      <trkpt lat="42.85382928" lon="13.57155432">
        <ele>165.00000</ele>
        <time>2024-02-02T12:09:52Z</time>
      </trkpt>
      <trkpt lat="42.85383892" lon="13.57145684">
        <ele>164.00000</ele>
        <time>2024-02-02T12:09:53Z</time>
      </trkpt>
      <trkpt lat="42.85385610" lon="13.57133598">
        <ele>164.00000</ele>
        <time>2024-02-02T12:09:54Z</time>
      </trkpt>
      <trkpt lat="42.85387320" lon="13.57123556">
        <ele>163.00000</ele>
        <time>2024-02-02T12:09:55Z</time>
      </trkpt>
      <trkpt lat="42.85388150" lon="13.57113473">
        <ele>163.00000</ele>
        <time>2024-02-02T12:09:56Z</time>
      </trkpt>
      <trkpt lat="42.85388099" lon="13.57105283">
        <ele>162.00000</ele>
        <time>2024-02-02T12:09:57Z</time>
      </trkpt>
      <trkpt lat="42.85388317" lon="13.57095150">
        <ele>162.00000</ele>
        <time>2024-02-02T12:09:58Z</time>
      </trkpt>
      <trkpt lat="42.85389650" lon="13.57082870">
        <ele>161.00000</ele>
        <time>2024-02-02T12:09:59Z</time>
      </trkpt>
      <trkpt lat="42.85390790" lon="13.57072334">
        <ele>162.00000</ele>
        <time>2024-02-02T12:10:00Z</time>
      </trkpt>
      <trkpt lat="42.85391695" lon="13.57063818">
        <ele>162.00000</ele>
        <time>2024-02-02T12:10:01Z</time>
      </trkpt>
      <trkpt lat="42.85392886" lon="13.57053349">
        <ele>162.00000</ele>
        <time>2024-02-02T12:10:02Z</time>
      </trkpt>
      <trkpt lat="42.85394034" lon="13.57043199">
        <ele>162.00000</ele>
        <time>2024-02-02T12:10:03Z</time>
      </trkpt>
      <trkpt lat="42.85394788" lon="13.57032998">
        <ele>163.00000</ele>
        <time>2024-02-02T12:10:04Z</time>
      </trkpt>
      <trkpt lat="42.85395677" lon="13.57022873">
        <ele>163.00000</ele>
        <time>2024-02-02T12:10:05Z</time>
      </trkpt>
      <trkpt lat="42.85396741" lon="13.57010887">
        <ele>163.00000</ele>
        <time>2024-02-02T12:10:06Z</time>
      </trkpt>
      <trkpt lat="42.85398074" lon="13.57002991">
        <ele>163.00000</ele>
        <time>2024-02-02T12:10:07Z</time>
      </trkpt>
      <trkpt lat="42.85398493" lon="13.56993125">
        <ele>163.00000</ele>
        <time>2024-02-02T12:10:08Z</time>
      </trkpt>
      <trkpt lat="42.85397051" lon="13.56982790">
        <ele>162.00000</ele>
        <time>2024-02-02T12:10:09Z</time>
      </trkpt>
      <trkpt lat="42.85396917" lon="13.56970075">
        <ele>162.00000</ele>
        <time>2024-02-02T12:10:10Z</time>
      </trkpt>
      <trkpt lat="42.85397026" lon="13.56959380">
        <ele>162.00000</ele>
        <time>2024-02-02T12:10:11Z</time>
      </trkpt>
      <trkpt lat="42.85397898" lon="13.56950746">
        <ele>161.00000</ele>
        <time>2024-02-02T12:10:12Z</time>
      </trkpt>
      <trkpt lat="42.85399273" lon="13.56940009">
        <ele>161.00000</ele>
        <time>2024-02-02T12:10:13Z</time>
      </trkpt>
      <trkpt lat="42.85400714" lon="13.56928979">
        <ele>160.00000</ele>
        <time>2024-02-02T12:10:14Z</time>
      </trkpt>
      <trkpt lat="42.85402508" lon="13.56915727">
        <ele>159.00000</ele>
        <time>2024-02-02T12:10:15Z</time>
      </trkpt>
      <trkpt lat="42.85404486" lon="13.56904545">
        <ele>159.00000</ele>
        <time>2024-02-02T12:10:16Z</time>
      </trkpt>
      <trkpt lat="42.85405559" lon="13.56895552">
        <ele>158.00000</ele>
        <time>2024-02-02T12:10:17Z</time>
      </trkpt>
      <trkpt lat="42.85407135" lon="13.56884152">
        <ele>157.00000</ele>
        <time>2024-02-02T12:10:18Z</time>
      </trkpt>
      <trkpt lat="42.85409658" lon="13.56871202">
        <ele>156.00000</ele>
        <time>2024-02-02T12:10:19Z</time>
      </trkpt>
      <trkpt lat="42.85411594" lon="13.56862720">
        <ele>156.00000</ele>
        <time>2024-02-02T12:10:20Z</time>
      </trkpt>
      <trkpt lat="42.85414670" lon="13.56850105">
        <ele>155.00000</ele>
        <time>2024-02-02T12:10:21Z</time>
      </trkpt>
      <trkpt lat="42.85416606" lon="13.56841430">
        <ele>155.00000</ele>
        <time>2024-02-02T12:10:22Z</time>
      </trkpt>
      <trkpt lat="42.85419121" lon="13.56830768">
        <ele>155.00000</ele>
        <time>2024-02-02T12:10:23Z</time>
      </trkpt>
      <trkpt lat="42.85423002" lon="13.56818321">
        <ele>154.00000</ele>
        <time>2024-02-02T12:10:24Z</time>
      </trkpt>
      <trkpt lat="42.85426296" lon="13.56810048">
        <ele>154.00000</ele>
        <time>2024-02-02T12:10:25Z</time>
      </trkpt>
      <trkpt lat="42.85431576" lon="13.56798070">
        <ele>155.00000</ele>
        <time>2024-02-02T12:10:26Z</time>
      </trkpt>
      <trkpt lat="42.85435608" lon="13.56790107">
        <ele>156.00000</ele>
        <time>2024-02-02T12:10:27Z</time>
      </trkpt>
      <trkpt lat="42.85440419" lon="13.56781541">
        <ele>156.00000</ele>
        <time>2024-02-02T12:10:28Z</time>
      </trkpt>
      <trkpt lat="42.85446689" lon="13.56772488">
        <ele>157.00000</ele>
        <time>2024-02-02T12:10:29Z</time>
      </trkpt>
      <trkpt lat="42.85452364" lon="13.56765498">
        <ele>158.00000</ele>
        <time>2024-02-02T12:10:30Z</time>
      </trkpt>
      <trkpt lat="42.85456814" lon="13.56759496">
        <ele>158.00000</ele>
        <time>2024-02-02T12:10:31Z</time>
      </trkpt>
      <trkpt lat="42.85461911" lon="13.56751165">
        <ele>158.00000</ele>
        <time>2024-02-02T12:10:32Z</time>
      </trkpt>
      <trkpt lat="42.85466319" lon="13.56742590">
        <ele>159.00000</ele>
        <time>2024-02-02T12:10:33Z</time>
      </trkpt>
      <trkpt lat="42.85471164" lon="13.56732775">
        <ele>159.00000</ele>
        <time>2024-02-02T12:10:34Z</time>
      </trkpt>
      <trkpt lat="42.85475355" lon="13.56724276">
        <ele>159.00000</ele>
        <time>2024-02-02T12:10:35Z</time>
      </trkpt>
      <trkpt lat="42.85478322" lon="13.56717042">
        <ele>159.00000</ele>
        <time>2024-02-02T12:10:36Z</time>
      </trkpt>
      <trkpt lat="42.85480552" lon="13.56707151">
        <ele>159.00000</ele>
        <time>2024-02-02T12:10:37Z</time>
      </trkpt>
      <trkpt lat="42.85481642" lon="13.56694771">
        <ele>158.00000</ele>
        <time>2024-02-02T12:10:38Z</time>
      </trkpt>
      <trkpt lat="42.85481977" lon="13.56686440">
        <ele>158.00000</ele>
        <time>2024-02-02T12:10:39Z</time>
      </trkpt>
      <trkpt lat="42.85482010" lon="13.56676549">
        <ele>158.00000</ele>
        <time>2024-02-02T12:10:40Z</time>
      </trkpt>
      <trkpt lat="42.85483301" lon="13.56667094">
        <ele>158.00000</ele>
        <time>2024-02-02T12:10:41Z</time>
      </trkpt>
      <trkpt lat="42.85482614" lon="13.56657614">
        <ele>157.00000</ele>
        <time>2024-02-02T12:10:42Z</time>
      </trkpt>
      <trkpt lat="42.85480996" lon="13.56648822">
        <ele>157.00000</ele>
        <time>2024-02-02T12:10:43Z</time>
      </trkpt>
      <trkpt lat="42.85478658" lon="13.56640515">
        <ele>158.00000</ele>
        <time>2024-02-02T12:10:44Z</time>
      </trkpt>
      <trkpt lat="42.85476654" lon="13.56632301">
        <ele>158.00000</ele>
        <time>2024-02-02T12:10:45Z</time>
      </trkpt>
      <trkpt lat="42.85474718" lon="13.56624095">
        <ele>158.00000</ele>
        <time>2024-02-02T12:10:46Z</time>
      </trkpt>
      <trkpt lat="42.85473000" lon="13.56616828">
        <ele>159.00000</ele>
        <time>2024-02-02T12:10:47Z</time>
      </trkpt>
      <trkpt lat="42.85471592" lon="13.56609444">
        <ele>159.00000</ele>
        <time>2024-02-02T12:10:48Z</time>
      </trkpt>
      <trkpt lat="42.85470770" lon="13.56601531">
        <ele>159.00000</ele>
        <time>2024-02-02T12:10:49Z</time>
      </trkpt>
      <trkpt lat="42.85469857" lon="13.56592856">
        <ele>159.00000</ele>
        <time>2024-02-02T12:10:50Z</time>
      </trkpt>
      <trkpt lat="42.85468792" lon="13.56583711">
        <ele>159.00000</ele>
        <time>2024-02-02T12:10:51Z</time>
      </trkpt>
      <trkpt lat="42.85467769" lon="13.56575011">
        <ele>159.00000</ele>
        <time>2024-02-02T12:10:52Z</time>
      </trkpt>
      <trkpt lat="42.85466722" lon="13.56564911">
        <ele>159.00000</ele>
        <time>2024-02-02T12:10:53Z</time>
      </trkpt>
      <trkpt lat="42.85465976" lon="13.56555825">
        <ele>159.00000</ele>
        <time>2024-02-02T12:10:54Z</time>
      </trkpt>
      <trkpt lat="42.85465397" lon="13.56547032">
        <ele>159.00000</ele>
        <time>2024-02-02T12:10:55Z</time>
      </trkpt>
      <trkpt lat="42.85464400" lon="13.56540192">
        <ele>159.00000</ele>
        <time>2024-02-02T12:10:56Z</time>
      </trkpt>
      <trkpt lat="42.85463578" lon="13.56531500">
        <ele>159.00000</ele>
        <time>2024-02-02T12:10:57Z</time>
      </trkpt>
      <trkpt lat="42.85462380" lon="13.56522473">
        <ele>159.00000</ele>
        <time>2024-02-02T12:10:58Z</time>
      </trkpt>
      <trkpt lat="42.85461123" lon="13.56513110">
        <ele>159.00000</ele>
        <time>2024-02-02T12:10:59Z</time>
      </trkpt>
      <trkpt lat="42.85459798" lon="13.56504008">
        <ele>160.00000</ele>
        <time>2024-02-02T12:11:00Z</time>
      </trkpt>
      <trkpt lat="42.85458600" lon="13.56495324">
        <ele>160.00000</ele>
        <time>2024-02-02T12:11:01Z</time>
      </trkpt>
      <trkpt lat="42.85456513" lon="13.56485852">
        <ele>160.00000</ele>
        <time>2024-02-02T12:11:02Z</time>
      </trkpt>
      <trkpt lat="42.85454216" lon="13.56475174">
        <ele>161.00000</ele>
        <time>2024-02-02T12:11:03Z</time>
      </trkpt>
      <trkpt lat="42.85453755" lon="13.56467848">
        <ele>161.00000</ele>
        <time>2024-02-02T12:11:04Z</time>
      </trkpt>
      <trkpt lat="42.85452498" lon="13.56456382">
        <ele>161.00000</ele>
        <time>2024-02-02T12:11:05Z</time>
      </trkpt>
      <trkpt lat="42.85451852" lon="13.56447950">
        <ele>161.00000</ele>
        <time>2024-02-02T12:11:06Z</time>
      </trkpt>
      <trkpt lat="42.85450519" lon="13.56437740">
        <ele>162.00000</ele>
        <time>2024-02-02T12:11:07Z</time>
      </trkpt>
      <trkpt lat="42.85449304" lon="13.56428185">
        <ele>163.00000</ele>
        <time>2024-02-02T12:11:08Z</time>
      </trkpt>
      <trkpt lat="42.85446815" lon="13.56417892">
        <ele>164.00000</ele>
        <time>2024-02-02T12:11:09Z</time>
      </trkpt>
      <trkpt lat="42.85443764" lon="13.56405110">
        <ele>164.00000</ele>
        <time>2024-02-02T12:11:10Z</time>
      </trkpt>
      <trkpt lat="42.85441048" lon="13.56396703">
        <ele>163.00000</ele>
        <time>2024-02-02T12:11:11Z</time>
      </trkpt>
      <trkpt lat="42.85439221" lon="13.56386250">
        <ele>162.00000</ele>
        <time>2024-02-02T12:11:12Z</time>
      </trkpt>
      <trkpt lat="42.85437243" lon="13.56374532">
        <ele>161.00000</ele>
        <time>2024-02-02T12:11:13Z</time>
      </trkpt>
      <trkpt lat="42.85435901" lon="13.56367249">
        <ele>160.00000</ele>
        <time>2024-02-02T12:11:14Z</time>
      </trkpt>
      <trkpt lat="42.85434896" lon="13.56358263">
        <ele>159.00000</ele>
        <time>2024-02-02T12:11:15Z</time>
      </trkpt>
      <trkpt lat="42.85433110" lon="13.56348733">
        <ele>159.00000</ele>
        <time>2024-02-02T12:11:16Z</time>
      </trkpt>
      <trkpt lat="42.85431551" lon="13.56338842">
        <ele>158.00000</ele>
        <time>2024-02-02T12:11:17Z</time>
      </trkpt>
      <trkpt lat="42.85430395" lon="13.56328608">
        <ele>158.00000</ele>
        <time>2024-02-02T12:11:18Z</time>
      </trkpt>
      <trkpt lat="42.85429280" lon="13.56318642">
        <ele>158.00000</ele>
        <time>2024-02-02T12:11:19Z</time>
      </trkpt>
      <trkpt lat="42.85428173" lon="13.56307628">
        <ele>159.00000</ele>
        <time>2024-02-02T12:11:20Z</time>
      </trkpt>
      <trkpt lat="42.85428157" lon="13.56300747">
        <ele>159.00000</ele>
        <time>2024-02-02T12:11:21Z</time>
      </trkpt>
      <trkpt lat="42.85427059" lon="13.56291426">
        <ele>159.00000</ele>
        <time>2024-02-02T12:11:22Z</time>
      </trkpt>
      <trkpt lat="42.85425357" lon="13.56279959">
        <ele>160.00000</ele>
        <time>2024-02-02T12:11:23Z</time>
      </trkpt>
      <trkpt lat="42.85423915" lon="13.56272323">
        <ele>160.00000</ele>
        <time>2024-02-02T12:11:24Z</time>
      </trkpt>
      <trkpt lat="42.85422164" lon="13.56262869">
        <ele>161.00000</ele>
        <time>2024-02-02T12:11:25Z</time>
      </trkpt>
      <trkpt lat="42.85420638" lon="13.56253657">
        <ele>162.00000</ele>
        <time>2024-02-02T12:11:26Z</time>
      </trkpt>
      <trkpt lat="42.85419347" lon="13.56244479">
        <ele>162.00000</ele>
        <time>2024-02-02T12:11:27Z</time>
      </trkpt>
      <trkpt lat="42.85417998" lon="13.56235167">
        <ele>162.00000</ele>
        <time>2024-02-02T12:11:28Z</time>
      </trkpt>
      <trkpt lat="42.85416363" lon="13.56225678">
        <ele>162.00000</ele>
        <time>2024-02-02T12:11:29Z</time>
      </trkpt>
      <trkpt lat="42.85414578" lon="13.56216098">
        <ele>162.00000</ele>
        <time>2024-02-02T12:11:30Z</time>
      </trkpt>
      <trkpt lat="42.85412910" lon="13.56206760">
        <ele>162.00000</ele>
        <time>2024-02-02T12:11:31Z</time>
      </trkpt>
      <trkpt lat="42.85411778" lon="13.56197758">
        <ele>162.00000</ele>
        <time>2024-02-02T12:11:32Z</time>
      </trkpt>
      <trkpt lat="42.85410865" lon="13.56187029">
        <ele>162.00000</ele>
        <time>2024-02-02T12:11:33Z</time>
      </trkpt>
      <trkpt lat="42.85410203" lon="13.56179754">
        <ele>162.00000</ele>
        <time>2024-02-02T12:11:34Z</time>
      </trkpt>
      <trkpt lat="42.85408367" lon="13.56170207">
        <ele>163.00000</ele>
        <time>2024-02-02T12:11:35Z</time>
      </trkpt>
      <trkpt lat="42.85406380" lon="13.56160568">
        <ele>163.00000</ele>
        <time>2024-02-02T12:11:36Z</time>
      </trkpt>
      <trkpt lat="42.85404704" lon="13.56151029">
        <ele>163.00000</ele>
        <time>2024-02-02T12:11:37Z</time>
      </trkpt>
      <trkpt lat="42.85403044" lon="13.56141331">
        <ele>163.00000</ele>
        <time>2024-02-02T12:11:38Z</time>
      </trkpt>
      <trkpt lat="42.85400781" lon="13.56130091">
        <ele>164.00000</ele>
        <time>2024-02-02T12:11:39Z</time>
      </trkpt>
      <trkpt lat="42.85399155" lon="13.56122950">
        <ele>164.00000</ele>
        <time>2024-02-02T12:11:40Z</time>
      </trkpt>
      <trkpt lat="42.85397252" lon="13.56114199">
        <ele>164.00000</ele>
        <time>2024-02-02T12:11:41Z</time>
      </trkpt>
      <trkpt lat="42.85394897" lon="13.56105465">
        <ele>165.00000</ele>
        <time>2024-02-02T12:11:42Z</time>
      </trkpt>
      <trkpt lat="42.85392659" lon="13.56094904">
        <ele>165.00000</ele>
        <time>2024-02-02T12:11:43Z</time>
      </trkpt>
      <trkpt lat="42.85391159" lon="13.56085625">
        <ele>165.00000</ele>
        <time>2024-02-02T12:11:44Z</time>
      </trkpt>
      <trkpt lat="42.85390119" lon="13.56078769">
        <ele>165.00000</ele>
        <time>2024-02-02T12:11:45Z</time>
      </trkpt>
      <trkpt lat="42.85389248" lon="13.56070336">
        <ele>165.00000</ele>
        <time>2024-02-02T12:11:46Z</time>
      </trkpt>
      <trkpt lat="42.85388292" lon="13.56059800">
        <ele>166.00000</ele>
        <time>2024-02-02T12:11:47Z</time>
      </trkpt>
      <trkpt lat="42.85387907" lon="13.56052441">
        <ele>166.00000</ele>
        <time>2024-02-02T12:11:48Z</time>
      </trkpt>
      <trkpt lat="42.85387647" lon="13.56043372">
        <ele>166.00000</ele>
        <time>2024-02-02T12:11:49Z</time>
      </trkpt>
      <trkpt lat="42.85388024" lon="13.56034604">
        <ele>166.00000</ele>
        <time>2024-02-02T12:11:50Z</time>
      </trkpt>
      <trkpt lat="42.85390505" lon="13.56026750">
        <ele>166.00000</ele>
        <time>2024-02-02T12:11:51Z</time>
      </trkpt>
      <trkpt lat="42.85394872" lon="13.56019802">
        <ele>166.00000</ele>
        <time>2024-02-02T12:11:52Z</time>
      </trkpt>
      <trkpt lat="42.85400144" lon="13.56014412">
        <ele>165.00000</ele>
        <time>2024-02-02T12:11:53Z</time>
      </trkpt>
      <trkpt lat="42.85406766" lon="13.56011303">
        <ele>165.00000</ele>
        <time>2024-02-02T12:11:54Z</time>
      </trkpt>
      <trkpt lat="42.85410689" lon="13.56012233">
        <ele>164.00000</ele>
        <time>2024-02-02T12:11:55Z</time>
      </trkpt>
      <trkpt lat="42.85415307" lon="13.56014848">
        <ele>163.00000</ele>
        <time>2024-02-02T12:11:56Z</time>
      </trkpt>
      <trkpt lat="42.85421384" lon="13.56020003">
        <ele>162.00000</ele>
        <time>2024-02-02T12:11:57Z</time>
      </trkpt>
      <trkpt lat="42.85427268" lon="13.56025887">
        <ele>161.00000</ele>
        <time>2024-02-02T12:11:58Z</time>
      </trkpt>
      <trkpt lat="42.85433789" lon="13.56031511">
        <ele>160.00000</ele>
        <time>2024-02-02T12:11:59Z</time>
      </trkpt>
      <trkpt lat="42.85441006" lon="13.56038628">
        <ele>159.00000</ele>
        <time>2024-02-02T12:12:00Z</time>
      </trkpt>
      <trkpt lat="42.85447661" lon="13.56044386">
        <ele>159.00000</ele>
        <time>2024-02-02T12:12:01Z</time>
      </trkpt>
      <trkpt lat="42.85455758" lon="13.56050102">
        <ele>159.00000</ele>
        <time>2024-02-02T12:12:02Z</time>
      </trkpt>
      <trkpt lat="42.85461374" lon="13.56053480">
        <ele>159.00000</ele>
        <time>2024-02-02T12:12:03Z</time>
      </trkpt>
      <trkpt lat="42.85470200" lon="13.56058233">
        <ele>159.00000</ele>
        <time>2024-02-02T12:12:04Z</time>
      </trkpt>
      <trkpt lat="42.85476327" lon="13.56061276">
        <ele>158.00000</ele>
        <time>2024-02-02T12:12:05Z</time>
      </trkpt>
      <trkpt lat="42.85483678" lon="13.56064922">
        <ele>158.00000</ele>
        <time>2024-02-02T12:12:06Z</time>
      </trkpt>
      <trkpt lat="42.85491080" lon="13.56068375">
        <ele>157.00000</ele>
        <time>2024-02-02T12:12:07Z</time>
      </trkpt>
      <trkpt lat="42.85498472" lon="13.56071736">
        <ele>157.00000</ele>
        <time>2024-02-02T12:12:08Z</time>
      </trkpt>
      <trkpt lat="42.85507416" lon="13.56075592">
        <ele>155.00000</ele>
        <time>2024-02-02T12:12:09Z</time>
      </trkpt>
      <trkpt lat="42.85513602" lon="13.56078375">
        <ele>155.00000</ele>
        <time>2024-02-02T12:12:10Z</time>
      </trkpt>
      <trkpt lat="42.85521053" lon="13.56081803">
        <ele>153.00000</ele>
        <time>2024-02-02T12:12:11Z</time>
      </trkpt>
      <trkpt lat="42.85528664" lon="13.56085231">
        <ele>152.00000</ele>
        <time>2024-02-02T12:12:12Z</time>
      </trkpt>
      <trkpt lat="42.85536166" lon="13.56088575">
        <ele>150.00000</ele>
        <time>2024-02-02T12:12:13Z</time>
      </trkpt>
      <trkpt lat="42.85545168" lon="13.56092632">
        <ele>148.00000</ele>
        <time>2024-02-02T12:12:14Z</time>
      </trkpt>
      <trkpt lat="42.85551228" lon="13.56095499">
        <ele>146.00000</ele>
        <time>2024-02-02T12:12:15Z</time>
      </trkpt>
      <trkpt lat="42.85558914" lon="13.56098977">
        <ele>145.00000</ele>
        <time>2024-02-02T12:12:16Z</time>
      </trkpt>
      <trkpt lat="42.85566525" lon="13.56102347">
        <ele>144.00000</ele>
        <time>2024-02-02T12:12:17Z</time>
      </trkpt>
      <trkpt lat="42.85573977" lon="13.56105834">
        <ele>143.00000</ele>
        <time>2024-02-02T12:12:18Z</time>
      </trkpt>
      <trkpt lat="42.85581403" lon="13.56109304">
        <ele>143.00000</ele>
        <time>2024-02-02T12:12:19Z</time>
      </trkpt>
      <trkpt lat="42.85590237" lon="13.56113604">
        <ele>143.00000</ele>
        <time>2024-02-02T12:12:20Z</time>
      </trkpt>
      <trkpt lat="42.85597647" lon="13.56117057">
        <ele>143.00000</ele>
        <time>2024-02-02T12:12:21Z</time>
      </trkpt>
      <trkpt lat="42.85605040" lon="13.56120301">
        <ele>143.00000</ele>
        <time>2024-02-02T12:12:22Z</time>
      </trkpt>
      <trkpt lat="42.85612550" lon="13.56123570">
        <ele>144.00000</ele>
        <time>2024-02-02T12:12:23Z</time>
      </trkpt>
      <trkpt lat="42.85620245" lon="13.56126814">
        <ele>146.00000</ele>
        <time>2024-02-02T12:12:24Z</time>
      </trkpt>
      <trkpt lat="42.85627864" lon="13.56130409">
        <ele>148.00000</ele>
        <time>2024-02-02T12:12:25Z</time>
      </trkpt>
      <trkpt lat="42.85635357" lon="13.56134022">
        <ele>150.00000</ele>
        <time>2024-02-02T12:12:26Z</time>
      </trkpt>
      <trkpt lat="42.85642750" lon="13.56137568">
        <ele>151.00000</ele>
        <time>2024-02-02T12:12:27Z</time>
      </trkpt>
      <trkpt lat="42.85650126" lon="13.56141163">
        <ele>153.00000</ele>
        <time>2024-02-02T12:12:28Z</time>
      </trkpt>
      <trkpt lat="42.85657636" lon="13.56144709">
        <ele>154.00000</ele>
        <time>2024-02-02T12:12:29Z</time>
      </trkpt>
      <trkpt lat="42.85665105" lon="13.56148104">
        <ele>156.00000</ele>
        <time>2024-02-02T12:12:30Z</time>
      </trkpt>
      <trkpt lat="42.85672657" lon="13.56151624">
        <ele>156.00000</ele>
        <time>2024-02-02T12:12:31Z</time>
      </trkpt>
      <trkpt lat="42.85680150" lon="13.56155186">
        <ele>156.00000</ele>
        <time>2024-02-02T12:12:32Z</time>
      </trkpt>
      <trkpt lat="42.85687752" lon="13.56158673">
        <ele>156.00000</ele>
        <time>2024-02-02T12:12:33Z</time>
      </trkpt>
      <trkpt lat="42.85695388" lon="13.56161984">
        <ele>156.00000</ele>
        <time>2024-02-02T12:12:34Z</time>
      </trkpt>
      <trkpt lat="42.85702873" lon="13.56165521">
        <ele>157.00000</ele>
        <time>2024-02-02T12:12:35Z</time>
      </trkpt>
      <trkpt lat="42.85710442" lon="13.56169008">
        <ele>158.00000</ele>
        <time>2024-02-02T12:12:36Z</time>
      </trkpt>
      <trkpt lat="42.85717927" lon="13.56172353">
        <ele>158.00000</ele>
        <time>2024-02-02T12:12:37Z</time>
      </trkpt>
      <trkpt lat="42.85725614" lon="13.56175923">
        <ele>159.00000</ele>
        <time>2024-02-02T12:12:38Z</time>
      </trkpt>
      <trkpt lat="42.85733132" lon="13.56179586">
        <ele>159.00000</ele>
        <time>2024-02-02T12:12:39Z</time>
      </trkpt>
      <trkpt lat="42.85740693" lon="13.56183224">
        <ele>159.00000</ele>
        <time>2024-02-02T12:12:40Z</time>
      </trkpt>
      <trkpt lat="42.85748144" lon="13.56186560">
        <ele>159.00000</ele>
        <time>2024-02-02T12:12:41Z</time>
      </trkpt>
      <trkpt lat="42.85755353" lon="13.56189829">
        <ele>159.00000</ele>
        <time>2024-02-02T12:12:42Z</time>
      </trkpt>
      <trkpt lat="42.85760709" lon="13.56192612">
        <ele>159.00000</ele>
        <time>2024-02-02T12:12:43Z</time>
      </trkpt>
      <trkpt lat="42.85767205" lon="13.56195964">
        <ele>158.00000</ele>
        <time>2024-02-02T12:12:44Z</time>
      </trkpt>
      <trkpt lat="42.85774606" lon="13.56199300">
        <ele>158.00000</ele>
        <time>2024-02-02T12:12:45Z</time>
      </trkpt>
      <trkpt lat="42.85780322" lon="13.56202100">
        <ele>158.00000</ele>
        <time>2024-02-02T12:12:46Z</time>
      </trkpt>
      <trkpt lat="42.85785838" lon="13.56204589">
        <ele>158.00000</ele>
        <time>2024-02-02T12:12:47Z</time>
      </trkpt>
      <trkpt lat="42.85790112" lon="13.56206651">
        <ele>159.00000</ele>
        <time>2024-02-02T12:12:48Z</time>
      </trkpt>
      <trkpt lat="42.85795502" lon="13.56209116">
        <ele>159.00000</ele>
        <time>2024-02-02T12:12:49Z</time>
      </trkpt>
      <trkpt lat="42.85801378" lon="13.56211714">
        <ele>159.00000</ele>
        <time>2024-02-02T12:12:50Z</time>
      </trkpt>
      <trkpt lat="42.85805770" lon="13.56213969">
        <ele>159.00000</ele>
        <time>2024-02-02T12:12:51Z</time>
      </trkpt>
      <trkpt lat="42.85810397" lon="13.56214664">
        <ele>159.00000</ele>
        <time>2024-02-02T12:12:52Z</time>
      </trkpt>
      <trkpt lat="42.85813305" lon="13.56211186">
        <ele>159.00000</ele>
        <time>2024-02-02T12:12:53Z</time>
      </trkpt>
      <trkpt lat="42.85813515" lon="13.56205645">
        <ele>159.00000</ele>
        <time>2024-02-02T12:12:54Z</time>
      </trkpt>
      <trkpt lat="42.85810832" lon="13.56199284">
        <ele>159.00000</ele>
        <time>2024-02-02T12:12:55Z</time>
      </trkpt>
      <trkpt lat="42.85805971" lon="13.56192796">
        <ele>160.00000</ele>
        <time>2024-02-02T12:12:56Z</time>
      </trkpt>
      <trkpt lat="42.85800154" lon="13.56186669">
        <ele>160.00000</ele>
        <time>2024-02-02T12:12:57Z</time>
      </trkpt>
      <trkpt lat="42.85793582" lon="13.56180491">
        <ele>160.00000</ele>
        <time>2024-02-02T12:12:58Z</time>
      </trkpt>
      <trkpt lat="42.85786525" lon="13.56174699">
        <ele>160.00000</ele>
        <time>2024-02-02T12:12:59Z</time>
      </trkpt>
      <trkpt lat="42.85779090" lon="13.56169972">
        <ele>159.00000</ele>
        <time>2024-02-02T12:13:00Z</time>
      </trkpt>
      <trkpt lat="42.85771806" lon="13.56165303">
        <ele>160.00000</ele>
        <time>2024-02-02T12:13:01Z</time>
      </trkpt>
      <trkpt lat="42.85765939" lon="13.56161448">
        <ele>160.00000</ele>
        <time>2024-02-02T12:13:02Z</time>
      </trkpt>
      <trkpt lat="42.85758311" lon="13.56156611">
        <ele>160.00000</ele>
        <time>2024-02-02T12:13:03Z</time>
      </trkpt>
      <trkpt lat="42.85749167" lon="13.56151046">
        <ele>159.00000</ele>
        <time>2024-02-02T12:13:04Z</time>
      </trkpt>
      <trkpt lat="42.85741472" lon="13.56146142">
        <ele>159.00000</ele>
        <time>2024-02-02T12:13:05Z</time>
      </trkpt>
      <trkpt lat="42.85733836" lon="13.56141624">
        <ele>158.00000</ele>
        <time>2024-02-02T12:13:06Z</time>
      </trkpt>
      <trkpt lat="42.85725966" lon="13.56137283">
        <ele>158.00000</ele>
        <time>2024-02-02T12:13:07Z</time>
      </trkpt>
      <trkpt lat="42.85717718" lon="13.56132572">
        <ele>157.00000</ele>
        <time>2024-02-02T12:13:08Z</time>
      </trkpt>
      <trkpt lat="42.85709604" lon="13.56127501">
        <ele>157.00000</ele>
        <time>2024-02-02T12:13:09Z</time>
      </trkpt>
      <trkpt lat="42.85701264" lon="13.56121935">
        <ele>157.00000</ele>
        <time>2024-02-02T12:13:10Z</time>
      </trkpt>
      <trkpt lat="42.85694751" lon="13.56117040">
        <ele>157.00000</ele>
        <time>2024-02-02T12:13:11Z</time>
      </trkpt>
      <trkpt lat="42.85687493" lon="13.56109748">
        <ele>157.00000</ele>
        <time>2024-02-02T12:13:12Z</time>
      </trkpt>
      <trkpt lat="42.85679790" lon="13.56099220">
        <ele>157.00000</ele>
        <time>2024-02-02T12:13:13Z</time>
      </trkpt>
      <trkpt lat="42.85674693" lon="13.56088995">
        <ele>156.00000</ele>
        <time>2024-02-02T12:13:14Z</time>
      </trkpt>
      <trkpt lat="42.85671114" lon="13.56077763">
        <ele>156.00000</ele>
        <time>2024-02-02T12:13:15Z</time>
      </trkpt>
      <trkpt lat="42.85669430" lon="13.56068140">
        <ele>156.00000</ele>
        <time>2024-02-02T12:13:16Z</time>
      </trkpt>
      <trkpt lat="42.85668164" lon="13.56055852">
        <ele>157.00000</ele>
        <time>2024-02-02T12:13:17Z</time>
      </trkpt>
      <trkpt lat="42.85667309" lon="13.56041226">
        <ele>157.00000</ele>
        <time>2024-02-02T12:13:18Z</time>
      </trkpt>
      <trkpt lat="42.85666571" lon="13.56029265">
        <ele>156.00000</ele>
        <time>2024-02-02T12:13:19Z</time>
      </trkpt>
      <trkpt lat="42.85665851" lon="13.56017488">
        <ele>156.00000</ele>
        <time>2024-02-02T12:13:20Z</time>
      </trkpt>
      <trkpt lat="42.85665314" lon="13.56008092">
        <ele>156.00000</ele>
        <time>2024-02-02T12:13:21Z</time>
      </trkpt>
      <trkpt lat="42.85664442" lon="13.55994103">
        <ele>155.00000</ele>
        <time>2024-02-02T12:13:22Z</time>
      </trkpt>
      <trkpt lat="42.85663889" lon="13.55982377">
        <ele>154.00000</ele>
        <time>2024-02-02T12:13:23Z</time>
      </trkpt>
      <trkpt lat="42.85663126" lon="13.55970902">
        <ele>153.00000</ele>
        <time>2024-02-02T12:13:24Z</time>
      </trkpt>
      <trkpt lat="42.85661961" lon="13.55959544">
        <ele>154.00000</ele>
        <time>2024-02-02T12:13:25Z</time>
      </trkpt>
      <trkpt lat="42.85661475" lon="13.55950718">
        <ele>155.00000</ele>
        <time>2024-02-02T12:13:26Z</time>
      </trkpt>
      <trkpt lat="42.85660947" lon="13.55939704">
        <ele>155.00000</ele>
        <time>2024-02-02T12:13:27Z</time>
      </trkpt>
      <trkpt lat="42.85659950" lon="13.55926620">
        <ele>156.00000</ele>
        <time>2024-02-02T12:13:28Z</time>
      </trkpt>
      <trkpt lat="42.85659162" lon="13.55915690">
        <ele>157.00000</ele>
        <time>2024-02-02T12:13:29Z</time>
      </trkpt>
      <trkpt lat="42.85658382" lon="13.55904827">
        <ele>157.00000</ele>
        <time>2024-02-02T12:13:30Z</time>
      </trkpt>
      <trkpt lat="42.85657184" lon="13.55894199">
        <ele>157.00000</ele>
        <time>2024-02-02T12:13:31Z</time>
      </trkpt>
      <trkpt lat="42.85655708" lon="13.55883864">
        <ele>156.00000</ele>
        <time>2024-02-02T12:13:32Z</time>
      </trkpt>
      <trkpt lat="42.85654200" lon="13.55873404">
        <ele>156.00000</ele>
        <time>2024-02-02T12:13:33Z</time>
      </trkpt>
      <trkpt lat="42.85652398" lon="13.55863085">
        <ele>155.00000</ele>
        <time>2024-02-02T12:13:34Z</time>
      </trkpt>
      <trkpt lat="42.85650897" lon="13.55853119">
        <ele>155.00000</ele>
        <time>2024-02-02T12:13:35Z</time>
      </trkpt>
      <trkpt lat="42.85649472" lon="13.55845224">
        <ele>155.00000</ele>
        <time>2024-02-02T12:13:36Z</time>
      </trkpt>
      <trkpt lat="42.85647125" lon="13.55833573">
        <ele>156.00000</ele>
        <time>2024-02-02T12:13:37Z</time>
      </trkpt>
      <trkpt lat="42.85645063" lon="13.55824395">
        <ele>156.00000</ele>
        <time>2024-02-02T12:13:38Z</time>
      </trkpt>
      <trkpt lat="42.85641895" lon="13.55815820">
        <ele>157.00000</ele>
        <time>2024-02-02T12:13:39Z</time>
      </trkpt>
      <trkpt lat="42.85638073" lon="13.55807958">
        <ele>157.00000</ele>
        <time>2024-02-02T12:13:40Z</time>
      </trkpt>
      <trkpt lat="42.85633865" lon="13.55800355">
        <ele>157.00000</ele>
        <time>2024-02-02T12:13:41Z</time>
      </trkpt>
      <trkpt lat="42.85629222" lon="13.55792317">
        <ele>157.00000</ele>
        <time>2024-02-02T12:13:42Z</time>
      </trkpt>
      <trkpt lat="42.85624444" lon="13.55784262">
        <ele>157.00000</ele>
        <time>2024-02-02T12:13:43Z</time>
      </trkpt>
      <trkpt lat="42.85619507" lon="13.55776534">
        <ele>158.00000</ele>
        <time>2024-02-02T12:13:44Z</time>
      </trkpt>
      <trkpt lat="42.85613941" lon="13.55769309">
        <ele>158.00000</ele>
        <time>2024-02-02T12:13:45Z</time>
      </trkpt>
      <trkpt lat="42.85608133" lon="13.55762427">
        <ele>158.00000</ele>
        <time>2024-02-02T12:13:46Z</time>
      </trkpt>
      <trkpt lat="42.85603213" lon="13.55757557">
        <ele>158.00000</ele>
        <time>2024-02-02T12:13:47Z</time>
      </trkpt>
      <trkpt lat="42.85595719" lon="13.55750575">
        <ele>157.00000</ele>
        <time>2024-02-02T12:13:48Z</time>
      </trkpt>
      <trkpt lat="42.85589651" lon="13.55744758">
        <ele>156.00000</ele>
        <time>2024-02-02T12:13:49Z</time>
      </trkpt>
      <trkpt lat="42.85583809" lon="13.55738455">
        <ele>156.00000</ele>
        <time>2024-02-02T12:13:50Z</time>
      </trkpt>
      <trkpt lat="42.85577690" lon="13.55732194">
        <ele>157.00000</ele>
        <time>2024-02-02T12:13:51Z</time>
      </trkpt>
      <trkpt lat="42.85571437" lon="13.55726025">
        <ele>157.00000</ele>
        <time>2024-02-02T12:13:52Z</time>
      </trkpt>
      <trkpt lat="42.85564798" lon="13.55719990">
        <ele>157.00000</ele>
        <time>2024-02-02T12:13:53Z</time>
      </trkpt>
      <trkpt lat="42.85558571" lon="13.55713988">
        <ele>157.00000</ele>
        <time>2024-02-02T12:13:54Z</time>
      </trkpt>
      <trkpt lat="42.85552854" lon="13.55707417">
        <ele>157.00000</ele>
        <time>2024-02-02T12:13:55Z</time>
      </trkpt>
      <trkpt lat="42.85547356" lon="13.55700233">
        <ele>158.00000</ele>
        <time>2024-02-02T12:13:56Z</time>
      </trkpt>
      <trkpt lat="42.85542410" lon="13.55692422">
        <ele>159.00000</ele>
        <time>2024-02-02T12:13:57Z</time>
      </trkpt>
      <trkpt lat="42.85537700" lon="13.55684593">
        <ele>159.00000</ele>
        <time>2024-02-02T12:13:58Z</time>
      </trkpt>
      <trkpt lat="42.85533014" lon="13.55676823">
        <ele>160.00000</ele>
        <time>2024-02-02T12:13:59Z</time>
      </trkpt>
      <trkpt lat="42.85528262" lon="13.55669405">
        <ele>160.00000</ele>
        <time>2024-02-02T12:14:00Z</time>
      </trkpt>
      <trkpt lat="42.85523819" lon="13.55661283">
        <ele>160.00000</ele>
        <time>2024-02-02T12:14:01Z</time>
      </trkpt>
      <trkpt lat="42.85519670" lon="13.55652842">
        <ele>160.00000</ele>
        <time>2024-02-02T12:14:02Z</time>
      </trkpt>
      <trkpt lat="42.85515546" lon="13.55643924">
        <ele>160.00000</ele>
        <time>2024-02-02T12:14:03Z</time>
      </trkpt>
      <trkpt lat="42.85511414" lon="13.55634561">
        <ele>160.00000</ele>
        <time>2024-02-02T12:14:04Z</time>
      </trkpt>
      <trkpt lat="42.85507961" lon="13.55625291">
        <ele>159.00000</ele>
        <time>2024-02-02T12:14:05Z</time>
      </trkpt>
      <trkpt lat="42.85504424" lon="13.55616180">
        <ele>159.00000</ele>
        <time>2024-02-02T12:14:06Z</time>
      </trkpt>
      <trkpt lat="42.85500853" lon="13.55607815">
        <ele>159.00000</ele>
        <time>2024-02-02T12:14:07Z</time>
      </trkpt>
      <trkpt lat="42.85497182" lon="13.55599449">
        <ele>158.00000</ele>
        <time>2024-02-02T12:14:08Z</time>
      </trkpt>
      <trkpt lat="42.85493569" lon="13.55590908">
        <ele>158.00000</ele>
        <time>2024-02-02T12:14:09Z</time>
      </trkpt>
      <trkpt lat="42.85490099" lon="13.55582250">
        <ele>157.00000</ele>
        <time>2024-02-02T12:14:10Z</time>
      </trkpt>
      <trkpt lat="42.85486637" lon="13.55572996">
        <ele>157.00000</ele>
        <time>2024-02-02T12:14:11Z</time>
      </trkpt>
      <trkpt lat="42.85483863" lon="13.55563474">
        <ele>157.00000</ele>
        <time>2024-02-02T12:14:12Z</time>
      </trkpt>
      <trkpt lat="42.85481843" lon="13.55553869">
        <ele>157.00000</ele>
        <time>2024-02-02T12:14:13Z</time>
      </trkpt>
      <trkpt lat="42.85479437" lon="13.55544707">
        <ele>156.00000</ele>
        <time>2024-02-02T12:14:14Z</time>
      </trkpt>
      <trkpt lat="42.85476772" lon="13.55535998">
        <ele>156.00000</ele>
        <time>2024-02-02T12:14:15Z</time>
      </trkpt>
      <trkpt lat="42.85473972" lon="13.55527248">
        <ele>156.00000</ele>
        <time>2024-02-02T12:14:16Z</time>
      </trkpt>
      <trkpt lat="42.85472145" lon="13.55517793">
        <ele>155.00000</ele>
        <time>2024-02-02T12:14:17Z</time>
      </trkpt>
      <trkpt lat="42.85472036" lon="13.55507827">
        <ele>155.00000</ele>
        <time>2024-02-02T12:14:18Z</time>
      </trkpt>
      <trkpt lat="42.85472899" lon="13.55498204">
        <ele>156.00000</ele>
        <time>2024-02-02T12:14:19Z</time>
      </trkpt>
      <trkpt lat="42.85473922" lon="13.55488532">
        <ele>156.00000</ele>
        <time>2024-02-02T12:14:20Z</time>
      </trkpt>
      <trkpt lat="42.85474576" lon="13.55478943">
        <ele>157.00000</ele>
        <time>2024-02-02T12:14:21Z</time>
      </trkpt>
      <trkpt lat="42.85474819" lon="13.55469589">
        <ele>157.00000</ele>
        <time>2024-02-02T12:14:22Z</time>
      </trkpt>
      <trkpt lat="42.85473930" lon="13.55460503">
        <ele>157.00000</ele>
        <time>2024-02-02T12:14:23Z</time>
      </trkpt>
      <trkpt lat="42.85471810" lon="13.55451366">
        <ele>157.00000</ele>
        <time>2024-02-02T12:14:24Z</time>
      </trkpt>
      <trkpt lat="42.85468490" lon="13.55442222">
        <ele>157.00000</ele>
        <time>2024-02-02T12:14:25Z</time>
      </trkpt>
      <trkpt lat="42.85464920" lon="13.55433303">
        <ele>157.00000</ele>
        <time>2024-02-02T12:14:26Z</time>
      </trkpt>
      <trkpt lat="42.85460527" lon="13.55424351">
        <ele>157.00000</ele>
        <time>2024-02-02T12:14:27Z</time>
      </trkpt>
      <trkpt lat="42.85456010" lon="13.55415693">
        <ele>157.00000</ele>
        <time>2024-02-02T12:14:28Z</time>
      </trkpt>
      <trkpt lat="42.85451316" lon="13.55407420">
        <ele>156.00000</ele>
        <time>2024-02-02T12:14:29Z</time>
      </trkpt>
      <trkpt lat="42.85446454" lon="13.55398946">
        <ele>156.00000</ele>
        <time>2024-02-02T12:14:30Z</time>
      </trkpt>
      <trkpt lat="42.85442464" lon="13.55390338">
        <ele>155.00000</ele>
        <time>2024-02-02T12:14:31Z</time>
      </trkpt>
      <trkpt lat="42.85438391" lon="13.55381336">
        <ele>155.00000</ele>
        <time>2024-02-02T12:14:32Z</time>
      </trkpt>
      <trkpt lat="42.85434108" lon="13.55372233">
        <ele>155.00000</ele>
        <time>2024-02-02T12:14:33Z</time>
      </trkpt>
      <trkpt lat="42.85430260" lon="13.55362946">
        <ele>154.00000</ele>
        <time>2024-02-02T12:14:34Z</time>
      </trkpt>
      <trkpt lat="42.85426656" lon="13.55353080">
        <ele>154.00000</ele>
        <time>2024-02-02T12:14:35Z</time>
      </trkpt>
      <trkpt lat="42.85423630" lon="13.55343005">
        <ele>154.00000</ele>
        <time>2024-02-02T12:14:36Z</time>
      </trkpt>
      <trkpt lat="42.85420789" lon="13.55332821">
        <ele>153.00000</ele>
        <time>2024-02-02T12:14:37Z</time>
      </trkpt>
      <trkpt lat="42.85418123" lon="13.55322796">
        <ele>154.00000</ele>
        <time>2024-02-02T12:14:38Z</time>
      </trkpt>
      <trkpt lat="42.85415165" lon="13.55312755">
        <ele>154.00000</ele>
        <time>2024-02-02T12:14:39Z</time>
      </trkpt>
      <trkpt lat="42.85412139" lon="13.55302990">
        <ele>154.00000</ele>
        <time>2024-02-02T12:14:40Z</time>
      </trkpt>
      <trkpt lat="42.85409180" lon="13.55293644">
        <ele>155.00000</ele>
        <time>2024-02-02T12:14:41Z</time>
      </trkpt>
      <trkpt lat="42.85405936" lon="13.55284147">
        <ele>155.00000</ele>
        <time>2024-02-02T12:14:42Z</time>
      </trkpt>
      <trkpt lat="42.85402944" lon="13.55274810">
        <ele>156.00000</ele>
        <time>2024-02-02T12:14:43Z</time>
      </trkpt>
      <trkpt lat="42.85400521" lon="13.55265473">
        <ele>157.00000</ele>
        <time>2024-02-02T12:14:44Z</time>
      </trkpt>
      <trkpt lat="42.85398485" lon="13.55255917">
        <ele>157.00000</ele>
        <time>2024-02-02T12:14:45Z</time>
      </trkpt>
      <trkpt lat="42.85396649" lon="13.55246395">
        <ele>158.00000</ele>
        <time>2024-02-02T12:14:46Z</time>
      </trkpt>
      <trkpt lat="42.85394662" lon="13.55236890">
        <ele>159.00000</ele>
        <time>2024-02-02T12:14:47Z</time>
      </trkpt>
      <trkpt lat="42.85392508" lon="13.55227176">
        <ele>160.00000</ele>
        <time>2024-02-02T12:14:48Z</time>
      </trkpt>
      <trkpt lat="42.85390119" lon="13.55217947">
        <ele>161.00000</ele>
        <time>2024-02-02T12:14:49Z</time>
      </trkpt>
      <trkpt lat="42.85387638" lon="13.55209020">
        <ele>163.00000</ele>
        <time>2024-02-02T12:14:50Z</time>
      </trkpt>
      <trkpt lat="42.85386222" lon="13.55200144">
        <ele>165.00000</ele>
        <time>2024-02-02T12:14:51Z</time>
      </trkpt>
      <trkpt lat="42.85385074" lon="13.55191511">
        <ele>167.00000</ele>
        <time>2024-02-02T12:14:52Z</time>
      </trkpt>
      <trkpt lat="42.85384185" lon="13.55183028">
        <ele>170.00000</ele>
        <time>2024-02-02T12:14:53Z</time>
      </trkpt>
      <trkpt lat="42.85383598" lon="13.55174948">
        <ele>172.00000</ele>
        <time>2024-02-02T12:14:54Z</time>
      </trkpt>
      <trkpt lat="42.85383297" lon="13.55167513">
        <ele>175.00000</ele>
        <time>2024-02-02T12:14:55Z</time>
      </trkpt>
      <trkpt lat="42.85383028" lon="13.55160581">
        <ele>176.00000</ele>
        <time>2024-02-02T12:14:56Z</time>
      </trkpt>
      <trkpt lat="42.85382559" lon="13.55153708">
        <ele>176.00000</ele>
        <time>2024-02-02T12:14:57Z</time>
      </trkpt>
      <trkpt lat="42.85381838" lon="13.55147430">
        <ele>177.00000</ele>
        <time>2024-02-02T12:14:58Z</time>
      </trkpt>
      <trkpt lat="42.85380992" lon="13.55141236">
        <ele>178.00000</ele>
        <time>2024-02-02T12:14:59Z</time>
      </trkpt>
      <trkpt lat="42.85380262" lon="13.55135184">
        <ele>178.00000</ele>
        <time>2024-02-02T12:15:00Z</time>
      </trkpt>
      <trkpt lat="42.85379667" lon="13.55129292">
        <ele>177.00000</ele>
        <time>2024-02-02T12:15:01Z</time>
      </trkpt>
      <trkpt lat="42.85379189" lon="13.55123206">
        <ele>177.00000</ele>
        <time>2024-02-02T12:15:02Z</time>
      </trkpt>
      <trkpt lat="42.85378519" lon="13.55116954">
        <ele>177.00000</ele>
        <time>2024-02-02T12:15:03Z</time>
      </trkpt>
      <trkpt lat="42.85377488" lon="13.55110784">
        <ele>177.00000</ele>
        <time>2024-02-02T12:15:04Z</time>
      </trkpt>
      <trkpt lat="42.85376608" lon="13.55104590">
        <ele>176.00000</ele>
        <time>2024-02-02T12:15:05Z</time>
      </trkpt>
      <trkpt lat="42.85375761" lon="13.55098530">
        <ele>176.00000</ele>
        <time>2024-02-02T12:15:06Z</time>
      </trkpt>
      <trkpt lat="42.85375208" lon="13.55092680">
        <ele>176.00000</ele>
        <time>2024-02-02T12:15:07Z</time>
      </trkpt>
      <trkpt lat="42.85374848" lon="13.55086561">
        <ele>176.00000</ele>
        <time>2024-02-02T12:15:08Z</time>
      </trkpt>
      <trkpt lat="42.85374705" lon="13.55080291">
        <ele>176.00000</ele>
        <time>2024-02-02T12:15:09Z</time>
      </trkpt>
      <trkpt lat="42.85374403" lon="13.55074030">
        <ele>176.00000</ele>
        <time>2024-02-02T12:15:10Z</time>
      </trkpt>
      <trkpt lat="42.85374303" lon="13.55067618">
        <ele>176.00000</ele>
        <time>2024-02-02T12:15:11Z</time>
      </trkpt>
      <trkpt lat="42.85374186" lon="13.55061281">
        <ele>176.00000</ele>
        <time>2024-02-02T12:15:12Z</time>
      </trkpt>
      <trkpt lat="42.85373917" lon="13.55054718">
        <ele>176.00000</ele>
        <time>2024-02-02T12:15:13Z</time>
      </trkpt>
      <trkpt lat="42.85374370" lon="13.55047912">
        <ele>176.00000</ele>
        <time>2024-02-02T12:15:14Z</time>
      </trkpt>
      <trkpt lat="42.85374973" lon="13.55041181">
        <ele>176.00000</ele>
        <time>2024-02-02T12:15:15Z</time>
      </trkpt>
      <trkpt lat="42.85375560" lon="13.55034543">
        <ele>177.00000</ele>
        <time>2024-02-02T12:15:16Z</time>
      </trkpt>
      <trkpt lat="42.85376138" lon="13.55027904">
        <ele>177.00000</ele>
        <time>2024-02-02T12:15:17Z</time>
      </trkpt>
      <trkpt lat="42.85376658" lon="13.55021182">
        <ele>177.00000</ele>
        <time>2024-02-02T12:15:18Z</time>
      </trkpt>
      <trkpt lat="42.85376692" lon="13.55014074">
        <ele>177.00000</ele>
        <time>2024-02-02T12:15:19Z</time>
      </trkpt>
      <trkpt lat="42.85376918" lon="13.55006824">
        <ele>177.00000</ele>
        <time>2024-02-02T12:15:20Z</time>
      </trkpt>
      <trkpt lat="42.85377178" lon="13.54999372">
        <ele>177.00000</ele>
        <time>2024-02-02T12:15:21Z</time>
      </trkpt>
      <trkpt lat="42.85377580" lon="13.54991870">
        <ele>177.00000</ele>
        <time>2024-02-02T12:15:22Z</time>
      </trkpt>
      <trkpt lat="42.85377974" lon="13.54984343">
        <ele>176.00000</ele>
        <time>2024-02-02T12:15:23Z</time>
      </trkpt>
      <trkpt lat="42.85378410" lon="13.54976875">
        <ele>176.00000</ele>
        <time>2024-02-02T12:15:24Z</time>
      </trkpt>
      <trkpt lat="42.85378980" lon="13.54969306">
        <ele>176.00000</ele>
        <time>2024-02-02T12:15:25Z</time>
      </trkpt>
      <trkpt lat="42.85379659" lon="13.54961637">
        <ele>176.00000</ele>
        <time>2024-02-02T12:15:26Z</time>
      </trkpt>
      <trkpt lat="42.85380824" lon="13.54953984">
        <ele>177.00000</ele>
        <time>2024-02-02T12:15:27Z</time>
      </trkpt>
      <trkpt lat="42.85382702" lon="13.54946625">
        <ele>178.00000</ele>
        <time>2024-02-02T12:15:28Z</time>
      </trkpt>
      <trkpt lat="42.85385585" lon="13.54938310">
        <ele>178.00000</ele>
        <time>2024-02-02T12:15:29Z</time>
      </trkpt>
      <trkpt lat="42.85388024" lon="13.54931177">
        <ele>179.00000</ele>
        <time>2024-02-02T12:15:30Z</time>
      </trkpt>
      <trkpt lat="42.85390061" lon="13.54925385">
        <ele>180.00000</ele>
        <time>2024-02-02T12:15:31Z</time>
      </trkpt>
      <trkpt lat="42.85392743" lon="13.54918344">
        <ele>181.00000</ele>
        <time>2024-02-02T12:15:32Z</time>
      </trkpt>
      <trkpt lat="42.85395534" lon="13.54911253">
        <ele>182.00000</ele>
        <time>2024-02-02T12:15:33Z</time>
      </trkpt>
      <trkpt lat="42.85398166" lon="13.54904171">
        <ele>183.00000</ele>
        <time>2024-02-02T12:15:34Z</time>
      </trkpt>
      <trkpt lat="42.85400672" lon="13.54896853">
        <ele>184.00000</ele>
        <time>2024-02-02T12:15:35Z</time>
      </trkpt>
      <trkpt lat="42.85403145" lon="13.54889536">
        <ele>185.00000</ele>
        <time>2024-02-02T12:15:36Z</time>
      </trkpt>
      <trkpt lat="42.85405626" lon="13.54882260">
        <ele>186.00000</ele>
        <time>2024-02-02T12:15:37Z</time>
      </trkpt>
      <trkpt lat="42.85408183" lon="13.54874826">
        <ele>186.00000</ele>
        <time>2024-02-02T12:15:38Z</time>
      </trkpt>
      <trkpt lat="42.85410580" lon="13.54867273">
        <ele>187.00000</ele>
        <time>2024-02-02T12:15:39Z</time>
      </trkpt>
      <trkpt lat="42.85412977" lon="13.54859663">
        <ele>187.00000</ele>
        <time>2024-02-02T12:15:40Z</time>
      </trkpt>
      <trkpt lat="42.85415181" lon="13.54852161">
        <ele>187.00000</ele>
        <time>2024-02-02T12:15:41Z</time>
      </trkpt>
      <trkpt lat="42.85417386" lon="13.54844726">
        <ele>188.00000</ele>
        <time>2024-02-02T12:15:42Z</time>
      </trkpt>
      <trkpt lat="42.85419473" lon="13.54837417">
        <ele>188.00000</ele>
        <time>2024-02-02T12:15:43Z</time>
      </trkpt>
      <trkpt lat="42.85421216" lon="13.54829899">
        <ele>188.00000</ele>
        <time>2024-02-02T12:15:44Z</time>
      </trkpt>
      <trkpt lat="42.85423077" lon="13.54822514">
        <ele>189.00000</ele>
        <time>2024-02-02T12:15:45Z</time>
      </trkpt>
      <trkpt lat="42.85425106" lon="13.54815591">
        <ele>190.00000</ele>
        <time>2024-02-02T12:15:46Z</time>
      </trkpt>
      <trkpt lat="42.85426983" lon="13.54808676">
        <ele>190.00000</ele>
        <time>2024-02-02T12:15:47Z</time>
      </trkpt>
      <trkpt lat="42.85428970" lon="13.54801844">
        <ele>191.00000</ele>
        <time>2024-02-02T12:15:48Z</time>
      </trkpt>
      <trkpt lat="42.85430814" lon="13.54795013">
        <ele>191.00000</ele>
        <time>2024-02-02T12:15:49Z</time>
      </trkpt>
      <trkpt lat="42.85432683" lon="13.54788358">
        <ele>191.00000</ele>
        <time>2024-02-02T12:15:50Z</time>
      </trkpt>
      <trkpt lat="42.85434762" lon="13.54781577">
        <ele>191.00000</ele>
        <time>2024-02-02T12:15:51Z</time>
      </trkpt>
      <trkpt lat="42.85436999" lon="13.54775223">
        <ele>192.00000</ele>
        <time>2024-02-02T12:15:52Z</time>
      </trkpt>
      <trkpt lat="42.85439170" lon="13.54769247">
        <ele>191.00000</ele>
        <time>2024-02-02T12:15:53Z</time>
      </trkpt>
      <trkpt lat="42.85441626" lon="13.54763858">
        <ele>191.00000</ele>
        <time>2024-02-02T12:15:54Z</time>
      </trkpt>
      <trkpt lat="42.85443730" lon="13.54758946">
        <ele>191.00000</ele>
        <time>2024-02-02T12:15:55Z</time>
      </trkpt>
      <trkpt lat="42.85445088" lon="13.54753917">
        <ele>190.00000</ele>
        <time>2024-02-02T12:15:56Z</time>
      </trkpt>
      <trkpt lat="42.85446488" lon="13.54749072">
        <ele>189.00000</ele>
        <time>2024-02-02T12:15:57Z</time>
      </trkpt>
      <trkpt lat="42.85447988" lon="13.54744696">
        <ele>188.00000</ele>
        <time>2024-02-02T12:15:58Z</time>
      </trkpt>
      <trkpt lat="42.85449824" lon="13.54740950">
        <ele>187.00000</ele>
        <time>2024-02-02T12:15:59Z</time>
      </trkpt>
      <trkpt lat="42.85451852" lon="13.54737530">
        <ele>187.00000</ele>
        <time>2024-02-02T12:16:00Z</time>
      </trkpt>
      <trkpt lat="42.85453688" lon="13.54734202">
        <ele>186.00000</ele>
        <time>2024-02-02T12:16:01Z</time>
      </trkpt>
      <trkpt lat="42.85455540" lon="13.54730783">
        <ele>185.00000</ele>
        <time>2024-02-02T12:16:02Z</time>
      </trkpt>
      <trkpt lat="42.85457904" lon="13.54727723">
        <ele>185.00000</ele>
        <time>2024-02-02T12:16:03Z</time>
      </trkpt>
      <trkpt lat="42.85460678" lon="13.54725125">
        <ele>185.00000</ele>
        <time>2024-02-02T12:16:04Z</time>
      </trkpt>
      <trkpt lat="42.85463922" lon="13.54722769">
        <ele>185.00000</ele>
        <time>2024-02-02T12:16:05Z</time>
      </trkpt>
      <trkpt lat="42.85467174" lon="13.54720330">
        <ele>185.00000</ele>
        <time>2024-02-02T12:16:06Z</time>
      </trkpt>
      <trkpt lat="42.85470192" lon="13.54718377">
        <ele>185.00000</ele>
        <time>2024-02-02T12:16:07Z</time>
      </trkpt>
      <trkpt lat="42.85473385" lon="13.54716651">
        <ele>185.00000</ele>
        <time>2024-02-02T12:16:08Z</time>
      </trkpt>
      <trkpt lat="42.85476788" lon="13.54715108">
        <ele>185.00000</ele>
        <time>2024-02-02T12:16:09Z</time>
      </trkpt>
      <trkpt lat="42.85480342" lon="13.54713709">
        <ele>185.00000</ele>
        <time>2024-02-02T12:16:10Z</time>
      </trkpt>
      <trkpt lat="42.85483980" lon="13.54712795">
        <ele>186.00000</ele>
        <time>2024-02-02T12:16:11Z</time>
      </trkpt>
      <trkpt lat="42.85487593" lon="13.54712451">
        <ele>186.00000</ele>
        <time>2024-02-02T12:16:12Z</time>
      </trkpt>
      <trkpt lat="42.85491105" lon="13.54712284">
        <ele>186.00000</ele>
        <time>2024-02-02T12:16:13Z</time>
      </trkpt>
      <trkpt lat="42.85494851" lon="13.54711119">
        <ele>186.00000</ele>
        <time>2024-02-02T12:16:14Z</time>
      </trkpt>
      <trkpt lat="42.85499202" lon="13.54709534">
        <ele>186.00000</ele>
        <time>2024-02-02T12:16:15Z</time>
      </trkpt>
      <trkpt lat="42.85504365" lon="13.54708394">
        <ele>186.00000</ele>
        <time>2024-02-02T12:16:16Z</time>
      </trkpt>
      <trkpt lat="42.85510132" lon="13.54708101">
        <ele>187.00000</ele>
        <time>2024-02-02T12:16:17Z</time>
      </trkpt>
      <trkpt lat="42.85515605" lon="13.54706358">
        <ele>187.00000</ele>
        <time>2024-02-02T12:16:18Z</time>
      </trkpt>
      <trkpt lat="42.85520550" lon="13.54707757">
        <ele>187.00000</ele>
        <time>2024-02-02T12:16:19Z</time>
      </trkpt>
      <trkpt lat="42.85525135" lon="13.54710582">
        <ele>188.00000</ele>
        <time>2024-02-02T12:16:20Z</time>
      </trkpt>
      <trkpt lat="42.85529787" lon="13.54714027">
        <ele>189.00000</ele>
        <time>2024-02-02T12:16:21Z</time>
      </trkpt>
      <trkpt lat="42.85534791" lon="13.54719081">
        <ele>191.00000</ele>
        <time>2024-02-02T12:16:22Z</time>
      </trkpt>
      <trkpt lat="42.85539225" lon="13.54723901">
        <ele>192.00000</ele>
        <time>2024-02-02T12:16:23Z</time>
      </trkpt>
      <trkpt lat="42.85544020" lon="13.54727941">
        <ele>193.00000</ele>
        <time>2024-02-02T12:16:24Z</time>
      </trkpt>
      <trkpt lat="42.85549384" lon="13.54731696">
        <ele>194.00000</ele>
        <time>2024-02-02T12:16:25Z</time>
      </trkpt>
      <trkpt lat="42.85554346" lon="13.54734538">
        <ele>195.00000</ele>
        <time>2024-02-02T12:16:26Z</time>
      </trkpt>
      <trkpt lat="42.85559518" lon="13.54733624">
        <ele>195.00000</ele>
        <time>2024-02-02T12:16:27Z</time>
      </trkpt>
      <trkpt lat="42.85565050" lon="13.54728930">
        <ele>195.00000</ele>
        <time>2024-02-02T12:16:28Z</time>
      </trkpt>
      <trkpt lat="42.85570029" lon="13.54723038">
        <ele>195.00000</ele>
        <time>2024-02-02T12:16:29Z</time>
      </trkpt>
      <trkpt lat="42.85571713" lon="13.54716458">
        <ele>194.00000</ele>
        <time>2024-02-02T12:16:30Z</time>
      </trkpt>
      <trkpt lat="42.85571118" lon="13.54710146">
        <ele>194.00000</ele>
        <time>2024-02-02T12:16:31Z</time>
      </trkpt>
      <trkpt lat="42.85570817" lon="13.54704648">
        <ele>194.00000</ele>
        <time>2024-02-02T12:16:32Z</time>
      </trkpt>
      <trkpt lat="42.85570699" lon="13.54699560">
        <ele>194.00000</ele>
        <time>2024-02-02T12:16:33Z</time>
      </trkpt>
      <trkpt lat="42.85570314" lon="13.54694078">
        <ele>194.00000</ele>
        <time>2024-02-02T12:16:34Z</time>
      </trkpt>
      <trkpt lat="42.85570573" lon="13.54689745">
        <ele>194.00000</ele>
        <time>2024-02-02T12:16:35Z</time>
      </trkpt>
      <trkpt lat="42.85570691" lon="13.54685654">
        <ele>193.00000</ele>
        <time>2024-02-02T12:16:36Z</time>
      </trkpt>
      <trkpt lat="42.85570934" lon="13.54681950">
        <ele>193.00000</ele>
        <time>2024-02-02T12:16:37Z</time>
      </trkpt>
      <trkpt lat="42.85571252" lon="13.54678220">
        <ele>193.00000</ele>
        <time>2024-02-02T12:16:38Z</time>
      </trkpt>
      <trkpt lat="42.85571387" lon="13.54674540">
        <ele>193.00000</ele>
        <time>2024-02-02T12:16:39Z</time>
      </trkpt>
      <trkpt lat="42.85571286" lon="13.54671833">
        <ele>193.00000</ele>
        <time>2024-02-02T12:16:40Z</time>
      </trkpt>
      <trkpt lat="42.85572057" lon="13.54669871">
        <ele>193.00000</ele>
        <time>2024-02-02T12:16:41Z</time>
      </trkpt>
      <trkpt lat="42.85573122" lon="13.54669234">
        <ele>193.00000</ele>
        <time>2024-02-02T12:16:42Z</time>
      </trkpt>
      <trkpt lat="42.85573993" lon="13.54670575">
        <ele>194.00000</ele>
        <time>2024-02-02T12:16:43Z</time>
      </trkpt>
      <trkpt lat="42.85574303" lon="13.54673584">
        <ele>194.00000</ele>
        <time>2024-02-02T12:16:44Z</time>
      </trkpt>
      <trkpt lat="42.85574505" lon="13.54677038">
        <ele>194.00000</ele>
        <time>2024-02-02T12:16:45Z</time>
      </trkpt>
      <trkpt lat="42.85574706" lon="13.54680458">
        <ele>194.00000</ele>
        <time>2024-02-02T12:16:46Z</time>
      </trkpt>
      <trkpt lat="42.85575267" lon="13.54683710">
        <ele>194.00000</ele>
        <time>2024-02-02T12:16:47Z</time>
      </trkpt>
      <trkpt lat="42.85576248" lon="13.54687482">
        <ele>194.00000</ele>
        <time>2024-02-02T12:16:48Z</time>
      </trkpt>
      <trkpt lat="42.85577430" lon="13.54691530">
        <ele>195.00000</ele>
        <time>2024-02-02T12:16:49Z</time>
      </trkpt>
      <trkpt lat="42.85578545" lon="13.54695914">
        <ele>195.00000</ele>
        <time>2024-02-02T12:16:50Z</time>
      </trkpt>
      <trkpt lat="42.85579509" lon="13.54700214">
        <ele>195.00000</ele>
        <time>2024-02-02T12:16:51Z</time>
      </trkpt>
      <trkpt lat="42.85580858" lon="13.54704631">
        <ele>195.00000</ele>
        <time>2024-02-02T12:16:52Z</time>
      </trkpt>
      <trkpt lat="42.85582945" lon="13.54708981">
        <ele>195.00000</ele>
        <time>2024-02-02T12:16:53Z</time>
      </trkpt>
      <trkpt lat="42.85585502" lon="13.54712326">
        <ele>196.00000</ele>
        <time>2024-02-02T12:16:54Z</time>
      </trkpt>
      <trkpt lat="42.85588243" lon="13.54715335">
        <ele>197.00000</ele>
        <time>2024-02-02T12:16:55Z</time>
      </trkpt>
      <trkpt lat="42.85591176" lon="13.54718159">
        <ele>197.00000</ele>
        <time>2024-02-02T12:16:56Z</time>
      </trkpt>
      <trkpt lat="42.85594345" lon="13.54720473">
        <ele>198.00000</ele>
        <time>2024-02-02T12:16:57Z</time>
      </trkpt>
      <trkpt lat="42.85597354" lon="13.54722510">
        <ele>199.00000</ele>
        <time>2024-02-02T12:16:58Z</time>
      </trkpt>
      <trkpt lat="42.85600220" lon="13.54724127">
        <ele>199.00000</ele>
        <time>2024-02-02T12:16:59Z</time>
      </trkpt>
      <trkpt lat="42.85603011" lon="13.54725368">
        <ele>200.00000</ele>
        <time>2024-02-02T12:17:00Z</time>
      </trkpt>
      <trkpt lat="42.85605560" lon="13.54726667">
        <ele>201.00000</ele>
        <time>2024-02-02T12:17:01Z</time>
      </trkpt>
      <trkpt lat="42.85608091" lon="13.54727941">
        <ele>201.00000</ele>
        <time>2024-02-02T12:17:02Z</time>
      </trkpt>
      <trkpt lat="42.85610622" lon="13.54728997">
        <ele>202.00000</ele>
        <time>2024-02-02T12:17:03Z</time>
      </trkpt>
      <trkpt lat="42.85613045" lon="13.54729877">
        <ele>202.00000</ele>
        <time>2024-02-02T12:17:04Z</time>
      </trkpt>
      <trkpt lat="42.85615299" lon="13.54730506">
        <ele>202.00000</ele>
        <time>2024-02-02T12:17:05Z</time>
      </trkpt>
      <trkpt lat="42.85617353" lon="13.54731093">
        <ele>202.00000</ele>
        <time>2024-02-02T12:17:06Z</time>
      </trkpt>
      <trkpt lat="42.85619314" lon="13.54731487">
        <ele>203.00000</ele>
        <time>2024-02-02T12:17:07Z</time>
      </trkpt>
      <trkpt lat="42.85621376" lon="13.54731763">
        <ele>203.00000</ele>
        <time>2024-02-02T12:17:08Z</time>
      </trkpt>
      <trkpt lat="42.85623463" lon="13.54731596">
        <ele>203.00000</ele>
        <time>2024-02-02T12:17:09Z</time>
      </trkpt>
      <trkpt lat="42.85625886" lon="13.54730917">
        <ele>203.00000</ele>
        <time>2024-02-02T12:17:10Z</time>
      </trkpt>
      <trkpt lat="42.85628308" lon="13.54729450">
        <ele>203.00000</ele>
        <time>2024-02-02T12:17:11Z</time>
      </trkpt>
      <trkpt lat="42.85630378" lon="13.54727522">
        <ele>204.00000</ele>
        <time>2024-02-02T12:17:12Z</time>
      </trkpt>
      <trkpt lat="42.85632306" lon="13.54725024">
        <ele>204.00000</ele>
        <time>2024-02-02T12:17:13Z</time>
      </trkpt>
      <trkpt lat="42.85634008" lon="13.54722560">
        <ele>204.00000</ele>
        <time>2024-02-02T12:17:14Z</time>
      </trkpt>
      <trkpt lat="42.85635491" lon="13.54720347">
        <ele>204.00000</ele>
        <time>2024-02-02T12:17:15Z</time>
      </trkpt>
      <trkpt lat="42.85637076" lon="13.54718319">
        <ele>204.00000</ele>
        <time>2024-02-02T12:17:16Z</time>
      </trkpt>
      <trkpt lat="42.85638852" lon="13.54716315">
        <ele>204.00000</ele>
        <time>2024-02-02T12:17:17Z</time>
      </trkpt>
      <trkpt lat="42.85640370" lon="13.54714170">
        <ele>204.00000</ele>
        <time>2024-02-02T12:17:18Z</time>
      </trkpt>
      <trkpt lat="42.85641786" lon="13.54711580">
        <ele>204.00000</ele>
        <time>2024-02-02T12:17:19Z</time>
      </trkpt>
      <trkpt lat="42.85643354" lon="13.54708973">
        <ele>205.00000</ele>
        <time>2024-02-02T12:17:20Z</time>
      </trkpt>
      <trkpt lat="42.85645147" lon="13.54706542">
        <ele>205.00000</ele>
        <time>2024-02-02T12:17:21Z</time>
      </trkpt>
      <trkpt lat="42.85647000" lon="13.54704145">
        <ele>205.00000</ele>
        <time>2024-02-02T12:17:22Z</time>
      </trkpt>
      <trkpt lat="42.85648567" lon="13.54701505">
        <ele>205.00000</ele>
        <time>2024-02-02T12:17:23Z</time>
      </trkpt>
      <trkpt lat="42.85650227" lon="13.54699007">
        <ele>205.00000</ele>
        <time>2024-02-02T12:17:24Z</time>
      </trkpt>
      <trkpt lat="42.85652020" lon="13.54696459">
        <ele>206.00000</ele>
        <time>2024-02-02T12:17:25Z</time>
      </trkpt>
      <trkpt lat="42.85653764" lon="13.54694087">
        <ele>206.00000</ele>
        <time>2024-02-02T12:17:26Z</time>
      </trkpt>
      <trkpt lat="42.85655273" lon="13.54691564">
        <ele>207.00000</ele>
        <time>2024-02-02T12:17:27Z</time>
      </trkpt>
      <trkpt lat="42.85656941" lon="13.54688982">
        <ele>208.00000</ele>
        <time>2024-02-02T12:17:28Z</time>
      </trkpt>
      <trkpt lat="42.85658969" lon="13.54686836">
        <ele>209.00000</ele>
        <time>2024-02-02T12:17:29Z</time>
      </trkpt>
      <trkpt lat="42.85661157" lon="13.54684934">
        <ele>210.00000</ele>
        <time>2024-02-02T12:17:30Z</time>
      </trkpt>
      <trkpt lat="42.85663370" lon="13.54682972">
        <ele>211.00000</ele>
        <time>2024-02-02T12:17:31Z</time>
      </trkpt>
      <trkpt lat="42.85665390" lon="13.54680868">
        <ele>213.00000</ele>
        <time>2024-02-02T12:17:32Z</time>
      </trkpt>
      <trkpt lat="42.85667309" lon="13.54678790">
        <ele>214.00000</ele>
        <time>2024-02-02T12:17:33Z</time>
      </trkpt>
      <trkpt lat="42.85669321" lon="13.54676954">
        <ele>215.00000</ele>
        <time>2024-02-02T12:17:34Z</time>
      </trkpt>
      <trkpt lat="42.85671634" lon="13.54675110">
        <ele>216.00000</ele>
        <time>2024-02-02T12:17:35Z</time>
      </trkpt>
      <trkpt lat="42.85674056" lon="13.54673048">
        <ele>217.00000</ele>
        <time>2024-02-02T12:17:36Z</time>
      </trkpt>
      <trkpt lat="42.85676512" lon="13.54670994">
        <ele>218.00000</ele>
        <time>2024-02-02T12:17:37Z</time>
      </trkpt>
      <trkpt lat="42.85678859" lon="13.54668731">
        <ele>220.00000</ele>
        <time>2024-02-02T12:17:38Z</time>
      </trkpt>
      <trkpt lat="42.85681424" lon="13.54666762">
        <ele>221.00000</ele>
        <time>2024-02-02T12:17:39Z</time>
      </trkpt>
      <trkpt lat="42.85684023" lon="13.54665337">
        <ele>222.00000</ele>
        <time>2024-02-02T12:17:40Z</time>
      </trkpt>
      <trkpt lat="42.85686705" lon="13.54663820">
        <ele>224.00000</ele>
        <time>2024-02-02T12:17:41Z</time>
      </trkpt>
      <trkpt lat="42.85689605" lon="13.54662386">
        <ele>225.00000</ele>
        <time>2024-02-02T12:17:42Z</time>
      </trkpt>
      <trkpt lat="42.85692438" lon="13.54661154">
        <ele>226.00000</ele>
        <time>2024-02-02T12:17:43Z</time>
      </trkpt>
      <trkpt lat="42.85695003" lon="13.54659880">
        <ele>227.00000</ele>
        <time>2024-02-02T12:17:44Z</time>
      </trkpt>
      <trkpt lat="42.85698062" lon="13.54659344">
        <ele>227.00000</ele>
        <time>2024-02-02T12:17:45Z</time>
      </trkpt>
      <trkpt lat="42.85701130" lon="13.54658983">
        <ele>228.00000</ele>
        <time>2024-02-02T12:17:46Z</time>
      </trkpt>
      <trkpt lat="42.85704324" lon="13.54658774">
        <ele>228.00000</ele>
        <time>2024-02-02T12:17:47Z</time>
      </trkpt>
      <trkpt lat="42.85707383" lon="13.54658564">
        <ele>229.00000</ele>
        <time>2024-02-02T12:17:48Z</time>
      </trkpt>
      <trkpt lat="42.85710099" lon="13.54658673">
        <ele>229.00000</ele>
        <time>2024-02-02T12:17:49Z</time>
      </trkpt>
      <trkpt lat="42.85712932" lon="13.54658899">
        <ele>229.00000</ele>
        <time>2024-02-02T12:17:50Z</time>
      </trkpt>
      <trkpt lat="42.85715958" lon="13.54658992">
        <ele>229.00000</ele>
        <time>2024-02-02T12:17:51Z</time>
      </trkpt>
      <trkpt lat="42.85718958" lon="13.54659402">
        <ele>230.00000</ele>
        <time>2024-02-02T12:17:52Z</time>
      </trkpt>
      <trkpt lat="42.85721833" lon="13.54659285">
        <ele>230.00000</ele>
        <time>2024-02-02T12:17:53Z</time>
      </trkpt>
      <trkpt lat="42.85724759" lon="13.54659453">
        <ele>230.00000</ele>
        <time>2024-02-02T12:17:54Z</time>
      </trkpt>
      <trkpt lat="42.85727776" lon="13.54659872">
        <ele>231.00000</ele>
        <time>2024-02-02T12:17:55Z</time>
      </trkpt>
      <trkpt lat="42.85730819" lon="13.54660701">
        <ele>231.00000</ele>
        <time>2024-02-02T12:17:56Z</time>
      </trkpt>
      <trkpt lat="42.85733987" lon="13.54661640">
        <ele>232.00000</ele>
        <time>2024-02-02T12:17:57Z</time>
      </trkpt>
      <trkpt lat="42.85737189" lon="13.54662571">
        <ele>232.00000</ele>
        <time>2024-02-02T12:17:58Z</time>
      </trkpt>
      <trkpt lat="42.85740374" lon="13.54663451">
        <ele>232.00000</ele>
        <time>2024-02-02T12:17:59Z</time>
      </trkpt>
      <trkpt lat="42.85743626" lon="13.54664540">
        <ele>233.00000</ele>
        <time>2024-02-02T12:18:00Z</time>
      </trkpt>
      <trkpt lat="42.85746971" lon="13.54665496">
        <ele>233.00000</ele>
        <time>2024-02-02T12:18:01Z</time>
      </trkpt>
      <trkpt lat="42.85750290" lon="13.54666644">
        <ele>234.00000</ele>
        <time>2024-02-02T12:18:02Z</time>
      </trkpt>
      <trkpt lat="42.85753425" lon="13.54668128">
        <ele>233.00000</ele>
        <time>2024-02-02T12:18:03Z</time>
      </trkpt>
      <trkpt lat="42.85756660" lon="13.54669611">
        <ele>233.00000</ele>
        <time>2024-02-02T12:18:04Z</time>
      </trkpt>
      <trkpt lat="42.85759820" lon="13.54670869">
        <ele>233.00000</ele>
        <time>2024-02-02T12:18:05Z</time>
      </trkpt>
      <trkpt lat="42.85762838" lon="13.54672612">
        <ele>233.00000</ele>
        <time>2024-02-02T12:18:06Z</time>
      </trkpt>
      <trkpt lat="42.85765847" lon="13.54674389">
        <ele>233.00000</ele>
        <time>2024-02-02T12:18:07Z</time>
      </trkpt>
      <trkpt lat="42.85768914" lon="13.54675814">
        <ele>233.00000</ele>
        <time>2024-02-02T12:18:08Z</time>
      </trkpt>
      <trkpt lat="42.85772091" lon="13.54677113">
        <ele>233.00000</ele>
        <time>2024-02-02T12:18:09Z</time>
      </trkpt>
      <trkpt lat="42.85775184" lon="13.54678714">
        <ele>233.00000</ele>
        <time>2024-02-02T12:18:10Z</time>
      </trkpt>
      <trkpt lat="42.85778109" lon="13.54680365">
        <ele>233.00000</ele>
        <time>2024-02-02T12:18:11Z</time>
      </trkpt>
      <trkpt lat="42.85781093" lon="13.54681673">
        <ele>233.00000</ele>
        <time>2024-02-02T12:18:12Z</time>
      </trkpt>
      <trkpt lat="42.85784119" lon="13.54683031">
        <ele>233.00000</ele>
        <time>2024-02-02T12:18:13Z</time>
      </trkpt>
      <trkpt lat="42.85786961" lon="13.54684514">
        <ele>232.00000</ele>
        <time>2024-02-02T12:18:14Z</time>
      </trkpt>
      <trkpt lat="42.85789869" lon="13.54686216">
        <ele>232.00000</ele>
        <time>2024-02-02T12:18:15Z</time>
      </trkpt>
      <trkpt lat="42.85792702" lon="13.54687909">
        <ele>232.00000</ele>
        <time>2024-02-02T12:18:16Z</time>
      </trkpt>
      <trkpt lat="42.85795510" lon="13.54689124">
        <ele>232.00000</ele>
        <time>2024-02-02T12:18:17Z</time>
      </trkpt>
      <trkpt lat="42.85798335" lon="13.54690432">
        <ele>232.00000</ele>
        <time>2024-02-02T12:18:18Z</time>
      </trkpt>
      <trkpt lat="42.85800791" lon="13.54692175">
        <ele>232.00000</ele>
        <time>2024-02-02T12:18:19Z</time>
      </trkpt>
      <trkpt lat="42.85803096" lon="13.54693994">
        <ele>232.00000</ele>
        <time>2024-02-02T12:18:20Z</time>
      </trkpt>
      <trkpt lat="42.85805434" lon="13.54695763">
        <ele>232.00000</ele>
        <time>2024-02-02T12:18:21Z</time>
      </trkpt>
      <trkpt lat="42.85807840" lon="13.54697993">
        <ele>231.00000</ele>
        <time>2024-02-02T12:18:22Z</time>
      </trkpt>
      <trkpt lat="42.85810539" lon="13.54699837">
        <ele>231.00000</ele>
        <time>2024-02-02T12:18:23Z</time>
      </trkpt>
      <trkpt lat="42.85813364" lon="13.54701228">
        <ele>231.00000</ele>
        <time>2024-02-02T12:18:24Z</time>
      </trkpt>
      <trkpt lat="42.85815996" lon="13.54702594">
        <ele>230.00000</ele>
        <time>2024-02-02T12:18:25Z</time>
      </trkpt>
      <trkpt lat="42.85818745" lon="13.54704019">
        <ele>230.00000</ele>
        <time>2024-02-02T12:18:26Z</time>
      </trkpt>
      <trkpt lat="42.85821796" lon="13.54705360">
        <ele>230.00000</ele>
        <time>2024-02-02T12:18:27Z</time>
      </trkpt>
      <trkpt lat="42.85824998" lon="13.54706207">
        <ele>230.00000</ele>
        <time>2024-02-02T12:18:28Z</time>
      </trkpt>
      <trkpt lat="42.85827923" lon="13.54707028">
        <ele>230.00000</ele>
        <time>2024-02-02T12:18:29Z</time>
      </trkpt>
      <trkpt lat="42.85830991" lon="13.54707372">
        <ele>230.00000</ele>
        <time>2024-02-02T12:18:30Z</time>
      </trkpt>
      <trkpt lat="42.85834084" lon="13.54707204">
        <ele>230.00000</ele>
        <time>2024-02-02T12:18:31Z</time>
      </trkpt>
      <trkpt lat="42.85837286" lon="13.54706928">
        <ele>231.00000</ele>
        <time>2024-02-02T12:18:32Z</time>
      </trkpt>
      <trkpt lat="42.85840404" lon="13.54706743">
        <ele>231.00000</ele>
        <time>2024-02-02T12:18:33Z</time>
      </trkpt>
      <trkpt lat="42.85843555" lon="13.54706609">
        <ele>232.00000</ele>
        <time>2024-02-02T12:18:34Z</time>
      </trkpt>
      <trkpt lat="42.85846590" lon="13.54706064">
        <ele>232.00000</ele>
        <time>2024-02-02T12:18:35Z</time>
      </trkpt>
      <trkpt lat="42.85849766" lon="13.54705687">
        <ele>233.00000</ele>
        <time>2024-02-02T12:18:36Z</time>
      </trkpt>
      <trkpt lat="42.85853253" lon="13.54705813">
        <ele>233.00000</ele>
        <time>2024-02-02T12:18:37Z</time>
      </trkpt>
      <trkpt lat="42.85856732" lon="13.54706358">
        <ele>233.00000</ele>
        <time>2024-02-02T12:18:38Z</time>
      </trkpt>
      <trkpt lat="42.85860235" lon="13.54706844">
        <ele>233.00000</ele>
        <time>2024-02-02T12:18:39Z</time>
      </trkpt>
      <trkpt lat="42.85863714" lon="13.54707556">
        <ele>233.00000</ele>
        <time>2024-02-02T12:18:40Z</time>
      </trkpt>
      <trkpt lat="42.85867586" lon="13.54708663">
        <ele>233.00000</ele>
        <time>2024-02-02T12:18:41Z</time>
      </trkpt>
      <trkpt lat="42.85871626" lon="13.54709928">
        <ele>233.00000</ele>
        <time>2024-02-02T12:18:42Z</time>
      </trkpt>
      <trkpt lat="42.85875465" lon="13.54711420">
        <ele>232.00000</ele>
        <time>2024-02-02T12:18:43Z</time>
      </trkpt>
      <trkpt lat="42.85879438" lon="13.54712946">
        <ele>232.00000</ele>
        <time>2024-02-02T12:18:44Z</time>
      </trkpt>
      <trkpt lat="42.85883319" lon="13.54714589">
        <ele>231.00000</ele>
        <time>2024-02-02T12:18:45Z</time>
      </trkpt>
      <trkpt lat="42.85887317" lon="13.54716366">
        <ele>231.00000</ele>
        <time>2024-02-02T12:18:46Z</time>
      </trkpt>
      <trkpt lat="42.85891198" lon="13.54718159">
        <ele>230.00000</ele>
        <time>2024-02-02T12:18:47Z</time>
      </trkpt>
      <trkpt lat="42.85895146" lon="13.54719744">
        <ele>229.00000</ele>
        <time>2024-02-02T12:18:48Z</time>
      </trkpt>
      <trkpt lat="42.85899194" lon="13.54720850">
        <ele>229.00000</ele>
        <time>2024-02-02T12:18:49Z</time>
      </trkpt>
      <trkpt lat="42.85903394" lon="13.54721755">
        <ele>229.00000</ele>
        <time>2024-02-02T12:18:50Z</time>
      </trkpt>
      <trkpt lat="42.85907534" lon="13.54722166">
        <ele>229.00000</ele>
        <time>2024-02-02T12:18:51Z</time>
      </trkpt>
      <trkpt lat="42.85911725" lon="13.54722283">
        <ele>228.00000</ele>
        <time>2024-02-02T12:18:52Z</time>
      </trkpt>
      <trkpt lat="42.85916252" lon="13.54722602">
        <ele>228.00000</ele>
        <time>2024-02-02T12:18:53Z</time>
      </trkpt>
      <trkpt lat="42.85920753" lon="13.54723004">
        <ele>229.00000</ele>
        <time>2024-02-02T12:18:54Z</time>
      </trkpt>
      <trkpt lat="42.85925488" lon="13.54723155">
        <ele>229.00000</ele>
        <time>2024-02-02T12:18:55Z</time>
      </trkpt>
      <trkpt lat="42.85930140" lon="13.54722887">
        <ele>229.00000</ele>
        <time>2024-02-02T12:18:56Z</time>
      </trkpt>
      <trkpt lat="42.85934868" lon="13.54722786">
        <ele>229.00000</ele>
        <time>2024-02-02T12:18:57Z</time>
      </trkpt>
      <trkpt lat="42.85939662" lon="13.54723557">
        <ele>229.00000</ele>
        <time>2024-02-02T12:18:58Z</time>
      </trkpt>
      <trkpt lat="42.85944624" lon="13.54724622">
        <ele>229.00000</ele>
        <time>2024-02-02T12:18:59Z</time>
      </trkpt>
      <trkpt lat="42.85949436" lon="13.54726122">
        <ele>229.00000</ele>
        <time>2024-02-02T12:19:00Z</time>
      </trkpt>
      <trkpt lat="42.85954155" lon="13.54727740">
        <ele>230.00000</ele>
        <time>2024-02-02T12:19:01Z</time>
      </trkpt>
      <trkpt lat="42.85958865" lon="13.54729123">
        <ele>230.00000</ele>
        <time>2024-02-02T12:19:02Z</time>
      </trkpt>
      <trkpt lat="42.85963475" lon="13.54730598">
        <ele>230.00000</ele>
        <time>2024-02-02T12:19:03Z</time>
      </trkpt>
      <trkpt lat="42.85967918" lon="13.54732459">
        <ele>230.00000</ele>
        <time>2024-02-02T12:19:04Z</time>
      </trkpt>
      <trkpt lat="42.85972620" lon="13.54734412">
        <ele>230.00000</ele>
        <time>2024-02-02T12:19:05Z</time>
      </trkpt>
      <trkpt lat="42.85977196" lon="13.54735887">
        <ele>230.00000</ele>
        <time>2024-02-02T12:19:06Z</time>
      </trkpt>
      <trkpt lat="42.85981781" lon="13.54736776">
        <ele>231.00000</ele>
        <time>2024-02-02T12:19:07Z</time>
      </trkpt>
      <trkpt lat="42.85986274" lon="13.54736893">
        <ele>231.00000</ele>
        <time>2024-02-02T12:19:08Z</time>
      </trkpt>
      <trkpt lat="42.85990934" lon="13.54736239">
        <ele>232.00000</ele>
        <time>2024-02-02T12:19:09Z</time>
      </trkpt>
      <trkpt lat="42.85995435" lon="13.54735057">
        <ele>233.00000</ele>
        <time>2024-02-02T12:19:10Z</time>
      </trkpt>
      <trkpt lat="42.85999584" lon="13.54732752">
        <ele>235.00000</ele>
        <time>2024-02-02T12:19:11Z</time>
      </trkpt>
      <trkpt lat="42.86003440" lon="13.54730020">
        <ele>236.00000</ele>
        <time>2024-02-02T12:19:12Z</time>
      </trkpt>
      <trkpt lat="42.86007388" lon="13.54727681">
        <ele>238.00000</ele>
        <time>2024-02-02T12:19:13Z</time>
      </trkpt>
      <trkpt lat="42.86010975" lon="13.54725376">
        <ele>239.00000</ele>
        <time>2024-02-02T12:19:14Z</time>
      </trkpt>
      <trkpt lat="42.86014278" lon="13.54723197">
        <ele>241.00000</ele>
        <time>2024-02-02T12:19:15Z</time>
      </trkpt>
      <trkpt lat="42.86017564" lon="13.54721613">
        <ele>242.00000</ele>
        <time>2024-02-02T12:19:16Z</time>
      </trkpt>
      <trkpt lat="42.86020983" lon="13.54720640">
        <ele>243.00000</ele>
        <time>2024-02-02T12:19:17Z</time>
      </trkpt>
      <trkpt lat="42.86024303" lon="13.54720339">
        <ele>244.00000</ele>
        <time>2024-02-02T12:19:18Z</time>
      </trkpt>
      <trkpt lat="42.86027731" lon="13.54719970">
        <ele>245.00000</ele>
        <time>2024-02-02T12:19:19Z</time>
      </trkpt>
      <trkpt lat="42.86031176" lon="13.54719660">
        <ele>245.00000</ele>
        <time>2024-02-02T12:19:20Z</time>
      </trkpt>
      <trkpt lat="42.86034587" lon="13.54719383">
        <ele>245.00000</ele>
        <time>2024-02-02T12:19:21Z</time>
      </trkpt>
      <trkpt lat="42.86038376" lon="13.54718570">
        <ele>246.00000</ele>
        <time>2024-02-02T12:19:22Z</time>
      </trkpt>
      <trkpt lat="42.86041930" lon="13.54718436">
        <ele>246.00000</ele>
        <time>2024-02-02T12:19:23Z</time>
      </trkpt>
      <trkpt lat="42.86045517" lon="13.54718092">
        <ele>246.00000</ele>
        <time>2024-02-02T12:19:24Z</time>
      </trkpt>
      <trkpt lat="42.86048803" lon="13.54717908">
        <ele>247.00000</ele>
        <time>2024-02-02T12:19:25Z</time>
      </trkpt>
      <trkpt lat="42.86052089" lon="13.54717975">
        <ele>247.00000</ele>
        <time>2024-02-02T12:19:26Z</time>
      </trkpt>
      <trkpt lat="42.86055332" lon="13.54718293">
        <ele>247.00000</ele>
        <time>2024-02-02T12:19:27Z</time>
      </trkpt>
      <trkpt lat="42.86058828" lon="13.54718394">
        <ele>246.00000</ele>
        <time>2024-02-02T12:19:28Z</time>
      </trkpt>
      <trkpt lat="42.86062407" lon="13.54718511">
        <ele>245.00000</ele>
        <time>2024-02-02T12:19:29Z</time>
      </trkpt>
      <trkpt lat="42.86065558" lon="13.54718620">
        <ele>245.00000</ele>
        <time>2024-02-02T12:19:30Z</time>
      </trkpt>
      <trkpt lat="42.86068534" lon="13.54718687">
        <ele>244.00000</ele>
        <time>2024-02-02T12:19:31Z</time>
      </trkpt>
      <trkpt lat="42.86071669" lon="13.54718780">
        <ele>243.00000</ele>
        <time>2024-02-02T12:19:32Z</time>
      </trkpt>
      <trkpt lat="42.86074745" lon="13.54718939">
        <ele>243.00000</ele>
        <time>2024-02-02T12:19:33Z</time>
      </trkpt>
      <trkpt lat="42.86077788" lon="13.54719031">
        <ele>242.00000</ele>
        <time>2024-02-02T12:19:34Z</time>
      </trkpt>
      <trkpt lat="42.86080906" lon="13.54719006">
        <ele>241.00000</ele>
        <time>2024-02-02T12:19:35Z</time>
      </trkpt>
      <trkpt lat="42.86084007" lon="13.54718444">
        <ele>241.00000</ele>
        <time>2024-02-02T12:19:36Z</time>
      </trkpt>
      <trkpt lat="42.86087066" lon="13.54717791">
        <ele>241.00000</ele>
        <time>2024-02-02T12:19:37Z</time>
      </trkpt>
      <trkpt lat="42.86089950" lon="13.54716701">
        <ele>242.00000</ele>
        <time>2024-02-02T12:19:38Z</time>
      </trkpt>
      <trkpt lat="42.86092691" lon="13.54715142">
        <ele>242.00000</ele>
        <time>2024-02-02T12:19:39Z</time>
      </trkpt>
      <trkpt lat="42.86095306" lon="13.54712896">
        <ele>243.00000</ele>
        <time>2024-02-02T12:19:40Z</time>
      </trkpt>
      <trkpt lat="42.86097628" lon="13.54710146">
        <ele>244.00000</ele>
        <time>2024-02-02T12:19:41Z</time>
      </trkpt>
      <trkpt lat="42.86099488" lon="13.54707053">
        <ele>245.00000</ele>
        <time>2024-02-02T12:19:42Z</time>
      </trkpt>
      <trkpt lat="42.86100905" lon="13.54703877">
        <ele>246.00000</ele>
        <time>2024-02-02T12:19:43Z</time>
      </trkpt>
      <trkpt lat="42.86101969" lon="13.54700658">
        <ele>247.00000</ele>
        <time>2024-02-02T12:19:44Z</time>
      </trkpt>
      <trkpt lat="42.86102967" lon="13.54697397">
        <ele>248.00000</ele>
        <time>2024-02-02T12:19:45Z</time>
      </trkpt>
      <trkpt lat="42.86103545" lon="13.54693927">
        <ele>250.00000</ele>
        <time>2024-02-02T12:19:46Z</time>
      </trkpt>
      <trkpt lat="42.86104073" lon="13.54690298">
        <ele>251.00000</ele>
        <time>2024-02-02T12:19:47Z</time>
      </trkpt>
      <trkpt lat="42.86104811" lon="13.54686694">
        <ele>252.00000</ele>
        <time>2024-02-02T12:19:48Z</time>
      </trkpt>
      <trkpt lat="42.86105766" lon="13.54682721">
        <ele>253.00000</ele>
        <time>2024-02-02T12:19:49Z</time>
      </trkpt>
      <trkpt lat="42.86106546" lon="13.54678605">
        <ele>254.00000</ele>
        <time>2024-02-02T12:19:50Z</time>
      </trkpt>
      <trkpt lat="42.86107191" lon="13.54674406">
        <ele>255.00000</ele>
        <time>2024-02-02T12:19:51Z</time>
      </trkpt>
      <trkpt lat="42.86107962" lon="13.54670056">
        <ele>256.00000</ele>
        <time>2024-02-02T12:19:52Z</time>
      </trkpt>
      <trkpt lat="42.86108532" lon="13.54665873">
        <ele>257.00000</ele>
        <time>2024-02-02T12:19:53Z</time>
      </trkpt>
      <trkpt lat="42.86109413" lon="13.54662319">
        <ele>257.00000</ele>
        <time>2024-02-02T12:19:54Z</time>
      </trkpt>
      <trkpt lat="42.86110200" lon="13.54658874">
        <ele>257.00000</ele>
        <time>2024-02-02T12:19:55Z</time>
      </trkpt>
      <trkpt lat="42.86110938" lon="13.54655295">
        <ele>257.00000</ele>
        <time>2024-02-02T12:19:56Z</time>
      </trkpt>
      <trkpt lat="42.86111215" lon="13.54651733">
        <ele>257.00000</ele>
        <time>2024-02-02T12:19:57Z</time>
      </trkpt>
      <trkpt lat="42.86111298" lon="13.54648749">
        <ele>257.00000</ele>
        <time>2024-02-02T12:19:58Z</time>
      </trkpt>
      <trkpt lat="42.86111969" lon="13.54645094">
        <ele>258.00000</ele>
        <time>2024-02-02T12:19:59Z</time>
      </trkpt>
      <trkpt lat="42.86113067" lon="13.54640400">
        <ele>258.00000</ele>
        <time>2024-02-02T12:20:00Z</time>
      </trkpt>
      <trkpt lat="42.86114458" lon="13.54636352">
        <ele>259.00000</ele>
        <time>2024-02-02T12:20:01Z</time>
      </trkpt>
      <trkpt lat="42.86116235" lon="13.54632723">
        <ele>260.00000</ele>
        <time>2024-02-02T12:20:02Z</time>
      </trkpt>
      <trkpt lat="42.86118322" lon="13.54629068">
        <ele>261.00000</ele>
        <time>2024-02-02T12:20:03Z</time>
      </trkpt>
      <trkpt lat="42.86119689" lon="13.54626872">
        <ele>261.00000</ele>
        <time>2024-02-02T12:20:04Z</time>
      </trkpt>
      <trkpt lat="42.86121474" lon="13.54624156">
        <ele>261.00000</ele>
        <time>2024-02-02T12:20:05Z</time>
      </trkpt>
      <trkpt lat="42.86123695" lon="13.54621591">
        <ele>262.00000</ele>
        <time>2024-02-02T12:20:06Z</time>
      </trkpt>
      <trkpt lat="42.86125916" lon="13.54618951">
        <ele>262.00000</ele>
        <time>2024-02-02T12:20:07Z</time>
      </trkpt>
      <trkpt lat="42.86128180" lon="13.54616453">
        <ele>261.00000</ele>
        <time>2024-02-02T12:20:08Z</time>
      </trkpt>
      <trkpt lat="42.86130853" lon="13.54614157">
        <ele>261.00000</ele>
        <time>2024-02-02T12:20:09Z</time>
      </trkpt>
      <trkpt lat="42.86133477" lon="13.54612019">
        <ele>260.00000</ele>
        <time>2024-02-02T12:20:10Z</time>
      </trkpt>
      <trkpt lat="42.86135824" lon="13.54609983">
        <ele>260.00000</ele>
        <time>2024-02-02T12:20:11Z</time>
      </trkpt>
      <trkpt lat="42.86138079" lon="13.54608281">
        <ele>260.00000</ele>
        <time>2024-02-02T12:20:12Z</time>
      </trkpt>
      <trkpt lat="42.86140409" lon="13.54606680">
        <ele>260.00000</ele>
        <time>2024-02-02T12:20:13Z</time>
      </trkpt>
      <trkpt lat="42.86142714" lon="13.54604668">
        <ele>261.00000</ele>
        <time>2024-02-02T12:20:14Z</time>
      </trkpt>
      <trkpt lat="42.86145195" lon="13.54602565">
        <ele>262.00000</ele>
        <time>2024-02-02T12:20:15Z</time>
      </trkpt>
      <trkpt lat="42.86147869" lon="13.54600461">
        <ele>263.00000</ele>
        <time>2024-02-02T12:20:16Z</time>
      </trkpt>
      <trkpt lat="42.86150107" lon="13.54598491">
        <ele>264.00000</ele>
        <time>2024-02-02T12:20:17Z</time>
      </trkpt>
      <trkpt lat="42.86152462" lon="13.54596773">
        <ele>265.00000</ele>
        <time>2024-02-02T12:20:18Z</time>
      </trkpt>
      <trkpt lat="42.86154742" lon="13.54595163">
        <ele>266.00000</ele>
        <time>2024-02-02T12:20:19Z</time>
      </trkpt>
      <trkpt lat="42.86157189" lon="13.54593898">
        <ele>266.00000</ele>
        <time>2024-02-02T12:20:20Z</time>
      </trkpt>
      <trkpt lat="42.86159729" lon="13.54593127">
        <ele>267.00000</ele>
        <time>2024-02-02T12:20:21Z</time>
      </trkpt>
      <trkpt lat="42.86162336" lon="13.54592498">
        <ele>267.00000</ele>
        <time>2024-02-02T12:20:22Z</time>
      </trkpt>
      <trkpt lat="42.86164909" lon="13.54592490">
        <ele>267.00000</ele>
        <time>2024-02-02T12:20:23Z</time>
      </trkpt>
      <trkpt lat="42.86167499" lon="13.54593378">
        <ele>268.00000</ele>
        <time>2024-02-02T12:20:24Z</time>
      </trkpt>
      <trkpt lat="42.86169972" lon="13.54595088">
        <ele>268.00000</ele>
        <time>2024-02-02T12:20:25Z</time>
      </trkpt>
      <trkpt lat="42.86171975" lon="13.54597359">
        <ele>268.00000</ele>
        <time>2024-02-02T12:20:26Z</time>
      </trkpt>
      <trkpt lat="42.86173308" lon="13.54599941">
        <ele>268.00000</ele>
        <time>2024-02-02T12:20:27Z</time>
      </trkpt>
      <trkpt lat="42.86174288" lon="13.54602959">
        <ele>268.00000</ele>
        <time>2024-02-02T12:20:28Z</time>
      </trkpt>
      <trkpt lat="42.86174682" lon="13.54606345">
        <ele>268.00000</ele>
        <time>2024-02-02T12:20:29Z</time>
      </trkpt>
      <trkpt lat="42.86174749" lon="13.54609949">
        <ele>267.00000</ele>
        <time>2024-02-02T12:20:30Z</time>
      </trkpt>
      <trkpt lat="42.86174280" lon="13.54613687">
        <ele>266.00000</ele>
        <time>2024-02-02T12:20:31Z</time>
      </trkpt>
      <trkpt lat="42.86174297" lon="13.54617501">
        <ele>266.00000</ele>
        <time>2024-02-02T12:20:32Z</time>
      </trkpt>
      <trkpt lat="42.86174532" lon="13.54620343">
        <ele>265.00000</ele>
        <time>2024-02-02T12:20:33Z</time>
      </trkpt>
      <trkpt lat="42.86174171" lon="13.54624223">
        <ele>264.00000</ele>
        <time>2024-02-02T12:20:34Z</time>
      </trkpt>
      <trkpt lat="42.86173350" lon="13.54628129">
        <ele>263.00000</ele>
        <time>2024-02-02T12:20:35Z</time>
      </trkpt>
      <trkpt lat="42.86172545" lon="13.54631935">
        <ele>262.00000</ele>
        <time>2024-02-02T12:20:36Z</time>
      </trkpt>
      <trkpt lat="42.86172235" lon="13.54635857">
        <ele>262.00000</ele>
        <time>2024-02-02T12:20:37Z</time>
      </trkpt>
      <trkpt lat="42.86171900" lon="13.54639931">
        <ele>261.00000</ele>
        <time>2024-02-02T12:20:38Z</time>
      </trkpt>
      <trkpt lat="42.86171573" lon="13.54644114">
        <ele>261.00000</ele>
        <time>2024-02-02T12:20:39Z</time>
      </trkpt>
      <trkpt lat="42.86171715" lon="13.54648238">
        <ele>260.00000</ele>
        <time>2024-02-02T12:20:40Z</time>
      </trkpt>
      <trkpt lat="42.86172503" lon="13.54653116">
        <ele>260.00000</ele>
        <time>2024-02-02T12:20:41Z</time>
      </trkpt>
      <trkpt lat="42.86173475" lon="13.54656385">
        <ele>260.00000</ele>
        <time>2024-02-02T12:20:42Z</time>
      </trkpt>
      <trkpt lat="42.86174967" lon="13.54659830">
        <ele>260.00000</ele>
        <time>2024-02-02T12:20:43Z</time>
      </trkpt>
      <trkpt lat="42.86176535" lon="13.54663224">
        <ele>259.00000</ele>
        <time>2024-02-02T12:20:44Z</time>
      </trkpt>
      <trkpt lat="42.86178245" lon="13.54666535">
        <ele>259.00000</ele>
        <time>2024-02-02T12:20:45Z</time>
      </trkpt>
      <trkpt lat="42.86180307" lon="13.54669209">
        <ele>260.00000</ele>
        <time>2024-02-02T12:20:46Z</time>
      </trkpt>
      <trkpt lat="42.86182905" lon="13.54671212">
        <ele>260.00000</ele>
        <time>2024-02-02T12:20:47Z</time>
      </trkpt>
      <trkpt lat="42.86185864" lon="13.54672461">
        <ele>260.00000</ele>
        <time>2024-02-02T12:20:48Z</time>
      </trkpt>
      <trkpt lat="42.86188948" lon="13.54672939">
        <ele>261.00000</ele>
        <time>2024-02-02T12:20:49Z</time>
      </trkpt>
      <trkpt lat="42.86191932" lon="13.54672864">
        <ele>262.00000</ele>
        <time>2024-02-02T12:20:50Z</time>
      </trkpt>
      <trkpt lat="42.86195092" lon="13.54672185">
        <ele>262.00000</ele>
        <time>2024-02-02T12:20:51Z</time>
      </trkpt>
      <trkpt lat="42.86198277" lon="13.54671095">
        <ele>263.00000</ele>
        <time>2024-02-02T12:20:52Z</time>
      </trkpt>
      <trkpt lat="42.86200759" lon="13.54669829">
        <ele>263.00000</ele>
        <time>2024-02-02T12:20:53Z</time>
      </trkpt>
      <trkpt lat="42.86203256" lon="13.54668329">
        <ele>264.00000</ele>
        <time>2024-02-02T12:20:54Z</time>
      </trkpt>
      <trkpt lat="42.86205712" lon="13.54666485">
        <ele>264.00000</ele>
        <time>2024-02-02T12:20:55Z</time>
      </trkpt>
      <trkpt lat="42.86208126" lon="13.54664281">
        <ele>265.00000</ele>
        <time>2024-02-02T12:20:56Z</time>
      </trkpt>
      <trkpt lat="42.86209844" lon="13.54662395">
        <ele>266.00000</ele>
        <time>2024-02-02T12:20:57Z</time>
      </trkpt>
      <trkpt lat="42.86212317" lon="13.54659779">
        <ele>267.00000</ele>
        <time>2024-02-02T12:20:58Z</time>
      </trkpt>
      <trkpt lat="42.86214044" lon="13.54657609">
        <ele>267.00000</ele>
        <time>2024-02-02T12:20:59Z</time>
      </trkpt>
      <trkpt lat="42.86215628" lon="13.54655580">
        <ele>268.00000</ele>
        <time>2024-02-02T12:21:00Z</time>
      </trkpt>
      <trkpt lat="42.86217413" lon="13.54653233">
        <ele>269.00000</ele>
        <time>2024-02-02T12:21:01Z</time>
      </trkpt>
      <trkpt lat="42.86219257" lon="13.54650819">
        <ele>270.00000</ele>
        <time>2024-02-02T12:21:02Z</time>
      </trkpt>
      <trkpt lat="42.86221001" lon="13.54648757">
        <ele>271.00000</ele>
        <time>2024-02-02T12:21:03Z</time>
      </trkpt>
      <trkpt lat="42.86222660" lon="13.54646729">
        <ele>272.00000</ele>
        <time>2024-02-02T12:21:04Z</time>
      </trkpt>
      <trkpt lat="42.86224027" lon="13.54644726">
        <ele>272.00000</ele>
        <time>2024-02-02T12:21:05Z</time>
      </trkpt>
      <trkpt lat="42.86225141" lon="13.54643250">
        <ele>273.00000</ele>
        <time>2024-02-02T12:21:06Z</time>
      </trkpt>
      <trkpt lat="42.86226424" lon="13.54641473">
        <ele>273.00000</ele>
        <time>2024-02-02T12:21:07Z</time>
      </trkpt>
      <trkpt lat="42.86228109" lon="13.54639713">
        <ele>274.00000</ele>
        <time>2024-02-02T12:21:08Z</time>
      </trkpt>
      <trkpt lat="42.86229684" lon="13.54638397">
        <ele>274.00000</ele>
        <time>2024-02-02T12:21:09Z</time>
      </trkpt>
      <trkpt lat="42.86231227" lon="13.54637333">
        <ele>274.00000</ele>
        <time>2024-02-02T12:21:10Z</time>
      </trkpt>
      <trkpt lat="42.86232409" lon="13.54636436">
        <ele>274.00000</ele>
        <time>2024-02-02T12:21:11Z</time>
      </trkpt>
      <trkpt lat="42.86233850" lon="13.54635489">
        <ele>274.00000</ele>
        <time>2024-02-02T12:21:12Z</time>
      </trkpt>
      <trkpt lat="42.86235728" lon="13.54634215">
        <ele>274.00000</ele>
        <time>2024-02-02T12:21:13Z</time>
      </trkpt>
      <trkpt lat="42.86237496" lon="13.54633083">
        <ele>275.00000</ele>
        <time>2024-02-02T12:21:14Z</time>
      </trkpt>
      <trkpt lat="42.86239164" lon="13.54631884">
        <ele>275.00000</ele>
        <time>2024-02-02T12:21:15Z</time>
      </trkpt>
      <trkpt lat="42.86240413" lon="13.54630879">
        <ele>275.00000</ele>
        <time>2024-02-02T12:21:16Z</time>
      </trkpt>
      <trkpt lat="42.86242308" lon="13.54629370">
        <ele>275.00000</ele>
        <time>2024-02-02T12:21:17Z</time>
      </trkpt>
      <trkpt lat="42.86243322" lon="13.54628372">
        <ele>276.00000</ele>
        <time>2024-02-02T12:21:18Z</time>
      </trkpt>
      <trkpt lat="42.86244864" lon="13.54626704">
        <ele>276.00000</ele>
        <time>2024-02-02T12:21:19Z</time>
      </trkpt>
      <trkpt lat="42.86246490" lon="13.54625162">
        <ele>277.00000</ele>
        <time>2024-02-02T12:21:20Z</time>
      </trkpt>
      <trkpt lat="42.86248016" lon="13.54623980">
        <ele>277.00000</ele>
        <time>2024-02-02T12:21:21Z</time>
      </trkpt>
      <trkpt lat="42.86249952" lon="13.54622455">
        <ele>277.00000</ele>
        <time>2024-02-02T12:21:22Z</time>
      </trkpt>
      <trkpt lat="42.86252215" lon="13.54620636">
        <ele>278.00000</ele>
        <time>2024-02-02T12:21:23Z</time>
      </trkpt>
      <trkpt lat="42.86254025" lon="13.54619236">
        <ele>278.00000</ele>
        <time>2024-02-02T12:21:24Z</time>
      </trkpt>
      <trkpt lat="42.86255442" lon="13.54617870">
        <ele>278.00000</ele>
        <time>2024-02-02T12:21:25Z</time>
      </trkpt>
      <trkpt lat="42.86257118" lon="13.54615691">
        <ele>279.00000</ele>
        <time>2024-02-02T12:21:26Z</time>
      </trkpt>
      <trkpt lat="42.86258778" lon="13.54613478">
        <ele>280.00000</ele>
        <time>2024-02-02T12:21:27Z</time>
      </trkpt>
      <trkpt lat="42.86260664" lon="13.54611156">
        <ele>280.00000</ele>
        <time>2024-02-02T12:21:28Z</time>
      </trkpt>
      <trkpt lat="42.86262064" lon="13.54609496">
        <ele>281.00000</ele>
        <time>2024-02-02T12:21:29Z</time>
      </trkpt>
      <trkpt lat="42.86263447" lon="13.54607200">
        <ele>281.00000</ele>
        <time>2024-02-02T12:21:30Z</time>
      </trkpt>
      <trkpt lat="42.86264494" lon="13.54604409">
        <ele>282.00000</ele>
        <time>2024-02-02T12:21:31Z</time>
      </trkpt>
      <trkpt lat="42.86265039" lon="13.54601500">
        <ele>282.00000</ele>
        <time>2024-02-02T12:21:32Z</time>
      </trkpt>
      <trkpt lat="42.86264897" lon="13.54598131">
        <ele>283.00000</ele>
        <time>2024-02-02T12:21:33Z</time>
      </trkpt>
      <trkpt lat="42.86264293" lon="13.54595725">
        <ele>284.00000</ele>
        <time>2024-02-02T12:21:34Z</time>
      </trkpt>
      <trkpt lat="42.86263313" lon="13.54593655">
        <ele>284.00000</ele>
        <time>2024-02-02T12:21:35Z</time>
      </trkpt>
      <trkpt lat="42.86261762" lon="13.54592381">
        <ele>285.00000</ele>
        <time>2024-02-02T12:21:36Z</time>
      </trkpt>
      <trkpt lat="42.86259977" lon="13.54591844">
        <ele>285.00000</ele>
        <time>2024-02-02T12:21:37Z</time>
      </trkpt>
      <trkpt lat="42.86258367" lon="13.54591283">
        <ele>285.00000</ele>
        <time>2024-02-02T12:21:38Z</time>
      </trkpt>
      <trkpt lat="42.86256884" lon="13.54590587">
        <ele>285.00000</ele>
        <time>2024-02-02T12:21:39Z</time>
      </trkpt>
      <trkpt lat="42.86254956" lon="13.54589791">
        <ele>286.00000</ele>
        <time>2024-02-02T12:21:40Z</time>
      </trkpt>
      <trkpt lat="42.86252852" lon="13.54589045">
        <ele>286.00000</ele>
        <time>2024-02-02T12:21:41Z</time>
      </trkpt>
      <trkpt lat="42.86250606" lon="13.54588039">
        <ele>286.00000</ele>
        <time>2024-02-02T12:21:42Z</time>
      </trkpt>
      <trkpt lat="42.86248032" lon="13.54586807">
        <ele>287.00000</ele>
        <time>2024-02-02T12:21:43Z</time>
      </trkpt>
      <trkpt lat="42.86245585" lon="13.54584996">
        <ele>287.00000</ele>
        <time>2024-02-02T12:21:44Z</time>
      </trkpt>
      <trkpt lat="42.86243515" lon="13.54583001">
        <ele>287.00000</ele>
        <time>2024-02-02T12:21:45Z</time>
      </trkpt>
      <trkpt lat="42.86242014" lon="13.54580227">
        <ele>287.00000</ele>
        <time>2024-02-02T12:21:46Z</time>
      </trkpt>
      <trkpt lat="42.86241101" lon="13.54577201">
        <ele>288.00000</ele>
        <time>2024-02-02T12:21:47Z</time>
      </trkpt>
      <trkpt lat="42.86240824" lon="13.54573940">
        <ele>289.00000</ele>
        <time>2024-02-02T12:21:48Z</time>
      </trkpt>
      <trkpt lat="42.86240723" lon="13.54570487">
        <ele>290.00000</ele>
        <time>2024-02-02T12:21:49Z</time>
      </trkpt>
      <trkpt lat="42.86241008" lon="13.54566874">
        <ele>291.00000</ele>
        <time>2024-02-02T12:21:50Z</time>
      </trkpt>
      <trkpt lat="42.86241654" lon="13.54563388">
        <ele>291.00000</ele>
        <time>2024-02-02T12:21:51Z</time>
      </trkpt>
      <trkpt lat="42.86241939" lon="13.54559775">
        <ele>292.00000</ele>
        <time>2024-02-02T12:21:52Z</time>
      </trkpt>
      <trkpt lat="42.86242098" lon="13.54556062">
        <ele>293.00000</ele>
        <time>2024-02-02T12:21:53Z</time>
      </trkpt>
      <trkpt lat="42.86242324" lon="13.54552533">
        <ele>294.00000</ele>
        <time>2024-02-02T12:21:54Z</time>
      </trkpt>
      <trkpt lat="42.86242450" lon="13.54549122">
        <ele>295.00000</ele>
        <time>2024-02-02T12:21:55Z</time>
      </trkpt>
      <trkpt lat="42.86242660" lon="13.54545584">
        <ele>297.00000</ele>
        <time>2024-02-02T12:21:56Z</time>
      </trkpt>
      <trkpt lat="42.86242836" lon="13.54541930">
        <ele>298.00000</ele>
        <time>2024-02-02T12:21:57Z</time>
      </trkpt>
      <trkpt lat="42.86242727" lon="13.54538225">
        <ele>299.00000</ele>
        <time>2024-02-02T12:21:58Z</time>
      </trkpt>
      <trkpt lat="42.86242769" lon="13.54534705">
        <ele>300.00000</ele>
        <time>2024-02-02T12:21:59Z</time>
      </trkpt>
      <trkpt lat="42.86242811" lon="13.54531260">
        <ele>301.00000</ele>
        <time>2024-02-02T12:22:00Z</time>
      </trkpt>
      <trkpt lat="42.86242559" lon="13.54528234">
        <ele>301.00000</ele>
        <time>2024-02-02T12:22:01Z</time>
      </trkpt>
      <trkpt lat="42.86242727" lon="13.54525392">
        <ele>303.00000</ele>
        <time>2024-02-02T12:22:02Z</time>
      </trkpt>
      <trkpt lat="42.86242693" lon="13.54523247">
        <ele>303.00000</ele>
        <time>2024-02-02T12:22:03Z</time>
      </trkpt>
      <trkpt lat="42.86242383" lon="13.54521268">
        <ele>304.00000</ele>
        <time>2024-02-02T12:22:04Z</time>
      </trkpt>
      <trkpt lat="42.86242626" lon="13.54518871">
        <ele>305.00000</ele>
        <time>2024-02-02T12:22:05Z</time>
      </trkpt>
      <trkpt lat="42.86242743" lon="13.54516373">
        <ele>306.00000</ele>
        <time>2024-02-02T12:22:06Z</time>
      </trkpt>
      <trkpt lat="42.86242559" lon="13.54513951">
        <ele>307.00000</ele>
        <time>2024-02-02T12:22:07Z</time>
      </trkpt>
      <trkpt lat="42.86242232" lon="13.54511529">
        <ele>308.00000</ele>
        <time>2024-02-02T12:22:08Z</time>
      </trkpt>
      <trkpt lat="42.86241562" lon="13.54508704">
        <ele>309.00000</ele>
        <time>2024-02-02T12:22:09Z</time>
      </trkpt>
      <trkpt lat="42.86240061" lon="13.54506533">
        <ele>309.00000</ele>
        <time>2024-02-02T12:22:10Z</time>
      </trkpt>
      <trkpt lat="42.86238729" lon="13.54504597">
        <ele>309.00000</ele>
        <time>2024-02-02T12:22:11Z</time>
      </trkpt>
      <trkpt lat="42.86237513" lon="13.54502803">
        <ele>309.00000</ele>
        <time>2024-02-02T12:22:12Z</time>
      </trkpt>
      <trkpt lat="42.86236532" lon="13.54501051">
        <ele>309.00000</ele>
        <time>2024-02-02T12:22:13Z</time>
      </trkpt>
      <trkpt lat="42.86235384" lon="13.54499685">
        <ele>309.00000</ele>
        <time>2024-02-02T12:22:14Z</time>
      </trkpt>
      <trkpt lat="42.86233733" lon="13.54498369">
        <ele>309.00000</ele>
        <time>2024-02-02T12:22:15Z</time>
      </trkpt>
      <trkpt lat="42.86232115" lon="13.54497221">
        <ele>308.00000</ele>
        <time>2024-02-02T12:22:16Z</time>
      </trkpt>
      <trkpt lat="42.86230430" lon="13.54496190">
        <ele>308.00000</ele>
        <time>2024-02-02T12:22:17Z</time>
      </trkpt>
      <trkpt lat="42.86228955" lon="13.54495234">
        <ele>307.00000</ele>
        <time>2024-02-02T12:22:18Z</time>
      </trkpt>
      <trkpt lat="42.86226558" lon="13.54493927">
        <ele>307.00000</ele>
        <time>2024-02-02T12:22:19Z</time>
      </trkpt>
      <trkpt lat="42.86225049" lon="13.54493231">
        <ele>306.00000</ele>
        <time>2024-02-02T12:22:20Z</time>
      </trkpt>
      <trkpt lat="42.86222945" lon="13.54492762">
        <ele>305.00000</ele>
        <time>2024-02-02T12:22:21Z</time>
      </trkpt>
      <trkpt lat="42.86220741" lon="13.54492217">
        <ele>305.00000</ele>
        <time>2024-02-02T12:22:22Z</time>
      </trkpt>
      <trkpt lat="42.86218679" lon="13.54491546">
        <ele>304.00000</ele>
        <time>2024-02-02T12:22:23Z</time>
      </trkpt>
      <trkpt lat="42.86216684" lon="13.54490339">
        <ele>304.00000</ele>
        <time>2024-02-02T12:22:24Z</time>
      </trkpt>
      <trkpt lat="42.86214832" lon="13.54489090">
        <ele>304.00000</ele>
        <time>2024-02-02T12:22:25Z</time>
      </trkpt>
      <trkpt lat="42.86212719" lon="13.54488168">
        <ele>304.00000</ele>
        <time>2024-02-02T12:22:26Z</time>
      </trkpt>
      <trkpt lat="42.86210683" lon="13.54487121">
        <ele>304.00000</ele>
        <time>2024-02-02T12:22:27Z</time>
      </trkpt>
      <trkpt lat="42.86208604" lon="13.54485989">
        <ele>303.00000</ele>
        <time>2024-02-02T12:22:28Z</time>
      </trkpt>
      <trkpt lat="42.86206576" lon="13.54484522">
        <ele>303.00000</ele>
        <time>2024-02-02T12:22:29Z</time>
      </trkpt>
      <trkpt lat="42.86204514" lon="13.54482469">
        <ele>303.00000</ele>
        <time>2024-02-02T12:22:30Z</time>
      </trkpt>
      <trkpt lat="42.86202452" lon="13.54480306">
        <ele>303.00000</ele>
        <time>2024-02-02T12:22:31Z</time>
      </trkpt>
      <trkpt lat="42.86199769" lon="13.54477473">
        <ele>304.00000</ele>
        <time>2024-02-02T12:22:32Z</time>
      </trkpt>
      <trkpt lat="42.86197439" lon="13.54474707">
        <ele>304.00000</ele>
        <time>2024-02-02T12:22:33Z</time>
      </trkpt>
      <trkpt lat="42.86195344" lon="13.54472436">
        <ele>304.00000</ele>
        <time>2024-02-02T12:22:34Z</time>
      </trkpt>
      <trkpt lat="42.86192905" lon="13.54469569">
        <ele>304.00000</ele>
        <time>2024-02-02T12:22:35Z</time>
      </trkpt>
      <trkpt lat="42.86190516" lon="13.54466836">
        <ele>305.00000</ele>
        <time>2024-02-02T12:22:36Z</time>
      </trkpt>
      <trkpt lat="42.86188035" lon="13.54464263">
        <ele>306.00000</ele>
        <time>2024-02-02T12:22:37Z</time>
      </trkpt>
      <trkpt lat="42.86185378" lon="13.54461849">
        <ele>306.00000</ele>
        <time>2024-02-02T12:22:38Z</time>
      </trkpt>
      <trkpt lat="42.86182888" lon="13.54459343">
        <ele>307.00000</ele>
        <time>2024-02-02T12:22:39Z</time>
      </trkpt>
      <trkpt lat="42.86180298" lon="13.54456770">
        <ele>307.00000</ele>
        <time>2024-02-02T12:22:40Z</time>
      </trkpt>
      <trkpt lat="42.86177624" lon="13.54454582">
        <ele>308.00000</ele>
        <time>2024-02-02T12:22:41Z</time>
      </trkpt>
      <trkpt lat="42.86175118" lon="13.54452436">
        <ele>308.00000</ele>
        <time>2024-02-02T12:22:42Z</time>
      </trkpt>
      <trkpt lat="42.86172403" lon="13.54450425">
        <ele>309.00000</ele>
        <time>2024-02-02T12:22:43Z</time>
      </trkpt>
      <trkpt lat="42.86169477" lon="13.54448765">
        <ele>309.00000</ele>
        <time>2024-02-02T12:22:44Z</time>
      </trkpt>
      <trkpt lat="42.86166409" lon="13.54447583">
        <ele>310.00000</ele>
        <time>2024-02-02T12:22:45Z</time>
      </trkpt>
      <trkpt lat="42.86163065" lon="13.54446846">
        <ele>311.00000</ele>
        <time>2024-02-02T12:22:46Z</time>
      </trkpt>
      <trkpt lat="42.86159846" lon="13.54446385">
        <ele>312.00000</ele>
        <time>2024-02-02T12:22:47Z</time>
      </trkpt>
      <trkpt lat="42.86156988" lon="13.54445991">
        <ele>314.00000</ele>
        <time>2024-02-02T12:22:48Z</time>
      </trkpt>
      <trkpt lat="42.86154398" lon="13.54446192">
        <ele>314.00000</ele>
        <time>2024-02-02T12:22:49Z</time>
      </trkpt>
      <trkpt lat="42.86151548" lon="13.54446586">
        <ele>315.00000</ele>
        <time>2024-02-02T12:22:50Z</time>
      </trkpt>
      <trkpt lat="42.86148791" lon="13.54447675">
        <ele>316.00000</ele>
        <time>2024-02-02T12:22:51Z</time>
      </trkpt>
      <trkpt lat="42.86146125" lon="13.54449033">
        <ele>316.00000</ele>
        <time>2024-02-02T12:22:52Z</time>
      </trkpt>
      <trkpt lat="42.86143661" lon="13.54450684">
        <ele>317.00000</ele>
        <time>2024-02-02T12:22:53Z</time>
      </trkpt>
      <trkpt lat="42.86141314" lon="13.54452872">
        <ele>317.00000</ele>
        <time>2024-02-02T12:22:54Z</time>
      </trkpt>
      <trkpt lat="42.86139093" lon="13.54455244">
        <ele>317.00000</ele>
        <time>2024-02-02T12:22:55Z</time>
      </trkpt>
      <trkpt lat="42.86136981" lon="13.54457616">
        <ele>317.00000</ele>
        <time>2024-02-02T12:22:56Z</time>
      </trkpt>
      <trkpt lat="42.86134860" lon="13.54460030">
        <ele>317.00000</ele>
        <time>2024-02-02T12:22:57Z</time>
      </trkpt>
      <trkpt lat="42.86132647" lon="13.54462461">
        <ele>317.00000</ele>
        <time>2024-02-02T12:22:58Z</time>
      </trkpt>
      <trkpt lat="42.86130401" lon="13.54464917">
        <ele>317.00000</ele>
        <time>2024-02-02T12:22:59Z</time>
      </trkpt>
      <trkpt lat="42.86128238" lon="13.54467297">
        <ele>317.00000</ele>
        <time>2024-02-02T12:23:00Z</time>
      </trkpt>
      <trkpt lat="42.86125950" lon="13.54469519">
        <ele>317.00000</ele>
        <time>2024-02-02T12:23:01Z</time>
      </trkpt>
      <trkpt lat="42.86123444" lon="13.54471681">
        <ele>318.00000</ele>
        <time>2024-02-02T12:23:02Z</time>
      </trkpt>
      <trkpt lat="42.86120820" lon="13.54473366">
        <ele>318.00000</ele>
        <time>2024-02-02T12:23:03Z</time>
      </trkpt>
      <trkpt lat="42.86118214" lon="13.54475134">
        <ele>318.00000</ele>
        <time>2024-02-02T12:23:04Z</time>
      </trkpt>
      <trkpt lat="42.86115900" lon="13.54477641">
        <ele>318.00000</ele>
        <time>2024-02-02T12:23:05Z</time>
      </trkpt>
      <trkpt lat="42.86113637" lon="13.54480038">
        <ele>317.00000</ele>
        <time>2024-02-02T12:23:06Z</time>
      </trkpt>
      <trkpt lat="42.86111265" lon="13.54481899">
        <ele>317.00000</ele>
        <time>2024-02-02T12:23:07Z</time>
      </trkpt>
      <trkpt lat="42.86108683" lon="13.54483818">
        <ele>317.00000</ele>
        <time>2024-02-02T12:23:08Z</time>
      </trkpt>
      <trkpt lat="42.86105909" lon="13.54485612">
        <ele>316.00000</ele>
        <time>2024-02-02T12:23:09Z</time>
      </trkpt>
      <trkpt lat="42.86103327" lon="13.54487808">
        <ele>315.00000</ele>
        <time>2024-02-02T12:23:10Z</time>
      </trkpt>
      <trkpt lat="42.86100838" lon="13.54489937">
        <ele>315.00000</ele>
        <time>2024-02-02T12:23:11Z</time>
      </trkpt>
      <trkpt lat="42.86098457" lon="13.54492200">
        <ele>314.00000</ele>
        <time>2024-02-02T12:23:12Z</time>
      </trkpt>
      <trkpt lat="42.86096546" lon="13.54494136">
        <ele>314.00000</ele>
        <time>2024-02-02T12:23:13Z</time>
      </trkpt>
      <trkpt lat="42.86093504" lon="13.54496500">
        <ele>313.00000</ele>
        <time>2024-02-02T12:23:14Z</time>
      </trkpt>
      <trkpt lat="42.86090947" lon="13.54498528">
        <ele>313.00000</ele>
        <time>2024-02-02T12:23:15Z</time>
      </trkpt>
      <trkpt lat="42.86088248" lon="13.54500314">
        <ele>313.00000</ele>
        <time>2024-02-02T12:23:16Z</time>
      </trkpt>
      <trkpt lat="42.86085231" lon="13.54502133">
        <ele>313.00000</ele>
        <time>2024-02-02T12:23:17Z</time>
      </trkpt>
      <trkpt lat="42.86082146" lon="13.54503608">
        <ele>314.00000</ele>
        <time>2024-02-02T12:23:18Z</time>
      </trkpt>
      <trkpt lat="42.86079573" lon="13.54504379">
        <ele>314.00000</ele>
        <time>2024-02-02T12:23:19Z</time>
      </trkpt>
      <trkpt lat="42.86075692" lon="13.54505410">
        <ele>314.00000</ele>
        <time>2024-02-02T12:23:20Z</time>
      </trkpt>
      <trkpt lat="42.86072691" lon="13.54506391">
        <ele>315.00000</ele>
        <time>2024-02-02T12:23:21Z</time>
      </trkpt>
      <trkpt lat="42.86069682" lon="13.54507019">
        <ele>315.00000</ele>
        <time>2024-02-02T12:23:22Z</time>
      </trkpt>
      <trkpt lat="42.86067444" lon="13.54507371">
        <ele>315.00000</ele>
        <time>2024-02-02T12:23:23Z</time>
      </trkpt>
      <trkpt lat="42.86064502" lon="13.54507782">
        <ele>316.00000</ele>
        <time>2024-02-02T12:23:24Z</time>
      </trkpt>
      <trkpt lat="42.86060638" lon="13.54508151">
        <ele>316.00000</ele>
        <time>2024-02-02T12:23:25Z</time>
      </trkpt>
      <trkpt lat="42.86057562" lon="13.54508453">
        <ele>317.00000</ele>
        <time>2024-02-02T12:23:26Z</time>
      </trkpt>
      <trkpt lat="42.86054754" lon="13.54508863">
        <ele>318.00000</ele>
        <time>2024-02-02T12:23:27Z</time>
      </trkpt>
      <trkpt lat="42.86052851" lon="13.54509484">
        <ele>318.00000</ele>
        <time>2024-02-02T12:23:28Z</time>
      </trkpt>
      <trkpt lat="42.86050320" lon="13.54510213">
        <ele>319.00000</ele>
        <time>2024-02-02T12:23:29Z</time>
      </trkpt>
      <trkpt lat="42.86046984" lon="13.54511688">
        <ele>319.00000</ele>
        <time>2024-02-02T12:23:30Z</time>
      </trkpt>
      <trkpt lat="42.86044394" lon="13.54512954">
        <ele>320.00000</ele>
        <time>2024-02-02T12:23:31Z</time>
      </trkpt>
      <trkpt lat="42.86041947" lon="13.54513892">
        <ele>320.00000</ele>
        <time>2024-02-02T12:23:32Z</time>
      </trkpt>
      <trkpt lat="42.86040002" lon="13.54514395">
        <ele>321.00000</ele>
        <time>2024-02-02T12:23:33Z</time>
      </trkpt>
      <trkpt lat="42.86037420" lon="13.54514655">
        <ele>322.00000</ele>
        <time>2024-02-02T12:23:34Z</time>
      </trkpt>
      <trkpt lat="42.86034436" lon="13.54514261">
        <ele>323.00000</ele>
        <time>2024-02-02T12:23:35Z</time>
      </trkpt>
      <trkpt lat="42.86032307" lon="13.54512568">
        <ele>324.00000</ele>
        <time>2024-02-02T12:23:36Z</time>
      </trkpt>
      <trkpt lat="42.86030698" lon="13.54510246">
        <ele>325.00000</ele>
        <time>2024-02-02T12:23:37Z</time>
      </trkpt>
      <trkpt lat="42.86029231" lon="13.54507220">
        <ele>326.00000</ele>
        <time>2024-02-02T12:23:38Z</time>
      </trkpt>
      <trkpt lat="42.86028745" lon="13.54503993">
        <ele>327.00000</ele>
        <time>2024-02-02T12:23:39Z</time>
      </trkpt>
      <trkpt lat="42.86028938" lon="13.54500071">
        <ele>328.00000</ele>
        <time>2024-02-02T12:23:40Z</time>
      </trkpt>
      <trkpt lat="42.86029499" lon="13.54496718">
        <ele>328.00000</ele>
        <time>2024-02-02T12:23:41Z</time>
      </trkpt>
      <trkpt lat="42.86030296" lon="13.54493340">
        <ele>328.00000</ele>
        <time>2024-02-02T12:23:42Z</time>
      </trkpt>
      <trkpt lat="42.86031042" lon="13.54490591">
        <ele>328.00000</ele>
        <time>2024-02-02T12:23:43Z</time>
      </trkpt>
      <trkpt lat="42.86031804" lon="13.54486978">
        <ele>328.00000</ele>
        <time>2024-02-02T12:23:44Z</time>
      </trkpt>
      <trkpt lat="42.86032383" lon="13.54482418">
        <ele>328.00000</ele>
        <time>2024-02-02T12:23:45Z</time>
      </trkpt>
      <trkpt lat="42.86032735" lon="13.54478814">
        <ele>328.00000</ele>
        <time>2024-02-02T12:23:46Z</time>
      </trkpt>
      <trkpt lat="42.86032978" lon="13.54475126">
        <ele>329.00000</ele>
        <time>2024-02-02T12:23:47Z</time>
      </trkpt>
      <trkpt lat="42.86033137" lon="13.54471882">
        <ele>329.00000</ele>
        <time>2024-02-02T12:23:48Z</time>
      </trkpt>
      <trkpt lat="42.86033858" lon="13.54467147">
        <ele>329.00000</ele>
        <time>2024-02-02T12:23:49Z</time>
      </trkpt>
      <trkpt lat="42.86034554" lon="13.54463157">
        <ele>329.00000</ele>
        <time>2024-02-02T12:23:50Z</time>
      </trkpt>
      <trkpt lat="42.86035568" lon="13.54459242">
        <ele>329.00000</ele>
        <time>2024-02-02T12:23:51Z</time>
      </trkpt>
      <trkpt lat="42.86036758" lon="13.54456158">
        <ele>329.00000</ele>
        <time>2024-02-02T12:23:52Z</time>
      </trkpt>
      <trkpt lat="42.86038476" lon="13.54452386">
        <ele>329.00000</ele>
        <time>2024-02-02T12:23:53Z</time>
      </trkpt>
      <trkpt lat="42.86041469" lon="13.54447784">
        <ele>329.00000</ele>
        <time>2024-02-02T12:23:54Z</time>
      </trkpt>
      <trkpt lat="42.86044704" lon="13.54444230">
        <ele>329.00000</ele>
        <time>2024-02-02T12:23:55Z</time>
      </trkpt>
      <trkpt lat="42.86048459" lon="13.54440869">
        <ele>328.00000</ele>
        <time>2024-02-02T12:23:56Z</time>
      </trkpt>
      <trkpt lat="42.86051737" lon="13.54438380">
        <ele>327.00000</ele>
        <time>2024-02-02T12:23:57Z</time>
      </trkpt>
      <trkpt lat="42.86055986" lon="13.54435270">
        <ele>327.00000</ele>
        <time>2024-02-02T12:23:58Z</time>
      </trkpt>
      <trkpt lat="42.86061393" lon="13.54431456">
        <ele>327.00000</ele>
        <time>2024-02-02T12:23:59Z</time>
      </trkpt>
      <trkpt lat="42.86065793" lon="13.54428330">
        <ele>327.00000</ele>
        <time>2024-02-02T12:24:00Z</time>
      </trkpt>
      <trkpt lat="42.86069112" lon="13.54425815">
        <ele>327.00000</ele>
        <time>2024-02-02T12:24:01Z</time>
      </trkpt>
      <trkpt lat="42.86073287" lon="13.54422572">
        <ele>328.00000</ele>
        <time>2024-02-02T12:24:02Z</time>
      </trkpt>
      <trkpt lat="42.86077159" lon="13.54419462">
        <ele>328.00000</ele>
        <time>2024-02-02T12:24:03Z</time>
      </trkpt>
      <trkpt lat="42.86081794" lon="13.54415983">
        <ele>328.00000</ele>
        <time>2024-02-02T12:24:04Z</time>
      </trkpt>
      <trkpt lat="42.86084661" lon="13.54413913">
        <ele>328.00000</ele>
        <time>2024-02-02T12:24:05Z</time>
      </trkpt>
      <trkpt lat="42.86088433" lon="13.54411030">
        <ele>327.00000</ele>
        <time>2024-02-02T12:24:06Z</time>
      </trkpt>
      <trkpt lat="42.86091391" lon="13.54408565">
        <ele>326.00000</ele>
        <time>2024-02-02T12:24:07Z</time>
      </trkpt>
      <trkpt lat="42.86093814" lon="13.54406319">
        <ele>325.00000</ele>
        <time>2024-02-02T12:24:08Z</time>
      </trkpt>
      <trkpt lat="42.86097301" lon="13.54403151">
        <ele>325.00000</ele>
        <time>2024-02-02T12:24:09Z</time>
      </trkpt>
      <trkpt lat="42.86099941" lon="13.54400594">
        <ele>324.00000</ele>
        <time>2024-02-02T12:24:10Z</time>
      </trkpt>
      <trkpt lat="42.86102707" lon="13.54398205">
        <ele>324.00000</ele>
        <time>2024-02-02T12:24:11Z</time>
      </trkpt>
      <trkpt lat="42.86105632" lon="13.54395741">
        <ele>323.00000</ele>
        <time>2024-02-02T12:24:12Z</time>
      </trkpt>
      <trkpt lat="42.86108725" lon="13.54393838">
        <ele>323.00000</ele>
        <time>2024-02-02T12:24:13Z</time>
      </trkpt>
      <trkpt lat="42.86111759" lon="13.54391609">
        <ele>323.00000</ele>
        <time>2024-02-02T12:24:14Z</time>
      </trkpt>
      <trkpt lat="42.86114651" lon="13.54389036">
        <ele>322.00000</ele>
        <time>2024-02-02T12:24:15Z</time>
      </trkpt>
      <trkpt lat="42.86117518" lon="13.54386521">
        <ele>322.00000</ele>
        <time>2024-02-02T12:24:16Z</time>
      </trkpt>
      <trkpt lat="42.86119689" lon="13.54384593">
        <ele>322.00000</ele>
        <time>2024-02-02T12:24:17Z</time>
      </trkpt>
      <trkpt lat="42.86122631" lon="13.54382473">
        <ele>321.00000</ele>
        <time>2024-02-02T12:24:18Z</time>
      </trkpt>
      <trkpt lat="42.86126436" lon="13.54380670">
        <ele>321.00000</ele>
        <time>2024-02-02T12:24:19Z</time>
      </trkpt>
      <trkpt lat="42.86129906" lon="13.54379799">
        <ele>321.00000</ele>
        <time>2024-02-02T12:24:20Z</time>
      </trkpt>
      <trkpt lat="42.86133896" lon="13.54379279">
        <ele>321.00000</ele>
        <time>2024-02-02T12:24:21Z</time>
      </trkpt>
      <trkpt lat="42.86137869" lon="13.54379279">
        <ele>321.00000</ele>
        <time>2024-02-02T12:24:22Z</time>
      </trkpt>
      <trkpt lat="42.86143401" lon="13.54380436">
        <ele>320.00000</ele>
        <time>2024-02-02T12:24:23Z</time>
      </trkpt>
      <trkpt lat="42.86151029" lon="13.54383110">
        <ele>318.00000</ele>
        <time>2024-02-02T12:24:24Z</time>
      </trkpt>
      <trkpt lat="42.86158589" lon="13.54386244">
        <ele>317.00000</ele>
        <time>2024-02-02T12:24:25Z</time>
      </trkpt>
      <trkpt lat="42.86166870" lon="13.54390276">
        <ele>315.00000</ele>
        <time>2024-02-02T12:24:26Z</time>
      </trkpt>
      <trkpt lat="42.86173752" lon="13.54393931">
        <ele>314.00000</ele>
        <time>2024-02-02T12:24:27Z</time>
      </trkpt>
      <trkpt lat="42.86182721" lon="13.54398809">
        <ele>312.00000</ele>
        <time>2024-02-02T12:24:28Z</time>
      </trkpt>
      <trkpt lat="42.86193466" lon="13.54404634">
        <ele>310.00000</ele>
        <time>2024-02-02T12:24:29Z</time>
      </trkpt>
      <trkpt lat="42.86202100" lon="13.54409697">
        <ele>311.00000</ele>
        <time>2024-02-02T12:24:30Z</time>
      </trkpt>
      <trkpt lat="42.86210532" lon="13.54414508">
        <ele>312.00000</ele>
        <time>2024-02-02T12:24:31Z</time>
      </trkpt>
      <trkpt lat="42.86218645" lon="13.54419001">
        <ele>313.00000</ele>
        <time>2024-02-02T12:24:32Z</time>
      </trkpt>
      <trkpt lat="42.86224991" lon="13.54422287">
        <ele>314.00000</ele>
        <time>2024-02-02T12:24:33Z</time>
      </trkpt>
      <trkpt lat="42.86234110" lon="13.54426980">
        <ele>316.00000</ele>
        <time>2024-02-02T12:24:34Z</time>
      </trkpt>
      <trkpt lat="42.86241352" lon="13.54430652">
        <ele>318.00000</ele>
        <time>2024-02-02T12:24:35Z</time>
      </trkpt>
      <trkpt lat="42.86246985" lon="13.54432948">
        <ele>319.00000</ele>
        <time>2024-02-02T12:24:36Z</time>
      </trkpt>
      <trkpt lat="42.86253707" lon="13.54435379">
        <ele>321.00000</ele>
        <time>2024-02-02T12:24:37Z</time>
      </trkpt>
      <trkpt lat="42.86261175" lon="13.54437265">
        <ele>322.00000</ele>
        <time>2024-02-02T12:24:38Z</time>
      </trkpt>
      <trkpt lat="42.86267093" lon="13.54437768">
        <ele>323.00000</ele>
        <time>2024-02-02T12:24:39Z</time>
      </trkpt>
      <trkpt lat="42.86272550" lon="13.54437491">
        <ele>323.00000</ele>
        <time>2024-02-02T12:24:40Z</time>
      </trkpt>
      <trkpt lat="42.86276640" lon="13.54437081">
        <ele>323.00000</ele>
        <time>2024-02-02T12:24:41Z</time>
      </trkpt>
      <trkpt lat="42.86281409" lon="13.54436410">
        <ele>323.00000</ele>
        <time>2024-02-02T12:24:42Z</time>
      </trkpt>
      <trkpt lat="42.86286665" lon="13.54435153">
        <ele>323.00000</ele>
        <time>2024-02-02T12:24:43Z</time>
      </trkpt>
      <trkpt lat="42.86290738" lon="13.54434130">
        <ele>323.00000</ele>
        <time>2024-02-02T12:24:44Z</time>
      </trkpt>
      <trkpt lat="42.86294736" lon="13.54432823">
        <ele>323.00000</ele>
        <time>2024-02-02T12:24:45Z</time>
      </trkpt>
      <trkpt lat="42.86297947" lon="13.54431414">
        <ele>323.00000</ele>
        <time>2024-02-02T12:24:46Z</time>
      </trkpt>
      <trkpt lat="42.86301928" lon="13.54429512">
        <ele>323.00000</ele>
        <time>2024-02-02T12:24:47Z</time>
      </trkpt>
      <trkpt lat="42.86306890" lon="13.54426888">
        <ele>324.00000</ele>
        <time>2024-02-02T12:24:48Z</time>
      </trkpt>
      <trkpt lat="42.86310763" lon="13.54424005">
        <ele>324.00000</ele>
        <time>2024-02-02T12:24:49Z</time>
      </trkpt>
      <trkpt lat="42.86314685" lon="13.54420744">
        <ele>325.00000</ele>
        <time>2024-02-02T12:24:50Z</time>
      </trkpt>
      <trkpt lat="42.86317887" lon="13.54417836">
        <ele>326.00000</ele>
        <time>2024-02-02T12:24:51Z</time>
      </trkpt>
      <trkpt lat="42.86321785" lon="13.54414165">
        <ele>326.00000</ele>
        <time>2024-02-02T12:24:52Z</time>
      </trkpt>
      <trkpt lat="42.86326797" lon="13.54409965">
        <ele>327.00000</ele>
        <time>2024-02-02T12:24:53Z</time>
      </trkpt>
      <trkpt lat="42.86331349" lon="13.54406327">
        <ele>328.00000</ele>
        <time>2024-02-02T12:24:54Z</time>
      </trkpt>
      <trkpt lat="42.86336160" lon="13.54402505">
        <ele>329.00000</ele>
        <time>2024-02-02T12:24:55Z</time>
      </trkpt>
      <trkpt lat="42.86340376" lon="13.54399505">
        <ele>330.00000</ele>
        <time>2024-02-02T12:24:56Z</time>
      </trkpt>
      <trkpt lat="42.86345782" lon="13.54396219">
        <ele>331.00000</ele>
        <time>2024-02-02T12:24:57Z</time>
      </trkpt>
      <trkpt lat="42.86352689" lon="13.54393470">
        <ele>333.00000</ele>
        <time>2024-02-02T12:24:58Z</time>
      </trkpt>
      <trkpt lat="42.86358992" lon="13.54391944">
        <ele>335.00000</ele>
        <time>2024-02-02T12:24:59Z</time>
      </trkpt>
      <trkpt lat="42.86365170" lon="13.54391014">
        <ele>336.00000</ele>
        <time>2024-02-02T12:25:00Z</time>
      </trkpt>
      <trkpt lat="42.86371096" lon="13.54390494">
        <ele>337.00000</ele>
        <time>2024-02-02T12:25:01Z</time>
      </trkpt>
      <trkpt lat="42.86375672" lon="13.54390494">
        <ele>337.00000</ele>
        <time>2024-02-02T12:25:02Z</time>
      </trkpt>
      <trkpt lat="42.86382428" lon="13.54390620">
        <ele>338.00000</ele>
        <time>2024-02-02T12:25:03Z</time>
      </trkpt>
      <trkpt lat="42.86387650" lon="13.54390745">
        <ele>339.00000</ele>
        <time>2024-02-02T12:25:04Z</time>
      </trkpt>
      <trkpt lat="42.86392729" lon="13.54391072">
        <ele>340.00000</ele>
        <time>2024-02-02T12:25:05Z</time>
      </trkpt>
      <trkpt lat="42.86397792" lon="13.54391676">
        <ele>340.00000</ele>
        <time>2024-02-02T12:25:06Z</time>
      </trkpt>
      <trkpt lat="42.86402687" lon="13.54392246">
        <ele>340.00000</ele>
        <time>2024-02-02T12:25:07Z</time>
      </trkpt>
      <trkpt lat="42.86407498" lon="13.54393193">
        <ele>341.00000</ele>
        <time>2024-02-02T12:25:08Z</time>
      </trkpt>
      <trkpt lat="42.86411982" lon="13.54394551">
        <ele>341.00000</ele>
        <time>2024-02-02T12:25:09Z</time>
      </trkpt>
      <trkpt lat="42.86416484" lon="13.54395833">
        <ele>341.00000</ele>
        <time>2024-02-02T12:25:10Z</time>
      </trkpt>
      <trkpt lat="42.86420742" lon="13.54397518">
        <ele>341.00000</ele>
        <time>2024-02-02T12:25:11Z</time>
      </trkpt>
      <trkpt lat="42.86424924" lon="13.54399295">
        <ele>341.00000</ele>
        <time>2024-02-02T12:25:12Z</time>
      </trkpt>
      <trkpt lat="42.86429232" lon="13.54400737">
        <ele>341.00000</ele>
        <time>2024-02-02T12:25:13Z</time>
      </trkpt>
      <trkpt lat="42.86433490" lon="13.54401868">
        <ele>341.00000</ele>
        <time>2024-02-02T12:25:14Z</time>
      </trkpt>
      <trkpt lat="42.86437732" lon="13.54402740">
        <ele>342.00000</ele>
        <time>2024-02-02T12:25:15Z</time>
      </trkpt>
      <trkpt lat="42.86442048" lon="13.54403947">
        <ele>342.00000</ele>
        <time>2024-02-02T12:25:16Z</time>
      </trkpt>
      <trkpt lat="42.86446239" lon="13.54405540">
        <ele>342.00000</ele>
        <time>2024-02-02T12:25:17Z</time>
      </trkpt>
      <trkpt lat="42.86450455" lon="13.54407073">
        <ele>341.00000</ele>
        <time>2024-02-02T12:25:18Z</time>
      </trkpt>
      <trkpt lat="42.86454554" lon="13.54408884">
        <ele>341.00000</ele>
        <time>2024-02-02T12:25:19Z</time>
      </trkpt>
      <trkpt lat="42.86458452" lon="13.54410979">
        <ele>340.00000</ele>
        <time>2024-02-02T12:25:20Z</time>
      </trkpt>
      <trkpt lat="42.86462282" lon="13.54412689">
        <ele>340.00000</ele>
        <time>2024-02-02T12:25:21Z</time>
      </trkpt>
      <trkpt lat="42.86465275" lon="13.54414399">
        <ele>339.00000</ele>
        <time>2024-02-02T12:25:22Z</time>
      </trkpt>
      <trkpt lat="42.86469968" lon="13.54416796">
        <ele>339.00000</ele>
        <time>2024-02-02T12:25:23Z</time>
      </trkpt>
      <trkpt lat="42.86473807" lon="13.54418884">
        <ele>338.00000</ele>
        <time>2024-02-02T12:25:24Z</time>
      </trkpt>
      <trkpt lat="42.86477504" lon="13.54420962">
        <ele>338.00000</ele>
        <time>2024-02-02T12:25:25Z</time>
      </trkpt>
      <trkpt lat="42.86480957" lon="13.54423125">
        <ele>338.00000</ele>
        <time>2024-02-02T12:25:26Z</time>
      </trkpt>
      <trkpt lat="42.86484209" lon="13.54425505">
        <ele>338.00000</ele>
        <time>2024-02-02T12:25:27Z</time>
      </trkpt>
      <trkpt lat="42.86487059" lon="13.54427542">
        <ele>337.00000</ele>
        <time>2024-02-02T12:25:28Z</time>
      </trkpt>
      <trkpt lat="42.86489649" lon="13.54429453">
        <ele>337.00000</ele>
        <time>2024-02-02T12:25:29Z</time>
      </trkpt>
      <trkpt lat="42.86491896" lon="13.54430845">
        <ele>337.00000</ele>
        <time>2024-02-02T12:25:30Z</time>
      </trkpt>
      <trkpt lat="42.86493941" lon="13.54430912">
        <ele>337.00000</ele>
        <time>2024-02-02T12:25:31Z</time>
      </trkpt>
      <trkpt lat="42.86495793" lon="13.54429596">
        <ele>337.00000</ele>
        <time>2024-02-02T12:25:32Z</time>
      </trkpt>
      <trkpt lat="42.86496816" lon="13.54427073">
        <ele>338.00000</ele>
        <time>2024-02-02T12:25:33Z</time>
      </trkpt>
      <trkpt lat="42.86496690" lon="13.54424105">
        <ele>338.00000</ele>
        <time>2024-02-02T12:25:34Z</time>
      </trkpt>
      <trkpt lat="42.86495299" lon="13.54421339">
        <ele>339.00000</ele>
        <time>2024-02-02T12:25:35Z</time>
      </trkpt>
      <trkpt lat="42.86492952" lon="13.54419219">
        <ele>339.00000</ele>
        <time>2024-02-02T12:25:36Z</time>
      </trkpt>
      <trkpt lat="42.86490806" lon="13.54417031">
        <ele>339.00000</ele>
        <time>2024-02-02T12:25:37Z</time>
      </trkpt>
      <trkpt lat="42.86488903" lon="13.54414634">
        <ele>339.00000</ele>
        <time>2024-02-02T12:25:38Z</time>
      </trkpt>
      <trkpt lat="42.86487487" lon="13.54411918">
        <ele>340.00000</ele>
        <time>2024-02-02T12:25:39Z</time>
      </trkpt>
      <trkpt lat="42.86486514" lon="13.54408792">
        <ele>340.00000</ele>
        <time>2024-02-02T12:25:40Z</time>
      </trkpt>
      <trkpt lat="42.86485760" lon="13.54406344">
        <ele>340.00000</ele>
        <time>2024-02-02T12:25:41Z</time>
      </trkpt>
      <trkpt lat="42.86485383" lon="13.54403369">
        <ele>341.00000</ele>
        <time>2024-02-02T12:25:42Z</time>
      </trkpt>
      <trkpt lat="42.86485668" lon="13.54399597">
        <ele>341.00000</ele>
        <time>2024-02-02T12:25:43Z</time>
      </trkpt>
      <trkpt lat="42.86486632" lon="13.54396278">
        <ele>342.00000</ele>
        <time>2024-02-02T12:25:44Z</time>
      </trkpt>
      <trkpt lat="42.86488216" lon="13.54392849">
        <ele>342.00000</ele>
        <time>2024-02-02T12:25:45Z</time>
      </trkpt>
      <trkpt lat="42.86490043" lon="13.54389815">
        <ele>343.00000</ele>
        <time>2024-02-02T12:25:46Z</time>
      </trkpt>
      <trkpt lat="42.86492097" lon="13.54386831">
        <ele>343.00000</ele>
        <time>2024-02-02T12:25:47Z</time>
      </trkpt>
      <trkpt lat="42.86493932" lon="13.54383822">
        <ele>343.00000</ele>
        <time>2024-02-02T12:25:48Z</time>
      </trkpt>
      <trkpt lat="42.86496003" lon="13.54380796">
        <ele>343.00000</ele>
        <time>2024-02-02T12:25:49Z</time>
      </trkpt>
      <trkpt lat="42.86498366" lon="13.54377980">
        <ele>344.00000</ele>
        <time>2024-02-02T12:25:50Z</time>
      </trkpt>
      <trkpt lat="42.86500428" lon="13.54375759">
        <ele>344.00000</ele>
        <time>2024-02-02T12:25:51Z</time>
      </trkpt>
      <trkpt lat="42.86502733" lon="13.54372783">
        <ele>345.00000</ele>
        <time>2024-02-02T12:25:52Z</time>
      </trkpt>
      <trkpt lat="42.86505072" lon="13.54369740">
        <ele>345.00000</ele>
        <time>2024-02-02T12:25:53Z</time>
      </trkpt>
      <trkpt lat="42.86507796" lon="13.54366044">
        <ele>346.00000</ele>
        <time>2024-02-02T12:25:54Z</time>
      </trkpt>
      <trkpt lat="42.86510034" lon="13.54363085">
        <ele>346.00000</ele>
        <time>2024-02-02T12:25:55Z</time>
      </trkpt>
      <trkpt lat="42.86512448" lon="13.54359967">
        <ele>347.00000</ele>
        <time>2024-02-02T12:25:56Z</time>
      </trkpt>
      <trkpt lat="42.86514828" lon="13.54356874">
        <ele>347.00000</ele>
        <time>2024-02-02T12:25:57Z</time>
      </trkpt>
      <trkpt lat="42.86517309" lon="13.54353446">
        <ele>347.00000</ele>
        <time>2024-02-02T12:25:58Z</time>
      </trkpt>
      <trkpt lat="42.86520017" lon="13.54349984">
        <ele>347.00000</ele>
        <time>2024-02-02T12:25:59Z</time>
      </trkpt>
      <trkpt lat="42.86522917" lon="13.54346573">
        <ele>347.00000</ele>
        <time>2024-02-02T12:26:00Z</time>
      </trkpt>
      <trkpt lat="42.86525934" lon="13.54343346">
        <ele>347.00000</ele>
        <time>2024-02-02T12:26:01Z</time>
      </trkpt>
      <trkpt lat="42.86528290" lon="13.54340949">
        <ele>347.00000</ele>
        <time>2024-02-02T12:26:02Z</time>
      </trkpt>
      <trkpt lat="42.86531684" lon="13.54337462">
        <ele>347.00000</ele>
        <time>2024-02-02T12:26:03Z</time>
      </trkpt>
      <trkpt lat="42.86534601" lon="13.54334495">
        <ele>347.00000</ele>
        <time>2024-02-02T12:26:04Z</time>
      </trkpt>
      <trkpt lat="42.86537828" lon="13.54331385">
        <ele>347.00000</ele>
        <time>2024-02-02T12:26:05Z</time>
      </trkpt>
      <trkpt lat="42.86540963" lon="13.54328476">
        <ele>348.00000</ele>
        <time>2024-02-02T12:26:06Z</time>
      </trkpt>
      <trkpt lat="42.86544123" lon="13.54325643">
        <ele>348.00000</ele>
        <time>2024-02-02T12:26:07Z</time>
      </trkpt>
      <trkpt lat="42.86547132" lon="13.54322978">
        <ele>348.00000</ele>
        <time>2024-02-02T12:26:08Z</time>
      </trkpt>
      <trkpt lat="42.86550225" lon="13.54320555">
        <ele>349.00000</ele>
        <time>2024-02-02T12:26:09Z</time>
      </trkpt>
      <trkpt lat="42.86553544" lon="13.54318066">
        <ele>349.00000</ele>
        <time>2024-02-02T12:26:10Z</time>
      </trkpt>
      <trkpt lat="42.86556587" lon="13.54315233">
        <ele>350.00000</ele>
        <time>2024-02-02T12:26:11Z</time>
      </trkpt>
      <trkpt lat="42.86559353" lon="13.54312450">
        <ele>350.00000</ele>
        <time>2024-02-02T12:26:12Z</time>
      </trkpt>
      <trkpt lat="42.86562094" lon="13.54310061">
        <ele>351.00000</ele>
        <time>2024-02-02T12:26:13Z</time>
      </trkpt>
      <trkpt lat="42.86564868" lon="13.54307907">
        <ele>352.00000</ele>
        <time>2024-02-02T12:26:14Z</time>
      </trkpt>
      <trkpt lat="42.86567450" lon="13.54305309">
        <ele>352.00000</ele>
        <time>2024-02-02T12:26:15Z</time>
      </trkpt>
      <trkpt lat="42.86569688" lon="13.54302652">
        <ele>353.00000</ele>
        <time>2024-02-02T12:26:16Z</time>
      </trkpt>
      <trkpt lat="42.86571926" lon="13.54300145">
        <ele>354.00000</ele>
        <time>2024-02-02T12:26:17Z</time>
      </trkpt>
      <trkpt lat="42.86574482" lon="13.54297656">
        <ele>355.00000</ele>
        <time>2024-02-02T12:26:18Z</time>
      </trkpt>
      <trkpt lat="42.86576989" lon="13.54295167">
        <ele>356.00000</ele>
        <time>2024-02-02T12:26:19Z</time>
      </trkpt>
      <trkpt lat="42.86579201" lon="13.54292375">
        <ele>357.00000</ele>
        <time>2024-02-02T12:26:20Z</time>
      </trkpt>
      <trkpt lat="42.86580828" lon="13.54289576">
        <ele>358.00000</ele>
        <time>2024-02-02T12:26:21Z</time>
      </trkpt>
      <trkpt lat="42.86582420" lon="13.54286818">
        <ele>359.00000</ele>
        <time>2024-02-02T12:26:22Z</time>
      </trkpt>
      <trkpt lat="42.86583736" lon="13.54284111">
        <ele>359.00000</ele>
        <time>2024-02-02T12:26:23Z</time>
      </trkpt>
      <trkpt lat="42.86584817" lon="13.54281278">
        <ele>360.00000</ele>
        <time>2024-02-02T12:26:24Z</time>
      </trkpt>
      <trkpt lat="42.86585991" lon="13.54278160">
        <ele>360.00000</ele>
        <time>2024-02-02T12:26:25Z</time>
      </trkpt>
      <trkpt lat="42.86587156" lon="13.54275151">
        <ele>361.00000</ele>
        <time>2024-02-02T12:26:26Z</time>
      </trkpt>
      <trkpt lat="42.86588145" lon="13.54272158">
        <ele>362.00000</ele>
        <time>2024-02-02T12:26:27Z</time>
      </trkpt>
      <trkpt lat="42.86589100" lon="13.54269334">
        <ele>362.00000</ele>
        <time>2024-02-02T12:26:28Z</time>
      </trkpt>
      <trkpt lat="42.86590131" lon="13.54266291">
        <ele>363.00000</ele>
        <time>2024-02-02T12:26:29Z</time>
      </trkpt>
      <trkpt lat="42.86591028" lon="13.54263206">
        <ele>364.00000</ele>
        <time>2024-02-02T12:26:30Z</time>
      </trkpt>
      <trkpt lat="42.86591615" lon="13.54260088">
        <ele>365.00000</ele>
        <time>2024-02-02T12:26:31Z</time>
      </trkpt>
      <trkpt lat="42.86592051" lon="13.54256920">
        <ele>365.00000</ele>
        <time>2024-02-02T12:26:32Z</time>
      </trkpt>
      <trkpt lat="42.86592529" lon="13.54254020">
        <ele>366.00000</ele>
        <time>2024-02-02T12:26:33Z</time>
      </trkpt>
      <trkpt lat="42.86593141" lon="13.54250826">
        <ele>366.00000</ele>
        <time>2024-02-02T12:26:34Z</time>
      </trkpt>
      <trkpt lat="42.86593610" lon="13.54247381">
        <ele>367.00000</ele>
        <time>2024-02-02T12:26:35Z</time>
      </trkpt>
      <trkpt lat="42.86593643" lon="13.54243509">
        <ele>368.00000</ele>
        <time>2024-02-02T12:26:36Z</time>
      </trkpt>
      <trkpt lat="42.86593182" lon="13.54239553">
        <ele>369.00000</ele>
        <time>2024-02-02T12:26:37Z</time>
      </trkpt>
      <trkpt lat="42.86592772" lon="13.54235705">
        <ele>370.00000</ele>
        <time>2024-02-02T12:26:38Z</time>
      </trkpt>
      <trkpt lat="42.86592344" lon="13.54231825">
        <ele>370.00000</ele>
        <time>2024-02-02T12:26:39Z</time>
      </trkpt>
      <trkpt lat="42.86591934" lon="13.54228145">
        <ele>371.00000</ele>
        <time>2024-02-02T12:26:40Z</time>
      </trkpt>
      <trkpt lat="42.86591464" lon="13.54224289">
        <ele>372.00000</ele>
        <time>2024-02-02T12:26:41Z</time>
      </trkpt>
      <trkpt lat="42.86591028" lon="13.54220367">
        <ele>373.00000</ele>
        <time>2024-02-02T12:26:42Z</time>
      </trkpt>
      <trkpt lat="42.86590282" lon="13.54216377">
        <ele>374.00000</ele>
        <time>2024-02-02T12:26:43Z</time>
      </trkpt>
      <trkpt lat="42.86589771" lon="13.54212496">
        <ele>375.00000</ele>
        <time>2024-02-02T12:26:44Z</time>
      </trkpt>
      <trkpt lat="42.86589411" lon="13.54208431">
        <ele>376.00000</ele>
        <time>2024-02-02T12:26:45Z</time>
      </trkpt>
      <trkpt lat="42.86589000" lon="13.54204248">
        <ele>377.00000</ele>
        <time>2024-02-02T12:26:46Z</time>
      </trkpt>
      <trkpt lat="42.86588707" lon="13.54200233">
        <ele>378.00000</ele>
        <time>2024-02-02T12:26:47Z</time>
      </trkpt>
      <trkpt lat="42.86588354" lon="13.54196302">
        <ele>379.00000</ele>
        <time>2024-02-02T12:26:48Z</time>
      </trkpt>
      <trkpt lat="42.86588187" lon="13.54192245">
        <ele>380.00000</ele>
        <time>2024-02-02T12:26:49Z</time>
      </trkpt>
      <trkpt lat="42.86587508" lon="13.54187945">
        <ele>380.00000</ele>
        <time>2024-02-02T12:26:50Z</time>
      </trkpt>
      <trkpt lat="42.86586712" lon="13.54183612">
        <ele>380.00000</ele>
        <time>2024-02-02T12:26:51Z</time>
      </trkpt>
      <trkpt lat="42.86586301" lon="13.54179446">
        <ele>380.00000</ele>
        <time>2024-02-02T12:26:52Z</time>
      </trkpt>
      <trkpt lat="42.86585873" lon="13.54175280">
        <ele>381.00000</ele>
        <time>2024-02-02T12:26:53Z</time>
      </trkpt>
      <trkpt lat="42.86585496" lon="13.54171307">
        <ele>381.00000</ele>
        <time>2024-02-02T12:26:54Z</time>
      </trkpt>
      <trkpt lat="42.86585463" lon="13.54167435">
        <ele>382.00000</ele>
        <time>2024-02-02T12:26:55Z</time>
      </trkpt>
      <trkpt lat="42.86585186" lon="13.54163219">
        <ele>382.00000</ele>
        <time>2024-02-02T12:26:56Z</time>
      </trkpt>
      <trkpt lat="42.86584432" lon="13.54158835">
        <ele>381.00000</ele>
        <time>2024-02-02T12:26:57Z</time>
      </trkpt>
      <trkpt lat="42.86583954" lon="13.54154585">
        <ele>381.00000</ele>
        <time>2024-02-02T12:26:58Z</time>
      </trkpt>
      <trkpt lat="42.86583786" lon="13.54150436">
        <ele>381.00000</ele>
        <time>2024-02-02T12:26:59Z</time>
      </trkpt>
      <trkpt lat="42.86583803" lon="13.54145918">
        <ele>381.00000</ele>
        <time>2024-02-02T12:27:00Z</time>
      </trkpt>
      <trkpt lat="42.86583887" lon="13.54141635">
        <ele>381.00000</ele>
        <time>2024-02-02T12:27:01Z</time>
      </trkpt>
      <trkpt lat="42.86583937" lon="13.54137059">
        <ele>381.00000</ele>
        <time>2024-02-02T12:27:02Z</time>
      </trkpt>
      <trkpt lat="42.86584247" lon="13.54132683">
        <ele>382.00000</ele>
        <time>2024-02-02T12:27:03Z</time>
      </trkpt>
      <trkpt lat="42.86584356" lon="13.54128149">
        <ele>382.00000</ele>
        <time>2024-02-02T12:27:04Z</time>
      </trkpt>
      <trkpt lat="42.86584566" lon="13.54123614">
        <ele>383.00000</ele>
        <time>2024-02-02T12:27:05Z</time>
      </trkpt>
      <trkpt lat="42.86584935" lon="13.54119205">
        <ele>384.00000</ele>
        <time>2024-02-02T12:27:06Z</time>
      </trkpt>
      <trkpt lat="42.86585253" lon="13.54115123">
        <ele>384.00000</ele>
        <time>2024-02-02T12:27:07Z</time>
      </trkpt>
      <trkpt lat="42.86585773" lon="13.54111159">
        <ele>385.00000</ele>
        <time>2024-02-02T12:27:08Z</time>
      </trkpt>
      <trkpt lat="42.86586653" lon="13.54107119">
        <ele>386.00000</ele>
        <time>2024-02-02T12:27:09Z</time>
      </trkpt>
      <trkpt lat="42.86587323" lon="13.54103414">
        <ele>386.00000</ele>
        <time>2024-02-02T12:27:10Z</time>
      </trkpt>
      <trkpt lat="42.86588028" lon="13.54099826">
        <ele>386.00000</ele>
        <time>2024-02-02T12:27:11Z</time>
      </trkpt>
      <trkpt lat="42.86589419" lon="13.54096826">
        <ele>387.00000</ele>
        <time>2024-02-02T12:27:12Z</time>
      </trkpt>
      <trkpt lat="42.86590542" lon="13.54094194">
        <ele>388.00000</ele>
        <time>2024-02-02T12:27:13Z</time>
      </trkpt>
      <trkpt lat="42.86592009" lon="13.54091344">
        <ele>389.00000</ele>
        <time>2024-02-02T12:27:14Z</time>
      </trkpt>
      <trkpt lat="42.86593652" lon="13.54088025">
        <ele>390.00000</ele>
        <time>2024-02-02T12:27:15Z</time>
      </trkpt>
      <trkpt lat="42.86595521" lon="13.54084580">
        <ele>391.00000</ele>
        <time>2024-02-02T12:27:16Z</time>
      </trkpt>
      <trkpt lat="42.86596829" lon="13.54081411">
        <ele>392.00000</ele>
        <time>2024-02-02T12:27:17Z</time>
      </trkpt>
      <trkpt lat="42.86598438" lon="13.54078059">
        <ele>393.00000</ele>
        <time>2024-02-02T12:27:18Z</time>
      </trkpt>
      <trkpt lat="42.86600030" lon="13.54074991">
        <ele>394.00000</ele>
        <time>2024-02-02T12:27:19Z</time>
      </trkpt>
      <trkpt lat="42.86601556" lon="13.54071504">
        <ele>395.00000</ele>
        <time>2024-02-02T12:27:20Z</time>
      </trkpt>
      <trkpt lat="42.86602729" lon="13.54067489">
        <ele>396.00000</ele>
        <time>2024-02-02T12:27:21Z</time>
      </trkpt>
      <trkpt lat="42.86603836" lon="13.54062703">
        <ele>396.00000</ele>
        <time>2024-02-02T12:27:22Z</time>
      </trkpt>
      <trkpt lat="42.86605512" lon="13.54057565">
        <ele>397.00000</ele>
        <time>2024-02-02T12:27:23Z</time>
      </trkpt>
      <trkpt lat="42.86607423" lon="13.54052259">
        <ele>397.00000</ele>
        <time>2024-02-02T12:27:24Z</time>
      </trkpt>
      <trkpt lat="42.86608899" lon="13.54046425">
        <ele>397.00000</ele>
        <time>2024-02-02T12:27:25Z</time>
      </trkpt>
      <trkpt lat="42.86610290" lon="13.54040667">
        <ele>396.00000</ele>
        <time>2024-02-02T12:27:26Z</time>
      </trkpt>
      <trkpt lat="42.86612126" lon="13.54035194">
        <ele>396.00000</ele>
        <time>2024-02-02T12:27:27Z</time>
      </trkpt>
      <trkpt lat="42.86613903" lon="13.54030064">
        <ele>395.00000</ele>
        <time>2024-02-02T12:27:28Z</time>
      </trkpt>
      <trkpt lat="42.86615319" lon="13.54025278">
        <ele>394.00000</ele>
        <time>2024-02-02T12:27:29Z</time>
      </trkpt>
      <trkpt lat="42.86617306" lon="13.54020852">
        <ele>393.00000</ele>
        <time>2024-02-02T12:27:30Z</time>
      </trkpt>
      <trkpt lat="42.86619225" lon="13.54016879">
        <ele>393.00000</ele>
        <time>2024-02-02T12:27:31Z</time>
      </trkpt>
      <trkpt lat="42.86620432" lon="13.54012730">
        <ele>392.00000</ele>
        <time>2024-02-02T12:27:32Z</time>
      </trkpt>
      <trkpt lat="42.86622511" lon="13.54009134">
        <ele>392.00000</ele>
        <time>2024-02-02T12:27:33Z</time>
      </trkpt>
      <trkpt lat="42.86624615" lon="13.54005589">
        <ele>392.00000</ele>
        <time>2024-02-02T12:27:34Z</time>
      </trkpt>
      <trkpt lat="42.86626442" lon="13.54001473">
        <ele>391.00000</ele>
        <time>2024-02-02T12:27:35Z</time>
      </trkpt>
      <trkpt lat="42.86628613" lon="13.53997291">
        <ele>391.00000</ele>
        <time>2024-02-02T12:27:36Z</time>
      </trkpt>
      <trkpt lat="42.86630365" lon="13.53994055">
        <ele>392.00000</ele>
        <time>2024-02-02T12:27:37Z</time>
      </trkpt>
      <trkpt lat="42.86631722" lon="13.53990635">
        <ele>392.00000</ele>
        <time>2024-02-02T12:27:38Z</time>
      </trkpt>
      <trkpt lat="42.86632787" lon="13.53987115">
        <ele>392.00000</ele>
        <time>2024-02-02T12:27:39Z</time>
      </trkpt>
      <trkpt lat="42.86633457" lon="13.53983921">
        <ele>392.00000</ele>
        <time>2024-02-02T12:27:40Z</time>
      </trkpt>
      <trkpt lat="42.86634949" lon="13.53980049">
        <ele>392.00000</ele>
        <time>2024-02-02T12:27:41Z</time>
      </trkpt>
      <trkpt lat="42.86636416" lon="13.53976420">
        <ele>392.00000</ele>
        <time>2024-02-02T12:27:42Z</time>
      </trkpt>
      <trkpt lat="42.86637414" lon="13.53972698">
        <ele>392.00000</ele>
        <time>2024-02-02T12:27:43Z</time>
      </trkpt>
      <trkpt lat="42.86637783" lon="13.53968641">
        <ele>392.00000</ele>
        <time>2024-02-02T12:27:44Z</time>
      </trkpt>
      <trkpt lat="42.86638302" lon="13.53964442">
        <ele>392.00000</ele>
        <time>2024-02-02T12:27:45Z</time>
      </trkpt>
      <trkpt lat="42.86639140" lon="13.53959580">
        <ele>392.00000</ele>
        <time>2024-02-02T12:27:46Z</time>
      </trkpt>
      <trkpt lat="42.86638017" lon="13.53953462">
        <ele>391.00000</ele>
        <time>2024-02-02T12:27:47Z</time>
      </trkpt>
      <trkpt lat="42.86636123" lon="13.53949455">
        <ele>390.00000</ele>
        <time>2024-02-02T12:27:48Z</time>
      </trkpt>
      <trkpt lat="42.86635763" lon="13.53943965">
        <ele>390.00000</ele>
        <time>2024-02-02T12:27:49Z</time>
      </trkpt>
      <trkpt lat="42.86635050" lon="13.53938559">
        <ele>389.00000</ele>
        <time>2024-02-02T12:27:50Z</time>
      </trkpt>
      <trkpt lat="42.86634765" lon="13.53931996">
        <ele>389.00000</ele>
        <time>2024-02-02T12:27:51Z</time>
      </trkpt>
      <trkpt lat="42.86634530" lon="13.53926572">
        <ele>388.00000</ele>
        <time>2024-02-02T12:27:52Z</time>
      </trkpt>
      <trkpt lat="42.86634212" lon="13.53920822">
        <ele>388.00000</ele>
        <time>2024-02-02T12:27:53Z</time>
      </trkpt>
      <trkpt lat="42.86633734" lon="13.53916003">
        <ele>388.00000</ele>
        <time>2024-02-02T12:27:54Z</time>
      </trkpt>
      <trkpt lat="42.86631974" lon="13.53909239">
        <ele>387.00000</ele>
        <time>2024-02-02T12:27:55Z</time>
      </trkpt>
      <trkpt lat="42.86628562" lon="13.53899734">
        <ele>386.00000</ele>
        <time>2024-02-02T12:27:56Z</time>
      </trkpt>
      <trkpt lat="42.86623810" lon="13.53891109">
        <ele>385.00000</ele>
        <time>2024-02-02T12:27:57Z</time>
      </trkpt>
      <trkpt lat="42.86617683" lon="13.53882970">
        <ele>384.00000</ele>
        <time>2024-02-02T12:27:58Z</time>
      </trkpt>
      <trkpt lat="42.86612779" lon="13.53876834">
        <ele>384.00000</ele>
        <time>2024-02-02T12:27:59Z</time>
      </trkpt>
      <trkpt lat="42.86606200" lon="13.53869534">
        <ele>383.00000</ele>
        <time>2024-02-02T12:28:00Z</time>
      </trkpt>
      <trkpt lat="42.86598513" lon="13.53861663">
        <ele>382.00000</ele>
        <time>2024-02-02T12:28:01Z</time>
      </trkpt>
      <trkpt lat="42.86592286" lon="13.53855980">
        <ele>382.00000</ele>
        <time>2024-02-02T12:28:02Z</time>
      </trkpt>
      <trkpt lat="42.86586242" lon="13.53850783">
        <ele>381.00000</ele>
        <time>2024-02-02T12:28:03Z</time>
      </trkpt>
      <trkpt lat="42.86580241" lon="13.53845570">
        <ele>381.00000</ele>
        <time>2024-02-02T12:28:04Z</time>
      </trkpt>
      <trkpt lat="42.86576050" lon="13.53841194">
        <ele>382.00000</ele>
        <time>2024-02-02T12:28:05Z</time>
      </trkpt>
      <trkpt lat="42.86570568" lon="13.53836417">
        <ele>382.00000</ele>
        <time>2024-02-02T12:28:06Z</time>
      </trkpt>
      <trkpt lat="42.86563938" lon="13.53832092">
        <ele>383.00000</ele>
        <time>2024-02-02T12:28:07Z</time>
      </trkpt>
      <trkpt lat="42.86558833" lon="13.53829309">
        <ele>383.00000</ele>
        <time>2024-02-02T12:28:08Z</time>
      </trkpt>
      <trkpt lat="42.86554173" lon="13.53826652">
        <ele>383.00000</ele>
        <time>2024-02-02T12:28:09Z</time>
      </trkpt>
      <trkpt lat="42.86550569" lon="13.53824498">
        <ele>384.00000</ele>
        <time>2024-02-02T12:28:10Z</time>
      </trkpt>
      <trkpt lat="42.86545741" lon="13.53821111">
        <ele>384.00000</ele>
        <time>2024-02-02T12:28:11Z</time>
      </trkpt>
      <trkpt lat="42.86542195" lon="13.53817759">
        <ele>385.00000</ele>
        <time>2024-02-02T12:28:12Z</time>
      </trkpt>
      <trkpt lat="42.86539295" lon="13.53815160">
        <ele>386.00000</ele>
        <time>2024-02-02T12:28:13Z</time>
      </trkpt>
      <trkpt lat="42.86535087" lon="13.53812176">
        <ele>387.00000</ele>
        <time>2024-02-02T12:28:14Z</time>
      </trkpt>
      <trkpt lat="42.86531425" lon="13.53810458">
        <ele>387.00000</ele>
        <time>2024-02-02T12:28:15Z</time>
      </trkpt>
      <trkpt lat="42.86528340" lon="13.53808086">
        <ele>388.00000</ele>
        <time>2024-02-02T12:28:16Z</time>
      </trkpt>
      <trkpt lat="42.86525314" lon="13.53805613">
        <ele>388.00000</ele>
        <time>2024-02-02T12:28:17Z</time>
      </trkpt>
      <trkpt lat="42.86523194" lon="13.53803643">
        <ele>388.00000</ele>
        <time>2024-02-02T12:28:18Z</time>
      </trkpt>
      <trkpt lat="42.86520637" lon="13.53801414">
        <ele>388.00000</ele>
        <time>2024-02-02T12:28:19Z</time>
      </trkpt>
      <trkpt lat="42.86517377" lon="13.53798899">
        <ele>388.00000</ele>
        <time>2024-02-02T12:28:20Z</time>
      </trkpt>
      <trkpt lat="42.86514535" lon="13.53796661">
        <ele>388.00000</ele>
        <time>2024-02-02T12:28:21Z</time>
      </trkpt>
      <trkpt lat="42.86511920" lon="13.53794147">
        <ele>388.00000</ele>
        <time>2024-02-02T12:28:22Z</time>
      </trkpt>
      <trkpt lat="42.86509992" lon="13.53792110">
        <ele>388.00000</ele>
        <time>2024-02-02T12:28:23Z</time>
      </trkpt>
      <trkpt lat="42.86507586" lon="13.53789545">
        <ele>388.00000</ele>
        <time>2024-02-02T12:28:24Z</time>
      </trkpt>
      <trkpt lat="42.86505063" lon="13.53786410">
        <ele>388.00000</ele>
        <time>2024-02-02T12:28:25Z</time>
      </trkpt>
      <trkpt lat="42.86503303" lon="13.53783493">
        <ele>388.00000</ele>
        <time>2024-02-02T12:28:26Z</time>
      </trkpt>
      <trkpt lat="42.86502281" lon="13.53780669">
        <ele>388.00000</ele>
        <time>2024-02-02T12:28:27Z</time>
      </trkpt>
      <trkpt lat="42.86500923" lon="13.53776218">
        <ele>388.00000</ele>
        <time>2024-02-02T12:28:28Z</time>
      </trkpt>
      <trkpt lat="42.86500127" lon="13.53773083">
        <ele>388.00000</ele>
        <time>2024-02-02T12:28:29Z</time>
      </trkpt>
      <trkpt lat="42.86498953" lon="13.53768004">
        <ele>388.00000</ele>
        <time>2024-02-02T12:28:30Z</time>
      </trkpt>
      <trkpt lat="42.86497780" lon="13.53763653">
        <ele>389.00000</ele>
        <time>2024-02-02T12:28:31Z</time>
      </trkpt>
      <trkpt lat="42.86496816" lon="13.53760519">
        <ele>389.00000</ele>
        <time>2024-02-02T12:28:32Z</time>
      </trkpt>
      <trkpt lat="42.86495793" lon="13.53756738">
        <ele>389.00000</ele>
        <time>2024-02-02T12:28:33Z</time>
      </trkpt>
      <trkpt lat="42.86494645" lon="13.53752673">
        <ele>389.00000</ele>
        <time>2024-02-02T12:28:34Z</time>
      </trkpt>
      <trkpt lat="42.86493069" lon="13.53747904">
        <ele>390.00000</ele>
        <time>2024-02-02T12:28:35Z</time>
      </trkpt>
      <trkpt lat="42.86492021" lon="13.53744207">
        <ele>391.00000</ele>
        <time>2024-02-02T12:28:36Z</time>
      </trkpt>
      <trkpt lat="42.86491133" lon="13.53740117">
        <ele>392.00000</ele>
        <time>2024-02-02T12:28:37Z</time>
      </trkpt>
      <trkpt lat="42.86489993" lon="13.53736454">
        <ele>392.00000</ele>
        <time>2024-02-02T12:28:38Z</time>
      </trkpt>
      <trkpt lat="42.86488761" lon="13.53732950">
        <ele>393.00000</ele>
        <time>2024-02-02T12:28:39Z</time>
      </trkpt>
      <trkpt lat="42.86487554" lon="13.53729522">
        <ele>394.00000</ele>
        <time>2024-02-02T12:28:40Z</time>
      </trkpt>
      <trkpt lat="42.86486640" lon="13.53726304">
        <ele>395.00000</ele>
        <time>2024-02-02T12:28:41Z</time>
      </trkpt>
      <trkpt lat="42.86486204" lon="13.53724292">
        <ele>395.00000</ele>
        <time>2024-02-02T12:28:42Z</time>
      </trkpt>
      <trkpt lat="42.86485844" lon="13.53721811">
        <ele>396.00000</ele>
        <time>2024-02-02T12:28:43Z</time>
      </trkpt>
      <trkpt lat="42.86485634" lon="13.53719112">
        <ele>397.00000</ele>
        <time>2024-02-02T12:28:44Z</time>
      </trkpt>
      <trkpt lat="42.86485416" lon="13.53716723">
        <ele>397.00000</ele>
        <time>2024-02-02T12:28:45Z</time>
      </trkpt>
      <trkpt lat="42.86484687" lon="13.53713857">
        <ele>398.00000</ele>
        <time>2024-02-02T12:28:46Z</time>
      </trkpt>
      <trkpt lat="42.86483891" lon="13.53710638">
        <ele>399.00000</ele>
        <time>2024-02-02T12:28:47Z</time>
      </trkpt>
      <trkpt lat="42.86483019" lon="13.53707989">
        <ele>400.00000</ele>
        <time>2024-02-02T12:28:48Z</time>
      </trkpt>
      <trkpt lat="42.86481686" lon="13.53705340">
        <ele>400.00000</ele>
        <time>2024-02-02T12:28:49Z</time>
      </trkpt>
      <trkpt lat="42.86480437" lon="13.53702457">
        <ele>401.00000</ele>
        <time>2024-02-02T12:28:50Z</time>
      </trkpt>
      <trkpt lat="42.86479373" lon="13.53699834">
        <ele>402.00000</ele>
        <time>2024-02-02T12:28:51Z</time>
      </trkpt>
      <trkpt lat="42.86478334" lon="13.53697202">
        <ele>402.00000</ele>
        <time>2024-02-02T12:28:52Z</time>
      </trkpt>
      <trkpt lat="42.86476808" lon="13.53694612">
        <ele>403.00000</ele>
        <time>2024-02-02T12:28:53Z</time>
      </trkpt>
      <trkpt lat="42.86475207" lon="13.53691586">
        <ele>403.00000</ele>
        <time>2024-02-02T12:28:54Z</time>
      </trkpt>
      <trkpt lat="42.86473724" lon="13.53688686">
        <ele>404.00000</ele>
        <time>2024-02-02T12:28:55Z</time>
      </trkpt>
      <trkpt lat="42.86472399" lon="13.53686037">
        <ele>404.00000</ele>
        <time>2024-02-02T12:28:56Z</time>
      </trkpt>
      <trkpt lat="42.86471402" lon="13.53683246">
        <ele>404.00000</ele>
        <time>2024-02-02T12:28:57Z</time>
      </trkpt>
      <trkpt lat="42.86470144" lon="13.53680790">
        <ele>404.00000</ele>
        <time>2024-02-02T12:28:58Z</time>
      </trkpt>
      <trkpt lat="42.86468602" lon="13.53678108">
        <ele>405.00000</ele>
        <time>2024-02-02T12:28:59Z</time>
      </trkpt>
      <trkpt lat="42.86466658" lon="13.53674931">
        <ele>405.00000</ele>
        <time>2024-02-02T12:29:00Z</time>
      </trkpt>
      <trkpt lat="42.86464621" lon="13.53671327">
        <ele>405.00000</ele>
        <time>2024-02-02T12:29:01Z</time>
      </trkpt>
      <trkpt lat="42.86463079" lon="13.53667982">
        <ele>406.00000</ele>
        <time>2024-02-02T12:29:02Z</time>
      </trkpt>
      <trkpt lat="42.86461813" lon="13.53665040">
        <ele>406.00000</ele>
        <time>2024-02-02T12:29:03Z</time>
      </trkpt>
      <trkpt lat="42.86459868" lon="13.53660372">
        <ele>406.00000</ele>
        <time>2024-02-02T12:29:04Z</time>
      </trkpt>
      <trkpt lat="42.86458686" lon="13.53656700">
        <ele>406.00000</ele>
        <time>2024-02-02T12:29:05Z</time>
      </trkpt>
      <trkpt lat="42.86457815" lon="13.53652887">
        <ele>406.00000</ele>
        <time>2024-02-02T12:29:06Z</time>
      </trkpt>
      <trkpt lat="42.86457245" lon="13.53648721">
        <ele>406.00000</ele>
        <time>2024-02-02T12:29:07Z</time>
      </trkpt>
      <trkpt lat="42.86456465" lon="13.53644764">
        <ele>406.00000</ele>
        <time>2024-02-02T12:29:08Z</time>
      </trkpt>
      <trkpt lat="42.86455526" lon="13.53641227">
        <ele>407.00000</ele>
        <time>2024-02-02T12:29:09Z</time>
      </trkpt>
      <trkpt lat="42.86454454" lon="13.53637766">
        <ele>407.00000</ele>
        <time>2024-02-02T12:29:10Z</time>
      </trkpt>
      <trkpt lat="42.86453607" lon="13.53635008">
        <ele>407.00000</ele>
        <time>2024-02-02T12:29:11Z</time>
      </trkpt>
      <trkpt lat="42.86452425" lon="13.53632468">
        <ele>407.00000</ele>
        <time>2024-02-02T12:29:12Z</time>
      </trkpt>
      <trkpt lat="42.86449600" lon="13.53628453">
        <ele>407.00000</ele>
        <time>2024-02-02T12:29:13Z</time>
      </trkpt>
      <trkpt lat="42.86445586" lon="13.53625277">
        <ele>407.00000</ele>
        <time>2024-02-02T12:29:14Z</time>
      </trkpt>
      <trkpt lat="42.86440724" lon="13.53621513">
        <ele>406.00000</ele>
        <time>2024-02-02T12:29:15Z</time>
      </trkpt>
      <trkpt lat="42.86436064" lon="13.53617582">
        <ele>405.00000</ele>
        <time>2024-02-02T12:29:16Z</time>
      </trkpt>
      <trkpt lat="42.86429383" lon="13.53610399">
        <ele>404.00000</ele>
        <time>2024-02-02T12:29:17Z</time>
      </trkpt>
      <trkpt lat="42.86425075" lon="13.53602930">
        <ele>402.00000</ele>
        <time>2024-02-02T12:29:18Z</time>
      </trkpt>
      <trkpt lat="42.86421773" lon="13.53593752">
        <ele>400.00000</ele>
        <time>2024-02-02T12:29:19Z</time>
      </trkpt>
      <trkpt lat="42.86420423" lon="13.53583258">
        <ele>398.00000</ele>
        <time>2024-02-02T12:29:20Z</time>
      </trkpt>
      <trkpt lat="42.86421672" lon="13.53574415">
        <ele>397.00000</ele>
        <time>2024-02-02T12:29:21Z</time>
      </trkpt>
      <trkpt lat="42.86426223" lon="13.53561163">
        <ele>396.00000</ele>
        <time>2024-02-02T12:29:22Z</time>
      </trkpt>
      <trkpt lat="42.86432418" lon="13.53551005">
        <ele>396.00000</ele>
        <time>2024-02-02T12:29:23Z</time>
      </trkpt>
      <trkpt lat="42.86440615" lon="13.53541843">
        <ele>396.00000</ele>
        <time>2024-02-02T12:29:24Z</time>
      </trkpt>
      <trkpt lat="42.86449802" lon="13.53533444">
        <ele>395.00000</ele>
        <time>2024-02-02T12:29:25Z</time>
      </trkpt>
      <trkpt lat="42.86456692" lon="13.53526052">
        <ele>394.00000</ele>
        <time>2024-02-02T12:29:26Z</time>
      </trkpt>
      <trkpt lat="42.86464663" lon="13.53510914">
        <ele>393.00000</ele>
        <time>2024-02-02T12:29:27Z</time>
      </trkpt>
      <trkpt lat="42.86468644" lon="13.53495064">
        <ele>391.00000</ele>
        <time>2024-02-02T12:29:28Z</time>
      </trkpt>
      <trkpt lat="42.86470429" lon="13.53478484">
        <ele>388.00000</ele>
        <time>2024-02-02T12:29:29Z</time>
      </trkpt>
      <trkpt lat="42.86470530" lon="13.53464637">
        <ele>387.00000</ele>
        <time>2024-02-02T12:29:30Z</time>
      </trkpt>
      <trkpt lat="42.86471905" lon="13.53447974">
        <ele>386.00000</ele>
        <time>2024-02-02T12:29:31Z</time>
      </trkpt>
      <trkpt lat="42.86475727" lon="13.53432166">
        <ele>386.00000</ele>
        <time>2024-02-02T12:29:32Z</time>
      </trkpt>
      <trkpt lat="42.86482768" lon="13.53415427">
        <ele>386.00000</ele>
        <time>2024-02-02T12:29:33Z</time>
      </trkpt>
      <trkpt lat="42.86491242" lon="13.53406442">
        <ele>385.00000</ele>
        <time>2024-02-02T12:29:34Z</time>
      </trkpt>
      <trkpt lat="42.86498249" lon="13.53401974">
        <ele>384.00000</ele>
        <time>2024-02-02T12:29:35Z</time>
      </trkpt>
      <trkpt lat="42.86505164" lon="13.53396752">
        <ele>384.00000</ele>
        <time>2024-02-02T12:29:36Z</time>
      </trkpt>
      <trkpt lat="42.86511526" lon="13.53391019">
        <ele>383.00000</ele>
        <time>2024-02-02T12:29:37Z</time>
      </trkpt>
      <trkpt lat="42.86515122" lon="13.53385512">
        <ele>383.00000</ele>
        <time>2024-02-02T12:29:38Z</time>
      </trkpt>
      <trkpt lat="42.86516731" lon="13.53378195">
        <ele>383.00000</ele>
        <time>2024-02-02T12:29:39Z</time>
      </trkpt>
      <trkpt lat="42.86517050" lon="13.53372093">
        <ele>383.00000</ele>
        <time>2024-02-02T12:29:40Z</time>
      </trkpt>
      <trkpt lat="42.86516647" lon="13.53364574">
        <ele>383.00000</ele>
        <time>2024-02-02T12:29:41Z</time>
      </trkpt>
      <trkpt lat="42.86515415" lon="13.53356461">
        <ele>383.00000</ele>
        <time>2024-02-02T12:29:42Z</time>
      </trkpt>
      <trkpt lat="42.86513588" lon="13.53350115">
        <ele>383.00000</ele>
        <time>2024-02-02T12:29:43Z</time>
      </trkpt>
      <trkpt lat="42.86512071" lon="13.53343762">
        <ele>384.00000</ele>
        <time>2024-02-02T12:29:44Z</time>
      </trkpt>
      <trkpt lat="42.86510990" lon="13.53337568">
        <ele>384.00000</ele>
        <time>2024-02-02T12:29:45Z</time>
      </trkpt>
      <trkpt lat="42.86510654" lon="13.53332036">
        <ele>385.00000</ele>
        <time>2024-02-02T12:29:46Z</time>
      </trkpt>
      <trkpt lat="42.86510269" lon="13.53326780">
        <ele>385.00000</ele>
        <time>2024-02-02T12:29:47Z</time>
      </trkpt>
      <trkpt lat="42.86510118" lon="13.53321483">
        <ele>385.00000</ele>
        <time>2024-02-02T12:29:48Z</time>
      </trkpt>
      <trkpt lat="42.86510042" lon="13.53316068">
        <ele>385.00000</ele>
        <time>2024-02-02T12:29:49Z</time>
      </trkpt>
      <trkpt lat="42.86509833" lon="13.53311860">
        <ele>385.00000</ele>
        <time>2024-02-02T12:29:50Z</time>
      </trkpt>
      <trkpt lat="42.86509514" lon="13.53306412">
        <ele>385.00000</ele>
        <time>2024-02-02T12:29:51Z</time>
      </trkpt>
      <trkpt lat="42.86508995" lon="13.53300017">
        <ele>385.00000</ele>
        <time>2024-02-02T12:29:52Z</time>
      </trkpt>
      <trkpt lat="42.86508399" lon="13.53294619">
        <ele>385.00000</ele>
        <time>2024-02-02T12:29:53Z</time>
      </trkpt>
      <trkpt lat="42.86507578" lon="13.53288777">
        <ele>385.00000</ele>
        <time>2024-02-02T12:29:54Z</time>
      </trkpt>
      <trkpt lat="42.86506832" lon="13.53284007">
        <ele>385.00000</ele>
        <time>2024-02-02T12:29:55Z</time>
      </trkpt>
      <trkpt lat="42.86505860" lon="13.53278517">
        <ele>385.00000</ele>
        <time>2024-02-02T12:29:56Z</time>
      </trkpt>
      <trkpt lat="42.86504309" lon="13.53271929">
        <ele>385.00000</ele>
        <time>2024-02-02T12:29:57Z</time>
      </trkpt>
      <trkpt lat="42.86502767" lon="13.53266062">
        <ele>385.00000</ele>
        <time>2024-02-02T12:29:58Z</time>
      </trkpt>
      <trkpt lat="42.86501334" lon="13.53261527">
        <ele>385.00000</ele>
        <time>2024-02-02T12:29:59Z</time>
      </trkpt>
      <trkpt lat="42.86499221" lon="13.53255928">
        <ele>385.00000</ele>
        <time>2024-02-02T12:30:00Z</time>
      </trkpt>
      <trkpt lat="42.86496371" lon="13.53249357">
        <ele>384.00000</ele>
        <time>2024-02-02T12:30:01Z</time>
      </trkpt>
      <trkpt lat="42.86494108" lon="13.53243984">
        <ele>384.00000</ele>
        <time>2024-02-02T12:30:02Z</time>
      </trkpt>
      <trkpt lat="42.86492357" lon="13.53238468">
        <ele>384.00000</ele>
        <time>2024-02-02T12:30:03Z</time>
      </trkpt>
      <trkpt lat="42.86490856" lon="13.53234026">
        <ele>384.00000</ele>
        <time>2024-02-02T12:30:04Z</time>
      </trkpt>
      <trkpt lat="42.86488928" lon="13.53227354">
        <ele>384.00000</ele>
        <time>2024-02-02T12:30:05Z</time>
      </trkpt>
      <trkpt lat="42.86487185" lon="13.53222057">
        <ele>384.00000</ele>
        <time>2024-02-02T12:30:06Z</time>
      </trkpt>
      <trkpt lat="42.86485173" lon="13.53217287">
        <ele>384.00000</ele>
        <time>2024-02-02T12:30:07Z</time>
      </trkpt>
      <trkpt lat="42.86483120" lon="13.53212711">
        <ele>385.00000</ele>
        <time>2024-02-02T12:30:08Z</time>
      </trkpt>
      <trkpt lat="42.86481276" lon="13.53207791">
        <ele>385.00000</ele>
        <time>2024-02-02T12:30:09Z</time>
      </trkpt>
      <trkpt lat="42.86480463" lon="13.53203692">
        <ele>386.00000</ele>
        <time>2024-02-02T12:30:10Z</time>
      </trkpt>
      <trkpt lat="42.86479423" lon="13.53198101">
        <ele>386.00000</ele>
        <time>2024-02-02T12:30:11Z</time>
      </trkpt>
      <trkpt lat="42.86478820" lon="13.53193667">
        <ele>387.00000</ele>
        <time>2024-02-02T12:30:12Z</time>
      </trkpt>
      <trkpt lat="42.86478392" lon="13.53189770">
        <ele>387.00000</ele>
        <time>2024-02-02T12:30:13Z</time>
      </trkpt>
      <trkpt lat="42.86477143" lon="13.53186015">
        <ele>388.00000</ele>
        <time>2024-02-02T12:30:14Z</time>
      </trkpt>
      <trkpt lat="42.86475777" lon="13.53182318">
        <ele>388.00000</ele>
        <time>2024-02-02T12:30:15Z</time>
      </trkpt>
      <trkpt lat="42.86474788" lon="13.53178395">
        <ele>389.00000</ele>
        <time>2024-02-02T12:30:16Z</time>
      </trkpt>
      <trkpt lat="42.86474084" lon="13.53174841">
        <ele>389.00000</ele>
        <time>2024-02-02T12:30:17Z</time>
      </trkpt>
      <trkpt lat="42.86474294" lon="13.53171220">
        <ele>390.00000</ele>
        <time>2024-02-02T12:30:18Z</time>
      </trkpt>
      <trkpt lat="42.86474294" lon="13.53167993">
        <ele>390.00000</ele>
        <time>2024-02-02T12:30:19Z</time>
      </trkpt>
      <trkpt lat="42.86473673" lon="13.53163316">
        <ele>391.00000</ele>
        <time>2024-02-02T12:30:20Z</time>
      </trkpt>
      <trkpt lat="42.86472584" lon="13.53159653">
        <ele>392.00000</ele>
        <time>2024-02-02T12:30:21Z</time>
      </trkpt>
      <trkpt lat="42.86472072" lon="13.53156175">
        <ele>392.00000</ele>
        <time>2024-02-02T12:30:22Z</time>
      </trkpt>
      <trkpt lat="42.86471670" lon="13.53152520">
        <ele>392.00000</ele>
        <time>2024-02-02T12:30:23Z</time>
      </trkpt>
      <trkpt lat="42.86471385" lon="13.53148656">
        <ele>393.00000</ele>
        <time>2024-02-02T12:30:24Z</time>
      </trkpt>
      <trkpt lat="42.86471301" lon="13.53144608">
        <ele>393.00000</ele>
        <time>2024-02-02T12:30:25Z</time>
      </trkpt>
      <trkpt lat="42.86470932" lon="13.53140333">
        <ele>394.00000</ele>
        <time>2024-02-02T12:30:26Z</time>
      </trkpt>
      <trkpt lat="42.86470555" lon="13.53136226">
        <ele>394.00000</ele>
        <time>2024-02-02T12:30:28Z</time>
      </trkpt>
      <trkpt lat="42.86470170" lon="13.53132454">
        <ele>394.00000</ele>
        <time>2024-02-02T12:30:29Z</time>
      </trkpt>
      <trkpt lat="42.86469826" lon="13.53128531">
        <ele>395.00000</ele>
        <time>2024-02-02T12:30:30Z</time>
      </trkpt>
      <trkpt lat="42.86469650" lon="13.53124810">
        <ele>395.00000</ele>
        <time>2024-02-02T12:30:31Z</time>
      </trkpt>
      <trkpt lat="42.86469432" lon="13.53121197">
        <ele>395.00000</ele>
        <time>2024-02-02T12:30:32Z</time>
      </trkpt>
      <trkpt lat="42.86469273" lon="13.53117568">
        <ele>395.00000</ele>
        <time>2024-02-02T12:30:33Z</time>
      </trkpt>
      <trkpt lat="42.86468787" lon="13.53114064">
        <ele>396.00000</ele>
        <time>2024-02-02T12:30:34Z</time>
      </trkpt>
      <trkpt lat="42.86468644" lon="13.53110854">
        <ele>396.00000</ele>
        <time>2024-02-02T12:30:35Z</time>
      </trkpt>
      <trkpt lat="42.86468267" lon="13.53107241">
        <ele>396.00000</ele>
        <time>2024-02-02T12:30:36Z</time>
      </trkpt>
      <trkpt lat="42.86468150" lon="13.53103654">
        <ele>396.00000</ele>
        <time>2024-02-02T12:30:37Z</time>
      </trkpt>
      <trkpt lat="42.86468066" lon="13.53100519">
        <ele>396.00000</ele>
        <time>2024-02-02T12:30:38Z</time>
      </trkpt>
      <trkpt lat="42.86467588" lon="13.53096655">
        <ele>397.00000</ele>
        <time>2024-02-02T12:30:39Z</time>
      </trkpt>
      <trkpt lat="42.86466792" lon="13.53092221">
        <ele>397.00000</ele>
        <time>2024-02-02T12:30:40Z</time>
      </trkpt>
      <trkpt lat="42.86465870" lon="13.53088248">
        <ele>397.00000</ele>
        <time>2024-02-02T12:30:41Z</time>
      </trkpt>
      <trkpt lat="42.86465216" lon="13.53084325">
        <ele>397.00000</ele>
        <time>2024-02-02T12:30:42Z</time>
      </trkpt>
      <trkpt lat="42.86464713" lon="13.53080210">
        <ele>397.00000</ele>
        <time>2024-02-02T12:30:43Z</time>
      </trkpt>
      <trkpt lat="42.86464143" lon="13.53076203">
        <ele>397.00000</ele>
        <time>2024-02-02T12:30:44Z</time>
      </trkpt>
      <trkpt lat="42.86463808" lon="13.53072071">
        <ele>397.00000</ele>
        <time>2024-02-02T12:30:45Z</time>
      </trkpt>
      <trkpt lat="42.86463699" lon="13.53068006">
        <ele>398.00000</ele>
        <time>2024-02-02T12:30:46Z</time>
      </trkpt>
      <trkpt lat="42.86463690" lon="13.53064066">
        <ele>398.00000</ele>
        <time>2024-02-02T12:30:47Z</time>
      </trkpt>
      <trkpt lat="42.86463766" lon="13.53060068">
        <ele>399.00000</ele>
        <time>2024-02-02T12:30:48Z</time>
      </trkpt>
      <trkpt lat="42.86464059" lon="13.53056120">
        <ele>399.00000</ele>
        <time>2024-02-02T12:30:49Z</time>
      </trkpt>
      <trkpt lat="42.86464537" lon="13.53052348">
        <ele>399.00000</ele>
        <time>2024-02-02T12:30:50Z</time>
      </trkpt>
      <trkpt lat="42.86465618" lon="13.53048853">
        <ele>400.00000</ele>
        <time>2024-02-02T12:30:51Z</time>
      </trkpt>
      <trkpt lat="42.86467035" lon="13.53045517">
        <ele>401.00000</ele>
        <time>2024-02-02T12:30:52Z</time>
      </trkpt>
      <trkpt lat="42.86468443" lon="13.53042399">
        <ele>401.00000</ele>
        <time>2024-02-02T12:30:53Z</time>
      </trkpt>
      <trkpt lat="42.86470270" lon="13.53039667">
        <ele>402.00000</ele>
        <time>2024-02-02T12:30:54Z</time>
      </trkpt>
      <trkpt lat="42.86472198" lon="13.53037253">
        <ele>403.00000</ele>
        <time>2024-02-02T12:30:55Z</time>
      </trkpt>
      <trkpt lat="42.86474025" lon="13.53034964">
        <ele>403.00000</ele>
        <time>2024-02-02T12:30:56Z</time>
      </trkpt>
      <trkpt lat="42.86476196" lon="13.53033179">
        <ele>404.00000</ele>
        <time>2024-02-02T12:30:57Z</time>
      </trkpt>
      <trkpt lat="42.86478392" lon="13.53031729">
        <ele>405.00000</ele>
        <time>2024-02-02T12:30:58Z</time>
      </trkpt>
      <trkpt lat="42.86480731" lon="13.53030237">
        <ele>406.00000</ele>
        <time>2024-02-02T12:30:59Z</time>
      </trkpt>
      <trkpt lat="42.86483312" lon="13.53028971">
        <ele>406.00000</ele>
        <time>2024-02-02T12:31:00Z</time>
      </trkpt>
      <trkpt lat="42.86486020" lon="13.53027789">
        <ele>407.00000</ele>
        <time>2024-02-02T12:31:01Z</time>
      </trkpt>
      <trkpt lat="42.86488803" lon="13.53027136">
        <ele>408.00000</ele>
        <time>2024-02-02T12:31:02Z</time>
      </trkpt>
      <trkpt lat="42.86491476" lon="13.53026515">
        <ele>409.00000</ele>
        <time>2024-02-02T12:31:03Z</time>
      </trkpt>
      <trkpt lat="42.86493999" lon="13.53026071">
        <ele>410.00000</ele>
        <time>2024-02-02T12:31:04Z</time>
      </trkpt>
      <trkpt lat="42.86496464" lon="13.53025677">
        <ele>411.00000</ele>
        <time>2024-02-02T12:31:05Z</time>
      </trkpt>
      <trkpt lat="42.86498886" lon="13.53025451">
        <ele>412.00000</ele>
        <time>2024-02-02T12:31:06Z</time>
      </trkpt>
      <trkpt lat="42.86500847" lon="13.53025342">
        <ele>412.00000</ele>
        <time>2024-02-02T12:31:07Z</time>
      </trkpt>
      <trkpt lat="42.86502968" lon="13.53024789">
        <ele>413.00000</ele>
        <time>2024-02-02T12:31:08Z</time>
      </trkpt>
      <trkpt lat="42.86505223" lon="13.53023833">
        <ele>413.00000</ele>
        <time>2024-02-02T12:31:09Z</time>
      </trkpt>
      <trkpt lat="42.86507335" lon="13.53023196">
        <ele>413.00000</ele>
        <time>2024-02-02T12:31:10Z</time>
      </trkpt>
      <trkpt lat="42.86509581" lon="13.53022358">
        <ele>413.00000</ele>
        <time>2024-02-02T12:31:11Z</time>
      </trkpt>
      <trkpt lat="42.86511970" lon="13.53021344">
        <ele>413.00000</ele>
        <time>2024-02-02T12:31:12Z</time>
      </trkpt>
      <trkpt lat="42.86514502" lon="13.53020355">
        <ele>414.00000</ele>
        <time>2024-02-02T12:31:13Z</time>
      </trkpt>
      <trkpt lat="42.86517192" lon="13.53019634">
        <ele>414.00000</ele>
        <time>2024-02-02T12:31:14Z</time>
      </trkpt>
      <trkpt lat="42.86520176" lon="13.53019014">
        <ele>414.00000</ele>
        <time>2024-02-02T12:31:15Z</time>
      </trkpt>
      <trkpt lat="42.86523110" lon="13.53017647">
        <ele>415.00000</ele>
        <time>2024-02-02T12:31:16Z</time>
      </trkpt>
      <trkpt lat="42.86525985" lon="13.53016499">
        <ele>416.00000</ele>
        <time>2024-02-02T12:31:17Z</time>
      </trkpt>
      <trkpt lat="42.86528994" lon="13.53014764">
        <ele>416.00000</ele>
        <time>2024-02-02T12:31:18Z</time>
      </trkpt>
      <trkpt lat="42.86531877" lon="13.53012585">
        <ele>416.00000</ele>
        <time>2024-02-02T12:31:19Z</time>
      </trkpt>
      <trkpt lat="42.86534668" lon="13.53009978">
        <ele>416.00000</ele>
        <time>2024-02-02T12:31:20Z</time>
      </trkpt>
      <trkpt lat="42.86537166" lon="13.53007748">
        <ele>416.00000</ele>
        <time>2024-02-02T12:31:21Z</time>
      </trkpt>
      <trkpt lat="42.86539538" lon="13.53005276">
        <ele>417.00000</ele>
        <time>2024-02-02T12:31:22Z</time>
      </trkpt>
      <trkpt lat="42.86541843" lon="13.53002543">
        <ele>417.00000</ele>
        <time>2024-02-02T12:31:23Z</time>
      </trkpt>
      <trkpt lat="42.86543914" lon="13.52999224">
        <ele>417.00000</ele>
        <time>2024-02-02T12:31:24Z</time>
      </trkpt>
      <trkpt lat="42.86545649" lon="13.52995905">
        <ele>418.00000</ele>
        <time>2024-02-02T12:31:25Z</time>
      </trkpt>
      <trkpt lat="42.86547484" lon="13.52992594">
        <ele>418.00000</ele>
        <time>2024-02-02T12:31:26Z</time>
      </trkpt>
      <trkpt lat="42.86549806" lon="13.52989635">
        <ele>418.00000</ele>
        <time>2024-02-02T12:31:27Z</time>
      </trkpt>
      <trkpt lat="42.86551843" lon="13.52986450">
        <ele>419.00000</ele>
        <time>2024-02-02T12:31:28Z</time>
      </trkpt>
      <trkpt lat="42.86553787" lon="13.52982586">
        <ele>420.00000</ele>
        <time>2024-02-02T12:31:29Z</time>
      </trkpt>
      <trkpt lat="42.86555497" lon="13.52979065">
        <ele>421.00000</ele>
        <time>2024-02-02T12:31:30Z</time>
      </trkpt>
      <trkpt lat="42.86557140" lon="13.52975503">
        <ele>421.00000</ele>
        <time>2024-02-02T12:31:31Z</time>
      </trkpt>
      <trkpt lat="42.86559035" lon="13.52971966">
        <ele>420.00000</ele>
        <time>2024-02-02T12:31:32Z</time>
      </trkpt>
      <trkpt lat="42.86561725" lon="13.52967616">
        <ele>419.00000</ele>
        <time>2024-02-02T12:31:33Z</time>
      </trkpt>
      <trkpt lat="42.86564206" lon="13.52963718">
        <ele>418.00000</ele>
        <time>2024-02-02T12:31:34Z</time>
      </trkpt>
      <trkpt lat="42.86566067" lon="13.52960055">
        <ele>417.00000</ele>
        <time>2024-02-02T12:31:35Z</time>
      </trkpt>
      <trkpt lat="42.86567894" lon="13.52956350">
        <ele>417.00000</ele>
        <time>2024-02-02T12:31:36Z</time>
      </trkpt>
      <trkpt lat="42.86569520" lon="13.52952553">
        <ele>417.00000</ele>
        <time>2024-02-02T12:31:37Z</time>
      </trkpt>
      <trkpt lat="42.86570576" lon="13.52948572">
        <ele>417.00000</ele>
        <time>2024-02-02T12:31:38Z</time>
      </trkpt>
      <trkpt lat="42.86571473" lon="13.52944456">
        <ele>417.00000</ele>
        <time>2024-02-02T12:31:39Z</time>
      </trkpt>
      <trkpt lat="42.86572479" lon="13.52940609">
        <ele>418.00000</ele>
        <time>2024-02-02T12:31:40Z</time>
      </trkpt>
      <trkpt lat="42.86573678" lon="13.52936779">
        <ele>418.00000</ele>
        <time>2024-02-02T12:31:41Z</time>
      </trkpt>
      <trkpt lat="42.86574843" lon="13.52933334">
        <ele>418.00000</ele>
        <time>2024-02-02T12:31:42Z</time>
      </trkpt>
      <trkpt lat="42.86576167" lon="13.52929847">
        <ele>419.00000</ele>
        <time>2024-02-02T12:31:43Z</time>
      </trkpt>
      <trkpt lat="42.86577600" lon="13.52926536">
        <ele>419.00000</ele>
        <time>2024-02-02T12:31:44Z</time>
      </trkpt>
      <trkpt lat="42.86578682" lon="13.52922848">
        <ele>419.00000</ele>
        <time>2024-02-02T12:31:45Z</time>
      </trkpt>
      <trkpt lat="42.86580048" lon="13.52918950">
        <ele>420.00000</ele>
        <time>2024-02-02T12:31:46Z</time>
      </trkpt>
      <trkpt lat="42.86581615" lon="13.52915128">
        <ele>420.00000</ele>
        <time>2024-02-02T12:31:47Z</time>
      </trkpt>
      <trkpt lat="42.86583183" lon="13.52911465">
        <ele>420.00000</ele>
        <time>2024-02-02T12:31:48Z</time>
      </trkpt>
      <trkpt lat="42.86584650" lon="13.52908146">
        <ele>420.00000</ele>
        <time>2024-02-02T12:31:49Z</time>
      </trkpt>
      <trkpt lat="42.86586368" lon="13.52905187">
        <ele>421.00000</ele>
        <time>2024-02-02T12:31:50Z</time>
      </trkpt>
      <trkpt lat="42.86588246" lon="13.52902270">
        <ele>421.00000</ele>
        <time>2024-02-02T12:31:51Z</time>
      </trkpt>
      <trkpt lat="42.86590157" lon="13.52899169">
        <ele>421.00000</ele>
        <time>2024-02-02T12:31:52Z</time>
      </trkpt>
      <trkpt lat="42.86592244" lon="13.52896101">
        <ele>422.00000</ele>
        <time>2024-02-02T12:31:53Z</time>
      </trkpt>
      <trkpt lat="42.86594490" lon="13.52892933">
        <ele>422.00000</ele>
        <time>2024-02-02T12:31:54Z</time>
      </trkpt>
      <trkpt lat="42.86596627" lon="13.52889630">
        <ele>422.00000</ele>
        <time>2024-02-02T12:31:55Z</time>
      </trkpt>
      <trkpt lat="42.86598899" lon="13.52887024">
        <ele>422.00000</ele>
        <time>2024-02-02T12:31:56Z</time>
      </trkpt>
      <trkpt lat="42.86601137" lon="13.52884761">
        <ele>422.00000</ele>
        <time>2024-02-02T12:31:57Z</time>
      </trkpt>
      <trkpt lat="42.86603459" lon="13.52882397">
        <ele>422.00000</ele>
        <time>2024-02-02T12:31:58Z</time>
      </trkpt>
      <trkpt lat="42.86605998" lon="13.52880151">
        <ele>422.00000</ele>
        <time>2024-02-02T12:31:59Z</time>
      </trkpt>
      <trkpt lat="42.86608731" lon="13.52878030">
        <ele>422.00000</ele>
        <time>2024-02-02T12:32:00Z</time>
      </trkpt>
      <trkpt lat="42.86611455" lon="13.52875993">
        <ele>422.00000</ele>
        <time>2024-02-02T12:32:01Z</time>
      </trkpt>
      <trkpt lat="42.86613785" lon="13.52873604">
        <ele>422.00000</ele>
        <time>2024-02-02T12:32:02Z</time>
      </trkpt>
      <trkpt lat="42.86616375" lon="13.52871316">
        <ele>423.00000</ele>
        <time>2024-02-02T12:32:03Z</time>
      </trkpt>
      <trkpt lat="42.86619376" lon="13.52869606">
        <ele>423.00000</ele>
        <time>2024-02-02T12:32:04Z</time>
      </trkpt>
      <trkpt lat="42.86622435" lon="13.52867720">
        <ele>424.00000</ele>
        <time>2024-02-02T12:32:05Z</time>
      </trkpt>
      <trkpt lat="42.86625210" lon="13.52866102">
        <ele>424.00000</ele>
        <time>2024-02-02T12:32:06Z</time>
      </trkpt>
      <trkpt lat="42.86628101" lon="13.52864560">
        <ele>425.00000</ele>
        <time>2024-02-02T12:32:07Z</time>
      </trkpt>
      <trkpt lat="42.86631270" lon="13.52862892">
        <ele>425.00000</ele>
        <time>2024-02-02T12:32:08Z</time>
      </trkpt>
      <trkpt lat="42.86634706" lon="13.52861350">
        <ele>426.00000</ele>
        <time>2024-02-02T12:32:09Z</time>
      </trkpt>
      <trkpt lat="42.86638068" lon="13.52860185">
        <ele>426.00000</ele>
        <time>2024-02-02T12:32:10Z</time>
      </trkpt>
      <trkpt lat="42.86641303" lon="13.52859078">
        <ele>427.00000</ele>
        <time>2024-02-02T12:32:11Z</time>
      </trkpt>
      <trkpt lat="42.86644714" lon="13.52857804">
        <ele>428.00000</ele>
        <time>2024-02-02T12:32:12Z</time>
      </trkpt>
      <trkpt lat="42.86648042" lon="13.52857084">
        <ele>428.00000</ele>
        <time>2024-02-02T12:32:13Z</time>
      </trkpt>
      <trkpt lat="42.86651445" lon="13.52856446">
        <ele>429.00000</ele>
        <time>2024-02-02T12:32:14Z</time>
      </trkpt>
      <trkpt lat="42.86654932" lon="13.52856036">
        <ele>429.00000</ele>
        <time>2024-02-02T12:32:15Z</time>
      </trkpt>
      <trkpt lat="42.86658084" lon="13.52856120">
        <ele>430.00000</ele>
        <time>2024-02-02T12:32:16Z</time>
      </trkpt>
      <trkpt lat="42.86661067" lon="13.52856933">
        <ele>430.00000</ele>
        <time>2024-02-02T12:32:17Z</time>
      </trkpt>
      <trkpt lat="42.86664253" lon="13.52857913">
        <ele>430.00000</ele>
        <time>2024-02-02T12:32:18Z</time>
      </trkpt>
      <trkpt lat="42.86667228" lon="13.52859053">
        <ele>430.00000</ele>
        <time>2024-02-02T12:32:19Z</time>
      </trkpt>
      <trkpt lat="42.86669927" lon="13.52861057">
        <ele>430.00000</ele>
        <time>2024-02-02T12:32:20Z</time>
      </trkpt>
      <trkpt lat="42.86672517" lon="13.52863362">
        <ele>430.00000</ele>
        <time>2024-02-02T12:32:21Z</time>
      </trkpt>
      <trkpt lat="42.86674872" lon="13.52866153">
        <ele>430.00000</ele>
        <time>2024-02-02T12:32:22Z</time>
      </trkpt>
      <trkpt lat="42.86676943" lon="13.52869430">
        <ele>430.00000</ele>
        <time>2024-02-02T12:32:23Z</time>
      </trkpt>
      <trkpt lat="42.86678636" lon="13.52872615">
        <ele>430.00000</ele>
        <time>2024-02-02T12:32:24Z</time>
      </trkpt>
      <trkpt lat="42.86680371" lon="13.52876446">
        <ele>430.00000</ele>
        <time>2024-02-02T12:32:25Z</time>
      </trkpt>
      <trkpt lat="42.86681687" lon="13.52880628">
        <ele>430.00000</ele>
        <time>2024-02-02T12:32:26Z</time>
      </trkpt>
      <trkpt lat="42.86682659" lon="13.52885465">
        <ele>430.00000</ele>
        <time>2024-02-02T12:32:27Z</time>
      </trkpt>
      <trkpt lat="42.86683497" lon="13.52890687">
        <ele>430.00000</ele>
        <time>2024-02-02T12:32:28Z</time>
      </trkpt>
      <trkpt lat="42.86684696" lon="13.52895732">
        <ele>430.00000</ele>
        <time>2024-02-02T12:32:29Z</time>
      </trkpt>
      <trkpt lat="42.86687009" lon="13.52900116">
        <ele>430.00000</ele>
        <time>2024-02-02T12:32:30Z</time>
      </trkpt>
      <trkpt lat="42.86689977" lon="13.52903033">
        <ele>430.00000</ele>
        <time>2024-02-02T12:32:31Z</time>
      </trkpt>
      <trkpt lat="42.86693262" lon="13.52904282">
        <ele>431.00000</ele>
        <time>2024-02-02T12:32:32Z</time>
      </trkpt>
      <trkpt lat="42.86696406" lon="13.52904726">
        <ele>431.00000</ele>
        <time>2024-02-02T12:32:33Z</time>
      </trkpt>
      <trkpt lat="42.86699373" lon="13.52904148">
        <ele>432.00000</ele>
        <time>2024-02-02T12:32:34Z</time>
      </trkpt>
      <trkpt lat="42.86702407" lon="13.52903109">
        <ele>432.00000</ele>
        <time>2024-02-02T12:32:35Z</time>
      </trkpt>
      <trkpt lat="42.86705232" lon="13.52901851">
        <ele>433.00000</ele>
        <time>2024-02-02T12:32:36Z</time>
      </trkpt>
      <trkpt lat="42.86707864" lon="13.52900586">
        <ele>433.00000</ele>
        <time>2024-02-02T12:32:37Z</time>
      </trkpt>
      <trkpt lat="42.86710554" lon="13.52899353">
        <ele>433.00000</ele>
        <time>2024-02-02T12:32:38Z</time>
      </trkpt>
      <trkpt lat="42.86713329" lon="13.52897786">
        <ele>434.00000</ele>
        <time>2024-02-02T12:32:39Z</time>
      </trkpt>
      <trkpt lat="42.86715944" lon="13.52895707">
        <ele>434.00000</ele>
        <time>2024-02-02T12:32:40Z</time>
      </trkpt>
      <trkpt lat="42.86718492" lon="13.52893008">
        <ele>435.00000</ele>
        <time>2024-02-02T12:32:41Z</time>
      </trkpt>
      <trkpt lat="42.86720705" lon="13.52889806">
        <ele>435.00000</ele>
        <time>2024-02-02T12:32:42Z</time>
      </trkpt>
      <trkpt lat="42.86722255" lon="13.52885766">
        <ele>435.00000</ele>
        <time>2024-02-02T12:32:43Z</time>
      </trkpt>
      <trkpt lat="42.86723387" lon="13.52881441">
        <ele>435.00000</ele>
        <time>2024-02-02T12:32:44Z</time>
      </trkpt>
      <trkpt lat="42.86723957" lon="13.52876672">
        <ele>435.00000</ele>
        <time>2024-02-02T12:32:45Z</time>
      </trkpt>
      <trkpt lat="42.86723965" lon="13.52871517">
        <ele>435.00000</ele>
        <time>2024-02-02T12:32:46Z</time>
      </trkpt>
      <trkpt lat="42.86723756" lon="13.52866304">
        <ele>435.00000</ele>
        <time>2024-02-02T12:32:47Z</time>
      </trkpt>
      <trkpt lat="42.86723270" lon="13.52860679">
        <ele>435.00000</ele>
        <time>2024-02-02T12:32:48Z</time>
      </trkpt>
      <trkpt lat="42.86722641" lon="13.52854871">
        <ele>435.00000</ele>
        <time>2024-02-02T12:32:49Z</time>
      </trkpt>
      <trkpt lat="42.86721887" lon="13.52848995">
        <ele>435.00000</ele>
        <time>2024-02-02T12:32:50Z</time>
      </trkpt>
      <trkpt lat="42.86721610" lon="13.52842910">
        <ele>436.00000</ele>
        <time>2024-02-02T12:32:51Z</time>
      </trkpt>
      <trkpt lat="42.86721602" lon="13.52836598">
        <ele>436.00000</ele>
        <time>2024-02-02T12:32:52Z</time>
      </trkpt>
      <trkpt lat="42.86721945" lon="13.52830077">
        <ele>436.00000</ele>
        <time>2024-02-02T12:32:53Z</time>
      </trkpt>
      <trkpt lat="42.86722683" lon="13.52823480">
        <ele>436.00000</ele>
        <time>2024-02-02T12:32:54Z</time>
      </trkpt>
      <trkpt lat="42.86723823" lon="13.52816574">
        <ele>436.00000</ele>
        <time>2024-02-02T12:32:55Z</time>
      </trkpt>
      <trkpt lat="42.86725206" lon="13.52809960">
        <ele>435.00000</ele>
        <time>2024-02-02T12:32:56Z</time>
      </trkpt>
      <trkpt lat="42.86726840" lon="13.52803515">
        <ele>435.00000</ele>
        <time>2024-02-02T12:32:57Z</time>
      </trkpt>
      <trkpt lat="42.86728517" lon="13.52796751">
        <ele>435.00000</ele>
        <time>2024-02-02T12:32:58Z</time>
      </trkpt>
      <trkpt lat="42.86730017" lon="13.52790146">
        <ele>435.00000</ele>
        <time>2024-02-02T12:32:59Z</time>
      </trkpt>
      <trkpt lat="42.86731115" lon="13.52783683">
        <ele>435.00000</ele>
        <time>2024-02-02T12:33:00Z</time>
      </trkpt>
      <trkpt lat="42.86732037" lon="13.52777070">
        <ele>435.00000</ele>
        <time>2024-02-02T12:33:01Z</time>
      </trkpt>
      <trkpt lat="42.86732305" lon="13.52770415">
        <ele>435.00000</ele>
        <time>2024-02-02T12:33:02Z</time>
      </trkpt>
      <trkpt lat="42.86732305" lon="13.52763801">
        <ele>435.00000</ele>
        <time>2024-02-02T12:33:03Z</time>
      </trkpt>
      <trkpt lat="42.86732029" lon="13.52757808">
        <ele>435.00000</ele>
        <time>2024-02-02T12:33:04Z</time>
      </trkpt>
      <trkpt lat="42.86732104" lon="13.52753114">
        <ele>435.00000</ele>
        <time>2024-02-02T12:33:05Z</time>
      </trkpt>
      <trkpt lat="42.86732481" lon="13.52746870">
        <ele>435.00000</ele>
        <time>2024-02-02T12:33:06Z</time>
      </trkpt>
      <trkpt lat="42.86732540" lon="13.52739661">
        <ele>434.00000</ele>
        <time>2024-02-02T12:33:07Z</time>
      </trkpt>
      <trkpt lat="42.86730771" lon="13.52734238">
        <ele>435.00000</ele>
        <time>2024-02-02T12:33:08Z</time>
      </trkpt>
      <trkpt lat="42.86728818" lon="13.52729452">
        <ele>436.00000</ele>
        <time>2024-02-02T12:33:09Z</time>
      </trkpt>
      <trkpt lat="42.86727720" lon="13.52725915">
        <ele>436.00000</ele>
        <time>2024-02-02T12:33:10Z</time>
      </trkpt>
      <trkpt lat="42.86726597" lon="13.52722336">
        <ele>437.00000</ele>
        <time>2024-02-02T12:33:11Z</time>
      </trkpt>
      <trkpt lat="42.86726287" lon="13.52718573">
        <ele>437.00000</ele>
        <time>2024-02-02T12:33:12Z</time>
      </trkpt>
      <trkpt lat="42.86726354" lon="13.52714826">
        <ele>437.00000</ele>
        <time>2024-02-02T12:33:13Z</time>
      </trkpt>
      <trkpt lat="42.86726161" lon="13.52711071">
        <ele>437.00000</ele>
        <time>2024-02-02T12:33:14Z</time>
      </trkpt>
      <trkpt lat="42.86725801" lon="13.52707173">
        <ele>437.00000</ele>
        <time>2024-02-02T12:33:15Z</time>
      </trkpt>
      <trkpt lat="42.86725181" lon="13.52703133">
        <ele>437.00000</ele>
        <time>2024-02-02T12:33:16Z</time>
      </trkpt>
      <trkpt lat="42.86724359" lon="13.52699973">
        <ele>437.00000</ele>
        <time>2024-02-02T12:33:17Z</time>
      </trkpt>
      <trkpt lat="42.86723831" lon="13.52696989">
        <ele>437.00000</ele>
        <time>2024-02-02T12:33:18Z</time>
      </trkpt>
      <trkpt lat="42.86723680" lon="13.52693804">
        <ele>437.00000</ele>
        <time>2024-02-02T12:33:19Z</time>
      </trkpt>
      <trkpt lat="42.86723655" lon="13.52690124">
        <ele>437.00000</ele>
        <time>2024-02-02T12:33:20Z</time>
      </trkpt>
      <trkpt lat="42.86723462" lon="13.52687057">
        <ele>437.00000</ele>
        <time>2024-02-02T12:33:21Z</time>
      </trkpt>
      <trkpt lat="42.86723177" lon="13.52682220">
        <ele>437.00000</ele>
        <time>2024-02-02T12:33:22Z</time>
      </trkpt>
      <trkpt lat="42.86722968" lon="13.52678155">
        <ele>438.00000</ele>
        <time>2024-02-02T12:33:23Z</time>
      </trkpt>
      <trkpt lat="42.86723127" lon="13.52675112">
        <ele>438.00000</ele>
        <time>2024-02-02T12:33:24Z</time>
      </trkpt>
      <trkpt lat="42.86723278" lon="13.52671810">
        <ele>438.00000</ele>
        <time>2024-02-02T12:33:25Z</time>
      </trkpt>
      <trkpt lat="42.86723010" lon="13.52668281">
        <ele>438.00000</ele>
        <time>2024-02-02T12:33:26Z</time>
      </trkpt>
      <trkpt lat="42.86722440" lon="13.52664769">
        <ele>438.00000</ele>
        <time>2024-02-02T12:33:27Z</time>
      </trkpt>
      <trkpt lat="42.86722180" lon="13.52660696">
        <ele>438.00000</ele>
        <time>2024-02-02T12:33:28Z</time>
      </trkpt>
      <trkpt lat="42.86722339" lon="13.52656379">
        <ele>438.00000</ele>
        <time>2024-02-02T12:33:29Z</time>
      </trkpt>
      <trkpt lat="42.86721669" lon="13.52652087">
        <ele>438.00000</ele>
        <time>2024-02-02T12:33:30Z</time>
      </trkpt>
      <trkpt lat="42.86720277" lon="13.52647938">
        <ele>438.00000</ele>
        <time>2024-02-02T12:33:31Z</time>
      </trkpt>
      <trkpt lat="42.86719171" lon="13.52643605">
        <ele>438.00000</ele>
        <time>2024-02-02T12:33:32Z</time>
      </trkpt>
      <trkpt lat="42.86716983" lon="13.52639154">
        <ele>438.00000</ele>
        <time>2024-02-02T12:33:33Z</time>
      </trkpt>
      <trkpt lat="42.86714946" lon="13.52634846">
        <ele>439.00000</ele>
        <time>2024-02-02T12:33:34Z</time>
      </trkpt>
      <trkpt lat="42.86713907" lon="13.52630906">
        <ele>440.00000</ele>
        <time>2024-02-02T12:33:35Z</time>
      </trkpt>
      <trkpt lat="42.86712893" lon="13.52626807">
        <ele>440.00000</ele>
        <time>2024-02-02T12:33:36Z</time>
      </trkpt>
      <trkpt lat="42.86712029" lon="13.52621820">
        <ele>441.00000</ele>
        <time>2024-02-02T12:33:37Z</time>
      </trkpt>
      <trkpt lat="42.86710462" lon="13.52617009">
        <ele>442.00000</ele>
        <time>2024-02-02T12:33:38Z</time>
      </trkpt>
      <trkpt lat="42.86708434" lon="13.52613220">
        <ele>443.00000</ele>
        <time>2024-02-02T12:33:39Z</time>
      </trkpt>
      <trkpt lat="42.86706506" lon="13.52609968">
        <ele>444.00000</ele>
        <time>2024-02-02T12:33:40Z</time>
      </trkpt>
      <trkpt lat="42.86704394" lon="13.52606096">
        <ele>444.00000</ele>
        <time>2024-02-02T12:33:41Z</time>
      </trkpt>
      <trkpt lat="42.86702784" lon="13.52602710">
        <ele>445.00000</ele>
        <time>2024-02-02T12:33:42Z</time>
      </trkpt>
      <trkpt lat="42.86700982" lon="13.52598938">
        <ele>445.00000</ele>
        <time>2024-02-02T12:33:43Z</time>
      </trkpt>
      <trkpt lat="42.86699532" lon="13.52595308">
        <ele>446.00000</ele>
        <time>2024-02-02T12:33:44Z</time>
      </trkpt>
      <trkpt lat="42.86699146" lon="13.52591075">
        <ele>446.00000</ele>
        <time>2024-02-02T12:33:45Z</time>
      </trkpt>
      <trkpt lat="42.86698786" lon="13.52586834">
        <ele>446.00000</ele>
        <time>2024-02-02T12:33:46Z</time>
      </trkpt>
      <trkpt lat="42.86698141" lon="13.52581922">
        <ele>446.00000</ele>
        <time>2024-02-02T12:33:47Z</time>
      </trkpt>
      <trkpt lat="42.86697302" lon="13.52576642">
        <ele>447.00000</ele>
        <time>2024-02-02T12:33:48Z</time>
      </trkpt>
      <trkpt lat="42.86696967" lon="13.52571579">
        <ele>447.00000</ele>
        <time>2024-02-02T12:33:49Z</time>
      </trkpt>
      <trkpt lat="42.86697001" lon="13.52566198">
        <ele>448.00000</ele>
        <time>2024-02-02T12:33:50Z</time>
      </trkpt>
      <trkpt lat="42.86696305" lon="13.52559769">
        <ele>449.00000</ele>
        <time>2024-02-02T12:33:51Z</time>
      </trkpt>
      <trkpt lat="42.86694528" lon="13.52553156">
        <ele>450.00000</ele>
        <time>2024-02-02T12:33:52Z</time>
      </trkpt>
      <trkpt lat="42.86693019" lon="13.52546978">
        <ele>450.00000</ele>
        <time>2024-02-02T12:33:53Z</time>
      </trkpt>
      <trkpt lat="42.86691117" lon="13.52541035">
        <ele>450.00000</ele>
        <time>2024-02-02T12:33:54Z</time>
      </trkpt>
      <trkpt lat="42.86689113" lon="13.52536275">
        <ele>450.00000</ele>
        <time>2024-02-02T12:33:55Z</time>
      </trkpt>
      <trkpt lat="42.86686012" lon="13.52528588">
        <ele>450.00000</ele>
        <time>2024-02-02T12:33:56Z</time>
      </trkpt>
      <trkpt lat="42.86683724" lon="13.52521824">
        <ele>450.00000</ele>
        <time>2024-02-02T12:33:57Z</time>
      </trkpt>
      <trkpt lat="42.86681687" lon="13.52515270">
        <ele>450.00000</ele>
        <time>2024-02-02T12:33:58Z</time>
      </trkpt>
      <trkpt lat="42.86679566" lon="13.52510215">
        <ele>450.00000</ele>
        <time>2024-02-02T12:33:59Z</time>
      </trkpt>
      <trkpt lat="42.86676297" lon="13.52504733">
        <ele>449.00000</ele>
        <time>2024-02-02T12:34:00Z</time>
      </trkpt>
      <trkpt lat="42.86671495" lon="13.52498229">
        <ele>449.00000</ele>
        <time>2024-02-02T12:34:01Z</time>
      </trkpt>
      <trkpt lat="42.86666985" lon="13.52492211">
        <ele>450.00000</ele>
        <time>2024-02-02T12:34:02Z</time>
      </trkpt>
      <trkpt lat="42.86662191" lon="13.52485992">
        <ele>448.00000</ele>
        <time>2024-02-02T12:34:03Z</time>
      </trkpt>
      <trkpt lat="42.86658427" lon="13.52480719">
        <ele>447.00000</ele>
        <time>2024-02-02T12:34:04Z</time>
      </trkpt>
      <trkpt lat="42.86654144" lon="13.52473008">
        <ele>445.00000</ele>
        <time>2024-02-02T12:34:05Z</time>
      </trkpt>
      <trkpt lat="42.86650498" lon="13.52462355">
        <ele>442.00000</ele>
        <time>2024-02-02T12:34:06Z</time>
      </trkpt>
      <trkpt lat="42.86647958" lon="13.52452338">
        <ele>440.00000</ele>
        <time>2024-02-02T12:34:07Z</time>
      </trkpt>
      <trkpt lat="42.86646123" lon="13.52441526">
        <ele>438.00000</ele>
        <time>2024-02-02T12:34:08Z</time>
      </trkpt>
      <trkpt lat="42.86644865" lon="13.52430101">
        <ele>433.00000</ele>
        <time>2024-02-02T12:34:09Z</time>
      </trkpt>
      <trkpt lat="42.86644052" lon="13.52418241">
        <ele>429.00000</ele>
        <time>2024-02-02T12:34:10Z</time>
      </trkpt>
      <trkpt lat="42.86644002" lon="13.52405668">
        <ele>428.00000</ele>
        <time>2024-02-02T12:34:11Z</time>
      </trkpt>
      <trkpt lat="42.86645779" lon="13.52392743">
        <ele>429.00000</ele>
        <time>2024-02-02T12:34:12Z</time>
      </trkpt>
      <trkpt lat="42.86649500" lon="13.52379843">
        <ele>431.00000</ele>
        <time>2024-02-02T12:34:13Z</time>
      </trkpt>
      <trkpt lat="42.86653582" lon="13.52369240">
        <ele>433.00000</ele>
        <time>2024-02-02T12:34:14Z</time>
      </trkpt>
      <trkpt lat="42.86659089" lon="13.52355619">
        <ele>435.00000</ele>
        <time>2024-02-02T12:34:15Z</time>
      </trkpt>
      <trkpt lat="42.86664873" lon="13.52338403">
        <ele>436.00000</ele>
        <time>2024-02-02T12:34:16Z</time>
      </trkpt>
      <trkpt lat="42.86667027" lon="13.52324129">
        <ele>434.00000</ele>
        <time>2024-02-02T12:34:17Z</time>
      </trkpt>
      <trkpt lat="42.86667203" lon="13.52311422">
        <ele>432.00000</ele>
        <time>2024-02-02T12:34:18Z</time>
      </trkpt>
      <trkpt lat="42.86666306" lon="13.52302872">
        <ele>432.00000</ele>
        <time>2024-02-02T12:34:19Z</time>
      </trkpt>
      <trkpt lat="42.86664554" lon="13.52292839">
        <ele>432.00000</ele>
        <time>2024-02-02T12:34:20Z</time>
      </trkpt>
      <trkpt lat="42.86662702" lon="13.52281372">
        <ele>432.00000</ele>
        <time>2024-02-02T12:34:21Z</time>
      </trkpt>
      <trkpt lat="42.86661445" lon="13.52272446">
        <ele>432.00000</ele>
        <time>2024-02-02T12:34:22Z</time>
      </trkpt>
      <trkpt lat="42.86660254" lon="13.52263812">
        <ele>433.00000</ele>
        <time>2024-02-02T12:34:23Z</time>
      </trkpt>
      <trkpt lat="42.86659416" lon="13.52257442">
        <ele>434.00000</ele>
        <time>2024-02-02T12:34:24Z</time>
      </trkpt>
      <trkpt lat="42.86658251" lon="13.52249957">
        <ele>435.00000</ele>
        <time>2024-02-02T12:34:25Z</time>
      </trkpt>
      <trkpt lat="42.86657321" lon="13.52241760">
        <ele>437.00000</ele>
        <time>2024-02-02T12:34:26Z</time>
      </trkpt>
      <trkpt lat="42.86657270" lon="13.52235272">
        <ele>439.00000</ele>
        <time>2024-02-02T12:34:27Z</time>
      </trkpt>
      <trkpt lat="42.86657086" lon="13.52229195">
        <ele>440.00000</ele>
        <time>2024-02-02T12:34:28Z</time>
      </trkpt>
      <trkpt lat="42.86656575" lon="13.52224317">
        <ele>441.00000</ele>
        <time>2024-02-02T12:34:29Z</time>
      </trkpt>
      <trkpt lat="42.86655879" lon="13.52218089">
        <ele>442.00000</ele>
        <time>2024-02-02T12:34:30Z</time>
      </trkpt>
      <trkpt lat="42.86654991" lon="13.52210344">
        <ele>442.00000</ele>
        <time>2024-02-02T12:34:31Z</time>
      </trkpt>
      <trkpt lat="42.86654278" lon="13.52203966">
        <ele>441.00000</ele>
        <time>2024-02-02T12:34:32Z</time>
      </trkpt>
      <trkpt lat="42.86654161" lon="13.52197553">
        <ele>441.00000</ele>
        <time>2024-02-02T12:34:33Z</time>
      </trkpt>
      <trkpt lat="42.86653960" lon="13.52192164">
        <ele>441.00000</ele>
        <time>2024-02-02T12:34:34Z</time>
      </trkpt>
      <trkpt lat="42.86653088" lon="13.52184209">
        <ele>441.00000</ele>
        <time>2024-02-02T12:34:35Z</time>
      </trkpt>
      <trkpt lat="42.86651420" lon="13.52177940">
        <ele>441.00000</ele>
        <time>2024-02-02T12:34:36Z</time>
      </trkpt>
      <trkpt lat="42.86648520" lon="13.52172140">
        <ele>442.00000</ele>
        <time>2024-02-02T12:34:37Z</time>
      </trkpt>
      <trkpt lat="42.86645444" lon="13.52166934">
        <ele>443.00000</ele>
        <time>2024-02-02T12:34:38Z</time>
      </trkpt>
      <trkpt lat="42.86642988" lon="13.52163121">
        <ele>443.00000</ele>
        <time>2024-02-02T12:34:39Z</time>
      </trkpt>
      <trkpt lat="42.86639518" lon="13.52158972">
        <ele>444.00000</ele>
        <time>2024-02-02T12:34:40Z</time>
      </trkpt>
      <trkpt lat="42.86634983" lon="13.52154613">
        <ele>445.00000</ele>
        <time>2024-02-02T12:34:41Z</time>
      </trkpt>
      <trkpt lat="42.86631127" lon="13.52151704">
        <ele>446.00000</ele>
        <time>2024-02-02T12:34:42Z</time>
      </trkpt>
      <trkpt lat="42.86627272" lon="13.52149173">
        <ele>447.00000</ele>
        <time>2024-02-02T12:34:43Z</time>
      </trkpt>
      <trkpt lat="42.86623341" lon="13.52147245">
        <ele>447.00000</ele>
        <time>2024-02-02T12:34:44Z</time>
      </trkpt>
      <trkpt lat="42.86619502" lon="13.52145963">
        <ele>448.00000</ele>
        <time>2024-02-02T12:34:45Z</time>
      </trkpt>
      <trkpt lat="42.86615604" lon="13.52145032">
        <ele>449.00000</ele>
        <time>2024-02-02T12:34:46Z</time>
      </trkpt>
      <trkpt lat="42.86611765" lon="13.52144077">
        <ele>450.00000</ele>
        <time>2024-02-02T12:34:47Z</time>
      </trkpt>
      <trkpt lat="42.86608689" lon="13.52143440">
        <ele>450.00000</ele>
        <time>2024-02-02T12:34:48Z</time>
      </trkpt>
      <trkpt lat="42.86604942" lon="13.52142434">
        <ele>450.00000</ele>
        <time>2024-02-02T12:34:49Z</time>
      </trkpt>
      <trkpt lat="42.86600634" lon="13.52141001">
        <ele>450.00000</ele>
        <time>2024-02-02T12:34:50Z</time>
      </trkpt>
      <trkpt lat="42.86596820" lon="13.52139987">
        <ele>450.00000</ele>
        <time>2024-02-02T12:34:51Z</time>
      </trkpt>
      <trkpt lat="42.86593384" lon="13.52138461">
        <ele>450.00000</ele>
        <time>2024-02-02T12:34:52Z</time>
      </trkpt>
      <trkpt lat="42.86590534" lon="13.52136818">
        <ele>450.00000</ele>
        <time>2024-02-02T12:34:53Z</time>
      </trkpt>
      <trkpt lat="42.86587039" lon="13.52134572">
        <ele>449.00000</ele>
        <time>2024-02-02T12:34:54Z</time>
      </trkpt>
      <trkpt lat="42.86583200" lon="13.52131244">
        <ele>448.00000</ele>
        <time>2024-02-02T12:34:55Z</time>
      </trkpt>
      <trkpt lat="42.86579973" lon="13.52128730">
        <ele>447.00000</ele>
        <time>2024-02-02T12:34:56Z</time>
      </trkpt>
      <trkpt lat="42.86577223" lon="13.52125871">
        <ele>447.00000</ele>
        <time>2024-02-02T12:34:57Z</time>
      </trkpt>
      <trkpt lat="42.86574658" lon="13.52122477">
        <ele>446.00000</ele>
        <time>2024-02-02T12:34:58Z</time>
      </trkpt>
      <trkpt lat="42.86572781" lon="13.52119803">
        <ele>446.00000</ele>
        <time>2024-02-02T12:34:59Z</time>
      </trkpt>
      <trkpt lat="42.86570283" lon="13.52115176">
        <ele>445.00000</ele>
        <time>2024-02-02T12:35:00Z</time>
      </trkpt>
      <trkpt lat="42.86568456" lon="13.52110474">
        <ele>445.00000</ele>
        <time>2024-02-02T12:35:01Z</time>
      </trkpt>
      <trkpt lat="42.86566595" lon="13.52105604">
        <ele>445.00000</ele>
        <time>2024-02-02T12:35:02Z</time>
      </trkpt>
      <trkpt lat="42.86565229" lon="13.52100349">
        <ele>445.00000</ele>
        <time>2024-02-02T12:35:03Z</time>
      </trkpt>
      <trkpt lat="42.86564525" lon="13.52095764">
        <ele>445.00000</ele>
        <time>2024-02-02T12:35:04Z</time>
      </trkpt>
      <trkpt lat="42.86563519" lon="13.52089050">
        <ele>444.00000</ele>
        <time>2024-02-02T12:35:05Z</time>
      </trkpt>
      <trkpt lat="42.86562932" lon="13.52083300">
        <ele>444.00000</ele>
        <time>2024-02-02T12:35:06Z</time>
      </trkpt>
      <trkpt lat="42.86562396" lon="13.52077541">
        <ele>445.00000</ele>
        <time>2024-02-02T12:35:07Z</time>
      </trkpt>
      <trkpt lat="42.86561767" lon="13.52073065">
        <ele>445.00000</ele>
        <time>2024-02-02T12:35:08Z</time>
      </trkpt>
      <trkpt lat="42.86561222" lon="13.52066284">
        <ele>446.00000</ele>
        <time>2024-02-02T12:35:09Z</time>
      </trkpt>
      <trkpt lat="42.86560719" lon="13.52060501">
        <ele>447.00000</ele>
        <time>2024-02-02T12:35:10Z</time>
      </trkpt>
      <trkpt lat="42.86560158" lon="13.52054659">
        <ele>448.00000</ele>
        <time>2024-02-02T12:35:11Z</time>
      </trkpt>
      <trkpt lat="42.86559378" lon="13.52048716">
        <ele>448.00000</ele>
        <time>2024-02-02T12:35:12Z</time>
      </trkpt>
      <trkpt lat="42.86558666" lon="13.52043888">
        <ele>447.00000</ele>
        <time>2024-02-02T12:35:13Z</time>
      </trkpt>
      <trkpt lat="42.86557476" lon="13.52038021">
        <ele>447.00000</ele>
        <time>2024-02-02T12:35:14Z</time>
      </trkpt>
      <trkpt lat="42.86555615" lon="13.52031114">
        <ele>447.00000</ele>
        <time>2024-02-02T12:35:15Z</time>
      </trkpt>
      <trkpt lat="42.86553486" lon="13.52025666">
        <ele>446.00000</ele>
        <time>2024-02-02T12:35:16Z</time>
      </trkpt>
      <trkpt lat="42.86550527" lon="13.52020603">
        <ele>446.00000</ele>
        <time>2024-02-02T12:35:17Z</time>
      </trkpt>
      <trkpt lat="42.86547820" lon="13.52016655">
        <ele>445.00000</ele>
        <time>2024-02-02T12:35:18Z</time>
      </trkpt>
      <trkpt lat="42.86544165" lon="13.52012112">
        <ele>445.00000</ele>
        <time>2024-02-02T12:35:19Z</time>
      </trkpt>
      <trkpt lat="42.86539379" lon="13.52007343">
        <ele>444.00000</ele>
        <time>2024-02-02T12:35:20Z</time>
      </trkpt>
      <trkpt lat="42.86535180" lon="13.52003948">
        <ele>444.00000</ele>
        <time>2024-02-02T12:35:21Z</time>
      </trkpt>
      <trkpt lat="42.86530947" lon="13.52000596">
        <ele>444.00000</ele>
        <time>2024-02-02T12:35:22Z</time>
      </trkpt>
      <trkpt lat="42.86527602" lon="13.51997846">
        <ele>444.00000</ele>
        <time>2024-02-02T12:35:23Z</time>
      </trkpt>
      <trkpt lat="42.86523462" lon="13.51994435">
        <ele>444.00000</ele>
        <time>2024-02-02T12:35:24Z</time>
      </trkpt>
      <trkpt lat="42.86518407" lon="13.51990353">
        <ele>445.00000</ele>
        <time>2024-02-02T12:35:25Z</time>
      </trkpt>
      <trkpt lat="42.86514183" lon="13.51987268">
        <ele>446.00000</ele>
        <time>2024-02-02T12:35:26Z</time>
      </trkpt>
      <trkpt lat="42.86509984" lon="13.51984393">
        <ele>447.00000</ele>
        <time>2024-02-02T12:35:27Z</time>
      </trkpt>
      <trkpt lat="42.86506731" lon="13.51981996">
        <ele>447.00000</ele>
        <time>2024-02-02T12:35:28Z</time>
      </trkpt>
      <trkpt lat="42.86502784" lon="13.51978635">
        <ele>448.00000</ele>
        <time>2024-02-02T12:35:29Z</time>
      </trkpt>
      <trkpt lat="42.86498257" lon="13.51974251">
        <ele>449.00000</ele>
        <time>2024-02-02T12:35:30Z</time>
      </trkpt>
      <trkpt lat="42.86494469" lon="13.51971477">
        <ele>450.00000</ele>
        <time>2024-02-02T12:35:31Z</time>
      </trkpt>
      <trkpt lat="42.86491099" lon="13.51969096">
        <ele>451.00000</ele>
        <time>2024-02-02T12:35:32Z</time>
      </trkpt>
      <trkpt lat="42.86488308" lon="13.51967227">
        <ele>452.00000</ele>
        <time>2024-02-02T12:35:33Z</time>
      </trkpt>
      <trkpt lat="42.86484377" lon="13.51964989">
        <ele>453.00000</ele>
        <time>2024-02-02T12:35:34Z</time>
      </trkpt>
      <trkpt lat="42.86479683" lon="13.51962550">
        <ele>454.00000</ele>
        <time>2024-02-02T12:35:35Z</time>
      </trkpt>
      <trkpt lat="42.86475928" lon="13.51960756">
        <ele>455.00000</ele>
        <time>2024-02-02T12:35:36Z</time>
      </trkpt>
      <trkpt lat="42.86471729" lon="13.51959256">
        <ele>456.00000</ele>
        <time>2024-02-02T12:35:37Z</time>
      </trkpt>
      <trkpt lat="42.86468351" lon="13.51958309">
        <ele>457.00000</ele>
        <time>2024-02-02T12:35:38Z</time>
      </trkpt>
      <trkpt lat="42.86464177" lon="13.51957160">
        <ele>457.00000</ele>
        <time>2024-02-02T12:35:39Z</time>
      </trkpt>
      <trkpt lat="42.86459432" lon="13.51955585">
        <ele>458.00000</ele>
        <time>2024-02-02T12:35:40Z</time>
      </trkpt>
      <trkpt lat="42.86455485" lon="13.51954512">
        <ele>458.00000</ele>
        <time>2024-02-02T12:35:41Z</time>
      </trkpt>
      <trkpt lat="42.86451662" lon="13.51953682">
        <ele>459.00000</ele>
        <time>2024-02-02T12:35:42Z</time>
      </trkpt>
      <trkpt lat="42.86447916" lon="13.51952844">
        <ele>459.00000</ele>
        <time>2024-02-02T12:35:43Z</time>
      </trkpt>
      <trkpt lat="42.86444043" lon="13.51951871">
        <ele>459.00000</ele>
        <time>2024-02-02T12:35:44Z</time>
      </trkpt>
      <trkpt lat="42.86440305" lon="13.51950396">
        <ele>460.00000</ele>
        <time>2024-02-02T12:35:45Z</time>
      </trkpt>
      <trkpt lat="42.86436650" lon="13.51948678">
        <ele>460.00000</ele>
        <time>2024-02-02T12:35:46Z</time>
      </trkpt>
      <trkpt lat="42.86433063" lon="13.51946641">
        <ele>460.00000</ele>
        <time>2024-02-02T12:35:47Z</time>
      </trkpt>
      <trkpt lat="42.86430347" lon="13.51944068">
        <ele>461.00000</ele>
        <time>2024-02-02T12:35:48Z</time>
      </trkpt>
      <trkpt lat="42.86426835" lon="13.51940900">
        <ele>462.00000</ele>
        <time>2024-02-02T12:35:49Z</time>
      </trkpt>
      <trkpt lat="42.86422410" lon="13.51936365">
        <ele>462.00000</ele>
        <time>2024-02-02T12:35:50Z</time>
      </trkpt>
      <trkpt lat="42.86419375" lon="13.51932015">
        <ele>463.00000</ele>
        <time>2024-02-02T12:35:51Z</time>
      </trkpt>
      <trkpt lat="42.86416182" lon="13.51927891">
        <ele>464.00000</ele>
        <time>2024-02-02T12:35:52Z</time>
      </trkpt>
      <trkpt lat="42.86413357" lon="13.51925058">
        <ele>464.00000</ele>
        <time>2024-02-02T12:35:53Z</time>
      </trkpt>
      <trkpt lat="42.86409619" lon="13.51921998">
        <ele>465.00000</ele>
        <time>2024-02-02T12:35:54Z</time>
      </trkpt>
      <trkpt lat="42.86404933" lon="13.51919098">
        <ele>465.00000</ele>
        <time>2024-02-02T12:35:55Z</time>
      </trkpt>
      <trkpt lat="42.86400566" lon="13.51917288">
        <ele>465.00000</ele>
        <time>2024-02-02T12:35:56Z</time>
      </trkpt>
      <trkpt lat="42.86396300" lon="13.51915720">
        <ele>465.00000</ele>
        <time>2024-02-02T12:35:57Z</time>
      </trkpt>
      <trkpt lat="42.86392092" lon="13.51914321">
        <ele>465.00000</ele>
        <time>2024-02-02T12:35:58Z</time>
      </trkpt>
      <trkpt lat="42.86388580" lon="13.51913432">
        <ele>465.00000</ele>
        <time>2024-02-02T12:35:59Z</time>
      </trkpt>
      <trkpt lat="42.86383358" lon="13.51912150">
        <ele>463.00000</ele>
        <time>2024-02-02T12:36:00Z</time>
      </trkpt>
      <trkpt lat="42.86379109" lon="13.51910951">
        <ele>461.00000</ele>
        <time>2024-02-02T12:36:01Z</time>
      </trkpt>
      <trkpt lat="42.86374985" lon="13.51909769">
        <ele>460.00000</ele>
        <time>2024-02-02T12:36:02Z</time>
      </trkpt>
      <trkpt lat="42.86371213" lon="13.51908118">
        <ele>458.00000</ele>
        <time>2024-02-02T12:36:03Z</time>
      </trkpt>
      <trkpt lat="42.86368179" lon="13.51906534">
        <ele>457.00000</ele>
        <time>2024-02-02T12:36:04Z</time>
      </trkpt>
      <trkpt lat="42.86364834" lon="13.51903961">
        <ele>456.00000</ele>
        <time>2024-02-02T12:36:05Z</time>
      </trkpt>
      <trkpt lat="42.86361934" lon="13.51899619">
        <ele>455.00000</ele>
        <time>2024-02-02T12:36:06Z</time>
      </trkpt>
      <trkpt lat="42.86361037" lon="13.51895000">
        <ele>455.00000</ele>
        <time>2024-02-02T12:36:07Z</time>
      </trkpt>
      <trkpt lat="42.86360643" lon="13.51891279">
        <ele>455.00000</ele>
        <time>2024-02-02T12:36:08Z</time>
      </trkpt>
      <trkpt lat="42.86360358" lon="13.51886476">
        <ele>455.00000</ele>
        <time>2024-02-02T12:36:09Z</time>
      </trkpt>
      <trkpt lat="42.86360417" lon="13.51880659">
        <ele>456.00000</ele>
        <time>2024-02-02T12:36:10Z</time>
      </trkpt>
      <trkpt lat="42.86360769" lon="13.51876082">
        <ele>457.00000</ele>
        <time>2024-02-02T12:36:11Z</time>
      </trkpt>
      <trkpt lat="42.86361557" lon="13.51871531">
        <ele>458.00000</ele>
        <time>2024-02-02T12:36:12Z</time>
      </trkpt>
      <trkpt lat="42.86362638" lon="13.51867466">
        <ele>459.00000</ele>
        <time>2024-02-02T12:36:13Z</time>
      </trkpt>
      <trkpt lat="42.86363669" lon="13.51862135">
        <ele>460.00000</ele>
        <time>2024-02-02T12:36:14Z</time>
      </trkpt>
      <trkpt lat="42.86364985" lon="13.51855689">
        <ele>462.00000</ele>
        <time>2024-02-02T12:36:15Z</time>
      </trkpt>
      <trkpt lat="42.86365991" lon="13.51850291">
        <ele>463.00000</ele>
        <time>2024-02-02T12:36:16Z</time>
      </trkpt>
      <trkpt lat="42.86366611" lon="13.51844759">
        <ele>463.00000</ele>
        <time>2024-02-02T12:36:17Z</time>
      </trkpt>
      <trkpt lat="42.86366963" lon="13.51840099">
        <ele>464.00000</ele>
        <time>2024-02-02T12:36:18Z</time>
      </trkpt>
      <trkpt lat="42.86367575" lon="13.51834483">
        <ele>465.00000</ele>
        <time>2024-02-02T12:36:19Z</time>
      </trkpt>
      <trkpt lat="42.86368832" lon="13.51828088">
        <ele>465.00000</ele>
        <time>2024-02-02T12:36:20Z</time>
      </trkpt>
      <trkpt lat="42.86370056" lon="13.51823075">
        <ele>465.00000</ele>
        <time>2024-02-02T12:36:21Z</time>
      </trkpt>
      <trkpt lat="42.86371481" lon="13.51818415">
        <ele>465.00000</ele>
        <time>2024-02-02T12:36:22Z</time>
      </trkpt>
      <trkpt lat="42.86372847" lon="13.51814500">
        <ele>465.00000</ele>
        <time>2024-02-02T12:36:23Z</time>
      </trkpt>
      <trkpt lat="42.86374448" lon="13.51809932">
        <ele>465.00000</ele>
        <time>2024-02-02T12:36:24Z</time>
      </trkpt>
      <trkpt lat="42.86376552" lon="13.51804794">
        <ele>465.00000</ele>
        <time>2024-02-02T12:36:25Z</time>
      </trkpt>
      <trkpt lat="42.86378002" lon="13.51801374">
        <ele>465.00000</ele>
        <time>2024-02-02T12:36:26Z</time>
      </trkpt>
      <trkpt lat="42.86379394" lon="13.51796848">
        <ele>465.00000</ele>
        <time>2024-02-02T12:36:27Z</time>
      </trkpt>
      <trkpt lat="42.86380534" lon="13.51791668">
        <ele>465.00000</ele>
        <time>2024-02-02T12:36:28Z</time>
      </trkpt>
      <trkpt lat="42.86381330" lon="13.51786329">
        <ele>465.00000</ele>
        <time>2024-02-02T12:36:29Z</time>
      </trkpt>
      <trkpt lat="42.86382076" lon="13.51779908">
        <ele>465.00000</ele>
        <time>2024-02-02T12:36:30Z</time>
      </trkpt>
      <trkpt lat="42.86382713" lon="13.51774401">
        <ele>465.00000</ele>
        <time>2024-02-02T12:36:31Z</time>
      </trkpt>
      <trkpt lat="42.86383316" lon="13.51768459">
        <ele>465.00000</ele>
        <time>2024-02-02T12:36:32Z</time>
      </trkpt>
      <trkpt lat="42.86383543" lon="13.51763564">
        <ele>465.00000</ele>
        <time>2024-02-02T12:36:33Z</time>
      </trkpt>
      <trkpt lat="42.86383551" lon="13.51757152">
        <ele>465.00000</ele>
        <time>2024-02-02T12:36:34Z</time>
      </trkpt>
      <trkpt lat="42.86383803" lon="13.51749046">
        <ele>465.00000</ele>
        <time>2024-02-02T12:36:35Z</time>
      </trkpt>
      <trkpt lat="42.86383635" lon="13.51741905">
        <ele>466.00000</ele>
        <time>2024-02-02T12:36:36Z</time>
      </trkpt>
      <trkpt lat="42.86382839" lon="13.51734604">
        <ele>467.00000</ele>
        <time>2024-02-02T12:36:37Z</time>
      </trkpt>
      <trkpt lat="42.86381657" lon="13.51728485">
        <ele>467.00000</ele>
        <time>2024-02-02T12:36:38Z</time>
      </trkpt>
      <trkpt lat="42.86380299" lon="13.51720992">
        <ele>468.00000</ele>
        <time>2024-02-02T12:36:39Z</time>
      </trkpt>
      <trkpt lat="42.86378597" lon="13.51711663">
        <ele>469.00000</ele>
        <time>2024-02-02T12:36:40Z</time>
      </trkpt>
      <trkpt lat="42.86377164" lon="13.51703566">
        <ele>469.00000</ele>
        <time>2024-02-02T12:36:41Z</time>
      </trkpt>
      <trkpt lat="42.86375773" lon="13.51695436">
        <ele>470.00000</ele>
        <time>2024-02-02T12:36:42Z</time>
      </trkpt>
      <trkpt lat="42.86374582" lon="13.51688998">
        <ele>471.00000</ele>
        <time>2024-02-02T12:36:43Z</time>
      </trkpt>
      <trkpt lat="42.86373116" lon="13.51681069">
        <ele>471.00000</ele>
        <time>2024-02-02T12:36:44Z</time>
      </trkpt>
      <trkpt lat="42.86371800" lon="13.51673408">
        <ele>471.00000</ele>
        <time>2024-02-02T12:36:45Z</time>
      </trkpt>
      <trkpt lat="42.86369972" lon="13.51664389">
        <ele>470.00000</ele>
        <time>2024-02-02T12:36:46Z</time>
      </trkpt>
      <trkpt lat="42.86368120" lon="13.51656611">
        <ele>469.00000</ele>
        <time>2024-02-02T12:36:47Z</time>
      </trkpt>
      <trkpt lat="42.86366427" lon="13.51650165">
        <ele>468.00000</ele>
        <time>2024-02-02T12:36:48Z</time>
      </trkpt>
      <trkpt lat="42.86364591" lon="13.51642085">
        <ele>467.00000</ele>
        <time>2024-02-02T12:36:49Z</time>
      </trkpt>
      <trkpt lat="42.86362647" lon="13.51631901">
        <ele>465.00000</ele>
        <time>2024-02-02T12:36:50Z</time>
      </trkpt>
      <trkpt lat="42.86360995" lon="13.51622421">
        <ele>463.00000</ele>
        <time>2024-02-02T12:36:51Z</time>
      </trkpt>
      <trkpt lat="42.86359042" lon="13.51612212">
        <ele>461.00000</ele>
        <time>2024-02-02T12:36:52Z</time>
      </trkpt>
      <trkpt lat="42.86357400" lon="13.51603310">
        <ele>460.00000</ele>
        <time>2024-02-02T12:36:53Z</time>
      </trkpt>
      <trkpt lat="42.86355103" lon="13.51591575">
        <ele>458.00000</ele>
        <time>2024-02-02T12:36:54Z</time>
      </trkpt>
      <trkpt lat="42.86352178" lon="13.51576622">
        <ele>456.00000</ele>
        <time>2024-02-02T12:36:55Z</time>
      </trkpt>
      <trkpt lat="42.86349512" lon="13.51563110">
        <ele>455.00000</ele>
        <time>2024-02-02T12:36:56Z</time>
      </trkpt>
      <trkpt lat="42.86347140" lon="13.51551912">
        <ele>455.00000</ele>
        <time>2024-02-02T12:36:57Z</time>
      </trkpt>
      <trkpt lat="42.86343712" lon="13.51537780">
        <ele>454.00000</ele>
        <time>2024-02-02T12:36:58Z</time>
      </trkpt>
      <trkpt lat="42.86338373" lon="13.51521100">
        <ele>454.00000</ele>
        <time>2024-02-02T12:36:59Z</time>
      </trkpt>
      <trkpt lat="42.86332623" lon="13.51507874">
        <ele>454.00000</ele>
        <time>2024-02-02T12:37:00Z</time>
      </trkpt>
      <trkpt lat="42.86325724" lon="13.51496256">
        <ele>453.00000</ele>
        <time>2024-02-02T12:37:01Z</time>
      </trkpt>
      <trkpt lat="42.86318382" lon="13.51486341">
        <ele>453.00000</ele>
        <time>2024-02-02T12:37:02Z</time>
      </trkpt>
      <trkpt lat="42.86310796" lon="13.51477246">
        <ele>453.00000</ele>
        <time>2024-02-02T12:37:03Z</time>
      </trkpt>
      <trkpt lat="42.86303755" lon="13.51467892">
        <ele>453.00000</ele>
        <time>2024-02-02T12:37:04Z</time>
      </trkpt>
      <trkpt lat="42.86297167" lon="13.51458789">
        <ele>454.00000</ele>
        <time>2024-02-02T12:37:05Z</time>
      </trkpt>
      <trkpt lat="42.86290897" lon="13.51450516">
        <ele>455.00000</ele>
        <time>2024-02-02T12:37:06Z</time>
      </trkpt>
      <trkpt lat="42.86285449" lon="13.51442855">
        <ele>457.00000</ele>
        <time>2024-02-02T12:37:07Z</time>
      </trkpt>
      <trkpt lat="42.86280630" lon="13.51435697">
        <ele>459.00000</ele>
        <time>2024-02-02T12:37:08Z</time>
      </trkpt>
      <trkpt lat="42.86276791" lon="13.51429193">
        <ele>460.00000</ele>
        <time>2024-02-02T12:37:09Z</time>
      </trkpt>
      <trkpt lat="42.86273765" lon="13.51423594">
        <ele>461.00000</ele>
        <time>2024-02-02T12:37:10Z</time>
      </trkpt>
      <trkpt lat="42.86271099" lon="13.51418799">
        <ele>462.00000</ele>
        <time>2024-02-02T12:37:11Z</time>
      </trkpt>
      <trkpt lat="42.86268719" lon="13.51414374">
        <ele>462.00000</ele>
        <time>2024-02-02T12:37:12Z</time>
      </trkpt>
      <trkpt lat="42.86266422" lon="13.51410258">
        <ele>463.00000</ele>
        <time>2024-02-02T12:37:13Z</time>
      </trkpt>
      <trkpt lat="42.86264159" lon="13.51406461">
        <ele>464.00000</ele>
        <time>2024-02-02T12:37:14Z</time>
      </trkpt>
      <trkpt lat="42.86262391" lon="13.51402605">
        <ele>464.00000</ele>
        <time>2024-02-02T12:37:15Z</time>
      </trkpt>
      <trkpt lat="42.86260689" lon="13.51398599">
        <ele>465.00000</ele>
        <time>2024-02-02T12:37:16Z</time>
      </trkpt>
      <trkpt lat="42.86258711" lon="13.51394793">
        <ele>466.00000</ele>
        <time>2024-02-02T12:37:17Z</time>
      </trkpt>
      <trkpt lat="42.86256976" lon="13.51391156">
        <ele>466.00000</ele>
        <time>2024-02-02T12:37:18Z</time>
      </trkpt>
      <trkpt lat="42.86255350" lon="13.51387493">
        <ele>467.00000</ele>
        <time>2024-02-02T12:37:19Z</time>
      </trkpt>
      <trkpt lat="42.86253933" lon="13.51383319">
        <ele>468.00000</ele>
        <time>2024-02-02T12:37:20Z</time>
      </trkpt>
      <trkpt lat="42.86252534" lon="13.51379052">
        <ele>469.00000</ele>
        <time>2024-02-02T12:37:21Z</time>
      </trkpt>
      <trkpt lat="42.86251134" lon="13.51374777">
        <ele>469.00000</ele>
        <time>2024-02-02T12:37:22Z</time>
      </trkpt>
      <trkpt lat="42.86250203" lon="13.51370880">
        <ele>470.00000</ele>
        <time>2024-02-02T12:37:23Z</time>
      </trkpt>
      <trkpt lat="42.86249390" lon="13.51366890">
        <ele>471.00000</ele>
        <time>2024-02-02T12:37:24Z</time>
      </trkpt>
      <trkpt lat="42.86248586" lon="13.51362674">
        <ele>471.00000</ele>
        <time>2024-02-02T12:37:25Z</time>
      </trkpt>
      <trkpt lat="42.86247823" lon="13.51358466">
        <ele>471.00000</ele>
        <time>2024-02-02T12:37:26Z</time>
      </trkpt>
      <trkpt lat="42.86247437" lon="13.51354418">
        <ele>472.00000</ele>
        <time>2024-02-02T12:37:27Z</time>
      </trkpt>
      <trkpt lat="42.86247161" lon="13.51350218">
        <ele>473.00000</ele>
        <time>2024-02-02T12:37:28Z</time>
      </trkpt>
      <trkpt lat="42.86246700" lon="13.51345977">
        <ele>473.00000</ele>
        <time>2024-02-02T12:37:29Z</time>
      </trkpt>
      <trkpt lat="42.86246004" lon="13.51341862">
        <ele>474.00000</ele>
        <time>2024-02-02T12:37:30Z</time>
      </trkpt>
      <trkpt lat="42.86245451" lon="13.51337989">
        <ele>474.00000</ele>
        <time>2024-02-02T12:37:31Z</time>
      </trkpt>
      <trkpt lat="42.86244730" lon="13.51333798">
        <ele>475.00000</ele>
        <time>2024-02-02T12:37:32Z</time>
      </trkpt>
      <trkpt lat="42.86244177" lon="13.51329440">
        <ele>475.00000</ele>
        <time>2024-02-02T12:37:33Z</time>
      </trkpt>
      <trkpt lat="42.86243741" lon="13.51325131">
        <ele>475.00000</ele>
        <time>2024-02-02T12:37:34Z</time>
      </trkpt>
      <trkpt lat="42.86243280" lon="13.51320932">
        <ele>475.00000</ele>
        <time>2024-02-02T12:37:35Z</time>
      </trkpt>
      <trkpt lat="42.86242970" lon="13.51316708">
        <ele>475.00000</ele>
        <time>2024-02-02T12:37:36Z</time>
      </trkpt>
      <trkpt lat="42.86242710" lon="13.51312550">
        <ele>476.00000</ele>
        <time>2024-02-02T12:37:37Z</time>
      </trkpt>
      <trkpt lat="42.86242006" lon="13.51308812">
        <ele>476.00000</ele>
        <time>2024-02-02T12:37:38Z</time>
      </trkpt>
      <trkpt lat="42.86241184" lon="13.51304789">
        <ele>476.00000</ele>
        <time>2024-02-02T12:37:39Z</time>
      </trkpt>
      <trkpt lat="42.86240405" lon="13.51300673">
        <ele>476.00000</ele>
        <time>2024-02-02T12:37:40Z</time>
      </trkpt>
      <trkpt lat="42.86239843" lon="13.51296289">
        <ele>476.00000</ele>
        <time>2024-02-02T12:37:41Z</time>
      </trkpt>
      <trkpt lat="42.86239055" lon="13.51291956">
        <ele>476.00000</ele>
        <time>2024-02-02T12:37:42Z</time>
      </trkpt>
      <trkpt lat="42.86238159" lon="13.51287497">
        <ele>476.00000</ele>
        <time>2024-02-02T12:37:43Z</time>
      </trkpt>
      <trkpt lat="42.86237723" lon="13.51282811">
        <ele>477.00000</ele>
        <time>2024-02-02T12:37:44Z</time>
      </trkpt>
      <trkpt lat="42.86237404" lon="13.51278327">
        <ele>477.00000</ele>
        <time>2024-02-02T12:37:45Z</time>
      </trkpt>
      <trkpt lat="42.86237069" lon="13.51273977">
        <ele>477.00000</ele>
        <time>2024-02-02T12:37:46Z</time>
      </trkpt>
      <trkpt lat="42.86236750" lon="13.51269518">
        <ele>477.00000</ele>
        <time>2024-02-02T12:37:47Z</time>
      </trkpt>
      <trkpt lat="42.86236373" lon="13.51264866">
        <ele>477.00000</ele>
        <time>2024-02-02T12:37:48Z</time>
      </trkpt>
      <trkpt lat="42.86235862" lon="13.51260381">
        <ele>477.00000</ele>
        <time>2024-02-02T12:37:49Z</time>
      </trkpt>
      <trkpt lat="42.86235367" lon="13.51255939">
        <ele>477.00000</ele>
        <time>2024-02-02T12:37:50Z</time>
      </trkpt>
      <trkpt lat="42.86234965" lon="13.51251605">
        <ele>477.00000</ele>
        <time>2024-02-02T12:37:51Z</time>
      </trkpt>
      <trkpt lat="42.86234655" lon="13.51246861">
        <ele>477.00000</ele>
        <time>2024-02-02T12:37:52Z</time>
      </trkpt>
      <trkpt lat="42.86234864" lon="13.51242134">
        <ele>477.00000</ele>
        <time>2024-02-02T12:37:53Z</time>
      </trkpt>
      <trkpt lat="42.86234806" lon="13.51237272">
        <ele>478.00000</ele>
        <time>2024-02-02T12:37:54Z</time>
      </trkpt>
      <trkpt lat="42.86235024" lon="13.51232461">
        <ele>478.00000</ele>
        <time>2024-02-02T12:37:55Z</time>
      </trkpt>
      <trkpt lat="42.86235393" lon="13.51227625">
        <ele>478.00000</ele>
        <time>2024-02-02T12:37:56Z</time>
      </trkpt>
      <trkpt lat="42.86235451" lon="13.51222864">
        <ele>478.00000</ele>
        <time>2024-02-02T12:37:57Z</time>
      </trkpt>
      <trkpt lat="42.86235275" lon="13.51218220">
        <ele>478.00000</ele>
        <time>2024-02-02T12:37:58Z</time>
      </trkpt>
      <trkpt lat="42.86235015" lon="13.51213552">
        <ele>478.00000</ele>
        <time>2024-02-02T12:37:59Z</time>
      </trkpt>
      <trkpt lat="42.86234923" lon="13.51208900">
        <ele>479.00000</ele>
        <time>2024-02-02T12:38:00Z</time>
      </trkpt>
      <trkpt lat="42.86234973" lon="13.51204189">
        <ele>479.00000</ele>
        <time>2024-02-02T12:38:01Z</time>
      </trkpt>
      <trkpt lat="42.86234747" lon="13.51199177">
        <ele>479.00000</ele>
        <time>2024-02-02T12:38:02Z</time>
      </trkpt>
      <trkpt lat="42.86234278" lon="13.51194181">
        <ele>479.00000</ele>
        <time>2024-02-02T12:38:03Z</time>
      </trkpt>
      <trkpt lat="42.86234001" lon="13.51189227">
        <ele>479.00000</ele>
        <time>2024-02-02T12:38:04Z</time>
      </trkpt>
      <trkpt lat="42.86233867" lon="13.51183989">
        <ele>479.00000</ele>
        <time>2024-02-02T12:38:05Z</time>
      </trkpt>
      <trkpt lat="42.86233557" lon="13.51178834">
        <ele>479.00000</ele>
        <time>2024-02-02T12:38:06Z</time>
      </trkpt>
      <trkpt lat="42.86233448" lon="13.51173545">
        <ele>479.00000</ele>
        <time>2024-02-02T12:38:07Z</time>
      </trkpt>
      <trkpt lat="42.86233515" lon="13.51167962">
        <ele>479.00000</ele>
        <time>2024-02-02T12:38:08Z</time>
      </trkpt>
      <trkpt lat="42.86233297" lon="13.51162573">
        <ele>480.00000</ele>
        <time>2024-02-02T12:38:09Z</time>
      </trkpt>
      <trkpt lat="42.86233372" lon="13.51156789">
        <ele>481.00000</ele>
        <time>2024-02-02T12:38:10Z</time>
      </trkpt>
      <trkpt lat="42.86233314" lon="13.51150888">
        <ele>482.00000</ele>
        <time>2024-02-02T12:38:11Z</time>
      </trkpt>
      <trkpt lat="42.86233356" lon="13.51144937">
        <ele>483.00000</ele>
        <time>2024-02-02T12:38:12Z</time>
      </trkpt>
      <trkpt lat="42.86232995" lon="13.51139028">
        <ele>484.00000</ele>
        <time>2024-02-02T12:38:13Z</time>
      </trkpt>
      <trkpt lat="42.86232526" lon="13.51132901">
        <ele>484.00000</ele>
        <time>2024-02-02T12:38:14Z</time>
      </trkpt>
      <trkpt lat="42.86231914" lon="13.51126648">
        <ele>485.00000</ele>
        <time>2024-02-02T12:38:15Z</time>
      </trkpt>
      <trkpt lat="42.86231361" lon="13.51120395">
        <ele>486.00000</ele>
        <time>2024-02-02T12:38:16Z</time>
      </trkpt>
      <trkpt lat="42.86230749" lon="13.51114234">
        <ele>487.00000</ele>
        <time>2024-02-02T12:38:17Z</time>
      </trkpt>
      <trkpt lat="42.86230045" lon="13.51108166">
        <ele>487.00000</ele>
        <time>2024-02-02T12:38:18Z</time>
      </trkpt>
      <trkpt lat="42.86229140" lon="13.51102299">
        <ele>488.00000</ele>
        <time>2024-02-02T12:38:19Z</time>
      </trkpt>
      <trkpt lat="42.86228050" lon="13.51096968">
        <ele>488.00000</ele>
        <time>2024-02-02T12:38:20Z</time>
      </trkpt>
      <trkpt lat="42.86226642" lon="13.51091913">
        <ele>488.00000</ele>
        <time>2024-02-02T12:38:21Z</time>
      </trkpt>
      <trkpt lat="42.86225200" lon="13.51086951">
        <ele>489.00000</ele>
        <time>2024-02-02T12:38:22Z</time>
      </trkpt>
      <trkpt lat="42.86223976" lon="13.51081578">
        <ele>489.00000</ele>
        <time>2024-02-02T12:38:23Z</time>
      </trkpt>
      <trkpt lat="42.86222702" lon="13.51075963">
        <ele>489.00000</ele>
        <time>2024-02-02T12:38:24Z</time>
      </trkpt>
      <trkpt lat="42.86221244" lon="13.51070028">
        <ele>489.00000</ele>
        <time>2024-02-02T12:38:25Z</time>
      </trkpt>
      <trkpt lat="42.86219995" lon="13.51064102">
        <ele>489.00000</ele>
        <time>2024-02-02T12:38:26Z</time>
      </trkpt>
      <trkpt lat="42.86218796" lon="13.51058495">
        <ele>488.00000</ele>
        <time>2024-02-02T12:38:27Z</time>
      </trkpt>
      <trkpt lat="42.86217690" lon="13.51052912">
        <ele>489.00000</ele>
        <time>2024-02-02T12:38:28Z</time>
      </trkpt>
      <trkpt lat="42.86215913" lon="13.51046651">
        <ele>491.00000</ele>
        <time>2024-02-02T12:38:29Z</time>
      </trkpt>
      <trkpt lat="42.86213784" lon="13.51039594">
        <ele>494.00000</ele>
        <time>2024-02-02T12:38:30Z</time>
      </trkpt>
      <trkpt lat="42.86211051" lon="13.51032067">
        <ele>496.00000</ele>
        <time>2024-02-02T12:38:31Z</time>
      </trkpt>
      <trkpt lat="42.86207213" lon="13.51024355">
        <ele>498.00000</ele>
        <time>2024-02-02T12:38:32Z</time>
      </trkpt>
      <trkpt lat="42.86202418" lon="13.51016711">
        <ele>499.00000</ele>
        <time>2024-02-02T12:38:33Z</time>
      </trkpt>
      <trkpt lat="42.86196727" lon="13.51009427">
        <ele>500.00000</ele>
        <time>2024-02-02T12:38:34Z</time>
      </trkpt>
      <trkpt lat="42.86190340" lon="13.51002302">
        <ele>500.00000</ele>
        <time>2024-02-02T12:38:35Z</time>
      </trkpt>
      <trkpt lat="42.86183550" lon="13.50995111">
        <ele>500.00000</ele>
        <time>2024-02-02T12:38:36Z</time>
      </trkpt>
      <trkpt lat="42.86176342" lon="13.50988112">
        <ele>500.00000</ele>
        <time>2024-02-02T12:38:37Z</time>
      </trkpt>
      <trkpt lat="42.86168891" lon="13.50981356">
        <ele>501.00000</ele>
        <time>2024-02-02T12:38:38Z</time>
      </trkpt>
      <trkpt lat="42.86161171" lon="13.50974827">
        <ele>501.00000</ele>
        <time>2024-02-02T12:38:39Z</time>
      </trkpt>
      <trkpt lat="42.86153350" lon="13.50968624">
        <ele>500.00000</ele>
        <time>2024-02-02T12:38:40Z</time>
      </trkpt>
      <trkpt lat="42.86145262" lon="13.50962908">
        <ele>500.00000</ele>
        <time>2024-02-02T12:38:41Z</time>
      </trkpt>
      <trkpt lat="42.86136612" lon="13.50957996">
        <ele>498.00000</ele>
        <time>2024-02-02T12:38:42Z</time>
      </trkpt>
      <trkpt lat="42.86127559" lon="13.50954107">
        <ele>495.00000</ele>
        <time>2024-02-02T12:38:43Z</time>
      </trkpt>
      <trkpt lat="42.86118239" lon="13.50950687">
        <ele>492.00000</ele>
        <time>2024-02-02T12:38:44Z</time>
      </trkpt>
      <trkpt lat="42.86109362" lon="13.50945280">
        <ele>489.00000</ele>
        <time>2024-02-02T12:38:45Z</time>
      </trkpt>
      <trkpt lat="42.86101181" lon="13.50938223">
        <ele>486.00000</ele>
        <time>2024-02-02T12:38:46Z</time>
      </trkpt>
      <trkpt lat="42.86094845" lon="13.50928810">
        <ele>484.00000</ele>
        <time>2024-02-02T12:38:47Z</time>
      </trkpt>
      <trkpt lat="42.86090880" lon="13.50917075">
        <ele>483.00000</ele>
        <time>2024-02-02T12:38:48Z</time>
      </trkpt>
      <trkpt lat="42.86087745" lon="13.50904620">
        <ele>485.00000</ele>
        <time>2024-02-02T12:38:49Z</time>
      </trkpt>
      <trkpt lat="42.86084912" lon="13.50892282">
        <ele>487.00000</ele>
        <time>2024-02-02T12:38:50Z</time>
      </trkpt>
      <trkpt lat="42.86081777" lon="13.50879960">
        <ele>487.00000</ele>
        <time>2024-02-02T12:38:51Z</time>
      </trkpt>
      <trkpt lat="42.86078173" lon="13.50867857">
        <ele>487.00000</ele>
        <time>2024-02-02T12:38:52Z</time>
      </trkpt>
      <trkpt lat="42.86073798" lon="13.50856063">
        <ele>485.00000</ele>
        <time>2024-02-02T12:38:53Z</time>
      </trkpt>
      <trkpt lat="42.86069096" lon="13.50844563">
        <ele>483.00000</ele>
        <time>2024-02-02T12:38:54Z</time>
      </trkpt>
      <trkpt lat="42.86064687" lon="13.50833047">
        <ele>482.00000</ele>
        <time>2024-02-02T12:38:55Z</time>
      </trkpt>
      <trkpt lat="42.86060504" lon="13.50821639">
        <ele>482.00000</ele>
        <time>2024-02-02T12:38:56Z</time>
      </trkpt>
      <trkpt lat="42.86056439" lon="13.50809980">
        <ele>482.00000</ele>
        <time>2024-02-02T12:38:57Z</time>
      </trkpt>
      <trkpt lat="42.86052374" lon="13.50798186">
        <ele>482.00000</ele>
        <time>2024-02-02T12:38:58Z</time>
      </trkpt>
      <trkpt lat="42.86048401" lon="13.50786158">
        <ele>481.00000</ele>
        <time>2024-02-02T12:38:59Z</time>
      </trkpt>
      <trkpt lat="42.86044503" lon="13.50773912">
        <ele>481.00000</ele>
        <time>2024-02-02T12:39:00Z</time>
      </trkpt>
      <trkpt lat="42.86040371" lon="13.50761490">
        <ele>480.00000</ele>
        <time>2024-02-02T12:39:01Z</time>
      </trkpt>
      <trkpt lat="42.86035015" lon="13.50749655">
        <ele>479.00000</ele>
        <time>2024-02-02T12:39:02Z</time>
      </trkpt>
      <trkpt lat="42.86029214" lon="13.50738633">
        <ele>477.00000</ele>
        <time>2024-02-02T12:39:03Z</time>
      </trkpt>
      <trkpt lat="42.86021889" lon="13.50728776">
        <ele>476.00000</ele>
        <time>2024-02-02T12:39:04Z</time>
      </trkpt>
      <trkpt lat="42.86013616" lon="13.50720302">
        <ele>475.00000</ele>
        <time>2024-02-02T12:39:05Z</time>
      </trkpt>
      <trkpt lat="42.86004530" lon="13.50714024">
        <ele>474.00000</ele>
        <time>2024-02-02T12:39:06Z</time>
      </trkpt>
      <trkpt lat="42.85995050" lon="13.50709900">
        <ele>473.00000</ele>
        <time>2024-02-02T12:39:07Z</time>
      </trkpt>
      <trkpt lat="42.85985394" lon="13.50706958">
        <ele>473.00000</ele>
        <time>2024-02-02T12:39:08Z</time>
      </trkpt>
      <trkpt lat="42.85975872" lon="13.50703706">
        <ele>474.00000</ele>
        <time>2024-02-02T12:39:09Z</time>
      </trkpt>
      <trkpt lat="42.85966753" lon="13.50698760">
        <ele>474.00000</ele>
        <time>2024-02-02T12:39:10Z</time>
      </trkpt>
      <trkpt lat="42.85958077" lon="13.50691627">
        <ele>474.00000</ele>
        <time>2024-02-02T12:39:11Z</time>
      </trkpt>
      <trkpt lat="42.85950835" lon="13.50683203">
        <ele>474.00000</ele>
        <time>2024-02-02T12:39:12Z</time>
      </trkpt>
      <trkpt lat="42.85945504" lon="13.50673983">
        <ele>475.00000</ele>
        <time>2024-02-02T12:39:13Z</time>
      </trkpt>
      <trkpt lat="42.85941456" lon="13.50665082">
        <ele>475.00000</ele>
        <time>2024-02-02T12:39:14Z</time>
      </trkpt>
      <trkpt lat="42.85937801" lon="13.50657764">
        <ele>475.00000</ele>
        <time>2024-02-02T12:39:15Z</time>
      </trkpt>
      <trkpt lat="42.85934147" lon="13.50652048">
        <ele>475.00000</ele>
        <time>2024-02-02T12:39:16Z</time>
      </trkpt>
      <trkpt lat="42.85930601" lon="13.50646918">
        <ele>475.00000</ele>
        <time>2024-02-02T12:39:17Z</time>
      </trkpt>
      <trkpt lat="42.85927089" lon="13.50641663">
        <ele>475.00000</ele>
        <time>2024-02-02T12:39:18Z</time>
      </trkpt>
      <trkpt lat="42.85923628" lon="13.50636617">
        <ele>476.00000</ele>
        <time>2024-02-02T12:39:19Z</time>
      </trkpt>
      <trkpt lat="42.85920417" lon="13.50632267">
        <ele>477.00000</ele>
        <time>2024-02-02T12:39:20Z</time>
      </trkpt>
      <trkpt lat="42.85917433" lon="13.50628151">
        <ele>477.00000</ele>
        <time>2024-02-02T12:39:21Z</time>
      </trkpt>
      <trkpt lat="42.85914399" lon="13.50624580">
        <ele>477.00000</ele>
        <time>2024-02-02T12:39:22Z</time>
      </trkpt>
      <trkpt lat="42.85911465" lon="13.50621152">
        <ele>477.00000</ele>
        <time>2024-02-02T12:39:23Z</time>
      </trkpt>
      <trkpt lat="42.85908867" lon="13.50617456">
        <ele>478.00000</ele>
        <time>2024-02-02T12:39:24Z</time>
      </trkpt>
      <trkpt lat="42.85906788" lon="13.50613365">
        <ele>478.00000</ele>
        <time>2024-02-02T12:39:25Z</time>
      </trkpt>
      <trkpt lat="42.85904760" lon="13.50609702">
        <ele>478.00000</ele>
        <time>2024-02-02T12:39:26Z</time>
      </trkpt>
      <trkpt lat="42.85903092" lon="13.50605922">
        <ele>478.00000</ele>
        <time>2024-02-02T12:39:27Z</time>
      </trkpt>
      <trkpt lat="42.85901449" lon="13.50601891">
        <ele>479.00000</ele>
        <time>2024-02-02T12:39:28Z</time>
      </trkpt>
      <trkpt lat="42.85899697" lon="13.50598261">
        <ele>479.00000</ele>
        <time>2024-02-02T12:39:29Z</time>
      </trkpt>
      <trkpt lat="42.85898046" lon="13.50594364">
        <ele>480.00000</ele>
        <time>2024-02-02T12:39:30Z</time>
      </trkpt>
      <trkpt lat="42.85896068" lon="13.50590131">
        <ele>480.00000</ele>
        <time>2024-02-02T12:39:31Z</time>
      </trkpt>
      <trkpt lat="42.85893863" lon="13.50585772">
        <ele>481.00000</ele>
        <time>2024-02-02T12:39:32Z</time>
      </trkpt>
      <trkpt lat="42.85891827" lon="13.50581455">
        <ele>482.00000</ele>
        <time>2024-02-02T12:39:33Z</time>
      </trkpt>
      <trkpt lat="42.85889647" lon="13.50577399">
        <ele>484.00000</ele>
        <time>2024-02-02T12:39:34Z</time>
      </trkpt>
      <trkpt lat="42.85887544" lon="13.50573685">
        <ele>485.00000</ele>
        <time>2024-02-02T12:39:35Z</time>
      </trkpt>
      <trkpt lat="42.85885649" lon="13.50570274">
        <ele>485.00000</ele>
        <time>2024-02-02T12:39:36Z</time>
      </trkpt>
      <trkpt lat="42.85883529" lon="13.50566888">
        <ele>486.00000</ele>
        <time>2024-02-02T12:39:37Z</time>
      </trkpt>
      <trkpt lat="42.85881215" lon="13.50563753">
        <ele>487.00000</ele>
        <time>2024-02-02T12:39:38Z</time>
      </trkpt>
      <trkpt lat="42.85878935" lon="13.50560962">
        <ele>487.00000</ele>
        <time>2024-02-02T12:39:39Z</time>
      </trkpt>
      <trkpt lat="42.85876756" lon="13.50558321">
        <ele>488.00000</ele>
        <time>2024-02-02T12:39:40Z</time>
      </trkpt>
      <trkpt lat="42.85874459" lon="13.50555824">
        <ele>489.00000</ele>
        <time>2024-02-02T12:39:41Z</time>
      </trkpt>
      <trkpt lat="42.85872020" lon="13.50553829">
        <ele>489.00000</ele>
        <time>2024-02-02T12:39:42Z</time>
      </trkpt>
      <trkpt lat="42.85869573" lon="13.50552479">
        <ele>489.00000</ele>
        <time>2024-02-02T12:39:43Z</time>
      </trkpt>
      <trkpt lat="42.85866865" lon="13.50551121">
        <ele>490.00000</ele>
        <time>2024-02-02T12:39:44Z</time>
      </trkpt>
      <trkpt lat="42.85863487" lon="13.50549319">
        <ele>491.00000</ele>
        <time>2024-02-02T12:39:45Z</time>
      </trkpt>
      <trkpt lat="42.85859188" lon="13.50547383">
        <ele>491.00000</ele>
        <time>2024-02-02T12:39:46Z</time>
      </trkpt>
      <trkpt lat="42.85853446" lon="13.50545774">
        <ele>491.00000</ele>
        <time>2024-02-02T12:39:47Z</time>
      </trkpt>
      <trkpt lat="42.85847746" lon="13.50544801">
        <ele>491.00000</ele>
        <time>2024-02-02T12:39:48Z</time>
      </trkpt>
      <trkpt lat="42.85837797" lon="13.50544072">
        <ele>492.00000</ele>
        <time>2024-02-02T12:39:49Z</time>
      </trkpt>
      <trkpt lat="42.85828325" lon="13.50542874">
        <ele>491.00000</ele>
        <time>2024-02-02T12:39:50Z</time>
      </trkpt>
      <trkpt lat="42.85818368" lon="13.50539219">
        <ele>490.00000</ele>
        <time>2024-02-02T12:39:51Z</time>
      </trkpt>
      <trkpt lat="42.85808594" lon="13.50533343">
        <ele>488.00000</ele>
        <time>2024-02-02T12:39:52Z</time>
      </trkpt>
      <trkpt lat="42.85798712" lon="13.50526973">
        <ele>487.00000</ele>
        <time>2024-02-02T12:39:53Z</time>
      </trkpt>
      <trkpt lat="42.85787992" lon="13.50520687">
        <ele>485.00000</ele>
        <time>2024-02-02T12:39:54Z</time>
      </trkpt>
      <trkpt lat="42.85776777" lon="13.50514585">
        <ele>483.00000</ele>
        <time>2024-02-02T12:39:55Z</time>
      </trkpt>
      <trkpt lat="42.85764908" lon="13.50509371">
        <ele>481.00000</ele>
        <time>2024-02-02T12:39:56Z</time>
      </trkpt>
      <trkpt lat="42.85752092" lon="13.50504803">
        <ele>479.00000</ele>
        <time>2024-02-02T12:39:57Z</time>
      </trkpt>
      <trkpt lat="42.85738589" lon="13.50498978">
        <ele>479.00000</ele>
        <time>2024-02-02T12:39:58Z</time>
      </trkpt>
      <trkpt lat="42.85724901" lon="13.50490872">
        <ele>478.00000</ele>
        <time>2024-02-02T12:39:59Z</time>
      </trkpt>
      <trkpt lat="42.85712345" lon="13.50479758">
        <ele>477.00000</ele>
        <time>2024-02-02T12:40:00Z</time>
      </trkpt>
      <trkpt lat="42.85700887" lon="13.50465944">
        <ele>476.00000</ele>
        <time>2024-02-02T12:40:01Z</time>
      </trkpt>
      <trkpt lat="42.85691306" lon="13.50450748">
        <ele>475.00000</ele>
        <time>2024-02-02T12:40:02Z</time>
      </trkpt>
      <trkpt lat="42.85685741" lon="13.50437765">
        <ele>475.00000</ele>
        <time>2024-02-02T12:40:03Z</time>
      </trkpt>
      <trkpt lat="42.85679295" lon="13.50418763">
        <ele>474.00000</ele>
        <time>2024-02-02T12:40:04Z</time>
      </trkpt>
      <trkpt lat="42.85675213" lon="13.50403273">
        <ele>474.00000</ele>
        <time>2024-02-02T12:40:05Z</time>
      </trkpt>
      <trkpt lat="42.85671190" lon="13.50388169">
        <ele>475.00000</ele>
        <time>2024-02-02T12:40:06Z</time>
      </trkpt>
      <trkpt lat="42.85667334" lon="13.50373542">
        <ele>475.00000</ele>
        <time>2024-02-02T12:40:07Z</time>
      </trkpt>
      <trkpt lat="42.85663847" lon="13.50359419">
        <ele>475.00000</ele>
        <time>2024-02-02T12:40:08Z</time>
      </trkpt>
      <trkpt lat="42.85660050" lon="13.50346310">
        <ele>472.00000</ele>
        <time>2024-02-02T12:40:09Z</time>
      </trkpt>
      <trkpt lat="42.85655080" lon="13.50334055">
        <ele>470.00000</ele>
        <time>2024-02-02T12:40:10Z</time>
      </trkpt>
      <trkpt lat="42.85648810" lon="13.50322958">
        <ele>468.00000</ele>
        <time>2024-02-02T12:40:11Z</time>
      </trkpt>
      <trkpt lat="42.85640956" lon="13.50314098">
        <ele>467.00000</ele>
        <time>2024-02-02T12:40:12Z</time>
      </trkpt>
      <trkpt lat="42.85632306" lon="13.50306688">
        <ele>467.00000</ele>
        <time>2024-02-02T12:40:13Z</time>
      </trkpt>
      <trkpt lat="42.85623522" lon="13.50298985">
        <ele>466.00000</ele>
        <time>2024-02-02T12:40:14Z</time>
      </trkpt>
      <trkpt lat="42.85614444" lon="13.50290511">
        <ele>465.00000</ele>
        <time>2024-02-02T12:40:15Z</time>
      </trkpt>
      <trkpt lat="42.85605551" lon="13.50281484">
        <ele>464.00000</ele>
        <time>2024-02-02T12:40:16Z</time>
      </trkpt>
      <trkpt lat="42.85596222" lon="13.50272306">
        <ele>463.00000</ele>
        <time>2024-02-02T12:40:17Z</time>
      </trkpt>
      <trkpt lat="42.85585711" lon="13.50263312">
        <ele>462.00000</ele>
        <time>2024-02-02T12:40:18Z</time>
      </trkpt>
      <trkpt lat="42.85576776" lon="13.50255995">
        <ele>461.00000</ele>
        <time>2024-02-02T12:40:19Z</time>
      </trkpt>
      <trkpt lat="42.85562770" lon="13.50244168">
        <ele>459.00000</ele>
        <time>2024-02-02T12:40:20Z</time>
      </trkpt>
      <trkpt lat="42.85551329" lon="13.50233187">
        <ele>458.00000</ele>
        <time>2024-02-02T12:40:21Z</time>
      </trkpt>
      <trkpt lat="42.85539728" lon="13.50221796">
        <ele>455.00000</ele>
        <time>2024-02-02T12:40:22Z</time>
      </trkpt>
      <trkpt lat="42.85526937" lon="13.50210640">
        <ele>452.00000</ele>
        <time>2024-02-02T12:40:23Z</time>
      </trkpt>
      <trkpt lat="42.85513543" lon="13.50200029">
        <ele>450.00000</ele>
        <time>2024-02-02T12:40:24Z</time>
      </trkpt>
      <trkpt lat="42.85502806" lon="13.50191026">
        <ele>449.00000</ele>
        <time>2024-02-02T12:40:25Z</time>
      </trkpt>
      <trkpt lat="42.85488205" lon="13.50176618">
        <ele>450.00000</ele>
        <time>2024-02-02T12:40:26Z</time>
      </trkpt>
      <trkpt lat="42.85478507" lon="13.50162754">
        <ele>450.00000</ele>
        <time>2024-02-02T12:40:27Z</time>
      </trkpt>
      <trkpt lat="42.85470401" lon="13.50147759">
        <ele>447.00000</ele>
        <time>2024-02-02T12:40:28Z</time>
      </trkpt>
      <trkpt lat="42.85464392" lon="13.50132940">
        <ele>443.00000</ele>
        <time>2024-02-02T12:40:29Z</time>
      </trkpt>
      <trkpt lat="42.85459656" lon="13.50122429">
        <ele>440.00000</ele>
        <time>2024-02-02T12:40:30Z</time>
      </trkpt>
      <trkpt lat="42.85451358" lon="13.50109194">
        <ele>437.00000</ele>
        <time>2024-02-02T12:40:31Z</time>
      </trkpt>
      <trkpt lat="42.85443437" lon="13.50100150">
        <ele>437.00000</ele>
        <time>2024-02-02T12:40:32Z</time>
      </trkpt>
      <trkpt lat="42.85435030" lon="13.50092355">
        <ele>436.00000</ele>
        <time>2024-02-02T12:40:33Z</time>
      </trkpt>
      <trkpt lat="42.85426229" lon="13.50085180">
        <ele>437.00000</ele>
        <time>2024-02-02T12:40:34Z</time>
      </trkpt>
      <trkpt lat="42.85417604" lon="13.50078625">
        <ele>437.00000</ele>
        <time>2024-02-02T12:40:35Z</time>
      </trkpt>
      <trkpt lat="42.85409222" lon="13.50072389">
        <ele>438.00000</ele>
        <time>2024-02-02T12:40:36Z</time>
      </trkpt>
      <trkpt lat="42.85400907" lon="13.50066798">
        <ele>439.00000</ele>
        <time>2024-02-02T12:40:37Z</time>
      </trkpt>
      <trkpt lat="42.85393347" lon="13.50061953">
        <ele>439.00000</ele>
        <time>2024-02-02T12:40:38Z</time>
      </trkpt>
      <trkpt lat="42.85386884" lon="13.50056597">
        <ele>439.00000</ele>
        <time>2024-02-02T12:40:39Z</time>
      </trkpt>
      <trkpt lat="42.85382400" lon="13.50050051">
        <ele>438.00000</ele>
        <time>2024-02-02T12:40:40Z</time>
      </trkpt>
      <trkpt lat="42.85379684" lon="13.50043036">
        <ele>437.00000</ele>
        <time>2024-02-02T12:40:41Z</time>
      </trkpt>
      <trkpt lat="42.85378318" lon="13.50035349">
        <ele>435.00000</ele>
        <time>2024-02-02T12:40:42Z</time>
      </trkpt>
      <trkpt lat="42.85377387" lon="13.50027043">
        <ele>434.00000</ele>
        <time>2024-02-02T12:40:43Z</time>
      </trkpt>
      <trkpt lat="42.85376943" lon="13.50018250">
        <ele>433.00000</ele>
        <time>2024-02-02T12:40:44Z</time>
      </trkpt>
      <trkpt lat="42.85376650" lon="13.50009089">
        <ele>431.00000</ele>
        <time>2024-02-02T12:40:45Z</time>
      </trkpt>
      <trkpt lat="42.85376625" lon="13.49999492">
        <ele>430.00000</ele>
        <time>2024-02-02T12:40:46Z</time>
      </trkpt>
      <trkpt lat="42.85376449" lon="13.49989735">
        <ele>429.00000</ele>
        <time>2024-02-02T12:40:47Z</time>
      </trkpt>
      <trkpt lat="42.85376273" lon="13.49979543">
        <ele>428.00000</ele>
        <time>2024-02-02T12:40:48Z</time>
      </trkpt>
      <trkpt lat="42.85376122" lon="13.49968931">
        <ele>427.00000</ele>
        <time>2024-02-02T12:40:49Z</time>
      </trkpt>
      <trkpt lat="42.85375795" lon="13.49958244">
        <ele>427.00000</ele>
        <time>2024-02-02T12:40:50Z</time>
      </trkpt>
      <trkpt lat="42.85375636" lon="13.49946937">
        <ele>427.00000</ele>
        <time>2024-02-02T12:40:51Z</time>
      </trkpt>
      <trkpt lat="42.85375979" lon="13.49935026">
        <ele>427.00000</ele>
        <time>2024-02-02T12:40:52Z</time>
      </trkpt>
      <trkpt lat="42.85376239" lon="13.49923283">
        <ele>427.00000</ele>
        <time>2024-02-02T12:40:53Z</time>
      </trkpt>
      <trkpt lat="42.85376105" lon="13.49911456">
        <ele>426.00000</ele>
        <time>2024-02-02T12:40:54Z</time>
      </trkpt>
      <trkpt lat="42.85375795" lon="13.49899495">
        <ele>426.00000</ele>
        <time>2024-02-02T12:40:55Z</time>
      </trkpt>
      <trkpt lat="42.85374906" lon="13.49887585">
        <ele>425.00000</ele>
        <time>2024-02-02T12:40:56Z</time>
      </trkpt>
      <trkpt lat="42.85373574" lon="13.49876093">
        <ele>425.00000</ele>
        <time>2024-02-02T12:40:57Z</time>
      </trkpt>
      <trkpt lat="42.85371654" lon="13.49865406">
        <ele>425.00000</ele>
        <time>2024-02-02T12:40:58Z</time>
      </trkpt>
      <trkpt lat="42.85368880" lon="13.49855935">
        <ele>425.00000</ele>
        <time>2024-02-02T12:40:59Z</time>
      </trkpt>
      <trkpt lat="42.85365284" lon="13.49847955">
        <ele>425.00000</ele>
        <time>2024-02-02T12:41:00Z</time>
      </trkpt>
      <trkpt lat="42.85360758" lon="13.49840856">
        <ele>426.00000</ele>
        <time>2024-02-02T12:41:01Z</time>
      </trkpt>
      <trkpt lat="42.85355963" lon="13.49834184">
        <ele>426.00000</ele>
        <time>2024-02-02T12:41:02Z</time>
      </trkpt>
      <trkpt lat="42.85351571" lon="13.49827461">
        <ele>426.00000</ele>
        <time>2024-02-02T12:41:03Z</time>
      </trkpt>
      <trkpt lat="42.85347707" lon="13.49820680">
        <ele>426.00000</ele>
        <time>2024-02-02T12:41:04Z</time>
      </trkpt>
      <trkpt lat="42.85344866" lon="13.49815266">
        <ele>426.00000</ele>
        <time>2024-02-02T12:41:05Z</time>
      </trkpt>
      <trkpt lat="42.85341354" lon="13.49806481">
        <ele>426.00000</ele>
        <time>2024-02-02T12:41:06Z</time>
      </trkpt>
      <trkpt lat="42.85339266" lon="13.49798158">
        <ele>425.00000</ele>
        <time>2024-02-02T12:41:07Z</time>
      </trkpt>
      <trkpt lat="42.85338244" lon="13.49789097">
        <ele>424.00000</ele>
        <time>2024-02-02T12:41:08Z</time>
      </trkpt>
      <trkpt lat="42.85337858" lon="13.49780866">
        <ele>423.00000</ele>
        <time>2024-02-02T12:41:09Z</time>
      </trkpt>
      <trkpt lat="42.85336760" lon="13.49769953">
        <ele>421.00000</ele>
        <time>2024-02-02T12:41:10Z</time>
      </trkpt>
      <trkpt lat="42.85334170" lon="13.49758612">
        <ele>419.00000</ele>
        <time>2024-02-02T12:41:11Z</time>
      </trkpt>
      <trkpt lat="42.85329862" lon="13.49744447">
        <ele>416.00000</ele>
        <time>2024-02-02T12:41:12Z</time>
      </trkpt>
      <trkpt lat="42.85325772" lon="13.49732168">
        <ele>414.00000</ele>
        <time>2024-02-02T12:41:13Z</time>
      </trkpt>
      <trkpt lat="42.85321623" lon="13.49719502">
        <ele>412.00000</ele>
        <time>2024-02-02T12:41:14Z</time>
      </trkpt>
      <trkpt lat="42.85317365" lon="13.49706804">
        <ele>412.00000</ele>
        <time>2024-02-02T12:41:15Z</time>
      </trkpt>
      <trkpt lat="42.85313199" lon="13.49694935">
        <ele>413.00000</ele>
        <time>2024-02-02T12:41:16Z</time>
      </trkpt>
      <trkpt lat="42.85309259" lon="13.49684726">
        <ele>413.00000</ele>
        <time>2024-02-02T12:41:17Z</time>
      </trkpt>
      <trkpt lat="42.85305093" lon="13.49675565">
        <ele>412.00000</ele>
        <time>2024-02-02T12:41:18Z</time>
      </trkpt>
      <trkpt lat="42.85300123" lon="13.49666772">
        <ele>411.00000</ele>
        <time>2024-02-02T12:41:19Z</time>
      </trkpt>
      <trkpt lat="42.85294641" lon="13.49657342">
        <ele>409.00000</ele>
        <time>2024-02-02T12:41:20Z</time>
      </trkpt>
      <trkpt lat="42.85289721" lon="13.49647301">
        <ele>407.00000</ele>
        <time>2024-02-02T12:41:21Z</time>
      </trkpt>
      <trkpt lat="42.85286125" lon="13.49637192">
        <ele>405.00000</ele>
        <time>2024-02-02T12:41:22Z</time>
      </trkpt>
      <trkpt lat="42.85284952" lon="13.49626581">
        <ele>402.00000</ele>
        <time>2024-02-02T12:41:23Z</time>
      </trkpt>
      <trkpt lat="42.85285639" lon="13.49616170">
        <ele>400.00000</ele>
        <time>2024-02-02T12:41:24Z</time>
      </trkpt>
      <trkpt lat="42.85288288" lon="13.49605609">
        <ele>399.00000</ele>
        <time>2024-02-02T12:41:25Z</time>
      </trkpt>
      <trkpt lat="42.85290635" lon="13.49593874">
        <ele>396.00000</ele>
        <time>2024-02-02T12:41:26Z</time>
      </trkpt>
      <trkpt lat="42.85290216" lon="13.49581788">
        <ele>394.00000</ele>
        <time>2024-02-02T12:41:27Z</time>
      </trkpt>
      <trkpt lat="42.85286167" lon="13.49569810">
        <ele>392.00000</ele>
        <time>2024-02-02T12:41:28Z</time>
      </trkpt>
      <trkpt lat="42.85280442" lon="13.49558369">
        <ele>391.00000</ele>
        <time>2024-02-02T12:41:29Z</time>
      </trkpt>
      <trkpt lat="42.85274064" lon="13.49547129">
        <ele>390.00000</ele>
        <time>2024-02-02T12:41:30Z</time>
      </trkpt>
      <trkpt lat="42.85266629" lon="13.49536417">
        <ele>390.00000</ele>
        <time>2024-02-02T12:41:31Z</time>
      </trkpt>
      <trkpt lat="42.85256965" lon="13.49527087">
        <ele>390.00000</ele>
        <time>2024-02-02T12:41:32Z</time>
      </trkpt>
      <trkpt lat="42.85245590" lon="13.49518286">
        <ele>390.00000</ele>
        <time>2024-02-02T12:41:33Z</time>
      </trkpt>
      <trkpt lat="42.85233629" lon="13.49508119">
        <ele>390.00000</ele>
        <time>2024-02-02T12:41:34Z</time>
      </trkpt>
      <trkpt lat="42.85221702" lon="13.49497357">
        <ele>390.00000</ele>
        <time>2024-02-02T12:41:35Z</time>
      </trkpt>
      <trkpt lat="42.85209640" lon="13.49485698">
        <ele>387.00000</ele>
        <time>2024-02-02T12:41:36Z</time>
      </trkpt>
      <trkpt lat="42.85197738" lon="13.49472270">
        <ele>386.00000</ele>
        <time>2024-02-02T12:41:37Z</time>
      </trkpt>
      <trkpt lat="42.85186666" lon="13.49458917">
        <ele>385.00000</ele>
        <time>2024-02-02T12:41:38Z</time>
      </trkpt>
      <trkpt lat="42.85176264" lon="13.49445590">
        <ele>385.00000</ele>
        <time>2024-02-02T12:41:39Z</time>
      </trkpt>
      <trkpt lat="42.85166759" lon="13.49432020">
        <ele>387.00000</ele>
        <time>2024-02-02T12:41:40Z</time>
      </trkpt>
      <trkpt lat="42.85157279" lon="13.49419003">
        <ele>387.00000</ele>
        <time>2024-02-02T12:41:41Z</time>
      </trkpt>
      <trkpt lat="42.85147103" lon="13.49408651">
        <ele>387.00000</ele>
        <time>2024-02-02T12:41:42Z</time>
      </trkpt>
      <trkpt lat="42.85136299" lon="13.49401770">
        <ele>386.00000</ele>
        <time>2024-02-02T12:41:43Z</time>
      </trkpt>
      <trkpt lat="42.85125100" lon="13.49396271">
        <ele>384.00000</ele>
        <time>2024-02-02T12:41:44Z</time>
      </trkpt>
      <trkpt lat="42.85114103" lon="13.49391007">
        <ele>383.00000</ele>
        <time>2024-02-02T12:41:45Z</time>
      </trkpt>
      <trkpt lat="42.85103215" lon="13.49385928">
        <ele>382.00000</ele>
        <time>2024-02-02T12:41:46Z</time>
      </trkpt>
      <trkpt lat="42.85091849" lon="13.49381955">
        <ele>379.00000</ele>
        <time>2024-02-02T12:41:47Z</time>
      </trkpt>
      <trkpt lat="42.85080031" lon="13.49379784">
        <ele>377.00000</ele>
        <time>2024-02-02T12:41:48Z</time>
      </trkpt>
      <trkpt lat="42.85067886" lon="13.49377429">
        <ele>376.00000</ele>
        <time>2024-02-02T12:41:49Z</time>
      </trkpt>
      <trkpt lat="42.85055656" lon="13.49374269">
        <ele>374.00000</ele>
        <time>2024-02-02T12:41:50Z</time>
      </trkpt>
      <trkpt lat="42.85042807" lon="13.49372450">
        <ele>373.00000</ele>
        <time>2024-02-02T12:41:51Z</time>
      </trkpt>
      <trkpt lat="42.85030209" lon="13.49373162">
        <ele>372.00000</ele>
        <time>2024-02-02T12:41:52Z</time>
      </trkpt>
      <trkpt lat="42.85017770" lon="13.49375870">
        <ele>369.00000</ele>
        <time>2024-02-02T12:41:53Z</time>
      </trkpt>
      <trkpt lat="42.85006052" lon="13.49378108">
        <ele>366.00000</ele>
        <time>2024-02-02T12:41:54Z</time>
      </trkpt>
      <trkpt lat="42.84994393" lon="13.49379180">
        <ele>362.00000</ele>
        <time>2024-02-02T12:41:55Z</time>
      </trkpt>
      <trkpt lat="42.84982566" lon="13.49378208">
        <ele>356.00000</ele>
        <time>2024-02-02T12:41:56Z</time>
      </trkpt>
      <trkpt lat="42.84970572" lon="13.49375249">
        <ele>350.00000</ele>
        <time>2024-02-02T12:41:57Z</time>
      </trkpt>
      <trkpt lat="42.84961033" lon="13.49371117">
        <ele>347.00000</ele>
        <time>2024-02-02T12:41:58Z</time>
      </trkpt>
      <trkpt lat="42.84949516" lon="13.49364520">
        <ele>344.00000</ele>
        <time>2024-02-02T12:41:59Z</time>
      </trkpt>
      <trkpt lat="42.84936365" lon="13.49355711">
        <ele>341.00000</ele>
        <time>2024-02-02T12:42:00Z</time>
      </trkpt>
      <trkpt lat="42.84926215" lon="13.49347480">
        <ele>341.00000</ele>
        <time>2024-02-02T12:42:01Z</time>
      </trkpt>
      <trkpt lat="42.84917422" lon="13.49337807">
        <ele>343.00000</ele>
        <time>2024-02-02T12:42:02Z</time>
      </trkpt>
      <trkpt lat="42.84911437" lon="13.49329417">
        <ele>344.00000</ele>
        <time>2024-02-02T12:42:03Z</time>
      </trkpt>
      <trkpt lat="42.84902854" lon="13.49318127">
        <ele>345.00000</ele>
        <time>2024-02-02T12:42:04Z</time>
      </trkpt>
      <trkpt lat="42.84895411" lon="13.49311798">
        <ele>347.00000</ele>
        <time>2024-02-02T12:42:05Z</time>
      </trkpt>
      <trkpt lat="42.84888303" lon="13.49307876">
        <ele>348.00000</ele>
        <time>2024-02-02T12:42:06Z</time>
      </trkpt>
      <trkpt lat="42.84882268" lon="13.49305168">
        <ele>347.00000</ele>
        <time>2024-02-02T12:42:07Z</time>
      </trkpt>
      <trkpt lat="42.84877566" lon="13.49302763">
        <ele>346.00000</ele>
        <time>2024-02-02T12:42:08Z</time>
      </trkpt>
      <trkpt lat="42.84874146" lon="13.49300089">
        <ele>345.00000</ele>
        <time>2024-02-02T12:42:09Z</time>
      </trkpt>
      <trkpt lat="42.84871573" lon="13.49297566">
        <ele>345.00000</ele>
        <time>2024-02-02T12:42:10Z</time>
      </trkpt>
      <trkpt lat="42.84868757" lon="13.49295143">
        <ele>345.00000</ele>
        <time>2024-02-02T12:42:11Z</time>
      </trkpt>
      <trkpt lat="42.84865865" lon="13.49292897">
        <ele>345.00000</ele>
        <time>2024-02-02T12:42:12Z</time>
      </trkpt>
      <trkpt lat="42.84862873" lon="13.49289997">
        <ele>345.00000</ele>
        <time>2024-02-02T12:42:13Z</time>
      </trkpt>
      <trkpt lat="42.84859386" lon="13.49286334">
        <ele>346.00000</ele>
        <time>2024-02-02T12:42:14Z</time>
      </trkpt>
      <trkpt lat="42.84855237" lon="13.49281908">
        <ele>346.00000</ele>
        <time>2024-02-02T12:42:15Z</time>
      </trkpt>
      <trkpt lat="42.84850593" lon="13.49277340">
        <ele>346.00000</ele>
        <time>2024-02-02T12:42:16Z</time>
      </trkpt>
      <trkpt lat="42.84846142" lon="13.49271389">
        <ele>344.00000</ele>
        <time>2024-02-02T12:42:17Z</time>
      </trkpt>
      <trkpt lat="42.84841767" lon="13.49263904">
        <ele>344.00000</ele>
        <time>2024-02-02T12:42:18Z</time>
      </trkpt>
      <trkpt lat="42.84836260" lon="13.49255489">
        <ele>344.00000</ele>
        <time>2024-02-02T12:42:19Z</time>
      </trkpt>
      <trkpt lat="42.84829068" lon="13.49246914">
        <ele>343.00000</ele>
        <time>2024-02-02T12:42:20Z</time>
      </trkpt>
      <trkpt lat="42.84820586" lon="13.49238021">
        <ele>340.00000</ele>
        <time>2024-02-02T12:42:21Z</time>
      </trkpt>
      <trkpt lat="42.84811366" lon="13.49228952">
        <ele>337.00000</ele>
        <time>2024-02-02T12:42:22Z</time>
      </trkpt>
      <trkpt lat="42.84801031" lon="13.49220151">
        <ele>335.00000</ele>
        <time>2024-02-02T12:42:23Z</time>
      </trkpt>
      <trkpt lat="42.84789137" lon="13.49212288">
        <ele>334.00000</ele>
        <time>2024-02-02T12:42:24Z</time>
      </trkpt>
      <trkpt lat="42.84776472" lon="13.49205315">
        <ele>333.00000</ele>
        <time>2024-02-02T12:42:25Z</time>
      </trkpt>
      <trkpt lat="42.84763748" lon="13.49197461">
        <ele>332.00000</ele>
        <time>2024-02-02T12:42:26Z</time>
      </trkpt>
      <trkpt lat="42.84751142" lon="13.49188894">
        <ele>331.00000</ele>
        <time>2024-02-02T12:42:27Z</time>
      </trkpt>
      <trkpt lat="42.84738418" lon="13.49181904">
        <ele>330.00000</ele>
        <time>2024-02-02T12:42:28Z</time>
      </trkpt>
      <trkpt lat="42.84726046" lon="13.49177671">
        <ele>329.00000</ele>
        <time>2024-02-02T12:42:29Z</time>
      </trkpt>
      <trkpt lat="42.84717338" lon="13.49176967">
        <ele>329.00000</ele>
        <time>2024-02-02T12:42:30Z</time>
      </trkpt>
      <trkpt lat="42.84705838" lon="13.49178115">
        <ele>329.00000</ele>
        <time>2024-02-02T12:42:31Z</time>
      </trkpt>
      <trkpt lat="42.84700322" lon="13.49183874">
        <ele>330.00000</ele>
        <time>2024-02-02T12:42:32Z</time>
      </trkpt>
      <trkpt lat="42.84695855" lon="13.49188836">
        <ele>331.00000</ele>
        <time>2024-02-02T12:42:33Z</time>
      </trkpt>
      <trkpt lat="42.84692837" lon="13.49192172">
        <ele>331.00000</ele>
        <time>2024-02-02T12:42:34Z</time>
      </trkpt>
      <trkpt lat="42.84688848" lon="13.49195273">
        <ele>331.00000</ele>
        <time>2024-02-02T12:42:35Z</time>
      </trkpt>
      <trkpt lat="42.84683994" lon="13.49197075">
        <ele>331.00000</ele>
        <time>2024-02-02T12:42:36Z</time>
      </trkpt>
      <trkpt lat="42.84680088" lon="13.49197025">
        <ele>331.00000</ele>
        <time>2024-02-02T12:42:37Z</time>
      </trkpt>
      <trkpt lat="42.84676233" lon="13.49196597">
        <ele>331.00000</ele>
        <time>2024-02-02T12:42:38Z</time>
      </trkpt>
      <trkpt lat="42.84671857" lon="13.49196597">
        <ele>331.00000</ele>
        <time>2024-02-02T12:42:39Z</time>
      </trkpt>
      <trkpt lat="42.84667306" lon="13.49197100">
        <ele>330.00000</ele>
        <time>2024-02-02T12:42:40Z</time>
      </trkpt>
      <trkpt lat="42.84661715" lon="13.49198048">
        <ele>331.00000</ele>
        <time>2024-02-02T12:42:41Z</time>
      </trkpt>
      <trkpt lat="42.84654901" lon="13.49199062">
        <ele>331.00000</ele>
        <time>2024-02-02T12:42:42Z</time>
      </trkpt>
      <trkpt lat="42.84647047" lon="13.49199791">
        <ele>331.00000</ele>
        <time>2024-02-02T12:42:43Z</time>
      </trkpt>
      <trkpt lat="42.84638221" lon="13.49199271">
        <ele>331.00000</ele>
        <time>2024-02-02T12:42:44Z</time>
      </trkpt>
      <trkpt lat="42.84628808" lon="13.49198601">
        <ele>328.00000</ele>
        <time>2024-02-02T12:42:45Z</time>
      </trkpt>
      <trkpt lat="42.84620032" lon="13.49198710">
        <ele>325.00000</ele>
        <time>2024-02-02T12:42:46Z</time>
      </trkpt>
      <trkpt lat="42.84612983" lon="13.49198358">
        <ele>323.00000</ele>
        <time>2024-02-02T12:42:47Z</time>
      </trkpt>
      <trkpt lat="42.84608138" lon="13.49198341">
        <ele>322.00000</ele>
        <time>2024-02-02T12:42:48Z</time>
      </trkpt>
      <trkpt lat="42.84606076" lon="13.49197897">
        <ele>322.00000</ele>
        <time>2024-02-02T12:42:49Z</time>
      </trkpt>
      <trkpt lat="42.84605087" lon="13.49197989">
        <ele>321.00000</ele>
        <time>2024-02-02T12:42:50Z</time>
      </trkpt>
      <trkpt lat="42.84604283" lon="13.49198400">
        <ele>321.00000</ele>
        <time>2024-02-02T12:42:51Z</time>
      </trkpt>
      <trkpt lat="42.84603754" lon="13.49198525">
        <ele>321.00000</ele>
        <time>2024-02-02T12:42:52Z</time>
      </trkpt>
      <trkpt lat="42.84603486" lon="13.49198659">
        <ele>321.00000</ele>
        <time>2024-02-02T12:42:53Z</time>
      </trkpt>
      <trkpt lat="42.84592414" lon="13.49197075">
        <ele>319.00000</ele>
        <time>2024-02-02T12:43:02Z</time>
      </trkpt>
      <trkpt lat="42.84585784" lon="13.49194234">
        <ele>318.00000</ele>
        <time>2024-02-02T12:43:03Z</time>
      </trkpt>
      <trkpt lat="42.84577427" lon="13.49189406">
        <ele>316.00000</ele>
        <time>2024-02-02T12:43:04Z</time>
      </trkpt>
      <trkpt lat="42.84568819" lon="13.49183748">
        <ele>313.00000</ele>
        <time>2024-02-02T12:43:05Z</time>
      </trkpt>
      <trkpt lat="42.84560621" lon="13.49178903">
        <ele>311.00000</ele>
        <time>2024-02-02T12:43:06Z</time>
      </trkpt>
      <trkpt lat="42.84552415" lon="13.49175961">
        <ele>310.00000</ele>
        <time>2024-02-02T12:43:07Z</time>
      </trkpt>
      <trkpt lat="42.84543941" lon="13.49174721">
        <ele>309.00000</ele>
        <time>2024-02-02T12:43:08Z</time>
      </trkpt>
      <trkpt lat="42.84534897" lon="13.49173497">
        <ele>309.00000</ele>
        <time>2024-02-02T12:43:09Z</time>
      </trkpt>
      <trkpt lat="42.84527974" lon="13.49170890">
        <ele>308.00000</ele>
        <time>2024-02-02T12:43:10Z</time>
      </trkpt>
      <trkpt lat="42.84518762" lon="13.49165048">
        <ele>309.00000</ele>
        <time>2024-02-02T12:43:11Z</time>
      </trkpt>
      <trkpt lat="42.84511797" lon="13.49159868">
        <ele>309.00000</ele>
        <time>2024-02-02T12:43:12Z</time>
      </trkpt>
      <trkpt lat="42.84505938" lon="13.49156348">
        <ele>309.00000</ele>
        <time>2024-02-02T12:43:13Z</time>
      </trkpt>
      <trkpt lat="42.84501990" lon="13.49154252">
        <ele>309.00000</ele>
        <time>2024-02-02T12:43:14Z</time>
      </trkpt>
      <trkpt lat="42.84498956" lon="13.49152408">
        <ele>309.00000</ele>
        <time>2024-02-02T12:43:15Z</time>
      </trkpt>
      <trkpt lat="42.84497187" lon="13.49151000">
        <ele>308.00000</ele>
        <time>2024-02-02T12:43:16Z</time>
      </trkpt>
      <trkpt lat="42.84495812" lon="13.49149835">
        <ele>308.00000</ele>
        <time>2024-02-02T12:43:17Z</time>
      </trkpt>
      <trkpt lat="42.84495620" lon="13.49149449">
        <ele>308.00000</ele>
        <time>2024-02-02T12:43:18Z</time>
      </trkpt>
      <trkpt lat="42.84495787" lon="13.49148980">
        <ele>308.00000</ele>
        <time>2024-02-02T12:43:20Z</time>
      </trkpt>
      <trkpt lat="42.84505091" lon="13.49141034">
        <ele>308.00000</ele>
        <time>2024-02-02T12:43:23Z</time>
      </trkpt>
      <trkpt lat="42.84510514" lon="13.49139827">
        <ele>307.00000</ele>
        <time>2024-02-02T12:43:24Z</time>
      </trkpt>
      <trkpt lat="42.84516046" lon="13.49139550">
        <ele>307.00000</ele>
        <time>2024-02-02T12:43:25Z</time>
      </trkpt>
      <trkpt lat="42.84521779" lon="13.49138553">
        <ele>307.00000</ele>
        <time>2024-02-02T12:43:26Z</time>
      </trkpt>
      <trkpt lat="42.84527840" lon="13.49135342">
        <ele>306.00000</ele>
        <time>2024-02-02T12:43:27Z</time>
      </trkpt>
      <trkpt lat="42.84533405" lon="13.49130028">
        <ele>305.00000</ele>
        <time>2024-02-02T12:43:28Z</time>
      </trkpt>
      <trkpt lat="42.84537906" lon="13.49123239">
        <ele>304.00000</ele>
        <time>2024-02-02T12:43:29Z</time>
      </trkpt>
      <trkpt lat="42.84541578" lon="13.49116148">
        <ele>303.00000</ele>
        <time>2024-02-02T12:43:30Z</time>
      </trkpt>
      <trkpt lat="42.84544712" lon="13.49110038">
        <ele>302.00000</ele>
        <time>2024-02-02T12:43:31Z</time>
      </trkpt>
      <trkpt lat="42.84547587" lon="13.49104925">
        <ele>301.00000</ele>
        <time>2024-02-02T12:43:32Z</time>
      </trkpt>
      <trkpt lat="42.84550948" lon="13.49100373">
        <ele>300.00000</ele>
        <time>2024-02-02T12:43:33Z</time>
      </trkpt>
      <trkpt lat="42.84554720" lon="13.49096006">
        <ele>299.00000</ele>
        <time>2024-02-02T12:43:34Z</time>
      </trkpt>
      <trkpt lat="42.84558006" lon="13.49092243">
        <ele>299.00000</ele>
        <time>2024-02-02T12:43:35Z</time>
      </trkpt>
      <trkpt lat="42.84564125" lon="13.49085462">
        <ele>297.00000</ele>
        <time>2024-02-02T12:43:36Z</time>
      </trkpt>
      <trkpt lat="42.84569942" lon="13.49080005">
        <ele>296.00000</ele>
        <time>2024-02-02T12:43:37Z</time>
      </trkpt>
      <trkpt lat="42.84575725" lon="13.49075253">
        <ele>295.00000</ele>
        <time>2024-02-02T12:43:38Z</time>
      </trkpt>
      <trkpt lat="42.84582112" lon="13.49071581">
        <ele>294.00000</ele>
        <time>2024-02-02T12:43:39Z</time>
      </trkpt>
      <trkpt lat="42.84588105" lon="13.49068623">
        <ele>294.00000</ele>
        <time>2024-02-02T12:43:40Z</time>
      </trkpt>
      <trkpt lat="42.84593235" lon="13.49065530">
        <ele>293.00000</ele>
        <time>2024-02-02T12:43:41Z</time>
      </trkpt>
      <trkpt lat="42.84597652" lon="13.49062663">
        <ele>292.00000</ele>
        <time>2024-02-02T12:43:42Z</time>
      </trkpt>
      <trkpt lat="42.84601139" lon="13.49059696">
        <ele>291.00000</ele>
        <time>2024-02-02T12:43:43Z</time>
      </trkpt>
      <trkpt lat="42.84602547" lon="13.49056720">
        <ele>290.00000</ele>
        <time>2024-02-02T12:43:44Z</time>
      </trkpt>
      <trkpt lat="42.84602128" lon="13.49055279">
        <ele>290.00000</ele>
        <time>2024-02-02T12:43:45Z</time>
      </trkpt>
      <trkpt lat="42.84600737" lon="13.49054776">
        <ele>290.00000</ele>
        <time>2024-02-02T12:43:46Z</time>
      </trkpt>
      <trkpt lat="42.84599320" lon="13.49054424">
        <ele>289.00000</ele>
        <time>2024-02-02T12:43:47Z</time>
      </trkpt>
      <trkpt lat="42.84597309" lon="13.49053795">
        <ele>289.00000</ele>
        <time>2024-02-02T12:43:48Z</time>
      </trkpt>
      <trkpt lat="42.84594886" lon="13.49053250">
        <ele>289.00000</ele>
        <time>2024-02-02T12:43:49Z</time>
      </trkpt>
      <trkpt lat="42.84592431" lon="13.49052940">
        <ele>289.00000</ele>
        <time>2024-02-02T12:43:50Z</time>
      </trkpt>
      <trkpt lat="42.84589958" lon="13.49052454">
        <ele>289.00000</ele>
        <time>2024-02-02T12:43:51Z</time>
      </trkpt>
      <trkpt lat="42.84587410" lon="13.49051725">
        <ele>289.00000</ele>
        <time>2024-02-02T12:43:52Z</time>
      </trkpt>
      <trkpt lat="42.84584719" lon="13.49050593">
        <ele>288.00000</ele>
        <time>2024-02-02T12:43:53Z</time>
      </trkpt>
      <trkpt lat="42.84582213" lon="13.49049394">
        <ele>288.00000</ele>
        <time>2024-02-02T12:43:54Z</time>
      </trkpt>
      <trkpt lat="42.84579237" lon="13.49047928">
        <ele>287.00000</ele>
        <time>2024-02-02T12:43:55Z</time>
      </trkpt>
      <trkpt lat="42.84575222" lon="13.49045975">
        <ele>286.00000</ele>
        <time>2024-02-02T12:43:56Z</time>
      </trkpt>
      <trkpt lat="42.84569992" lon="13.49043904">
        <ele>285.00000</ele>
        <time>2024-02-02T12:43:57Z</time>
      </trkpt>
      <trkpt lat="42.84563681" lon="13.49041742">
        <ele>283.00000</ele>
        <time>2024-02-02T12:43:58Z</time>
      </trkpt>
      <trkpt lat="42.84556690" lon="13.49039663">
        <ele>282.00000</ele>
        <time>2024-02-02T12:43:59Z</time>
      </trkpt>
      <trkpt lat="42.84549339" lon="13.49037249">
        <ele>281.00000</ele>
        <time>2024-02-02T12:44:00Z</time>
      </trkpt>
      <trkpt lat="42.84542357" lon="13.49034190">
        <ele>279.00000</ele>
        <time>2024-02-02T12:44:01Z</time>
      </trkpt>
      <trkpt lat="42.84536004" lon="13.49029554">
        <ele>277.00000</ele>
        <time>2024-02-02T12:44:02Z</time>
      </trkpt>
      <trkpt lat="42.84530698" lon="13.49022572">
        <ele>274.00000</ele>
        <time>2024-02-02T12:44:03Z</time>
      </trkpt>
      <trkpt lat="42.84527110" lon="13.49014140">
        <ele>272.00000</ele>
        <time>2024-02-02T12:44:04Z</time>
      </trkpt>
      <trkpt lat="42.84524562" lon="13.49006018">
        <ele>269.00000</ele>
        <time>2024-02-02T12:44:05Z</time>
      </trkpt>
      <trkpt lat="42.84522676" lon="13.48998634">
        <ele>267.00000</ele>
        <time>2024-02-02T12:44:06Z</time>
      </trkpt>
      <trkpt lat="42.84521578" lon="13.48991828">
        <ele>265.00000</ele>
        <time>2024-02-02T12:44:07Z</time>
      </trkpt>
      <trkpt lat="42.84521603" lon="13.48985868">
        <ele>263.00000</ele>
        <time>2024-02-02T12:44:08Z</time>
      </trkpt>
      <trkpt lat="42.84523573" lon="13.48980998">
        <ele>262.00000</ele>
        <time>2024-02-02T12:44:09Z</time>
      </trkpt>
      <trkpt lat="42.84527102" lon="13.48977369">
        <ele>261.00000</ele>
        <time>2024-02-02T12:44:10Z</time>
      </trkpt>
      <trkpt lat="42.84531536" lon="13.48975919">
        <ele>261.00000</ele>
        <time>2024-02-02T12:44:11Z</time>
      </trkpt>
      <trkpt lat="42.84536171" lon="13.48975240">
        <ele>261.00000</ele>
        <time>2024-02-02T12:44:12Z</time>
      </trkpt>
      <trkpt lat="42.84540748" lon="13.48974653">
        <ele>261.00000</ele>
        <time>2024-02-02T12:44:13Z</time>
      </trkpt>
      <trkpt lat="42.84545249" lon="13.48973907">
        <ele>261.00000</ele>
        <time>2024-02-02T12:44:14Z</time>
      </trkpt>
      <trkpt lat="42.84549775" lon="13.48973496">
        <ele>261.00000</ele>
        <time>2024-02-02T12:44:15Z</time>
      </trkpt>
      <trkpt lat="42.84554452" lon="13.48973245">
        <ele>262.00000</ele>
        <time>2024-02-02T12:44:16Z</time>
      </trkpt>
      <trkpt lat="42.84559129" lon="13.48972692">
        <ele>262.00000</ele>
        <time>2024-02-02T12:44:17Z</time>
      </trkpt>
      <trkpt lat="42.84563781" lon="13.48972222">
        <ele>261.00000</ele>
        <time>2024-02-02T12:44:18Z</time>
      </trkpt>
      <trkpt lat="42.84568584" lon="13.48971401">
        <ele>261.00000</ele>
        <time>2024-02-02T12:44:19Z</time>
      </trkpt>
      <trkpt lat="42.84573529" lon="13.48970563">
        <ele>260.00000</ele>
        <time>2024-02-02T12:44:20Z</time>
      </trkpt>
      <trkpt lat="42.84578869" lon="13.48969942">
        <ele>260.00000</ele>
        <time>2024-02-02T12:44:21Z</time>
      </trkpt>
      <trkpt lat="42.84584334" lon="13.48969305">
        <ele>260.00000</ele>
        <time>2024-02-02T12:44:22Z</time>
      </trkpt>
      <trkpt lat="42.84589648" lon="13.48968501">
        <ele>259.00000</ele>
        <time>2024-02-02T12:44:23Z</time>
      </trkpt>
      <trkpt lat="42.84594979" lon="13.48967922">
        <ele>259.00000</ele>
        <time>2024-02-02T12:44:24Z</time>
      </trkpt>
      <trkpt lat="42.84600377" lon="13.48967428">
        <ele>259.00000</ele>
        <time>2024-02-02T12:44:25Z</time>
      </trkpt>
      <trkpt lat="42.84605992" lon="13.48966372">
        <ele>259.00000</ele>
        <time>2024-02-02T12:44:26Z</time>
      </trkpt>
      <trkpt lat="42.84611935" lon="13.48964980">
        <ele>258.00000</ele>
        <time>2024-02-02T12:44:27Z</time>
      </trkpt>
      <trkpt lat="42.84618012" lon="13.48964234">
        <ele>259.00000</ele>
        <time>2024-02-02T12:44:28Z</time>
      </trkpt>
      <trkpt lat="42.84624273" lon="13.48963631">
        <ele>259.00000</ele>
        <time>2024-02-02T12:44:29Z</time>
      </trkpt>
      <trkpt lat="42.84630862" lon="13.48962885">
        <ele>259.00000</ele>
        <time>2024-02-02T12:44:30Z</time>
      </trkpt>
      <trkpt lat="42.84637768" lon="13.48962441">
        <ele>260.00000</ele>
        <time>2024-02-02T12:44:31Z</time>
      </trkpt>
      <trkpt lat="42.84645195" lon="13.48961485">
        <ele>259.00000</ele>
        <time>2024-02-02T12:44:32Z</time>
      </trkpt>
      <trkpt lat="42.84652822" lon="13.48960462">
        <ele>259.00000</ele>
        <time>2024-02-02T12:44:33Z</time>
      </trkpt>
      <trkpt lat="42.84660735" lon="13.48959574">
        <ele>258.00000</ele>
        <time>2024-02-02T12:44:34Z</time>
      </trkpt>
      <trkpt lat="42.84668714" lon="13.48958862">
        <ele>258.00000</ele>
        <time>2024-02-02T12:44:35Z</time>
      </trkpt>
      <trkpt lat="42.84676744" lon="13.48958350">
        <ele>257.00000</ele>
        <time>2024-02-02T12:44:36Z</time>
      </trkpt>
      <trkpt lat="42.84685109" lon="13.48957353">
        <ele>257.00000</ele>
        <time>2024-02-02T12:44:37Z</time>
      </trkpt>
      <trkpt lat="42.84694137" lon="13.48956498">
        <ele>256.00000</ele>
        <time>2024-02-02T12:44:38Z</time>
      </trkpt>
      <trkpt lat="42.84703549" lon="13.48956791">
        <ele>256.00000</ele>
        <time>2024-02-02T12:44:39Z</time>
      </trkpt>
      <trkpt lat="42.84712912" lon="13.48958401">
        <ele>256.00000</ele>
        <time>2024-02-02T12:44:40Z</time>
      </trkpt>
      <trkpt lat="42.84722015" lon="13.48961988">
        <ele>257.00000</ele>
        <time>2024-02-02T12:44:41Z</time>
      </trkpt>
      <trkpt lat="42.84730724" lon="13.48968115">
        <ele>257.00000</ele>
        <time>2024-02-02T12:44:42Z</time>
      </trkpt>
      <trkpt lat="42.84739198" lon="13.48975533">
        <ele>257.00000</ele>
        <time>2024-02-02T12:44:43Z</time>
      </trkpt>
      <trkpt lat="42.84746632" lon="13.48982582">
        <ele>259.00000</ele>
        <time>2024-02-02T12:44:44Z</time>
      </trkpt>
      <trkpt lat="42.84753724" lon="13.48989464">
        <ele>260.00000</ele>
        <time>2024-02-02T12:44:45Z</time>
      </trkpt>
      <trkpt lat="42.84760748" lon="13.48995650">
        <ele>260.00000</ele>
        <time>2024-02-02T12:44:46Z</time>
      </trkpt>
      <trkpt lat="42.84767579" lon="13.49000972">
        <ele>259.00000</ele>
        <time>2024-02-02T12:44:47Z</time>
      </trkpt>
      <trkpt lat="42.84773572" lon="13.49003612">
        <ele>258.00000</ele>
        <time>2024-02-02T12:44:48Z</time>
      </trkpt>
      <trkpt lat="42.84778366" lon="13.49003780">
        <ele>257.00000</ele>
        <time>2024-02-02T12:44:49Z</time>
      </trkpt>
      <trkpt lat="42.84782876" lon="13.49002774">
        <ele>256.00000</ele>
        <time>2024-02-02T12:44:50Z</time>
      </trkpt>
      <trkpt lat="42.84786044" lon="13.48999329">
        <ele>255.00000</ele>
        <time>2024-02-02T12:44:51Z</time>
      </trkpt>
      <trkpt lat="42.84786514" lon="13.48991945">
        <ele>254.00000</ele>
        <time>2024-02-02T12:44:52Z</time>
      </trkpt>
      <trkpt lat="42.84784208" lon="13.48984368">
        <ele>253.00000</ele>
        <time>2024-02-02T12:44:53Z</time>
      </trkpt>
      <trkpt lat="42.84780981" lon="13.48976774">
        <ele>251.00000</ele>
        <time>2024-02-02T12:44:54Z</time>
      </trkpt>
      <trkpt lat="42.84778593" lon="13.48969046">
        <ele>251.00000</ele>
        <time>2024-02-02T12:44:55Z</time>
      </trkpt>
      <trkpt lat="42.84777419" lon="13.48960672">
        <ele>251.00000</ele>
        <time>2024-02-02T12:44:56Z</time>
      </trkpt>
      <trkpt lat="42.84780411" lon="13.48954335">
        <ele>251.00000</ele>
        <time>2024-02-02T12:44:57Z</time>
      </trkpt>
      <trkpt lat="42.84785935" lon="13.48950840">
        <ele>252.00000</ele>
        <time>2024-02-02T12:44:58Z</time>
      </trkpt>
      <trkpt lat="42.84792020" lon="13.48949382">
        <ele>252.00000</ele>
        <time>2024-02-02T12:44:59Z</time>
      </trkpt>
      <trkpt lat="42.84797879" lon="13.48950329">
        <ele>253.00000</ele>
        <time>2024-02-02T12:45:00Z</time>
      </trkpt>
      <trkpt lat="42.84803034" lon="13.48952575">
        <ele>254.00000</ele>
        <time>2024-02-02T12:45:01Z</time>
      </trkpt>
      <trkpt lat="42.84807007" lon="13.48954394">
        <ele>254.00000</ele>
        <time>2024-02-02T12:45:02Z</time>
      </trkpt>
      <trkpt lat="42.84810377" lon="13.48955542">
        <ele>254.00000</ele>
        <time>2024-02-02T12:45:03Z</time>
      </trkpt>
      <trkpt lat="42.84813587" lon="13.48954863">
        <ele>254.00000</ele>
        <time>2024-02-02T12:45:04Z</time>
      </trkpt>
      <trkpt lat="42.84816462" lon="13.48951033">
        <ele>255.00000</ele>
        <time>2024-02-02T12:45:05Z</time>
      </trkpt>
      <trkpt lat="42.84818314" lon="13.48946255">
        <ele>255.00000</ele>
        <time>2024-02-02T12:45:06Z</time>
      </trkpt>
      <trkpt lat="42.84819161" lon="13.48941737">
        <ele>256.00000</ele>
        <time>2024-02-02T12:45:07Z</time>
      </trkpt>
      <trkpt lat="42.84818859" lon="13.48938133">
        <ele>256.00000</ele>
        <time>2024-02-02T12:45:08Z</time>
      </trkpt>
      <trkpt lat="42.84817820" lon="13.48934847">
        <ele>256.00000</ele>
        <time>2024-02-02T12:45:09Z</time>
      </trkpt>
      <trkpt lat="42.84816361" lon="13.48932006">
        <ele>256.00000</ele>
        <time>2024-02-02T12:45:10Z</time>
      </trkpt>
      <trkpt lat="42.84815037" lon="13.48929726">
        <ele>256.00000</ele>
        <time>2024-02-02T12:45:11Z</time>
      </trkpt>
      <trkpt lat="42.84814668" lon="13.48927664">
        <ele>256.00000</ele>
        <time>2024-02-02T12:45:12Z</time>
      </trkpt>
      <trkpt lat="42.84815330" lon="13.48926222">
        <ele>257.00000</ele>
        <time>2024-02-02T12:45:13Z</time>
      </trkpt>
      <trkpt lat="42.84816839" lon="13.48926398">
        <ele>257.00000</ele>
        <time>2024-02-02T12:45:14Z</time>
      </trkpt>
      <trkpt lat="42.84818180" lon="13.48927966">
        <ele>257.00000</ele>
        <time>2024-02-02T12:45:15Z</time>
      </trkpt>
      <trkpt lat="42.84819337" lon="13.48929944">
        <ele>257.00000</ele>
        <time>2024-02-02T12:45:16Z</time>
      </trkpt>
      <trkpt lat="42.84820393" lon="13.48931386">
        <ele>257.00000</ele>
        <time>2024-02-02T12:45:17Z</time>
      </trkpt>
      <trkpt lat="42.84820754" lon="13.48933297">
        <ele>256.00000</ele>
        <time>2024-02-02T12:45:18Z</time>
      </trkpt>
      <trkpt lat="42.84821734" lon="13.48935585">
        <ele>256.00000</ele>
        <time>2024-02-02T12:45:19Z</time>
      </trkpt>
      <trkpt lat="42.84823427" lon="13.48937756">
        <ele>256.00000</ele>
        <time>2024-02-02T12:45:20Z</time>
      </trkpt>
      <trkpt lat="42.84825699" lon="13.48939768">
        <ele>256.00000</ele>
        <time>2024-02-02T12:45:21Z</time>
      </trkpt>
      <trkpt lat="42.84828197" lon="13.48942047">
        <ele>256.00000</ele>
        <time>2024-02-02T12:45:22Z</time>
      </trkpt>
      <trkpt lat="42.84831114" lon="13.48944847">
        <ele>256.00000</ele>
        <time>2024-02-02T12:45:23Z</time>
      </trkpt>
      <trkpt lat="42.84834114" lon="13.48947764">
        <ele>256.00000</ele>
        <time>2024-02-02T12:45:24Z</time>
      </trkpt>
      <trkpt lat="42.84837392" lon="13.48950530">
        <ele>256.00000</ele>
        <time>2024-02-02T12:45:25Z</time>
      </trkpt>
      <trkpt lat="42.84840736" lon="13.48953346">
        <ele>256.00000</ele>
        <time>2024-02-02T12:45:26Z</time>
      </trkpt>
      <trkpt lat="42.84843955" lon="13.48956439">
        <ele>256.00000</ele>
        <time>2024-02-02T12:45:27Z</time>
      </trkpt>
      <trkpt lat="42.84847483" lon="13.48959222">
        <ele>255.00000</ele>
        <time>2024-02-02T12:45:28Z</time>
      </trkpt>
      <trkpt lat="42.84851155" lon="13.48961544">
        <ele>255.00000</ele>
        <time>2024-02-02T12:45:29Z</time>
      </trkpt>
      <trkpt lat="42.84854834" lon="13.48963555">
        <ele>255.00000</ele>
        <time>2024-02-02T12:45:30Z</time>
      </trkpt>
      <trkpt lat="42.84857743" lon="13.48964989">
        <ele>255.00000</ele>
        <time>2024-02-02T12:45:31Z</time>
      </trkpt>
      <trkpt lat="42.84861322" lon="13.48966590">
        <ele>255.00000</ele>
        <time>2024-02-02T12:45:32Z</time>
      </trkpt>
      <trkpt lat="42.84866075" lon="13.48967981">
        <ele>255.00000</ele>
        <time>2024-02-02T12:45:33Z</time>
      </trkpt>
      <trkpt lat="42.84870014" lon="13.48968367">
        <ele>255.00000</ele>
        <time>2024-02-02T12:45:34Z</time>
      </trkpt>
      <trkpt lat="42.84873660" lon="13.48968476">
        <ele>256.00000</ele>
        <time>2024-02-02T12:45:35Z</time>
      </trkpt>
      <trkpt lat="42.84877440" lon="13.48968132">
        <ele>256.00000</ele>
        <time>2024-02-02T12:45:36Z</time>
      </trkpt>
      <trkpt lat="42.84881556" lon="13.48966808">
        <ele>256.00000</ele>
        <time>2024-02-02T12:45:37Z</time>
      </trkpt>
      <trkpt lat="42.84885772" lon="13.48964720">
        <ele>257.00000</ele>
        <time>2024-02-02T12:45:38Z</time>
      </trkpt>
      <trkpt lat="42.84889628" lon="13.48961485">
        <ele>257.00000</ele>
        <time>2024-02-02T12:45:39Z</time>
      </trkpt>
      <trkpt lat="42.84893047" lon="13.48957839">
        <ele>258.00000</ele>
        <time>2024-02-02T12:45:40Z</time>
      </trkpt>
      <trkpt lat="42.84896291" lon="13.48953355">
        <ele>258.00000</ele>
        <time>2024-02-02T12:45:41Z</time>
      </trkpt>
      <trkpt lat="42.84899217" lon="13.48948669">
        <ele>259.00000</ele>
        <time>2024-02-02T12:45:42Z</time>
      </trkpt>
      <trkpt lat="42.84901865" lon="13.48943741">
        <ele>259.00000</ele>
        <time>2024-02-02T12:45:43Z</time>
      </trkpt>
      <trkpt lat="42.84904556" lon="13.48938502">
        <ele>260.00000</ele>
        <time>2024-02-02T12:45:44Z</time>
      </trkpt>
      <trkpt lat="42.84906811" lon="13.48933448">
        <ele>260.00000</ele>
        <time>2024-02-02T12:45:45Z</time>
      </trkpt>
      <trkpt lat="42.84909241" lon="13.48928770">
        <ele>261.00000</ele>
        <time>2024-02-02T12:45:46Z</time>
      </trkpt>
      <trkpt lat="42.84912309" lon="13.48923280">
        <ele>261.00000</ele>
        <time>2024-02-02T12:45:47Z</time>
      </trkpt>
      <trkpt lat="42.84915461" lon="13.48917497">
        <ele>262.00000</ele>
        <time>2024-02-02T12:45:48Z</time>
      </trkpt>
      <trkpt lat="42.84918646" lon="13.48911772">
        <ele>262.00000</ele>
        <time>2024-02-02T12:45:49Z</time>
      </trkpt>
      <trkpt lat="42.84921873" lon="13.48905880">
        <ele>262.00000</ele>
        <time>2024-02-02T12:45:50Z</time>
      </trkpt>
      <trkpt lat="42.84925393" lon="13.48899811">
        <ele>262.00000</ele>
        <time>2024-02-02T12:45:51Z</time>
      </trkpt>
      <trkpt lat="42.84929241" lon="13.48893424">
        <ele>262.00000</ele>
        <time>2024-02-02T12:45:52Z</time>
      </trkpt>
      <trkpt lat="42.84933071" lon="13.48887557">
        <ele>262.00000</ele>
        <time>2024-02-02T12:45:53Z</time>
      </trkpt>
      <trkpt lat="42.84936935" lon="13.48881790">
        <ele>261.00000</ele>
        <time>2024-02-02T12:45:54Z</time>
      </trkpt>
      <trkpt lat="42.84940548" lon="13.48874934">
        <ele>261.00000</ele>
        <time>2024-02-02T12:45:55Z</time>
      </trkpt>
      <trkpt lat="42.84944110" lon="13.48868102">
        <ele>261.00000</ele>
        <time>2024-02-02T12:45:56Z</time>
      </trkpt>
      <trkpt lat="42.84947672" lon="13.48861380">
        <ele>261.00000</ele>
        <time>2024-02-02T12:45:57Z</time>
      </trkpt>
      <trkpt lat="42.84951034" lon="13.48855203">
        <ele>261.00000</ele>
        <time>2024-02-02T12:45:58Z</time>
      </trkpt>
      <trkpt lat="42.84954839" lon="13.48847441">
        <ele>261.00000</ele>
        <time>2024-02-02T12:45:59Z</time>
      </trkpt>
      <trkpt lat="42.84958628" lon="13.48839092">
        <ele>261.00000</ele>
        <time>2024-02-02T12:46:00Z</time>
      </trkpt>
      <trkpt lat="42.84962349" lon="13.48832328">
        <ele>261.00000</ele>
        <time>2024-02-02T12:46:01Z</time>
      </trkpt>
      <trkpt lat="42.84964595" lon="13.48825422">
        <ele>262.00000</ele>
        <time>2024-02-02T12:46:02Z</time>
      </trkpt>
      <trkpt lat="42.84966993" lon="13.48818456">
        <ele>263.00000</ele>
        <time>2024-02-02T12:46:03Z</time>
      </trkpt>
      <trkpt lat="42.84969591" lon="13.48811256">
        <ele>263.00000</ele>
        <time>2024-02-02T12:46:04Z</time>
      </trkpt>
      <trkpt lat="42.84972173" lon="13.48804316">
        <ele>264.00000</ele>
        <time>2024-02-02T12:46:05Z</time>
      </trkpt>
      <trkpt lat="42.84974612" lon="13.48797225">
        <ele>264.00000</ele>
        <time>2024-02-02T12:46:06Z</time>
      </trkpt>
      <trkpt lat="42.84976867" lon="13.48789799">
        <ele>265.00000</ele>
        <time>2024-02-02T12:46:07Z</time>
      </trkpt>
      <trkpt lat="42.84978937" lon="13.48782766">
        <ele>265.00000</ele>
        <time>2024-02-02T12:46:08Z</time>
      </trkpt>
      <trkpt lat="42.84981024" lon="13.48775491">
        <ele>265.00000</ele>
        <time>2024-02-02T12:46:09Z</time>
      </trkpt>
      <trkpt lat="42.84982985" lon="13.48768701">
        <ele>266.00000</ele>
        <time>2024-02-02T12:46:10Z</time>
      </trkpt>
      <trkpt lat="42.84984838" lon="13.48761820">
        <ele>266.00000</ele>
        <time>2024-02-02T12:46:11Z</time>
      </trkpt>
      <trkpt lat="42.84986665" lon="13.48754687">
        <ele>267.00000</ele>
        <time>2024-02-02T12:46:12Z</time>
      </trkpt>
      <trkpt lat="42.84988182" lon="13.48746590">
        <ele>267.00000</ele>
        <time>2024-02-02T12:46:13Z</time>
      </trkpt>
      <trkpt lat="42.84990169" lon="13.48738828">
        <ele>267.00000</ele>
        <time>2024-02-02T12:46:14Z</time>
      </trkpt>
      <trkpt lat="42.84991979" lon="13.48731930">
        <ele>267.00000</ele>
        <time>2024-02-02T12:46:15Z</time>
      </trkpt>
      <trkpt lat="42.84994016" lon="13.48725115">
        <ele>266.00000</ele>
        <time>2024-02-02T12:46:16Z</time>
      </trkpt>
      <trkpt lat="42.84995977" lon="13.48718502">
        <ele>266.00000</ele>
        <time>2024-02-02T12:46:17Z</time>
      </trkpt>
      <trkpt lat="42.84998266" lon="13.48711939">
        <ele>266.00000</ele>
        <time>2024-02-02T12:46:18Z</time>
      </trkpt>
      <trkpt lat="42.85000964" lon="13.48704999">
        <ele>265.00000</ele>
        <time>2024-02-02T12:46:19Z</time>
      </trkpt>
      <trkpt lat="42.85003915" lon="13.48698277">
        <ele>265.00000</ele>
        <time>2024-02-02T12:46:20Z</time>
      </trkpt>
      <trkpt lat="42.85006924" lon="13.48691982">
        <ele>265.00000</ele>
        <time>2024-02-02T12:46:21Z</time>
      </trkpt>
      <trkpt lat="42.85010235" lon="13.48685503">
        <ele>264.00000</ele>
        <time>2024-02-02T12:46:22Z</time>
      </trkpt>
      <trkpt lat="42.85013479" lon="13.48678973">
        <ele>264.00000</ele>
        <time>2024-02-02T12:46:23Z</time>
      </trkpt>
      <trkpt lat="42.85017209" lon="13.48672678">
        <ele>263.00000</ele>
        <time>2024-02-02T12:46:24Z</time>
      </trkpt>
      <trkpt lat="42.85020955" lon="13.48666685">
        <ele>262.00000</ele>
        <time>2024-02-02T12:46:25Z</time>
      </trkpt>
      <trkpt lat="42.85024845" lon="13.48660835">
        <ele>261.00000</ele>
        <time>2024-02-02T12:46:26Z</time>
      </trkpt>
      <trkpt lat="42.85028692" lon="13.48654741">
        <ele>261.00000</ele>
        <time>2024-02-02T12:46:27Z</time>
      </trkpt>
      <trkpt lat="42.85032564" lon="13.48648664">
        <ele>261.00000</ele>
        <time>2024-02-02T12:46:28Z</time>
      </trkpt>
      <trkpt lat="42.85036403" lon="13.48642788">
        <ele>262.00000</ele>
        <time>2024-02-02T12:46:29Z</time>
      </trkpt>
      <trkpt lat="42.85040552" lon="13.48636661">
        <ele>263.00000</ele>
        <time>2024-02-02T12:46:30Z</time>
      </trkpt>
      <trkpt lat="42.85044936" lon="13.48630375">
        <ele>263.00000</ele>
        <time>2024-02-02T12:46:31Z</time>
      </trkpt>
      <trkpt lat="42.85049378" lon="13.48624004">
        <ele>264.00000</ele>
        <time>2024-02-02T12:46:32Z</time>
      </trkpt>
      <trkpt lat="42.85053779" lon="13.48617793">
        <ele>265.00000</ele>
        <time>2024-02-02T12:46:33Z</time>
      </trkpt>
      <trkpt lat="42.85058054" lon="13.48611557">
        <ele>265.00000</ele>
        <time>2024-02-02T12:46:34Z</time>
      </trkpt>
      <trkpt lat="42.85062287" lon="13.48605154">
        <ele>265.00000</ele>
        <time>2024-02-02T12:46:35Z</time>
      </trkpt>
      <trkpt lat="42.85066469" lon="13.48598632">
        <ele>266.00000</ele>
        <time>2024-02-02T12:46:36Z</time>
      </trkpt>
      <trkpt lat="42.85070903" lon="13.48592136">
        <ele>266.00000</ele>
        <time>2024-02-02T12:46:37Z</time>
      </trkpt>
      <trkpt lat="42.85075396" lon="13.48585666">
        <ele>265.00000</ele>
        <time>2024-02-02T12:46:38Z</time>
      </trkpt>
      <trkpt lat="42.85079771" lon="13.48579228">
        <ele>265.00000</ele>
        <time>2024-02-02T12:46:39Z</time>
      </trkpt>
      <trkpt lat="42.85084096" lon="13.48572598">
        <ele>265.00000</ele>
        <time>2024-02-02T12:46:40Z</time>
      </trkpt>
      <trkpt lat="42.85088396" lon="13.48566153">
        <ele>266.00000</ele>
        <time>2024-02-02T12:46:41Z</time>
      </trkpt>
      <trkpt lat="42.85092445" lon="13.48559891">
        <ele>266.00000</ele>
        <time>2024-02-02T12:46:42Z</time>
      </trkpt>
      <trkpt lat="42.85096636" lon="13.48553622">
        <ele>266.00000</ele>
        <time>2024-02-02T12:46:43Z</time>
      </trkpt>
      <trkpt lat="42.85100826" lon="13.48546941">
        <ele>267.00000</ele>
        <time>2024-02-02T12:46:44Z</time>
      </trkpt>
      <trkpt lat="42.85104976" lon="13.48540185">
        <ele>268.00000</ele>
        <time>2024-02-02T12:46:45Z</time>
      </trkpt>
      <trkpt lat="42.85109083" lon="13.48533463">
        <ele>269.00000</ele>
        <time>2024-02-02T12:46:46Z</time>
      </trkpt>
      <trkpt lat="42.85113366" lon="13.48526858">
        <ele>269.00000</ele>
        <time>2024-02-02T12:46:47Z</time>
      </trkpt>
      <trkpt lat="42.85117632" lon="13.48520237">
        <ele>269.00000</ele>
        <time>2024-02-02T12:46:48Z</time>
      </trkpt>
      <trkpt lat="42.85121832" lon="13.48513657">
        <ele>270.00000</ele>
        <time>2024-02-02T12:46:49Z</time>
      </trkpt>
      <trkpt lat="42.85126006" lon="13.48507069">
        <ele>270.00000</ele>
        <time>2024-02-02T12:46:50Z</time>
      </trkpt>
      <trkpt lat="42.85130348" lon="13.48500807">
        <ele>269.00000</ele>
        <time>2024-02-02T12:46:51Z</time>
      </trkpt>
      <trkpt lat="42.85134748" lon="13.48494227">
        <ele>269.00000</ele>
        <time>2024-02-02T12:46:52Z</time>
      </trkpt>
      <trkpt lat="42.85139107" lon="13.48487623">
        <ele>269.00000</ele>
        <time>2024-02-02T12:46:53Z</time>
      </trkpt>
      <trkpt lat="42.85143331" lon="13.48481328">
        <ele>270.00000</ele>
        <time>2024-02-02T12:46:54Z</time>
      </trkpt>
      <trkpt lat="42.85147639" lon="13.48474957">
        <ele>270.00000</ele>
        <time>2024-02-02T12:46:55Z</time>
      </trkpt>
      <trkpt lat="42.85152032" lon="13.48468302">
        <ele>270.00000</ele>
        <time>2024-02-02T12:46:56Z</time>
      </trkpt>
      <trkpt lat="42.85156432" lon="13.48461681">
        <ele>271.00000</ele>
        <time>2024-02-02T12:46:57Z</time>
      </trkpt>
      <trkpt lat="42.85160950" lon="13.48454983">
        <ele>271.00000</ele>
        <time>2024-02-02T12:46:58Z</time>
      </trkpt>
      <trkpt lat="42.85165501" lon="13.48448387">
        <ele>270.00000</ele>
        <time>2024-02-02T12:46:59Z</time>
      </trkpt>
      <trkpt lat="42.85170220" lon="13.48442067">
        <ele>270.00000</ele>
        <time>2024-02-02T12:47:00Z</time>
      </trkpt>
      <trkpt lat="42.85175040" lon="13.48436074">
        <ele>270.00000</ele>
        <time>2024-02-02T12:47:01Z</time>
      </trkpt>
      <trkpt lat="42.85180035" lon="13.48430416">
        <ele>270.00000</ele>
        <time>2024-02-02T12:47:02Z</time>
      </trkpt>
      <trkpt lat="42.85185190" lon="13.48425337">
        <ele>270.00000</ele>
        <time>2024-02-02T12:47:03Z</time>
      </trkpt>
      <trkpt lat="42.85190655" lon="13.48420626">
        <ele>269.00000</ele>
        <time>2024-02-02T12:47:04Z</time>
      </trkpt>
      <trkpt lat="42.85196338" lon="13.48416259">
        <ele>268.00000</ele>
        <time>2024-02-02T12:47:05Z</time>
      </trkpt>
      <trkpt lat="42.85202030" lon="13.48412881">
        <ele>268.00000</ele>
        <time>2024-02-02T12:47:06Z</time>
      </trkpt>
      <trkpt lat="42.85207989" lon="13.48410543">
        <ele>267.00000</ele>
        <time>2024-02-02T12:47:07Z</time>
      </trkpt>
      <trkpt lat="42.85214007" lon="13.48409092">
        <ele>267.00000</ele>
        <time>2024-02-02T12:47:08Z</time>
      </trkpt>
      <trkpt lat="42.85219942" lon="13.48408305">
        <ele>266.00000</ele>
        <time>2024-02-02T12:47:09Z</time>
      </trkpt>
      <trkpt lat="42.85225700" lon="13.48408154">
        <ele>267.00000</ele>
        <time>2024-02-02T12:47:10Z</time>
      </trkpt>
      <trkpt lat="42.85231182" lon="13.48408631">
        <ele>267.00000</ele>
        <time>2024-02-02T12:47:11Z</time>
      </trkpt>
      <trkpt lat="42.85236789" lon="13.48409730">
        <ele>268.00000</ele>
        <time>2024-02-02T12:47:12Z</time>
      </trkpt>
      <trkpt lat="42.85242254" lon="13.48410895">
        <ele>268.00000</ele>
        <time>2024-02-02T12:47:13Z</time>
      </trkpt>
      <trkpt lat="42.85247392" lon="13.48412060">
        <ele>268.00000</ele>
        <time>2024-02-02T12:47:14Z</time>
      </trkpt>
      <trkpt lat="42.85252539" lon="13.48413560">
        <ele>269.00000</ele>
        <time>2024-02-02T12:47:15Z</time>
      </trkpt>
      <trkpt lat="42.85257711" lon="13.48414859">
        <ele>270.00000</ele>
        <time>2024-02-02T12:47:16Z</time>
      </trkpt>
      <trkpt lat="42.85262648" lon="13.48416192">
        <ele>270.00000</ele>
        <time>2024-02-02T12:47:17Z</time>
      </trkpt>
      <trkpt lat="42.85266922" lon="13.48417676">
        <ele>271.00000</ele>
        <time>2024-02-02T12:47:18Z</time>
      </trkpt>
      <trkpt lat="42.85271289" lon="13.48418849">
        <ele>271.00000</ele>
        <time>2024-02-02T12:47:19Z</time>
      </trkpt>
      <trkpt lat="42.85275757" lon="13.48420039">
        <ele>272.00000</ele>
        <time>2024-02-02T12:47:20Z</time>
      </trkpt>
      <trkpt lat="42.85279638" lon="13.48420802">
        <ele>272.00000</ele>
        <time>2024-02-02T12:47:21Z</time>
      </trkpt>
      <trkpt lat="42.85285329" lon="13.48421523">
        <ele>273.00000</ele>
        <time>2024-02-02T12:47:22Z</time>
      </trkpt>
      <trkpt lat="42.85289361" lon="13.48421908">
        <ele>273.00000</ele>
        <time>2024-02-02T12:47:23Z</time>
      </trkpt>
      <trkpt lat="42.85295697" lon="13.48421950">
        <ele>274.00000</ele>
        <time>2024-02-02T12:47:24Z</time>
      </trkpt>
      <trkpt lat="42.85300827" lon="13.48421330">
        <ele>275.00000</ele>
        <time>2024-02-02T12:47:25Z</time>
      </trkpt>
      <trkpt lat="42.85305680" lon="13.48420626">
        <ele>275.00000</ele>
        <time>2024-02-02T12:47:26Z</time>
      </trkpt>
      <trkpt lat="42.85309435" lon="13.48420115">
        <ele>275.00000</ele>
        <time>2024-02-02T12:47:27Z</time>
      </trkpt>
      <trkpt lat="42.85314573" lon="13.48418933">
        <ele>276.00000</ele>
        <time>2024-02-02T12:47:28Z</time>
      </trkpt>
      <trkpt lat="42.85318597" lon="13.48417893">
        <ele>276.00000</ele>
        <time>2024-02-02T12:47:29Z</time>
      </trkpt>
      <trkpt lat="42.85322343" lon="13.48416712">
        <ele>276.00000</ele>
        <time>2024-02-02T12:47:30Z</time>
      </trkpt>
      <trkpt lat="42.85325872" lon="13.48415362">
        <ele>276.00000</ele>
        <time>2024-02-02T12:47:31Z</time>
      </trkpt>
      <trkpt lat="42.85329208" lon="13.48413912">
        <ele>276.00000</ele>
        <time>2024-02-02T12:47:32Z</time>
      </trkpt>
      <trkpt lat="42.85332351" lon="13.48412479">
        <ele>277.00000</ele>
        <time>2024-02-02T12:47:33Z</time>
      </trkpt>
      <trkpt lat="42.85335109" lon="13.48411817">
        <ele>277.00000</ele>
        <time>2024-02-02T12:47:34Z</time>
      </trkpt>
      <trkpt lat="42.85337540" lon="13.48411289">
        <ele>277.00000</ele>
        <time>2024-02-02T12:47:35Z</time>
      </trkpt>
      <trkpt lat="42.85339828" lon="13.48410232">
        <ele>277.00000</ele>
        <time>2024-02-02T12:47:36Z</time>
      </trkpt>
      <trkpt lat="42.85342033" lon="13.48409009">
        <ele>277.00000</ele>
        <time>2024-02-02T12:47:37Z</time>
      </trkpt>
      <trkpt lat="42.85344044" lon="13.48408120">
        <ele>277.00000</ele>
        <time>2024-02-02T12:47:38Z</time>
      </trkpt>
      <trkpt lat="42.85345989" lon="13.48407601">
        <ele>277.00000</ele>
        <time>2024-02-02T12:47:39Z</time>
      </trkpt>
      <trkpt lat="42.85348051" lon="13.48407475">
        <ele>276.00000</ele>
        <time>2024-02-02T12:47:40Z</time>
      </trkpt>
      <trkpt lat="42.85350188" lon="13.48407399">
        <ele>276.00000</ele>
        <time>2024-02-02T12:47:41Z</time>
      </trkpt>
      <trkpt lat="42.85352585" lon="13.48406293">
        <ele>276.00000</ele>
        <time>2024-02-02T12:47:42Z</time>
      </trkpt>
      <trkpt lat="42.85355192" lon="13.48404801">
        <ele>276.00000</ele>
        <time>2024-02-02T12:47:43Z</time>
      </trkpt>
      <trkpt lat="42.85358159" lon="13.48403477">
        <ele>277.00000</ele>
        <time>2024-02-02T12:47:44Z</time>
      </trkpt>
      <trkpt lat="42.85361001" lon="13.48402085">
        <ele>277.00000</ele>
        <time>2024-02-02T12:47:45Z</time>
      </trkpt>
      <trkpt lat="42.85364010" lon="13.48400543">
        <ele>276.00000</ele>
        <time>2024-02-02T12:47:46Z</time>
      </trkpt>
      <trkpt lat="42.85367270" lon="13.48398950">
        <ele>276.00000</ele>
        <time>2024-02-02T12:47:47Z</time>
      </trkpt>
      <trkpt lat="42.85370673" lon="13.48397115">
        <ele>276.00000</ele>
        <time>2024-02-02T12:47:48Z</time>
      </trkpt>
      <trkpt lat="42.85374177" lon="13.48395195">
        <ele>276.00000</ele>
        <time>2024-02-02T12:47:49Z</time>
      </trkpt>
      <trkpt lat="42.85377698" lon="13.48393024">
        <ele>276.00000</ele>
        <time>2024-02-02T12:47:50Z</time>
      </trkpt>
      <trkpt lat="42.85381184" lon="13.48390694">
        <ele>276.00000</ele>
        <time>2024-02-02T12:47:51Z</time>
      </trkpt>
      <trkpt lat="42.85384076" lon="13.48388641">
        <ele>276.00000</ele>
        <time>2024-02-02T12:47:52Z</time>
      </trkpt>
      <trkpt lat="42.85388435" lon="13.48385439">
        <ele>276.00000</ele>
        <time>2024-02-02T12:47:53Z</time>
      </trkpt>
      <trkpt lat="42.85392031" lon="13.48382371">
        <ele>276.00000</ele>
        <time>2024-02-02T12:47:54Z</time>
      </trkpt>
      <trkpt lat="42.85395685" lon="13.48379555">
        <ele>275.00000</ele>
        <time>2024-02-02T12:47:55Z</time>
      </trkpt>
      <trkpt lat="42.85399205" lon="13.48376814">
        <ele>275.00000</ele>
        <time>2024-02-02T12:47:56Z</time>
      </trkpt>
      <trkpt lat="42.85402843" lon="13.48373520">
        <ele>275.00000</ele>
        <time>2024-02-02T12:47:57Z</time>
      </trkpt>
      <trkpt lat="42.85405618" lon="13.48370477">
        <ele>275.00000</ele>
        <time>2024-02-02T12:47:58Z</time>
      </trkpt>
      <trkpt lat="42.85409507" lon="13.48365423">
        <ele>275.00000</ele>
        <time>2024-02-02T12:47:59Z</time>
      </trkpt>
      <trkpt lat="42.85412566" lon="13.48360980">
        <ele>275.00000</ele>
        <time>2024-02-02T12:48:00Z</time>
      </trkpt>
      <trkpt lat="42.85415475" lon="13.48356354">
        <ele>275.00000</ele>
        <time>2024-02-02T12:48:01Z</time>
      </trkpt>
      <trkpt lat="42.85417679" lon="13.48352406">
        <ele>275.00000</ele>
        <time>2024-02-02T12:48:02Z</time>
      </trkpt>
      <trkpt lat="42.85420244" lon="13.48347251">
        <ele>275.00000</ele>
        <time>2024-02-02T12:48:03Z</time>
      </trkpt>
      <trkpt lat="42.85423119" lon="13.48341115">
        <ele>275.00000</ele>
        <time>2024-02-02T12:48:04Z</time>
      </trkpt>
      <trkpt lat="42.85425349" lon="13.48335349">
        <ele>276.00000</ele>
        <time>2024-02-02T12:48:05Z</time>
      </trkpt>
      <trkpt lat="42.85427654" lon="13.48329339">
        <ele>276.00000</ele>
        <time>2024-02-02T12:48:06Z</time>
      </trkpt>
      <trkpt lat="42.85429741" lon="13.48323354">
        <ele>276.00000</ele>
        <time>2024-02-02T12:48:07Z</time>
      </trkpt>
      <trkpt lat="42.85431769" lon="13.48317470">
        <ele>277.00000</ele>
        <time>2024-02-02T12:48:08Z</time>
      </trkpt>
      <trkpt lat="42.85433437" lon="13.48311385">
        <ele>277.00000</ele>
        <time>2024-02-02T12:48:09Z</time>
      </trkpt>
      <trkpt lat="42.85435315" lon="13.48305123">
        <ele>278.00000</ele>
        <time>2024-02-02T12:48:10Z</time>
      </trkpt>
      <trkpt lat="42.85437033" lon="13.48298585">
        <ele>278.00000</ele>
        <time>2024-02-02T12:48:11Z</time>
      </trkpt>
      <trkpt lat="42.85438290" lon="13.48293380">
        <ele>278.00000</ele>
        <time>2024-02-02T12:48:12Z</time>
      </trkpt>
      <trkpt lat="42.85439657" lon="13.48287245">
        <ele>278.00000</ele>
        <time>2024-02-02T12:48:13Z</time>
      </trkpt>
      <trkpt lat="42.85441023" lon="13.48280933">
        <ele>278.00000</ele>
        <time>2024-02-02T12:48:14Z</time>
      </trkpt>
      <trkpt lat="42.85442842" lon="13.48272719">
        <ele>278.00000</ele>
        <time>2024-02-02T12:48:15Z</time>
      </trkpt>
      <trkpt lat="42.85444225" lon="13.48265611">
        <ele>278.00000</ele>
        <time>2024-02-02T12:48:16Z</time>
      </trkpt>
      <trkpt lat="42.85445029" lon="13.48260004">
        <ele>278.00000</ele>
        <time>2024-02-02T12:48:17Z</time>
      </trkpt>
      <trkpt lat="42.85446035" lon="13.48252980">
        <ele>278.00000</ele>
        <time>2024-02-02T12:48:18Z</time>
      </trkpt>
      <trkpt lat="42.85446915" lon="13.48246023">
        <ele>278.00000</ele>
        <time>2024-02-02T12:48:19Z</time>
      </trkpt>
      <trkpt lat="42.85448038" lon="13.48237733">
        <ele>278.00000</ele>
        <time>2024-02-02T12:48:20Z</time>
      </trkpt>
      <trkpt lat="42.85449036" lon="13.48230600">
        <ele>278.00000</ele>
        <time>2024-02-02T12:48:21Z</time>
      </trkpt>
      <trkpt lat="42.85450302" lon="13.48223400">
        <ele>278.00000</ele>
        <time>2024-02-02T12:48:22Z</time>
      </trkpt>
      <trkpt lat="42.85451291" lon="13.48217491">
        <ele>278.00000</ele>
        <time>2024-02-02T12:48:23Z</time>
      </trkpt>
      <trkpt lat="42.85452866" lon="13.48210114">
        <ele>278.00000</ele>
        <time>2024-02-02T12:48:24Z</time>
      </trkpt>
      <trkpt lat="42.85454660" lon="13.48202504">
        <ele>278.00000</ele>
        <time>2024-02-02T12:48:25Z</time>
      </trkpt>
      <trkpt lat="42.85456881" lon="13.48194792">
        <ele>278.00000</ele>
        <time>2024-02-02T12:48:26Z</time>
      </trkpt>
      <trkpt lat="42.85459731" lon="13.48185840">
        <ele>279.00000</ele>
        <time>2024-02-02T12:48:27Z</time>
      </trkpt>
      <trkpt lat="42.85461818" lon="13.48179923">
        <ele>279.00000</ele>
        <time>2024-02-02T12:48:28Z</time>
      </trkpt>
      <trkpt lat="42.85464819" lon="13.48172731">
        <ele>279.00000</ele>
        <time>2024-02-02T12:48:29Z</time>
      </trkpt>
      <trkpt lat="42.85468834" lon="13.48164316">
        <ele>278.00000</ele>
        <time>2024-02-02T12:48:30Z</time>
      </trkpt>
      <trkpt lat="42.85471642" lon="13.48158767">
        <ele>278.00000</ele>
        <time>2024-02-02T12:48:31Z</time>
      </trkpt>
      <trkpt lat="42.85475431" lon="13.48151919">
        <ele>278.00000</ele>
        <time>2024-02-02T12:48:32Z</time>
      </trkpt>
      <trkpt lat="42.85479462" lon="13.48145331">
        <ele>278.00000</ele>
        <time>2024-02-02T12:48:33Z</time>
      </trkpt>
      <trkpt lat="42.85483703" lon="13.48138826">
        <ele>278.00000</ele>
        <time>2024-02-02T12:48:34Z</time>
      </trkpt>
      <trkpt lat="42.85487844" lon="13.48132138">
        <ele>279.00000</ele>
        <time>2024-02-02T12:48:35Z</time>
      </trkpt>
      <trkpt lat="42.85491968" lon="13.48125482">
        <ele>279.00000</ele>
        <time>2024-02-02T12:48:36Z</time>
      </trkpt>
      <trkpt lat="42.85496989" lon="13.48117411">
        <ele>279.00000</ele>
        <time>2024-02-02T12:48:37Z</time>
      </trkpt>
      <trkpt lat="42.85501180" lon="13.48110621">
        <ele>279.00000</ele>
        <time>2024-02-02T12:48:38Z</time>
      </trkpt>
      <trkpt lat="42.85505413" lon="13.48103966">
        <ele>280.00000</ele>
        <time>2024-02-02T12:48:39Z</time>
      </trkpt>
      <trkpt lat="42.85508925" lon="13.48098635">
        <ele>280.00000</ele>
        <time>2024-02-02T12:48:40Z</time>
      </trkpt>
      <trkpt lat="42.85514306" lon="13.48090957">
        <ele>280.00000</ele>
        <time>2024-02-02T12:48:41Z</time>
      </trkpt>
      <trkpt lat="42.85519075" lon="13.48085090">
        <ele>280.00000</ele>
        <time>2024-02-02T12:48:42Z</time>
      </trkpt>
      <trkpt lat="42.85522998" lon="13.48080430">
        <ele>280.00000</ele>
        <time>2024-02-02T12:48:43Z</time>
      </trkpt>
      <trkpt lat="42.85527633" lon="13.48074646">
        <ele>280.00000</ele>
        <time>2024-02-02T12:48:44Z</time>
      </trkpt>
      <trkpt lat="42.85532109" lon="13.48068930">
        <ele>280.00000</ele>
        <time>2024-02-02T12:48:45Z</time>
      </trkpt>
      <trkpt lat="42.85537616" lon="13.48062082">
        <ele>279.00000</ele>
        <time>2024-02-02T12:48:46Z</time>
      </trkpt>
      <trkpt lat="42.85542335" lon="13.48056214">
        <ele>279.00000</ele>
        <time>2024-02-02T12:48:47Z</time>
      </trkpt>
      <trkpt lat="42.85546199" lon="13.48051596">
        <ele>280.00000</ele>
        <time>2024-02-02T12:48:48Z</time>
      </trkpt>
      <trkpt lat="42.85551069" lon="13.48045879">
        <ele>280.00000</ele>
        <time>2024-02-02T12:48:49Z</time>
      </trkpt>
      <trkpt lat="42.85555888" lon="13.48040037">
        <ele>280.00000</ele>
        <time>2024-02-02T12:48:50Z</time>
      </trkpt>
      <trkpt lat="42.85561655" lon="13.48032888">
        <ele>280.00000</ele>
        <time>2024-02-02T12:48:51Z</time>
      </trkpt>
      <trkpt lat="42.85566584" lon="13.48027179">
        <ele>280.00000</ele>
        <time>2024-02-02T12:48:52Z</time>
      </trkpt>
      <trkpt lat="42.85571613" lon="13.48021572">
        <ele>280.00000</ele>
        <time>2024-02-02T12:48:53Z</time>
      </trkpt>
      <trkpt lat="42.85575628" lon="13.48017272">
        <ele>280.00000</ele>
        <time>2024-02-02T12:48:54Z</time>
      </trkpt>
      <trkpt lat="42.85580540" lon="13.48011564">
        <ele>280.00000</ele>
        <time>2024-02-02T12:48:55Z</time>
      </trkpt>
      <trkpt lat="42.85586189" lon="13.48004423">
        <ele>280.00000</ele>
        <time>2024-02-02T12:48:56Z</time>
      </trkpt>
      <trkpt lat="42.85591201" lon="13.47998505">
        <ele>280.00000</ele>
        <time>2024-02-02T12:48:57Z</time>
      </trkpt>
      <trkpt lat="42.85596222" lon="13.47992462">
        <ele>280.00000</ele>
        <time>2024-02-02T12:48:58Z</time>
      </trkpt>
      <trkpt lat="42.85600421" lon="13.47987533">
        <ele>280.00000</ele>
        <time>2024-02-02T12:48:59Z</time>
      </trkpt>
      <trkpt lat="42.85605652" lon="13.47981808">
        <ele>280.00000</ele>
        <time>2024-02-02T12:49:00Z</time>
      </trkpt>
      <trkpt lat="42.85611905" lon="13.47975052">
        <ele>281.00000</ele>
        <time>2024-02-02T12:49:01Z</time>
      </trkpt>
      <trkpt lat="42.85617353" lon="13.47969118">
        <ele>281.00000</ele>
        <time>2024-02-02T12:49:02Z</time>
      </trkpt>
      <trkpt lat="42.85622742" lon="13.47962865">
        <ele>281.00000</ele>
        <time>2024-02-02T12:49:03Z</time>
      </trkpt>
      <trkpt lat="42.85628098" lon="13.47956579">
        <ele>281.00000</ele>
        <time>2024-02-02T12:49:04Z</time>
      </trkpt>
      <trkpt lat="42.85632298" lon="13.47951617">
        <ele>281.00000</ele>
        <time>2024-02-02T12:49:05Z</time>
      </trkpt>
      <trkpt lat="42.85638861" lon="13.47944039">
        <ele>282.00000</ele>
        <time>2024-02-02T12:49:06Z</time>
      </trkpt>
      <trkpt lat="42.85644418" lon="13.47937527">
        <ele>282.00000</ele>
        <time>2024-02-02T12:49:07Z</time>
      </trkpt>
      <trkpt lat="42.85649741" lon="13.47931190">
        <ele>282.00000</ele>
        <time>2024-02-02T12:49:08Z</time>
      </trkpt>
      <trkpt lat="42.85654854" lon="13.47925256">
        <ele>282.00000</ele>
        <time>2024-02-02T12:49:09Z</time>
      </trkpt>
      <trkpt lat="42.85659983" lon="13.47919321">
        <ele>282.00000</ele>
        <time>2024-02-02T12:49:10Z</time>
      </trkpt>
      <trkpt lat="42.85665431" lon="13.47913454">
        <ele>282.00000</ele>
        <time>2024-02-02T12:49:11Z</time>
      </trkpt>
      <trkpt lat="42.85671140" lon="13.47907654">
        <ele>282.00000</ele>
        <time>2024-02-02T12:49:12Z</time>
      </trkpt>
      <trkpt lat="42.85676948" lon="13.47901962">
        <ele>282.00000</ele>
        <time>2024-02-02T12:49:13Z</time>
      </trkpt>
      <trkpt lat="42.85682774" lon="13.47896212">
        <ele>282.00000</ele>
        <time>2024-02-02T12:49:14Z</time>
      </trkpt>
      <trkpt lat="42.85688532" lon="13.47890697">
        <ele>282.00000</ele>
        <time>2024-02-02T12:49:15Z</time>
      </trkpt>
      <trkpt lat="42.85694466" lon="13.47885408">
        <ele>281.00000</ele>
        <time>2024-02-02T12:49:16Z</time>
      </trkpt>
      <trkpt lat="42.85699261" lon="13.47881519">
        <ele>281.00000</ele>
        <time>2024-02-02T12:49:17Z</time>
      </trkpt>
      <trkpt lat="42.85705237" lon="13.47876691">
        <ele>282.00000</ele>
        <time>2024-02-02T12:49:18Z</time>
      </trkpt>
      <trkpt lat="42.85712521" lon="13.47870840">
        <ele>282.00000</ele>
        <time>2024-02-02T12:49:19Z</time>
      </trkpt>
      <trkpt lat="42.85717458" lon="13.47866943">
        <ele>282.00000</ele>
        <time>2024-02-02T12:49:20Z</time>
      </trkpt>
      <trkpt lat="42.85724566" lon="13.47861721">
        <ele>283.00000</ele>
        <time>2024-02-02T12:49:21Z</time>
      </trkpt>
      <trkpt lat="42.85730475" lon="13.47856826">
        <ele>283.00000</ele>
        <time>2024-02-02T12:49:22Z</time>
      </trkpt>
      <trkpt lat="42.85736250" lon="13.47852090">
        <ele>284.00000</ele>
        <time>2024-02-02T12:49:23Z</time>
      </trkpt>
      <trkpt lat="42.85741036" lon="13.47848461">
        <ele>284.00000</ele>
        <time>2024-02-02T12:49:24Z</time>
      </trkpt>
      <trkpt lat="42.85746786" lon="13.47844052">
        <ele>285.00000</ele>
        <time>2024-02-02T12:49:25Z</time>
      </trkpt>
      <trkpt lat="42.85752545" lon="13.47839936">
        <ele>285.00000</ele>
        <time>2024-02-02T12:49:26Z</time>
      </trkpt>
      <trkpt lat="42.85759049" lon="13.47834756">
        <ele>285.00000</ele>
        <time>2024-02-02T12:49:27Z</time>
      </trkpt>
      <trkpt lat="42.85764430" lon="13.47830121">
        <ele>286.00000</ele>
        <time>2024-02-02T12:49:28Z</time>
      </trkpt>
      <trkpt lat="42.85769568" lon="13.47825729">
        <ele>286.00000</ele>
        <time>2024-02-02T12:49:29Z</time>
      </trkpt>
      <trkpt lat="42.85774530" lon="13.47821571">
        <ele>286.00000</ele>
        <time>2024-02-02T12:49:30Z</time>
      </trkpt>
      <trkpt lat="42.85778461" lon="13.47818177">
        <ele>286.00000</ele>
        <time>2024-02-02T12:49:31Z</time>
      </trkpt>
      <trkpt lat="42.85783365" lon="13.47814019">
        <ele>286.00000</ele>
        <time>2024-02-02T12:49:32Z</time>
      </trkpt>
      <trkpt lat="42.85789635" lon="13.47809309">
        <ele>286.00000</ele>
        <time>2024-02-02T12:49:33Z</time>
      </trkpt>
      <trkpt lat="42.85794672" lon="13.47805327">
        <ele>286.00000</ele>
        <time>2024-02-02T12:49:34Z</time>
      </trkpt>
      <trkpt lat="42.85799425" lon="13.47800985">
        <ele>286.00000</ele>
        <time>2024-02-02T12:49:35Z</time>
      </trkpt>
      <trkpt lat="42.85803892" lon="13.47796996">
        <ele>286.00000</ele>
        <time>2024-02-02T12:49:36Z</time>
      </trkpt>
      <trkpt lat="42.85807505" lon="13.47793928">
        <ele>286.00000</ele>
        <time>2024-02-02T12:49:37Z</time>
      </trkpt>
      <trkpt lat="42.85813045" lon="13.47789351">
        <ele>286.00000</ele>
        <time>2024-02-02T12:49:38Z</time>
      </trkpt>
      <trkpt lat="42.85817982" lon="13.47785546">
        <ele>286.00000</ele>
        <time>2024-02-02T12:49:39Z</time>
      </trkpt>
      <trkpt lat="42.85822995" lon="13.47781757">
        <ele>287.00000</ele>
        <time>2024-02-02T12:49:40Z</time>
      </trkpt>
      <trkpt lat="42.85827504" lon="13.47778522">
        <ele>287.00000</ele>
        <time>2024-02-02T12:49:41Z</time>
      </trkpt>
      <trkpt lat="42.85831904" lon="13.47775136">
        <ele>287.00000</ele>
        <time>2024-02-02T12:49:42Z</time>
      </trkpt>
      <trkpt lat="42.85836548" lon="13.47771464">
        <ele>287.00000</ele>
        <time>2024-02-02T12:49:43Z</time>
      </trkpt>
      <trkpt lat="42.85841552" lon="13.47767399">
        <ele>287.00000</ele>
        <time>2024-02-02T12:49:44Z</time>
      </trkpt>
      <trkpt lat="42.85846556" lon="13.47762982">
        <ele>287.00000</ele>
        <time>2024-02-02T12:49:45Z</time>
      </trkpt>
      <trkpt lat="42.85851367" lon="13.47759042">
        <ele>287.00000</ele>
        <time>2024-02-02T12:49:46Z</time>
      </trkpt>
      <trkpt lat="42.85855868" lon="13.47755027">
        <ele>287.00000</ele>
        <time>2024-02-02T12:49:47Z</time>
      </trkpt>
      <trkpt lat="42.85860428" lon="13.47751222">
        <ele>287.00000</ele>
        <time>2024-02-02T12:49:48Z</time>
      </trkpt>
      <trkpt lat="42.85865818" lon="13.47746729">
        <ele>287.00000</ele>
        <time>2024-02-02T12:49:49Z</time>
      </trkpt>
      <trkpt lat="42.85870905" lon="13.47743083">
        <ele>287.00000</ele>
        <time>2024-02-02T12:49:50Z</time>
      </trkpt>
      <trkpt lat="42.85874837" lon="13.47740099">
        <ele>288.00000</ele>
        <time>2024-02-02T12:49:51Z</time>
      </trkpt>
      <trkpt lat="42.85879505" lon="13.47736520">
        <ele>288.00000</ele>
        <time>2024-02-02T12:49:52Z</time>
      </trkpt>
      <trkpt lat="42.85885524" lon="13.47732447">
        <ele>288.00000</ele>
        <time>2024-02-02T12:49:53Z</time>
      </trkpt>
      <trkpt lat="42.85890351" lon="13.47728499">
        <ele>289.00000</ele>
        <time>2024-02-02T12:49:54Z</time>
      </trkpt>
      <trkpt lat="42.85895540" lon="13.47724216">
        <ele>289.00000</ele>
        <time>2024-02-02T12:49:55Z</time>
      </trkpt>
      <trkpt lat="42.85899370" lon="13.47720880">
        <ele>290.00000</ele>
        <time>2024-02-02T12:49:56Z</time>
      </trkpt>
      <trkpt lat="42.85903595" lon="13.47716756">
        <ele>290.00000</ele>
        <time>2024-02-02T12:49:57Z</time>
      </trkpt>
      <trkpt lat="42.85909026" lon="13.47713026">
        <ele>290.00000</ele>
        <time>2024-02-02T12:49:58Z</time>
      </trkpt>
      <trkpt lat="42.85913410" lon="13.47709572">
        <ele>290.00000</ele>
        <time>2024-02-02T12:49:59Z</time>
      </trkpt>
      <trkpt lat="42.85916989" lon="13.47706597">
        <ele>291.00000</ele>
        <time>2024-02-02T12:50:00Z</time>
      </trkpt>
      <trkpt lat="42.85921557" lon="13.47703194">
        <ele>291.00000</ele>
        <time>2024-02-02T12:50:01Z</time>
      </trkpt>
      <trkpt lat="42.85926033" lon="13.47700193">
        <ele>291.00000</ele>
        <time>2024-02-02T12:50:02Z</time>
      </trkpt>
      <trkpt lat="42.85930476" lon="13.47696681">
        <ele>291.00000</ele>
        <time>2024-02-02T12:50:03Z</time>
      </trkpt>
      <trkpt lat="42.85935387" lon="13.47692565">
        <ele>291.00000</ele>
        <time>2024-02-02T12:50:04Z</time>
      </trkpt>
      <trkpt lat="42.85940869" lon="13.47688509">
        <ele>291.00000</ele>
        <time>2024-02-02T12:50:05Z</time>
      </trkpt>
      <trkpt lat="42.85944054" lon="13.47685382">
        <ele>291.00000</ele>
        <time>2024-02-02T12:50:06Z</time>
      </trkpt>
      <trkpt lat="42.85948312" lon="13.47681418">
        <ele>291.00000</ele>
        <time>2024-02-02T12:50:07Z</time>
      </trkpt>
      <trkpt lat="42.85952378" lon="13.47677738">
        <ele>291.00000</ele>
        <time>2024-02-02T12:50:08Z</time>
      </trkpt>
      <trkpt lat="42.85956359" lon="13.47673161">
        <ele>291.00000</ele>
        <time>2024-02-02T12:50:09Z</time>
      </trkpt>
      <trkpt lat="42.85960793" lon="13.47669876">
        <ele>291.00000</ele>
        <time>2024-02-02T12:50:10Z</time>
      </trkpt>
      <trkpt lat="42.85965395" lon="13.47666674">
        <ele>291.00000</ele>
        <time>2024-02-02T12:50:11Z</time>
      </trkpt>
      <trkpt lat="42.85970030" lon="13.47663355">
        <ele>291.00000</ele>
        <time>2024-02-02T12:50:12Z</time>
      </trkpt>
      <trkpt lat="42.85974766" lon="13.47659918">
        <ele>291.00000</ele>
        <time>2024-02-02T12:50:13Z</time>
      </trkpt>
      <trkpt lat="42.85979786" lon="13.47656758">
        <ele>290.00000</ele>
        <time>2024-02-02T12:50:14Z</time>
      </trkpt>
      <trkpt lat="42.85984799" lon="13.47653749">
        <ele>290.00000</ele>
        <time>2024-02-02T12:50:15Z</time>
      </trkpt>
      <trkpt lat="42.85989811" lon="13.47651209">
        <ele>290.00000</ele>
        <time>2024-02-02T12:50:16Z</time>
      </trkpt>
      <trkpt lat="42.85993960" lon="13.47649248">
        <ele>289.00000</ele>
        <time>2024-02-02T12:50:17Z</time>
      </trkpt>
      <trkpt lat="42.85998931" lon="13.47646725">
        <ele>289.00000</ele>
        <time>2024-02-02T12:50:18Z</time>
      </trkpt>
      <trkpt lat="42.86003851" lon="13.47644001">
        <ele>290.00000</ele>
        <time>2024-02-02T12:50:19Z</time>
      </trkpt>
      <trkpt lat="42.86008670" lon="13.47641251">
        <ele>290.00000</ele>
        <time>2024-02-02T12:50:20Z</time>
      </trkpt>
      <trkpt lat="42.86014555" lon="13.47637614">
        <ele>291.00000</ele>
        <time>2024-02-02T12:50:21Z</time>
      </trkpt>
      <trkpt lat="42.86018729" lon="13.47635124">
        <ele>291.00000</ele>
        <time>2024-02-02T12:50:22Z</time>
      </trkpt>
      <trkpt lat="42.86023582" lon="13.47632492">
        <ele>291.00000</ele>
        <time>2024-02-02T12:50:23Z</time>
      </trkpt>
      <trkpt lat="42.86028292" lon="13.47629936">
        <ele>292.00000</ele>
        <time>2024-02-02T12:50:24Z</time>
      </trkpt>
      <trkpt lat="42.86034177" lon="13.47626692">
        <ele>292.00000</ele>
        <time>2024-02-02T12:50:25Z</time>
      </trkpt>
      <trkpt lat="42.86039055" lon="13.47623641">
        <ele>293.00000</ele>
        <time>2024-02-02T12:50:26Z</time>
      </trkpt>
      <trkpt lat="42.86042667" lon="13.47621395">
        <ele>293.00000</ele>
        <time>2024-02-02T12:50:27Z</time>
      </trkpt>
      <trkpt lat="42.86047009" lon="13.47618964">
        <ele>294.00000</ele>
        <time>2024-02-02T12:50:28Z</time>
      </trkpt>
      <trkpt lat="42.86051569" lon="13.47616701">
        <ele>294.00000</ele>
        <time>2024-02-02T12:50:29Z</time>
      </trkpt>
      <trkpt lat="42.86057353" lon="13.47614211">
        <ele>294.00000</ele>
        <time>2024-02-02T12:50:30Z</time>
      </trkpt>
      <trkpt lat="42.86062214" lon="13.47611471">
        <ele>294.00000</ele>
        <time>2024-02-02T12:50:31Z</time>
      </trkpt>
      <trkpt lat="42.86066866" lon="13.47608629">
        <ele>294.00000</ele>
        <time>2024-02-02T12:50:32Z</time>
      </trkpt>
      <trkpt lat="42.86070738" lon="13.47606508">
        <ele>294.00000</ele>
        <time>2024-02-02T12:50:33Z</time>
      </trkpt>
      <trkpt lat="42.86075541" lon="13.47603776">
        <ele>294.00000</ele>
        <time>2024-02-02T12:50:34Z</time>
      </trkpt>
      <trkpt lat="42.86081107" lon="13.47600733">
        <ele>294.00000</ele>
        <time>2024-02-02T12:50:35Z</time>
      </trkpt>
      <trkpt lat="42.86085340" lon="13.47598713">
        <ele>294.00000</ele>
        <time>2024-02-02T12:50:36Z</time>
      </trkpt>
      <trkpt lat="42.86089740" lon="13.47596266">
        <ele>294.00000</ele>
        <time>2024-02-02T12:50:37Z</time>
      </trkpt>
      <trkpt lat="42.86094417" lon="13.47593634">
        <ele>295.00000</ele>
        <time>2024-02-02T12:50:38Z</time>
      </trkpt>
      <trkpt lat="42.86098273" lon="13.47591497">
        <ele>295.00000</ele>
        <time>2024-02-02T12:50:39Z</time>
      </trkpt>
      <trkpt lat="42.86103771" lon="13.47588085">
        <ele>295.00000</ele>
        <time>2024-02-02T12:50:40Z</time>
      </trkpt>
      <trkpt lat="42.86108214" lon="13.47585394">
        <ele>295.00000</ele>
        <time>2024-02-02T12:50:41Z</time>
      </trkpt>
      <trkpt lat="42.86112992" lon="13.47582637">
        <ele>295.00000</ele>
        <time>2024-02-02T12:50:42Z</time>
      </trkpt>
      <trkpt lat="42.86117333" lon="13.47580080">
        <ele>296.00000</ele>
        <time>2024-02-02T12:50:43Z</time>
      </trkpt>
      <trkpt lat="42.86123050" lon="13.47576702">
        <ele>296.00000</ele>
        <time>2024-02-02T12:50:44Z</time>
      </trkpt>
      <trkpt lat="42.86127610" lon="13.47573995">
        <ele>296.00000</ele>
        <time>2024-02-02T12:50:45Z</time>
      </trkpt>
      <trkpt lat="42.86132262" lon="13.47571145">
        <ele>296.00000</ele>
        <time>2024-02-02T12:50:46Z</time>
      </trkpt>
      <trkpt lat="42.86137014" lon="13.47568798">
        <ele>296.00000</ele>
        <time>2024-02-02T12:50:47Z</time>
      </trkpt>
      <trkpt lat="42.86141473" lon="13.47567147">
        <ele>296.00000</ele>
        <time>2024-02-02T12:50:48Z</time>
      </trkpt>
      <trkpt lat="42.86146117" lon="13.47564482">
        <ele>296.00000</ele>
        <time>2024-02-02T12:50:49Z</time>
      </trkpt>
      <trkpt lat="42.86151599" lon="13.47561271">
        <ele>296.00000</ele>
        <time>2024-02-02T12:50:50Z</time>
      </trkpt>
      <trkpt lat="42.86157089" lon="13.47558572">
        <ele>296.00000</ele>
        <time>2024-02-02T12:50:51Z</time>
      </trkpt>
      <trkpt lat="42.86161456" lon="13.47555974">
        <ele>296.00000</ele>
        <time>2024-02-02T12:50:52Z</time>
      </trkpt>
      <trkpt lat="42.86165286" lon="13.47554122">
        <ele>296.00000</ele>
        <time>2024-02-02T12:50:53Z</time>
      </trkpt>
      <trkpt lat="42.86170257" lon="13.47551892">
        <ele>296.00000</ele>
        <time>2024-02-02T12:50:54Z</time>
      </trkpt>
      <trkpt lat="42.86177465" lon="13.47548372">
        <ele>297.00000</ele>
        <time>2024-02-02T12:50:55Z</time>
      </trkpt>
      <trkpt lat="42.86184020" lon="13.47544533">
        <ele>297.00000</ele>
        <time>2024-02-02T12:50:56Z</time>
      </trkpt>
      <trkpt lat="42.86188127" lon="13.47541172">
        <ele>298.00000</ele>
        <time>2024-02-02T12:50:57Z</time>
      </trkpt>
      <trkpt lat="42.86193198" lon="13.47537006">
        <ele>299.00000</ele>
        <time>2024-02-02T12:50:58Z</time>
      </trkpt>
      <trkpt lat="42.86198412" lon="13.47533754">
        <ele>299.00000</ele>
        <time>2024-02-02T12:50:59Z</time>
      </trkpt>
      <trkpt lat="42.86204547" lon="13.47530367">
        <ele>299.00000</ele>
        <time>2024-02-02T12:51:00Z</time>
      </trkpt>
      <trkpt lat="42.86208612" lon="13.47527886">
        <ele>299.00000</ele>
        <time>2024-02-02T12:51:01Z</time>
      </trkpt>
      <trkpt lat="42.86215192" lon="13.47523930">
        <ele>299.00000</ele>
        <time>2024-02-02T12:51:02Z</time>
      </trkpt>
      <trkpt lat="42.86219995" lon="13.47520804">
        <ele>299.00000</ele>
        <time>2024-02-02T12:51:03Z</time>
      </trkpt>
      <trkpt lat="42.86225158" lon="13.47516856">
        <ele>299.00000</ele>
        <time>2024-02-02T12:51:04Z</time>
      </trkpt>
      <trkpt lat="42.86231126" lon="13.47512229">
        <ele>299.00000</ele>
        <time>2024-02-02T12:51:05Z</time>
      </trkpt>
      <trkpt lat="42.86237597" lon="13.47507853">
        <ele>298.00000</ele>
        <time>2024-02-02T12:51:06Z</time>
      </trkpt>
      <trkpt lat="42.86241813" lon="13.47505188">
        <ele>298.00000</ele>
        <time>2024-02-02T12:51:07Z</time>
      </trkpt>
      <trkpt lat="42.86248837" lon="13.47501081">
        <ele>298.00000</ele>
        <time>2024-02-02T12:51:08Z</time>
      </trkpt>
      <trkpt lat="42.86254830" lon="13.47499161">
        <ele>297.00000</ele>
        <time>2024-02-02T12:51:09Z</time>
      </trkpt>
      <trkpt lat="42.86259029" lon="13.47497728">
        <ele>297.00000</ele>
        <time>2024-02-02T12:51:10Z</time>
      </trkpt>
      <trkpt lat="42.86264779" lon="13.47494753">
        <ele>297.00000</ele>
        <time>2024-02-02T12:51:11Z</time>
      </trkpt>
      <trkpt lat="42.86269356" lon="13.47492313">
        <ele>297.00000</ele>
        <time>2024-02-02T12:51:12Z</time>
      </trkpt>
      <trkpt lat="42.86274058" lon="13.47489221">
        <ele>297.00000</ele>
        <time>2024-02-02T12:51:13Z</time>
      </trkpt>
      <trkpt lat="42.86277889" lon="13.47486748">
        <ele>296.00000</ele>
        <time>2024-02-02T12:51:14Z</time>
      </trkpt>
      <trkpt lat="42.86282801" lon="13.47483202">
        <ele>297.00000</ele>
        <time>2024-02-02T12:51:15Z</time>
      </trkpt>
      <trkpt lat="42.86289338" lon="13.47479338">
        <ele>297.00000</ele>
        <time>2024-02-02T12:51:16Z</time>
      </trkpt>
      <trkpt lat="42.86294921" lon="13.47476564">
        <ele>298.00000</ele>
        <time>2024-02-02T12:51:17Z</time>
      </trkpt>
      <trkpt lat="42.86300369" lon="13.47473605">
        <ele>298.00000</ele>
        <time>2024-02-02T12:51:18Z</time>
      </trkpt>
      <trkpt lat="42.86304887" lon="13.47471593">
        <ele>298.00000</ele>
        <time>2024-02-02T12:51:19Z</time>
      </trkpt>
      <trkpt lat="42.86310436" lon="13.47468987">
        <ele>299.00000</ele>
        <time>2024-02-02T12:51:20Z</time>
      </trkpt>
      <trkpt lat="42.86317032" lon="13.47465709">
        <ele>299.00000</ele>
        <time>2024-02-02T12:51:21Z</time>
      </trkpt>
      <trkpt lat="42.86322296" lon="13.47462717">
        <ele>299.00000</ele>
        <time>2024-02-02T12:51:22Z</time>
      </trkpt>
      <trkpt lat="42.86327887" lon="13.47459741">
        <ele>299.00000</ele>
        <time>2024-02-02T12:51:23Z</time>
      </trkpt>
      <trkpt lat="42.86333427" lon="13.47456900">
        <ele>300.00000</ele>
        <time>2024-02-02T12:51:24Z</time>
      </trkpt>
      <trkpt lat="42.86337979" lon="13.47454494">
        <ele>300.00000</ele>
        <time>2024-02-02T12:51:25Z</time>
      </trkpt>
      <trkpt lat="42.86344751" lon="13.47450354">
        <ele>300.00000</ele>
        <time>2024-02-02T12:51:26Z</time>
      </trkpt>
      <trkpt lat="42.86350459" lon="13.47446632">
        <ele>300.00000</ele>
        <time>2024-02-02T12:51:27Z</time>
      </trkpt>
      <trkpt lat="42.86355924" lon="13.47443682">
        <ele>301.00000</ele>
        <time>2024-02-02T12:51:28Z</time>
      </trkpt>
      <trkpt lat="42.86361557" lon="13.47440488">
        <ele>301.00000</ele>
        <time>2024-02-02T12:51:29Z</time>
      </trkpt>
      <trkpt lat="42.86365991" lon="13.47438007">
        <ele>301.00000</ele>
        <time>2024-02-02T12:51:30Z</time>
      </trkpt>
      <trkpt lat="42.86371355" lon="13.47434814">
        <ele>301.00000</ele>
        <time>2024-02-02T12:51:31Z</time>
      </trkpt>
      <trkpt lat="42.86377918" lon="13.47430832">
        <ele>302.00000</ele>
        <time>2024-02-02T12:51:32Z</time>
      </trkpt>
      <trkpt lat="42.86383383" lon="13.47427429">
        <ele>302.00000</ele>
        <time>2024-02-02T12:51:33Z</time>
      </trkpt>
      <trkpt lat="42.86388706" lon="13.47424051">
        <ele>302.00000</ele>
        <time>2024-02-02T12:51:34Z</time>
      </trkpt>
      <trkpt lat="42.86392696" lon="13.47421428">
        <ele>302.00000</ele>
        <time>2024-02-02T12:51:35Z</time>
      </trkpt>
      <trkpt lat="42.86397549" lon="13.47418192">
        <ele>301.00000</ele>
        <time>2024-02-02T12:51:36Z</time>
      </trkpt>
      <trkpt lat="42.86402578" lon="13.47414018">
        <ele>301.00000</ele>
        <time>2024-02-02T12:51:37Z</time>
      </trkpt>
      <trkpt lat="42.86408554" lon="13.47407807">
        <ele>301.00000</ele>
        <time>2024-02-02T12:51:38Z</time>
      </trkpt>
      <trkpt lat="42.86412972" lon="13.47401965">
        <ele>300.00000</ele>
        <time>2024-02-02T12:51:39Z</time>
      </trkpt>
      <trkpt lat="42.86416903" lon="13.47395653">
        <ele>300.00000</ele>
        <time>2024-02-02T12:51:40Z</time>
      </trkpt>
      <trkpt lat="42.86419576" lon="13.47390557">
        <ele>300.00000</ele>
        <time>2024-02-02T12:51:41Z</time>
      </trkpt>
      <trkpt lat="42.86423223" lon="13.47382267">
        <ele>300.00000</ele>
        <time>2024-02-02T12:51:42Z</time>
      </trkpt>
      <trkpt lat="42.86425989" lon="13.47374581">
        <ele>300.00000</ele>
        <time>2024-02-02T12:51:43Z</time>
      </trkpt>
      <trkpt lat="42.86428285" lon="13.47366736">
        <ele>300.00000</ele>
        <time>2024-02-02T12:51:44Z</time>
      </trkpt>
      <trkpt lat="42.86430121" lon="13.47360659">
        <ele>301.00000</ele>
        <time>2024-02-02T12:51:45Z</time>
      </trkpt>
      <trkpt lat="42.86432577" lon="13.47351523">
        <ele>301.00000</ele>
        <time>2024-02-02T12:51:46Z</time>
      </trkpt>
      <trkpt lat="42.86434505" lon="13.47343862">
        <ele>301.00000</ele>
        <time>2024-02-02T12:51:47Z</time>
      </trkpt>
      <trkpt lat="42.86436575" lon="13.47336544">
        <ele>301.00000</ele>
        <time>2024-02-02T12:51:48Z</time>
      </trkpt>
      <trkpt lat="42.86438478" lon="13.47329151">
        <ele>301.00000</ele>
        <time>2024-02-02T12:51:49Z</time>
      </trkpt>
      <trkpt lat="42.86440020" lon="13.47323116">
        <ele>302.00000</ele>
        <time>2024-02-02T12:51:50Z</time>
      </trkpt>
      <trkpt lat="42.86442300" lon="13.47315908">
        <ele>302.00000</ele>
        <time>2024-02-02T12:51:51Z</time>
      </trkpt>
      <trkpt lat="42.86445233" lon="13.47307400">
        <ele>303.00000</ele>
        <time>2024-02-02T12:51:52Z</time>
      </trkpt>
      <trkpt lat="42.86447555" lon="13.47300116">
        <ele>303.00000</ele>
        <time>2024-02-02T12:51:53Z</time>
      </trkpt>
      <trkpt lat="42.86449575" lon="13.47292883">
        <ele>304.00000</ele>
        <time>2024-02-02T12:51:54Z</time>
      </trkpt>
      <trkpt lat="42.86451553" lon="13.47285163">
        <ele>304.00000</ele>
        <time>2024-02-02T12:51:55Z</time>
      </trkpt>
      <trkpt lat="42.86453414" lon="13.47279321">
        <ele>304.00000</ele>
        <time>2024-02-02T12:51:56Z</time>
      </trkpt>
      <trkpt lat="42.86455635" lon="13.47272138">
        <ele>305.00000</ele>
        <time>2024-02-02T12:51:57Z</time>
      </trkpt>
      <trkpt lat="42.86457991" lon="13.47263873">
        <ele>305.00000</ele>
        <time>2024-02-02T12:51:58Z</time>
      </trkpt>
      <trkpt lat="42.86459743" lon="13.47257033">
        <ele>305.00000</ele>
        <time>2024-02-02T12:51:59Z</time>
      </trkpt>
      <trkpt lat="42.86461595" lon="13.47249959">
        <ele>305.00000</ele>
        <time>2024-02-02T12:52:00Z</time>
      </trkpt>
      <trkpt lat="42.86463087" lon="13.47243974">
        <ele>305.00000</ele>
        <time>2024-02-02T12:52:01Z</time>
      </trkpt>
      <trkpt lat="42.86465057" lon="13.47236548">
        <ele>305.00000</ele>
        <time>2024-02-02T12:52:02Z</time>
      </trkpt>
      <trkpt lat="42.86467177" lon="13.47227747">
        <ele>306.00000</ele>
        <time>2024-02-02T12:52:03Z</time>
      </trkpt>
      <trkpt lat="42.86468661" lon="13.47220572">
        <ele>307.00000</ele>
        <time>2024-02-02T12:52:04Z</time>
      </trkpt>
      <trkpt lat="42.86470094" lon="13.47213255">
        <ele>307.00000</ele>
        <time>2024-02-02T12:52:05Z</time>
      </trkpt>
      <trkpt lat="42.86470790" lon="13.47207379">
        <ele>307.00000</ele>
        <time>2024-02-02T12:52:06Z</time>
      </trkpt>
      <trkpt lat="42.86471704" lon="13.47200070">
        <ele>307.00000</ele>
        <time>2024-02-02T12:52:07Z</time>
      </trkpt>
      <trkpt lat="42.86472743" lon="13.47191470">
        <ele>307.00000</ele>
        <time>2024-02-02T12:52:08Z</time>
      </trkpt>
      <trkpt lat="42.86473472" lon="13.47185729">
        <ele>307.00000</ele>
        <time>2024-02-02T12:52:09Z</time>
      </trkpt>
      <trkpt lat="42.86474210" lon="13.47178503">
        <ele>307.00000</ele>
        <time>2024-02-02T12:52:10Z</time>
      </trkpt>
      <trkpt lat="42.86474545" lon="13.47171144">
        <ele>307.00000</ele>
        <time>2024-02-02T12:52:11Z</time>
      </trkpt>
      <trkpt lat="42.86474922" lon="13.47163734">
        <ele>308.00000</ele>
        <time>2024-02-02T12:52:12Z</time>
      </trkpt>
      <trkpt lat="42.86474972" lon="13.47155411">
        <ele>308.00000</ele>
        <time>2024-02-02T12:52:13Z</time>
      </trkpt>
      <trkpt lat="42.86474595" lon="13.47148597">
        <ele>308.00000</ele>
        <time>2024-02-02T12:52:14Z</time>
      </trkpt>
      <trkpt lat="42.86474428" lon="13.47141422">
        <ele>309.00000</ele>
        <time>2024-02-02T12:52:15Z</time>
      </trkpt>
      <trkpt lat="42.86474101" lon="13.47135672">
        <ele>309.00000</ele>
        <time>2024-02-02T12:52:16Z</time>
      </trkpt>
      <trkpt lat="42.86473313" lon="13.47127416">
        <ele>310.00000</ele>
        <time>2024-02-02T12:52:17Z</time>
      </trkpt>
      <trkpt lat="42.86472927" lon="13.47121389">
        <ele>310.00000</ele>
        <time>2024-02-02T12:52:18Z</time>
      </trkpt>
      <trkpt lat="42.86472617" lon="13.47112295">
        <ele>311.00000</ele>
        <time>2024-02-02T12:52:19Z</time>
      </trkpt>
      <trkpt lat="42.86472575" lon="13.47104642">
        <ele>312.00000</ele>
        <time>2024-02-02T12:52:20Z</time>
      </trkpt>
      <trkpt lat="42.86473095" lon="13.47097082">
        <ele>312.00000</ele>
        <time>2024-02-02T12:52:21Z</time>
      </trkpt>
      <trkpt lat="42.86474176" lon="13.47091105">
        <ele>312.00000</ele>
        <time>2024-02-02T12:52:22Z</time>
      </trkpt>
      <trkpt lat="42.86476179" lon="13.47084132">
        <ele>312.00000</ele>
        <time>2024-02-02T12:52:23Z</time>
      </trkpt>
      <trkpt lat="42.86479474" lon="13.47075917">
        <ele>311.00000</ele>
        <time>2024-02-02T12:52:24Z</time>
      </trkpt>
      <trkpt lat="42.86482499" lon="13.47069363">
        <ele>311.00000</ele>
        <time>2024-02-02T12:52:25Z</time>
      </trkpt>
      <trkpt lat="42.86485651" lon="13.47062875">
        <ele>310.00000</ele>
        <time>2024-02-02T12:52:26Z</time>
      </trkpt>
      <trkpt lat="42.86488224" lon="13.47057770">
        <ele>310.00000</ele>
        <time>2024-02-02T12:52:27Z</time>
      </trkpt>
      <trkpt lat="42.86491468" lon="13.47051392">
        <ele>310.00000</ele>
        <time>2024-02-02T12:52:28Z</time>
      </trkpt>
      <trkpt lat="42.86495072" lon="13.47043865">
        <ele>311.00000</ele>
        <time>2024-02-02T12:52:29Z</time>
      </trkpt>
      <trkpt lat="42.86498132" lon="13.47037411">
        <ele>312.00000</ele>
        <time>2024-02-02T12:52:30Z</time>
      </trkpt>
      <trkpt lat="42.86501417" lon="13.47031066">
        <ele>313.00000</ele>
        <time>2024-02-02T12:52:31Z</time>
      </trkpt>
      <trkpt lat="42.86504074" lon="13.47025768">
        <ele>313.00000</ele>
        <time>2024-02-02T12:52:32Z</time>
      </trkpt>
      <trkpt lat="42.86507276" lon="13.47019088">
        <ele>313.00000</ele>
        <time>2024-02-02T12:52:33Z</time>
      </trkpt>
      <trkpt lat="42.86510478" lon="13.47012634">
        <ele>314.00000</ele>
        <time>2024-02-02T12:52:34Z</time>
      </trkpt>
      <trkpt lat="42.86514393" lon="13.47004897">
        <ele>316.00000</ele>
        <time>2024-02-02T12:52:35Z</time>
      </trkpt>
      <trkpt lat="42.86517645" lon="13.46998259">
        <ele>317.00000</ele>
        <time>2024-02-02T12:52:36Z</time>
      </trkpt>
      <trkpt lat="42.86520360" lon="13.46993003">
        <ele>318.00000</ele>
        <time>2024-02-02T12:52:37Z</time>
      </trkpt>
      <trkpt lat="42.86523646" lon="13.46986415">
        <ele>319.00000</ele>
        <time>2024-02-02T12:52:38Z</time>
      </trkpt>
      <trkpt lat="42.86526974" lon="13.46979819">
        <ele>320.00000</ele>
        <time>2024-02-02T12:52:39Z</time>
      </trkpt>
      <trkpt lat="42.86531056" lon="13.46971982">
        <ele>321.00000</ele>
        <time>2024-02-02T12:52:40Z</time>
      </trkpt>
      <trkpt lat="42.86534501" lon="13.46965352">
        <ele>319.00000</ele>
        <time>2024-02-02T12:52:41Z</time>
      </trkpt>
      <trkpt lat="42.86537208" lon="13.46959887">
        <ele>319.00000</ele>
        <time>2024-02-02T12:52:42Z</time>
      </trkpt>
      <trkpt lat="42.86540435" lon="13.46952888">
        <ele>319.00000</ele>
        <time>2024-02-02T12:52:43Z</time>
      </trkpt>
      <trkpt lat="42.86544475" lon="13.46944623">
        <ele>319.00000</ele>
        <time>2024-02-02T12:52:44Z</time>
      </trkpt>
      <trkpt lat="42.86548096" lon="13.46937641">
        <ele>319.00000</ele>
        <time>2024-02-02T12:52:45Z</time>
      </trkpt>
      <trkpt lat="42.86551826" lon="13.46930525">
        <ele>319.00000</ele>
        <time>2024-02-02T12:52:46Z</time>
      </trkpt>
      <trkpt lat="42.86555682" lon="13.46923241">
        <ele>319.00000</ele>
        <time>2024-02-02T12:52:47Z</time>
      </trkpt>
      <trkpt lat="42.86558632" lon="13.46917340">
        <ele>319.00000</ele>
        <time>2024-02-02T12:52:48Z</time>
      </trkpt>
      <trkpt lat="42.86562295" lon="13.46909897">
        <ele>318.00000</ele>
        <time>2024-02-02T12:52:49Z</time>
      </trkpt>
      <trkpt lat="42.86566545" lon="13.46901020">
        <ele>317.00000</ele>
        <time>2024-02-02T12:52:50Z</time>
      </trkpt>
      <trkpt lat="42.86569889" lon="13.46893552">
        <ele>316.00000</ele>
        <time>2024-02-02T12:52:51Z</time>
      </trkpt>
      <trkpt lat="42.86572747" lon="13.46887760">
        <ele>316.00000</ele>
        <time>2024-02-02T12:52:52Z</time>
      </trkpt>
      <trkpt lat="42.86576603" lon="13.46880619">
        <ele>315.00000</ele>
        <time>2024-02-02T12:52:53Z</time>
      </trkpt>
      <trkpt lat="42.86581012" lon="13.46873176">
        <ele>314.00000</ele>
        <time>2024-02-02T12:52:54Z</time>
      </trkpt>
      <trkpt lat="42.86585412" lon="13.46864165">
        <ele>313.00000</ele>
        <time>2024-02-02T12:52:55Z</time>
      </trkpt>
      <trkpt lat="42.86589360" lon="13.46856873">
        <ele>313.00000</ele>
        <time>2024-02-02T12:52:56Z</time>
      </trkpt>
      <trkpt lat="42.86593124" lon="13.46849430">
        <ele>313.00000</ele>
        <time>2024-02-02T12:52:57Z</time>
      </trkpt>
      <trkpt lat="42.86596192" lon="13.46843537">
        <ele>313.00000</ele>
        <time>2024-02-02T12:52:58Z</time>
      </trkpt>
      <trkpt lat="42.86599821" lon="13.46836077">
        <ele>313.00000</ele>
        <time>2024-02-02T12:52:59Z</time>
      </trkpt>
      <trkpt lat="42.86603341" lon="13.46828542">
        <ele>314.00000</ele>
        <time>2024-02-02T12:53:00Z</time>
      </trkpt>
      <trkpt lat="42.86606744" lon="13.46821325">
        <ele>314.00000</ele>
        <time>2024-02-02T12:53:01Z</time>
      </trkpt>
      <trkpt lat="42.86610340" lon="13.46814016">
        <ele>314.00000</ele>
        <time>2024-02-02T12:53:02Z</time>
      </trkpt>
      <trkpt lat="42.86614003" lon="13.46806950">
        <ele>314.00000</ele>
        <time>2024-02-02T12:53:03Z</time>
      </trkpt>
      <trkpt lat="42.86617917" lon="13.46800077">
        <ele>313.00000</ele>
        <time>2024-02-02T12:53:04Z</time>
      </trkpt>
      <trkpt lat="42.86622226" lon="13.46793774">
        <ele>312.00000</ele>
        <time>2024-02-02T12:53:05Z</time>
      </trkpt>
      <trkpt lat="42.86627557" lon="13.46786557">
        <ele>310.00000</ele>
        <time>2024-02-02T12:53:06Z</time>
      </trkpt>
      <trkpt lat="42.86632150" lon="13.46780556">
        <ele>309.00000</ele>
        <time>2024-02-02T12:53:07Z</time>
      </trkpt>
      <trkpt lat="42.86635729" lon="13.46775862">
        <ele>309.00000</ele>
        <time>2024-02-02T12:53:08Z</time>
      </trkpt>
      <trkpt lat="42.86640649" lon="13.46769265">
        <ele>308.00000</ele>
        <time>2024-02-02T12:53:09Z</time>
      </trkpt>
      <trkpt lat="42.86644429" lon="13.46763867">
        <ele>308.00000</ele>
        <time>2024-02-02T12:53:10Z</time>
      </trkpt>
      <trkpt lat="42.86647623" lon="13.46758050">
        <ele>308.00000</ele>
        <time>2024-02-02T12:53:11Z</time>
      </trkpt>
      <trkpt lat="42.86649643" lon="13.46751496">
        <ele>309.00000</ele>
        <time>2024-02-02T12:53:12Z</time>
      </trkpt>
      <trkpt lat="42.86650221" lon="13.46746031">
        <ele>309.00000</ele>
        <time>2024-02-02T12:53:13Z</time>
      </trkpt>
      <trkpt lat="42.86649584" lon="13.46739736">
        <ele>310.00000</ele>
        <time>2024-02-02T12:53:14Z</time>
      </trkpt>
      <trkpt lat="42.86647723" lon="13.46734556">
        <ele>311.00000</ele>
        <time>2024-02-02T12:53:15Z</time>
      </trkpt>
      <trkpt lat="42.86645477" lon="13.46730365">
        <ele>312.00000</ele>
        <time>2024-02-02T12:53:16Z</time>
      </trkpt>
      <trkpt lat="42.86643440" lon="13.46726015">
        <ele>313.00000</ele>
        <time>2024-02-02T12:53:17Z</time>
      </trkpt>
      <trkpt lat="42.86642049" lon="13.46722846">
        <ele>313.00000</ele>
        <time>2024-02-02T12:53:18Z</time>
      </trkpt>
      <trkpt lat="42.86640741" lon="13.46720826">
        <ele>314.00000</ele>
        <time>2024-02-02T12:53:19Z</time>
      </trkpt>
      <trkpt lat="42.86639182" lon="13.46718647">
        <ele>314.00000</ele>
        <time>2024-02-02T12:53:20Z</time>
      </trkpt>
      <trkpt lat="42.86637489" lon="13.46715956">
        <ele>315.00000</ele>
        <time>2024-02-02T12:53:21Z</time>
      </trkpt>
      <trkpt lat="42.86636224" lon="13.46713978">
        <ele>316.00000</ele>
        <time>2024-02-02T12:53:22Z</time>
      </trkpt>
      <trkpt lat="42.86635042" lon="13.46712084">
        <ele>316.00000</ele>
        <time>2024-02-02T12:53:23Z</time>
      </trkpt>
      <trkpt lat="42.86633525" lon="13.46709787">
        <ele>317.00000</ele>
        <time>2024-02-02T12:53:24Z</time>
      </trkpt>
      <trkpt lat="42.86632024" lon="13.46707792">
        <ele>318.00000</ele>
        <time>2024-02-02T12:53:25Z</time>
      </trkpt>
      <trkpt lat="42.86630298" lon="13.46705513">
        <ele>318.00000</ele>
        <time>2024-02-02T12:53:26Z</time>
      </trkpt>
      <trkpt lat="42.86628755" lon="13.46702629">
        <ele>319.00000</ele>
        <time>2024-02-02T12:53:27Z</time>
      </trkpt>
      <trkpt lat="42.86627825" lon="13.46699788">
        <ele>320.00000</ele>
        <time>2024-02-02T12:53:28Z</time>
      </trkpt>
      <trkpt lat="42.86627221" lon="13.46697198">
        <ele>321.00000</ele>
        <time>2024-02-02T12:53:29Z</time>
      </trkpt>
      <trkpt lat="42.86627003" lon="13.46695186">
        <ele>321.00000</ele>
        <time>2024-02-02T12:53:30Z</time>
      </trkpt>
      <trkpt lat="42.86626643" lon="13.46691967">
        <ele>322.00000</ele>
        <time>2024-02-02T12:53:31Z</time>
      </trkpt>
      <trkpt lat="42.86626509" lon="13.46688464">
        <ele>322.00000</ele>
        <time>2024-02-02T12:53:32Z</time>
      </trkpt>
      <trkpt lat="42.86626023" lon="13.46685488">
        <ele>323.00000</ele>
        <time>2024-02-02T12:53:33Z</time>
      </trkpt>
      <trkpt lat="42.86625755" lon="13.46681800">
        <ele>324.00000</ele>
        <time>2024-02-02T12:53:34Z</time>
      </trkpt>
      <trkpt lat="42.86625386" lon="13.46678967">
        <ele>324.00000</ele>
        <time>2024-02-02T12:53:35Z</time>
      </trkpt>
      <trkpt lat="42.86624715" lon="13.46676243">
        <ele>324.00000</ele>
        <time>2024-02-02T12:53:36Z</time>
      </trkpt>
      <trkpt lat="42.86623852" lon="13.46673142">
        <ele>325.00000</ele>
        <time>2024-02-02T12:53:37Z</time>
      </trkpt>
      <trkpt lat="42.86622729" lon="13.46669680">
        <ele>325.00000</ele>
        <time>2024-02-02T12:53:38Z</time>
      </trkpt>
      <trkpt lat="42.86621388" lon="13.46667241">
        <ele>326.00000</ele>
        <time>2024-02-02T12:53:39Z</time>
      </trkpt>
      <trkpt lat="42.86620424" lon="13.46665020">
        <ele>326.00000</ele>
        <time>2024-02-02T12:53:40Z</time>
      </trkpt>
      <trkpt lat="42.86620608" lon="13.46661482">
        <ele>327.00000</ele>
        <time>2024-02-02T12:53:41Z</time>
      </trkpt>
      <trkpt lat="42.86618605" lon="13.46657627">
        <ele>327.00000</ele>
        <time>2024-02-02T12:53:42Z</time>
      </trkpt>
      <trkpt lat="42.86618052" lon="13.46655230">
        <ele>327.00000</ele>
        <time>2024-02-02T12:53:43Z</time>
      </trkpt>
      <trkpt lat="42.86616710" lon="13.46653620">
        <ele>328.00000</ele>
        <time>2024-02-02T12:53:44Z</time>
      </trkpt>
      <trkpt lat="42.86615596" lon="13.46652522">
        <ele>328.00000</ele>
        <time>2024-02-02T12:53:45Z</time>
      </trkpt>
      <trkpt lat="42.86614221" lon="13.46650351">
        <ele>328.00000</ele>
        <time>2024-02-02T12:53:46Z</time>
      </trkpt>
      <trkpt lat="42.86613265" lon="13.46647015">
        <ele>328.00000</ele>
        <time>2024-02-02T12:53:47Z</time>
      </trkpt>
      <trkpt lat="42.86612561" lon="13.46644065">
        <ele>329.00000</ele>
        <time>2024-02-02T12:53:48Z</time>
      </trkpt>
      <trkpt lat="42.86612402" lon="13.46641064">
        <ele>329.00000</ele>
        <time>2024-02-02T12:53:49Z</time>
      </trkpt>
      <trkpt lat="42.86612343" lon="13.46638072">
        <ele>330.00000</ele>
        <time>2024-02-02T12:53:50Z</time>
      </trkpt>
      <trkpt lat="42.86612385" lon="13.46635851">
        <ele>330.00000</ele>
        <time>2024-02-02T12:53:51Z</time>
      </trkpt>
      <trkpt lat="42.86612469" lon="13.46633101">
        <ele>330.00000</ele>
        <time>2024-02-02T12:53:52Z</time>
      </trkpt>
      <trkpt lat="42.86612796" lon="13.46630863">
        <ele>331.00000</ele>
        <time>2024-02-02T12:53:53Z</time>
      </trkpt>
      <trkpt lat="42.86613651" lon="13.46628349">
        <ele>331.00000</ele>
        <time>2024-02-02T12:53:54Z</time>
      </trkpt>
      <trkpt lat="42.86614623" lon="13.46626681">
        <ele>332.00000</ele>
        <time>2024-02-02T12:53:55Z</time>
      </trkpt>
      <trkpt lat="42.86615964" lon="13.46625876">
        <ele>332.00000</ele>
        <time>2024-02-02T12:53:56Z</time>
      </trkpt>
      <trkpt lat="42.86617574" lon="13.46626429">
        <ele>332.00000</ele>
        <time>2024-02-02T12:53:57Z</time>
      </trkpt>
      <trkpt lat="42.86619334" lon="13.46627477">
        <ele>332.00000</ele>
        <time>2024-02-02T12:53:58Z</time>
      </trkpt>
      <trkpt lat="42.86621362" lon="13.46628609">
        <ele>332.00000</ele>
        <time>2024-02-02T12:53:59Z</time>
      </trkpt>
      <trkpt lat="42.86622561" lon="13.46629556">
        <ele>332.00000</ele>
        <time>2024-02-02T12:54:00Z</time>
      </trkpt>
      <trkpt lat="42.86624204" lon="13.46631115">
        <ele>331.00000</ele>
        <time>2024-02-02T12:54:01Z</time>
      </trkpt>
      <trkpt lat="42.86625771" lon="13.46633026">
        <ele>331.00000</ele>
        <time>2024-02-02T12:54:02Z</time>
      </trkpt>
      <trkpt lat="42.86627959" lon="13.46633931">
        <ele>331.00000</ele>
        <time>2024-02-02T12:54:03Z</time>
      </trkpt>
      <trkpt lat="42.86630423" lon="13.46633437">
        <ele>331.00000</ele>
        <time>2024-02-02T12:54:04Z</time>
      </trkpt>
      <trkpt lat="42.86632334" lon="13.46633118">
        <ele>332.00000</ele>
        <time>2024-02-02T12:54:05Z</time>
      </trkpt>
      <trkpt lat="42.86634304" lon="13.46633210">
        <ele>332.00000</ele>
        <time>2024-02-02T12:54:06Z</time>
      </trkpt>
      <trkpt lat="42.86636156" lon="13.46633931">
        <ele>332.00000</ele>
        <time>2024-02-02T12:54:07Z</time>
      </trkpt>
      <trkpt lat="42.86638671" lon="13.46634929">
        <ele>331.00000</ele>
        <time>2024-02-02T12:54:08Z</time>
      </trkpt>
      <trkpt lat="42.86641135" lon="13.46634887">
        <ele>331.00000</ele>
        <time>2024-02-02T12:54:09Z</time>
      </trkpt>
      <trkpt lat="42.86643776" lon="13.46634719">
        <ele>331.00000</ele>
        <time>2024-02-02T12:54:10Z</time>
      </trkpt>
      <trkpt lat="42.86646039" lon="13.46634401">
        <ele>330.00000</ele>
        <time>2024-02-02T12:54:11Z</time>
      </trkpt>
      <trkpt lat="42.86648822" lon="13.46632691">
        <ele>330.00000</ele>
        <time>2024-02-02T12:54:12Z</time>
      </trkpt>
      <trkpt lat="42.86651847" lon="13.46630495">
        <ele>330.00000</ele>
        <time>2024-02-02T12:54:13Z</time>
      </trkpt>
      <trkpt lat="42.86654203" lon="13.46628072">
        <ele>330.00000</ele>
        <time>2024-02-02T12:54:14Z</time>
      </trkpt>
      <trkpt lat="42.86656424" lon="13.46625817">
        <ele>330.00000</ele>
        <time>2024-02-02T12:54:15Z</time>
      </trkpt>
      <trkpt lat="42.86658092" lon="13.46624233">
        <ele>330.00000</ele>
        <time>2024-02-02T12:54:16Z</time>
      </trkpt>
      <trkpt lat="42.86660422" lon="13.46621836">
        <ele>330.00000</ele>
        <time>2024-02-02T12:54:17Z</time>
      </trkpt>
      <trkpt lat="42.86663331" lon="13.46619062">
        <ele>330.00000</ele>
        <time>2024-02-02T12:54:18Z</time>
      </trkpt>
      <trkpt lat="42.86665493" lon="13.46616019">
        <ele>330.00000</ele>
        <time>2024-02-02T12:54:19Z</time>
      </trkpt>
      <trkpt lat="42.86667454" lon="13.46612926">
        <ele>330.00000</ele>
        <time>2024-02-02T12:54:20Z</time>
      </trkpt>
      <trkpt lat="42.86668670" lon="13.46610504">
        <ele>330.00000</ele>
        <time>2024-02-02T12:54:21Z</time>
      </trkpt>
      <trkpt lat="42.86670003" lon="13.46608031">
        <ele>330.00000</ele>
        <time>2024-02-02T12:54:22Z</time>
      </trkpt>
      <trkpt lat="42.86671989" lon="13.46604494">
        <ele>330.00000</ele>
        <time>2024-02-02T12:54:23Z</time>
      </trkpt>
      <trkpt lat="42.86673045" lon="13.46601627">
        <ele>331.00000</ele>
        <time>2024-02-02T12:54:24Z</time>
      </trkpt>
      <trkpt lat="42.86673950" lon="13.46598509">
        <ele>331.00000</ele>
        <time>2024-02-02T12:54:25Z</time>
      </trkpt>
      <trkpt lat="42.86674780" lon="13.46595542">
        <ele>332.00000</ele>
        <time>2024-02-02T12:54:26Z</time>
      </trkpt>
      <trkpt lat="42.86675325" lon="13.46591779">
        <ele>333.00000</ele>
        <time>2024-02-02T12:54:27Z</time>
      </trkpt>
      <trkpt lat="42.86675250" lon="13.46588769">
        <ele>334.00000</ele>
        <time>2024-02-02T12:54:28Z</time>
      </trkpt>
      <trkpt lat="42.86675124" lon="13.46585199">
        <ele>335.00000</ele>
        <time>2024-02-02T12:54:29Z</time>
      </trkpt>
      <trkpt lat="42.86676616" lon="13.46580773">
        <ele>335.00000</ele>
        <time>2024-02-02T12:54:30Z</time>
      </trkpt>
      <trkpt lat="42.86678317" lon="13.46577177">
        <ele>336.00000</ele>
        <time>2024-02-02T12:54:31Z</time>
      </trkpt>
      <trkpt lat="42.86679139" lon="13.46573942">
        <ele>336.00000</ele>
        <time>2024-02-02T12:54:32Z</time>
      </trkpt>
      <trkpt lat="42.86679734" lon="13.46571721">
        <ele>337.00000</ele>
        <time>2024-02-02T12:54:33Z</time>
      </trkpt>
      <trkpt lat="42.86680614" lon="13.46568921">
        <ele>337.00000</ele>
        <time>2024-02-02T12:54:34Z</time>
      </trkpt>
      <trkpt lat="42.86681880" lon="13.46564873">
        <ele>338.00000</ele>
        <time>2024-02-02T12:54:35Z</time>
      </trkpt>
      <trkpt lat="42.86682835" lon="13.46561746">
        <ele>338.00000</ele>
        <time>2024-02-02T12:54:36Z</time>
      </trkpt>
      <trkpt lat="42.86684436" lon="13.46558494">
        <ele>339.00000</ele>
        <time>2024-02-02T12:54:37Z</time>
      </trkpt>
      <trkpt lat="42.86686565" lon="13.46554370">
        <ele>339.00000</ele>
        <time>2024-02-02T12:54:38Z</time>
      </trkpt>
      <trkpt lat="42.86688795" lon="13.46551436">
        <ele>339.00000</ele>
        <time>2024-02-02T12:54:39Z</time>
      </trkpt>
      <trkpt lat="42.86690278" lon="13.46548553">
        <ele>339.00000</ele>
        <time>2024-02-02T12:54:40Z</time>
      </trkpt>
      <trkpt lat="42.86690429" lon="13.46545544">
        <ele>339.00000</ele>
        <time>2024-02-02T12:54:41Z</time>
      </trkpt>
      <trkpt lat="42.86690773" lon="13.46542283">
        <ele>340.00000</ele>
        <time>2024-02-02T12:54:42Z</time>
      </trkpt>
      <trkpt lat="42.86691016" lon="13.46539995">
        <ele>340.00000</ele>
        <time>2024-02-02T12:54:43Z</time>
      </trkpt>
      <trkpt lat="42.86691988" lon="13.46536458">
        <ele>341.00000</ele>
        <time>2024-02-02T12:54:44Z</time>
      </trkpt>
      <trkpt lat="42.86693003" lon="13.46533667">
        <ele>341.00000</ele>
        <time>2024-02-02T12:54:45Z</time>
      </trkpt>
      <trkpt lat="42.86694302" lon="13.46530834">
        <ele>341.00000</ele>
        <time>2024-02-02T12:54:46Z</time>
      </trkpt>
      <trkpt lat="42.86694956" lon="13.46528386">
        <ele>341.00000</ele>
        <time>2024-02-02T12:54:47Z</time>
      </trkpt>
      <trkpt lat="42.86696054" lon="13.46525385">
        <ele>341.00000</ele>
        <time>2024-02-02T12:54:48Z</time>
      </trkpt>
      <trkpt lat="42.86696816" lon="13.46521764">
        <ele>341.00000</ele>
        <time>2024-02-02T12:54:49Z</time>
      </trkpt>
      <trkpt lat="42.86697294" lon="13.46518588">
        <ele>342.00000</ele>
        <time>2024-02-02T12:54:50Z</time>
      </trkpt>
      <trkpt lat="42.86698082" lon="13.46515897">
        <ele>342.00000</ele>
        <time>2024-02-02T12:54:51Z</time>
      </trkpt>
      <trkpt lat="42.86698216" lon="13.46512083">
        <ele>343.00000</ele>
        <time>2024-02-02T12:54:52Z</time>
      </trkpt>
      <trkpt lat="42.86698048" lon="13.46508915">
        <ele>343.00000</ele>
        <time>2024-02-02T12:54:53Z</time>
      </trkpt>
      <trkpt lat="42.86697613" lon="13.46505822">
        <ele>344.00000</ele>
        <time>2024-02-02T12:54:54Z</time>
      </trkpt>
      <trkpt lat="42.86696649" lon="13.46502327">
        <ele>346.00000</ele>
        <time>2024-02-02T12:54:55Z</time>
      </trkpt>
      <trkpt lat="42.86696389" lon="13.46498781">
        <ele>347.00000</ele>
        <time>2024-02-02T12:54:56Z</time>
      </trkpt>
      <trkpt lat="42.86696556" lon="13.46495420">
        <ele>348.00000</ele>
        <time>2024-02-02T12:54:57Z</time>
      </trkpt>
      <trkpt lat="42.86696741" lon="13.46492285">
        <ele>349.00000</ele>
        <time>2024-02-02T12:54:58Z</time>
      </trkpt>
      <trkpt lat="42.86696674" lon="13.46488933">
        <ele>350.00000</ele>
        <time>2024-02-02T12:54:59Z</time>
      </trkpt>
      <trkpt lat="42.86696791" lon="13.46485722">
        <ele>351.00000</ele>
        <time>2024-02-02T12:55:00Z</time>
      </trkpt>
      <trkpt lat="42.86697269" lon="13.46482453">
        <ele>351.00000</ele>
        <time>2024-02-02T12:55:01Z</time>
      </trkpt>
      <trkpt lat="42.86696875" lon="13.46479109">
        <ele>353.00000</ele>
        <time>2024-02-02T12:55:02Z</time>
      </trkpt>
      <trkpt lat="42.86696255" lon="13.46475823">
        <ele>354.00000</ele>
        <time>2024-02-02T12:55:03Z</time>
      </trkpt>
      <trkpt lat="42.86695911" lon="13.46472806">
        <ele>355.00000</ele>
        <time>2024-02-02T12:55:04Z</time>
      </trkpt>
      <trkpt lat="42.86695995" lon="13.46469981">
        <ele>356.00000</ele>
        <time>2024-02-02T12:55:05Z</time>
      </trkpt>
      <trkpt lat="42.86695718" lon="13.46466813">
        <ele>356.00000</ele>
        <time>2024-02-02T12:55:06Z</time>
      </trkpt>
      <trkpt lat="42.86695425" lon="13.46463711">
        <ele>357.00000</ele>
        <time>2024-02-02T12:55:07Z</time>
      </trkpt>
      <trkpt lat="42.86696179" lon="13.46459730">
        <ele>357.00000</ele>
        <time>2024-02-02T12:55:08Z</time>
      </trkpt>
      <trkpt lat="42.86697261" lon="13.46455715">
        <ele>357.00000</ele>
        <time>2024-02-02T12:55:09Z</time>
      </trkpt>
      <trkpt lat="42.86698493" lon="13.46452044">
        <ele>356.00000</ele>
        <time>2024-02-02T12:55:10Z</time>
      </trkpt>
      <trkpt lat="42.86698367" lon="13.46448507">
        <ele>357.00000</ele>
        <time>2024-02-02T12:55:11Z</time>
      </trkpt>
      <trkpt lat="42.86697822" lon="13.46444936">
        <ele>358.00000</ele>
        <time>2024-02-02T12:55:12Z</time>
      </trkpt>
      <trkpt lat="42.86698342" lon="13.46441449">
        <ele>358.00000</ele>
        <time>2024-02-02T12:55:13Z</time>
      </trkpt>
      <trkpt lat="42.86698149" lon="13.46437996">
        <ele>358.00000</ele>
        <time>2024-02-02T12:55:14Z</time>
      </trkpt>
      <trkpt lat="42.86698115" lon="13.46434358">
        <ele>358.00000</ele>
        <time>2024-02-02T12:55:15Z</time>
      </trkpt>
      <trkpt lat="42.86698409" lon="13.46430678">
        <ele>358.00000</ele>
        <time>2024-02-02T12:55:16Z</time>
      </trkpt>
      <trkpt lat="42.86698761" lon="13.46427158">
        <ele>358.00000</ele>
        <time>2024-02-02T12:55:17Z</time>
      </trkpt>
      <trkpt lat="42.86699666" lon="13.46423311">
        <ele>358.00000</ele>
        <time>2024-02-02T12:55:18Z</time>
      </trkpt>
      <trkpt lat="42.86700848" lon="13.46419497">
        <ele>358.00000</ele>
        <time>2024-02-02T12:55:19Z</time>
      </trkpt>
      <trkpt lat="42.86702072" lon="13.46415993">
        <ele>358.00000</ele>
        <time>2024-02-02T12:55:20Z</time>
      </trkpt>
      <trkpt lat="42.86703212" lon="13.46412892">
        <ele>357.00000</ele>
        <time>2024-02-02T12:55:21Z</time>
      </trkpt>
      <trkpt lat="42.86704905" lon="13.46409707">
        <ele>357.00000</ele>
        <time>2024-02-02T12:55:22Z</time>
      </trkpt>
      <trkpt lat="42.86705869" lon="13.46406689">
        <ele>357.00000</ele>
        <time>2024-02-02T12:55:23Z</time>
      </trkpt>
      <trkpt lat="42.86704268" lon="13.46404552">
        <ele>358.00000</ele>
        <time>2024-02-02T12:55:24Z</time>
      </trkpt>
      <trkpt lat="42.86704326" lon="13.46401635">
        <ele>358.00000</ele>
        <time>2024-02-02T12:55:25Z</time>
      </trkpt>
      <trkpt lat="42.86704771" lon="13.46399045">
        <ele>358.00000</ele>
        <time>2024-02-02T12:55:26Z</time>
      </trkpt>
      <trkpt lat="42.86705341" lon="13.46396455">
        <ele>358.00000</ele>
        <time>2024-02-02T12:55:27Z</time>
      </trkpt>
      <trkpt lat="42.86706246" lon="13.46393848">
        <ele>358.00000</ele>
        <time>2024-02-02T12:55:28Z</time>
      </trkpt>
      <trkpt lat="42.86707260" lon="13.46391065">
        <ele>358.00000</ele>
        <time>2024-02-02T12:55:29Z</time>
      </trkpt>
      <trkpt lat="42.86708090" lon="13.46388291">
        <ele>358.00000</ele>
        <time>2024-02-02T12:55:30Z</time>
      </trkpt>
      <trkpt lat="42.86708895" lon="13.46385969">
        <ele>358.00000</ele>
        <time>2024-02-02T12:55:31Z</time>
      </trkpt>
      <trkpt lat="42.86709657" lon="13.46383899">
        <ele>358.00000</ele>
        <time>2024-02-02T12:55:32Z</time>
      </trkpt>
      <trkpt lat="42.86710169" lon="13.46382164">
        <ele>358.00000</ele>
        <time>2024-02-02T12:55:33Z</time>
      </trkpt>
      <trkpt lat="42.86711292" lon="13.46379314">
        <ele>358.00000</ele>
        <time>2024-02-02T12:55:34Z</time>
      </trkpt>
      <trkpt lat="42.86712599" lon="13.46376975">
        <ele>358.00000</ele>
        <time>2024-02-02T12:55:35Z</time>
      </trkpt>
      <trkpt lat="42.86713857" lon="13.46374226">
        <ele>358.00000</ele>
        <time>2024-02-02T12:55:36Z</time>
      </trkpt>
      <trkpt lat="42.86714695" lon="13.46371242">
        <ele>359.00000</ele>
        <time>2024-02-02T12:55:37Z</time>
      </trkpt>
      <trkpt lat="42.86715441" lon="13.46368275">
        <ele>359.00000</ele>
        <time>2024-02-02T12:55:38Z</time>
      </trkpt>
      <trkpt lat="42.86716489" lon="13.46365434">
        <ele>359.00000</ele>
        <time>2024-02-02T12:55:39Z</time>
      </trkpt>
      <trkpt lat="42.86717117" lon="13.46362894">
        <ele>359.00000</ele>
        <time>2024-02-02T12:55:40Z</time>
      </trkpt>
      <trkpt lat="42.86718257" lon="13.46360597">
        <ele>359.00000</ele>
        <time>2024-02-02T12:55:41Z</time>
      </trkpt>
      <trkpt lat="42.86719749" lon="13.46358326">
        <ele>359.00000</ele>
        <time>2024-02-02T12:55:42Z</time>
      </trkpt>
      <trkpt lat="42.86721451" lon="13.46356130">
        <ele>359.00000</ele>
        <time>2024-02-02T12:55:43Z</time>
      </trkpt>
      <trkpt lat="42.86723253" lon="13.46353649">
        <ele>359.00000</ele>
        <time>2024-02-02T12:55:44Z</time>
      </trkpt>
      <trkpt lat="42.86724552" lon="13.46351469">
        <ele>359.00000</ele>
        <time>2024-02-02T12:55:45Z</time>
      </trkpt>
      <trkpt lat="42.86726262" lon="13.46348653">
        <ele>359.00000</ele>
        <time>2024-02-02T12:55:46Z</time>
      </trkpt>
      <trkpt lat="42.86727285" lon="13.46346030">
        <ele>359.00000</ele>
        <time>2024-02-02T12:55:47Z</time>
      </trkpt>
      <trkpt lat="42.86728550" lon="13.46343196">
        <ele>359.00000</ele>
        <time>2024-02-02T12:55:48Z</time>
      </trkpt>
      <trkpt lat="42.86729908" lon="13.46340456">
        <ele>360.00000</ele>
        <time>2024-02-02T12:55:49Z</time>
      </trkpt>
      <trkpt lat="42.86730520" lon="13.46337824">
        <ele>360.00000</ele>
        <time>2024-02-02T12:55:50Z</time>
      </trkpt>
      <trkpt lat="42.86731006" lon="13.46334940">
        <ele>361.00000</ele>
        <time>2024-02-02T12:55:51Z</time>
      </trkpt>
      <trkpt lat="42.86730813" lon="13.46331872">
        <ele>362.00000</ele>
        <time>2024-02-02T12:55:52Z</time>
      </trkpt>
      <trkpt lat="42.86731828" lon="13.46328780">
        <ele>362.00000</ele>
        <time>2024-02-02T12:55:53Z</time>
      </trkpt>
      <trkpt lat="42.86732129" lon="13.46325770">
        <ele>363.00000</ele>
        <time>2024-02-02T12:55:54Z</time>
      </trkpt>
      <trkpt lat="42.86732582" lon="13.46322292">
        <ele>364.00000</ele>
        <time>2024-02-02T12:55:55Z</time>
      </trkpt>
      <trkpt lat="42.86732724" lon="13.46318797">
        <ele>364.00000</ele>
        <time>2024-02-02T12:55:56Z</time>
      </trkpt>
      <trkpt lat="42.86732691" lon="13.46315687">
        <ele>365.00000</ele>
        <time>2024-02-02T12:55:57Z</time>
      </trkpt>
      <trkpt lat="42.86733261" lon="13.46312770">
        <ele>366.00000</ele>
        <time>2024-02-02T12:55:58Z</time>
      </trkpt>
      <trkpt lat="42.86734585" lon="13.46309543">
        <ele>366.00000</ele>
        <time>2024-02-02T12:55:59Z</time>
      </trkpt>
      <trkpt lat="42.86735599" lon="13.46306006">
        <ele>366.00000</ele>
        <time>2024-02-02T12:56:00Z</time>
      </trkpt>
      <trkpt lat="42.86736815" lon="13.46302268">
        <ele>366.00000</ele>
        <time>2024-02-02T12:56:01Z</time>
      </trkpt>
      <trkpt lat="42.86738064" lon="13.46298797">
        <ele>366.00000</ele>
        <time>2024-02-02T12:56:02Z</time>
      </trkpt>
      <trkpt lat="42.86737779" lon="13.46295327">
        <ele>367.00000</ele>
        <time>2024-02-02T12:56:03Z</time>
      </trkpt>
      <trkpt lat="42.86737510" lon="13.46292100">
        <ele>368.00000</ele>
        <time>2024-02-02T12:56:04Z</time>
      </trkpt>
      <trkpt lat="42.86739053" lon="13.46288605">
        <ele>368.00000</ele>
        <time>2024-02-02T12:56:05Z</time>
      </trkpt>
      <trkpt lat="42.86740268" lon="13.46285135">
        <ele>369.00000</ele>
        <time>2024-02-02T12:56:06Z</time>
      </trkpt>
      <trkpt lat="42.86739447" lon="13.46282562">
        <ele>370.00000</ele>
        <time>2024-02-02T12:56:07Z</time>
      </trkpt>
      <trkpt lat="42.86738307" lon="13.46280315">
        <ele>371.00000</ele>
        <time>2024-02-02T12:56:08Z</time>
      </trkpt>
      <trkpt lat="42.86738273" lon="13.46278111">
        <ele>371.00000</ele>
        <time>2024-02-02T12:56:09Z</time>
      </trkpt>
      <trkpt lat="42.86736748" lon="13.46275295">
        <ele>373.00000</ele>
        <time>2024-02-02T12:56:10Z</time>
      </trkpt>
      <trkpt lat="42.86737779" lon="13.46273132">
        <ele>373.00000</ele>
        <time>2024-02-02T12:56:11Z</time>
      </trkpt>
      <trkpt lat="42.86738768" lon="13.46270651">
        <ele>373.00000</ele>
        <time>2024-02-02T12:56:12Z</time>
      </trkpt>
      <trkpt lat="42.86739254" lon="13.46268036">
        <ele>373.00000</ele>
        <time>2024-02-02T12:56:13Z</time>
      </trkpt>
      <trkpt lat="42.86739631" lon="13.46265454">
        <ele>374.00000</ele>
        <time>2024-02-02T12:56:14Z</time>
      </trkpt>
      <trkpt lat="42.86740302" lon="13.46263049">
        <ele>374.00000</ele>
        <time>2024-02-02T12:56:15Z</time>
      </trkpt>
      <trkpt lat="42.86741374" lon="13.46259679">
        <ele>374.00000</ele>
        <time>2024-02-02T12:56:16Z</time>
      </trkpt>
      <trkpt lat="42.86742364" lon="13.46257441">
        <ele>374.00000</ele>
        <time>2024-02-02T12:56:17Z</time>
      </trkpt>
      <trkpt lat="42.86743638" lon="13.46255362">
        <ele>374.00000</ele>
        <time>2024-02-02T12:56:18Z</time>
      </trkpt>
      <trkpt lat="42.86744819" lon="13.46253678">
        <ele>374.00000</ele>
        <time>2024-02-02T12:56:19Z</time>
      </trkpt>
      <trkpt lat="42.86745792" lon="13.46251163">
        <ele>374.00000</ele>
        <time>2024-02-02T12:56:20Z</time>
      </trkpt>
      <trkpt lat="42.86746253" lon="13.46247844">
        <ele>374.00000</ele>
        <time>2024-02-02T12:56:21Z</time>
      </trkpt>
      <trkpt lat="42.86747292" lon="13.46245287">
        <ele>373.00000</ele>
        <time>2024-02-02T12:56:22Z</time>
      </trkpt>
      <trkpt lat="42.86748239" lon="13.46243184">
        <ele>373.00000</ele>
        <time>2024-02-02T12:56:23Z</time>
      </trkpt>
      <trkpt lat="42.86746647" lon="13.46241180">
        <ele>374.00000</ele>
        <time>2024-02-02T12:56:24Z</time>
      </trkpt>
      <trkpt lat="42.86744585" lon="13.46238858">
        <ele>375.00000</ele>
        <time>2024-02-02T12:56:25Z</time>
      </trkpt>
      <trkpt lat="42.86742690" lon="13.46238574">
        <ele>376.00000</ele>
        <time>2024-02-02T12:56:26Z</time>
      </trkpt>
      <trkpt lat="42.86740293" lon="13.46239487">
        <ele>377.00000</ele>
        <time>2024-02-02T12:56:27Z</time>
      </trkpt>
      <trkpt lat="42.86738533" lon="13.46241029">
        <ele>378.00000</ele>
        <time>2024-02-02T12:56:28Z</time>
      </trkpt>
      <trkpt lat="42.86737058" lon="13.46242555">
        <ele>379.00000</ele>
        <time>2024-02-02T12:56:29Z</time>
      </trkpt>
      <trkpt lat="42.86736186" lon="13.46243586">
        <ele>380.00000</ele>
        <time>2024-02-02T12:56:30Z</time>
      </trkpt>
      <trkpt lat="42.86734409" lon="13.46245271">
        <ele>381.00000</ele>
        <time>2024-02-02T12:56:31Z</time>
      </trkpt>
      <trkpt lat="42.86732850" lon="13.46247609">
        <ele>381.00000</ele>
        <time>2024-02-02T12:56:32Z</time>
      </trkpt>
      <trkpt lat="42.86731786" lon="13.46249931">
        <ele>382.00000</ele>
        <time>2024-02-02T12:56:33Z</time>
      </trkpt>
      <trkpt lat="42.86730746" lon="13.46252529">
        <ele>382.00000</ele>
        <time>2024-02-02T12:56:34Z</time>
      </trkpt>
      <trkpt lat="42.86729908" lon="13.46254575">
        <ele>382.00000</ele>
        <time>2024-02-02T12:56:35Z</time>
      </trkpt>
      <trkpt lat="42.86728668" lon="13.46257424">
        <ele>382.00000</ele>
        <time>2024-02-02T12:56:36Z</time>
      </trkpt>
      <trkpt lat="42.86727310" lon="13.46259947">
        <ele>382.00000</ele>
        <time>2024-02-02T12:56:37Z</time>
      </trkpt>
      <trkpt lat="42.86726363" lon="13.46262261">
        <ele>382.00000</ele>
        <time>2024-02-02T12:56:38Z</time>
      </trkpt>
      <trkpt lat="42.86725725" lon="13.46264398">
        <ele>382.00000</ele>
        <time>2024-02-02T12:56:39Z</time>
      </trkpt>
      <trkpt lat="42.86725055" lon="13.46266427">
        <ele>382.00000</ele>
        <time>2024-02-02T12:56:40Z</time>
      </trkpt>
      <trkpt lat="42.86724301" lon="13.46268271">
        <ele>382.00000</ele>
        <time>2024-02-02T12:56:41Z</time>
      </trkpt>
      <trkpt lat="42.86722968" lon="13.46270819">
        <ele>382.00000</ele>
        <time>2024-02-02T12:56:42Z</time>
      </trkpt>
      <trkpt lat="42.86721602" lon="13.46273425">
        <ele>382.00000</ele>
        <time>2024-02-02T12:56:43Z</time>
      </trkpt>
      <trkpt lat="42.86720244" lon="13.46276787">
        <ele>382.00000</ele>
        <time>2024-02-02T12:56:44Z</time>
      </trkpt>
      <trkpt lat="42.86719297" lon="13.46279854">
        <ele>382.00000</ele>
        <time>2024-02-02T12:56:45Z</time>
      </trkpt>
      <trkpt lat="42.86718802" lon="13.46283048">
        <ele>381.00000</ele>
        <time>2024-02-02T12:56:46Z</time>
      </trkpt>
      <trkpt lat="42.86718207" lon="13.46286862">
        <ele>380.00000</ele>
        <time>2024-02-02T12:56:47Z</time>
      </trkpt>
      <trkpt lat="42.86717620" lon="13.46289795">
        <ele>380.00000</ele>
        <time>2024-02-02T12:56:48Z</time>
      </trkpt>
      <trkpt lat="42.86716321" lon="13.46292285">
        <ele>380.00000</ele>
        <time>2024-02-02T12:56:49Z</time>
      </trkpt>
      <trkpt lat="42.86715516" lon="13.46294129">
        <ele>380.00000</ele>
        <time>2024-02-02T12:56:50Z</time>
      </trkpt>
      <trkpt lat="42.86714678" lon="13.46297029">
        <ele>380.00000</ele>
        <time>2024-02-02T12:56:51Z</time>
      </trkpt>
      <trkpt lat="42.86713488" lon="13.46301413">
        <ele>379.00000</ele>
        <time>2024-02-02T12:56:52Z</time>
      </trkpt>
      <trkpt lat="42.86712004" lon="13.46304413">
        <ele>379.00000</ele>
        <time>2024-02-02T12:56:53Z</time>
      </trkpt>
      <trkpt lat="42.86710160" lon="13.46308135">
        <ele>379.00000</ele>
        <time>2024-02-02T12:56:54Z</time>
      </trkpt>
      <trkpt lat="42.86708677" lon="13.46311588">
        <ele>379.00000</ele>
        <time>2024-02-02T12:56:55Z</time>
      </trkpt>
      <trkpt lat="42.86708023" lon="13.46314597">
        <ele>378.00000</ele>
        <time>2024-02-02T12:56:56Z</time>
      </trkpt>
      <trkpt lat="42.86706967" lon="13.46318663">
        <ele>377.00000</ele>
        <time>2024-02-02T12:56:57Z</time>
      </trkpt>
      <trkpt lat="42.86705240" lon="13.46321814">
        <ele>377.00000</ele>
        <time>2024-02-02T12:56:58Z</time>
      </trkpt>
      <trkpt lat="42.86703807" lon="13.46324698">
        <ele>377.00000</ele>
        <time>2024-02-02T12:56:59Z</time>
      </trkpt>
      <trkpt lat="42.86702583" lon="13.46328285">
        <ele>377.00000</ele>
        <time>2024-02-02T12:57:00Z</time>
      </trkpt>
      <trkpt lat="42.86700915" lon="13.46331101">
        <ele>377.00000</ele>
        <time>2024-02-02T12:57:01Z</time>
      </trkpt>
      <trkpt lat="42.86698090" lon="13.46334680">
        <ele>377.00000</ele>
        <time>2024-02-02T12:57:02Z</time>
      </trkpt>
      <trkpt lat="42.86695408" lon="13.46337840">
        <ele>378.00000</ele>
        <time>2024-02-02T12:57:03Z</time>
      </trkpt>
      <trkpt lat="42.86692885" lon="13.46340849">
        <ele>378.00000</ele>
        <time>2024-02-02T12:57:04Z</time>
      </trkpt>
      <trkpt lat="42.86689901" lon="13.46343766">
        <ele>379.00000</ele>
        <time>2024-02-02T12:57:05Z</time>
      </trkpt>
      <trkpt lat="42.86687915" lon="13.46346097">
        <ele>379.00000</ele>
        <time>2024-02-02T12:57:06Z</time>
      </trkpt>
      <trkpt lat="42.86686272" lon="13.46348091">
        <ele>380.00000</ele>
        <time>2024-02-02T12:57:07Z</time>
      </trkpt>
      <trkpt lat="42.86684562" lon="13.46351126">
        <ele>380.00000</ele>
        <time>2024-02-02T12:57:08Z</time>
      </trkpt>
      <trkpt lat="42.86683388" lon="13.46355191">
        <ele>380.00000</ele>
        <time>2024-02-02T12:57:09Z</time>
      </trkpt>
      <trkpt lat="42.86682399" lon="13.46359692">
        <ele>379.00000</ele>
        <time>2024-02-02T12:57:10Z</time>
      </trkpt>
      <trkpt lat="42.86681352" lon="13.46363489">
        <ele>379.00000</ele>
        <time>2024-02-02T12:57:11Z</time>
      </trkpt>
      <trkpt lat="42.86680488" lon="13.46367672">
        <ele>379.00000</ele>
        <time>2024-02-02T12:57:12Z</time>
      </trkpt>
      <trkpt lat="42.86679449" lon="13.46372131">
        <ele>378.00000</ele>
        <time>2024-02-02T12:57:13Z</time>
      </trkpt>
      <trkpt lat="42.86677437" lon="13.46375173">
        <ele>379.00000</ele>
        <time>2024-02-02T12:57:14Z</time>
      </trkpt>
      <trkpt lat="42.86675199" lon="13.46378484">
        <ele>380.00000</ele>
        <time>2024-02-02T12:57:15Z</time>
      </trkpt>
      <trkpt lat="42.86673523" lon="13.46382281">
        <ele>380.00000</ele>
        <time>2024-02-02T12:57:16Z</time>
      </trkpt>
      <trkpt lat="42.86670271" lon="13.46386196">
        <ele>381.00000</ele>
        <time>2024-02-02T12:57:17Z</time>
      </trkpt>
      <trkpt lat="42.86668293" lon="13.46388978">
        <ele>381.00000</ele>
        <time>2024-02-02T12:57:18Z</time>
      </trkpt>
      <trkpt lat="42.86666105" lon="13.46392289">
        <ele>382.00000</ele>
        <time>2024-02-02T12:57:19Z</time>
      </trkpt>
      <trkpt lat="42.86665066" lon="13.46395944">
        <ele>381.00000</ele>
        <time>2024-02-02T12:57:20Z</time>
      </trkpt>
      <trkpt lat="42.86663716" lon="13.46399271">
        <ele>380.00000</ele>
        <time>2024-02-02T12:57:21Z</time>
      </trkpt>
      <trkpt lat="42.86662769" lon="13.46402029">
        <ele>379.00000</ele>
        <time>2024-02-02T12:57:22Z</time>
      </trkpt>
      <trkpt lat="42.86662115" lon="13.46405482">
        <ele>379.00000</ele>
        <time>2024-02-02T12:57:23Z</time>
      </trkpt>
      <trkpt lat="42.86660950" lon="13.46409413">
        <ele>378.00000</ele>
        <time>2024-02-02T12:57:24Z</time>
      </trkpt>
      <trkpt lat="42.86659735" lon="13.46412833">
        <ele>377.00000</ele>
        <time>2024-02-02T12:57:25Z</time>
      </trkpt>
      <trkpt lat="42.86658486" lon="13.46416127">
        <ele>377.00000</ele>
        <time>2024-02-02T12:57:26Z</time>
      </trkpt>
      <trkpt lat="42.86657572" lon="13.46418952">
        <ele>377.00000</ele>
        <time>2024-02-02T12:57:27Z</time>
      </trkpt>
      <trkpt lat="42.86656751" lon="13.46422648">
        <ele>377.00000</ele>
        <time>2024-02-02T12:57:28Z</time>
      </trkpt>
      <trkpt lat="42.86655636" lon="13.46427015">
        <ele>377.00000</ele>
        <time>2024-02-02T12:57:29Z</time>
      </trkpt>
      <trkpt lat="42.86654496" lon="13.46431408">
        <ele>377.00000</ele>
        <time>2024-02-02T12:57:30Z</time>
      </trkpt>
      <trkpt lat="42.86653658" lon="13.46435775">
        <ele>377.00000</ele>
        <time>2024-02-02T12:57:31Z</time>
      </trkpt>
      <trkpt lat="42.86653339" lon="13.46439622">
        <ele>377.00000</ele>
        <time>2024-02-02T12:57:32Z</time>
      </trkpt>
      <trkpt lat="42.86653113" lon="13.46444718">
        <ele>377.00000</ele>
        <time>2024-02-02T12:57:33Z</time>
      </trkpt>
      <trkpt lat="42.86652468" lon="13.46449295">
        <ele>376.00000</ele>
        <time>2024-02-02T12:57:34Z</time>
      </trkpt>
      <trkpt lat="42.86652124" lon="13.46453653">
        <ele>376.00000</ele>
        <time>2024-02-02T12:57:35Z</time>
      </trkpt>
      <trkpt lat="42.86651998" lon="13.46457844">
        <ele>375.00000</ele>
        <time>2024-02-02T12:57:36Z</time>
      </trkpt>
      <trkpt lat="42.86652057" lon="13.46462270">
        <ele>375.00000</ele>
        <time>2024-02-02T12:57:37Z</time>
      </trkpt>
      <trkpt lat="42.86651965" lon="13.46466293">
        <ele>374.00000</ele>
        <time>2024-02-02T12:57:38Z</time>
      </trkpt>
      <trkpt lat="42.86651956" lon="13.46469989">
        <ele>374.00000</ele>
        <time>2024-02-02T12:57:39Z</time>
      </trkpt>
      <trkpt lat="42.86651227" lon="13.46474532">
        <ele>373.00000</ele>
        <time>2024-02-02T12:57:40Z</time>
      </trkpt>
      <trkpt lat="42.86649551" lon="13.46478765">
        <ele>372.00000</ele>
        <time>2024-02-02T12:57:41Z</time>
      </trkpt>
      <trkpt lat="42.86647564" lon="13.46482520">
        <ele>372.00000</ele>
        <time>2024-02-02T12:57:42Z</time>
      </trkpt>
      <trkpt lat="42.86645905" lon="13.46484968">
        <ele>372.00000</ele>
        <time>2024-02-02T12:57:43Z</time>
      </trkpt>
      <trkpt lat="42.86643549" lon="13.46487306">
        <ele>373.00000</ele>
        <time>2024-02-02T12:57:44Z</time>
      </trkpt>
      <trkpt lat="42.86640683" lon="13.46489394">
        <ele>373.00000</ele>
        <time>2024-02-02T12:57:45Z</time>
      </trkpt>
      <trkpt lat="42.86638093" lon="13.46490525">
        <ele>374.00000</ele>
        <time>2024-02-02T12:57:46Z</time>
      </trkpt>
      <trkpt lat="42.86635427" lon="13.46491036">
        <ele>373.00000</ele>
        <time>2024-02-02T12:57:47Z</time>
      </trkpt>
      <trkpt lat="42.86632795" lon="13.46490651">
        <ele>373.00000</ele>
        <time>2024-02-02T12:57:48Z</time>
      </trkpt>
      <trkpt lat="42.86630147" lon="13.46489327">
        <ele>373.00000</ele>
        <time>2024-02-02T12:57:49Z</time>
      </trkpt>
      <trkpt lat="42.86627917" lon="13.46487130">
        <ele>373.00000</ele>
        <time>2024-02-02T12:57:50Z</time>
      </trkpt>
      <trkpt lat="42.86626350" lon="13.46484088">
        <ele>374.00000</ele>
        <time>2024-02-02T12:57:51Z</time>
      </trkpt>
      <trkpt lat="42.86625511" lon="13.46480341">
        <ele>374.00000</ele>
        <time>2024-02-02T12:57:52Z</time>
      </trkpt>
      <trkpt lat="42.86625503" lon="13.46477022">
        <ele>375.00000</ele>
        <time>2024-02-02T12:57:53Z</time>
      </trkpt>
      <trkpt lat="42.86625947" lon="13.46472680">
        <ele>376.00000</ele>
        <time>2024-02-02T12:57:54Z</time>
      </trkpt>
      <trkpt lat="42.86627213" lon="13.46467508">
        <ele>376.00000</ele>
        <time>2024-02-02T12:57:55Z</time>
      </trkpt>
      <trkpt lat="42.86628646" lon="13.46463443">
        <ele>377.00000</ele>
        <time>2024-02-02T12:57:56Z</time>
      </trkpt>
      <trkpt lat="42.86630189" lon="13.46459462">
        <ele>378.00000</ele>
        <time>2024-02-02T12:57:57Z</time>
      </trkpt>
      <trkpt lat="42.86631437" lon="13.46456319">
        <ele>378.00000</ele>
        <time>2024-02-02T12:57:58Z</time>
      </trkpt>
      <trkpt lat="42.86633105" lon="13.46451465">
        <ele>379.00000</ele>
        <time>2024-02-02T12:57:59Z</time>
      </trkpt>
      <trkpt lat="42.86634162" lon="13.46447417">
        <ele>380.00000</ele>
        <time>2024-02-02T12:58:00Z</time>
      </trkpt>
      <trkpt lat="42.86634656" lon="13.46443251">
        <ele>380.00000</ele>
        <time>2024-02-02T12:58:01Z</time>
      </trkpt>
      <trkpt lat="42.86635218" lon="13.46439119">
        <ele>380.00000</ele>
        <time>2024-02-02T12:58:02Z</time>
      </trkpt>
      <trkpt lat="42.86636064" lon="13.46435573">
        <ele>381.00000</ele>
        <time>2024-02-02T12:58:03Z</time>
      </trkpt>
      <trkpt lat="42.86637682" lon="13.46431860">
        <ele>381.00000</ele>
        <time>2024-02-02T12:58:04Z</time>
      </trkpt>
      <trkpt lat="42.86639367" lon="13.46428181">
        <ele>381.00000</ele>
        <time>2024-02-02T12:58:05Z</time>
      </trkpt>
      <trkpt lat="42.86640842" lon="13.46423973">
        <ele>381.00000</ele>
        <time>2024-02-02T12:58:06Z</time>
      </trkpt>
      <trkpt lat="42.86641873" lon="13.46420293">
        <ele>381.00000</ele>
        <time>2024-02-02T12:58:07Z</time>
      </trkpt>
      <trkpt lat="42.86643021" lon="13.46416739">
        <ele>381.00000</ele>
        <time>2024-02-02T12:58:08Z</time>
      </trkpt>
      <trkpt lat="42.86644111" lon="13.46413780">
        <ele>381.00000</ele>
        <time>2024-02-02T12:58:09Z</time>
      </trkpt>
      <trkpt lat="42.86645234" lon="13.46409841">
        <ele>381.00000</ele>
        <time>2024-02-02T12:58:10Z</time>
      </trkpt>
      <trkpt lat="42.86646106" lon="13.46406128">
        <ele>382.00000</ele>
        <time>2024-02-02T12:58:11Z</time>
      </trkpt>
      <trkpt lat="42.86647036" lon="13.46401694">
        <ele>383.00000</ele>
        <time>2024-02-02T12:58:12Z</time>
      </trkpt>
      <trkpt lat="42.86647791" lon="13.46398006">
        <ele>383.00000</ele>
        <time>2024-02-02T12:58:13Z</time>
      </trkpt>
      <trkpt lat="42.86648235" lon="13.46394343">
        <ele>384.00000</ele>
        <time>2024-02-02T12:58:14Z</time>
      </trkpt>
      <trkpt lat="42.86648704" lon="13.46391426">
        <ele>385.00000</ele>
        <time>2024-02-02T12:58:15Z</time>
      </trkpt>
      <trkpt lat="42.86649350" lon="13.46387444">
        <ele>385.00000</ele>
        <time>2024-02-02T12:58:16Z</time>
      </trkpt>
      <trkpt lat="42.86650414" lon="13.46382910">
        <ele>386.00000</ele>
        <time>2024-02-02T12:58:17Z</time>
      </trkpt>
      <trkpt lat="42.86650783" lon="13.46379105">
        <ele>387.00000</ele>
        <time>2024-02-02T12:58:18Z</time>
      </trkpt>
      <trkpt lat="42.86651344" lon="13.46375903">
        <ele>388.00000</ele>
        <time>2024-02-02T12:58:19Z</time>
      </trkpt>
      <trkpt lat="42.86652082" lon="13.46371946">
        <ele>389.00000</ele>
        <time>2024-02-02T12:58:20Z</time>
      </trkpt>
      <trkpt lat="42.86652778" lon="13.46368107">
        <ele>390.00000</ele>
        <time>2024-02-02T12:58:21Z</time>
      </trkpt>
      <trkpt lat="42.86653608" lon="13.46363439">
        <ele>391.00000</ele>
        <time>2024-02-02T12:58:22Z</time>
      </trkpt>
      <trkpt lat="42.86654186" lon="13.46359608">
        <ele>392.00000</ele>
        <time>2024-02-02T12:58:23Z</time>
      </trkpt>
      <trkpt lat="42.86654974" lon="13.46356289">
        <ele>393.00000</ele>
        <time>2024-02-02T12:58:24Z</time>
      </trkpt>
      <trkpt lat="42.86655602" lon="13.46353565">
        <ele>393.00000</ele>
        <time>2024-02-02T12:58:25Z</time>
      </trkpt>
      <trkpt lat="42.86656675" lon="13.46350162">
        <ele>394.00000</ele>
        <time>2024-02-02T12:58:26Z</time>
      </trkpt>
      <trkpt lat="42.86658285" lon="13.46346013">
        <ele>394.00000</ele>
        <time>2024-02-02T12:58:27Z</time>
      </trkpt>
      <trkpt lat="42.86659810" lon="13.46342694">
        <ele>395.00000</ele>
        <time>2024-02-02T12:58:28Z</time>
      </trkpt>
      <trkpt lat="42.86660900" lon="13.46340129">
        <ele>395.00000</ele>
        <time>2024-02-02T12:58:29Z</time>
      </trkpt>
      <trkpt lat="42.86661914" lon="13.46337094">
        <ele>395.00000</ele>
        <time>2024-02-02T12:58:30Z</time>
      </trkpt>
      <trkpt lat="42.86663138" lon="13.46334018">
        <ele>395.00000</ele>
        <time>2024-02-02T12:58:31Z</time>
      </trkpt>
      <trkpt lat="42.86664504" lon="13.46330707">
        <ele>396.00000</ele>
        <time>2024-02-02T12:58:32Z</time>
      </trkpt>
      <trkpt lat="42.86665895" lon="13.46326684">
        <ele>397.00000</ele>
        <time>2024-02-02T12:58:33Z</time>
      </trkpt>
      <trkpt lat="42.86667203" lon="13.46323348">
        <ele>398.00000</ele>
        <time>2024-02-02T12:58:34Z</time>
      </trkpt>
      <trkpt lat="42.86669181" lon="13.46319979">
        <ele>398.00000</ele>
        <time>2024-02-02T12:58:35Z</time>
      </trkpt>
      <trkpt lat="42.86670916" lon="13.46317590">
        <ele>398.00000</ele>
        <time>2024-02-02T12:58:36Z</time>
      </trkpt>
      <trkpt lat="42.86673003" lon="13.46314681">
        <ele>397.00000</ele>
        <time>2024-02-02T12:58:37Z</time>
      </trkpt>
      <trkpt lat="42.86675635" lon="13.46311287">
        <ele>397.00000</ele>
        <time>2024-02-02T12:58:38Z</time>
      </trkpt>
      <trkpt lat="42.86678334" lon="13.46307364">
        <ele>397.00000</ele>
        <time>2024-02-02T12:58:39Z</time>
      </trkpt>
      <trkpt lat="42.86680187" lon="13.46302351">
        <ele>397.00000</ele>
        <time>2024-02-02T12:58:40Z</time>
      </trkpt>
      <trkpt lat="42.86680991" lon="13.46298655">
        <ele>398.00000</ele>
        <time>2024-02-02T12:58:41Z</time>
      </trkpt>
      <trkpt lat="42.86681838" lon="13.46294690">
        <ele>399.00000</ele>
        <time>2024-02-02T12:58:42Z</time>
      </trkpt>
      <trkpt lat="42.86682031" lon="13.46290156">
        <ele>400.00000</ele>
        <time>2024-02-02T12:58:43Z</time>
      </trkpt>
      <trkpt lat="42.86681712" lon="13.46286878">
        <ele>401.00000</ele>
        <time>2024-02-02T12:58:44Z</time>
      </trkpt>
      <trkpt lat="42.86681855" lon="13.46282654">
        <ele>403.00000</ele>
        <time>2024-02-02T12:58:45Z</time>
      </trkpt>
      <trkpt lat="42.86681771" lon="13.46278346">
        <ele>404.00000</ele>
        <time>2024-02-02T12:58:46Z</time>
      </trkpt>
      <trkpt lat="42.86681863" lon="13.46274448">
        <ele>405.00000</ele>
        <time>2024-02-02T12:58:47Z</time>
      </trkpt>
      <trkpt lat="42.86681955" lon="13.46269955">
        <ele>406.00000</ele>
        <time>2024-02-02T12:58:48Z</time>
      </trkpt>
      <trkpt lat="42.86682341" lon="13.46266058">
        <ele>407.00000</ele>
        <time>2024-02-02T12:58:49Z</time>
      </trkpt>
      <trkpt lat="42.86683162" lon="13.46262219">
        <ele>407.00000</ele>
        <time>2024-02-02T12:58:50Z</time>
      </trkpt>
      <trkpt lat="42.86684403" lon="13.46258967">
        <ele>407.00000</ele>
        <time>2024-02-02T12:58:51Z</time>
      </trkpt>
      <trkpt lat="42.86685618" lon="13.46254709">
        <ele>407.00000</ele>
        <time>2024-02-02T12:58:52Z</time>
      </trkpt>
      <trkpt lat="42.86686079" lon="13.46248732">
        <ele>409.00000</ele>
        <time>2024-02-02T12:58:53Z</time>
      </trkpt>
      <trkpt lat="42.86686942" lon="13.46243971">
        <ele>409.00000</ele>
        <time>2024-02-02T12:58:54Z</time>
      </trkpt>
      <trkpt lat="42.86687923" lon="13.46239948">
        <ele>409.00000</ele>
        <time>2024-02-02T12:58:55Z</time>
      </trkpt>
      <trkpt lat="42.86689055" lon="13.46236830">
        <ele>409.00000</ele>
        <time>2024-02-02T12:58:56Z</time>
      </trkpt>
      <trkpt lat="42.86690706" lon="13.46232899">
        <ele>409.00000</ele>
        <time>2024-02-02T12:58:57Z</time>
      </trkpt>
      <trkpt lat="42.86692449" lon="13.46228716">
        <ele>408.00000</ele>
        <time>2024-02-02T12:58:58Z</time>
      </trkpt>
      <trkpt lat="42.86694268" lon="13.46224953">
        <ele>408.00000</ele>
        <time>2024-02-02T12:58:59Z</time>
      </trkpt>
      <trkpt lat="42.86696640" lon="13.46220477">
        <ele>407.00000</ele>
        <time>2024-02-02T12:59:00Z</time>
      </trkpt>
      <trkpt lat="42.86699088" lon="13.46216831">
        <ele>406.00000</ele>
        <time>2024-02-02T12:59:01Z</time>
      </trkpt>
      <trkpt lat="42.86700580" lon="13.46214115">
        <ele>406.00000</ele>
        <time>2024-02-02T12:59:02Z</time>
      </trkpt>
      <trkpt lat="42.86700756" lon="13.46210528">
        <ele>406.00000</ele>
        <time>2024-02-02T12:59:03Z</time>
      </trkpt>
      <trkpt lat="42.86702298" lon="13.46206580">
        <ele>405.00000</ele>
        <time>2024-02-02T12:59:04Z</time>
      </trkpt>
      <trkpt lat="42.86704209" lon="13.46203177">
        <ele>405.00000</ele>
        <time>2024-02-02T12:59:05Z</time>
      </trkpt>
      <trkpt lat="42.86705894" lon="13.46199749">
        <ele>404.00000</ele>
        <time>2024-02-02T12:59:06Z</time>
      </trkpt>
      <trkpt lat="42.86707554" lon="13.46196572">
        <ele>403.00000</ele>
        <time>2024-02-02T12:59:07Z</time>
      </trkpt>
      <trkpt lat="42.86709347" lon="13.46193177">
        <ele>403.00000</ele>
        <time>2024-02-02T12:59:08Z</time>
      </trkpt>
      <trkpt lat="42.86711862" lon="13.46188374">
        <ele>403.00000</ele>
        <time>2024-02-02T12:59:09Z</time>
      </trkpt>
      <trkpt lat="42.86714410" lon="13.46183882">
        <ele>402.00000</ele>
        <time>2024-02-02T12:59:10Z</time>
      </trkpt>
      <trkpt lat="42.86716690" lon="13.46179615">
        <ele>402.00000</ele>
        <time>2024-02-02T12:59:11Z</time>
      </trkpt>
      <trkpt lat="42.86719213" lon="13.46175651">
        <ele>402.00000</ele>
        <time>2024-02-02T12:59:12Z</time>
      </trkpt>
      <trkpt lat="42.86721174" lon="13.46172658">
        <ele>401.00000</ele>
        <time>2024-02-02T12:59:13Z</time>
      </trkpt>
      <trkpt lat="42.86722725" lon="13.46169339">
        <ele>401.00000</ele>
        <time>2024-02-02T12:59:14Z</time>
      </trkpt>
      <trkpt lat="42.86726446" lon="13.46164964">
        <ele>400.00000</ele>
        <time>2024-02-02T12:59:15Z</time>
      </trkpt>
      <trkpt lat="42.86730000" lon="13.46160597">
        <ele>399.00000</ele>
        <time>2024-02-02T12:59:16Z</time>
      </trkpt>
      <trkpt lat="42.86731962" lon="13.46157009">
        <ele>400.00000</ele>
        <time>2024-02-02T12:59:17Z</time>
      </trkpt>
      <trkpt lat="42.86735306" lon="13.46153095">
        <ele>400.00000</ele>
        <time>2024-02-02T12:59:18Z</time>
      </trkpt>
      <trkpt lat="42.86738709" lon="13.46149357">
        <ele>399.00000</ele>
        <time>2024-02-02T12:59:19Z</time>
      </trkpt>
      <trkpt lat="42.86741852" lon="13.46145484">
        <ele>399.00000</ele>
        <time>2024-02-02T12:59:20Z</time>
      </trkpt>
      <trkpt lat="42.86744769" lon="13.46141327">
        <ele>400.00000</ele>
        <time>2024-02-02T12:59:21Z</time>
      </trkpt>
      <trkpt lat="42.86747485" lon="13.46138267">
        <ele>400.00000</ele>
        <time>2024-02-02T12:59:22Z</time>
      </trkpt>
      <trkpt lat="42.86749237" lon="13.46134906">
        <ele>400.00000</ele>
        <time>2024-02-02T12:59:23Z</time>
      </trkpt>
      <trkpt lat="42.86747368" lon="13.46130950">
        <ele>404.00000</ele>
        <time>2024-02-02T12:59:24Z</time>
      </trkpt>
      <trkpt lat="42.86747569" lon="13.46126952">
        <ele>406.00000</ele>
        <time>2024-02-02T12:59:25Z</time>
      </trkpt>
      <trkpt lat="42.86747292" lon="13.46121277">
        <ele>409.00000</ele>
        <time>2024-02-02T12:59:26Z</time>
      </trkpt>
      <trkpt lat="42.86747418" lon="13.46117069">
        <ele>411.00000</ele>
        <time>2024-02-02T12:59:27Z</time>
      </trkpt>
      <trkpt lat="42.86747837" lon="13.46113658">
        <ele>413.00000</ele>
        <time>2024-02-02T12:59:28Z</time>
      </trkpt>
      <trkpt lat="42.86748818" lon="13.46110599">
        <ele>413.00000</ele>
        <time>2024-02-02T12:59:29Z</time>
      </trkpt>
      <trkpt lat="42.86749354" lon="13.46107103">
        <ele>413.00000</ele>
        <time>2024-02-02T12:59:30Z</time>
      </trkpt>
      <trkpt lat="42.86750243" lon="13.46103608">
        <ele>412.00000</ele>
        <time>2024-02-02T12:59:31Z</time>
      </trkpt>
      <trkpt lat="42.86751097" lon="13.46099535">
        <ele>412.00000</ele>
        <time>2024-02-02T12:59:32Z</time>
      </trkpt>
      <trkpt lat="42.86751341" lon="13.46096433">
        <ele>412.00000</ele>
        <time>2024-02-02T12:59:33Z</time>
      </trkpt>
      <trkpt lat="42.86751550" lon="13.46093391">
        <ele>412.00000</ele>
        <time>2024-02-02T12:59:34Z</time>
      </trkpt>
      <trkpt lat="42.86752372" lon="13.46090524">
        <ele>411.00000</ele>
        <time>2024-02-02T12:59:35Z</time>
      </trkpt>
      <trkpt lat="42.86753285" lon="13.46086459">
        <ele>410.00000</ele>
        <time>2024-02-02T12:59:36Z</time>
      </trkpt>
      <trkpt lat="42.86753612" lon="13.46082662">
        <ele>410.00000</ele>
        <time>2024-02-02T12:59:37Z</time>
      </trkpt>
      <trkpt lat="42.86753243" lon="13.46078773">
        <ele>410.00000</ele>
        <time>2024-02-02T12:59:38Z</time>
      </trkpt>
      <trkpt lat="42.86753159" lon="13.46076015">
        <ele>410.00000</ele>
        <time>2024-02-02T12:59:39Z</time>
      </trkpt>
      <trkpt lat="42.86752631" lon="13.46073064">
        <ele>410.00000</ele>
        <time>2024-02-02T12:59:40Z</time>
      </trkpt>
      <trkpt lat="42.86751760" lon="13.46070122">
        <ele>411.00000</ele>
        <time>2024-02-02T12:59:41Z</time>
      </trkpt>
      <trkpt lat="42.86749698" lon="13.46067407">
        <ele>412.00000</ele>
        <time>2024-02-02T12:59:42Z</time>
      </trkpt>
      <trkpt lat="42.86747409" lon="13.46065554">
        <ele>413.00000</ele>
        <time>2024-02-02T12:59:43Z</time>
      </trkpt>
      <trkpt lat="42.86745641" lon="13.46065454">
        <ele>415.00000</ele>
        <time>2024-02-02T12:59:44Z</time>
      </trkpt>
      <trkpt lat="42.86744484" lon="13.46066250">
        <ele>416.00000</ele>
        <time>2024-02-02T12:59:45Z</time>
      </trkpt>
      <trkpt lat="42.86742774" lon="13.46068186">
        <ele>417.00000</ele>
        <time>2024-02-02T12:59:46Z</time>
      </trkpt>
      <trkpt lat="42.86741358" lon="13.46070634">
        <ele>418.00000</ele>
        <time>2024-02-02T12:59:47Z</time>
      </trkpt>
      <trkpt lat="42.86739966" lon="13.46073500">
        <ele>419.00000</ele>
        <time>2024-02-02T12:59:48Z</time>
      </trkpt>
      <trkpt lat="42.86739103" lon="13.46076275">
        <ele>421.00000</ele>
        <time>2024-02-02T12:59:49Z</time>
      </trkpt>
      <trkpt lat="42.86738206" lon="13.46078898">
        <ele>421.00000</ele>
        <time>2024-02-02T12:59:50Z</time>
      </trkpt>
      <trkpt lat="42.86737376" lon="13.46082285">
        <ele>422.00000</ele>
        <time>2024-02-02T12:59:51Z</time>
      </trkpt>
      <trkpt lat="42.86736790" lon="13.46086375">
        <ele>423.00000</ele>
        <time>2024-02-02T12:59:52Z</time>
      </trkpt>
      <trkpt lat="42.86736295" lon="13.46089744">
        <ele>423.00000</ele>
        <time>2024-02-02T12:59:53Z</time>
      </trkpt>
      <trkpt lat="42.86735700" lon="13.46093248">
        <ele>423.00000</ele>
        <time>2024-02-02T12:59:54Z</time>
      </trkpt>
      <trkpt lat="42.86735247" lon="13.46096240">
        <ele>423.00000</ele>
        <time>2024-02-02T12:59:55Z</time>
      </trkpt>
      <trkpt lat="42.86734711" lon="13.46099669">
        <ele>424.00000</ele>
        <time>2024-02-02T12:59:56Z</time>
      </trkpt>
      <trkpt lat="42.86733789" lon="13.46103801">
        <ele>424.00000</ele>
        <time>2024-02-02T12:59:57Z</time>
      </trkpt>
      <trkpt lat="42.86732314" lon="13.46107724">
        <ele>425.00000</ele>
        <time>2024-02-02T12:59:58Z</time>
      </trkpt>
      <trkpt lat="42.86729891" lon="13.46111387">
        <ele>426.00000</ele>
        <time>2024-02-02T12:59:59Z</time>
      </trkpt>
      <trkpt lat="42.86727712" lon="13.46114169">
        <ele>426.00000</ele>
        <time>2024-02-02T13:00:00Z</time>
      </trkpt>
      <trkpt lat="42.86726438" lon="13.46117530">
        <ele>426.00000</ele>
        <time>2024-02-02T13:00:01Z</time>
      </trkpt>
      <trkpt lat="42.86725122" lon="13.46120975">
        <ele>425.00000</ele>
        <time>2024-02-02T13:00:02Z</time>
      </trkpt>
      <trkpt lat="42.86723320" lon="13.46124345">
        <ele>425.00000</ele>
        <time>2024-02-02T13:00:03Z</time>
      </trkpt>
      <trkpt lat="42.86721451" lon="13.46127773">
        <ele>425.00000</ele>
        <time>2024-02-02T13:00:04Z</time>
      </trkpt>
      <trkpt lat="42.86720126" lon="13.46131084">
        <ele>424.00000</ele>
        <time>2024-02-02T13:00:05Z</time>
      </trkpt>
      <trkpt lat="42.86717930" lon="13.46135065">
        <ele>424.00000</ele>
        <time>2024-02-02T13:00:06Z</time>
      </trkpt>
      <trkpt lat="42.86715793" lon="13.46139659">
        <ele>423.00000</ele>
        <time>2024-02-02T13:00:07Z</time>
      </trkpt>
      <trkpt lat="42.86714837" lon="13.46141779">
        <ele>422.00000</ele>
        <time>2024-02-02T13:00:08Z</time>
      </trkpt>
      <trkpt lat="42.86712273" lon="13.46145543">
        <ele>422.00000</ele>
        <time>2024-02-02T13:00:09Z</time>
      </trkpt>
      <trkpt lat="42.86710454" lon="13.46147923">
        <ele>422.00000</ele>
        <time>2024-02-02T13:00:10Z</time>
      </trkpt>
      <trkpt lat="42.86707889" lon="13.46150622">
        <ele>422.00000</ele>
        <time>2024-02-02T13:00:11Z</time>
      </trkpt>
      <trkpt lat="42.86705198" lon="13.46152785">
        <ele>423.00000</ele>
        <time>2024-02-02T13:00:12Z</time>
      </trkpt>
      <trkpt lat="42.86702407" lon="13.46155970">
        <ele>423.00000</ele>
        <time>2024-02-02T13:00:13Z</time>
      </trkpt>
      <trkpt lat="42.86700655" lon="13.46158300">
        <ele>423.00000</ele>
        <time>2024-02-02T13:00:14Z</time>
      </trkpt>
      <trkpt lat="42.86698635" lon="13.46160655">
        <ele>423.00000</ele>
        <time>2024-02-02T13:00:15Z</time>
      </trkpt>
      <trkpt lat="42.86696322" lon="13.46163296">
        <ele>423.00000</ele>
        <time>2024-02-02T13:00:16Z</time>
      </trkpt>
      <trkpt lat="42.86694930" lon="13.46165978">
        <ele>422.00000</ele>
        <time>2024-02-02T13:00:17Z</time>
      </trkpt>
      <trkpt lat="42.86693665" lon="13.46168333">
        <ele>423.00000</ele>
        <time>2024-02-02T13:00:18Z</time>
      </trkpt>
      <trkpt lat="42.86691930" lon="13.46170797">
        <ele>423.00000</ele>
        <time>2024-02-02T13:00:19Z</time>
      </trkpt>
      <trkpt lat="42.86689935" lon="13.46173195">
        <ele>423.00000</ele>
        <time>2024-02-02T13:00:20Z</time>
      </trkpt>
      <trkpt lat="42.86688183" lon="13.46175542">
        <ele>424.00000</ele>
        <time>2024-02-02T13:00:21Z</time>
      </trkpt>
      <trkpt lat="42.86686347" lon="13.46178023">
        <ele>424.00000</ele>
        <time>2024-02-02T13:00:22Z</time>
      </trkpt>
      <trkpt lat="42.86683573" lon="13.46181350">
        <ele>425.00000</ele>
        <time>2024-02-02T13:00:23Z</time>
      </trkpt>
      <trkpt lat="42.86681042" lon="13.46183949">
        <ele>426.00000</ele>
        <time>2024-02-02T13:00:24Z</time>
      </trkpt>
      <trkpt lat="42.86678326" lon="13.46185977">
        <ele>427.00000</ele>
        <time>2024-02-02T13:00:25Z</time>
      </trkpt>
      <trkpt lat="42.86676524" lon="13.46187938">
        <ele>428.00000</ele>
        <time>2024-02-02T13:00:26Z</time>
      </trkpt>
      <trkpt lat="42.86674453" lon="13.46189925">
        <ele>429.00000</ele>
        <time>2024-02-02T13:00:27Z</time>
      </trkpt>
      <trkpt lat="42.86672559" lon="13.46192213">
        <ele>430.00000</ele>
        <time>2024-02-02T13:00:28Z</time>
      </trkpt>
      <trkpt lat="42.86670304" lon="13.46194669">
        <ele>431.00000</ele>
        <time>2024-02-02T13:00:29Z</time>
      </trkpt>
      <trkpt lat="42.86667915" lon="13.46197050">
        <ele>432.00000</ele>
        <time>2024-02-02T13:00:30Z</time>
      </trkpt>
      <trkpt lat="42.86665929" lon="13.46199656">
        <ele>432.00000</ele>
        <time>2024-02-02T13:00:31Z</time>
      </trkpt>
      <trkpt lat="42.86663297" lon="13.46203076">
        <ele>432.00000</ele>
        <time>2024-02-02T13:00:32Z</time>
      </trkpt>
      <trkpt lat="42.86660690" lon="13.46206798">
        <ele>432.00000</ele>
        <time>2024-02-02T13:00:33Z</time>
      </trkpt>
      <trkpt lat="42.86658788" lon="13.46211366">
        <ele>431.00000</ele>
        <time>2024-02-02T13:00:34Z</time>
      </trkpt>
      <trkpt lat="42.86656734" lon="13.46216537">
        <ele>431.00000</ele>
        <time>2024-02-02T13:00:35Z</time>
      </trkpt>
      <trkpt lat="42.86654965" lon="13.46222463">
        <ele>430.00000</ele>
        <time>2024-02-02T13:00:36Z</time>
      </trkpt>
      <trkpt lat="42.86652627" lon="13.46228918">
        <ele>429.00000</ele>
        <time>2024-02-02T13:00:37Z</time>
      </trkpt>
      <trkpt lat="42.86651127" lon="13.46234634">
        <ele>428.00000</ele>
        <time>2024-02-02T13:00:38Z</time>
      </trkpt>
      <trkpt lat="42.86649643" lon="13.46239076">
        <ele>427.00000</ele>
        <time>2024-02-02T13:00:39Z</time>
      </trkpt>
      <trkpt lat="42.86647757" lon="13.46243519">
        <ele>426.00000</ele>
        <time>2024-02-02T13:00:40Z</time>
      </trkpt>
      <trkpt lat="42.86645452" lon="13.46247316">
        <ele>426.00000</ele>
        <time>2024-02-02T13:00:41Z</time>
      </trkpt>
      <trkpt lat="42.86642577" lon="13.46250099">
        <ele>426.00000</ele>
        <time>2024-02-02T13:00:42Z</time>
      </trkpt>
      <trkpt lat="42.86639501" lon="13.46251415">
        <ele>426.00000</ele>
        <time>2024-02-02T13:00:43Z</time>
      </trkpt>
      <trkpt lat="42.86635939" lon="13.46249696">
        <ele>427.00000</ele>
        <time>2024-02-02T13:00:44Z</time>
      </trkpt>
      <trkpt lat="42.86633164" lon="13.46246235">
        <ele>428.00000</ele>
        <time>2024-02-02T13:00:45Z</time>
      </trkpt>
      <trkpt lat="42.86633013" lon="13.46243242">
        <ele>430.00000</ele>
        <time>2024-02-02T13:00:46Z</time>
      </trkpt>
      <trkpt lat="42.86633483" lon="13.46238515">
        <ele>432.00000</ele>
        <time>2024-02-02T13:00:47Z</time>
      </trkpt>
      <trkpt lat="42.86634841" lon="13.46234818">
        <ele>433.00000</ele>
        <time>2024-02-02T13:00:48Z</time>
      </trkpt>
      <trkpt lat="42.86636936" lon="13.46231038">
        <ele>435.00000</ele>
        <time>2024-02-02T13:00:49Z</time>
      </trkpt>
      <trkpt lat="42.86639182" lon="13.46227250">
        <ele>436.00000</ele>
        <time>2024-02-02T13:00:50Z</time>
      </trkpt>
      <trkpt lat="42.86641554" lon="13.46223520">
        <ele>436.00000</ele>
        <time>2024-02-02T13:00:51Z</time>
      </trkpt>
      <trkpt lat="42.86643642" lon="13.46219882">
        <ele>437.00000</ele>
        <time>2024-02-02T13:00:52Z</time>
      </trkpt>
      <trkpt lat="42.86645955" lon="13.46216470">
        <ele>436.00000</ele>
        <time>2024-02-02T13:00:53Z</time>
      </trkpt>
      <trkpt lat="42.86648394" lon="13.46212799">
        <ele>436.00000</ele>
        <time>2024-02-02T13:00:54Z</time>
      </trkpt>
      <trkpt lat="42.86650456" lon="13.46209153">
        <ele>436.00000</ele>
        <time>2024-02-02T13:00:55Z</time>
      </trkpt>
      <trkpt lat="42.86652250" lon="13.46205700">
        <ele>437.00000</ele>
        <time>2024-02-02T13:00:56Z</time>
      </trkpt>
      <trkpt lat="42.86653859" lon="13.46202330">
        <ele>437.00000</ele>
        <time>2024-02-02T13:00:57Z</time>
      </trkpt>
      <trkpt lat="42.86655896" lon="13.46198583">
        <ele>437.00000</ele>
        <time>2024-02-02T13:00:58Z</time>
      </trkpt>
      <trkpt lat="42.86658075" lon="13.46195264">
        <ele>437.00000</ele>
        <time>2024-02-02T13:00:59Z</time>
      </trkpt>
      <trkpt lat="42.86659860" lon="13.46192322">
        <ele>437.00000</ele>
        <time>2024-02-02T13:01:00Z</time>
      </trkpt>
      <trkpt lat="42.86661830" lon="13.46189087">
        <ele>437.00000</ele>
        <time>2024-02-02T13:01:01Z</time>
      </trkpt>
      <trkpt lat="42.86664135" lon="13.46185684">
        <ele>437.00000</ele>
        <time>2024-02-02T13:01:02Z</time>
      </trkpt>
      <trkpt lat="42.86666742" lon="13.46182490">
        <ele>437.00000</ele>
        <time>2024-02-02T13:01:03Z</time>
      </trkpt>
      <trkpt lat="42.86670061" lon="13.46178400">
        <ele>436.00000</ele>
        <time>2024-02-02T13:01:04Z</time>
      </trkpt>
      <trkpt lat="42.86672115" lon="13.46175458">
        <ele>435.00000</ele>
        <time>2024-02-02T13:01:05Z</time>
      </trkpt>
      <trkpt lat="42.86674562" lon="13.46172206">
        <ele>434.00000</ele>
        <time>2024-02-02T13:01:06Z</time>
      </trkpt>
      <trkpt lat="42.86677680" lon="13.46168459">
        <ele>433.00000</ele>
        <time>2024-02-02T13:01:07Z</time>
      </trkpt>
      <trkpt lat="42.86680673" lon="13.46164980">
        <ele>433.00000</ele>
        <time>2024-02-02T13:01:08Z</time>
      </trkpt>
      <trkpt lat="42.86683573" lon="13.46161066">
        <ele>432.00000</ele>
        <time>2024-02-02T13:01:09Z</time>
      </trkpt>
      <trkpt lat="42.86686331" lon="13.46157655">
        <ele>432.00000</ele>
        <time>2024-02-02T13:01:10Z</time>
      </trkpt>
      <trkpt lat="42.86689340" lon="13.46153958">
        <ele>432.00000</ele>
        <time>2024-02-02T13:01:11Z</time>
      </trkpt>
      <trkpt lat="42.86692131" lon="13.46150161">
        <ele>433.00000</ele>
        <time>2024-02-02T13:01:12Z</time>
      </trkpt>
      <trkpt lat="42.86695106" lon="13.46146004">
        <ele>433.00000</ele>
        <time>2024-02-02T13:01:13Z</time>
      </trkpt>
      <trkpt lat="42.86697420" lon="13.46141846">
        <ele>434.00000</ele>
        <time>2024-02-02T13:01:14Z</time>
      </trkpt>
      <trkpt lat="42.86699004" lon="13.46137404">
        <ele>435.00000</ele>
        <time>2024-02-02T13:01:15Z</time>
      </trkpt>
      <trkpt lat="42.86699884" lon="13.46132786">
        <ele>435.00000</ele>
        <time>2024-02-02T13:01:16Z</time>
      </trkpt>
      <trkpt lat="42.86700353" lon="13.46128201">
        <ele>436.00000</ele>
        <time>2024-02-02T13:01:17Z</time>
      </trkpt>
      <trkpt lat="42.86700932" lon="13.46124437">
        <ele>437.00000</ele>
        <time>2024-02-02T13:01:18Z</time>
      </trkpt>
      <trkpt lat="42.86702197" lon="13.46120070">
        <ele>437.00000</ele>
        <time>2024-02-02T13:01:19Z</time>
      </trkpt>
      <trkpt lat="42.86702734" lon="13.46115435">
        <ele>438.00000</ele>
        <time>2024-02-02T13:01:20Z</time>
      </trkpt>
      <trkpt lat="42.86702776" lon="13.46110632">
        <ele>439.00000</ele>
        <time>2024-02-02T13:01:21Z</time>
      </trkpt>
      <trkpt lat="42.86702122" lon="13.46106383">
        <ele>440.00000</ele>
        <time>2024-02-02T13:01:22Z</time>
      </trkpt>
      <trkpt lat="42.86701451" lon="13.46102007">
        <ele>441.00000</ele>
        <time>2024-02-02T13:01:23Z</time>
      </trkpt>
      <trkpt lat="42.86700647" lon="13.46097749">
        <ele>441.00000</ele>
        <time>2024-02-02T13:01:24Z</time>
      </trkpt>
      <trkpt lat="42.86699666" lon="13.46093541">
        <ele>442.00000</ele>
        <time>2024-02-02T13:01:25Z</time>
      </trkpt>
      <trkpt lat="42.86698635" lon="13.46089778">
        <ele>443.00000</ele>
        <time>2024-02-02T13:01:26Z</time>
      </trkpt>
      <trkpt lat="42.86697118" lon="13.46085721">
        <ele>444.00000</ele>
        <time>2024-02-02T13:01:27Z</time>
      </trkpt>
      <trkpt lat="42.86695098" lon="13.46081865">
        <ele>445.00000</ele>
        <time>2024-02-02T13:01:28Z</time>
      </trkpt>
      <trkpt lat="42.86693053" lon="13.46077943">
        <ele>445.00000</ele>
        <time>2024-02-02T13:01:29Z</time>
      </trkpt>
      <trkpt lat="42.86691443" lon="13.46073626">
        <ele>445.00000</ele>
        <time>2024-02-02T13:01:30Z</time>
      </trkpt>
      <trkpt lat="42.86689960" lon="13.46069410">
        <ele>445.00000</ele>
        <time>2024-02-02T13:01:31Z</time>
      </trkpt>
      <trkpt lat="42.86688242" lon="13.46065697">
        <ele>445.00000</ele>
        <time>2024-02-02T13:01:32Z</time>
      </trkpt>
      <trkpt lat="42.86686984" lon="13.46061682">
        <ele>445.00000</ele>
        <time>2024-02-02T13:01:33Z</time>
      </trkpt>
      <trkpt lat="42.86685928" lon="13.46057809">
        <ele>445.00000</ele>
        <time>2024-02-02T13:01:34Z</time>
      </trkpt>
      <trkpt lat="42.86685140" lon="13.46054004">
        <ele>444.00000</ele>
        <time>2024-02-02T13:01:35Z</time>
      </trkpt>
      <trkpt lat="42.86684302" lon="13.46050249">
        <ele>444.00000</ele>
        <time>2024-02-02T13:01:36Z</time>
      </trkpt>
      <trkpt lat="42.86683145" lon="13.46046318">
        <ele>443.00000</ele>
        <time>2024-02-02T13:01:37Z</time>
      </trkpt>
      <trkpt lat="42.86681461" lon="13.46042261">
        <ele>443.00000</ele>
        <time>2024-02-02T13:01:38Z</time>
      </trkpt>
      <trkpt lat="42.86679432" lon="13.46038036">
        <ele>443.00000</ele>
        <time>2024-02-02T13:01:39Z</time>
      </trkpt>
      <trkpt lat="42.86677831" lon="13.46034181">
        <ele>443.00000</ele>
        <time>2024-02-02T13:01:40Z</time>
      </trkpt>
      <trkpt lat="42.86675568" lon="13.46031214">
        <ele>444.00000</ele>
        <time>2024-02-02T13:01:41Z</time>
      </trkpt>
      <trkpt lat="42.86673674" lon="13.46027735">
        <ele>444.00000</ele>
        <time>2024-02-02T13:01:42Z</time>
      </trkpt>
      <trkpt lat="42.86672458" lon="13.46023703">
        <ele>444.00000</ele>
        <time>2024-02-02T13:01:43Z</time>
      </trkpt>
      <trkpt lat="42.86671050" lon="13.46019370">
        <ele>445.00000</ele>
        <time>2024-02-02T13:01:44Z</time>
      </trkpt>
      <trkpt lat="42.86669558" lon="13.46015347">
        <ele>445.00000</ele>
        <time>2024-02-02T13:01:45Z</time>
      </trkpt>
      <trkpt lat="42.86668192" lon="13.46011860">
        <ele>446.00000</ele>
        <time>2024-02-02T13:01:46Z</time>
      </trkpt>
      <trkpt lat="42.86665946" lon="13.46008071">
        <ele>447.00000</ele>
        <time>2024-02-02T13:01:47Z</time>
      </trkpt>
      <trkpt lat="42.86663934" lon="13.46005280">
        <ele>447.00000</ele>
        <time>2024-02-02T13:01:48Z</time>
      </trkpt>
      <trkpt lat="42.86661881" lon="13.46001835">
        <ele>447.00000</ele>
        <time>2024-02-02T13:01:49Z</time>
      </trkpt>
      <trkpt lat="42.86660296" lon="13.45999052">
        <ele>447.00000</ele>
        <time>2024-02-02T13:01:50Z</time>
      </trkpt>
      <trkpt lat="42.86658058" lon="13.45996429">
        <ele>447.00000</ele>
        <time>2024-02-02T13:01:51Z</time>
      </trkpt>
      <trkpt lat="42.86656139" lon="13.45992799">
        <ele>447.00000</ele>
        <time>2024-02-02T13:01:52Z</time>
      </trkpt>
      <trkpt lat="42.86653591" lon="13.45990704">
        <ele>448.00000</ele>
        <time>2024-02-02T13:01:53Z</time>
      </trkpt>
      <trkpt lat="42.86651277" lon="13.45987787">
        <ele>448.00000</ele>
        <time>2024-02-02T13:01:54Z</time>
      </trkpt>
      <trkpt lat="42.86649852" lon="13.45985407">
        <ele>449.00000</ele>
        <time>2024-02-02T13:01:55Z</time>
      </trkpt>
      <trkpt lat="42.86647212" lon="13.45983085">
        <ele>450.00000</ele>
        <time>2024-02-02T13:01:56Z</time>
      </trkpt>
      <trkpt lat="42.86645435" lon="13.45981014">
        <ele>451.00000</ele>
        <time>2024-02-02T13:01:57Z</time>
      </trkpt>
      <trkpt lat="42.86643918" lon="13.45979279">
        <ele>451.00000</ele>
        <time>2024-02-02T13:01:58Z</time>
      </trkpt>
      <trkpt lat="42.86642451" lon="13.45977611">
        <ele>452.00000</ele>
        <time>2024-02-02T13:01:59Z</time>
      </trkpt>
      <trkpt lat="42.86640875" lon="13.45976145">
        <ele>453.00000</ele>
        <time>2024-02-02T13:02:00Z</time>
      </trkpt>
      <trkpt lat="42.86639383" lon="13.45974644">
        <ele>454.00000</ele>
        <time>2024-02-02T13:02:01Z</time>
      </trkpt>
      <trkpt lat="42.86638294" lon="13.45972733">
        <ele>454.00000</ele>
        <time>2024-02-02T13:02:02Z</time>
      </trkpt>
      <trkpt lat="42.86638109" lon="13.45970629">
        <ele>455.00000</ele>
        <time>2024-02-02T13:02:03Z</time>
      </trkpt>
      <trkpt lat="42.86639031" lon="13.45968391">
        <ele>455.00000</ele>
        <time>2024-02-02T13:02:04Z</time>
      </trkpt>
      <trkpt lat="42.86639987" lon="13.45966120">
        <ele>454.00000</ele>
        <time>2024-02-02T13:02:05Z</time>
      </trkpt>
      <trkpt lat="42.86640398" lon="13.45963010">
        <ele>454.00000</ele>
        <time>2024-02-02T13:02:06Z</time>
      </trkpt>
      <trkpt lat="42.86640892" lon="13.45959465">
        <ele>454.00000</ele>
        <time>2024-02-02T13:02:07Z</time>
      </trkpt>
      <trkpt lat="42.86641119" lon="13.45955383">
        <ele>455.00000</ele>
        <time>2024-02-02T13:02:08Z</time>
      </trkpt>
      <trkpt lat="42.86641739" lon="13.45951342">
        <ele>455.00000</ele>
        <time>2024-02-02T13:02:09Z</time>
      </trkpt>
      <trkpt lat="42.86642359" lon="13.45947084">
        <ele>454.00000</ele>
        <time>2024-02-02T13:02:10Z</time>
      </trkpt>
      <trkpt lat="42.86643340" lon="13.45942474">
        <ele>454.00000</ele>
        <time>2024-02-02T13:02:11Z</time>
      </trkpt>
      <trkpt lat="42.86645393" lon="13.45937169">
        <ele>452.00000</ele>
        <time>2024-02-02T13:02:12Z</time>
      </trkpt>
      <trkpt lat="42.86648143" lon="13.45931075">
        <ele>451.00000</ele>
        <time>2024-02-02T13:02:13Z</time>
      </trkpt>
      <trkpt lat="42.86651269" lon="13.45923121">
        <ele>448.00000</ele>
        <time>2024-02-02T13:02:14Z</time>
      </trkpt>
      <trkpt lat="42.86653297" lon="13.45914060">
        <ele>447.00000</ele>
        <time>2024-02-02T13:02:15Z</time>
      </trkpt>
      <trkpt lat="42.86654379" lon="13.45904613">
        <ele>445.00000</ele>
        <time>2024-02-02T13:02:16Z</time>
      </trkpt>
      <trkpt lat="42.86655125" lon="13.45895636">
        <ele>444.00000</ele>
        <time>2024-02-02T13:02:17Z</time>
      </trkpt>
      <trkpt lat="42.86654999" lon="13.45887632">
        <ele>444.00000</ele>
        <time>2024-02-02T13:02:18Z</time>
      </trkpt>
      <trkpt lat="42.86653616" lon="13.45878923">
        <ele>444.00000</ele>
        <time>2024-02-02T13:02:19Z</time>
      </trkpt>
      <trkpt lat="42.86651051" lon="13.45870566">
        <ele>445.00000</ele>
        <time>2024-02-02T13:02:20Z</time>
      </trkpt>
      <trkpt lat="42.86648025" lon="13.45862545">
        <ele>446.00000</ele>
        <time>2024-02-02T13:02:21Z</time>
      </trkpt>
      <trkpt lat="42.86644103" lon="13.45854674">
        <ele>449.00000</ele>
        <time>2024-02-02T13:02:22Z</time>
      </trkpt>
      <trkpt lat="42.86640465" lon="13.45846602">
        <ele>451.00000</ele>
        <time>2024-02-02T13:02:23Z</time>
      </trkpt>
      <trkpt lat="42.86636701" lon="13.45838597">
        <ele>453.00000</ele>
        <time>2024-02-02T13:02:24Z</time>
      </trkpt>
      <trkpt lat="42.86633575" lon="13.45831498">
        <ele>455.00000</ele>
        <time>2024-02-02T13:02:25Z</time>
      </trkpt>
      <trkpt lat="42.86632502" lon="13.45825245">
        <ele>456.00000</ele>
        <time>2024-02-02T13:02:26Z</time>
      </trkpt>
      <trkpt lat="42.86633013" lon="13.45819235">
        <ele>456.00000</ele>
        <time>2024-02-02T13:02:27Z</time>
      </trkpt>
      <trkpt lat="42.86633776" lon="13.45813577">
        <ele>456.00000</ele>
        <time>2024-02-02T13:02:28Z</time>
      </trkpt>
      <trkpt lat="42.86635461" lon="13.45807333">
        <ele>455.00000</ele>
        <time>2024-02-02T13:02:29Z</time>
      </trkpt>
      <trkpt lat="42.86637640" lon="13.45800359">
        <ele>454.00000</ele>
        <time>2024-02-02T13:02:30Z</time>
      </trkpt>
      <trkpt lat="42.86640641" lon="13.45793914">
        <ele>453.00000</ele>
        <time>2024-02-02T13:02:31Z</time>
      </trkpt>
      <trkpt lat="42.86644798" lon="13.45787853">
        <ele>451.00000</ele>
        <time>2024-02-02T13:02:32Z</time>
      </trkpt>
      <trkpt lat="42.86649157" lon="13.45781433">
        <ele>449.00000</ele>
        <time>2024-02-02T13:02:33Z</time>
      </trkpt>
      <trkpt lat="42.86652669" lon="13.45775012">
        <ele>448.00000</ele>
        <time>2024-02-02T13:02:34Z</time>
      </trkpt>
      <trkpt lat="42.86656131" lon="13.45768508">
        <ele>446.00000</ele>
        <time>2024-02-02T13:02:35Z</time>
      </trkpt>
      <trkpt lat="42.86658712" lon="13.45761459">
        <ele>446.00000</ele>
        <time>2024-02-02T13:02:36Z</time>
      </trkpt>
      <trkpt lat="42.86661445" lon="13.45751560">
        <ele>447.00000</ele>
        <time>2024-02-02T13:02:37Z</time>
      </trkpt>
      <trkpt lat="42.86665024" lon="13.45745005">
        <ele>447.00000</ele>
        <time>2024-02-02T13:02:38Z</time>
      </trkpt>
      <trkpt lat="42.86668913" lon="13.45740353">
        <ele>446.00000</ele>
        <time>2024-02-02T13:02:39Z</time>
      </trkpt>
      <trkpt lat="42.86672576" lon="13.45736799">
        <ele>446.00000</ele>
        <time>2024-02-02T13:02:40Z</time>
      </trkpt>
      <trkpt lat="42.86675736" lon="13.45735039">
        <ele>446.00000</ele>
        <time>2024-02-02T13:02:41Z</time>
      </trkpt>
      <trkpt lat="42.86678485" lon="13.45735441">
        <ele>445.00000</ele>
        <time>2024-02-02T13:02:42Z</time>
      </trkpt>
      <trkpt lat="42.86681980" lon="13.45736841">
        <ele>444.00000</ele>
        <time>2024-02-02T13:02:43Z</time>
      </trkpt>
      <trkpt lat="42.86684528" lon="13.45739020">
        <ele>443.00000</ele>
        <time>2024-02-02T13:02:44Z</time>
      </trkpt>
      <trkpt lat="42.86687856" lon="13.45741225">
        <ele>441.00000</ele>
        <time>2024-02-02T13:02:45Z</time>
      </trkpt>
      <trkpt lat="42.86691309" lon="13.45743522">
        <ele>439.00000</ele>
        <time>2024-02-02T13:02:46Z</time>
      </trkpt>
      <trkpt lat="42.86693983" lon="13.45745240">
        <ele>438.00000</ele>
        <time>2024-02-02T13:02:47Z</time>
      </trkpt>
      <trkpt lat="42.86696959" lon="13.45748165">
        <ele>437.00000</ele>
        <time>2024-02-02T13:02:48Z</time>
      </trkpt>
      <trkpt lat="42.86700412" lon="13.45751132">
        <ele>436.00000</ele>
        <time>2024-02-02T13:02:49Z</time>
      </trkpt>
      <trkpt lat="42.86703187" lon="13.45754267">
        <ele>434.00000</ele>
        <time>2024-02-02T13:02:50Z</time>
      </trkpt>
      <trkpt lat="42.86707512" lon="13.45759640">
        <ele>432.00000</ele>
        <time>2024-02-02T13:02:51Z</time>
      </trkpt>
      <trkpt lat="42.86711242" lon="13.45764108">
        <ele>431.00000</ele>
        <time>2024-02-02T13:02:52Z</time>
      </trkpt>
      <trkpt lat="42.86715374" lon="13.45768106">
        <ele>429.00000</ele>
        <time>2024-02-02T13:02:53Z</time>
      </trkpt>
      <trkpt lat="42.86720277" lon="13.45770997">
        <ele>428.00000</ele>
        <time>2024-02-02T13:02:54Z</time>
      </trkpt>
      <trkpt lat="42.86722800" lon="13.45773822">
        <ele>427.00000</ele>
        <time>2024-02-02T13:02:55Z</time>
      </trkpt>
      <trkpt lat="42.86727276" lon="13.45776756">
        <ele>425.00000</ele>
        <time>2024-02-02T13:02:56Z</time>
      </trkpt>
      <trkpt lat="42.86731869" lon="13.45779455">
        <ele>423.00000</ele>
        <time>2024-02-02T13:02:57Z</time>
      </trkpt>
      <trkpt lat="42.86736287" lon="13.45783939">
        <ele>421.00000</ele>
        <time>2024-02-02T13:02:58Z</time>
      </trkpt>
      <trkpt lat="42.86740109" lon="13.45788901">
        <ele>418.00000</ele>
        <time>2024-02-02T13:02:59Z</time>
      </trkpt>
      <trkpt lat="42.86745758" lon="13.45794199">
        <ele>415.00000</ele>
        <time>2024-02-02T13:03:00Z</time>
      </trkpt>
      <trkpt lat="42.86749614" lon="13.45797099">
        <ele>413.00000</ele>
        <time>2024-02-02T13:03:01Z</time>
      </trkpt>
      <trkpt lat="42.86756445" lon="13.45799228">
        <ele>411.00000</ele>
        <time>2024-02-02T13:03:02Z</time>
      </trkpt>
      <trkpt lat="42.86761810" lon="13.45798934">
        <ele>410.00000</ele>
        <time>2024-02-02T13:03:03Z</time>
      </trkpt>
      <trkpt lat="42.86767090" lon="13.45798498">
        <ele>409.00000</ele>
        <time>2024-02-02T13:03:04Z</time>
      </trkpt>
      <trkpt lat="42.86772170" lon="13.45796319">
        <ele>409.00000</ele>
        <time>2024-02-02T13:03:05Z</time>
      </trkpt>
      <trkpt lat="42.86777760" lon="13.45794291">
        <ele>409.00000</ele>
        <time>2024-02-02T13:03:06Z</time>
      </trkpt>
      <trkpt lat="42.86783862" lon="13.45791852">
        <ele>408.00000</ele>
        <time>2024-02-02T13:03:07Z</time>
      </trkpt>
      <trkpt lat="42.86790912" lon="13.45787686">
        <ele>407.00000</ele>
        <time>2024-02-02T13:03:08Z</time>
      </trkpt>
      <trkpt lat="42.86795379" lon="13.45784878">
        <ele>407.00000</ele>
        <time>2024-02-02T13:03:09Z</time>
      </trkpt>
      <trkpt lat="42.86800509" lon="13.45781123">
        <ele>407.00000</ele>
        <time>2024-02-02T13:03:10Z</time>
      </trkpt>
      <trkpt lat="42.86805639" lon="13.45778374">
        <ele>406.00000</ele>
        <time>2024-02-02T13:03:11Z</time>
      </trkpt>
      <trkpt lat="42.86809704" lon="13.45776990">
        <ele>405.00000</ele>
        <time>2024-02-02T13:03:12Z</time>
      </trkpt>
      <trkpt lat="42.86813467" lon="13.45775440">
        <ele>404.00000</ele>
        <time>2024-02-02T13:03:13Z</time>
      </trkpt>
      <trkpt lat="42.86816560" lon="13.45775113">
        <ele>403.00000</ele>
        <time>2024-02-02T13:03:14Z</time>
      </trkpt>
      <trkpt lat="42.86819393" lon="13.45774501">
        <ele>402.00000</ele>
        <time>2024-02-02T13:03:15Z</time>
      </trkpt>
      <trkpt lat="42.86823215" lon="13.45775398">
        <ele>400.00000</ele>
        <time>2024-02-02T13:03:16Z</time>
      </trkpt>
      <trkpt lat="42.86827180" lon="13.45776169">
        <ele>398.00000</ele>
        <time>2024-02-02T13:03:17Z</time>
      </trkpt>
      <trkpt lat="42.86831983" lon="13.45775054">
        <ele>396.00000</ele>
        <time>2024-02-02T13:03:18Z</time>
      </trkpt>
      <trkpt lat="42.86836492" lon="13.45771308">
        <ele>395.00000</ele>
        <time>2024-02-02T13:03:19Z</time>
      </trkpt>
      <trkpt lat="42.86840147" lon="13.45766278">
        <ele>395.00000</ele>
        <time>2024-02-02T13:03:20Z</time>
      </trkpt>
      <trkpt lat="42.86843726" lon="13.45761434">
        <ele>394.00000</ele>
        <time>2024-02-02T13:03:21Z</time>
      </trkpt>
      <trkpt lat="42.86847657" lon="13.45756497">
        <ele>393.00000</ele>
        <time>2024-02-02T13:03:22Z</time>
      </trkpt>
      <trkpt lat="42.86851714" lon="13.45752012">
        <ele>392.00000</ele>
        <time>2024-02-02T13:03:23Z</time>
      </trkpt>
      <trkpt lat="42.86854161" lon="13.45747050">
        <ele>392.00000</ele>
        <time>2024-02-02T13:03:24Z</time>
      </trkpt>
      <trkpt lat="42.86855578" lon="13.45741116">
        <ele>392.00000</ele>
        <time>2024-02-02T13:03:25Z</time>
      </trkpt>
      <trkpt lat="42.86856802" lon="13.45735534">
        <ele>392.00000</ele>
        <time>2024-02-02T13:03:26Z</time>
      </trkpt>
      <trkpt lat="42.86859652" lon="13.45729675">
        <ele>391.00000</ele>
        <time>2024-02-02T13:03:27Z</time>
      </trkpt>
      <trkpt lat="42.86862443" lon="13.45724914">
        <ele>390.00000</ele>
        <time>2024-02-02T13:03:28Z</time>
      </trkpt>
      <trkpt lat="42.86865762" lon="13.45720119">
        <ele>388.00000</ele>
        <time>2024-02-02T13:03:29Z</time>
      </trkpt>
      <trkpt lat="42.86867639" lon="13.45714260">
        <ele>387.00000</ele>
        <time>2024-02-02T13:03:30Z</time>
      </trkpt>
      <trkpt lat="42.86870104" lon="13.45708175">
        <ele>385.00000</ele>
        <time>2024-02-02T13:03:31Z</time>
      </trkpt>
      <trkpt lat="42.86872870" lon="13.45701872">
        <ele>384.00000</ele>
        <time>2024-02-02T13:03:32Z</time>
      </trkpt>
      <trkpt lat="42.86875041" lon="13.45694722">
        <ele>383.00000</ele>
        <time>2024-02-02T13:03:33Z</time>
      </trkpt>
      <trkpt lat="42.86877958" lon="13.45686349">
        <ele>382.00000</ele>
        <time>2024-02-02T13:03:34Z</time>
      </trkpt>
      <trkpt lat="42.86879148" lon="13.45678017">
        <ele>383.00000</ele>
        <time>2024-02-02T13:03:35Z</time>
      </trkpt>
      <trkpt lat="42.86879793" lon="13.45670641">
        <ele>383.00000</ele>
        <time>2024-02-02T13:03:36Z</time>
      </trkpt>
      <trkpt lat="42.86881126" lon="13.45663173">
        <ele>383.00000</ele>
        <time>2024-02-02T13:03:37Z</time>
      </trkpt>
      <trkpt lat="42.86883129" lon="13.45654975">
        <ele>383.00000</ele>
        <time>2024-02-02T13:03:38Z</time>
      </trkpt>
      <trkpt lat="42.86884211" lon="13.45646870">
        <ele>383.00000</ele>
        <time>2024-02-02T13:03:39Z</time>
      </trkpt>
      <trkpt lat="42.86885644" lon="13.45638798">
        <ele>383.00000</ele>
        <time>2024-02-02T13:03:40Z</time>
      </trkpt>
      <trkpt lat="42.86887597" lon="13.45630844">
        <ele>381.00000</ele>
        <time>2024-02-02T13:03:41Z</time>
      </trkpt>
      <trkpt lat="42.86890463" lon="13.45623610">
        <ele>380.00000</ele>
        <time>2024-02-02T13:03:42Z</time>
      </trkpt>
      <trkpt lat="42.86894470" lon="13.45616854">
        <ele>378.00000</ele>
        <time>2024-02-02T13:03:43Z</time>
      </trkpt>
      <trkpt lat="42.86899231" lon="13.45608766">
        <ele>376.00000</ele>
        <time>2024-02-02T13:03:44Z</time>
      </trkpt>
      <trkpt lat="42.86903346" lon="13.45601926">
        <ele>375.00000</ele>
        <time>2024-02-02T13:03:45Z</time>
      </trkpt>
      <trkpt lat="42.86907772" lon="13.45595715">
        <ele>373.00000</ele>
        <time>2024-02-02T13:03:46Z</time>
      </trkpt>
      <trkpt lat="42.86912198" lon="13.45589923">
        <ele>372.00000</ele>
        <time>2024-02-02T13:03:47Z</time>
      </trkpt>
      <trkpt lat="42.86915576" lon="13.45584793">
        <ele>371.00000</ele>
        <time>2024-02-02T13:03:48Z</time>
      </trkpt>
      <trkpt lat="42.86919255" lon="13.45576864">
        <ele>370.00000</ele>
        <time>2024-02-02T13:03:49Z</time>
      </trkpt>
      <trkpt lat="42.86922424" lon="13.45565817">
        <ele>368.00000</ele>
        <time>2024-02-02T13:03:50Z</time>
      </trkpt>
      <trkpt lat="42.86923714" lon="13.45557787">
        <ele>368.00000</ele>
        <time>2024-02-02T13:03:51Z</time>
      </trkpt>
      <trkpt lat="42.86925433" lon="13.45547880">
        <ele>368.00000</ele>
        <time>2024-02-02T13:03:52Z</time>
      </trkpt>
      <trkpt lat="42.86926682" lon="13.45538970">
        <ele>367.00000</ele>
        <time>2024-02-02T13:03:53Z</time>
      </trkpt>
      <trkpt lat="42.86927553" lon="13.45532138">
        <ele>367.00000</ele>
        <time>2024-02-02T13:03:54Z</time>
      </trkpt>
      <trkpt lat="42.86928517" lon="13.45526330">
        <ele>366.00000</ele>
        <time>2024-02-02T13:03:55Z</time>
      </trkpt>
      <trkpt lat="42.86929833" lon="13.45521879">
        <ele>366.00000</ele>
        <time>2024-02-02T13:03:56Z</time>
      </trkpt>
      <trkpt lat="42.86931887" lon="13.45516825">
        <ele>364.00000</ele>
        <time>2024-02-02T13:03:57Z</time>
      </trkpt>
      <trkpt lat="42.86934116" lon="13.45511058">
        <ele>363.00000</ele>
        <time>2024-02-02T13:03:58Z</time>
      </trkpt>
      <trkpt lat="42.86936706" lon="13.45505618">
        <ele>361.00000</ele>
        <time>2024-02-02T13:03:59Z</time>
      </trkpt>
      <trkpt lat="42.86939590" lon="13.45501360">
        <ele>360.00000</ele>
        <time>2024-02-02T13:04:00Z</time>
      </trkpt>
      <trkpt lat="42.86941953" lon="13.45498980">
        <ele>359.00000</ele>
        <time>2024-02-02T13:04:01Z</time>
      </trkpt>
      <trkpt lat="42.86944351" lon="13.45497814">
        <ele>357.00000</ele>
        <time>2024-02-02T13:04:02Z</time>
      </trkpt>
      <trkpt lat="42.86946530" lon="13.45496909">
        <ele>357.00000</ele>
        <time>2024-02-02T13:04:03Z</time>
      </trkpt>
      <trkpt lat="42.86948399" lon="13.45496096">
        <ele>356.00000</ele>
        <time>2024-02-02T13:04:04Z</time>
      </trkpt>
      <trkpt lat="42.86950478" lon="13.45495535">
        <ele>356.00000</ele>
        <time>2024-02-02T13:04:05Z</time>
      </trkpt>
      <trkpt lat="42.86953370" lon="13.45494780">
        <ele>355.00000</ele>
        <time>2024-02-02T13:04:06Z</time>
      </trkpt>
      <trkpt lat="42.86957091" lon="13.45494286">
        <ele>354.00000</ele>
        <time>2024-02-02T13:04:07Z</time>
      </trkpt>
      <trkpt lat="42.86960360" lon="13.45494001">
        <ele>353.00000</ele>
        <time>2024-02-02T13:04:08Z</time>
      </trkpt>
      <trkpt lat="42.86964057" lon="13.45493481">
        <ele>352.00000</ele>
        <time>2024-02-02T13:04:09Z</time>
      </trkpt>
      <trkpt lat="42.86968423" lon="13.45491788">
        <ele>350.00000</ele>
        <time>2024-02-02T13:04:10Z</time>
      </trkpt>
      <trkpt lat="42.86971558" lon="13.45488796">
        <ele>349.00000</ele>
        <time>2024-02-02T13:04:11Z</time>
      </trkpt>
      <trkpt lat="42.86973142" lon="13.45485887">
        <ele>349.00000</ele>
        <time>2024-02-02T13:04:12Z</time>
      </trkpt>
      <trkpt lat="42.86975255" lon="13.45481495">
        <ele>348.00000</ele>
        <time>2024-02-02T13:04:13Z</time>
      </trkpt>
      <trkpt lat="42.86977325" lon="13.45477530">
        <ele>347.00000</ele>
        <time>2024-02-02T13:04:14Z</time>
      </trkpt>
      <trkpt lat="42.86977870" lon="13.45476214">
        <ele>347.00000</ele>
        <time>2024-02-02T13:04:15Z</time>
      </trkpt>
      <trkpt lat="42.86985447" lon="13.45481369">
        <ele>345.00000</ele>
        <time>2024-02-02T13:04:35Z</time>
      </trkpt>
      <trkpt lat="42.86988942" lon="13.45484152">
        <ele>344.00000</ele>
        <time>2024-02-02T13:04:36Z</time>
      </trkpt>
      <trkpt lat="42.86992697" lon="13.45486876">
        <ele>343.00000</ele>
        <time>2024-02-02T13:04:37Z</time>
      </trkpt>
      <trkpt lat="42.86996134" lon="13.45488125">
        <ele>342.00000</ele>
        <time>2024-02-02T13:04:38Z</time>
      </trkpt>
      <trkpt lat="42.87001180" lon="13.45489340">
        <ele>341.00000</ele>
        <time>2024-02-02T13:04:39Z</time>
      </trkpt>
      <trkpt lat="42.87005639" lon="13.45489424">
        <ele>341.00000</ele>
        <time>2024-02-02T13:04:40Z</time>
      </trkpt>
      <trkpt lat="42.87010492" lon="13.45488234">
        <ele>341.00000</ele>
        <time>2024-02-02T13:04:41Z</time>
      </trkpt>
      <trkpt lat="42.87014231" lon="13.45486708">
        <ele>341.00000</ele>
        <time>2024-02-02T13:04:42Z</time>
      </trkpt>
      <trkpt lat="42.87018170" lon="13.45484253">
        <ele>340.00000</ele>
        <time>2024-02-02T13:04:43Z</time>
      </trkpt>
      <trkpt lat="42.87021548" lon="13.45481947">
        <ele>340.00000</ele>
        <time>2024-02-02T13:04:44Z</time>
      </trkpt>
      <trkpt lat="42.87024825" lon="13.45479642">
        <ele>339.00000</ele>
        <time>2024-02-02T13:04:45Z</time>
      </trkpt>
      <trkpt lat="42.87028849" lon="13.45476751">
        <ele>339.00000</ele>
        <time>2024-02-02T13:04:46Z</time>
      </trkpt>
      <trkpt lat="42.87032151" lon="13.45474689">
        <ele>339.00000</ele>
        <time>2024-02-02T13:04:47Z</time>
      </trkpt>
      <trkpt lat="42.87036082" lon="13.45472166">
        <ele>338.00000</ele>
        <time>2024-02-02T13:04:48Z</time>
      </trkpt>
      <trkpt lat="42.87039485" lon="13.45469567">
        <ele>338.00000</ele>
        <time>2024-02-02T13:04:49Z</time>
      </trkpt>
      <trkpt lat="42.87043659" lon="13.45465988">
        <ele>337.00000</ele>
        <time>2024-02-02T13:04:50Z</time>
      </trkpt>
      <trkpt lat="42.87046903" lon="13.45462979">
        <ele>336.00000</ele>
        <time>2024-02-02T13:04:51Z</time>
      </trkpt>
      <trkpt lat="42.87051371" lon="13.45459794">
        <ele>335.00000</ele>
        <time>2024-02-02T13:04:52Z</time>
      </trkpt>
      <trkpt lat="42.87056341" lon="13.45457380">
        <ele>334.00000</ele>
        <time>2024-02-02T13:04:53Z</time>
      </trkpt>
      <trkpt lat="42.87061077" lon="13.45455410">
        <ele>333.00000</ele>
        <time>2024-02-02T13:04:54Z</time>
      </trkpt>
      <trkpt lat="42.87065360" lon="13.45453868">
        <ele>332.00000</ele>
        <time>2024-02-02T13:04:55Z</time>
      </trkpt>
      <trkpt lat="42.87069694" lon="13.45452401">
        <ele>331.00000</ele>
        <time>2024-02-02T13:04:56Z</time>
      </trkpt>
      <trkpt lat="42.87071781" lon="13.45451546">
        <ele>330.00000</ele>
        <time>2024-02-02T13:04:57Z</time>
      </trkpt>
      <trkpt lat="42.87074044" lon="13.45450222">
        <ele>330.00000</ele>
        <time>2024-02-02T13:04:58Z</time>
      </trkpt>
      <trkpt lat="42.87075460" lon="13.45448998">
        <ele>330.00000</ele>
        <time>2024-02-02T13:04:59Z</time>
      </trkpt>
      <trkpt lat="42.87075921" lon="13.45447515">
        <ele>329.00000</ele>
        <time>2024-02-02T13:05:00Z</time>
      </trkpt>
      <trkpt lat="42.87075921" lon="13.45445151">
        <ele>329.00000</ele>
        <time>2024-02-02T13:05:01Z</time>
      </trkpt>
      <trkpt lat="42.87075251" lon="13.45442594">
        <ele>329.00000</ele>
        <time>2024-02-02T13:05:02Z</time>
      </trkpt>
      <trkpt lat="42.87073440" lon="13.45438965">
        <ele>329.00000</ele>
        <time>2024-02-02T13:05:03Z</time>
      </trkpt>
      <trkpt lat="42.87069861" lon="13.45434674">
        <ele>329.00000</ele>
        <time>2024-02-02T13:05:04Z</time>
      </trkpt>
      <trkpt lat="42.87065167" lon="13.45428907">
        <ele>329.00000</ele>
        <time>2024-02-02T13:05:05Z</time>
      </trkpt>
      <trkpt lat="42.87060616" lon="13.45424297">
        <ele>329.00000</ele>
        <time>2024-02-02T13:05:06Z</time>
      </trkpt>
      <trkpt lat="42.87056710" lon="13.45420424">
        <ele>329.00000</ele>
        <time>2024-02-02T13:05:07Z</time>
      </trkpt>
      <trkpt lat="42.87052117" lon="13.45415303">
        <ele>329.00000</ele>
        <time>2024-02-02T13:05:08Z</time>
      </trkpt>
      <trkpt lat="42.87047624" lon="13.45410173">
        <ele>329.00000</ele>
        <time>2024-02-02T13:05:09Z</time>
      </trkpt>
      <trkpt lat="42.87042771" lon="13.45403828">
        <ele>330.00000</ele>
        <time>2024-02-02T13:05:10Z</time>
      </trkpt>
      <trkpt lat="42.87039519" lon="13.45398413">
        <ele>330.00000</ele>
        <time>2024-02-02T13:05:11Z</time>
      </trkpt>
      <trkpt lat="42.87037541" lon="13.45393342">
        <ele>330.00000</ele>
        <time>2024-02-02T13:05:12Z</time>
      </trkpt>
      <trkpt lat="42.87035931" lon="13.45386050">
        <ele>330.00000</ele>
        <time>2024-02-02T13:05:13Z</time>
      </trkpt>
      <trkpt lat="42.87035563" lon="13.45378473">
        <ele>329.00000</ele>
        <time>2024-02-02T13:05:14Z</time>
      </trkpt>
      <trkpt lat="42.87036912" lon="13.45369605">
        <ele>328.00000</ele>
        <time>2024-02-02T13:05:15Z</time>
      </trkpt>
      <trkpt lat="42.87039888" lon="13.45362656">
        <ele>327.00000</ele>
        <time>2024-02-02T13:05:16Z</time>
      </trkpt>
      <trkpt lat="42.87043291" lon="13.45357929">
        <ele>326.00000</ele>
        <time>2024-02-02T13:05:17Z</time>
      </trkpt>
      <trkpt lat="42.87048496" lon="13.45352439">
        <ele>324.00000</ele>
        <time>2024-02-02T13:05:18Z</time>
      </trkpt>
      <trkpt lat="42.87054036" lon="13.45347384">
        <ele>323.00000</ele>
        <time>2024-02-02T13:05:19Z</time>
      </trkpt>
      <trkpt lat="42.87060289" lon="13.45341333">
        <ele>322.00000</ele>
        <time>2024-02-02T13:05:20Z</time>
      </trkpt>
      <trkpt lat="42.87065151" lon="13.45336538">
        <ele>322.00000</ele>
        <time>2024-02-02T13:05:21Z</time>
      </trkpt>
      <trkpt lat="42.87069291" lon="13.45332741">
        <ele>322.00000</ele>
        <time>2024-02-02T13:05:22Z</time>
      </trkpt>
      <trkpt lat="42.87074195" lon="13.45327855">
        <ele>323.00000</ele>
        <time>2024-02-02T13:05:23Z</time>
      </trkpt>
      <trkpt lat="42.87079316" lon="13.45323186">
        <ele>323.00000</ele>
        <time>2024-02-02T13:05:24Z</time>
      </trkpt>
      <trkpt lat="42.87085418" lon="13.45317369">
        <ele>323.00000</ele>
        <time>2024-02-02T13:05:25Z</time>
      </trkpt>
      <trkpt lat="42.87090414" lon="13.45312298">
        <ele>324.00000</ele>
        <time>2024-02-02T13:05:26Z</time>
      </trkpt>
      <trkpt lat="42.87094454" lon="13.45308165">
        <ele>325.00000</ele>
        <time>2024-02-02T13:05:27Z</time>
      </trkpt>
      <trkpt lat="42.87099584" lon="13.45303120">
        <ele>326.00000</ele>
        <time>2024-02-02T13:05:28Z</time>
      </trkpt>
      <trkpt lat="42.87104730" lon="13.45298334">
        <ele>328.00000</ele>
        <time>2024-02-02T13:05:29Z</time>
      </trkpt>
      <trkpt lat="42.87110983" lon="13.45292843">
        <ele>330.00000</ele>
        <time>2024-02-02T13:05:30Z</time>
      </trkpt>
      <trkpt lat="42.87114847" lon="13.45288904">
        <ele>332.00000</ele>
        <time>2024-02-02T13:05:31Z</time>
      </trkpt>
      <trkpt lat="42.87119474" lon="13.45283925">
        <ele>335.00000</ele>
        <time>2024-02-02T13:05:32Z</time>
      </trkpt>
      <trkpt lat="42.87123556" lon="13.45278896">
        <ele>337.00000</ele>
        <time>2024-02-02T13:05:33Z</time>
      </trkpt>
      <trkpt lat="42.87126640" lon="13.45273129">
        <ele>340.00000</ele>
        <time>2024-02-02T13:05:34Z</time>
      </trkpt>
      <trkpt lat="42.87128551" lon="13.45267136">
        <ele>341.00000</ele>
        <time>2024-02-02T13:05:35Z</time>
      </trkpt>
      <trkpt lat="42.87129834" lon="13.45260238">
        <ele>343.00000</ele>
        <time>2024-02-02T13:05:36Z</time>
      </trkpt>
      <trkpt lat="42.87129658" lon="13.45256466">
        <ele>343.00000</ele>
        <time>2024-02-02T13:05:37Z</time>
      </trkpt>
      <trkpt lat="42.87128333" lon="13.45251001">
        <ele>344.00000</ele>
        <time>2024-02-02T13:05:38Z</time>
      </trkpt>
      <trkpt lat="42.87125878" lon="13.45245678">
        <ele>344.00000</ele>
        <time>2024-02-02T13:05:39Z</time>
      </trkpt>
      <trkpt lat="42.87121251" lon="13.45240599">
        <ele>344.00000</ele>
        <time>2024-02-02T13:05:40Z</time>
      </trkpt>
      <trkpt lat="42.87116800" lon="13.45237137">
        <ele>343.00000</ele>
        <time>2024-02-02T13:05:41Z</time>
      </trkpt>
      <trkpt lat="42.87112307" lon="13.45234941">
        <ele>342.00000</ele>
        <time>2024-02-02T13:05:42Z</time>
      </trkpt>
      <trkpt lat="42.87107094" lon="13.45231714">
        <ele>342.00000</ele>
        <time>2024-02-02T13:05:43Z</time>
      </trkpt>
      <trkpt lat="42.87101176" lon="13.45229350">
        <ele>341.00000</ele>
        <time>2024-02-02T13:05:44Z</time>
      </trkpt>
      <trkpt lat="42.87094336" lon="13.45228487">
        <ele>340.00000</ele>
        <time>2024-02-02T13:05:45Z</time>
      </trkpt>
      <trkpt lat="42.87088838" lon="13.45229250">
        <ele>338.00000</ele>
        <time>2024-02-02T13:05:46Z</time>
      </trkpt>
      <trkpt lat="42.87083691" lon="13.45228051">
        <ele>338.00000</ele>
        <time>2024-02-02T13:05:47Z</time>
      </trkpt>
      <trkpt lat="42.87079316" lon="13.45228085">
        <ele>337.00000</ele>
        <time>2024-02-02T13:05:48Z</time>
      </trkpt>
      <trkpt lat="42.87074111" lon="13.45228169">
        <ele>336.00000</ele>
        <time>2024-02-02T13:05:49Z</time>
      </trkpt>
      <trkpt lat="42.87067749" lon="13.45228454">
        <ele>334.00000</ele>
        <time>2024-02-02T13:05:50Z</time>
      </trkpt>
      <trkpt lat="42.87062058" lon="13.45227909">
        <ele>334.00000</ele>
        <time>2024-02-02T13:05:51Z</time>
      </trkpt>
      <trkpt lat="42.87057766" lon="13.45227607">
        <ele>333.00000</ele>
        <time>2024-02-02T13:05:52Z</time>
      </trkpt>
      <trkpt lat="42.87052662" lon="13.45223106">
        <ele>333.00000</ele>
        <time>2024-02-02T13:05:53Z</time>
      </trkpt>
      <trkpt lat="42.87049686" lon="13.45218731">
        <ele>334.00000</ele>
        <time>2024-02-02T13:05:54Z</time>
      </trkpt>
      <trkpt lat="42.87046434" lon="13.45213467">
        <ele>334.00000</ele>
        <time>2024-02-02T13:05:55Z</time>
      </trkpt>
      <trkpt lat="42.87043903" lon="13.45207390">
        <ele>334.00000</ele>
        <time>2024-02-02T13:05:56Z</time>
      </trkpt>
      <trkpt lat="42.87042092" lon="13.45200617">
        <ele>335.00000</ele>
        <time>2024-02-02T13:05:57Z</time>
      </trkpt>
      <trkpt lat="42.87040072" lon="13.45194792">
        <ele>336.00000</ele>
        <time>2024-02-02T13:05:58Z</time>
      </trkpt>
      <trkpt lat="42.87038044" lon="13.45188723">
        <ele>336.00000</ele>
        <time>2024-02-02T13:05:59Z</time>
      </trkpt>
      <trkpt lat="42.87035579" lon="13.45181448">
        <ele>336.00000</ele>
        <time>2024-02-02T13:06:00Z</time>
      </trkpt>
      <trkpt lat="42.87033710" lon="13.45175019">
        <ele>337.00000</ele>
        <time>2024-02-02T13:06:01Z</time>
      </trkpt>
      <trkpt lat="42.87031891" lon="13.45170375">
        <ele>337.00000</ele>
        <time>2024-02-02T13:06:02Z</time>
      </trkpt>
      <trkpt lat="42.87030198" lon="13.45164458">
        <ele>337.00000</ele>
        <time>2024-02-02T13:06:03Z</time>
      </trkpt>
      <trkpt lat="42.87028430" lon="13.45158733">
        <ele>338.00000</ele>
        <time>2024-02-02T13:06:04Z</time>
      </trkpt>
      <trkpt lat="42.87026921" lon="13.45152983">
        <ele>338.00000</ele>
        <time>2024-02-02T13:06:05Z</time>
      </trkpt>
      <trkpt lat="42.87025278" lon="13.45146076">
        <ele>339.00000</ele>
        <time>2024-02-02T13:06:06Z</time>
      </trkpt>
      <trkpt lat="42.87023912" lon="13.45141818">
        <ele>340.00000</ele>
        <time>2024-02-02T13:06:07Z</time>
      </trkpt>
      <trkpt lat="42.87022369" lon="13.45136705">
        <ele>340.00000</ele>
        <time>2024-02-02T13:06:08Z</time>
      </trkpt>
      <trkpt lat="42.87020768" lon="13.45131592">
        <ele>340.00000</ele>
        <time>2024-02-02T13:06:09Z</time>
      </trkpt>
      <trkpt lat="42.87018815" lon="13.45126505">
        <ele>341.00000</ele>
        <time>2024-02-02T13:06:10Z</time>
      </trkpt>
      <trkpt lat="42.87017231" lon="13.45121081">
        <ele>341.00000</ele>
        <time>2024-02-02T13:06:11Z</time>
      </trkpt>
      <trkpt lat="42.87015597" lon="13.45115784">
        <ele>341.00000</ele>
        <time>2024-02-02T13:06:12Z</time>
      </trkpt>
      <trkpt lat="42.87014096" lon="13.45110604">
        <ele>341.00000</ele>
        <time>2024-02-02T13:06:13Z</time>
      </trkpt>
      <trkpt lat="42.87011984" lon="13.45104267">
        <ele>341.00000</ele>
        <time>2024-02-02T13:06:14Z</time>
      </trkpt>
      <trkpt lat="42.87010584" lon="13.45099171">
        <ele>341.00000</ele>
        <time>2024-02-02T13:06:15Z</time>
      </trkpt>
      <trkpt lat="42.87009344" lon="13.45095089">
        <ele>341.00000</ele>
        <time>2024-02-02T13:06:16Z</time>
      </trkpt>
      <trkpt lat="42.87007902" lon="13.45089641">
        <ele>340.00000</ele>
        <time>2024-02-02T13:06:17Z</time>
      </trkpt>
      <trkpt lat="42.87006285" lon="13.45083958">
        <ele>340.00000</ele>
        <time>2024-02-02T13:06:18Z</time>
      </trkpt>
      <trkpt lat="42.87004382" lon="13.45078493">
        <ele>341.00000</ele>
        <time>2024-02-02T13:06:19Z</time>
      </trkpt>
      <trkpt lat="42.87002471" lon="13.45072676">
        <ele>341.00000</ele>
        <time>2024-02-02T13:06:20Z</time>
      </trkpt>
      <trkpt lat="42.87000719" lon="13.45066633">
        <ele>342.00000</ele>
        <time>2024-02-02T13:06:21Z</time>
      </trkpt>
      <trkpt lat="42.86999219" lon="13.45060841">
        <ele>343.00000</ele>
        <time>2024-02-02T13:06:22Z</time>
      </trkpt>
      <trkpt lat="42.86997584" lon="13.45055434">
        <ele>343.00000</ele>
        <time>2024-02-02T13:06:23Z</time>
      </trkpt>
      <trkpt lat="42.86996369" lon="13.45049994">
        <ele>344.00000</ele>
        <time>2024-02-02T13:06:24Z</time>
      </trkpt>
      <trkpt lat="42.86994583" lon="13.45044982">
        <ele>345.00000</ele>
        <time>2024-02-02T13:06:25Z</time>
      </trkpt>
      <trkpt lat="42.86992236" lon="13.45039232">
        <ele>345.00000</ele>
        <time>2024-02-02T13:06:26Z</time>
      </trkpt>
      <trkpt lat="42.86990669" lon="13.45035410">
        <ele>345.00000</ele>
        <time>2024-02-02T13:06:27Z</time>
      </trkpt>
      <trkpt lat="42.86988724" lon="13.45030783">
        <ele>346.00000</ele>
        <time>2024-02-02T13:06:28Z</time>
      </trkpt>
      <trkpt lat="42.86986386" lon="13.45026215">
        <ele>346.00000</ele>
        <time>2024-02-02T13:06:29Z</time>
      </trkpt>
      <trkpt lat="42.86983570" lon="13.45021144">
        <ele>347.00000</ele>
        <time>2024-02-02T13:06:30Z</time>
      </trkpt>
      <trkpt lat="42.86981323" lon="13.45017028">
        <ele>347.00000</ele>
        <time>2024-02-02T13:06:31Z</time>
      </trkpt>
      <trkpt lat="42.86979395" lon="13.45014246">
        <ele>347.00000</ele>
        <time>2024-02-02T13:06:32Z</time>
      </trkpt>
      <trkpt lat="42.86977057" lon="13.45010876">
        <ele>347.00000</ele>
        <time>2024-02-02T13:06:33Z</time>
      </trkpt>
      <trkpt lat="42.86974777" lon="13.45007255">
        <ele>347.00000</ele>
        <time>2024-02-02T13:06:34Z</time>
      </trkpt>
      <trkpt lat="42.86972413" lon="13.45003274">
        <ele>347.00000</ele>
        <time>2024-02-02T13:06:35Z</time>
      </trkpt>
      <trkpt lat="42.86969874" lon="13.44999200">
        <ele>347.00000</ele>
        <time>2024-02-02T13:06:36Z</time>
      </trkpt>
      <trkpt lat="42.86967149" lon="13.44995068">
        <ele>348.00000</ele>
        <time>2024-02-02T13:06:37Z</time>
      </trkpt>
      <trkpt lat="42.86964476" lon="13.44991003">
        <ele>348.00000</ele>
        <time>2024-02-02T13:06:38Z</time>
      </trkpt>
      <trkpt lat="42.86961919" lon="13.44986577">
        <ele>348.00000</ele>
        <time>2024-02-02T13:06:39Z</time>
      </trkpt>
      <trkpt lat="42.86959312" lon="13.44982084">
        <ele>348.00000</ele>
        <time>2024-02-02T13:06:40Z</time>
      </trkpt>
      <trkpt lat="42.86956236" lon="13.44977055">
        <ele>348.00000</ele>
        <time>2024-02-02T13:06:41Z</time>
      </trkpt>
      <trkpt lat="42.86954593" lon="13.44973401">
        <ele>348.00000</ele>
        <time>2024-02-02T13:06:42Z</time>
      </trkpt>
      <trkpt lat="42.86952313" lon="13.44968833">
        <ele>349.00000</ele>
        <time>2024-02-02T13:06:43Z</time>
      </trkpt>
      <trkpt lat="42.86949765" lon="13.44964759">
        <ele>349.00000</ele>
        <time>2024-02-02T13:06:44Z</time>
      </trkpt>
      <trkpt lat="42.86947284" lon="13.44960702">
        <ele>349.00000</ele>
        <time>2024-02-02T13:06:45Z</time>
      </trkpt>
      <trkpt lat="42.86944367" lon="13.44955581">
        <ele>349.00000</ele>
        <time>2024-02-02T13:06:46Z</time>
      </trkpt>
      <trkpt lat="42.86942356" lon="13.44952018">
        <ele>350.00000</ele>
        <time>2024-02-02T13:06:47Z</time>
      </trkpt>
      <trkpt lat="42.86939959" lon="13.44947341">
        <ele>350.00000</ele>
        <time>2024-02-02T13:06:48Z</time>
      </trkpt>
      <trkpt lat="42.86937586" lon="13.44942580">
        <ele>351.00000</ele>
        <time>2024-02-02T13:06:49Z</time>
      </trkpt>
      <trkpt lat="42.86934494" lon="13.44937090">
        <ele>352.00000</ele>
        <time>2024-02-02T13:06:50Z</time>
      </trkpt>
      <trkpt lat="42.86932247" lon="13.44932631">
        <ele>352.00000</ele>
        <time>2024-02-02T13:06:51Z</time>
      </trkpt>
      <trkpt lat="42.86930378" lon="13.44928893">
        <ele>353.00000</ele>
        <time>2024-02-02T13:06:52Z</time>
      </trkpt>
      <trkpt lat="42.86928148" lon="13.44924283">
        <ele>353.00000</ele>
        <time>2024-02-02T13:06:53Z</time>
      </trkpt>
      <trkpt lat="42.86925240" lon="13.44919061">
        <ele>354.00000</ele>
        <time>2024-02-02T13:06:54Z</time>
      </trkpt>
      <trkpt lat="42.86922927" lon="13.44915683">
        <ele>354.00000</ele>
        <time>2024-02-02T13:06:55Z</time>
      </trkpt>
      <trkpt lat="42.86920311" lon="13.44911249">
        <ele>354.00000</ele>
        <time>2024-02-02T13:06:56Z</time>
      </trkpt>
      <trkpt lat="42.86917721" lon="13.44906739">
        <ele>355.00000</ele>
        <time>2024-02-02T13:06:57Z</time>
      </trkpt>
      <trkpt lat="42.86915140" lon="13.44902431">
        <ele>355.00000</ele>
        <time>2024-02-02T13:06:58Z</time>
      </trkpt>
      <trkpt lat="42.86912642" lon="13.44897737">
        <ele>355.00000</ele>
        <time>2024-02-02T13:06:59Z</time>
      </trkpt>
      <trkpt lat="42.86910211" lon="13.44892901">
        <ele>355.00000</ele>
        <time>2024-02-02T13:07:00Z</time>
      </trkpt>
      <trkpt lat="42.86907990" lon="13.44888316">
        <ele>356.00000</ele>
        <time>2024-02-02T13:07:01Z</time>
      </trkpt>
      <trkpt lat="42.86905668" lon="13.44883572">
        <ele>356.00000</ele>
        <time>2024-02-02T13:07:02Z</time>
      </trkpt>
      <trkpt lat="42.86903061" lon="13.44878794">
        <ele>356.00000</ele>
        <time>2024-02-02T13:07:03Z</time>
      </trkpt>
      <trkpt lat="42.86900404" lon="13.44874561">
        <ele>356.00000</ele>
        <time>2024-02-02T13:07:04Z</time>
      </trkpt>
      <trkpt lat="42.86897404" lon="13.44870647">
        <ele>356.00000</ele>
        <time>2024-02-02T13:07:05Z</time>
      </trkpt>
      <trkpt lat="42.86894344" lon="13.44866917">
        <ele>356.00000</ele>
        <time>2024-02-02T13:07:06Z</time>
      </trkpt>
      <trkpt lat="42.86891226" lon="13.44863514">
        <ele>356.00000</ele>
        <time>2024-02-02T13:07:07Z</time>
      </trkpt>
      <trkpt lat="42.86887404" lon="13.44860848">
        <ele>355.00000</ele>
        <time>2024-02-02T13:07:08Z</time>
      </trkpt>
      <trkpt lat="42.86883381" lon="13.44858711">
        <ele>355.00000</ele>
        <time>2024-02-02T13:07:09Z</time>
      </trkpt>
      <trkpt lat="42.86879030" lon="13.44857077">
        <ele>355.00000</ele>
        <time>2024-02-02T13:07:10Z</time>
      </trkpt>
      <trkpt lat="42.86873742" lon="13.44855182">
        <ele>354.00000</ele>
        <time>2024-02-02T13:07:11Z</time>
      </trkpt>
      <trkpt lat="42.86869936" lon="13.44853959">
        <ele>354.00000</ele>
        <time>2024-02-02T13:07:12Z</time>
      </trkpt>
      <trkpt lat="42.86865326" lon="13.44852047">
        <ele>353.00000</ele>
        <time>2024-02-02T13:07:13Z</time>
      </trkpt>
      <trkpt lat="42.86860867" lon="13.44849474">
        <ele>353.00000</ele>
        <time>2024-02-02T13:07:14Z</time>
      </trkpt>
      <trkpt lat="42.86856525" lon="13.44846180">
        <ele>352.00000</ele>
        <time>2024-02-02T13:07:15Z</time>
      </trkpt>
      <trkpt lat="42.86852225" lon="13.44840439">
        <ele>352.00000</ele>
        <time>2024-02-02T13:07:16Z</time>
      </trkpt>
      <trkpt lat="42.86850197" lon="13.44835259">
        <ele>352.00000</ele>
        <time>2024-02-02T13:07:17Z</time>
      </trkpt>
      <trkpt lat="42.86848420" lon="13.44828193">
        <ele>353.00000</ele>
        <time>2024-02-02T13:07:18Z</time>
      </trkpt>
      <trkpt lat="42.86846861" lon="13.44820758">
        <ele>354.00000</ele>
        <time>2024-02-02T13:07:19Z</time>
      </trkpt>
      <trkpt lat="42.86845268" lon="13.44813348">
        <ele>356.00000</ele>
        <time>2024-02-02T13:07:20Z</time>
      </trkpt>
      <trkpt lat="42.86843458" lon="13.44805796">
        <ele>357.00000</ele>
        <time>2024-02-02T13:07:21Z</time>
      </trkpt>
      <trkpt lat="42.86841874" lon="13.44797783">
        <ele>358.00000</ele>
        <time>2024-02-02T13:07:22Z</time>
      </trkpt>
      <trkpt lat="42.86840499" lon="13.44789577">
        <ele>359.00000</ele>
        <time>2024-02-02T13:07:23Z</time>
      </trkpt>
      <trkpt lat="42.86838873" lon="13.44781463">
        <ele>361.00000</ele>
        <time>2024-02-02T13:07:24Z</time>
      </trkpt>
      <trkpt lat="42.86837087" lon="13.44773149">
        <ele>361.00000</ele>
        <time>2024-02-02T13:07:25Z</time>
      </trkpt>
      <trkpt lat="42.86835520" lon="13.44764356">
        <ele>361.00000</ele>
        <time>2024-02-02T13:07:26Z</time>
      </trkpt>
      <trkpt lat="42.86834397" lon="13.44755195">
        <ele>362.00000</ele>
        <time>2024-02-02T13:07:27Z</time>
      </trkpt>
      <trkpt lat="42.86832855" lon="13.44746234">
        <ele>361.00000</ele>
        <time>2024-02-02T13:07:28Z</time>
      </trkpt>
      <trkpt lat="42.86831220" lon="13.44737316">
        <ele>360.00000</ele>
        <time>2024-02-02T13:07:29Z</time>
      </trkpt>
      <trkpt lat="42.86829837" lon="13.44728004">
        <ele>359.00000</ele>
        <time>2024-02-02T13:07:30Z</time>
      </trkpt>
      <trkpt lat="42.86828689" lon="13.44718515">
        <ele>357.00000</ele>
        <time>2024-02-02T13:07:31Z</time>
      </trkpt>
      <trkpt lat="42.86827809" lon="13.44708524">
        <ele>356.00000</ele>
        <time>2024-02-02T13:07:32Z</time>
      </trkpt>
      <trkpt lat="42.86827750" lon="13.44698189">
        <ele>356.00000</ele>
        <time>2024-02-02T13:07:33Z</time>
      </trkpt>
      <trkpt lat="42.86827809" lon="13.44688030">
        <ele>356.00000</ele>
        <time>2024-02-02T13:07:34Z</time>
      </trkpt>
      <trkpt lat="42.86828362" lon="13.44677855">
        <ele>356.00000</ele>
        <time>2024-02-02T13:07:35Z</time>
      </trkpt>
      <trkpt lat="42.86828957" lon="13.44667796">
        <ele>357.00000</ele>
        <time>2024-02-02T13:07:36Z</time>
      </trkpt>
      <trkpt lat="42.86829862" lon="13.44657872">
        <ele>357.00000</ele>
        <time>2024-02-02T13:07:37Z</time>
      </trkpt>
      <trkpt lat="42.86831002" lon="13.44648501">
        <ele>356.00000</ele>
        <time>2024-02-02T13:07:38Z</time>
      </trkpt>
      <trkpt lat="42.86832829" lon="13.44639524">
        <ele>356.00000</ele>
        <time>2024-02-02T13:07:39Z</time>
      </trkpt>
      <trkpt lat="42.86835612" lon="13.44628594">
        <ele>357.00000</ele>
        <time>2024-02-02T13:07:40Z</time>
      </trkpt>
      <trkpt lat="42.86837574" lon="13.44619349">
        <ele>357.00000</ele>
        <time>2024-02-02T13:07:41Z</time>
      </trkpt>
      <trkpt lat="42.86839996" lon="13.44610523">
        <ele>357.00000</ele>
        <time>2024-02-02T13:07:42Z</time>
      </trkpt>
      <trkpt lat="42.86842368" lon="13.44603608">
        <ele>356.00000</ele>
        <time>2024-02-02T13:07:43Z</time>
      </trkpt>
      <trkpt lat="42.86845897" lon="13.44593424">
        <ele>356.00000</ele>
        <time>2024-02-02T13:07:44Z</time>
      </trkpt>
      <trkpt lat="42.86849518" lon="13.44584296">
        <ele>356.00000</ele>
        <time>2024-02-02T13:07:45Z</time>
      </trkpt>
      <trkpt lat="42.86852686" lon="13.44575227">
        <ele>355.00000</ele>
        <time>2024-02-02T13:07:46Z</time>
      </trkpt>
      <trkpt lat="42.86856114" lon="13.44566183">
        <ele>354.00000</ele>
        <time>2024-02-02T13:07:47Z</time>
      </trkpt>
      <trkpt lat="42.86858285" lon="13.44559008">
        <ele>353.00000</ele>
        <time>2024-02-02T13:07:48Z</time>
      </trkpt>
      <trkpt lat="42.86861202" lon="13.44549922">
        <ele>352.00000</ele>
        <time>2024-02-02T13:07:49Z</time>
      </trkpt>
      <trkpt lat="42.86865234" lon="13.44538916">
        <ele>352.00000</ele>
        <time>2024-02-02T13:07:50Z</time>
      </trkpt>
      <trkpt lat="42.86869358" lon="13.44528540">
        <ele>352.00000</ele>
        <time>2024-02-02T13:07:51Z</time>
      </trkpt>
      <trkpt lat="42.86872174" lon="13.44520233">
        <ele>352.00000</ele>
        <time>2024-02-02T13:07:52Z</time>
      </trkpt>
      <trkpt lat="42.86874881" lon="13.44510259">
        <ele>352.00000</ele>
        <time>2024-02-02T13:07:53Z</time>
      </trkpt>
      <trkpt lat="42.86877731" lon="13.44500267">
        <ele>352.00000</ele>
        <time>2024-02-02T13:07:54Z</time>
      </trkpt>
      <trkpt lat="42.86880849" lon="13.44490100">
        <ele>352.00000</ele>
        <time>2024-02-02T13:07:55Z</time>
      </trkpt>
      <trkpt lat="42.86883448" lon="13.44480218">
        <ele>351.00000</ele>
        <time>2024-02-02T13:07:56Z</time>
      </trkpt>
      <trkpt lat="42.86885719" lon="13.44470076">
        <ele>351.00000</ele>
        <time>2024-02-02T13:07:57Z</time>
      </trkpt>
      <trkpt lat="42.86888670" lon="13.44459976">
        <ele>351.00000</ele>
        <time>2024-02-02T13:07:58Z</time>
      </trkpt>
      <trkpt lat="42.86891620" lon="13.44450261">
        <ele>352.00000</ele>
        <time>2024-02-02T13:07:59Z</time>
      </trkpt>
      <trkpt lat="42.86894470" lon="13.44441058">
        <ele>352.00000</ele>
        <time>2024-02-02T13:08:00Z</time>
      </trkpt>
      <trkpt lat="42.86897295" lon="13.44432240">
        <ele>353.00000</ele>
        <time>2024-02-02T13:08:01Z</time>
      </trkpt>
      <trkpt lat="42.86900756" lon="13.44423732">
        <ele>354.00000</ele>
        <time>2024-02-02T13:08:02Z</time>
      </trkpt>
      <trkpt lat="42.86903112" lon="13.44415669">
        <ele>355.00000</ele>
        <time>2024-02-02T13:08:03Z</time>
      </trkpt>
      <trkpt lat="42.86905065" lon="13.44407195">
        <ele>356.00000</ele>
        <time>2024-02-02T13:08:04Z</time>
      </trkpt>
      <trkpt lat="42.86907722" lon="13.44396793">
        <ele>357.00000</ele>
        <time>2024-02-02T13:08:05Z</time>
      </trkpt>
      <trkpt lat="42.86908946" lon="13.44388721">
        <ele>358.00000</ele>
        <time>2024-02-02T13:08:06Z</time>
      </trkpt>
      <trkpt lat="42.86910194" lon="13.44380716">
        <ele>358.00000</ele>
        <time>2024-02-02T13:08:07Z</time>
      </trkpt>
      <trkpt lat="42.86910882" lon="13.44374262">
        <ele>358.00000</ele>
        <time>2024-02-02T13:08:08Z</time>
      </trkpt>
      <trkpt lat="42.86911234" lon="13.44366316">
        <ele>358.00000</ele>
        <time>2024-02-02T13:08:09Z</time>
      </trkpt>
      <trkpt lat="42.86912013" lon="13.44357230">
        <ele>358.00000</ele>
        <time>2024-02-02T13:08:10Z</time>
      </trkpt>
      <trkpt lat="42.86912281" lon="13.44349502">
        <ele>358.00000</ele>
        <time>2024-02-02T13:08:11Z</time>
      </trkpt>
      <trkpt lat="42.86912131" lon="13.44341514">
        <ele>358.00000</ele>
        <time>2024-02-02T13:08:12Z</time>
      </trkpt>
      <trkpt lat="42.86912298" lon="13.44335085">
        <ele>358.00000</ele>
        <time>2024-02-02T13:08:13Z</time>
      </trkpt>
      <trkpt lat="42.86912047" lon="13.44327944">
        <ele>359.00000</ele>
        <time>2024-02-02T13:08:14Z</time>
      </trkpt>
      <trkpt lat="42.86911259" lon="13.44319629">
        <ele>359.00000</ele>
        <time>2024-02-02T13:08:15Z</time>
      </trkpt>
      <trkpt lat="42.86909968" lon="13.44312194">
        <ele>359.00000</ele>
        <time>2024-02-02T13:08:16Z</time>
      </trkpt>
      <trkpt lat="42.86908803" lon="13.44304475">
        <ele>360.00000</ele>
        <time>2024-02-02T13:08:17Z</time>
      </trkpt>
      <trkpt lat="42.86907638" lon="13.44298230">
        <ele>360.00000</ele>
        <time>2024-02-02T13:08:18Z</time>
      </trkpt>
      <trkpt lat="42.86906263" lon="13.44290493">
        <ele>361.00000</ele>
        <time>2024-02-02T13:08:19Z</time>
      </trkpt>
      <trkpt lat="42.86904218" lon="13.44281123">
        <ele>361.00000</ele>
        <time>2024-02-02T13:08:20Z</time>
      </trkpt>
      <trkpt lat="42.86902324" lon="13.44273445">
        <ele>361.00000</ele>
        <time>2024-02-02T13:08:21Z</time>
      </trkpt>
      <trkpt lat="42.86900916" lon="13.44266982">
        <ele>361.00000</ele>
        <time>2024-02-02T13:08:22Z</time>
      </trkpt>
      <trkpt lat="42.86899432" lon="13.44259439">
        <ele>362.00000</ele>
        <time>2024-02-02T13:08:23Z</time>
      </trkpt>
      <trkpt lat="42.86897747" lon="13.44251576">
        <ele>362.00000</ele>
        <time>2024-02-02T13:08:24Z</time>
      </trkpt>
      <trkpt lat="42.86895870" lon="13.44244158">
        <ele>362.00000</ele>
        <time>2024-02-02T13:08:25Z</time>
      </trkpt>
      <trkpt lat="42.86893858" lon="13.44236858">
        <ele>362.00000</ele>
        <time>2024-02-02T13:08:26Z</time>
      </trkpt>
      <trkpt lat="42.86892224" lon="13.44229255">
        <ele>362.00000</ele>
        <time>2024-02-02T13:08:27Z</time>
      </trkpt>
      <trkpt lat="42.86889374" lon="13.44222164">
        <ele>362.00000</ele>
        <time>2024-02-02T13:08:28Z</time>
      </trkpt>
      <trkpt lat="42.86885879" lon="13.44214847">
        <ele>362.00000</ele>
        <time>2024-02-02T13:08:29Z</time>
      </trkpt>
      <trkpt lat="42.86882283" lon="13.44205459">
        <ele>362.00000</ele>
        <time>2024-02-02T13:08:30Z</time>
      </trkpt>
      <trkpt lat="42.86880346" lon="13.44197203">
        <ele>362.00000</ele>
        <time>2024-02-02T13:08:31Z</time>
      </trkpt>
      <trkpt lat="42.86879047" lon="13.44190481">
        <ele>363.00000</ele>
        <time>2024-02-02T13:08:32Z</time>
      </trkpt>
      <trkpt lat="42.86878176" lon="13.44180858">
        <ele>363.00000</ele>
        <time>2024-02-02T13:08:33Z</time>
      </trkpt>
      <trkpt lat="42.86875837" lon="13.44172049">
        <ele>363.00000</ele>
        <time>2024-02-02T13:08:34Z</time>
      </trkpt>
      <trkpt lat="42.86873591" lon="13.44163206">
        <ele>363.00000</ele>
        <time>2024-02-02T13:08:35Z</time>
      </trkpt>
      <trkpt lat="42.86871260" lon="13.44153181">
        <ele>363.00000</ele>
        <time>2024-02-02T13:08:36Z</time>
      </trkpt>
      <trkpt lat="42.86869567" lon="13.44146182">
        <ele>363.00000</ele>
        <time>2024-02-02T13:08:37Z</time>
      </trkpt>
      <trkpt lat="42.86867346" lon="13.44137188">
        <ele>363.00000</ele>
        <time>2024-02-02T13:08:38Z</time>
      </trkpt>
      <trkpt lat="42.86865184" lon="13.44128010">
        <ele>363.00000</ele>
        <time>2024-02-02T13:08:39Z</time>
      </trkpt>
      <trkpt lat="42.86862141" lon="13.44118673">
        <ele>363.00000</ele>
        <time>2024-02-02T13:08:40Z</time>
      </trkpt>
      <trkpt lat="42.86858780" lon="13.44106963">
        <ele>363.00000</ele>
        <time>2024-02-02T13:08:41Z</time>
      </trkpt>
      <trkpt lat="42.86856307" lon="13.44098967">
        <ele>362.00000</ele>
        <time>2024-02-02T13:08:42Z</time>
      </trkpt>
      <trkpt lat="42.86853223" lon="13.44089018">
        <ele>362.00000</ele>
        <time>2024-02-02T13:08:43Z</time>
      </trkpt>
      <trkpt lat="42.86850079" lon="13.44078674">
        <ele>361.00000</ele>
        <time>2024-02-02T13:08:44Z</time>
      </trkpt>
      <trkpt lat="42.86847087" lon="13.44068239">
        <ele>359.00000</ele>
        <time>2024-02-02T13:08:45Z</time>
      </trkpt>
      <trkpt lat="42.86844707" lon="13.44057099">
        <ele>358.00000</ele>
        <time>2024-02-02T13:08:46Z</time>
      </trkpt>
      <trkpt lat="42.86842150" lon="13.44045516">
        <ele>358.00000</ele>
        <time>2024-02-02T13:08:47Z</time>
      </trkpt>
      <trkpt lat="42.86839166" lon="13.44033773">
        <ele>357.00000</ele>
        <time>2024-02-02T13:08:48Z</time>
      </trkpt>
      <trkpt lat="42.86835671" lon="13.44022457">
        <ele>356.00000</ele>
        <time>2024-02-02T13:08:49Z</time>
      </trkpt>
      <trkpt lat="42.86831815" lon="13.44011133">
        <ele>355.00000</ele>
        <time>2024-02-02T13:08:50Z</time>
      </trkpt>
      <trkpt lat="42.86828521" lon="13.43999491">
        <ele>355.00000</ele>
        <time>2024-02-02T13:08:51Z</time>
      </trkpt>
      <trkpt lat="42.86825822" lon="13.43987823">
        <ele>355.00000</ele>
        <time>2024-02-02T13:08:52Z</time>
      </trkpt>
      <trkpt lat="42.86823056" lon="13.43976516">
        <ele>355.00000</ele>
        <time>2024-02-02T13:08:53Z</time>
      </trkpt>
      <trkpt lat="42.86820097" lon="13.43965267">
        <ele>355.00000</ele>
        <time>2024-02-02T13:08:54Z</time>
      </trkpt>
      <trkpt lat="42.86817465" lon="13.43954170">
        <ele>355.00000</ele>
        <time>2024-02-02T13:08:55Z</time>
      </trkpt>
      <trkpt lat="42.86814381" lon="13.43941295">
        <ele>355.00000</ele>
        <time>2024-02-02T13:08:56Z</time>
      </trkpt>
      <trkpt lat="42.86812294" lon="13.43933902">
        <ele>355.00000</ele>
        <time>2024-02-02T13:08:57Z</time>
      </trkpt>
      <trkpt lat="42.86809377" lon="13.43926166">
        <ele>354.00000</ele>
        <time>2024-02-02T13:08:58Z</time>
      </trkpt>
      <trkpt lat="42.86807139" lon="13.43918790">
        <ele>354.00000</ele>
        <time>2024-02-02T13:08:59Z</time>
      </trkpt>
      <trkpt lat="42.86805739" lon="13.43911489">
        <ele>354.00000</ele>
        <time>2024-02-02T13:09:00Z</time>
      </trkpt>
      <trkpt lat="42.86804381" lon="13.43904918">
        <ele>354.00000</ele>
        <time>2024-02-02T13:09:01Z</time>
      </trkpt>
      <trkpt lat="42.86801657" lon="13.43899754">
        <ele>353.00000</ele>
        <time>2024-02-02T13:09:02Z</time>
      </trkpt>
      <trkpt lat="42.86797676" lon="13.43896376">
        <ele>353.00000</ele>
        <time>2024-02-02T13:09:03Z</time>
      </trkpt>
      <trkpt lat="42.86793971" lon="13.43895094">
        <ele>352.00000</ele>
        <time>2024-02-02T13:09:04Z</time>
      </trkpt>
      <trkpt lat="42.86790509" lon="13.43895873">
        <ele>352.00000</ele>
        <time>2024-02-02T13:09:05Z</time>
      </trkpt>
      <trkpt lat="42.86786025" lon="13.43898262">
        <ele>351.00000</ele>
        <time>2024-02-02T13:09:06Z</time>
      </trkpt>
      <trkpt lat="42.86782463" lon="13.43899981">
        <ele>351.00000</ele>
        <time>2024-02-02T13:09:07Z</time>
      </trkpt>
      <trkpt lat="42.86777425" lon="13.43901045">
        <ele>350.00000</ele>
        <time>2024-02-02T13:09:08Z</time>
      </trkpt>
      <trkpt lat="42.86773888" lon="13.43901908">
        <ele>350.00000</ele>
        <time>2024-02-02T13:09:09Z</time>
      </trkpt>
      <trkpt lat="42.86768758" lon="13.43903174">
        <ele>351.00000</ele>
        <time>2024-02-02T13:09:10Z</time>
      </trkpt>
      <trkpt lat="42.86764877" lon="13.43903644">
        <ele>352.00000</ele>
        <time>2024-02-02T13:09:11Z</time>
      </trkpt>
      <trkpt lat="42.86760762" lon="13.43903426">
        <ele>352.00000</ele>
        <time>2024-02-02T13:09:12Z</time>
      </trkpt>
      <trkpt lat="42.86757677" lon="13.43902671">
        <ele>353.00000</ele>
        <time>2024-02-02T13:09:13Z</time>
      </trkpt>
      <trkpt lat="42.86754568" lon="13.43900894">
        <ele>353.00000</ele>
        <time>2024-02-02T13:09:14Z</time>
      </trkpt>
      <trkpt lat="42.86751709" lon="13.43898723">
        <ele>353.00000</ele>
        <time>2024-02-02T13:09:15Z</time>
      </trkpt>
      <trkpt lat="42.86749170" lon="13.43896603">
        <ele>353.00000</ele>
        <time>2024-02-02T13:09:16Z</time>
      </trkpt>
      <trkpt lat="42.86745943" lon="13.43894951">
        <ele>354.00000</ele>
        <time>2024-02-02T13:09:17Z</time>
      </trkpt>
      <trkpt lat="42.86743830" lon="13.43894298">
        <ele>354.00000</ele>
        <time>2024-02-02T13:09:18Z</time>
      </trkpt>
      <trkpt lat="42.86741534" lon="13.43893175">
        <ele>354.00000</ele>
        <time>2024-02-02T13:09:19Z</time>
      </trkpt>
      <trkpt lat="42.86739111" lon="13.43891481">
        <ele>355.00000</ele>
        <time>2024-02-02T13:09:20Z</time>
      </trkpt>
      <trkpt lat="42.86736370" lon="13.43888925">
        <ele>355.00000</ele>
        <time>2024-02-02T13:09:21Z</time>
      </trkpt>
      <trkpt lat="42.86734468" lon="13.43886896">
        <ele>355.00000</ele>
        <time>2024-02-02T13:09:22Z</time>
      </trkpt>
      <trkpt lat="42.86732389" lon="13.43884063">
        <ele>355.00000</ele>
        <time>2024-02-02T13:09:23Z</time>
      </trkpt>
      <trkpt lat="42.86730453" lon="13.43880778">
        <ele>355.00000</ele>
        <time>2024-02-02T13:09:24Z</time>
      </trkpt>
      <trkpt lat="42.86729170" lon="13.43877349">
        <ele>355.00000</ele>
        <time>2024-02-02T13:09:25Z</time>
      </trkpt>
      <trkpt lat="42.86727863" lon="13.43873083">
        <ele>355.00000</ele>
        <time>2024-02-02T13:09:26Z</time>
      </trkpt>
      <trkpt lat="42.86726740" lon="13.43870116">
        <ele>355.00000</ele>
        <time>2024-02-02T13:09:27Z</time>
      </trkpt>
      <trkpt lat="42.86725893" lon="13.43868121">
        <ele>355.00000</ele>
        <time>2024-02-02T13:09:28Z</time>
      </trkpt>
      <trkpt lat="42.86724736" lon="13.43865472">
        <ele>355.00000</ele>
        <time>2024-02-02T13:09:29Z</time>
      </trkpt>
      <trkpt lat="42.86723295" lon="13.43862748">
        <ele>355.00000</ele>
        <time>2024-02-02T13:09:30Z</time>
      </trkpt>
      <trkpt lat="42.86721593" lon="13.43859203">
        <ele>355.00000</ele>
        <time>2024-02-02T13:09:31Z</time>
      </trkpt>
      <trkpt lat="42.86719573" lon="13.43856747">
        <ele>355.00000</ele>
        <time>2024-02-02T13:09:32Z</time>
      </trkpt>
      <trkpt lat="42.86717645" lon="13.43854819">
        <ele>355.00000</ele>
        <time>2024-02-02T13:09:33Z</time>
      </trkpt>
      <trkpt lat="42.86715357" lon="13.43852438">
        <ele>356.00000</ele>
        <time>2024-02-02T13:09:34Z</time>
      </trkpt>
      <trkpt lat="42.86712340" lon="13.43850368">
        <ele>356.00000</ele>
        <time>2024-02-02T13:09:35Z</time>
      </trkpt>
      <trkpt lat="42.86709381" lon="13.43848943">
        <ele>357.00000</ele>
        <time>2024-02-02T13:09:36Z</time>
      </trkpt>
      <trkpt lat="42.86707051" lon="13.43847728">
        <ele>357.00000</ele>
        <time>2024-02-02T13:09:37Z</time>
      </trkpt>
      <trkpt lat="42.86705215" lon="13.43846722">
        <ele>357.00000</ele>
        <time>2024-02-02T13:09:38Z</time>
      </trkpt>
      <trkpt lat="42.86703446" lon="13.43845222">
        <ele>357.00000</ele>
        <time>2024-02-02T13:09:39Z</time>
      </trkpt>
      <trkpt lat="42.86701200" lon="13.43843839">
        <ele>357.00000</ele>
        <time>2024-02-02T13:09:40Z</time>
      </trkpt>
      <trkpt lat="42.86699306" lon="13.43843026">
        <ele>358.00000</ele>
        <time>2024-02-02T13:09:41Z</time>
      </trkpt>
      <trkpt lat="42.86697177" lon="13.43843026">
        <ele>358.00000</ele>
        <time>2024-02-02T13:09:42Z</time>
      </trkpt>
      <trkpt lat="42.86695324" lon="13.43843294">
        <ele>358.00000</ele>
        <time>2024-02-02T13:09:43Z</time>
      </trkpt>
      <trkpt lat="42.86693036" lon="13.43844392">
        <ele>359.00000</ele>
        <time>2024-02-02T13:09:44Z</time>
      </trkpt>
      <trkpt lat="42.86689935" lon="13.43846345">
        <ele>359.00000</ele>
        <time>2024-02-02T13:09:45Z</time>
      </trkpt>
      <trkpt lat="42.86688359" lon="13.43848097">
        <ele>360.00000</ele>
        <time>2024-02-02T13:09:46Z</time>
      </trkpt>
      <trkpt lat="42.86686691" lon="13.43850150">
        <ele>360.00000</ele>
        <time>2024-02-02T13:09:47Z</time>
      </trkpt>
      <trkpt lat="42.86685383" lon="13.43852858">
        <ele>361.00000</ele>
        <time>2024-02-02T13:09:48Z</time>
      </trkpt>
      <trkpt lat="42.86684545" lon="13.43855347">
        <ele>361.00000</ele>
        <time>2024-02-02T13:09:49Z</time>
      </trkpt>
      <trkpt lat="42.86683347" lon="13.43858289">
        <ele>361.00000</ele>
        <time>2024-02-02T13:09:50Z</time>
      </trkpt>
      <trkpt lat="42.86682341" lon="13.43860711">
        <ele>362.00000</ele>
        <time>2024-02-02T13:09:51Z</time>
      </trkpt>
      <trkpt lat="42.86681402" lon="13.43862354">
        <ele>362.00000</ele>
        <time>2024-02-02T13:09:52Z</time>
      </trkpt>
      <trkpt lat="42.86680438" lon="13.43863972">
        <ele>362.00000</ele>
        <time>2024-02-02T13:09:53Z</time>
      </trkpt>
      <trkpt lat="42.86679457" lon="13.43864986">
        <ele>363.00000</ele>
        <time>2024-02-02T13:09:54Z</time>
      </trkpt>
      <trkpt lat="42.86678074" lon="13.43866595">
        <ele>363.00000</ele>
        <time>2024-02-02T13:09:55Z</time>
      </trkpt>
      <trkpt lat="42.86676490" lon="13.43869261">
        <ele>363.00000</ele>
        <time>2024-02-02T13:09:56Z</time>
      </trkpt>
      <trkpt lat="42.86675023" lon="13.43871247">
        <ele>364.00000</ele>
        <time>2024-02-02T13:09:57Z</time>
      </trkpt>
      <trkpt lat="42.86673146" lon="13.43874148">
        <ele>364.00000</ele>
        <time>2024-02-02T13:09:58Z</time>
      </trkpt>
      <trkpt lat="42.86671989" lon="13.43876251">
        <ele>365.00000</ele>
        <time>2024-02-02T13:09:59Z</time>
      </trkpt>
      <trkpt lat="42.86671210" lon="13.43878121">
        <ele>365.00000</ele>
        <time>2024-02-02T13:10:00Z</time>
      </trkpt>
      <trkpt lat="42.86670170" lon="13.43880434">
        <ele>365.00000</ele>
        <time>2024-02-02T13:10:01Z</time>
      </trkpt>
      <trkpt lat="42.86669944" lon="13.43881775">
        <ele>365.00000</ele>
        <time>2024-02-02T13:10:02Z</time>
      </trkpt>
      <trkpt lat="42.86669542" lon="13.43883468">
        <ele>366.00000</ele>
        <time>2024-02-02T13:10:03Z</time>
      </trkpt>
      <trkpt lat="42.86669005" lon="13.43885061">
        <ele>366.00000</ele>
        <time>2024-02-02T13:10:04Z</time>
      </trkpt>
      <trkpt lat="42.86668385" lon="13.43887223">
        <ele>366.00000</ele>
        <time>2024-02-02T13:10:05Z</time>
      </trkpt>
      <trkpt lat="42.86668016" lon="13.43889126">
        <ele>366.00000</ele>
        <time>2024-02-02T13:10:06Z</time>
      </trkpt>
      <trkpt lat="42.86667530" lon="13.43890249">
        <ele>366.00000</ele>
        <time>2024-02-02T13:10:07Z</time>
      </trkpt>
      <trkpt lat="42.86666734" lon="13.43891523">
        <ele>367.00000</ele>
        <time>2024-02-02T13:10:08Z</time>
      </trkpt>
      <trkpt lat="42.86665904" lon="13.43893317">
        <ele>367.00000</ele>
        <time>2024-02-02T13:10:09Z</time>
      </trkpt>
      <trkpt lat="42.86665007" lon="13.43895429">
        <ele>367.00000</ele>
        <time>2024-02-02T13:10:10Z</time>
      </trkpt>
      <trkpt lat="42.86664110" lon="13.43898011">
        <ele>367.00000</ele>
        <time>2024-02-02T13:10:11Z</time>
      </trkpt>
      <trkpt lat="42.86663549" lon="13.43899779">
        <ele>368.00000</ele>
        <time>2024-02-02T13:10:12Z</time>
      </trkpt>
      <trkpt lat="42.86662710" lon="13.43901892">
        <ele>368.00000</ele>
        <time>2024-02-02T13:10:13Z</time>
      </trkpt>
      <trkpt lat="42.86661570" lon="13.43903845">
        <ele>368.00000</ele>
        <time>2024-02-02T13:10:14Z</time>
      </trkpt>
      <trkpt lat="42.86660280" lon="13.43905856">
        <ele>369.00000</ele>
        <time>2024-02-02T13:10:15Z</time>
      </trkpt>
      <trkpt lat="42.86658871" lon="13.43908312">
        <ele>369.00000</ele>
        <time>2024-02-02T13:10:16Z</time>
      </trkpt>
      <trkpt lat="42.86657438" lon="13.43910567">
        <ele>370.00000</ele>
        <time>2024-02-02T13:10:17Z</time>
      </trkpt>
      <trkpt lat="42.86656089" lon="13.43912629">
        <ele>370.00000</ele>
        <time>2024-02-02T13:10:18Z</time>
      </trkpt>
      <trkpt lat="42.86654454" lon="13.43914230">
        <ele>371.00000</ele>
        <time>2024-02-02T13:10:19Z</time>
      </trkpt>
      <trkpt lat="42.86652451" lon="13.43915755">
        <ele>371.00000</ele>
        <time>2024-02-02T13:10:20Z</time>
      </trkpt>
      <trkpt lat="42.86649836" lon="13.43917004">
        <ele>372.00000</ele>
        <time>2024-02-02T13:10:21Z</time>
      </trkpt>
      <trkpt lat="42.86648377" lon="13.43917490">
        <ele>372.00000</ele>
        <time>2024-02-02T13:10:22Z</time>
      </trkpt>
      <trkpt lat="42.86646634" lon="13.43918664">
        <ele>373.00000</ele>
        <time>2024-02-02T13:10:23Z</time>
      </trkpt>
      <trkpt lat="42.86644597" lon="13.43919980">
        <ele>373.00000</ele>
        <time>2024-02-02T13:10:24Z</time>
      </trkpt>
      <trkpt lat="42.86643046" lon="13.43921019">
        <ele>374.00000</ele>
        <time>2024-02-02T13:10:25Z</time>
      </trkpt>
      <trkpt lat="42.86641328" lon="13.43922059">
        <ele>374.00000</ele>
        <time>2024-02-02T13:10:26Z</time>
      </trkpt>
      <trkpt lat="42.86640197" lon="13.43923173">
        <ele>374.00000</ele>
        <time>2024-02-02T13:10:27Z</time>
      </trkpt>
      <trkpt lat="42.86638663" lon="13.43924095">
        <ele>375.00000</ele>
        <time>2024-02-02T13:10:28Z</time>
      </trkpt>
      <trkpt lat="42.86637078" lon="13.43924934">
        <ele>376.00000</ele>
        <time>2024-02-02T13:10:29Z</time>
      </trkpt>
      <trkpt lat="42.86635444" lon="13.43925747">
        <ele>376.00000</ele>
        <time>2024-02-02T13:10:30Z</time>
      </trkpt>
      <trkpt lat="42.86633600" lon="13.43927163">
        <ele>377.00000</ele>
        <time>2024-02-02T13:10:31Z</time>
      </trkpt>
      <trkpt lat="42.86631655" lon="13.43928806">
        <ele>378.00000</ele>
        <time>2024-02-02T13:10:32Z</time>
      </trkpt>
      <trkpt lat="42.86630197" lon="13.43929451">
        <ele>379.00000</ele>
        <time>2024-02-02T13:10:33Z</time>
      </trkpt>
      <trkpt lat="42.86628738" lon="13.43929544">
        <ele>380.00000</ele>
        <time>2024-02-02T13:10:34Z</time>
      </trkpt>
      <trkpt lat="42.86626920" lon="13.43930164">
        <ele>380.00000</ele>
        <time>2024-02-02T13:10:35Z</time>
      </trkpt>
      <trkpt lat="42.86625520" lon="13.43931010">
        <ele>381.00000</ele>
        <time>2024-02-02T13:10:36Z</time>
      </trkpt>
      <trkpt lat="42.86623818" lon="13.43931932">
        <ele>382.00000</ele>
        <time>2024-02-02T13:10:37Z</time>
      </trkpt>
      <trkpt lat="42.86622226" lon="13.43933508">
        <ele>382.00000</ele>
        <time>2024-02-02T13:10:38Z</time>
      </trkpt>
      <trkpt lat="42.86620533" lon="13.43934958">
        <ele>383.00000</ele>
        <time>2024-02-02T13:10:39Z</time>
      </trkpt>
      <trkpt lat="42.86619024" lon="13.43936559">
        <ele>384.00000</ele>
        <time>2024-02-02T13:10:40Z</time>
      </trkpt>
      <trkpt lat="42.86617557" lon="13.43938806">
        <ele>384.00000</ele>
        <time>2024-02-02T13:10:41Z</time>
      </trkpt>
      <trkpt lat="42.86615847" lon="13.43941094">
        <ele>385.00000</ele>
        <time>2024-02-02T13:10:42Z</time>
      </trkpt>
      <trkpt lat="42.86614120" lon="13.43943265">
        <ele>385.00000</ele>
        <time>2024-02-02T13:10:43Z</time>
      </trkpt>
      <trkpt lat="42.86612226" lon="13.43945184">
        <ele>386.00000</ele>
        <time>2024-02-02T13:10:44Z</time>
      </trkpt>
      <trkpt lat="42.86609804" lon="13.43947037">
        <ele>387.00000</ele>
        <time>2024-02-02T13:10:45Z</time>
      </trkpt>
      <trkpt lat="42.86607717" lon="13.43948889">
        <ele>387.00000</ele>
        <time>2024-02-02T13:10:46Z</time>
      </trkpt>
      <trkpt lat="42.86605638" lon="13.43950230">
        <ele>388.00000</ele>
        <time>2024-02-02T13:10:47Z</time>
      </trkpt>
      <trkpt lat="42.86603584" lon="13.43951722">
        <ele>388.00000</ele>
        <time>2024-02-02T13:10:48Z</time>
      </trkpt>
      <trkpt lat="42.86601757" lon="13.43953541">
        <ele>388.00000</ele>
        <time>2024-02-02T13:10:49Z</time>
      </trkpt>
      <trkpt lat="42.86599234" lon="13.43955502">
        <ele>389.00000</ele>
        <time>2024-02-02T13:10:50Z</time>
      </trkpt>
      <trkpt lat="42.86597273" lon="13.43957271">
        <ele>389.00000</ele>
        <time>2024-02-02T13:10:51Z</time>
      </trkpt>
      <trkpt lat="42.86595521" lon="13.43959107">
        <ele>389.00000</ele>
        <time>2024-02-02T13:10:52Z</time>
      </trkpt>
      <trkpt lat="42.86593476" lon="13.43961512">
        <ele>390.00000</ele>
        <time>2024-02-02T13:10:53Z</time>
      </trkpt>
      <trkpt lat="42.86590701" lon="13.43963239">
        <ele>390.00000</ele>
        <time>2024-02-02T13:10:54Z</time>
      </trkpt>
      <trkpt lat="42.86588941" lon="13.43964890">
        <ele>390.00000</ele>
        <time>2024-02-02T13:10:55Z</time>
      </trkpt>
      <trkpt lat="42.86587156" lon="13.43966349">
        <ele>391.00000</ele>
        <time>2024-02-02T13:10:56Z</time>
      </trkpt>
      <trkpt lat="42.86584750" lon="13.43968620">
        <ele>391.00000</ele>
        <time>2024-02-02T13:10:57Z</time>
      </trkpt>
      <trkpt lat="42.86581087" lon="13.43970464">
        <ele>392.00000</ele>
        <time>2024-02-02T13:10:58Z</time>
      </trkpt>
      <trkpt lat="42.86579126" lon="13.43971621">
        <ele>392.00000</ele>
        <time>2024-02-02T13:10:59Z</time>
      </trkpt>
      <trkpt lat="42.86578036" lon="13.43972668">
        <ele>393.00000</ele>
        <time>2024-02-02T13:11:00Z</time>
      </trkpt>
      <trkpt lat="42.86575941" lon="13.43973867">
        <ele>393.00000</ele>
        <time>2024-02-02T13:11:01Z</time>
      </trkpt>
      <trkpt lat="42.86573812" lon="13.43975476">
        <ele>394.00000</ele>
        <time>2024-02-02T13:11:02Z</time>
      </trkpt>
      <trkpt lat="42.86570979" lon="13.43976306">
        <ele>395.00000</ele>
        <time>2024-02-02T13:11:03Z</time>
      </trkpt>
      <trkpt lat="42.86568012" lon="13.43977312">
        <ele>396.00000</ele>
        <time>2024-02-02T13:11:04Z</time>
      </trkpt>
      <trkpt lat="42.86565707" lon="13.43977488">
        <ele>397.00000</ele>
        <time>2024-02-02T13:11:05Z</time>
      </trkpt>
      <trkpt lat="42.86562463" lon="13.43977186">
        <ele>398.00000</ele>
        <time>2024-02-02T13:11:06Z</time>
      </trkpt>
      <trkpt lat="42.86560040" lon="13.43976524">
        <ele>399.00000</ele>
        <time>2024-02-02T13:11:07Z</time>
      </trkpt>
      <trkpt lat="42.86557484" lon="13.43977689">
        <ele>400.00000</ele>
        <time>2024-02-02T13:11:08Z</time>
      </trkpt>
      <trkpt lat="42.86555539" lon="13.43977103">
        <ele>400.00000</ele>
        <time>2024-02-02T13:11:09Z</time>
      </trkpt>
      <trkpt lat="42.86554575" lon="13.43977488">
        <ele>401.00000</ele>
        <time>2024-02-02T13:11:10Z</time>
      </trkpt>
      <trkpt lat="42.86552480" lon="13.43979693">
        <ele>401.00000</ele>
        <time>2024-02-02T13:11:11Z</time>
      </trkpt>
      <trkpt lat="42.86550669" lon="13.43980992">
        <ele>401.00000</ele>
        <time>2024-02-02T13:11:12Z</time>
      </trkpt>
      <trkpt lat="42.86548105" lon="13.43982651">
        <ele>401.00000</ele>
        <time>2024-02-02T13:11:13Z</time>
      </trkpt>
      <trkpt lat="42.86545774" lon="13.43983431">
        <ele>402.00000</ele>
        <time>2024-02-02T13:11:14Z</time>
      </trkpt>
      <trkpt lat="42.86542975" lon="13.43984194">
        <ele>402.00000</ele>
        <time>2024-02-02T13:11:15Z</time>
      </trkpt>
      <trkpt lat="42.86540754" lon="13.43984847">
        <ele>403.00000</ele>
        <time>2024-02-02T13:11:16Z</time>
      </trkpt>
      <trkpt lat="42.86538826" lon="13.43985124">
        <ele>403.00000</ele>
        <time>2024-02-02T13:11:17Z</time>
      </trkpt>
      <trkpt lat="42.86537149" lon="13.43985501">
        <ele>404.00000</ele>
        <time>2024-02-02T13:11:18Z</time>
      </trkpt>
      <trkpt lat="42.86535498" lon="13.43986557">
        <ele>404.00000</ele>
        <time>2024-02-02T13:11:19Z</time>
      </trkpt>
      <trkpt lat="42.86533621" lon="13.43987898">
        <ele>404.00000</ele>
        <time>2024-02-02T13:11:20Z</time>
      </trkpt>
      <trkpt lat="42.86530972" lon="13.43988980">
        <ele>404.00000</ele>
        <time>2024-02-02T13:11:21Z</time>
      </trkpt>
      <trkpt lat="42.86529078" lon="13.43989265">
        <ele>405.00000</ele>
        <time>2024-02-02T13:11:22Z</time>
      </trkpt>
      <trkpt lat="42.86527309" lon="13.43989902">
        <ele>405.00000</ele>
        <time>2024-02-02T13:11:23Z</time>
      </trkpt>
      <trkpt lat="42.86525222" lon="13.43991151">
        <ele>405.00000</ele>
        <time>2024-02-02T13:11:24Z</time>
      </trkpt>
      <trkpt lat="42.86522565" lon="13.43992668">
        <ele>405.00000</ele>
        <time>2024-02-02T13:11:25Z</time>
      </trkpt>
      <trkpt lat="42.86520268" lon="13.43994973">
        <ele>404.00000</ele>
        <time>2024-02-02T13:11:26Z</time>
      </trkpt>
      <trkpt lat="42.86518625" lon="13.43997135">
        <ele>404.00000</ele>
        <time>2024-02-02T13:11:27Z</time>
      </trkpt>
      <trkpt lat="42.86517276" lon="13.43998317">
        <ele>404.00000</ele>
        <time>2024-02-02T13:11:28Z</time>
      </trkpt>
      <trkpt lat="42.86515683" lon="13.43999725">
        <ele>403.00000</ele>
        <time>2024-02-02T13:11:29Z</time>
      </trkpt>
      <trkpt lat="42.86513135" lon="13.44001309">
        <ele>403.00000</ele>
        <time>2024-02-02T13:11:30Z</time>
      </trkpt>
      <trkpt lat="42.86508626" lon="13.44002273">
        <ele>403.00000</ele>
        <time>2024-02-02T13:11:31Z</time>
      </trkpt>
      <trkpt lat="42.86505684" lon="13.44002977">
        <ele>403.00000</ele>
        <time>2024-02-02T13:11:32Z</time>
      </trkpt>
      <trkpt lat="42.86503328" lon="13.44003614">
        <ele>403.00000</ele>
        <time>2024-02-02T13:11:33Z</time>
      </trkpt>
      <trkpt lat="42.86501308" lon="13.44004235">
        <ele>403.00000</ele>
        <time>2024-02-02T13:11:34Z</time>
      </trkpt>
      <trkpt lat="42.86499213" lon="13.44004805">
        <ele>403.00000</ele>
        <time>2024-02-02T13:11:35Z</time>
      </trkpt>
      <trkpt lat="42.86496807" lon="13.44004964">
        <ele>403.00000</ele>
        <time>2024-02-02T13:11:36Z</time>
      </trkpt>
      <trkpt lat="42.86492893" lon="13.44005391">
        <ele>404.00000</ele>
        <time>2024-02-02T13:11:37Z</time>
      </trkpt>
      <trkpt lat="42.86489490" lon="13.44005375">
        <ele>404.00000</ele>
        <time>2024-02-02T13:11:38Z</time>
      </trkpt>
      <trkpt lat="42.86485651" lon="13.44005517">
        <ele>404.00000</ele>
        <time>2024-02-02T13:11:39Z</time>
      </trkpt>
      <trkpt lat="42.86483614" lon="13.44005475">
        <ele>404.00000</ele>
        <time>2024-02-02T13:11:40Z</time>
      </trkpt>
      <trkpt lat="42.86481603" lon="13.44005919">
        <ele>404.00000</ele>
        <time>2024-02-02T13:11:41Z</time>
      </trkpt>
      <trkpt lat="42.86479574" lon="13.44006196">
        <ele>404.00000</ele>
        <time>2024-02-02T13:11:42Z</time>
      </trkpt>
      <trkpt lat="42.86477252" lon="13.44006037">
        <ele>404.00000</ele>
        <time>2024-02-02T13:11:43Z</time>
      </trkpt>
      <trkpt lat="42.86475132" lon="13.44006045">
        <ele>405.00000</ele>
        <time>2024-02-02T13:11:44Z</time>
      </trkpt>
      <trkpt lat="42.86472860" lon="13.44005249">
        <ele>405.00000</ele>
        <time>2024-02-02T13:11:45Z</time>
      </trkpt>
      <trkpt lat="42.86470077" lon="13.44005140">
        <ele>405.00000</ele>
        <time>2024-02-02T13:11:46Z</time>
      </trkpt>
      <trkpt lat="42.86467362" lon="13.44005777">
        <ele>406.00000</ele>
        <time>2024-02-02T13:11:47Z</time>
      </trkpt>
      <trkpt lat="42.86464227" lon="13.44004914">
        <ele>406.00000</ele>
        <time>2024-02-02T13:11:48Z</time>
      </trkpt>
      <trkpt lat="42.86461126" lon="13.44005517">
        <ele>406.00000</ele>
        <time>2024-02-02T13:11:49Z</time>
      </trkpt>
      <trkpt lat="42.86458435" lon="13.44006037">
        <ele>407.00000</ele>
        <time>2024-02-02T13:11:50Z</time>
      </trkpt>
      <trkpt lat="42.86455912" lon="13.44006280">
        <ele>407.00000</ele>
        <time>2024-02-02T13:11:51Z</time>
      </trkpt>
      <trkpt lat="42.86453414" lon="13.44006347">
        <ele>407.00000</ele>
        <time>2024-02-02T13:11:52Z</time>
      </trkpt>
      <trkpt lat="42.86450916" lon="13.44006909">
        <ele>408.00000</ele>
        <time>2024-02-02T13:11:53Z</time>
      </trkpt>
      <trkpt lat="42.86448393" lon="13.44007428">
        <ele>408.00000</ele>
        <time>2024-02-02T13:11:54Z</time>
      </trkpt>
      <trkpt lat="42.86446264" lon="13.44007638">
        <ele>408.00000</ele>
        <time>2024-02-02T13:11:55Z</time>
      </trkpt>
      <trkpt lat="42.86444194" lon="13.44006917">
        <ele>409.00000</ele>
        <time>2024-02-02T13:11:56Z</time>
      </trkpt>
      <trkpt lat="42.86441931" lon="13.44006741">
        <ele>409.00000</ele>
        <time>2024-02-02T13:11:57Z</time>
      </trkpt>
      <trkpt lat="42.86439442" lon="13.44006959">
        <ele>409.00000</ele>
        <time>2024-02-02T13:11:58Z</time>
      </trkpt>
      <trkpt lat="42.86437170" lon="13.44006414">
        <ele>410.00000</ele>
        <time>2024-02-02T13:11:59Z</time>
      </trkpt>
      <trkpt lat="42.86435142" lon="13.44005660">
        <ele>410.00000</ele>
        <time>2024-02-02T13:12:00Z</time>
      </trkpt>
      <trkpt lat="42.86433029" lon="13.44004780">
        <ele>411.00000</ele>
        <time>2024-02-02T13:12:01Z</time>
      </trkpt>
      <trkpt lat="42.86431370" lon="13.44004143">
        <ele>411.00000</ele>
        <time>2024-02-02T13:12:02Z</time>
      </trkpt>
      <trkpt lat="42.86429853" lon="13.44003690">
        <ele>412.00000</ele>
        <time>2024-02-02T13:12:03Z</time>
      </trkpt>
      <trkpt lat="42.86427858" lon="13.44002919">
        <ele>412.00000</ele>
        <time>2024-02-02T13:12:04Z</time>
      </trkpt>
      <trkpt lat="42.86425544" lon="13.44002324">
        <ele>413.00000</ele>
        <time>2024-02-02T13:12:05Z</time>
      </trkpt>
      <trkpt lat="42.86424094" lon="13.44001687">
        <ele>413.00000</ele>
        <time>2024-02-02T13:12:06Z</time>
      </trkpt>
      <trkpt lat="42.86422326" lon="13.44000723">
        <ele>413.00000</ele>
        <time>2024-02-02T13:12:07Z</time>
      </trkpt>
      <trkpt lat="42.86420448" lon="13.44000522">
        <ele>414.00000</ele>
        <time>2024-02-02T13:12:08Z</time>
      </trkpt>
      <trkpt lat="42.86418872" lon="13.44000144">
        <ele>414.00000</ele>
        <time>2024-02-02T13:12:09Z</time>
      </trkpt>
      <trkpt lat="42.86417054" lon="13.44000161">
        <ele>414.00000</ele>
        <time>2024-02-02T13:12:10Z</time>
      </trkpt>
      <trkpt lat="42.86414958" lon="13.44000530">
        <ele>415.00000</ele>
        <time>2024-02-02T13:12:11Z</time>
      </trkpt>
      <trkpt lat="42.86412896" lon="13.44000563">
        <ele>415.00000</ele>
        <time>2024-02-02T13:12:12Z</time>
      </trkpt>
      <trkpt lat="42.86410692" lon="13.44000991">
        <ele>415.00000</ele>
        <time>2024-02-02T13:12:13Z</time>
      </trkpt>
      <trkpt lat="42.86408345" lon="13.44001460">
        <ele>416.00000</ele>
        <time>2024-02-02T13:12:14Z</time>
      </trkpt>
      <trkpt lat="42.86406182" lon="13.44002164">
        <ele>416.00000</ele>
        <time>2024-02-02T13:12:15Z</time>
      </trkpt>
      <trkpt lat="42.86404196" lon="13.44002894">
        <ele>416.00000</ele>
        <time>2024-02-02T13:12:16Z</time>
      </trkpt>
      <trkpt lat="42.86402310" lon="13.44003413">
        <ele>416.00000</ele>
        <time>2024-02-02T13:12:17Z</time>
      </trkpt>
      <trkpt lat="42.86400097" lon="13.44004184">
        <ele>416.00000</ele>
        <time>2024-02-02T13:12:18Z</time>
      </trkpt>
      <trkpt lat="42.86397809" lon="13.44004637">
        <ele>417.00000</ele>
        <time>2024-02-02T13:12:19Z</time>
      </trkpt>
      <trkpt lat="42.86395344" lon="13.44005341">
        <ele>417.00000</ele>
        <time>2024-02-02T13:12:20Z</time>
      </trkpt>
      <trkpt lat="42.86393006" lon="13.44005500">
        <ele>417.00000</ele>
        <time>2024-02-02T13:12:21Z</time>
      </trkpt>
      <trkpt lat="42.86391036" lon="13.44004972">
        <ele>418.00000</ele>
        <time>2024-02-02T13:12:22Z</time>
      </trkpt>
      <trkpt lat="42.86388773" lon="13.44004897">
        <ele>418.00000</ele>
        <time>2024-02-02T13:12:23Z</time>
      </trkpt>
      <trkpt lat="42.86386309" lon="13.44005081">
        <ele>419.00000</ele>
        <time>2024-02-02T13:12:24Z</time>
      </trkpt>
      <trkpt lat="42.86383375" lon="13.44005274">
        <ele>419.00000</ele>
        <time>2024-02-02T13:12:25Z</time>
      </trkpt>
      <trkpt lat="42.86380140" lon="13.44005987">
        <ele>420.00000</ele>
        <time>2024-02-02T13:12:26Z</time>
      </trkpt>
      <trkpt lat="42.86376954" lon="13.44006112">
        <ele>420.00000</ele>
        <time>2024-02-02T13:12:27Z</time>
      </trkpt>
      <trkpt lat="42.86375102" lon="13.44005635">
        <ele>421.00000</ele>
        <time>2024-02-02T13:12:28Z</time>
      </trkpt>
      <trkpt lat="42.86372696" lon="13.44005031">
        <ele>421.00000</ele>
        <time>2024-02-02T13:12:29Z</time>
      </trkpt>
      <trkpt lat="42.86370157" lon="13.44004134">
        <ele>422.00000</ele>
        <time>2024-02-02T13:12:30Z</time>
      </trkpt>
      <trkpt lat="42.86368078" lon="13.44003522">
        <ele>422.00000</ele>
        <time>2024-02-02T13:12:31Z</time>
      </trkpt>
      <trkpt lat="42.86365631" lon="13.44003195">
        <ele>423.00000</ele>
        <time>2024-02-02T13:12:32Z</time>
      </trkpt>
      <trkpt lat="42.86363761" lon="13.44003271">
        <ele>423.00000</ele>
        <time>2024-02-02T13:12:33Z</time>
      </trkpt>
      <trkpt lat="42.86361641" lon="13.44003413">
        <ele>424.00000</ele>
        <time>2024-02-02T13:12:34Z</time>
      </trkpt>
      <trkpt lat="42.86359621" lon="13.44003849">
        <ele>424.00000</ele>
        <time>2024-02-02T13:12:35Z</time>
      </trkpt>
      <trkpt lat="42.86356989" lon="13.44004889">
        <ele>424.00000</ele>
        <time>2024-02-02T13:12:36Z</time>
      </trkpt>
      <trkpt lat="42.86354860" lon="13.44005802">
        <ele>424.00000</ele>
        <time>2024-02-02T13:12:37Z</time>
      </trkpt>
      <trkpt lat="42.86353049" lon="13.44006280">
        <ele>424.00000</ele>
        <time>2024-02-02T13:12:38Z</time>
      </trkpt>
      <trkpt lat="42.86350954" lon="13.44007194">
        <ele>425.00000</ele>
        <time>2024-02-02T13:12:39Z</time>
      </trkpt>
      <trkpt lat="42.86348976" lon="13.44008233">
        <ele>425.00000</ele>
        <time>2024-02-02T13:12:40Z</time>
      </trkpt>
      <trkpt lat="42.86347257" lon="13.44009113">
        <ele>425.00000</ele>
        <time>2024-02-02T13:12:41Z</time>
      </trkpt>
      <trkpt lat="42.86345279" lon="13.44010479">
        <ele>425.00000</ele>
        <time>2024-02-02T13:12:42Z</time>
      </trkpt>
      <trkpt lat="42.86343838" lon="13.44011493">
        <ele>425.00000</ele>
        <time>2024-02-02T13:12:43Z</time>
      </trkpt>
      <trkpt lat="42.86342362" lon="13.44012357">
        <ele>425.00000</ele>
        <time>2024-02-02T13:12:44Z</time>
      </trkpt>
      <trkpt lat="42.86340594" lon="13.44013564">
        <ele>425.00000</ele>
        <time>2024-02-02T13:12:45Z</time>
      </trkpt>
      <trkpt lat="42.86338876" lon="13.44014947">
        <ele>425.00000</ele>
        <time>2024-02-02T13:12:46Z</time>
      </trkpt>
      <trkpt lat="42.86336822" lon="13.44015835">
        <ele>425.00000</ele>
        <time>2024-02-02T13:12:47Z</time>
      </trkpt>
      <trkpt lat="42.86334986" lon="13.44016690">
        <ele>425.00000</ele>
        <time>2024-02-02T13:12:48Z</time>
      </trkpt>
      <trkpt lat="42.86333159" lon="13.44017847">
        <ele>425.00000</ele>
        <time>2024-02-02T13:12:49Z</time>
      </trkpt>
      <trkpt lat="42.86331483" lon="13.44019247">
        <ele>425.00000</ele>
        <time>2024-02-02T13:12:50Z</time>
      </trkpt>
      <trkpt lat="42.86329806" lon="13.44020605">
        <ele>425.00000</ele>
        <time>2024-02-02T13:12:51Z</time>
      </trkpt>
      <trkpt lat="42.86328038" lon="13.44021669">
        <ele>425.00000</ele>
        <time>2024-02-02T13:12:52Z</time>
      </trkpt>
      <trkpt lat="42.86326194" lon="13.44022784">
        <ele>426.00000</ele>
        <time>2024-02-02T13:12:53Z</time>
      </trkpt>
      <trkpt lat="42.86324551" lon="13.44023899">
        <ele>426.00000</ele>
        <time>2024-02-02T13:12:54Z</time>
      </trkpt>
      <trkpt lat="42.86323294" lon="13.44025122">
        <ele>426.00000</ele>
        <time>2024-02-02T13:12:55Z</time>
      </trkpt>
      <trkpt lat="42.86321693" lon="13.44026749">
        <ele>426.00000</ele>
        <time>2024-02-02T13:12:56Z</time>
      </trkpt>
      <trkpt lat="42.86320611" lon="13.44027570">
        <ele>426.00000</ele>
        <time>2024-02-02T13:12:57Z</time>
      </trkpt>
      <trkpt lat="42.86318910" lon="13.44028810">
        <ele>426.00000</ele>
        <time>2024-02-02T13:12:58Z</time>
      </trkpt>
      <trkpt lat="42.86317175" lon="13.44030613">
        <ele>426.00000</ele>
        <time>2024-02-02T13:12:59Z</time>
      </trkpt>
      <trkpt lat="42.86315876" lon="13.44032708">
        <ele>426.00000</ele>
        <time>2024-02-02T13:13:00Z</time>
      </trkpt>
      <trkpt lat="42.86314886" lon="13.44034225">
        <ele>426.00000</ele>
        <time>2024-02-02T13:13:01Z</time>
      </trkpt>
      <trkpt lat="42.86313713" lon="13.44035734">
        <ele>426.00000</ele>
        <time>2024-02-02T13:13:02Z</time>
      </trkpt>
      <trkpt lat="42.86312992" lon="13.44037964">
        <ele>426.00000</ele>
        <time>2024-02-02T13:13:03Z</time>
      </trkpt>
      <trkpt lat="42.86311693" lon="13.44039992">
        <ele>425.00000</ele>
        <time>2024-02-02T13:13:04Z</time>
      </trkpt>
      <trkpt lat="42.86310427" lon="13.44040797">
        <ele>426.00000</ele>
        <time>2024-02-02T13:13:05Z</time>
      </trkpt>
      <trkpt lat="42.86308080" lon="13.44042113">
        <ele>426.00000</ele>
        <time>2024-02-02T13:13:06Z</time>
      </trkpt>
      <trkpt lat="42.86306831" lon="13.44042741">
        <ele>426.00000</ele>
        <time>2024-02-02T13:13:07Z</time>
      </trkpt>
      <trkpt lat="42.86304200" lon="13.44043261">
        <ele>427.00000</ele>
        <time>2024-02-02T13:13:08Z</time>
      </trkpt>
      <trkpt lat="42.86302272" lon="13.44044133">
        <ele>427.00000</ele>
        <time>2024-02-02T13:13:09Z</time>
      </trkpt>
      <trkpt lat="42.86300176" lon="13.44044979">
        <ele>427.00000</ele>
        <time>2024-02-02T13:13:10Z</time>
      </trkpt>
      <trkpt lat="42.86298181" lon="13.44045340">
        <ele>428.00000</ele>
        <time>2024-02-02T13:13:11Z</time>
      </trkpt>
      <trkpt lat="42.86296681" lon="13.44045541">
        <ele>428.00000</ele>
        <time>2024-02-02T13:13:12Z</time>
      </trkpt>
      <trkpt lat="42.86295155" lon="13.44045700">
        <ele>429.00000</ele>
        <time>2024-02-02T13:13:13Z</time>
      </trkpt>
      <trkpt lat="42.86292968" lon="13.44045943">
        <ele>429.00000</ele>
        <time>2024-02-02T13:13:14Z</time>
      </trkpt>
      <trkpt lat="42.86290965" lon="13.44046077">
        <ele>430.00000</ele>
        <time>2024-02-02T13:13:15Z</time>
      </trkpt>
      <trkpt lat="42.86289263" lon="13.44046438">
        <ele>430.00000</ele>
        <time>2024-02-02T13:13:16Z</time>
      </trkpt>
      <trkpt lat="42.86287612" lon="13.44046488">
        <ele>431.00000</ele>
        <time>2024-02-02T13:13:17Z</time>
      </trkpt>
      <trkpt lat="42.86285684" lon="13.44046915">
        <ele>431.00000</ele>
        <time>2024-02-02T13:13:18Z</time>
      </trkpt>
      <trkpt lat="42.86283739" lon="13.44047008">
        <ele>432.00000</ele>
        <time>2024-02-02T13:13:19Z</time>
      </trkpt>
      <trkpt lat="42.86282298" lon="13.44047234">
        <ele>432.00000</ele>
        <time>2024-02-02T13:13:20Z</time>
      </trkpt>
      <trkpt lat="42.86281585" lon="13.44048290">
        <ele>432.00000</ele>
        <time>2024-02-02T13:13:21Z</time>
      </trkpt>
      <trkpt lat="42.86280403" lon="13.44049413">
        <ele>432.00000</ele>
        <time>2024-02-02T13:13:22Z</time>
      </trkpt>
      <trkpt lat="42.86278635" lon="13.44051157">
        <ele>432.00000</ele>
        <time>2024-02-02T13:13:23Z</time>
      </trkpt>
      <trkpt lat="42.86276925" lon="13.44052330">
        <ele>433.00000</ele>
        <time>2024-02-02T13:13:24Z</time>
      </trkpt>
      <trkpt lat="42.86273907" lon="13.44054719">
        <ele>433.00000</ele>
        <time>2024-02-02T13:13:25Z</time>
      </trkpt>
      <trkpt lat="42.86272130" lon="13.44056094">
        <ele>433.00000</ele>
        <time>2024-02-02T13:13:26Z</time>
      </trkpt>
      <trkpt lat="42.86270555" lon="13.44056638">
        <ele>433.00000</ele>
        <time>2024-02-02T13:13:27Z</time>
      </trkpt>
      <trkpt lat="42.86268794" lon="13.44057803">
        <ele>434.00000</ele>
        <time>2024-02-02T13:13:28Z</time>
      </trkpt>
      <trkpt lat="42.86267177" lon="13.44058977">
        <ele>434.00000</ele>
        <time>2024-02-02T13:13:29Z</time>
      </trkpt>
      <trkpt lat="42.86265341" lon="13.44060435">
        <ele>434.00000</ele>
        <time>2024-02-02T13:13:30Z</time>
      </trkpt>
      <trkpt lat="42.86263137" lon="13.44062011">
        <ele>434.00000</ele>
        <time>2024-02-02T13:13:31Z</time>
      </trkpt>
      <trkpt lat="42.86260907" lon="13.44063017">
        <ele>435.00000</ele>
        <time>2024-02-02T13:13:32Z</time>
      </trkpt>
      <trkpt lat="42.86259499" lon="13.44063947">
        <ele>435.00000</ele>
        <time>2024-02-02T13:13:33Z</time>
      </trkpt>
      <trkpt lat="42.86257705" lon="13.44065423">
        <ele>435.00000</ele>
        <time>2024-02-02T13:13:34Z</time>
      </trkpt>
      <trkpt lat="42.86255585" lon="13.44066957">
        <ele>435.00000</ele>
        <time>2024-02-02T13:13:35Z</time>
      </trkpt>
      <trkpt lat="42.86253573" lon="13.44069094">
        <ele>435.00000</ele>
        <time>2024-02-02T13:13:36Z</time>
      </trkpt>
      <trkpt lat="42.86250765" lon="13.44070754">
        <ele>435.00000</ele>
        <time>2024-02-02T13:13:37Z</time>
      </trkpt>
      <trkpt lat="42.86248778" lon="13.44070879">
        <ele>435.00000</ele>
        <time>2024-02-02T13:13:38Z</time>
      </trkpt>
      <trkpt lat="42.86246599" lon="13.44071676">
        <ele>436.00000</ele>
        <time>2024-02-02T13:13:39Z</time>
      </trkpt>
      <trkpt lat="42.86244403" lon="13.44073452">
        <ele>436.00000</ele>
        <time>2024-02-02T13:13:40Z</time>
      </trkpt>
      <trkpt lat="42.86241838" lon="13.44074567">
        <ele>436.00000</ele>
        <time>2024-02-02T13:13:41Z</time>
      </trkpt>
      <trkpt lat="42.86240531" lon="13.44074525">
        <ele>436.00000</ele>
        <time>2024-02-02T13:13:42Z</time>
      </trkpt>
      <trkpt lat="42.86238343" lon="13.44074718">
        <ele>437.00000</ele>
        <time>2024-02-02T13:13:43Z</time>
      </trkpt>
      <trkpt lat="42.86235921" lon="13.44075783">
        <ele>437.00000</ele>
        <time>2024-02-02T13:13:44Z</time>
      </trkpt>
      <trkpt lat="42.86234093" lon="13.44076579">
        <ele>437.00000</ele>
        <time>2024-02-02T13:13:45Z</time>
      </trkpt>
      <trkpt lat="42.86232618" lon="13.44076629">
        <ele>437.00000</ele>
        <time>2024-02-02T13:13:46Z</time>
      </trkpt>
      <trkpt lat="42.86231034" lon="13.44076730">
        <ele>438.00000</ele>
        <time>2024-02-02T13:13:47Z</time>
      </trkpt>
      <trkpt lat="42.86229332" lon="13.44076747">
        <ele>438.00000</ele>
        <time>2024-02-02T13:13:48Z</time>
      </trkpt>
      <trkpt lat="42.86227840" lon="13.44076638">
        <ele>438.00000</ele>
        <time>2024-02-02T13:13:49Z</time>
      </trkpt>
      <trkpt lat="42.86226860" lon="13.44076151">
        <ele>438.00000</ele>
        <time>2024-02-02T13:13:50Z</time>
      </trkpt>
      <trkpt lat="42.86225762" lon="13.44075271">
        <ele>439.00000</ele>
        <time>2024-02-02T13:13:51Z</time>
      </trkpt>
      <trkpt lat="42.86224446" lon="13.44074517">
        <ele>439.00000</ele>
        <time>2024-02-02T13:13:52Z</time>
      </trkpt>
      <trkpt lat="42.86223180" lon="13.44073226">
        <ele>440.00000</ele>
        <time>2024-02-02T13:13:53Z</time>
      </trkpt>
      <trkpt lat="42.86221864" lon="13.44071340">
        <ele>441.00000</ele>
        <time>2024-02-02T13:13:54Z</time>
      </trkpt>
      <trkpt lat="42.86220883" lon="13.44069379">
        <ele>441.00000</ele>
        <time>2024-02-02T13:13:55Z</time>
      </trkpt>
      <trkpt lat="42.86219978" lon="13.44067577">
        <ele>442.00000</ele>
        <time>2024-02-02T13:13:56Z</time>
      </trkpt>
      <trkpt lat="42.86219014" lon="13.44065532">
        <ele>442.00000</ele>
        <time>2024-02-02T13:13:57Z</time>
      </trkpt>
      <trkpt lat="42.86218377" lon="13.44063780">
        <ele>443.00000</ele>
        <time>2024-02-02T13:13:58Z</time>
      </trkpt>
      <trkpt lat="42.86218034" lon="13.44062162">
        <ele>443.00000</ele>
        <time>2024-02-02T13:13:59Z</time>
      </trkpt>
      <trkpt lat="42.86218008" lon="13.44060083">
        <ele>444.00000</ele>
        <time>2024-02-02T13:14:00Z</time>
      </trkpt>
      <trkpt lat="42.86218528" lon="13.44057745">
        <ele>444.00000</ele>
        <time>2024-02-02T13:14:01Z</time>
      </trkpt>
      <trkpt lat="42.86219391" lon="13.44055339">
        <ele>445.00000</ele>
        <time>2024-02-02T13:14:02Z</time>
      </trkpt>
      <trkpt lat="42.86219936" lon="13.44052699">
        <ele>446.00000</ele>
        <time>2024-02-02T13:14:03Z</time>
      </trkpt>
      <trkpt lat="42.86220624" lon="13.44050134">
        <ele>447.00000</ele>
        <time>2024-02-02T13:14:04Z</time>
      </trkpt>
      <trkpt lat="42.86221613" lon="13.44048206">
        <ele>447.00000</ele>
        <time>2024-02-02T13:14:05Z</time>
      </trkpt>
      <trkpt lat="42.86222903" lon="13.44046262">
        <ele>448.00000</ele>
        <time>2024-02-02T13:14:06Z</time>
      </trkpt>
      <trkpt lat="42.86224437" lon="13.44044283">
        <ele>448.00000</ele>
        <time>2024-02-02T13:14:07Z</time>
      </trkpt>
      <trkpt lat="42.86226030" lon="13.44041794">
        <ele>449.00000</ele>
        <time>2024-02-02T13:14:08Z</time>
      </trkpt>
      <trkpt lat="42.86227782" lon="13.44039145">
        <ele>449.00000</ele>
        <time>2024-02-02T13:14:09Z</time>
      </trkpt>
      <trkpt lat="42.86229534" lon="13.44036748">
        <ele>449.00000</ele>
        <time>2024-02-02T13:14:10Z</time>
      </trkpt>
      <trkpt lat="42.86231470" lon="13.44034871">
        <ele>449.00000</ele>
        <time>2024-02-02T13:14:11Z</time>
      </trkpt>
      <trkpt lat="42.86233205" lon="13.44033412">
        <ele>449.00000</ele>
        <time>2024-02-02T13:14:12Z</time>
      </trkpt>
      <trkpt lat="42.86234973" lon="13.44031954">
        <ele>449.00000</ele>
        <time>2024-02-02T13:14:13Z</time>
      </trkpt>
      <trkpt lat="42.86236725" lon="13.44030361">
        <ele>450.00000</ele>
        <time>2024-02-02T13:14:14Z</time>
      </trkpt>
      <trkpt lat="42.86238117" lon="13.44027746">
        <ele>450.00000</ele>
        <time>2024-02-02T13:14:15Z</time>
      </trkpt>
      <trkpt lat="42.86238720" lon="13.44024435">
        <ele>451.00000</ele>
        <time>2024-02-02T13:14:16Z</time>
      </trkpt>
      <trkpt lat="42.86238368" lon="13.44020948">
        <ele>452.00000</ele>
        <time>2024-02-02T13:14:17Z</time>
      </trkpt>
      <trkpt lat="42.86237312" lon="13.44017621">
        <ele>453.00000</ele>
        <time>2024-02-02T13:14:18Z</time>
      </trkpt>
      <trkpt lat="42.86235828" lon="13.44015265">
        <ele>455.00000</ele>
        <time>2024-02-02T13:14:19Z</time>
      </trkpt>
      <trkpt lat="42.86234051" lon="13.44014125">
        <ele>455.00000</ele>
        <time>2024-02-02T13:14:20Z</time>
      </trkpt>
      <trkpt lat="42.86231881" lon="13.44014318">
        <ele>456.00000</ele>
        <time>2024-02-02T13:14:21Z</time>
      </trkpt>
      <trkpt lat="42.86229877" lon="13.44015416">
        <ele>456.00000</ele>
        <time>2024-02-02T13:14:22Z</time>
      </trkpt>
      <trkpt lat="42.86228084" lon="13.44016774">
        <ele>456.00000</ele>
        <time>2024-02-02T13:14:23Z</time>
      </trkpt>
      <trkpt lat="42.86226390" lon="13.44018241">
        <ele>456.00000</ele>
        <time>2024-02-02T13:14:24Z</time>
      </trkpt>
      <trkpt lat="42.86224647" lon="13.44019498">
        <ele>456.00000</ele>
        <time>2024-02-02T13:14:25Z</time>
      </trkpt>
      <trkpt lat="42.86222820" lon="13.44020035">
        <ele>457.00000</ele>
        <time>2024-02-02T13:14:26Z</time>
      </trkpt>
      <trkpt lat="42.86221085" lon="13.44019683">
        <ele>457.00000</ele>
        <time>2024-02-02T13:14:27Z</time>
      </trkpt>
      <trkpt lat="42.86219584" lon="13.44018978">
        <ele>457.00000</ele>
        <time>2024-02-02T13:14:28Z</time>
      </trkpt>
      <trkpt lat="42.86218025" lon="13.44018274">
        <ele>458.00000</ele>
        <time>2024-02-02T13:14:29Z</time>
      </trkpt>
      <trkpt lat="42.86216667" lon="13.44018140">
        <ele>458.00000</ele>
        <time>2024-02-02T13:14:30Z</time>
      </trkpt>
      <trkpt lat="42.86215276" lon="13.44017755">
        <ele>458.00000</ele>
        <time>2024-02-02T13:14:31Z</time>
      </trkpt>
      <trkpt lat="42.86213549" lon="13.44017160">
        <ele>459.00000</ele>
        <time>2024-02-02T13:14:32Z</time>
      </trkpt>
      <trkpt lat="42.86211362" lon="13.44017000">
        <ele>459.00000</ele>
        <time>2024-02-02T13:14:33Z</time>
      </trkpt>
      <trkpt lat="42.86209098" lon="13.44016715">
        <ele>459.00000</ele>
        <time>2024-02-02T13:14:34Z</time>
      </trkpt>
      <trkpt lat="42.86207171" lon="13.44017361">
        <ele>460.00000</ele>
        <time>2024-02-02T13:14:35Z</time>
      </trkpt>
      <trkpt lat="42.86205159" lon="13.44018098">
        <ele>460.00000</ele>
        <time>2024-02-02T13:14:36Z</time>
      </trkpt>
      <trkpt lat="42.86203466" lon="13.44018107">
        <ele>460.00000</ele>
        <time>2024-02-02T13:14:37Z</time>
      </trkpt>
      <trkpt lat="42.86202158" lon="13.44018568">
        <ele>460.00000</ele>
        <time>2024-02-02T13:14:38Z</time>
      </trkpt>
      <trkpt lat="42.86200356" lon="13.44019364">
        <ele>460.00000</ele>
        <time>2024-02-02T13:14:39Z</time>
      </trkpt>
      <trkpt lat="42.86198521" lon="13.44020085">
        <ele>460.00000</ele>
        <time>2024-02-02T13:14:40Z</time>
      </trkpt>
      <trkpt lat="42.86196249" lon="13.44020714">
        <ele>460.00000</ele>
        <time>2024-02-02T13:14:41Z</time>
      </trkpt>
      <trkpt lat="42.86194288" lon="13.44020898">
        <ele>460.00000</ele>
        <time>2024-02-02T13:14:42Z</time>
      </trkpt>
      <trkpt lat="42.86191849" lon="13.44021116">
        <ele>461.00000</ele>
        <time>2024-02-02T13:14:43Z</time>
      </trkpt>
      <trkpt lat="42.86189845" lon="13.44021988">
        <ele>461.00000</ele>
        <time>2024-02-02T13:14:44Z</time>
      </trkpt>
      <trkpt lat="42.86187565" lon="13.44023228">
        <ele>461.00000</ele>
        <time>2024-02-02T13:14:45Z</time>
      </trkpt>
      <trkpt lat="42.86185344" lon="13.44024276">
        <ele>461.00000</ele>
        <time>2024-02-02T13:14:46Z</time>
      </trkpt>
      <trkpt lat="42.86183207" lon="13.44025349">
        <ele>461.00000</ele>
        <time>2024-02-02T13:14:47Z</time>
      </trkpt>
      <trkpt lat="42.86181304" lon="13.44026204">
        <ele>461.00000</ele>
        <time>2024-02-02T13:14:48Z</time>
      </trkpt>
      <trkpt lat="42.86179569" lon="13.44026757">
        <ele>462.00000</ele>
        <time>2024-02-02T13:14:49Z</time>
      </trkpt>
      <trkpt lat="42.86177800" lon="13.44027101">
        <ele>462.00000</ele>
        <time>2024-02-02T13:14:50Z</time>
      </trkpt>
      <trkpt lat="42.86176250" lon="13.44027721">
        <ele>462.00000</ele>
        <time>2024-02-02T13:14:51Z</time>
      </trkpt>
      <trkpt lat="42.86174473" lon="13.44028140">
        <ele>462.00000</ele>
        <time>2024-02-02T13:14:52Z</time>
      </trkpt>
      <trkpt lat="42.86172361" lon="13.44028710">
        <ele>463.00000</ele>
        <time>2024-02-02T13:14:53Z</time>
      </trkpt>
      <trkpt lat="42.86170735" lon="13.44028668">
        <ele>463.00000</ele>
        <time>2024-02-02T13:14:54Z</time>
      </trkpt>
      <trkpt lat="42.86168874" lon="13.44028685">
        <ele>464.00000</ele>
        <time>2024-02-02T13:14:55Z</time>
      </trkpt>
      <trkpt lat="42.86166787" lon="13.44029045">
        <ele>464.00000</ele>
        <time>2024-02-02T13:14:56Z</time>
      </trkpt>
      <trkpt lat="42.86164599" lon="13.44029540">
        <ele>464.00000</ele>
        <time>2024-02-02T13:14:57Z</time>
      </trkpt>
      <trkpt lat="42.86162545" lon="13.44030085">
        <ele>465.00000</ele>
        <time>2024-02-02T13:14:58Z</time>
      </trkpt>
      <trkpt lat="42.86160408" lon="13.44030437">
        <ele>465.00000</ele>
        <time>2024-02-02T13:14:59Z</time>
      </trkpt>
      <trkpt lat="42.86158162" lon="13.44030738">
        <ele>465.00000</ele>
        <time>2024-02-02T13:15:00Z</time>
      </trkpt>
      <trkpt lat="42.86155815" lon="13.44031602">
        <ele>466.00000</ele>
        <time>2024-02-02T13:15:01Z</time>
      </trkpt>
      <trkpt lat="42.86153904" lon="13.44032532">
        <ele>466.00000</ele>
        <time>2024-02-02T13:15:02Z</time>
      </trkpt>
      <trkpt lat="42.86151364" lon="13.44033538">
        <ele>466.00000</ele>
        <time>2024-02-02T13:15:03Z</time>
      </trkpt>
      <trkpt lat="42.86149503" lon="13.44033840">
        <ele>466.00000</ele>
        <time>2024-02-02T13:15:04Z</time>
      </trkpt>
      <trkpt lat="42.86148145" lon="13.44034032">
        <ele>466.00000</ele>
        <time>2024-02-02T13:15:05Z</time>
      </trkpt>
      <trkpt lat="42.86146620" lon="13.44034552">
        <ele>466.00000</ele>
        <time>2024-02-02T13:15:06Z</time>
      </trkpt>
      <trkpt lat="42.86145002" lon="13.44035030">
        <ele>467.00000</ele>
        <time>2024-02-02T13:15:07Z</time>
      </trkpt>
      <trkpt lat="42.86143418" lon="13.44035013">
        <ele>467.00000</ele>
        <time>2024-02-02T13:15:08Z</time>
      </trkpt>
      <trkpt lat="42.86141431" lon="13.44035206">
        <ele>467.00000</ele>
        <time>2024-02-02T13:15:09Z</time>
      </trkpt>
      <trkpt lat="42.86139755" lon="13.44035130">
        <ele>468.00000</ele>
        <time>2024-02-02T13:15:10Z</time>
      </trkpt>
      <trkpt lat="42.86137467" lon="13.44035130">
        <ele>468.00000</ele>
        <time>2024-02-02T13:15:11Z</time>
      </trkpt>
      <trkpt lat="42.86135195" lon="13.44035751">
        <ele>468.00000</ele>
        <time>2024-02-02T13:15:12Z</time>
      </trkpt>
      <trkpt lat="42.86133158" lon="13.44035935">
        <ele>468.00000</ele>
        <time>2024-02-02T13:15:13Z</time>
      </trkpt>
      <trkpt lat="42.86131046" lon="13.44036044">
        <ele>469.00000</ele>
        <time>2024-02-02T13:15:14Z</time>
      </trkpt>
      <trkpt lat="42.86128666" lon="13.44036337">
        <ele>469.00000</ele>
        <time>2024-02-02T13:15:15Z</time>
      </trkpt>
      <trkpt lat="42.86126931" lon="13.44036698">
        <ele>469.00000</ele>
        <time>2024-02-02T13:15:16Z</time>
      </trkpt>
      <trkpt lat="42.86124894" lon="13.44036958">
        <ele>469.00000</ele>
        <time>2024-02-02T13:15:17Z</time>
      </trkpt>
      <trkpt lat="42.86122765" lon="13.44037268">
        <ele>469.00000</ele>
        <time>2024-02-02T13:15:18Z</time>
      </trkpt>
      <trkpt lat="42.86120728" lon="13.44037419">
        <ele>469.00000</ele>
        <time>2024-02-02T13:15:19Z</time>
      </trkpt>
      <trkpt lat="42.86118633" lon="13.44038198">
        <ele>469.00000</ele>
        <time>2024-02-02T13:15:20Z</time>
      </trkpt>
      <trkpt lat="42.86116847" lon="13.44038818">
        <ele>469.00000</ele>
        <time>2024-02-02T13:15:21Z</time>
      </trkpt>
      <trkpt lat="42.86115330" lon="13.44039145">
        <ele>469.00000</ele>
        <time>2024-02-02T13:15:22Z</time>
      </trkpt>
      <trkpt lat="42.86113411" lon="13.44039833">
        <ele>469.00000</ele>
        <time>2024-02-02T13:15:23Z</time>
      </trkpt>
      <trkpt lat="42.86111072" lon="13.44040545">
        <ele>469.00000</ele>
        <time>2024-02-02T13:15:24Z</time>
      </trkpt>
      <trkpt lat="42.86109371" lon="13.44041643">
        <ele>469.00000</ele>
        <time>2024-02-02T13:15:25Z</time>
      </trkpt>
      <trkpt lat="42.86107501" lon="13.44042364">
        <ele>469.00000</ele>
        <time>2024-02-02T13:15:26Z</time>
      </trkpt>
      <trkpt lat="42.86105238" lon="13.44043395">
        <ele>469.00000</ele>
        <time>2024-02-02T13:15:27Z</time>
      </trkpt>
      <trkpt lat="42.86103562" lon="13.44043982">
        <ele>469.00000</ele>
        <time>2024-02-02T13:15:28Z</time>
      </trkpt>
      <trkpt lat="42.86101282" lon="13.44044468">
        <ele>469.00000</ele>
        <time>2024-02-02T13:15:29Z</time>
      </trkpt>
      <trkpt lat="42.86098969" lon="13.44044962">
        <ele>469.00000</ele>
        <time>2024-02-02T13:15:30Z</time>
      </trkpt>
      <trkpt lat="42.86096840" lon="13.44045549">
        <ele>469.00000</ele>
        <time>2024-02-02T13:15:31Z</time>
      </trkpt>
      <trkpt lat="42.86094543" lon="13.44045893">
        <ele>469.00000</ele>
        <time>2024-02-02T13:15:32Z</time>
      </trkpt>
      <trkpt lat="42.86092313" lon="13.44046102">
        <ele>470.00000</ele>
        <time>2024-02-02T13:15:33Z</time>
      </trkpt>
      <trkpt lat="42.86090201" lon="13.44046136">
        <ele>470.00000</ele>
        <time>2024-02-02T13:15:34Z</time>
      </trkpt>
      <trkpt lat="42.86088064" lon="13.44046295">
        <ele>471.00000</ele>
        <time>2024-02-02T13:15:35Z</time>
      </trkpt>
      <trkpt lat="42.86085826" lon="13.44046605">
        <ele>471.00000</ele>
        <time>2024-02-02T13:15:36Z</time>
      </trkpt>
      <trkpt lat="42.86083261" lon="13.44046991">
        <ele>471.00000</ele>
        <time>2024-02-02T13:15:37Z</time>
      </trkpt>
      <trkpt lat="42.86081233" lon="13.44047175">
        <ele>472.00000</ele>
        <time>2024-02-02T13:15:38Z</time>
      </trkpt>
      <trkpt lat="42.86078735" lon="13.44047385">
        <ele>472.00000</ele>
        <time>2024-02-02T13:15:39Z</time>
      </trkpt>
      <trkpt lat="42.86076094" lon="13.44047829">
        <ele>473.00000</ele>
        <time>2024-02-02T13:15:40Z</time>
      </trkpt>
      <trkpt lat="42.86073555" lon="13.44047795">
        <ele>473.00000</ele>
        <time>2024-02-02T13:15:41Z</time>
      </trkpt>
      <trkpt lat="42.86070479" lon="13.44048013">
        <ele>474.00000</ele>
        <time>2024-02-02T13:15:42Z</time>
      </trkpt>
      <trkpt lat="42.86067545" lon="13.44047795">
        <ele>475.00000</ele>
        <time>2024-02-02T13:15:43Z</time>
      </trkpt>
      <trkpt lat="42.86064930" lon="13.44047611">
        <ele>476.00000</ele>
        <time>2024-02-02T13:15:44Z</time>
      </trkpt>
      <trkpt lat="42.86062558" lon="13.44047175">
        <ele>476.00000</ele>
        <time>2024-02-02T13:15:45Z</time>
      </trkpt>
      <trkpt lat="42.86059574" lon="13.44046396">
        <ele>477.00000</ele>
        <time>2024-02-02T13:15:46Z</time>
      </trkpt>
      <trkpt lat="42.86057537" lon="13.44046111">
        <ele>478.00000</ele>
        <time>2024-02-02T13:15:47Z</time>
      </trkpt>
      <trkpt lat="42.86054980" lon="13.44046077">
        <ele>478.00000</ele>
        <time>2024-02-02T13:15:48Z</time>
      </trkpt>
      <trkpt lat="42.86052164" lon="13.44046153">
        <ele>479.00000</ele>
        <time>2024-02-02T13:15:49Z</time>
      </trkpt>
      <trkpt lat="42.86050328" lon="13.44046287">
        <ele>479.00000</ele>
        <time>2024-02-02T13:15:50Z</time>
      </trkpt>
      <trkpt lat="42.86048132" lon="13.44046991">
        <ele>479.00000</ele>
        <time>2024-02-02T13:15:51Z</time>
      </trkpt>
      <trkpt lat="42.86046196" lon="13.44048005">
        <ele>479.00000</ele>
        <time>2024-02-02T13:15:52Z</time>
      </trkpt>
      <trkpt lat="42.86043874" lon="13.44048868">
        <ele>479.00000</ele>
        <time>2024-02-02T13:15:53Z</time>
      </trkpt>
      <trkpt lat="42.86042290" lon="13.44048793">
        <ele>480.00000</ele>
        <time>2024-02-02T13:15:54Z</time>
      </trkpt>
      <trkpt lat="42.86039927" lon="13.44048701">
        <ele>480.00000</ele>
        <time>2024-02-02T13:15:55Z</time>
      </trkpt>
      <trkpt lat="42.86038083" lon="13.44048818">
        <ele>481.00000</ele>
        <time>2024-02-02T13:15:56Z</time>
      </trkpt>
      <trkpt lat="42.86035685" lon="13.44049614">
        <ele>481.00000</ele>
        <time>2024-02-02T13:15:57Z</time>
      </trkpt>
      <trkpt lat="42.86033716" lon="13.44050042">
        <ele>481.00000</ele>
        <time>2024-02-02T13:15:58Z</time>
      </trkpt>
      <trkpt lat="42.86031553" lon="13.44050595">
        <ele>481.00000</ele>
        <time>2024-02-02T13:15:59Z</time>
      </trkpt>
      <trkpt lat="42.86029550" lon="13.44051014">
        <ele>481.00000</ele>
        <time>2024-02-02T13:16:00Z</time>
      </trkpt>
      <trkpt lat="42.86027404" lon="13.44051442">
        <ele>481.00000</ele>
        <time>2024-02-02T13:16:01Z</time>
      </trkpt>
      <trkpt lat="42.86025300" lon="13.44051836">
        <ele>481.00000</ele>
        <time>2024-02-02T13:16:02Z</time>
      </trkpt>
      <trkpt lat="42.86023221" lon="13.44052129">
        <ele>481.00000</ele>
        <time>2024-02-02T13:16:03Z</time>
      </trkpt>
      <trkpt lat="42.86021042" lon="13.44052146">
        <ele>481.00000</ele>
        <time>2024-02-02T13:16:04Z</time>
      </trkpt>
      <trkpt lat="42.86019165" lon="13.44052112">
        <ele>482.00000</ele>
        <time>2024-02-02T13:16:05Z</time>
      </trkpt>
      <trkpt lat="42.86017002" lon="13.44052330">
        <ele>482.00000</ele>
        <time>2024-02-02T13:16:06Z</time>
      </trkpt>
      <trkpt lat="42.86014689" lon="13.44052716">
        <ele>482.00000</ele>
        <time>2024-02-02T13:16:07Z</time>
      </trkpt>
      <trkpt lat="42.86012526" lon="13.44052799">
        <ele>482.00000</ele>
        <time>2024-02-02T13:16:08Z</time>
      </trkpt>
      <trkpt lat="42.86009836" lon="13.44053001">
        <ele>482.00000</ele>
        <time>2024-02-02T13:16:09Z</time>
      </trkpt>
      <trkpt lat="42.86008008" lon="13.44053495">
        <ele>482.00000</ele>
        <time>2024-02-02T13:16:10Z</time>
      </trkpt>
      <trkpt lat="42.86005578" lon="13.44053730">
        <ele>482.00000</ele>
        <time>2024-02-02T13:16:11Z</time>
      </trkpt>
      <trkpt lat="42.86003306" lon="13.44053856">
        <ele>482.00000</ele>
        <time>2024-02-02T13:16:12Z</time>
      </trkpt>
      <trkpt lat="42.86001353" lon="13.44053512">
        <ele>482.00000</ele>
        <time>2024-02-02T13:16:13Z</time>
      </trkpt>
      <trkpt lat="42.85999484" lon="13.44053914">
        <ele>482.00000</ele>
        <time>2024-02-02T13:16:14Z</time>
      </trkpt>
      <trkpt lat="42.85997212" lon="13.44054258">
        <ele>482.00000</ele>
        <time>2024-02-02T13:16:15Z</time>
      </trkpt>
      <trkpt lat="42.85995159" lon="13.44054811">
        <ele>482.00000</ele>
        <time>2024-02-02T13:16:16Z</time>
      </trkpt>
      <trkpt lat="42.85992644" lon="13.44054937">
        <ele>482.00000</ele>
        <time>2024-02-02T13:16:17Z</time>
      </trkpt>
      <trkpt lat="42.85990834" lon="13.44054887">
        <ele>482.00000</ele>
        <time>2024-02-02T13:16:18Z</time>
      </trkpt>
      <trkpt lat="42.85988923" lon="13.44054602">
        <ele>482.00000</ele>
        <time>2024-02-02T13:16:19Z</time>
      </trkpt>
      <trkpt lat="42.85986978" lon="13.44054409">
        <ele>482.00000</ele>
        <time>2024-02-02T13:16:20Z</time>
      </trkpt>
      <trkpt lat="42.85984782" lon="13.44054568">
        <ele>482.00000</ele>
        <time>2024-02-02T13:16:21Z</time>
      </trkpt>
      <trkpt lat="42.85982846" lon="13.44055113">
        <ele>482.00000</ele>
        <time>2024-02-02T13:16:22Z</time>
      </trkpt>
      <trkpt lat="42.85981178" lon="13.44055867">
        <ele>481.00000</ele>
        <time>2024-02-02T13:16:23Z</time>
      </trkpt>
      <trkpt lat="42.85979812" lon="13.44056211">
        <ele>481.00000</ele>
        <time>2024-02-02T13:16:24Z</time>
      </trkpt>
      <trkpt lat="42.85978336" lon="13.44056588">
        <ele>481.00000</ele>
        <time>2024-02-02T13:16:25Z</time>
      </trkpt>
      <trkpt lat="42.85976643" lon="13.44057032">
        <ele>481.00000</ele>
        <time>2024-02-02T13:16:26Z</time>
      </trkpt>
      <trkpt lat="42.85974523" lon="13.44056689">
        <ele>481.00000</ele>
        <time>2024-02-02T13:16:27Z</time>
      </trkpt>
      <trkpt lat="42.85972586" lon="13.44054954">
        <ele>482.00000</ele>
        <time>2024-02-02T13:16:28Z</time>
      </trkpt>
      <trkpt lat="42.85972109" lon="13.44052414">
        <ele>483.00000</ele>
        <time>2024-02-02T13:16:29Z</time>
      </trkpt>
      <trkpt lat="42.85972670" lon="13.44050142">
        <ele>484.00000</ele>
        <time>2024-02-02T13:16:30Z</time>
      </trkpt>
      <trkpt lat="42.85974028" lon="13.44048424">
        <ele>485.00000</ele>
        <time>2024-02-02T13:16:31Z</time>
      </trkpt>
      <trkpt lat="42.85975763" lon="13.44047578">
        <ele>485.00000</ele>
        <time>2024-02-02T13:16:32Z</time>
      </trkpt>
      <trkpt lat="42.85977641" lon="13.44046396">
        <ele>486.00000</ele>
        <time>2024-02-02T13:16:33Z</time>
      </trkpt>
      <trkpt lat="42.85979619" lon="13.44044459">
        <ele>487.00000</ele>
        <time>2024-02-02T13:16:34Z</time>
      </trkpt>
      <trkpt lat="42.85981672" lon="13.44042699">
        <ele>488.00000</ele>
        <time>2024-02-02T13:16:35Z</time>
      </trkpt>
      <trkpt lat="42.85983667" lon="13.44041090">
        <ele>488.00000</ele>
        <time>2024-02-02T13:16:36Z</time>
      </trkpt>
      <trkpt lat="42.85985696" lon="13.44039573">
        <ele>489.00000</ele>
        <time>2024-02-02T13:16:37Z</time>
      </trkpt>
      <trkpt lat="42.85987582" lon="13.44038131">
        <ele>490.00000</ele>
        <time>2024-02-02T13:16:38Z</time>
      </trkpt>
      <trkpt lat="42.85988872" lon="13.44037360">
        <ele>490.00000</ele>
        <time>2024-02-02T13:16:39Z</time>
      </trkpt>
      <trkpt lat="42.85990272" lon="13.44036824">
        <ele>490.00000</ele>
        <time>2024-02-02T13:16:40Z</time>
      </trkpt>
      <trkpt lat="42.85992074" lon="13.44036455">
        <ele>490.00000</ele>
        <time>2024-02-02T13:16:41Z</time>
      </trkpt>
      <trkpt lat="42.85993600" lon="13.44035927">
        <ele>491.00000</ele>
        <time>2024-02-02T13:16:42Z</time>
      </trkpt>
      <trkpt lat="42.85994991" lon="13.44034770">
        <ele>491.00000</ele>
        <time>2024-02-02T13:16:43Z</time>
      </trkpt>
      <trkpt lat="42.85996089" lon="13.44032792">
        <ele>492.00000</ele>
        <time>2024-02-02T13:16:44Z</time>
      </trkpt>
      <trkpt lat="42.85997875" lon="13.44030705">
        <ele>493.00000</ele>
        <time>2024-02-02T13:16:45Z</time>
      </trkpt>
      <trkpt lat="42.85999962" lon="13.44028567">
        <ele>494.00000</ele>
        <time>2024-02-02T13:16:46Z</time>
      </trkpt>
      <trkpt lat="42.86002200" lon="13.44026246">
        <ele>495.00000</ele>
        <time>2024-02-02T13:16:47Z</time>
      </trkpt>
      <trkpt lat="42.86003868" lon="13.44024578">
        <ele>495.00000</ele>
        <time>2024-02-02T13:16:48Z</time>
      </trkpt>
      <trkpt lat="42.86005284" lon="13.44022960">
        <ele>496.00000</ele>
        <time>2024-02-02T13:16:49Z</time>
      </trkpt>
      <trkpt lat="42.86007237" lon="13.44021191">
        <ele>496.00000</ele>
        <time>2024-02-02T13:16:50Z</time>
      </trkpt>
      <trkpt lat="42.86009802" lon="13.44018333">
        <ele>497.00000</ele>
        <time>2024-02-02T13:16:51Z</time>
      </trkpt>
      <trkpt lat="42.86011252" lon="13.44015936">
        <ele>498.00000</ele>
        <time>2024-02-02T13:16:52Z</time>
      </trkpt>
      <trkpt lat="42.86012744" lon="13.44013463">
        <ele>499.00000</ele>
        <time>2024-02-02T13:16:53Z</time>
      </trkpt>
      <trkpt lat="42.86014814" lon="13.44011309">
        <ele>499.00000</ele>
        <time>2024-02-02T13:16:54Z</time>
      </trkpt>
      <trkpt lat="42.86016969" lon="13.44009725">
        <ele>499.00000</ele>
        <time>2024-02-02T13:16:55Z</time>
      </trkpt>
      <trkpt lat="42.86018595" lon="13.44008543">
        <ele>500.00000</ele>
        <time>2024-02-02T13:16:56Z</time>
      </trkpt>
      <trkpt lat="42.86020305" lon="13.44006255">
        <ele>500.00000</ele>
        <time>2024-02-02T13:16:57Z</time>
      </trkpt>
      <trkpt lat="42.86020891" lon="13.44004738">
        <ele>501.00000</ele>
        <time>2024-02-02T13:16:58Z</time>
      </trkpt>
      <trkpt lat="42.86021612" lon="13.44003514">
        <ele>501.00000</ele>
        <time>2024-02-02T13:16:59Z</time>
      </trkpt>
      <trkpt lat="42.86024244" lon="13.44000723">
        <ele>502.00000</ele>
        <time>2024-02-02T13:17:00Z</time>
      </trkpt>
      <trkpt lat="42.86026566" lon="13.43998233">
        <ele>502.00000</ele>
        <time>2024-02-02T13:17:01Z</time>
      </trkpt>
      <trkpt lat="42.86028460" lon="13.43996741">
        <ele>502.00000</ele>
        <time>2024-02-02T13:17:02Z</time>
      </trkpt>
      <trkpt lat="42.86030296" lon="13.43995124">
        <ele>502.00000</ele>
        <time>2024-02-02T13:17:03Z</time>
      </trkpt>
      <trkpt lat="42.86032835" lon="13.43993271">
        <ele>502.00000</ele>
        <time>2024-02-02T13:17:04Z</time>
      </trkpt>
      <trkpt lat="42.86035216" lon="13.43991528">
        <ele>501.00000</ele>
        <time>2024-02-02T13:17:05Z</time>
      </trkpt>
      <trkpt lat="42.86036775" lon="13.43989633">
        <ele>501.00000</ele>
        <time>2024-02-02T13:17:06Z</time>
      </trkpt>
      <trkpt lat="42.86038988" lon="13.43988049">
        <ele>501.00000</ele>
        <time>2024-02-02T13:17:07Z</time>
      </trkpt>
      <trkpt lat="42.86041293" lon="13.43986323">
        <ele>501.00000</ele>
        <time>2024-02-02T13:17:08Z</time>
      </trkpt>
      <trkpt lat="42.86044755" lon="13.43983666">
        <ele>501.00000</ele>
        <time>2024-02-02T13:17:09Z</time>
      </trkpt>
      <trkpt lat="42.86048049" lon="13.43980858">
        <ele>501.00000</ele>
        <time>2024-02-02T13:17:10Z</time>
      </trkpt>
      <trkpt lat="42.86052566" lon="13.43978133">
        <ele>500.00000</ele>
        <time>2024-02-02T13:17:11Z</time>
      </trkpt>
      <trkpt lat="42.86056405" lon="13.43976164">
        <ele>499.00000</ele>
        <time>2024-02-02T13:17:12Z</time>
      </trkpt>
      <trkpt lat="42.86059423" lon="13.43974814">
        <ele>499.00000</ele>
        <time>2024-02-02T13:17:13Z</time>
      </trkpt>
      <trkpt lat="42.86062306" lon="13.43973540">
        <ele>499.00000</ele>
        <time>2024-02-02T13:17:14Z</time>
      </trkpt>
      <trkpt lat="42.86065206" lon="13.43972065">
        <ele>499.00000</ele>
        <time>2024-02-02T13:17:15Z</time>
      </trkpt>
      <trkpt lat="42.86068886" lon="13.43970037">
        <ele>499.00000</ele>
        <time>2024-02-02T13:17:16Z</time>
      </trkpt>
      <trkpt lat="42.86072675" lon="13.43967841">
        <ele>499.00000</ele>
        <time>2024-02-02T13:17:17Z</time>
      </trkpt>
      <trkpt lat="42.86076656" lon="13.43966265">
        <ele>498.00000</ele>
        <time>2024-02-02T13:17:18Z</time>
      </trkpt>
      <trkpt lat="42.86079900" lon="13.43964295">
        <ele>498.00000</ele>
        <time>2024-02-02T13:17:19Z</time>
      </trkpt>
      <trkpt lat="42.86082691" lon="13.43962007">
        <ele>498.00000</ele>
        <time>2024-02-02T13:17:20Z</time>
      </trkpt>
      <trkpt lat="42.86084116" lon="13.43960473">
        <ele>498.00000</ele>
        <time>2024-02-02T13:17:21Z</time>
      </trkpt>
      <trkpt lat="42.86085734" lon="13.43959785">
        <ele>498.00000</ele>
        <time>2024-02-02T13:17:22Z</time>
      </trkpt>
      <trkpt lat="42.86086463" lon="13.43958461">
        <ele>499.00000</ele>
        <time>2024-02-02T13:17:23Z</time>
      </trkpt>
      <trkpt lat="42.86088994" lon="13.43957321">
        <ele>499.00000</ele>
        <time>2024-02-02T13:17:24Z</time>
      </trkpt>
      <trkpt lat="42.86091752" lon="13.43955913">
        <ele>499.00000</ele>
        <time>2024-02-02T13:17:25Z</time>
      </trkpt>
      <trkpt lat="42.86093914" lon="13.43954647">
        <ele>499.00000</ele>
        <time>2024-02-02T13:17:26Z</time>
      </trkpt>
      <trkpt lat="42.86096588" lon="13.43953432">
        <ele>499.00000</ele>
        <time>2024-02-02T13:17:27Z</time>
      </trkpt>
      <trkpt lat="42.86099363" lon="13.43952049">
        <ele>499.00000</ele>
        <time>2024-02-02T13:17:28Z</time>
      </trkpt>
      <trkpt lat="42.86102447" lon="13.43950188">
        <ele>499.00000</ele>
        <time>2024-02-02T13:17:29Z</time>
      </trkpt>
      <trkpt lat="42.86105859" lon="13.43948864">
        <ele>499.00000</ele>
        <time>2024-02-02T13:17:30Z</time>
      </trkpt>
      <trkpt lat="42.86109924" lon="13.43947757">
        <ele>499.00000</ele>
        <time>2024-02-02T13:17:31Z</time>
      </trkpt>
      <trkpt lat="42.86114090" lon="13.43946416">
        <ele>499.00000</ele>
        <time>2024-02-02T13:17:32Z</time>
      </trkpt>
      <trkpt lat="42.86117015" lon="13.43944430">
        <ele>499.00000</ele>
        <time>2024-02-02T13:17:33Z</time>
      </trkpt>
      <trkpt lat="42.86119999" lon="13.43943483">
        <ele>499.00000</ele>
        <time>2024-02-02T13:17:34Z</time>
      </trkpt>
      <trkpt lat="42.86122949" lon="13.43943977">
        <ele>499.00000</ele>
        <time>2024-02-02T13:17:35Z</time>
      </trkpt>
      <trkpt lat="42.86126218" lon="13.43944271">
        <ele>498.00000</ele>
        <time>2024-02-02T13:17:36Z</time>
      </trkpt>
      <trkpt lat="42.86129848" lon="13.43943592">
        <ele>498.00000</ele>
        <time>2024-02-02T13:17:37Z</time>
      </trkpt>
      <trkpt lat="42.86133469" lon="13.43942619">
        <ele>498.00000</ele>
        <time>2024-02-02T13:17:38Z</time>
      </trkpt>
      <trkpt lat="42.86136679" lon="13.43941555">
        <ele>498.00000</ele>
        <time>2024-02-02T13:17:39Z</time>
      </trkpt>
      <trkpt lat="42.86140627" lon="13.43940398">
        <ele>498.00000</ele>
        <time>2024-02-02T13:17:40Z</time>
      </trkpt>
      <trkpt lat="42.86144105" lon="13.43939032">
        <ele>498.00000</ele>
        <time>2024-02-02T13:17:41Z</time>
      </trkpt>
      <trkpt lat="42.86147349" lon="13.43937247">
        <ele>498.00000</ele>
        <time>2024-02-02T13:17:42Z</time>
      </trkpt>
      <trkpt lat="42.86150249" lon="13.43935545">
        <ele>498.00000</ele>
        <time>2024-02-02T13:17:43Z</time>
      </trkpt>
      <trkpt lat="42.86153392" lon="13.43933894">
        <ele>498.00000</ele>
        <time>2024-02-02T13:17:44Z</time>
      </trkpt>
      <trkpt lat="42.86156879" lon="13.43931698">
        <ele>498.00000</ele>
        <time>2024-02-02T13:17:45Z</time>
      </trkpt>
      <trkpt lat="42.86160274" lon="13.43929720">
        <ele>498.00000</ele>
        <time>2024-02-02T13:17:46Z</time>
      </trkpt>
      <trkpt lat="42.86163451" lon="13.43928177">
        <ele>498.00000</ele>
        <time>2024-02-02T13:17:47Z</time>
      </trkpt>
      <trkpt lat="42.86166074" lon="13.43927783">
        <ele>498.00000</ele>
        <time>2024-02-02T13:17:48Z</time>
      </trkpt>
      <trkpt lat="42.86169871" lon="13.43926677">
        <ele>497.00000</ele>
        <time>2024-02-02T13:17:49Z</time>
      </trkpt>
      <trkpt lat="42.86173341" lon="13.43924908">
        <ele>497.00000</ele>
        <time>2024-02-02T13:17:50Z</time>
      </trkpt>
      <trkpt lat="42.86176677" lon="13.43923190">
        <ele>497.00000</ele>
        <time>2024-02-02T13:17:51Z</time>
      </trkpt>
      <trkpt lat="42.86180340" lon="13.43920642">
        <ele>497.00000</ele>
        <time>2024-02-02T13:17:52Z</time>
      </trkpt>
      <trkpt lat="42.86184053" lon="13.43917968">
        <ele>497.00000</ele>
        <time>2024-02-02T13:17:53Z</time>
      </trkpt>
      <trkpt lat="42.86187163" lon="13.43915278">
        <ele>497.00000</ele>
        <time>2024-02-02T13:17:54Z</time>
      </trkpt>
      <trkpt lat="42.86190759" lon="13.43911908">
        <ele>498.00000</ele>
        <time>2024-02-02T13:17:55Z</time>
      </trkpt>
      <trkpt lat="42.86193776" lon="13.43908497">
        <ele>499.00000</ele>
        <time>2024-02-02T13:17:56Z</time>
      </trkpt>
      <trkpt lat="42.86195721" lon="13.43905789">
        <ele>499.00000</ele>
        <time>2024-02-02T13:17:57Z</time>
      </trkpt>
      <trkpt lat="42.86196978" lon="13.43902629">
        <ele>500.00000</ele>
        <time>2024-02-02T13:17:58Z</time>
      </trkpt>
      <trkpt lat="42.86198973" lon="13.43898975">
        <ele>501.00000</ele>
        <time>2024-02-02T13:17:59Z</time>
      </trkpt>
      <trkpt lat="42.86200842" lon="13.43895387">
        <ele>501.00000</ele>
        <time>2024-02-02T13:18:00Z</time>
      </trkpt>
      <trkpt lat="42.86202401" lon="13.43891607">
        <ele>502.00000</ele>
        <time>2024-02-02T13:18:01Z</time>
      </trkpt>
      <trkpt lat="42.86203659" lon="13.43887475">
        <ele>503.00000</ele>
        <time>2024-02-02T13:18:02Z</time>
      </trkpt>
      <trkpt lat="42.86205377" lon="13.43883535">
        <ele>504.00000</ele>
        <time>2024-02-02T13:18:03Z</time>
      </trkpt>
      <trkpt lat="42.86206525" lon="13.43879210">
        <ele>504.00000</ele>
        <time>2024-02-02T13:18:04Z</time>
      </trkpt>
      <trkpt lat="42.86207112" lon="13.43873988">
        <ele>506.00000</ele>
        <time>2024-02-02T13:18:05Z</time>
      </trkpt>
      <trkpt lat="42.86208143" lon="13.43869202">
        <ele>507.00000</ele>
        <time>2024-02-02T13:18:06Z</time>
      </trkpt>
      <trkpt lat="42.86209191" lon="13.43864735">
        <ele>507.00000</ele>
        <time>2024-02-02T13:18:07Z</time>
      </trkpt>
      <trkpt lat="42.86210289" lon="13.43859999">
        <ele>508.00000</ele>
        <time>2024-02-02T13:18:08Z</time>
      </trkpt>
      <trkpt lat="42.86211454" lon="13.43856118">
        <ele>509.00000</ele>
        <time>2024-02-02T13:18:09Z</time>
      </trkpt>
      <trkpt lat="42.86211571" lon="13.43852078">
        <ele>510.00000</ele>
        <time>2024-02-02T13:18:10Z</time>
      </trkpt>
      <trkpt lat="42.86212326" lon="13.43847996">
        <ele>511.00000</ele>
        <time>2024-02-02T13:18:11Z</time>
      </trkpt>
      <trkpt lat="42.86213365" lon="13.43843587">
        <ele>512.00000</ele>
        <time>2024-02-02T13:18:12Z</time>
      </trkpt>
      <trkpt lat="42.86214488" lon="13.43839514">
        <ele>513.00000</ele>
        <time>2024-02-02T13:18:13Z</time>
      </trkpt>
      <trkpt lat="42.86215594" lon="13.43835608">
        <ele>513.00000</ele>
        <time>2024-02-02T13:18:14Z</time>
      </trkpt>
      <trkpt lat="42.86216609" lon="13.43831626">
        <ele>514.00000</ele>
        <time>2024-02-02T13:18:15Z</time>
      </trkpt>
      <trkpt lat="42.86217816" lon="13.43827863">
        <ele>515.00000</ele>
        <time>2024-02-02T13:18:16Z</time>
      </trkpt>
      <trkpt lat="42.86219182" lon="13.43824049">
        <ele>516.00000</ele>
        <time>2024-02-02T13:18:17Z</time>
      </trkpt>
      <trkpt lat="42.86220347" lon="13.43820202">
        <ele>517.00000</ele>
        <time>2024-02-02T13:18:18Z</time>
      </trkpt>
      <trkpt lat="42.86221453" lon="13.43816606">
        <ele>518.00000</ele>
        <time>2024-02-02T13:18:19Z</time>
      </trkpt>
      <trkpt lat="42.86222920" lon="13.43813697">
        <ele>519.00000</ele>
        <time>2024-02-02T13:18:20Z</time>
      </trkpt>
      <trkpt lat="42.86224622" lon="13.43811023">
        <ele>520.00000</ele>
        <time>2024-02-02T13:18:21Z</time>
      </trkpt>
      <trkpt lat="42.86226734" lon="13.43808140">
        <ele>520.00000</ele>
        <time>2024-02-02T13:18:22Z</time>
      </trkpt>
      <trkpt lat="42.86228821" lon="13.43805072">
        <ele>521.00000</ele>
        <time>2024-02-02T13:18:23Z</time>
      </trkpt>
      <trkpt lat="42.86230958" lon="13.43802616">
        <ele>522.00000</ele>
        <time>2024-02-02T13:18:24Z</time>
      </trkpt>
      <trkpt lat="42.86233188" lon="13.43800764">
        <ele>522.00000</ele>
        <time>2024-02-02T13:18:25Z</time>
      </trkpt>
      <trkpt lat="42.86235267" lon="13.43799465">
        <ele>522.00000</ele>
        <time>2024-02-02T13:18:26Z</time>
      </trkpt>
      <trkpt lat="42.86237270" lon="13.43797814">
        <ele>523.00000</ele>
        <time>2024-02-02T13:18:27Z</time>
      </trkpt>
      <trkpt lat="42.86238787" lon="13.43795760">
        <ele>523.00000</ele>
        <time>2024-02-02T13:18:28Z</time>
      </trkpt>
      <trkpt lat="42.86241134" lon="13.43793690">
        <ele>524.00000</ele>
        <time>2024-02-02T13:18:29Z</time>
      </trkpt>
      <trkpt lat="42.86243749" lon="13.43791603">
        <ele>524.00000</ele>
        <time>2024-02-02T13:18:30Z</time>
      </trkpt>
      <trkpt lat="42.86246716" lon="13.43789541">
        <ele>524.00000</ele>
        <time>2024-02-02T13:18:31Z</time>
      </trkpt>
      <trkpt lat="42.86249583" lon="13.43787688">
        <ele>525.00000</ele>
        <time>2024-02-02T13:18:32Z</time>
      </trkpt>
      <trkpt lat="42.86252056" lon="13.43785517">
        <ele>525.00000</ele>
        <time>2024-02-02T13:18:33Z</time>
      </trkpt>
      <trkpt lat="42.86254428" lon="13.43783925">
        <ele>525.00000</ele>
        <time>2024-02-02T13:18:34Z</time>
      </trkpt>
      <trkpt lat="42.86256792" lon="13.43781930">
        <ele>525.00000</ele>
        <time>2024-02-02T13:18:35Z</time>
      </trkpt>
      <trkpt lat="42.86259499" lon="13.43780103">
        <ele>525.00000</ele>
        <time>2024-02-02T13:18:36Z</time>
      </trkpt>
      <trkpt lat="42.86262005" lon="13.43778477">
        <ele>525.00000</ele>
        <time>2024-02-02T13:18:37Z</time>
      </trkpt>
      <trkpt lat="42.86264830" lon="13.43776884">
        <ele>525.00000</ele>
        <time>2024-02-02T13:18:38Z</time>
      </trkpt>
      <trkpt lat="42.86267780" lon="13.43776130">
        <ele>525.00000</ele>
        <time>2024-02-02T13:18:39Z</time>
      </trkpt>
      <trkpt lat="42.86269985" lon="13.43775593">
        <ele>524.00000</ele>
        <time>2024-02-02T13:18:40Z</time>
      </trkpt>
      <trkpt lat="42.86272583" lon="13.43775082">
        <ele>524.00000</ele>
        <time>2024-02-02T13:18:41Z</time>
      </trkpt>
      <trkpt lat="42.86275458" lon="13.43774252">
        <ele>523.00000</ele>
        <time>2024-02-02T13:18:42Z</time>
      </trkpt>
      <trkpt lat="42.86277327" lon="13.43774436">
        <ele>523.00000</ele>
        <time>2024-02-02T13:18:43Z</time>
      </trkpt>
      <trkpt lat="42.86279506" lon="13.43773867">
        <ele>523.00000</ele>
        <time>2024-02-02T13:18:44Z</time>
      </trkpt>
      <trkpt lat="42.86281485" lon="13.43773816">
        <ele>522.00000</ele>
        <time>2024-02-02T13:18:45Z</time>
      </trkpt>
      <trkpt lat="42.86283178" lon="13.43773816">
        <ele>522.00000</ele>
        <time>2024-02-02T13:18:46Z</time>
      </trkpt>
      <trkpt lat="42.86284829" lon="13.43773607">
        <ele>522.00000</ele>
        <time>2024-02-02T13:18:47Z</time>
      </trkpt>
      <trkpt lat="42.86287117" lon="13.43773087">
        <ele>522.00000</ele>
        <time>2024-02-02T13:18:48Z</time>
      </trkpt>
      <trkpt lat="42.86288970" lon="13.43772450">
        <ele>522.00000</ele>
        <time>2024-02-02T13:18:49Z</time>
      </trkpt>
      <trkpt lat="42.86291618" lon="13.43772123">
        <ele>521.00000</ele>
        <time>2024-02-02T13:18:50Z</time>
      </trkpt>
      <trkpt lat="42.86294301" lon="13.43772584">
        <ele>520.00000</ele>
        <time>2024-02-02T13:18:51Z</time>
      </trkpt>
      <trkpt lat="42.86296564" lon="13.43772475">
        <ele>520.00000</ele>
        <time>2024-02-02T13:18:52Z</time>
      </trkpt>
      <trkpt lat="42.86298844" lon="13.43771846">
        <ele>520.00000</ele>
        <time>2024-02-02T13:18:53Z</time>
      </trkpt>
      <trkpt lat="42.86300822" lon="13.43771067">
        <ele>520.00000</ele>
        <time>2024-02-02T13:18:54Z</time>
      </trkpt>
      <trkpt lat="42.86303780" lon="13.43770313">
        <ele>520.00000</ele>
        <time>2024-02-02T13:18:55Z</time>
      </trkpt>
      <trkpt lat="42.86306639" lon="13.43769709">
        <ele>520.00000</ele>
        <time>2024-02-02T13:18:56Z</time>
      </trkpt>
      <trkpt lat="42.86309354" lon="13.43768368">
        <ele>520.00000</ele>
        <time>2024-02-02T13:18:57Z</time>
      </trkpt>
      <trkpt lat="42.86311450" lon="13.43767228">
        <ele>520.00000</ele>
        <time>2024-02-02T13:18:58Z</time>
      </trkpt>
      <trkpt lat="42.86313529" lon="13.43766842">
        <ele>520.00000</ele>
        <time>2024-02-02T13:18:59Z</time>
      </trkpt>
      <trkpt lat="42.86315993" lon="13.43766876">
        <ele>520.00000</ele>
        <time>2024-02-02T13:19:00Z</time>
      </trkpt>
      <trkpt lat="42.86318767" lon="13.43765384">
        <ele>520.00000</ele>
        <time>2024-02-02T13:19:01Z</time>
      </trkpt>
      <trkpt lat="42.86320846" lon="13.43763808">
        <ele>520.00000</ele>
        <time>2024-02-02T13:19:02Z</time>
      </trkpt>
      <trkpt lat="42.86323168" lon="13.43761914">
        <ele>521.00000</ele>
        <time>2024-02-02T13:19:03Z</time>
      </trkpt>
      <trkpt lat="42.86325355" lon="13.43761327">
        <ele>521.00000</ele>
        <time>2024-02-02T13:19:04Z</time>
      </trkpt>
      <trkpt lat="42.86327468" lon="13.43761252">
        <ele>520.00000</ele>
        <time>2024-02-02T13:19:05Z</time>
      </trkpt>
      <trkpt lat="42.86329689" lon="13.43761160">
        <ele>520.00000</ele>
        <time>2024-02-02T13:19:06Z</time>
      </trkpt>
      <trkpt lat="42.86332128" lon="13.43761134">
        <ele>519.00000</ele>
        <time>2024-02-02T13:19:07Z</time>
      </trkpt>
      <trkpt lat="42.86334617" lon="13.43759366">
        <ele>520.00000</ele>
        <time>2024-02-02T13:19:08Z</time>
      </trkpt>
      <trkpt lat="42.86337585" lon="13.43757463">
        <ele>520.00000</ele>
        <time>2024-02-02T13:19:09Z</time>
      </trkpt>
      <trkpt lat="42.86341541" lon="13.43755703">
        <ele>519.00000</ele>
        <time>2024-02-02T13:19:10Z</time>
      </trkpt>
      <trkpt lat="42.86344550" lon="13.43753943">
        <ele>519.00000</ele>
        <time>2024-02-02T13:19:11Z</time>
      </trkpt>
      <trkpt lat="42.86347199" lon="13.43751621">
        <ele>520.00000</ele>
        <time>2024-02-02T13:19:12Z</time>
      </trkpt>
      <trkpt lat="42.86349663" lon="13.43748838">
        <ele>520.00000</ele>
        <time>2024-02-02T13:19:13Z</time>
      </trkpt>
      <trkpt lat="42.86351222" lon="13.43745636">
        <ele>520.00000</ele>
        <time>2024-02-02T13:19:14Z</time>
      </trkpt>
      <trkpt lat="42.86350484" lon="13.43743164">
        <ele>520.00000</ele>
        <time>2024-02-02T13:19:15Z</time>
      </trkpt>
      <trkpt lat="42.86350283" lon="13.43739643">
        <ele>521.00000</ele>
        <time>2024-02-02T13:19:16Z</time>
      </trkpt>
      <trkpt lat="42.86349504" lon="13.43736357">
        <ele>521.00000</ele>
        <time>2024-02-02T13:19:17Z</time>
      </trkpt>
      <trkpt lat="42.86349034" lon="13.43733139">
        <ele>522.00000</ele>
        <time>2024-02-02T13:19:18Z</time>
      </trkpt>
      <trkpt lat="42.86348196" lon="13.43731052">
        <ele>523.00000</ele>
        <time>2024-02-02T13:19:19Z</time>
      </trkpt>
      <trkpt lat="42.86346260" lon="13.43730113">
        <ele>524.00000</ele>
        <time>2024-02-02T13:19:20Z</time>
      </trkpt>
      <trkpt lat="42.86343988" lon="13.43729786">
        <ele>524.00000</ele>
        <time>2024-02-02T13:19:21Z</time>
      </trkpt>
      <trkpt lat="42.86341809" lon="13.43730415">
        <ele>525.00000</ele>
        <time>2024-02-02T13:19:22Z</time>
      </trkpt>
      <trkpt lat="42.86340150" lon="13.43731647">
        <ele>526.00000</ele>
        <time>2024-02-02T13:19:23Z</time>
      </trkpt>
      <trkpt lat="42.86338993" lon="13.43733533">
        <ele>526.00000</ele>
        <time>2024-02-02T13:19:24Z</time>
      </trkpt>
      <trkpt lat="42.86337953" lon="13.43735452">
        <ele>526.00000</ele>
        <time>2024-02-02T13:19:25Z</time>
      </trkpt>
      <trkpt lat="42.86336696" lon="13.43737380">
        <ele>526.00000</ele>
        <time>2024-02-02T13:19:26Z</time>
      </trkpt>
      <trkpt lat="42.86335263" lon="13.43738721">
        <ele>526.00000</ele>
        <time>2024-02-02T13:19:27Z</time>
      </trkpt>
      <trkpt lat="42.86333654" lon="13.43739878">
        <ele>526.00000</ele>
        <time>2024-02-02T13:19:28Z</time>
      </trkpt>
      <trkpt lat="42.86331416" lon="13.43740339">
        <ele>526.00000</ele>
        <time>2024-02-02T13:19:29Z</time>
      </trkpt>
      <trkpt lat="42.86328926" lon="13.43740599">
        <ele>527.00000</ele>
        <time>2024-02-02T13:19:30Z</time>
      </trkpt>
      <trkpt lat="42.86326596" lon="13.43740758">
        <ele>528.00000</ele>
        <time>2024-02-02T13:19:31Z</time>
      </trkpt>
      <trkpt lat="42.86324207" lon="13.43740565">
        <ele>528.00000</ele>
        <time>2024-02-02T13:19:32Z</time>
      </trkpt>
      <trkpt lat="42.86322070" lon="13.43739970">
        <ele>529.00000</ele>
        <time>2024-02-02T13:19:33Z</time>
      </trkpt>
      <trkpt lat="42.86319589" lon="13.43739266">
        <ele>530.00000</ele>
        <time>2024-02-02T13:19:34Z</time>
      </trkpt>
      <trkpt lat="42.86317200" lon="13.43738964">
        <ele>530.00000</ele>
        <time>2024-02-02T13:19:35Z</time>
      </trkpt>
      <trkpt lat="42.86315088" lon="13.43738595">
        <ele>531.00000</ele>
        <time>2024-02-02T13:19:36Z</time>
      </trkpt>
      <trkpt lat="42.86312892" lon="13.43738059">
        <ele>532.00000</ele>
        <time>2024-02-02T13:19:37Z</time>
      </trkpt>
      <trkpt lat="42.86310578" lon="13.43737640">
        <ele>532.00000</ele>
        <time>2024-02-02T13:19:38Z</time>
      </trkpt>
      <trkpt lat="42.86308240" lon="13.43737229">
        <ele>533.00000</ele>
        <time>2024-02-02T13:19:39Z</time>
      </trkpt>
      <trkpt lat="42.86305767" lon="13.43736768">
        <ele>534.00000</ele>
        <time>2024-02-02T13:19:40Z</time>
      </trkpt>
      <trkpt lat="42.86303470" lon="13.43736056">
        <ele>534.00000</ele>
        <time>2024-02-02T13:19:41Z</time>
      </trkpt>
      <trkpt lat="42.86301308" lon="13.43734907">
        <ele>535.00000</ele>
        <time>2024-02-02T13:19:42Z</time>
      </trkpt>
      <trkpt lat="42.86299129" lon="13.43734128">
        <ele>535.00000</ele>
        <time>2024-02-02T13:19:43Z</time>
      </trkpt>
      <trkpt lat="42.86296874" lon="13.43733943">
        <ele>535.00000</ele>
        <time>2024-02-02T13:19:44Z</time>
      </trkpt>
      <trkpt lat="42.86294502" lon="13.43733516">
        <ele>535.00000</ele>
        <time>2024-02-02T13:19:45Z</time>
      </trkpt>
      <trkpt lat="42.86292029" lon="13.43732384">
        <ele>536.00000</ele>
        <time>2024-02-02T13:19:46Z</time>
      </trkpt>
      <trkpt lat="42.86289531" lon="13.43731253">
        <ele>536.00000</ele>
        <time>2024-02-02T13:19:47Z</time>
      </trkpt>
      <trkpt lat="42.86287277" lon="13.43730121">
        <ele>537.00000</ele>
        <time>2024-02-02T13:19:48Z</time>
      </trkpt>
      <trkpt lat="42.86285173" lon="13.43729166">
        <ele>537.00000</ele>
        <time>2024-02-02T13:19:49Z</time>
      </trkpt>
      <trkpt lat="42.86283329" lon="13.43728261">
        <ele>538.00000</ele>
        <time>2024-02-02T13:19:50Z</time>
      </trkpt>
      <trkpt lat="42.86281451" lon="13.43727288">
        <ele>538.00000</ele>
        <time>2024-02-02T13:19:51Z</time>
      </trkpt>
      <trkpt lat="42.86278995" lon="13.43726090">
        <ele>538.00000</ele>
        <time>2024-02-02T13:19:52Z</time>
      </trkpt>
      <trkpt lat="42.86276657" lon="13.43724782">
        <ele>539.00000</ele>
        <time>2024-02-02T13:19:53Z</time>
      </trkpt>
      <trkpt lat="42.86274938" lon="13.43723642">
        <ele>539.00000</ele>
        <time>2024-02-02T13:19:54Z</time>
      </trkpt>
      <trkpt lat="42.86272860" lon="13.43722812">
        <ele>540.00000</ele>
        <time>2024-02-02T13:19:55Z</time>
      </trkpt>
      <trkpt lat="42.86271016" lon="13.43721731">
        <ele>540.00000</ele>
        <time>2024-02-02T13:19:56Z</time>
      </trkpt>
      <trkpt lat="42.86268610" lon="13.43720532">
        <ele>540.00000</ele>
        <time>2024-02-02T13:19:57Z</time>
      </trkpt>
      <trkpt lat="42.86266347" lon="13.43719133">
        <ele>541.00000</ele>
        <time>2024-02-02T13:19:58Z</time>
      </trkpt>
      <trkpt lat="42.86263891" lon="13.43718010">
        <ele>541.00000</ele>
        <time>2024-02-02T13:19:59Z</time>
      </trkpt>
      <trkpt lat="42.86261284" lon="13.43717238">
        <ele>542.00000</ele>
        <time>2024-02-02T13:20:00Z</time>
      </trkpt>
      <trkpt lat="42.86258946" lon="13.43716886">
        <ele>542.00000</ele>
        <time>2024-02-02T13:20:01Z</time>
      </trkpt>
      <trkpt lat="42.86256624" lon="13.43716878">
        <ele>542.00000</ele>
        <time>2024-02-02T13:20:02Z</time>
      </trkpt>
      <trkpt lat="42.86254654" lon="13.43717398">
        <ele>542.00000</ele>
        <time>2024-02-02T13:20:03Z</time>
      </trkpt>
      <trkpt lat="42.86252425" lon="13.43718362">
        <ele>542.00000</ele>
        <time>2024-02-02T13:20:04Z</time>
      </trkpt>
      <trkpt lat="42.86250128" lon="13.43719418">
        <ele>542.00000</ele>
        <time>2024-02-02T13:20:05Z</time>
      </trkpt>
      <trkpt lat="42.86247991" lon="13.43720382">
        <ele>542.00000</ele>
        <time>2024-02-02T13:20:06Z</time>
      </trkpt>
      <trkpt lat="42.86245945" lon="13.43721413">
        <ele>542.00000</ele>
        <time>2024-02-02T13:20:07Z</time>
      </trkpt>
      <trkpt lat="42.86244009" lon="13.43722343">
        <ele>543.00000</ele>
        <time>2024-02-02T13:20:08Z</time>
      </trkpt>
      <trkpt lat="42.86242291" lon="13.43723475">
        <ele>543.00000</ele>
        <time>2024-02-02T13:20:09Z</time>
      </trkpt>
      <trkpt lat="42.86240807" lon="13.43724983">
        <ele>543.00000</ele>
        <time>2024-02-02T13:20:10Z</time>
      </trkpt>
      <trkpt lat="42.86239525" lon="13.43726634">
        <ele>543.00000</ele>
        <time>2024-02-02T13:20:11Z</time>
      </trkpt>
      <trkpt lat="42.86237882" lon="13.43728235">
        <ele>543.00000</ele>
        <time>2024-02-02T13:20:12Z</time>
      </trkpt>
      <trkpt lat="42.86236415" lon="13.43729836">
        <ele>543.00000</ele>
        <time>2024-02-02T13:20:13Z</time>
      </trkpt>
      <trkpt lat="42.86234814" lon="13.43731454">
        <ele>543.00000</ele>
        <time>2024-02-02T13:20:14Z</time>
      </trkpt>
      <trkpt lat="42.86233314" lon="13.43733206">
        <ele>543.00000</ele>
        <time>2024-02-02T13:20:15Z</time>
      </trkpt>
      <trkpt lat="42.86231378" lon="13.43734790">
        <ele>543.00000</ele>
        <time>2024-02-02T13:20:16Z</time>
      </trkpt>
      <trkpt lat="42.86228846" lon="13.43736718">
        <ele>543.00000</ele>
        <time>2024-02-02T13:20:17Z</time>
      </trkpt>
      <trkpt lat="42.86226382" lon="13.43738336">
        <ele>543.00000</ele>
        <time>2024-02-02T13:20:18Z</time>
      </trkpt>
      <trkpt lat="42.86224035" lon="13.43739794">
        <ele>543.00000</ele>
        <time>2024-02-02T13:20:19Z</time>
      </trkpt>
      <trkpt lat="42.86221403" lon="13.43741068">
        <ele>543.00000</ele>
        <time>2024-02-02T13:20:20Z</time>
      </trkpt>
      <trkpt lat="42.86218763" lon="13.43742057">
        <ele>544.00000</ele>
        <time>2024-02-02T13:20:21Z</time>
      </trkpt>
      <trkpt lat="42.86216215" lon="13.43742527">
        <ele>544.00000</ele>
        <time>2024-02-02T13:20:22Z</time>
      </trkpt>
      <trkpt lat="42.86213465" lon="13.43742921">
        <ele>544.00000</ele>
        <time>2024-02-02T13:20:23Z</time>
      </trkpt>
      <trkpt lat="42.86210540" lon="13.43743138">
        <ele>545.00000</ele>
        <time>2024-02-02T13:20:24Z</time>
      </trkpt>
      <trkpt lat="42.86207883" lon="13.43743138">
        <ele>545.00000</ele>
        <time>2024-02-02T13:20:25Z</time>
      </trkpt>
      <trkpt lat="42.86205553" lon="13.43743130">
        <ele>546.00000</ele>
        <time>2024-02-02T13:20:26Z</time>
      </trkpt>
      <trkpt lat="42.86203005" lon="13.43742954">
        <ele>546.00000</ele>
        <time>2024-02-02T13:20:27Z</time>
      </trkpt>
      <trkpt lat="42.86200582" lon="13.43743097">
        <ele>547.00000</ele>
        <time>2024-02-02T13:20:28Z</time>
      </trkpt>
      <trkpt lat="42.86198185" lon="13.43743348">
        <ele>547.00000</ele>
        <time>2024-02-02T13:20:29Z</time>
      </trkpt>
      <trkpt lat="42.86195872" lon="13.43743432">
        <ele>548.00000</ele>
        <time>2024-02-02T13:20:30Z</time>
      </trkpt>
      <trkpt lat="42.86193751" lon="13.43743264">
        <ele>548.00000</ele>
        <time>2024-02-02T13:20:31Z</time>
      </trkpt>
      <trkpt lat="42.86192150" lon="13.43742988">
        <ele>548.00000</ele>
        <time>2024-02-02T13:20:32Z</time>
      </trkpt>
      <trkpt lat="42.86190591" lon="13.43742887">
        <ele>549.00000</ele>
        <time>2024-02-02T13:20:33Z</time>
      </trkpt>
      <trkpt lat="42.86188705" lon="13.43742711">
        <ele>549.00000</ele>
        <time>2024-02-02T13:20:34Z</time>
      </trkpt>
      <trkpt lat="42.86186752" lon="13.43742501">
        <ele>549.00000</ele>
        <time>2024-02-02T13:20:35Z</time>
      </trkpt>
      <trkpt lat="42.86184380" lon="13.43742887">
        <ele>550.00000</ele>
        <time>2024-02-02T13:20:36Z</time>
      </trkpt>
      <trkpt lat="42.86181899" lon="13.43743155">
        <ele>550.00000</ele>
        <time>2024-02-02T13:20:37Z</time>
      </trkpt>
      <trkpt lat="42.86179502" lon="13.43742786">
        <ele>551.00000</ele>
        <time>2024-02-02T13:20:38Z</time>
      </trkpt>
      <trkpt lat="42.86176736" lon="13.43742778">
        <ele>551.00000</ele>
        <time>2024-02-02T13:20:39Z</time>
      </trkpt>
      <trkpt lat="42.86174381" lon="13.43742795">
        <ele>551.00000</ele>
        <time>2024-02-02T13:20:40Z</time>
      </trkpt>
      <trkpt lat="42.86172755" lon="13.43742661">
        <ele>552.00000</ele>
        <time>2024-02-02T13:20:41Z</time>
      </trkpt>
      <trkpt lat="42.86171313" lon="13.43742342">
        <ele>552.00000</ele>
        <time>2024-02-02T13:20:42Z</time>
      </trkpt>
      <trkpt lat="42.86169293" lon="13.43742820">
        <ele>552.00000</ele>
        <time>2024-02-02T13:20:43Z</time>
      </trkpt>
      <trkpt lat="42.86167130" lon="13.43743105">
        <ele>553.00000</ele>
        <time>2024-02-02T13:20:44Z</time>
      </trkpt>
      <trkpt lat="42.86164926" lon="13.43743222">
        <ele>553.00000</ele>
        <time>2024-02-02T13:20:45Z</time>
      </trkpt>
      <trkpt lat="42.86162403" lon="13.43743331">
        <ele>553.00000</ele>
        <time>2024-02-02T13:20:46Z</time>
      </trkpt>
      <trkpt lat="42.86159402" lon="13.43743708">
        <ele>553.00000</ele>
        <time>2024-02-02T13:20:47Z</time>
      </trkpt>
      <trkpt lat="42.86156309" lon="13.43744060">
        <ele>553.00000</ele>
        <time>2024-02-02T13:20:48Z</time>
      </trkpt>
      <trkpt lat="42.86153493" lon="13.43744035">
        <ele>553.00000</ele>
        <time>2024-02-02T13:20:49Z</time>
      </trkpt>
      <trkpt lat="42.86150467" lon="13.43744077">
        <ele>554.00000</ele>
        <time>2024-02-02T13:20:50Z</time>
      </trkpt>
      <trkpt lat="42.86147768" lon="13.43744337">
        <ele>554.00000</ele>
        <time>2024-02-02T13:20:51Z</time>
      </trkpt>
      <trkpt lat="42.86144994" lon="13.43744538">
        <ele>554.00000</ele>
        <time>2024-02-02T13:20:52Z</time>
      </trkpt>
      <trkpt lat="42.86142102" lon="13.43744773">
        <ele>554.00000</ele>
        <time>2024-02-02T13:20:53Z</time>
      </trkpt>
      <trkpt lat="42.86139277" lon="13.43745108">
        <ele>554.00000</ele>
        <time>2024-02-02T13:20:54Z</time>
      </trkpt>
      <trkpt lat="42.86136629" lon="13.43745301">
        <ele>554.00000</ele>
        <time>2024-02-02T13:20:55Z</time>
      </trkpt>
      <trkpt lat="42.86134944" lon="13.43744848">
        <ele>554.00000</ele>
        <time>2024-02-02T13:20:56Z</time>
      </trkpt>
      <trkpt lat="42.86133049" lon="13.43744748">
        <ele>554.00000</ele>
        <time>2024-02-02T13:20:57Z</time>
      </trkpt>
      <trkpt lat="42.86130451" lon="13.43744806">
        <ele>554.00000</ele>
        <time>2024-02-02T13:20:58Z</time>
      </trkpt>
      <trkpt lat="42.86127895" lon="13.43744597">
        <ele>554.00000</ele>
        <time>2024-02-02T13:20:59Z</time>
      </trkpt>
      <trkpt lat="42.86125296" lon="13.43744329">
        <ele>554.00000</ele>
        <time>2024-02-02T13:21:00Z</time>
      </trkpt>
      <trkpt lat="42.86122765" lon="13.43744278">
        <ele>554.00000</ele>
        <time>2024-02-02T13:21:01Z</time>
      </trkpt>
      <trkpt lat="42.86120535" lon="13.43744019">
        <ele>555.00000</ele>
        <time>2024-02-02T13:21:02Z</time>
      </trkpt>
      <trkpt lat="42.86117996" lon="13.43744119">
        <ele>555.00000</ele>
        <time>2024-02-02T13:21:03Z</time>
      </trkpt>
      <trkpt lat="42.86115590" lon="13.43744111">
        <ele>555.00000</ele>
        <time>2024-02-02T13:21:04Z</time>
      </trkpt>
      <trkpt lat="42.86113444" lon="13.43744136">
        <ele>555.00000</ele>
        <time>2024-02-02T13:21:05Z</time>
      </trkpt>
      <trkpt lat="42.86111248" lon="13.43744077">
        <ele>555.00000</ele>
        <time>2024-02-02T13:21:06Z</time>
      </trkpt>
      <trkpt lat="42.86109044" lon="13.43744035">
        <ele>555.00000</ele>
        <time>2024-02-02T13:21:07Z</time>
      </trkpt>
      <trkpt lat="42.86106755" lon="13.43743884">
        <ele>555.00000</ele>
        <time>2024-02-02T13:21:08Z</time>
      </trkpt>
      <trkpt lat="42.86104174" lon="13.43743516">
        <ele>556.00000</ele>
        <time>2024-02-02T13:21:09Z</time>
      </trkpt>
      <trkpt lat="42.86101710" lon="13.43743113">
        <ele>556.00000</ele>
        <time>2024-02-02T13:21:10Z</time>
      </trkpt>
      <trkpt lat="42.86099463" lon="13.43742535">
        <ele>556.00000</ele>
        <time>2024-02-02T13:21:11Z</time>
      </trkpt>
      <trkpt lat="42.86097443" lon="13.43741856">
        <ele>557.00000</ele>
        <time>2024-02-02T13:21:12Z</time>
      </trkpt>
      <trkpt lat="42.86095633" lon="13.43741521">
        <ele>557.00000</ele>
        <time>2024-02-02T13:21:13Z</time>
      </trkpt>
      <trkpt lat="42.86093789" lon="13.43741387">
        <ele>557.00000</ele>
        <time>2024-02-02T13:21:14Z</time>
      </trkpt>
      <trkpt lat="42.86091760" lon="13.43741102">
        <ele>558.00000</ele>
        <time>2024-02-02T13:21:15Z</time>
      </trkpt>
      <trkpt lat="42.86089774" lon="13.43740188">
        <ele>558.00000</ele>
        <time>2024-02-02T13:21:16Z</time>
      </trkpt>
      <trkpt lat="42.86087938" lon="13.43739065">
        <ele>559.00000</ele>
        <time>2024-02-02T13:21:17Z</time>
      </trkpt>
      <trkpt lat="42.86085926" lon="13.43737958">
        <ele>560.00000</ele>
        <time>2024-02-02T13:21:18Z</time>
      </trkpt>
      <trkpt lat="42.86083864" lon="13.43736542">
        <ele>560.00000</ele>
        <time>2024-02-02T13:21:19Z</time>
      </trkpt>
      <trkpt lat="42.86081274" lon="13.43735595">
        <ele>561.00000</ele>
        <time>2024-02-02T13:21:20Z</time>
      </trkpt>
      <trkpt lat="42.86078777" lon="13.43734790">
        <ele>562.00000</ele>
        <time>2024-02-02T13:21:21Z</time>
      </trkpt>
      <trkpt lat="42.86077285" lon="13.43733558">
        <ele>562.00000</ele>
        <time>2024-02-02T13:21:22Z</time>
      </trkpt>
      <trkpt lat="42.86076254" lon="13.43731764">
        <ele>563.00000</ele>
        <time>2024-02-02T13:21:23Z</time>
      </trkpt>
      <trkpt lat="42.86075374" lon="13.43729887">
        <ele>564.00000</ele>
        <time>2024-02-02T13:21:24Z</time>
      </trkpt>
      <trkpt lat="42.86074334" lon="13.43728562">
        <ele>565.00000</ele>
        <time>2024-02-02T13:21:25Z</time>
      </trkpt>
      <trkpt lat="42.86073060" lon="13.43727070">
        <ele>565.00000</ele>
        <time>2024-02-02T13:21:26Z</time>
      </trkpt>
      <trkpt lat="42.86071434" lon="13.43725930">
        <ele>566.00000</ele>
        <time>2024-02-02T13:21:27Z</time>
      </trkpt>
      <trkpt lat="42.86069808" lon="13.43725034">
        <ele>566.00000</ele>
        <time>2024-02-02T13:21:28Z</time>
      </trkpt>
      <trkpt lat="42.86067872" lon="13.43724170">
        <ele>567.00000</ele>
        <time>2024-02-02T13:21:29Z</time>
      </trkpt>
      <trkpt lat="42.86065810" lon="13.43723407">
        <ele>568.00000</ele>
        <time>2024-02-02T13:21:30Z</time>
      </trkpt>
      <trkpt lat="42.86063723" lon="13.43722527">
        <ele>568.00000</ele>
        <time>2024-02-02T13:21:31Z</time>
      </trkpt>
      <trkpt lat="42.86061703" lon="13.43721698">
        <ele>569.00000</ele>
        <time>2024-02-02T13:21:32Z</time>
      </trkpt>
      <trkpt lat="42.86059398" lon="13.43721354">
        <ele>569.00000</ele>
        <time>2024-02-02T13:21:33Z</time>
      </trkpt>
      <trkpt lat="42.86057260" lon="13.43721069">
        <ele>569.00000</ele>
        <time>2024-02-02T13:21:34Z</time>
      </trkpt>
      <trkpt lat="42.86055316" lon="13.43720801">
        <ele>569.00000</ele>
        <time>2024-02-02T13:21:35Z</time>
      </trkpt>
      <trkpt lat="42.86053271" lon="13.43720273">
        <ele>569.00000</ele>
        <time>2024-02-02T13:21:36Z</time>
      </trkpt>
      <trkpt lat="42.86051242" lon="13.43720197">
        <ele>569.00000</ele>
        <time>2024-02-02T13:21:37Z</time>
      </trkpt>
      <trkpt lat="42.86049281" lon="13.43720298">
        <ele>569.00000</ele>
        <time>2024-02-02T13:21:38Z</time>
      </trkpt>
      <trkpt lat="42.86047428" lon="13.43720524">
        <ele>569.00000</ele>
        <time>2024-02-02T13:21:39Z</time>
      </trkpt>
      <trkpt lat="42.86045584" lon="13.43721128">
        <ele>569.00000</ele>
        <time>2024-02-02T13:21:40Z</time>
      </trkpt>
      <trkpt lat="42.86043556" lon="13.43721563">
        <ele>569.00000</ele>
        <time>2024-02-02T13:21:41Z</time>
      </trkpt>
      <trkpt lat="42.86041494" lon="13.43721790">
        <ele>569.00000</ele>
        <time>2024-02-02T13:21:42Z</time>
      </trkpt>
      <trkpt lat="42.86039541" lon="13.43722008">
        <ele>569.00000</ele>
        <time>2024-02-02T13:21:43Z</time>
      </trkpt>
      <trkpt lat="42.86037571" lon="13.43723030">
        <ele>569.00000</ele>
        <time>2024-02-02T13:21:44Z</time>
      </trkpt>
      <trkpt lat="42.86035845" lon="13.43724070">
        <ele>569.00000</ele>
        <time>2024-02-02T13:21:45Z</time>
      </trkpt>
      <trkpt lat="42.86034378" lon="13.43725101">
        <ele>569.00000</ele>
        <time>2024-02-02T13:21:46Z</time>
      </trkpt>
      <trkpt lat="42.86032726" lon="13.43725997">
        <ele>569.00000</ele>
        <time>2024-02-02T13:21:47Z</time>
      </trkpt>
      <trkpt lat="42.86030304" lon="13.43726785">
        <ele>569.00000</ele>
        <time>2024-02-02T13:21:48Z</time>
      </trkpt>
      <trkpt lat="42.86027974" lon="13.43727355">
        <ele>569.00000</ele>
        <time>2024-02-02T13:21:49Z</time>
      </trkpt>
      <trkpt lat="42.86026122" lon="13.43727657">
        <ele>569.00000</ele>
        <time>2024-02-02T13:21:50Z</time>
      </trkpt>
      <trkpt lat="42.86024428" lon="13.43728202">
        <ele>569.00000</ele>
        <time>2024-02-02T13:21:51Z</time>
      </trkpt>
      <trkpt lat="42.86022702" lon="13.43728696">
        <ele>569.00000</ele>
        <time>2024-02-02T13:21:52Z</time>
      </trkpt>
      <trkpt lat="42.86020942" lon="13.43729032">
        <ele>569.00000</ele>
        <time>2024-02-02T13:21:53Z</time>
      </trkpt>
      <trkpt lat="42.86018888" lon="13.43729317">
        <ele>569.00000</ele>
        <time>2024-02-02T13:21:54Z</time>
      </trkpt>
      <trkpt lat="42.86016960" lon="13.43729442">
        <ele>569.00000</ele>
        <time>2024-02-02T13:21:55Z</time>
      </trkpt>
      <trkpt lat="42.86015074" lon="13.43729526">
        <ele>569.00000</ele>
        <time>2024-02-02T13:21:56Z</time>
      </trkpt>
      <trkpt lat="42.86013188" lon="13.43729493">
        <ele>570.00000</ele>
        <time>2024-02-02T13:21:57Z</time>
      </trkpt>
      <trkpt lat="42.86011294" lon="13.43729970">
        <ele>570.00000</ele>
        <time>2024-02-02T13:21:58Z</time>
      </trkpt>
      <trkpt lat="42.86009257" lon="13.43730591">
        <ele>570.00000</ele>
        <time>2024-02-02T13:21:59Z</time>
      </trkpt>
      <trkpt lat="42.86007539" lon="13.43730934">
        <ele>570.00000</ele>
        <time>2024-02-02T13:22:00Z</time>
      </trkpt>
      <trkpt lat="42.86005821" lon="13.43731169">
        <ele>570.00000</ele>
        <time>2024-02-02T13:22:01Z</time>
      </trkpt>
      <trkpt lat="42.86003566" lon="13.43731672">
        <ele>570.00000</ele>
        <time>2024-02-02T13:22:02Z</time>
      </trkpt>
      <trkpt lat="42.86001160" lon="13.43732049">
        <ele>570.00000</ele>
        <time>2024-02-02T13:22:03Z</time>
      </trkpt>
      <trkpt lat="42.85998763" lon="13.43732418">
        <ele>571.00000</ele>
        <time>2024-02-02T13:22:04Z</time>
      </trkpt>
      <trkpt lat="42.85996517" lon="13.43732971">
        <ele>571.00000</ele>
        <time>2024-02-02T13:22:05Z</time>
      </trkpt>
      <trkpt lat="42.85994505" lon="13.43733482">
        <ele>572.00000</ele>
        <time>2024-02-02T13:22:06Z</time>
      </trkpt>
      <trkpt lat="42.85992393" lon="13.43733935">
        <ele>572.00000</ele>
        <time>2024-02-02T13:22:07Z</time>
      </trkpt>
      <trkpt lat="42.85990440" lon="13.43734354">
        <ele>573.00000</ele>
        <time>2024-02-02T13:22:08Z</time>
      </trkpt>
      <trkpt lat="42.85988545" lon="13.43734606">
        <ele>573.00000</ele>
        <time>2024-02-02T13:22:09Z</time>
      </trkpt>
      <trkpt lat="42.85986894" lon="13.43734715">
        <ele>573.00000</ele>
        <time>2024-02-02T13:22:10Z</time>
      </trkpt>
      <trkpt lat="42.85984983" lon="13.43734614">
        <ele>574.00000</ele>
        <time>2024-02-02T13:22:11Z</time>
      </trkpt>
      <trkpt lat="42.85982980" lon="13.43734388">
        <ele>574.00000</ele>
        <time>2024-02-02T13:22:12Z</time>
      </trkpt>
      <trkpt lat="42.85980843" lon="13.43733692">
        <ele>575.00000</ele>
        <time>2024-02-02T13:22:13Z</time>
      </trkpt>
      <trkpt lat="42.85978655" lon="13.43732745">
        <ele>576.00000</ele>
        <time>2024-02-02T13:22:14Z</time>
      </trkpt>
      <trkpt lat="42.85976643" lon="13.43731714">
        <ele>576.00000</ele>
        <time>2024-02-02T13:22:15Z</time>
      </trkpt>
      <trkpt lat="42.85974623" lon="13.43731001">
        <ele>577.00000</ele>
        <time>2024-02-02T13:22:16Z</time>
      </trkpt>
      <trkpt lat="42.85972360" lon="13.43730960">
        <ele>577.00000</ele>
        <time>2024-02-02T13:22:17Z</time>
      </trkpt>
      <trkpt lat="42.85969871" lon="13.43731278">
        <ele>578.00000</ele>
        <time>2024-02-02T13:22:18Z</time>
      </trkpt>
      <trkpt lat="42.85966996" lon="13.43731379">
        <ele>578.00000</ele>
        <time>2024-02-02T13:22:19Z</time>
      </trkpt>
      <trkpt lat="42.85964171" lon="13.43731345">
        <ele>579.00000</ele>
        <time>2024-02-02T13:22:20Z</time>
      </trkpt>
      <trkpt lat="42.85961371" lon="13.43731102">
        <ele>579.00000</ele>
        <time>2024-02-02T13:22:21Z</time>
      </trkpt>
      <trkpt lat="42.85958857" lon="13.43730951">
        <ele>579.00000</ele>
        <time>2024-02-02T13:22:22Z</time>
      </trkpt>
      <trkpt lat="42.85956191" lon="13.43730892">
        <ele>580.00000</ele>
        <time>2024-02-02T13:22:23Z</time>
      </trkpt>
      <trkpt lat="42.85953626" lon="13.43730691">
        <ele>580.00000</ele>
        <time>2024-02-02T13:22:24Z</time>
      </trkpt>
      <trkpt lat="42.85951036" lon="13.43731211">
        <ele>581.00000</ele>
        <time>2024-02-02T13:22:25Z</time>
      </trkpt>
      <trkpt lat="42.85948581" lon="13.43732066">
        <ele>581.00000</ele>
        <time>2024-02-02T13:22:26Z</time>
      </trkpt>
      <trkpt lat="42.85946116" lon="13.43732678">
        <ele>581.00000</ele>
        <time>2024-02-02T13:22:27Z</time>
      </trkpt>
      <trkpt lat="42.85943602" lon="13.43733306">
        <ele>582.00000</ele>
        <time>2024-02-02T13:22:28Z</time>
      </trkpt>
      <trkpt lat="42.85941037" lon="13.43734455">
        <ele>582.00000</ele>
        <time>2024-02-02T13:22:29Z</time>
      </trkpt>
      <trkpt lat="42.85938329" lon="13.43735804">
        <ele>582.00000</ele>
        <time>2024-02-02T13:22:30Z</time>
      </trkpt>
      <trkpt lat="42.85935513" lon="13.43737238">
        <ele>582.00000</ele>
        <time>2024-02-02T13:22:31Z</time>
      </trkpt>
      <trkpt lat="42.85932940" lon="13.43738126">
        <ele>582.00000</ele>
        <time>2024-02-02T13:22:32Z</time>
      </trkpt>
      <trkpt lat="42.85930300" lon="13.43738554">
        <ele>583.00000</ele>
        <time>2024-02-02T13:22:33Z</time>
      </trkpt>
      <trkpt lat="42.85927483" lon="13.43738604">
        <ele>583.00000</ele>
        <time>2024-02-02T13:22:34Z</time>
      </trkpt>
      <trkpt lat="42.85924726" lon="13.43738763">
        <ele>583.00000</ele>
        <time>2024-02-02T13:22:35Z</time>
      </trkpt>
      <trkpt lat="42.85922119" lon="13.43738889">
        <ele>584.00000</ele>
        <time>2024-02-02T13:22:36Z</time>
      </trkpt>
      <trkpt lat="42.85919420" lon="13.43739124">
        <ele>584.00000</ele>
        <time>2024-02-02T13:22:37Z</time>
      </trkpt>
      <trkpt lat="42.85916604" lon="13.43739551">
        <ele>584.00000</ele>
        <time>2024-02-02T13:22:38Z</time>
      </trkpt>
      <trkpt lat="42.85913921" lon="13.43740465">
        <ele>584.00000</ele>
        <time>2024-02-02T13:22:39Z</time>
      </trkpt>
      <trkpt lat="42.85911432" lon="13.43741345">
        <ele>585.00000</ele>
        <time>2024-02-02T13:22:40Z</time>
      </trkpt>
      <trkpt lat="42.85908666" lon="13.43742183">
        <ele>585.00000</ele>
        <time>2024-02-02T13:22:41Z</time>
      </trkpt>
      <trkpt lat="42.85905640" lon="13.43742602">
        <ele>585.00000</ele>
        <time>2024-02-02T13:22:42Z</time>
      </trkpt>
      <trkpt lat="42.85902581" lon="13.43743172">
        <ele>585.00000</ele>
        <time>2024-02-02T13:22:43Z</time>
      </trkpt>
      <trkpt lat="42.85899446" lon="13.43744287">
        <ele>586.00000</ele>
        <time>2024-02-02T13:22:44Z</time>
      </trkpt>
      <trkpt lat="42.85896110" lon="13.43745737">
        <ele>586.00000</ele>
        <time>2024-02-02T13:22:45Z</time>
      </trkpt>
      <trkpt lat="42.85892673" lon="13.43747455">
        <ele>587.00000</ele>
        <time>2024-02-02T13:22:46Z</time>
      </trkpt>
      <trkpt lat="42.85889304" lon="13.43749534">
        <ele>587.00000</ele>
        <time>2024-02-02T13:22:47Z</time>
      </trkpt>
      <trkpt lat="42.85885917" lon="13.43751973">
        <ele>587.00000</ele>
        <time>2024-02-02T13:22:48Z</time>
      </trkpt>
      <trkpt lat="42.85882397" lon="13.43754655">
        <ele>587.00000</ele>
        <time>2024-02-02T13:22:49Z</time>
      </trkpt>
      <trkpt lat="42.85878634" lon="13.43757354">
        <ele>587.00000</ele>
        <time>2024-02-02T13:22:50Z</time>
      </trkpt>
      <trkpt lat="42.85874451" lon="13.43759743">
        <ele>587.00000</ele>
        <time>2024-02-02T13:22:51Z</time>
      </trkpt>
      <trkpt lat="42.85870067" lon="13.43761989">
        <ele>588.00000</ele>
        <time>2024-02-02T13:22:52Z</time>
      </trkpt>
      <trkpt lat="42.85865994" lon="13.43764504">
        <ele>588.00000</ele>
        <time>2024-02-02T13:22:53Z</time>
      </trkpt>
      <trkpt lat="42.85862012" lon="13.43766817">
        <ele>588.00000</ele>
        <time>2024-02-02T13:22:54Z</time>
      </trkpt>
      <trkpt lat="42.85858173" lon="13.43769206">
        <ele>589.00000</ele>
        <time>2024-02-02T13:22:55Z</time>
      </trkpt>
      <trkpt lat="42.85854737" lon="13.43771578">
        <ele>589.00000</ele>
        <time>2024-02-02T13:22:56Z</time>
      </trkpt>
      <trkpt lat="42.85850990" lon="13.43773682">
        <ele>590.00000</ele>
        <time>2024-02-02T13:22:57Z</time>
      </trkpt>
      <trkpt lat="42.85847671" lon="13.43775878">
        <ele>590.00000</ele>
        <time>2024-02-02T13:22:58Z</time>
      </trkpt>
      <trkpt lat="42.85845357" lon="13.43777412">
        <ele>591.00000</ele>
        <time>2024-02-02T13:22:59Z</time>
      </trkpt>
      <trkpt lat="42.85843103" lon="13.43779114">
        <ele>591.00000</ele>
        <time>2024-02-02T13:23:00Z</time>
      </trkpt>
      <trkpt lat="42.85840018" lon="13.43782089">
        <ele>590.00000</ele>
        <time>2024-02-02T13:23:01Z</time>
      </trkpt>
      <trkpt lat="42.85836791" lon="13.43785266">
        <ele>590.00000</ele>
        <time>2024-02-02T13:23:02Z</time>
      </trkpt>
      <trkpt lat="42.85834126" lon="13.43787797">
        <ele>590.00000</ele>
        <time>2024-02-02T13:23:03Z</time>
      </trkpt>
      <trkpt lat="42.85831594" lon="13.43790220">
        <ele>590.00000</ele>
        <time>2024-02-02T13:23:04Z</time>
      </trkpt>
      <trkpt lat="42.85829658" lon="13.43792357">
        <ele>590.00000</ele>
        <time>2024-02-02T13:23:05Z</time>
      </trkpt>
      <trkpt lat="42.85827772" lon="13.43794654">
        <ele>590.00000</ele>
        <time>2024-02-02T13:23:06Z</time>
      </trkpt>
      <trkpt lat="42.85825970" lon="13.43796615">
        <ele>591.00000</ele>
        <time>2024-02-02T13:23:07Z</time>
      </trkpt>
      <trkpt lat="42.85824545" lon="13.43798275">
        <ele>591.00000</ele>
        <time>2024-02-02T13:23:08Z</time>
      </trkpt>
      <trkpt lat="42.85823003" lon="13.43800269">
        <ele>591.00000</ele>
        <time>2024-02-02T13:23:09Z</time>
      </trkpt>
      <trkpt lat="42.85821528" lon="13.43802281">
        <ele>592.00000</ele>
        <time>2024-02-02T13:23:10Z</time>
      </trkpt>
      <trkpt lat="42.85820212" lon="13.43804377">
        <ele>592.00000</ele>
        <time>2024-02-02T13:23:11Z</time>
      </trkpt>
      <trkpt lat="42.85818988" lon="13.43806916">
        <ele>593.00000</ele>
        <time>2024-02-02T13:23:12Z</time>
      </trkpt>
      <trkpt lat="42.85817982" lon="13.43808769">
        <ele>593.00000</ele>
        <time>2024-02-02T13:23:13Z</time>
      </trkpt>
      <trkpt lat="42.85816515" lon="13.43810546">
        <ele>593.00000</ele>
        <time>2024-02-02T13:23:14Z</time>
      </trkpt>
      <trkpt lat="42.85815015" lon="13.43812583">
        <ele>593.00000</ele>
        <time>2024-02-02T13:23:15Z</time>
      </trkpt>
      <trkpt lat="42.85813263" lon="13.43814946">
        <ele>594.00000</ele>
        <time>2024-02-02T13:23:16Z</time>
      </trkpt>
      <trkpt lat="42.85811436" lon="13.43816899">
        <ele>594.00000</ele>
        <time>2024-02-02T13:23:17Z</time>
      </trkpt>
      <trkpt lat="42.85809986" lon="13.43819171">
        <ele>595.00000</ele>
        <time>2024-02-02T13:23:18Z</time>
      </trkpt>
      <trkpt lat="42.85808921" lon="13.43820713">
        <ele>595.00000</ele>
        <time>2024-02-02T13:23:19Z</time>
      </trkpt>
      <trkpt lat="42.85807890" lon="13.43822741">
        <ele>595.00000</ele>
        <time>2024-02-02T13:23:20Z</time>
      </trkpt>
      <trkpt lat="42.85806432" lon="13.43824552">
        <ele>595.00000</ele>
        <time>2024-02-02T13:23:21Z</time>
      </trkpt>
      <trkpt lat="42.85805057" lon="13.43826740">
        <ele>596.00000</ele>
        <time>2024-02-02T13:23:22Z</time>
      </trkpt>
      <trkpt lat="42.85803180" lon="13.43829304">
        <ele>596.00000</ele>
        <time>2024-02-02T13:23:23Z</time>
      </trkpt>
      <trkpt lat="42.85801168" lon="13.43831266">
        <ele>597.00000</ele>
        <time>2024-02-02T13:23:24Z</time>
      </trkpt>
      <trkpt lat="42.85798570" lon="13.43833378">
        <ele>598.00000</ele>
        <time>2024-02-02T13:23:25Z</time>
      </trkpt>
      <trkpt lat="42.85796072" lon="13.43835390">
        <ele>599.00000</ele>
        <time>2024-02-02T13:23:26Z</time>
      </trkpt>
      <trkpt lat="42.85794697" lon="13.43837619">
        <ele>599.00000</ele>
        <time>2024-02-02T13:23:27Z</time>
      </trkpt>
      <trkpt lat="42.85793700" lon="13.43838902">
        <ele>599.00000</ele>
        <time>2024-02-02T13:23:28Z</time>
      </trkpt>
      <trkpt lat="42.85793046" lon="13.43840335">
        <ele>599.00000</ele>
        <time>2024-02-02T13:23:29Z</time>
      </trkpt>
      <trkpt lat="42.85791747" lon="13.43841567">
        <ele>600.00000</ele>
        <time>2024-02-02T13:23:30Z</time>
      </trkpt>
      <trkpt lat="42.85790154" lon="13.43843093">
        <ele>600.00000</ele>
        <time>2024-02-02T13:23:31Z</time>
      </trkpt>
      <trkpt lat="42.85788243" lon="13.43844618">
        <ele>601.00000</ele>
        <time>2024-02-02T13:23:32Z</time>
      </trkpt>
      <trkpt lat="42.85786407" lon="13.43845984">
        <ele>601.00000</ele>
        <time>2024-02-02T13:23:33Z</time>
      </trkpt>
      <trkpt lat="42.85784421" lon="13.43847300">
        <ele>602.00000</ele>
        <time>2024-02-02T13:23:34Z</time>
      </trkpt>
      <trkpt lat="42.85782409" lon="13.43848851">
        <ele>603.00000</ele>
        <time>2024-02-02T13:23:35Z</time>
      </trkpt>
      <trkpt lat="42.85780347" lon="13.43850720">
        <ele>603.00000</ele>
        <time>2024-02-02T13:23:36Z</time>
      </trkpt>
      <trkpt lat="42.85778420" lon="13.43852464">
        <ele>603.00000</ele>
        <time>2024-02-02T13:23:37Z</time>
      </trkpt>
      <trkpt lat="42.85776726" lon="13.43853536">
        <ele>604.00000</ele>
        <time>2024-02-02T13:23:38Z</time>
      </trkpt>
      <trkpt lat="42.85774723" lon="13.43854324">
        <ele>604.00000</ele>
        <time>2024-02-02T13:23:39Z</time>
      </trkpt>
      <trkpt lat="42.85772494" lon="13.43855221">
        <ele>605.00000</ele>
        <time>2024-02-02T13:23:40Z</time>
      </trkpt>
      <trkpt lat="42.85770222" lon="13.43856160">
        <ele>605.00000</ele>
        <time>2024-02-02T13:23:41Z</time>
      </trkpt>
      <trkpt lat="42.85767808" lon="13.43857124">
        <ele>606.00000</ele>
        <time>2024-02-02T13:23:42Z</time>
      </trkpt>
      <trkpt lat="42.85765101" lon="13.43858306">
        <ele>606.00000</ele>
        <time>2024-02-02T13:23:43Z</time>
      </trkpt>
      <trkpt lat="42.85762762" lon="13.43859613">
        <ele>607.00000</ele>
        <time>2024-02-02T13:23:44Z</time>
      </trkpt>
      <trkpt lat="42.85760725" lon="13.43860778">
        <ele>607.00000</ele>
        <time>2024-02-02T13:23:45Z</time>
      </trkpt>
      <trkpt lat="42.85758747" lon="13.43861835">
        <ele>607.00000</ele>
        <time>2024-02-02T13:23:46Z</time>
      </trkpt>
      <trkpt lat="42.85756786" lon="13.43862924">
        <ele>608.00000</ele>
        <time>2024-02-02T13:23:47Z</time>
      </trkpt>
      <trkpt lat="42.85754682" lon="13.43863762">
        <ele>608.00000</ele>
        <time>2024-02-02T13:23:48Z</time>
      </trkpt>
      <trkpt lat="42.85752603" lon="13.43864793">
        <ele>609.00000</ele>
        <time>2024-02-02T13:23:49Z</time>
      </trkpt>
      <trkpt lat="42.85750223" lon="13.43866411">
        <ele>609.00000</ele>
        <time>2024-02-02T13:23:50Z</time>
      </trkpt>
      <trkpt lat="42.85748211" lon="13.43867534">
        <ele>609.00000</ele>
        <time>2024-02-02T13:23:51Z</time>
      </trkpt>
      <trkpt lat="42.85746015" lon="13.43869320">
        <ele>609.00000</ele>
        <time>2024-02-02T13:23:52Z</time>
      </trkpt>
      <trkpt lat="42.85743635" lon="13.43870493">
        <ele>610.00000</ele>
        <time>2024-02-02T13:23:53Z</time>
      </trkpt>
      <trkpt lat="42.85740994" lon="13.43872488">
        <ele>610.00000</ele>
        <time>2024-02-02T13:23:54Z</time>
      </trkpt>
      <trkpt lat="42.85738404" lon="13.43874282">
        <ele>610.00000</ele>
        <time>2024-02-02T13:23:55Z</time>
      </trkpt>
      <trkpt lat="42.85735940" lon="13.43876251">
        <ele>611.00000</ele>
        <time>2024-02-02T13:23:56Z</time>
      </trkpt>
      <trkpt lat="42.85733694" lon="13.43878448">
        <ele>611.00000</ele>
        <time>2024-02-02T13:23:57Z</time>
      </trkpt>
      <trkpt lat="42.85732311" lon="13.43880342">
        <ele>611.00000</ele>
        <time>2024-02-02T13:23:58Z</time>
      </trkpt>
      <trkpt lat="42.85730240" lon="13.43881960">
        <ele>611.00000</ele>
        <time>2024-02-02T13:23:59Z</time>
      </trkpt>
      <trkpt lat="42.85728388" lon="13.43883292">
        <ele>612.00000</ele>
        <time>2024-02-02T13:24:00Z</time>
      </trkpt>
      <trkpt lat="42.85726393" lon="13.43885312">
        <ele>612.00000</ele>
        <time>2024-02-02T13:24:01Z</time>
      </trkpt>
      <trkpt lat="42.85724759" lon="13.43886980">
        <ele>612.00000</ele>
        <time>2024-02-02T13:24:02Z</time>
      </trkpt>
      <trkpt lat="42.85723116" lon="13.43888254">
        <ele>612.00000</ele>
        <time>2024-02-02T13:24:03Z</time>
      </trkpt>
      <trkpt lat="42.85721305" lon="13.43890383">
        <ele>613.00000</ele>
        <time>2024-02-02T13:24:04Z</time>
      </trkpt>
      <trkpt lat="42.85719361" lon="13.43892336">
        <ele>613.00000</ele>
        <time>2024-02-02T13:24:05Z</time>
      </trkpt>
      <trkpt lat="42.85716628" lon="13.43895153">
        <ele>613.00000</ele>
        <time>2024-02-02T13:24:06Z</time>
      </trkpt>
      <trkpt lat="42.85714516" lon="13.43897139">
        <ele>613.00000</ele>
        <time>2024-02-02T13:24:07Z</time>
      </trkpt>
      <trkpt lat="42.85712110" lon="13.43899243">
        <ele>614.00000</ele>
        <time>2024-02-02T13:24:08Z</time>
      </trkpt>
      <trkpt lat="42.85709755" lon="13.43900743">
        <ele>614.00000</ele>
        <time>2024-02-02T13:24:09Z</time>
      </trkpt>
      <trkpt lat="42.85707366" lon="13.43901657">
        <ele>615.00000</ele>
        <time>2024-02-02T13:24:10Z</time>
      </trkpt>
      <trkpt lat="42.85705765" lon="13.43902193">
        <ele>615.00000</ele>
        <time>2024-02-02T13:24:11Z</time>
      </trkpt>
      <trkpt lat="42.85703586" lon="13.43903878">
        <ele>615.00000</ele>
        <time>2024-02-02T13:24:12Z</time>
      </trkpt>
      <trkpt lat="42.85701541" lon="13.43905705">
        <ele>615.00000</ele>
        <time>2024-02-02T13:24:13Z</time>
      </trkpt>
      <trkpt lat="42.85699361" lon="13.43906896">
        <ele>616.00000</ele>
        <time>2024-02-02T13:24:14Z</time>
      </trkpt>
      <trkpt lat="42.85697467" lon="13.43907960">
        <ele>616.00000</ele>
        <time>2024-02-02T13:24:15Z</time>
      </trkpt>
      <trkpt lat="42.85695472" lon="13.43908379">
        <ele>617.00000</ele>
        <time>2024-02-02T13:24:16Z</time>
      </trkpt>
      <trkpt lat="42.85693385" lon="13.43908824">
        <ele>617.00000</ele>
        <time>2024-02-02T13:24:17Z</time>
      </trkpt>
      <trkpt lat="42.85691633" lon="13.43909176">
        <ele>618.00000</ele>
        <time>2024-02-02T13:24:18Z</time>
      </trkpt>
      <trkpt lat="42.85689898" lon="13.43909838">
        <ele>618.00000</ele>
        <time>2024-02-02T13:24:19Z</time>
      </trkpt>
      <trkpt lat="42.85688498" lon="13.43910374">
        <ele>618.00000</ele>
        <time>2024-02-02T13:24:20Z</time>
      </trkpt>
      <trkpt lat="42.85686839" lon="13.43911238">
        <ele>618.00000</ele>
        <time>2024-02-02T13:24:21Z</time>
      </trkpt>
      <trkpt lat="42.85684970" lon="13.43912118">
        <ele>619.00000</ele>
        <time>2024-02-02T13:24:22Z</time>
      </trkpt>
      <trkpt lat="42.85683000" lon="13.43912721">
        <ele>619.00000</ele>
        <time>2024-02-02T13:24:23Z</time>
      </trkpt>
      <trkpt lat="42.85681072" lon="13.43912755">
        <ele>620.00000</ele>
        <time>2024-02-02T13:24:24Z</time>
      </trkpt>
      <trkpt lat="42.85679329" lon="13.43912537">
        <ele>620.00000</ele>
        <time>2024-02-02T13:24:25Z</time>
      </trkpt>
      <trkpt lat="42.85677745" lon="13.43912436">
        <ele>621.00000</ele>
        <time>2024-02-02T13:24:26Z</time>
      </trkpt>
      <trkpt lat="42.85675976" lon="13.43912830">
        <ele>621.00000</ele>
        <time>2024-02-02T13:24:27Z</time>
      </trkpt>
      <trkpt lat="42.85673964" lon="13.43913794">
        <ele>621.00000</ele>
        <time>2024-02-02T13:24:28Z</time>
      </trkpt>
      <trkpt lat="42.85671525" lon="13.43914666">
        <ele>622.00000</ele>
        <time>2024-02-02T13:24:29Z</time>
      </trkpt>
      <trkpt lat="42.85669120" lon="13.43915781">
        <ele>622.00000</ele>
        <time>2024-02-02T13:24:30Z</time>
      </trkpt>
      <trkpt lat="42.85666538" lon="13.43916996">
        <ele>622.00000</ele>
        <time>2024-02-02T13:24:31Z</time>
      </trkpt>
      <trkpt lat="42.85663495" lon="13.43917901">
        <ele>623.00000</ele>
        <time>2024-02-02T13:24:32Z</time>
      </trkpt>
      <trkpt lat="42.85660654" lon="13.43918429">
        <ele>624.00000</ele>
        <time>2024-02-02T13:24:33Z</time>
      </trkpt>
      <trkpt lat="42.85657812" lon="13.43918832">
        <ele>624.00000</ele>
        <time>2024-02-02T13:24:34Z</time>
      </trkpt>
      <trkpt lat="42.85654954" lon="13.43919477">
        <ele>625.00000</ele>
        <time>2024-02-02T13:24:35Z</time>
      </trkpt>
      <trkpt lat="42.85652180" lon="13.43920013">
        <ele>626.00000</ele>
        <time>2024-02-02T13:24:36Z</time>
      </trkpt>
      <trkpt lat="42.85649238" lon="13.43920198">
        <ele>627.00000</ele>
        <time>2024-02-02T13:24:37Z</time>
      </trkpt>
      <trkpt lat="42.85646229" lon="13.43920416">
        <ele>628.00000</ele>
        <time>2024-02-02T13:24:38Z</time>
      </trkpt>
      <trkpt lat="42.85643471" lon="13.43920466">
        <ele>628.00000</ele>
        <time>2024-02-02T13:24:39Z</time>
      </trkpt>
      <trkpt lat="42.85641116" lon="13.43920994">
        <ele>629.00000</ele>
        <time>2024-02-02T13:24:40Z</time>
      </trkpt>
      <trkpt lat="42.85638894" lon="13.43922251">
        <ele>629.00000</ele>
        <time>2024-02-02T13:24:41Z</time>
      </trkpt>
      <trkpt lat="42.85636757" lon="13.43924037">
        <ele>630.00000</ele>
        <time>2024-02-02T13:24:42Z</time>
      </trkpt>
      <trkpt lat="42.85635097" lon="13.43926182">
        <ele>630.00000</ele>
        <time>2024-02-02T13:24:43Z</time>
      </trkpt>
      <trkpt lat="42.85633287" lon="13.43928881">
        <ele>630.00000</ele>
        <time>2024-02-02T13:24:44Z</time>
      </trkpt>
      <trkpt lat="42.85630856" lon="13.43932410">
        <ele>630.00000</ele>
        <time>2024-02-02T13:24:45Z</time>
      </trkpt>
      <trkpt lat="42.85628995" lon="13.43936274">
        <ele>630.00000</ele>
        <time>2024-02-02T13:24:46Z</time>
      </trkpt>
      <trkpt lat="42.85626799" lon="13.43940256">
        <ele>629.00000</ele>
        <time>2024-02-02T13:24:47Z</time>
      </trkpt>
      <trkpt lat="42.85624226" lon="13.43943650">
        <ele>629.00000</ele>
        <time>2024-02-02T13:24:48Z</time>
      </trkpt>
      <trkpt lat="42.85621670" lon="13.43946366">
        <ele>630.00000</ele>
        <time>2024-02-02T13:24:49Z</time>
      </trkpt>
      <trkpt lat="42.85618677" lon="13.43949216">
        <ele>631.00000</ele>
        <time>2024-02-02T13:24:50Z</time>
      </trkpt>
      <trkpt lat="42.85614143" lon="13.43953046">
        <ele>632.00000</ele>
        <time>2024-02-02T13:24:51Z</time>
      </trkpt>
      <trkpt lat="42.85610371" lon="13.43956709">
        <ele>632.00000</ele>
        <time>2024-02-02T13:24:52Z</time>
      </trkpt>
      <trkpt lat="42.85607445" lon="13.43960473">
        <ele>633.00000</ele>
        <time>2024-02-02T13:24:53Z</time>
      </trkpt>
      <trkpt lat="42.85604554" lon="13.43964681">
        <ele>633.00000</ele>
        <time>2024-02-02T13:24:54Z</time>
      </trkpt>
      <trkpt lat="42.85601737" lon="13.43968167">
        <ele>634.00000</ele>
        <time>2024-02-02T13:24:55Z</time>
      </trkpt>
      <trkpt lat="42.85599365" lon="13.43971193">
        <ele>634.00000</ele>
        <time>2024-02-02T13:24:56Z</time>
      </trkpt>
      <trkpt lat="42.85597111" lon="13.43974521">
        <ele>634.00000</ele>
        <time>2024-02-02T13:24:57Z</time>
      </trkpt>
      <trkpt lat="42.85595250" lon="13.43978159">
        <ele>635.00000</ele>
        <time>2024-02-02T13:24:58Z</time>
      </trkpt>
      <trkpt lat="42.85593800" lon="13.43981335">
        <ele>635.00000</ele>
        <time>2024-02-02T13:24:59Z</time>
      </trkpt>
      <trkpt lat="42.85592450" lon="13.43984680">
        <ele>635.00000</ele>
        <time>2024-02-02T13:25:00Z</time>
      </trkpt>
      <trkpt lat="42.85590799" lon="13.43988837">
        <ele>635.00000</ele>
        <time>2024-02-02T13:25:01Z</time>
      </trkpt>
      <trkpt lat="42.85589391" lon="13.43992324">
        <ele>636.00000</ele>
        <time>2024-02-02T13:25:02Z</time>
      </trkpt>
      <trkpt lat="42.85588125" lon="13.43996733">
        <ele>636.00000</ele>
        <time>2024-02-02T13:25:03Z</time>
      </trkpt>
      <trkpt lat="42.85586968" lon="13.44000781">
        <ele>636.00000</ele>
        <time>2024-02-02T13:25:04Z</time>
      </trkpt>
      <trkpt lat="42.85585979" lon="13.44005391">
        <ele>636.00000</ele>
        <time>2024-02-02T13:25:05Z</time>
      </trkpt>
      <trkpt lat="42.85585560" lon="13.44009482">
        <ele>637.00000</ele>
        <time>2024-02-02T13:25:06Z</time>
      </trkpt>
      <trkpt lat="42.85584798" lon="13.44013698">
        <ele>637.00000</ele>
        <time>2024-02-02T13:25:07Z</time>
      </trkpt>
      <trkpt lat="42.85585577" lon="13.44018191">
        <ele>637.00000</ele>
        <time>2024-02-02T13:25:08Z</time>
      </trkpt>
      <trkpt lat="42.85585393" lon="13.44023144">
        <ele>637.00000</ele>
        <time>2024-02-02T13:25:09Z</time>
      </trkpt>
      <trkpt lat="42.85585376" lon="13.44027545">
        <ele>638.00000</ele>
        <time>2024-02-02T13:25:10Z</time>
      </trkpt>
      <trkpt lat="42.85583909" lon="13.44032440">
        <ele>638.00000</ele>
        <time>2024-02-02T13:25:11Z</time>
      </trkpt>
      <trkpt lat="42.85583716" lon="13.44036279">
        <ele>637.00000</ele>
        <time>2024-02-02T13:25:12Z</time>
      </trkpt>
      <trkpt lat="42.85582954" lon="13.44040319">
        <ele>637.00000</ele>
        <time>2024-02-02T13:25:13Z</time>
      </trkpt>
      <trkpt lat="42.85582216" lon="13.44043873">
        <ele>637.00000</ele>
        <time>2024-02-02T13:25:14Z</time>
      </trkpt>
      <trkpt lat="42.85580967" lon="13.44047737">
        <ele>637.00000</ele>
        <time>2024-02-02T13:25:15Z</time>
      </trkpt>
      <trkpt lat="42.85578721" lon="13.44050964">
        <ele>637.00000</ele>
        <time>2024-02-02T13:25:16Z</time>
      </trkpt>
      <trkpt lat="42.85576005" lon="13.44053059">
        <ele>637.00000</ele>
        <time>2024-02-02T13:25:17Z</time>
      </trkpt>
      <trkpt lat="42.85573080" lon="13.44055046">
        <ele>638.00000</ele>
        <time>2024-02-02T13:25:18Z</time>
      </trkpt>
      <trkpt lat="42.85569911" lon="13.44056203">
        <ele>638.00000</ele>
        <time>2024-02-02T13:25:19Z</time>
      </trkpt>
      <trkpt lat="42.85566575" lon="13.44056756">
        <ele>639.00000</ele>
        <time>2024-02-02T13:25:20Z</time>
      </trkpt>
      <trkpt lat="42.85562803" lon="13.44057175">
        <ele>640.00000</ele>
        <time>2024-02-02T13:25:21Z</time>
      </trkpt>
      <trkpt lat="42.85558856" lon="13.44057192">
        <ele>641.00000</ele>
        <time>2024-02-02T13:25:22Z</time>
      </trkpt>
      <trkpt lat="42.85555025" lon="13.44056990">
        <ele>641.00000</ele>
        <time>2024-02-02T13:25:23Z</time>
      </trkpt>
      <trkpt lat="42.85551052" lon="13.44056840">
        <ele>641.00000</ele>
        <time>2024-02-02T13:25:24Z</time>
      </trkpt>
      <trkpt lat="42.85546174" lon="13.44056471">
        <ele>640.00000</ele>
        <time>2024-02-02T13:25:25Z</time>
      </trkpt>
      <trkpt lat="42.85540943" lon="13.44056823">
        <ele>640.00000</ele>
        <time>2024-02-02T13:25:26Z</time>
      </trkpt>
      <trkpt lat="42.85534976" lon="13.44058105">
        <ele>639.00000</ele>
        <time>2024-02-02T13:25:27Z</time>
      </trkpt>
      <trkpt lat="42.85528840" lon="13.44059329">
        <ele>639.00000</ele>
        <time>2024-02-02T13:25:28Z</time>
      </trkpt>
      <trkpt lat="42.85522771" lon="13.44061123">
        <ele>638.00000</ele>
        <time>2024-02-02T13:25:29Z</time>
      </trkpt>
      <trkpt lat="42.85517323" lon="13.44062942">
        <ele>638.00000</ele>
        <time>2024-02-02T13:25:30Z</time>
      </trkpt>
      <trkpt lat="42.85512487" lon="13.44064492">
        <ele>637.00000</ele>
        <time>2024-02-02T13:25:31Z</time>
      </trkpt>
      <trkpt lat="42.85507919" lon="13.44066261">
        <ele>637.00000</ele>
        <time>2024-02-02T13:25:32Z</time>
      </trkpt>
      <trkpt lat="42.85503636" lon="13.44067736">
        <ele>636.00000</ele>
        <time>2024-02-02T13:25:33Z</time>
      </trkpt>
      <trkpt lat="42.85499478" lon="13.44068876">
        <ele>636.00000</ele>
        <time>2024-02-02T13:25:34Z</time>
      </trkpt>
      <trkpt lat="42.85494457" lon="13.44070846">
        <ele>635.00000</ele>
        <time>2024-02-02T13:25:35Z</time>
      </trkpt>
      <trkpt lat="42.85489236" lon="13.44072966">
        <ele>635.00000</ele>
        <time>2024-02-02T13:25:36Z</time>
      </trkpt>
      <trkpt lat="42.85483955" lon="13.44075364">
        <ele>634.00000</ele>
        <time>2024-02-02T13:25:37Z</time>
      </trkpt>
      <trkpt lat="42.85478658" lon="13.44077962">
        <ele>634.00000</ele>
        <time>2024-02-02T13:25:38Z</time>
      </trkpt>
      <trkpt lat="42.85473503" lon="13.44080862">
        <ele>634.00000</ele>
        <time>2024-02-02T13:25:39Z</time>
      </trkpt>
      <trkpt lat="42.85468214" lon="13.44083653">
        <ele>633.00000</ele>
        <time>2024-02-02T13:25:40Z</time>
      </trkpt>
      <trkpt lat="42.85462254" lon="13.44086210">
        <ele>632.00000</ele>
        <time>2024-02-02T13:25:41Z</time>
      </trkpt>
      <trkpt lat="42.85456730" lon="13.44088490">
        <ele>631.00000</ele>
        <time>2024-02-02T13:25:42Z</time>
      </trkpt>
      <trkpt lat="42.85451240" lon="13.44090820">
        <ele>630.00000</ele>
        <time>2024-02-02T13:25:43Z</time>
      </trkpt>
      <trkpt lat="42.85445708" lon="13.44093284">
        <ele>629.00000</ele>
        <time>2024-02-02T13:25:44Z</time>
      </trkpt>
      <trkpt lat="42.85439665" lon="13.44095623">
        <ele>629.00000</ele>
        <time>2024-02-02T13:25:45Z</time>
      </trkpt>
      <trkpt lat="42.85433446" lon="13.44097961">
        <ele>628.00000</ele>
        <time>2024-02-02T13:25:46Z</time>
      </trkpt>
      <trkpt lat="42.85427092" lon="13.44100493">
        <ele>627.00000</ele>
        <time>2024-02-02T13:25:47Z</time>
      </trkpt>
      <trkpt lat="42.85420579" lon="13.44103259">
        <ele>626.00000</ele>
        <time>2024-02-02T13:25:48Z</time>
      </trkpt>
      <trkpt lat="42.85414142" lon="13.44106033">
        <ele>625.00000</ele>
        <time>2024-02-02T13:25:49Z</time>
      </trkpt>
      <trkpt lat="42.85407613" lon="13.44108958">
        <ele>625.00000</ele>
        <time>2024-02-02T13:25:50Z</time>
      </trkpt>
      <trkpt lat="42.85401276" lon="13.44112043">
        <ele>625.00000</ele>
        <time>2024-02-02T13:25:51Z</time>
      </trkpt>
      <trkpt lat="42.85395098" lon="13.44115681">
        <ele>625.00000</ele>
        <time>2024-02-02T13:25:52Z</time>
      </trkpt>
      <trkpt lat="42.85389700" lon="13.44119486">
        <ele>626.00000</ele>
        <time>2024-02-02T13:25:53Z</time>
      </trkpt>
      <trkpt lat="42.85384395" lon="13.44123006">
        <ele>626.00000</ele>
        <time>2024-02-02T13:25:54Z</time>
      </trkpt>
      <trkpt lat="42.85379114" lon="13.44126661">
        <ele>626.00000</ele>
        <time>2024-02-02T13:25:55Z</time>
      </trkpt>
      <trkpt lat="42.85374345" lon="13.44129645">
        <ele>626.00000</ele>
        <time>2024-02-02T13:25:56Z</time>
      </trkpt>
      <trkpt lat="42.85369550" lon="13.44132863">
        <ele>625.00000</ele>
        <time>2024-02-02T13:25:57Z</time>
      </trkpt>
      <trkpt lat="42.85364747" lon="13.44136107">
        <ele>625.00000</ele>
        <time>2024-02-02T13:25:58Z</time>
      </trkpt>
      <trkpt lat="42.85359609" lon="13.44139376">
        <ele>624.00000</ele>
        <time>2024-02-02T13:25:59Z</time>
      </trkpt>
      <trkpt lat="42.85354228" lon="13.44142570">
        <ele>623.00000</ele>
        <time>2024-02-02T13:26:00Z</time>
      </trkpt>
      <trkpt lat="42.85348973" lon="13.44146761">
        <ele>622.00000</ele>
        <time>2024-02-02T13:26:01Z</time>
      </trkpt>
      <trkpt lat="42.85343868" lon="13.44152066">
        <ele>622.00000</ele>
        <time>2024-02-02T13:26:02Z</time>
      </trkpt>
      <trkpt lat="42.85338881" lon="13.44157163">
        <ele>621.00000</ele>
        <time>2024-02-02T13:26:03Z</time>
      </trkpt>
      <trkpt lat="42.85333542" lon="13.44162158">
        <ele>621.00000</ele>
        <time>2024-02-02T13:26:04Z</time>
      </trkpt>
      <trkpt lat="42.85327909" lon="13.44166927">
        <ele>620.00000</ele>
        <time>2024-02-02T13:26:05Z</time>
      </trkpt>
      <trkpt lat="42.85321790" lon="13.44171613">
        <ele>619.00000</ele>
        <time>2024-02-02T13:26:06Z</time>
      </trkpt>
      <trkpt lat="42.85315118" lon="13.44176877">
        <ele>618.00000</ele>
        <time>2024-02-02T13:26:07Z</time>
      </trkpt>
      <trkpt lat="42.85308354" lon="13.44182216">
        <ele>617.00000</ele>
        <time>2024-02-02T13:26:08Z</time>
      </trkpt>
      <trkpt lat="42.85301456" lon="13.44187195">
        <ele>616.00000</ele>
        <time>2024-02-02T13:26:09Z</time>
      </trkpt>
      <trkpt lat="42.85294868" lon="13.44191872">
        <ele>615.00000</ele>
        <time>2024-02-02T13:26:10Z</time>
      </trkpt>
      <trkpt lat="42.85288556" lon="13.44195971">
        <ele>614.00000</ele>
        <time>2024-02-02T13:26:11Z</time>
      </trkpt>
      <trkpt lat="42.85282479" lon="13.44199022">
        <ele>612.00000</ele>
        <time>2024-02-02T13:26:12Z</time>
      </trkpt>
      <trkpt lat="42.85276109" lon="13.44201536">
        <ele>611.00000</ele>
        <time>2024-02-02T13:26:13Z</time>
      </trkpt>
      <trkpt lat="42.85269898" lon="13.44204168">
        <ele>610.00000</ele>
        <time>2024-02-02T13:26:14Z</time>
      </trkpt>
      <trkpt lat="42.85263678" lon="13.44207622">
        <ele>609.00000</ele>
        <time>2024-02-02T13:26:15Z</time>
      </trkpt>
      <trkpt lat="42.85257920" lon="13.44212517">
        <ele>609.00000</ele>
        <time>2024-02-02T13:26:16Z</time>
      </trkpt>
      <trkpt lat="42.85252807" lon="13.44218920">
        <ele>609.00000</ele>
        <time>2024-02-02T13:26:17Z</time>
      </trkpt>
      <trkpt lat="42.85247904" lon="13.44226028">
        <ele>609.00000</ele>
        <time>2024-02-02T13:26:18Z</time>
      </trkpt>
      <trkpt lat="42.85243269" lon="13.44233849">
        <ele>609.00000</ele>
        <time>2024-02-02T13:26:19Z</time>
      </trkpt>
      <trkpt lat="42.85238927" lon="13.44242113">
        <ele>609.00000</ele>
        <time>2024-02-02T13:26:20Z</time>
      </trkpt>
      <trkpt lat="42.85234878" lon="13.44250889">
        <ele>610.00000</ele>
        <time>2024-02-02T13:26:21Z</time>
      </trkpt>
      <trkpt lat="42.85231458" lon="13.44259983">
        <ele>611.00000</ele>
        <time>2024-02-02T13:26:22Z</time>
      </trkpt>
      <trkpt lat="42.85227871" lon="13.44269145">
        <ele>613.00000</ele>
        <time>2024-02-02T13:26:23Z</time>
      </trkpt>
      <trkpt lat="42.85224309" lon="13.44277996">
        <ele>614.00000</ele>
        <time>2024-02-02T13:26:24Z</time>
      </trkpt>
      <trkpt lat="42.85220495" lon="13.44286235">
        <ele>615.00000</ele>
        <time>2024-02-02T13:26:25Z</time>
      </trkpt>
      <trkpt lat="42.85216270" lon="13.44294257">
        <ele>616.00000</ele>
        <time>2024-02-02T13:26:26Z</time>
      </trkpt>
      <trkpt lat="42.85210621" lon="13.44300233">
        <ele>617.00000</ele>
        <time>2024-02-02T13:26:27Z</time>
      </trkpt>
      <trkpt lat="42.85204729" lon="13.44303393">
        <ele>616.00000</ele>
        <time>2024-02-02T13:26:28Z</time>
      </trkpt>
      <trkpt lat="42.85199683" lon="13.44304743">
        <ele>615.00000</ele>
        <time>2024-02-02T13:26:29Z</time>
      </trkpt>
      <trkpt lat="42.85195148" lon="13.44304977">
        <ele>614.00000</ele>
        <time>2024-02-02T13:26:30Z</time>
      </trkpt>
      <trkpt lat="42.85190454" lon="13.44304768">
        <ele>613.00000</ele>
        <time>2024-02-02T13:26:31Z</time>
      </trkpt>
      <trkpt lat="42.85184754" lon="13.44305003">
        <ele>612.00000</ele>
        <time>2024-02-02T13:26:32Z</time>
      </trkpt>
      <trkpt lat="42.85178577" lon="13.44306285">
        <ele>610.00000</ele>
        <time>2024-02-02T13:26:33Z</time>
      </trkpt>
      <trkpt lat="42.85172031" lon="13.44309504">
        <ele>609.00000</ele>
        <time>2024-02-02T13:26:34Z</time>
      </trkpt>
      <trkpt lat="42.85165451" lon="13.44314533">
        <ele>608.00000</ele>
        <time>2024-02-02T13:26:35Z</time>
      </trkpt>
      <trkpt lat="42.85159433" lon="13.44320962">
        <ele>607.00000</ele>
        <time>2024-02-02T13:26:36Z</time>
      </trkpt>
      <trkpt lat="42.85153658" lon="13.44328195">
        <ele>606.00000</ele>
        <time>2024-02-02T13:26:37Z</time>
      </trkpt>
      <trkpt lat="42.85148595" lon="13.44335622">
        <ele>606.00000</ele>
        <time>2024-02-02T13:26:38Z</time>
      </trkpt>
      <trkpt lat="42.85143373" lon="13.44343400">
        <ele>606.00000</ele>
        <time>2024-02-02T13:26:39Z</time>
      </trkpt>
      <trkpt lat="42.85137665" lon="13.44349879">
        <ele>605.00000</ele>
        <time>2024-02-02T13:26:40Z</time>
      </trkpt>
      <trkpt lat="42.85130918" lon="13.44355252">
        <ele>605.00000</ele>
        <time>2024-02-02T13:26:41Z</time>
      </trkpt>
      <trkpt lat="42.85123709" lon="13.44360516">
        <ele>604.00000</ele>
        <time>2024-02-02T13:26:42Z</time>
      </trkpt>
      <trkpt lat="42.85116417" lon="13.44366509">
        <ele>603.00000</ele>
        <time>2024-02-02T13:26:43Z</time>
      </trkpt>
      <trkpt lat="42.85109041" lon="13.44373231">
        <ele>602.00000</ele>
        <time>2024-02-02T13:26:44Z</time>
      </trkpt>
      <trkpt lat="42.85101782" lon="13.44380465">
        <ele>601.00000</ele>
        <time>2024-02-02T13:26:45Z</time>
      </trkpt>
      <trkpt lat="42.85094222" lon="13.44388411">
        <ele>601.00000</ele>
        <time>2024-02-02T13:26:46Z</time>
      </trkpt>
      <trkpt lat="42.85086351" lon="13.44396818">
        <ele>600.00000</ele>
        <time>2024-02-02T13:26:47Z</time>
      </trkpt>
      <trkpt lat="42.85078346" lon="13.44405426">
        <ele>599.00000</ele>
        <time>2024-02-02T13:26:48Z</time>
      </trkpt>
      <trkpt lat="42.85071138" lon="13.44413842">
        <ele>599.00000</ele>
        <time>2024-02-02T13:26:49Z</time>
      </trkpt>
      <trkpt lat="42.85065019" lon="13.44421830">
        <ele>598.00000</ele>
        <time>2024-02-02T13:26:50Z</time>
      </trkpt>
      <trkpt lat="42.85059177" lon="13.44429214">
        <ele>597.00000</ele>
        <time>2024-02-02T13:26:51Z</time>
      </trkpt>
      <trkpt lat="42.85052941" lon="13.44435291">
        <ele>597.00000</ele>
        <time>2024-02-02T13:26:52Z</time>
      </trkpt>
      <trkpt lat="42.85046093" lon="13.44439691">
        <ele>596.00000</ele>
        <time>2024-02-02T13:26:53Z</time>
      </trkpt>
      <trkpt lat="42.85038759" lon="13.44442575">
        <ele>595.00000</ele>
        <time>2024-02-02T13:26:54Z</time>
      </trkpt>
      <trkpt lat="42.85030662" lon="13.44444796">
        <ele>594.00000</ele>
        <time>2024-02-02T13:26:55Z</time>
      </trkpt>
      <trkpt lat="42.85022045" lon="13.44446464">
        <ele>592.00000</ele>
        <time>2024-02-02T13:26:56Z</time>
      </trkpt>
      <trkpt lat="42.85013278" lon="13.44448417">
        <ele>591.00000</ele>
        <time>2024-02-02T13:26:57Z</time>
      </trkpt>
      <trkpt lat="42.85004141" lon="13.44450026">
        <ele>590.00000</ele>
        <time>2024-02-02T13:26:58Z</time>
      </trkpt>
      <trkpt lat="42.84994988" lon="13.44450362">
        <ele>588.00000</ele>
        <time>2024-02-02T13:26:59Z</time>
      </trkpt>
      <trkpt lat="42.84985885" lon="13.44450211">
        <ele>587.00000</ele>
        <time>2024-02-02T13:27:00Z</time>
      </trkpt>
      <trkpt lat="42.84976984" lon="13.44449783">
        <ele>585.00000</ele>
        <time>2024-02-02T13:27:01Z</time>
      </trkpt>
      <trkpt lat="42.84968267" lon="13.44448610">
        <ele>584.00000</ele>
        <time>2024-02-02T13:27:02Z</time>
      </trkpt>
      <trkpt lat="42.84959717" lon="13.44447243">
        <ele>584.00000</ele>
        <time>2024-02-02T13:27:03Z</time>
      </trkpt>
      <trkpt lat="42.84951285" lon="13.44445508">
        <ele>584.00000</ele>
        <time>2024-02-02T13:27:04Z</time>
      </trkpt>
      <trkpt lat="42.84942761" lon="13.44443991">
        <ele>583.00000</ele>
        <time>2024-02-02T13:27:05Z</time>
      </trkpt>
      <trkpt lat="42.84934672" lon="13.44443363">
        <ele>582.00000</ele>
        <time>2024-02-02T13:27:06Z</time>
      </trkpt>
      <trkpt lat="42.84927950" lon="13.44443178">
        <ele>582.00000</ele>
        <time>2024-02-02T13:27:07Z</time>
      </trkpt>
      <trkpt lat="42.84922384" lon="13.44443379">
        <ele>582.00000</ele>
        <time>2024-02-02T13:27:08Z</time>
      </trkpt>
      <trkpt lat="42.84918243" lon="13.44443136">
        <ele>581.00000</ele>
        <time>2024-02-02T13:27:09Z</time>
      </trkpt>
      <trkpt lat="42.84915486" lon="13.44442382">
        <ele>581.00000</ele>
        <time>2024-02-02T13:27:10Z</time>
      </trkpt>
      <trkpt lat="42.84912485" lon="13.44441443">
        <ele>581.00000</ele>
        <time>2024-02-02T13:27:11Z</time>
      </trkpt>
      <trkpt lat="42.84908973" lon="13.44440236">
        <ele>581.00000</ele>
        <time>2024-02-02T13:27:12Z</time>
      </trkpt>
      <trkpt lat="42.84905025" lon="13.44439691">
        <ele>581.00000</ele>
        <time>2024-02-02T13:27:13Z</time>
      </trkpt>
      <trkpt lat="42.84900591" lon="13.44439951">
        <ele>581.00000</ele>
        <time>2024-02-02T13:27:14Z</time>
      </trkpt>
      <trkpt lat="42.84896099" lon="13.44439825">
        <ele>581.00000</ele>
        <time>2024-02-02T13:27:15Z</time>
      </trkpt>
      <trkpt lat="42.84891036" lon="13.44439239">
        <ele>581.00000</ele>
        <time>2024-02-02T13:27:16Z</time>
      </trkpt>
      <trkpt lat="42.84885982" lon="13.44438199">
        <ele>580.00000</ele>
        <time>2024-02-02T13:27:17Z</time>
      </trkpt>
      <trkpt lat="42.84881891" lon="13.44436950">
        <ele>580.00000</ele>
        <time>2024-02-02T13:27:18Z</time>
      </trkpt>
      <trkpt lat="42.84877977" lon="13.44436305">
        <ele>580.00000</ele>
        <time>2024-02-02T13:27:19Z</time>
      </trkpt>
      <trkpt lat="42.84873928" lon="13.44435266">
        <ele>579.00000</ele>
        <time>2024-02-02T13:27:20Z</time>
      </trkpt>
      <trkpt lat="42.84869084" lon="13.44434042">
        <ele>579.00000</ele>
        <time>2024-02-02T13:27:21Z</time>
      </trkpt>
      <trkpt lat="42.84863493" lon="13.44433170">
        <ele>578.00000</ele>
        <time>2024-02-02T13:27:22Z</time>
      </trkpt>
      <trkpt lat="42.84857818" lon="13.44431754">
        <ele>578.00000</ele>
        <time>2024-02-02T13:27:23Z</time>
      </trkpt>
      <trkpt lat="42.84852479" lon="13.44430102">
        <ele>576.00000</ele>
        <time>2024-02-02T13:27:24Z</time>
      </trkpt>
      <trkpt lat="42.84846788" lon="13.44428015">
        <ele>575.00000</ele>
        <time>2024-02-02T13:27:25Z</time>
      </trkpt>
      <trkpt lat="42.84840367" lon="13.44425903">
        <ele>574.00000</ele>
        <time>2024-02-02T13:27:26Z</time>
      </trkpt>
      <trkpt lat="42.84833913" lon="13.44423405">
        <ele>573.00000</ele>
        <time>2024-02-02T13:27:27Z</time>
      </trkpt>
      <trkpt lat="42.84827761" lon="13.44420681">
        <ele>573.00000</ele>
        <time>2024-02-02T13:27:28Z</time>
      </trkpt>
      <trkpt lat="42.84822204" lon="13.44418091">
        <ele>573.00000</ele>
        <time>2024-02-02T13:27:29Z</time>
      </trkpt>
      <trkpt lat="42.84816613" lon="13.44415468">
        <ele>572.00000</ele>
        <time>2024-02-02T13:27:30Z</time>
      </trkpt>
      <trkpt lat="42.84810544" lon="13.44413741">
        <ele>572.00000</ele>
        <time>2024-02-02T13:27:31Z</time>
      </trkpt>
      <trkpt lat="42.84804015" lon="13.44412283">
        <ele>572.00000</ele>
        <time>2024-02-02T13:27:32Z</time>
      </trkpt>
      <trkpt lat="42.84796974" lon="13.44410112">
        <ele>571.00000</ele>
        <time>2024-02-02T13:27:33Z</time>
      </trkpt>
      <trkpt lat="42.84789883" lon="13.44407714">
        <ele>570.00000</ele>
        <time>2024-02-02T13:27:34Z</time>
      </trkpt>
      <trkpt lat="42.84782675" lon="13.44405367">
        <ele>569.00000</ele>
        <time>2024-02-02T13:27:35Z</time>
      </trkpt>
      <trkpt lat="42.84775282" lon="13.44403850">
        <ele>568.00000</ele>
        <time>2024-02-02T13:27:36Z</time>
      </trkpt>
      <trkpt lat="42.84767596" lon="13.44402166">
        <ele>566.00000</ele>
        <time>2024-02-02T13:27:37Z</time>
      </trkpt>
      <trkpt lat="42.84759876" lon="13.44401051">
        <ele>564.00000</ele>
        <time>2024-02-02T13:27:38Z</time>
      </trkpt>
      <trkpt lat="42.84751804" lon="13.44400187">
        <ele>561.00000</ele>
        <time>2024-02-02T13:27:39Z</time>
      </trkpt>
      <trkpt lat="42.84742768" lon="13.44399022">
        <ele>559.00000</ele>
        <time>2024-02-02T13:27:40Z</time>
      </trkpt>
      <trkpt lat="42.84732601" lon="13.44398452">
        <ele>557.00000</ele>
        <time>2024-02-02T13:27:41Z</time>
      </trkpt>
      <trkpt lat="42.84723188" lon="13.44398704">
        <ele>556.00000</ele>
        <time>2024-02-02T13:27:42Z</time>
      </trkpt>
      <trkpt lat="42.84713943" lon="13.44398159">
        <ele>554.00000</ele>
        <time>2024-02-02T13:27:43Z</time>
      </trkpt>
      <trkpt lat="42.84704773" lon="13.44396575">
        <ele>552.00000</ele>
        <time>2024-02-02T13:27:44Z</time>
      </trkpt>
      <trkpt lat="42.84695805" lon="13.44394111">
        <ele>550.00000</ele>
        <time>2024-02-02T13:27:45Z</time>
      </trkpt>
      <trkpt lat="42.84687314" lon="13.44391956">
        <ele>549.00000</ele>
        <time>2024-02-02T13:27:46Z</time>
      </trkpt>
      <trkpt lat="42.84679259" lon="13.44390012">
        <ele>548.00000</ele>
        <time>2024-02-02T13:27:47Z</time>
      </trkpt>
      <trkpt lat="42.84671304" lon="13.44389249">
        <ele>547.00000</ele>
        <time>2024-02-02T13:27:48Z</time>
      </trkpt>
      <trkpt lat="42.84662906" lon="13.44389844">
        <ele>546.00000</ele>
        <time>2024-02-02T13:27:49Z</time>
      </trkpt>
      <trkpt lat="42.84654029" lon="13.44391613">
        <ele>545.00000</ele>
        <time>2024-02-02T13:27:50Z</time>
      </trkpt>
      <trkpt lat="42.84644843" lon="13.44394044">
        <ele>544.00000</ele>
        <time>2024-02-02T13:27:51Z</time>
      </trkpt>
      <trkpt lat="42.84635514" lon="13.44397346">
        <ele>543.00000</ele>
        <time>2024-02-02T13:27:52Z</time>
      </trkpt>
      <trkpt lat="42.84626268" lon="13.44401227">
        <ele>542.00000</ele>
        <time>2024-02-02T13:27:53Z</time>
      </trkpt>
      <trkpt lat="42.84617509" lon="13.44405451">
        <ele>540.00000</ele>
        <time>2024-02-02T13:27:54Z</time>
      </trkpt>
      <trkpt lat="42.84609253" lon="13.44410221">
        <ele>538.00000</ele>
        <time>2024-02-02T13:27:55Z</time>
      </trkpt>
      <trkpt lat="42.84601952" lon="13.44416541">
        <ele>535.00000</ele>
        <time>2024-02-02T13:27:56Z</time>
      </trkpt>
      <trkpt lat="42.84595674" lon="13.44425484">
        <ele>533.00000</ele>
        <time>2024-02-02T13:27:57Z</time>
      </trkpt>
      <trkpt lat="42.84590276" lon="13.44435945">
        <ele>531.00000</ele>
        <time>2024-02-02T13:27:58Z</time>
      </trkpt>
      <trkpt lat="42.84585440" lon="13.44447193">
        <ele>530.00000</ele>
        <time>2024-02-02T13:27:59Z</time>
      </trkpt>
      <trkpt lat="42.84580922" lon="13.44458148">
        <ele>530.00000</ele>
        <time>2024-02-02T13:28:00Z</time>
      </trkpt>
      <trkpt lat="42.84577041" lon="13.44468802">
        <ele>530.00000</ele>
        <time>2024-02-02T13:28:01Z</time>
      </trkpt>
      <trkpt lat="42.84574560" lon="13.44479891">
        <ele>529.00000</ele>
        <time>2024-02-02T13:28:02Z</time>
      </trkpt>
      <trkpt lat="42.84574879" lon="13.44490922">
        <ele>530.00000</ele>
        <time>2024-02-02T13:28:03Z</time>
      </trkpt>
      <trkpt lat="42.84578667" lon="13.44499773">
        <ele>532.00000</ele>
        <time>2024-02-02T13:28:04Z</time>
      </trkpt>
      <trkpt lat="42.84584350" lon="13.44506973">
        <ele>533.00000</ele>
        <time>2024-02-02T13:28:05Z</time>
      </trkpt>
      <trkpt lat="42.84590243" lon="13.44513863">
        <ele>532.00000</ele>
        <time>2024-02-02T13:28:06Z</time>
      </trkpt>
      <trkpt lat="42.84596362" lon="13.44520535">
        <ele>531.00000</ele>
        <time>2024-02-02T13:28:07Z</time>
      </trkpt>
      <trkpt lat="42.84602958" lon="13.44526855">
        <ele>530.00000</ele>
        <time>2024-02-02T13:28:08Z</time>
      </trkpt>
      <trkpt lat="42.84609999" lon="13.44531901">
        <ele>529.00000</ele>
        <time>2024-02-02T13:28:09Z</time>
      </trkpt>
      <trkpt lat="42.84617752" lon="13.44535706">
        <ele>530.00000</ele>
        <time>2024-02-02T13:28:10Z</time>
      </trkpt>
      <trkpt lat="42.84625782" lon="13.44539017">
        <ele>531.00000</ele>
        <time>2024-02-02T13:28:11Z</time>
      </trkpt>
      <trkpt lat="42.84633602" lon="13.44542236">
        <ele>532.00000</ele>
        <time>2024-02-02T13:28:12Z</time>
      </trkpt>
      <trkpt lat="42.84641423" lon="13.44545161">
        <ele>534.00000</ele>
        <time>2024-02-02T13:28:13Z</time>
      </trkpt>
      <trkpt lat="42.84649536" lon="13.44545974">
        <ele>536.00000</ele>
        <time>2024-02-02T13:28:14Z</time>
      </trkpt>
      <trkpt lat="42.84657516" lon="13.44546443">
        <ele>539.00000</ele>
        <time>2024-02-02T13:28:15Z</time>
      </trkpt>
      <trkpt lat="42.84665470" lon="13.44547281">
        <ele>541.00000</ele>
        <time>2024-02-02T13:28:16Z</time>
      </trkpt>
      <trkpt lat="42.84672947" lon="13.44549645">
        <ele>540.00000</ele>
        <time>2024-02-02T13:28:17Z</time>
      </trkpt>
      <trkpt lat="42.84680214" lon="13.44553518">
        <ele>538.00000</ele>
        <time>2024-02-02T13:28:18Z</time>
      </trkpt>
      <trkpt lat="42.84687540" lon="13.44559695">
        <ele>536.00000</ele>
        <time>2024-02-02T13:28:19Z</time>
      </trkpt>
      <trkpt lat="42.84693868" lon="13.44568236">
        <ele>533.00000</ele>
        <time>2024-02-02T13:28:20Z</time>
      </trkpt>
      <trkpt lat="42.84697464" lon="13.44578077">
        <ele>529.00000</ele>
        <time>2024-02-02T13:28:21Z</time>
      </trkpt>
      <trkpt lat="42.84699836" lon="13.44588353">
        <ele>526.00000</ele>
        <time>2024-02-02T13:28:22Z</time>
      </trkpt>
      <trkpt lat="42.84702125" lon="13.44598143">
        <ele>523.00000</ele>
        <time>2024-02-02T13:28:23Z</time>
      </trkpt>
      <trkpt lat="42.84704052" lon="13.44608193">
        <ele>520.00000</ele>
        <time>2024-02-02T13:28:24Z</time>
      </trkpt>
      <trkpt lat="42.84706081" lon="13.44618335">
        <ele>518.00000</ele>
        <time>2024-02-02T13:28:25Z</time>
      </trkpt>
      <trkpt lat="42.84707279" lon="13.44628494">
        <ele>517.00000</ele>
        <time>2024-02-02T13:28:26Z</time>
      </trkpt>
      <trkpt lat="42.84707615" lon="13.44638979">
        <ele>517.00000</ele>
        <time>2024-02-02T13:28:27Z</time>
      </trkpt>
      <trkpt lat="42.84707631" lon="13.44649918">
        <ele>516.00000</ele>
        <time>2024-02-02T13:28:28Z</time>
      </trkpt>
      <trkpt lat="42.84706592" lon="13.44660714">
        <ele>516.00000</ele>
        <time>2024-02-02T13:28:29Z</time>
      </trkpt>
      <trkpt lat="42.84704538" lon="13.44671283">
        <ele>515.00000</ele>
        <time>2024-02-02T13:28:30Z</time>
      </trkpt>
      <trkpt lat="42.84702904" lon="13.44682565">
        <ele>513.00000</ele>
        <time>2024-02-02T13:28:31Z</time>
      </trkpt>
      <trkpt lat="42.84702301" lon="13.44694610">
        <ele>510.00000</ele>
        <time>2024-02-02T13:28:32Z</time>
      </trkpt>
      <trkpt lat="42.84702728" lon="13.44705389">
        <ele>506.00000</ele>
        <time>2024-02-02T13:28:33Z</time>
      </trkpt>
      <trkpt lat="42.84703130" lon="13.44714718">
        <ele>502.00000</ele>
        <time>2024-02-02T13:28:34Z</time>
      </trkpt>
      <trkpt lat="42.84702133" lon="13.44722564">
        <ele>500.00000</ele>
        <time>2024-02-02T13:28:35Z</time>
      </trkpt>
      <trkpt lat="42.84698956" lon="13.44728968">
        <ele>498.00000</ele>
        <time>2024-02-02T13:28:36Z</time>
      </trkpt>
      <trkpt lat="42.84694354" lon="13.44734005">
        <ele>497.00000</ele>
        <time>2024-02-02T13:28:37Z</time>
      </trkpt>
      <trkpt lat="42.84687951" lon="13.44737500">
        <ele>498.00000</ele>
        <time>2024-02-02T13:28:38Z</time>
      </trkpt>
      <trkpt lat="42.84680960" lon="13.44740711">
        <ele>498.00000</ele>
        <time>2024-02-02T13:28:39Z</time>
      </trkpt>
      <trkpt lat="42.84672947" lon="13.44744633">
        <ele>499.00000</ele>
        <time>2024-02-02T13:28:40Z</time>
      </trkpt>
      <trkpt lat="42.84665227" lon="13.44750492">
        <ele>500.00000</ele>
        <time>2024-02-02T13:28:41Z</time>
      </trkpt>
      <trkpt lat="42.84658354" lon="13.44757374">
        <ele>499.00000</ele>
        <time>2024-02-02T13:28:42Z</time>
      </trkpt>
      <trkpt lat="42.84652126" lon="13.44764255">
        <ele>499.00000</ele>
        <time>2024-02-02T13:28:43Z</time>
      </trkpt>
      <trkpt lat="42.84647047" lon="13.44770575">
        <ele>498.00000</ele>
        <time>2024-02-02T13:28:44Z</time>
      </trkpt>
      <trkpt lat="42.84642102" lon="13.44776133">
        <ele>498.00000</ele>
        <time>2024-02-02T13:28:45Z</time>
      </trkpt>
      <trkpt lat="42.84637844" lon="13.44780039">
        <ele>498.00000</ele>
        <time>2024-02-02T13:28:46Z</time>
      </trkpt>
      <trkpt lat="42.84631306" lon="13.44785990">
        <ele>496.00000</ele>
        <time>2024-02-02T13:28:47Z</time>
      </trkpt>
      <trkpt lat="42.84625455" lon="13.44792578">
        <ele>494.00000</ele>
        <time>2024-02-02T13:28:48Z</time>
      </trkpt>
      <trkpt lat="42.84621172" lon="13.44800599">
        <ele>492.00000</ele>
        <time>2024-02-02T13:28:49Z</time>
      </trkpt>
      <trkpt lat="42.84618590" lon="13.44807347">
        <ele>490.00000</ele>
        <time>2024-02-02T13:28:50Z</time>
      </trkpt>
      <trkpt lat="42.84615120" lon="13.44814823">
        <ele>487.00000</ele>
        <time>2024-02-02T13:28:51Z</time>
      </trkpt>
      <trkpt lat="42.84609236" lon="13.44821697">
        <ele>486.00000</ele>
        <time>2024-02-02T13:28:52Z</time>
      </trkpt>
      <trkpt lat="42.84603654" lon="13.44825494">
        <ele>486.00000</ele>
        <time>2024-02-02T13:28:53Z</time>
      </trkpt>
      <trkpt lat="42.84597460" lon="13.44828536">
        <ele>486.00000</ele>
        <time>2024-02-02T13:28:54Z</time>
      </trkpt>
      <trkpt lat="42.84590637" lon="13.44831663">
        <ele>487.00000</ele>
        <time>2024-02-02T13:28:55Z</time>
      </trkpt>
      <trkpt lat="42.84584099" lon="13.44836273">
        <ele>487.00000</ele>
        <time>2024-02-02T13:28:56Z</time>
      </trkpt>
      <trkpt lat="42.84578416" lon="13.44841863">
        <ele>485.00000</ele>
        <time>2024-02-02T13:28:57Z</time>
      </trkpt>
      <trkpt lat="42.84572289" lon="13.44847437">
        <ele>484.00000</ele>
        <time>2024-02-02T13:28:58Z</time>
      </trkpt>
      <trkpt lat="42.84566916" lon="13.44852634">
        <ele>483.00000</ele>
        <time>2024-02-02T13:28:59Z</time>
      </trkpt>
      <trkpt lat="42.84561552" lon="13.44857387">
        <ele>482.00000</ele>
        <time>2024-02-02T13:29:00Z</time>
      </trkpt>
      <trkpt lat="42.84556858" lon="13.44861603">
        <ele>482.00000</ele>
        <time>2024-02-02T13:29:01Z</time>
      </trkpt>
      <trkpt lat="42.84551971" lon="13.44866573">
        <ele>482.00000</ele>
        <time>2024-02-02T13:29:02Z</time>
      </trkpt>
      <trkpt lat="42.84547017" lon="13.44873304">
        <ele>482.00000</ele>
        <time>2024-02-02T13:29:03Z</time>
      </trkpt>
      <trkpt lat="42.84542969" lon="13.44880479">
        <ele>482.00000</ele>
        <time>2024-02-02T13:29:04Z</time>
      </trkpt>
      <trkpt lat="42.84540027" lon="13.44886162">
        <ele>482.00000</ele>
        <time>2024-02-02T13:29:05Z</time>
      </trkpt>
      <trkpt lat="42.84535685" lon="13.44894569">
        <ele>482.00000</ele>
        <time>2024-02-02T13:29:06Z</time>
      </trkpt>
      <trkpt lat="42.84531486" lon="13.44900713">
        <ele>483.00000</ele>
        <time>2024-02-02T13:29:07Z</time>
      </trkpt>
      <trkpt lat="42.84526029" lon="13.44906337">
        <ele>484.00000</ele>
        <time>2024-02-02T13:29:08Z</time>
      </trkpt>
      <trkpt lat="42.84519818" lon="13.44911282">
        <ele>483.00000</ele>
        <time>2024-02-02T13:29:09Z</time>
      </trkpt>
      <trkpt lat="42.84513046" lon="13.44916823">
        <ele>481.00000</ele>
        <time>2024-02-02T13:29:10Z</time>
      </trkpt>
      <trkpt lat="42.84505569" lon="13.44922414">
        <ele>478.00000</ele>
        <time>2024-02-02T13:29:11Z</time>
      </trkpt>
      <trkpt lat="42.84497413" lon="13.44927149">
        <ele>476.00000</ele>
        <time>2024-02-02T13:29:12Z</time>
      </trkpt>
      <trkpt lat="42.84488160" lon="13.44929605">
        <ele>474.00000</ele>
        <time>2024-02-02T13:29:13Z</time>
      </trkpt>
      <trkpt lat="42.84480214" lon="13.44930728">
        <ele>473.00000</ele>
        <time>2024-02-02T13:29:14Z</time>
      </trkpt>
      <trkpt lat="42.84467456" lon="13.44933645">
        <ele>470.00000</ele>
        <time>2024-02-02T13:29:15Z</time>
      </trkpt>
      <trkpt lat="42.84456275" lon="13.44936026">
        <ele>468.00000</ele>
        <time>2024-02-02T13:29:16Z</time>
      </trkpt>
      <trkpt lat="42.84444155" lon="13.44938406">
        <ele>466.00000</ele>
        <time>2024-02-02T13:29:17Z</time>
      </trkpt>
      <trkpt lat="42.84431942" lon="13.44941843">
        <ele>464.00000</ele>
        <time>2024-02-02T13:29:18Z</time>
      </trkpt>
      <trkpt lat="42.84419545" lon="13.44946386">
        <ele>462.00000</ele>
        <time>2024-02-02T13:29:19Z</time>
      </trkpt>
      <trkpt lat="42.84409554" lon="13.44951574">
        <ele>458.00000</ele>
        <time>2024-02-02T13:29:20Z</time>
      </trkpt>
      <trkpt lat="42.84395942" lon="13.44960509">
        <ele>453.00000</ele>
        <time>2024-02-02T13:29:21Z</time>
      </trkpt>
      <trkpt lat="42.84386445" lon="13.44968053">
        <ele>449.00000</ele>
        <time>2024-02-02T13:29:22Z</time>
      </trkpt>
      <trkpt lat="42.84378457" lon="13.44974214">
        <ele>446.00000</ele>
        <time>2024-02-02T13:29:23Z</time>
      </trkpt>
      <trkpt lat="42.84372012" lon="13.44978153">
        <ele>445.00000</ele>
        <time>2024-02-02T13:29:24Z</time>
      </trkpt>
      <trkpt lat="42.84367259" lon="13.44980626">
        <ele>444.00000</ele>
        <time>2024-02-02T13:29:25Z</time>
      </trkpt>
      <trkpt lat="42.84363152" lon="13.44980970">
        <ele>444.00000</ele>
        <time>2024-02-02T13:29:26Z</time>
      </trkpt>
      <trkpt lat="42.84359422" lon="13.44979084">
        <ele>443.00000</ele>
        <time>2024-02-02T13:29:27Z</time>
      </trkpt>
      <trkpt lat="42.84358039" lon="13.44974339">
        <ele>443.00000</ele>
        <time>2024-02-02T13:29:28Z</time>
      </trkpt>
      <trkpt lat="42.84358190" lon="13.44968019">
        <ele>444.00000</ele>
        <time>2024-02-02T13:29:29Z</time>
      </trkpt>
      <trkpt lat="42.84360176" lon="13.44960819">
        <ele>445.00000</ele>
        <time>2024-02-02T13:29:30Z</time>
      </trkpt>
      <trkpt lat="42.84363362" lon="13.44953762">
        <ele>446.00000</ele>
        <time>2024-02-02T13:29:31Z</time>
      </trkpt>
      <trkpt lat="42.84367620" lon="13.44947316">
        <ele>448.00000</ele>
        <time>2024-02-02T13:29:32Z</time>
      </trkpt>
      <trkpt lat="42.84369438" lon="13.44940971">
        <ele>449.00000</ele>
        <time>2024-02-02T13:29:33Z</time>
      </trkpt>
      <trkpt lat="42.84368718" lon="13.44933972">
        <ele>449.00000</ele>
        <time>2024-02-02T13:29:34Z</time>
      </trkpt>
      <trkpt lat="42.84366421" lon="13.44928524">
        <ele>448.00000</ele>
        <time>2024-02-02T13:29:35Z</time>
      </trkpt>
      <trkpt lat="42.84361978" lon="13.44927703">
        <ele>445.00000</ele>
        <time>2024-02-02T13:29:36Z</time>
      </trkpt>
      <trkpt lat="42.84354879" lon="13.44933268">
        <ele>442.00000</ele>
        <time>2024-02-02T13:29:37Z</time>
      </trkpt>
      <trkpt lat="42.84348953" lon="13.44942589">
        <ele>440.00000</ele>
        <time>2024-02-02T13:29:38Z</time>
      </trkpt>
      <trkpt lat="42.84345273" lon="13.44953209">
        <ele>439.00000</ele>
        <time>2024-02-02T13:29:39Z</time>
      </trkpt>
      <trkpt lat="42.84342088" lon="13.44963334">
        <ele>438.00000</ele>
        <time>2024-02-02T13:29:40Z</time>
      </trkpt>
      <trkpt lat="42.84338442" lon="13.44973258">
        <ele>437.00000</ele>
        <time>2024-02-02T13:29:41Z</time>
      </trkpt>
      <trkpt lat="42.84334234" lon="13.44983769">
        <ele>437.00000</ele>
        <time>2024-02-02T13:29:42Z</time>
      </trkpt>
      <trkpt lat="42.84329867" lon="13.44994272">
        <ele>437.00000</ele>
        <time>2024-02-02T13:29:43Z</time>
      </trkpt>
      <trkpt lat="42.84324889" lon="13.45004925">
        <ele>436.00000</ele>
        <time>2024-02-02T13:29:44Z</time>
      </trkpt>
      <trkpt lat="42.84318896" lon="13.45014816">
        <ele>434.00000</ele>
        <time>2024-02-02T13:29:45Z</time>
      </trkpt>
      <trkpt lat="42.84312777" lon="13.45023927">
        <ele>431.00000</ele>
        <time>2024-02-02T13:29:46Z</time>
      </trkpt>
      <trkpt lat="42.84308125" lon="13.45031546">
        <ele>430.00000</ele>
        <time>2024-02-02T13:29:47Z</time>
      </trkpt>
      <trkpt lat="42.84305342" lon="13.45037170">
        <ele>428.00000</ele>
        <time>2024-02-02T13:29:48Z</time>
      </trkpt>
      <trkpt lat="42.84302308" lon="13.45038528">
        <ele>427.00000</ele>
        <time>2024-02-02T13:29:49Z</time>
      </trkpt>
      <trkpt lat="42.84299961" lon="13.45035569">
        <ele>426.00000</ele>
        <time>2024-02-02T13:29:50Z</time>
      </trkpt>
      <trkpt lat="42.84299508" lon="13.45029786">
        <ele>426.00000</ele>
        <time>2024-02-02T13:29:51Z</time>
      </trkpt>
      <trkpt lat="42.84302056" lon="13.45022502">
        <ele>427.00000</ele>
        <time>2024-02-02T13:29:52Z</time>
      </trkpt>
      <trkpt lat="42.84305736" lon="13.45014053">
        <ele>428.00000</ele>
        <time>2024-02-02T13:29:53Z</time>
      </trkpt>
      <trkpt lat="42.84310061" lon="13.45004799">
        <ele>430.00000</ele>
        <time>2024-02-02T13:29:54Z</time>
      </trkpt>
      <trkpt lat="42.84313783" lon="13.44994414">
        <ele>430.00000</ele>
        <time>2024-02-02T13:29:55Z</time>
      </trkpt>
      <trkpt lat="42.84315551" lon="13.44982227">
        <ele>430.00000</ele>
        <time>2024-02-02T13:29:56Z</time>
      </trkpt>
      <trkpt lat="42.84315166" lon="13.44968975">
        <ele>428.00000</ele>
        <time>2024-02-02T13:29:57Z</time>
      </trkpt>
      <trkpt lat="42.84313866" lon="13.44955145">
        <ele>427.00000</ele>
        <time>2024-02-02T13:29:58Z</time>
      </trkpt>
      <trkpt lat="42.84312433" lon="13.44940862">
        <ele>425.00000</ele>
        <time>2024-02-02T13:29:59Z</time>
      </trkpt>
      <trkpt lat="42.84310287" lon="13.44926135">
        <ele>424.00000</ele>
        <time>2024-02-02T13:30:00Z</time>
      </trkpt>
      <trkpt lat="42.84308133" lon="13.44910763">
        <ele>423.00000</ele>
        <time>2024-02-02T13:30:01Z</time>
      </trkpt>
      <trkpt lat="42.84305342" lon="13.44895013">
        <ele>421.00000</ele>
        <time>2024-02-02T13:30:02Z</time>
      </trkpt>
      <trkpt lat="42.84302383" lon="13.44880219">
        <ele>422.00000</ele>
        <time>2024-02-02T13:30:03Z</time>
      </trkpt>
      <trkpt lat="42.84298930" lon="13.44867210">
        <ele>422.00000</ele>
        <time>2024-02-02T13:30:04Z</time>
      </trkpt>
      <trkpt lat="42.84295770" lon="13.44855987">
        <ele>423.00000</ele>
        <time>2024-02-02T13:30:05Z</time>
      </trkpt>
      <trkpt lat="42.84292308" lon="13.44847739">
        <ele>422.00000</ele>
        <time>2024-02-02T13:30:06Z</time>
      </trkpt>
      <trkpt lat="42.84290120" lon="13.44842207">
        <ele>422.00000</ele>
        <time>2024-02-02T13:30:07Z</time>
      </trkpt>
      <trkpt lat="42.84287983" lon="13.44839022">
        <ele>421.00000</ele>
        <time>2024-02-02T13:30:08Z</time>
      </trkpt>
      <trkpt lat="42.84284203" lon="13.44838268">
        <ele>420.00000</ele>
        <time>2024-02-02T13:30:09Z</time>
      </trkpt>
      <trkpt lat="42.84281445" lon="13.44841612">
        <ele>419.00000</ele>
        <time>2024-02-02T13:30:10Z</time>
      </trkpt>
      <trkpt lat="42.84280808" lon="13.44846323">
        <ele>418.00000</ele>
        <time>2024-02-02T13:30:11Z</time>
      </trkpt>
      <trkpt lat="42.84280884" lon="13.44850924">
        <ele>418.00000</ele>
        <time>2024-02-02T13:30:12Z</time>
      </trkpt>
      <trkpt lat="42.84281102" lon="13.44857035">
        <ele>418.00000</ele>
        <time>2024-02-02T13:30:13Z</time>
      </trkpt>
      <trkpt lat="42.84281311" lon="13.44862927">
        <ele>417.00000</ele>
        <time>2024-02-02T13:30:14Z</time>
      </trkpt>
      <trkpt lat="42.84281386" lon="13.44868610">
        <ele>416.00000</ele>
        <time>2024-02-02T13:30:15Z</time>
      </trkpt>
      <trkpt lat="42.84282057" lon="13.44875969">
        <ele>415.00000</ele>
        <time>2024-02-02T13:30:16Z</time>
      </trkpt>
      <trkpt lat="42.84282845" lon="13.44883589">
        <ele>414.00000</ele>
        <time>2024-02-02T13:30:17Z</time>
      </trkpt>
      <trkpt lat="42.84283608" lon="13.44891241">
        <ele>413.00000</ele>
        <time>2024-02-02T13:30:18Z</time>
      </trkpt>
      <trkpt lat="42.84284429" lon="13.44898995">
        <ele>413.00000</ele>
        <time>2024-02-02T13:30:19Z</time>
      </trkpt>
      <trkpt lat="42.84285376" lon="13.44906597">
        <ele>413.00000</ele>
        <time>2024-02-02T13:30:20Z</time>
      </trkpt>
      <trkpt lat="42.84286256" lon="13.44914736">
        <ele>413.00000</ele>
        <time>2024-02-02T13:30:21Z</time>
      </trkpt>
      <trkpt lat="42.84286952" lon="13.44922590">
        <ele>414.00000</ele>
        <time>2024-02-02T13:30:22Z</time>
      </trkpt>
      <trkpt lat="42.84287145" lon="13.44930385">
        <ele>414.00000</ele>
        <time>2024-02-02T13:30:23Z</time>
      </trkpt>
      <trkpt lat="42.84287245" lon="13.44938339">
        <ele>414.00000</ele>
        <time>2024-02-02T13:30:24Z</time>
      </trkpt>
      <trkpt lat="42.84287346" lon="13.44946579">
        <ele>414.00000</ele>
        <time>2024-02-02T13:30:25Z</time>
      </trkpt>
      <trkpt lat="42.84287388" lon="13.44954768">
        <ele>415.00000</ele>
        <time>2024-02-02T13:30:26Z</time>
      </trkpt>
      <trkpt lat="42.84287732" lon="13.44962965">
        <ele>416.00000</ele>
        <time>2024-02-02T13:30:27Z</time>
      </trkpt>
      <trkpt lat="42.84287950" lon="13.44971012">
        <ele>417.00000</ele>
        <time>2024-02-02T13:30:28Z</time>
      </trkpt>
      <trkpt lat="42.84287480" lon="13.44979058">
        <ele>418.00000</ele>
        <time>2024-02-02T13:30:29Z</time>
      </trkpt>
      <trkpt lat="42.84285661" lon="13.44986862">
        <ele>417.00000</ele>
        <time>2024-02-02T13:30:30Z</time>
      </trkpt>
      <trkpt lat="42.84283583" lon="13.44994003">
        <ele>417.00000</ele>
        <time>2024-02-02T13:30:31Z</time>
      </trkpt>
      <trkpt lat="42.84281076" lon="13.45000717">
        <ele>416.00000</ele>
        <time>2024-02-02T13:30:32Z</time>
      </trkpt>
      <trkpt lat="42.84277095" lon="13.45006970">
        <ele>415.00000</ele>
        <time>2024-02-02T13:30:33Z</time>
      </trkpt>
      <trkpt lat="42.84272762" lon="13.45012058">
        <ele>414.00000</ele>
        <time>2024-02-02T13:30:34Z</time>
      </trkpt>
      <trkpt lat="42.84268017" lon="13.45016643">
        <ele>414.00000</ele>
        <time>2024-02-02T13:30:35Z</time>
      </trkpt>
      <trkpt lat="42.84263206" lon="13.45021454">
        <ele>413.00000</ele>
        <time>2024-02-02T13:30:36Z</time>
      </trkpt>
      <trkpt lat="42.84257674" lon="13.45026022">
        <ele>412.00000</ele>
        <time>2024-02-02T13:30:37Z</time>
      </trkpt>
      <trkpt lat="42.84251740" lon="13.45031269">
        <ele>411.00000</ele>
        <time>2024-02-02T13:30:38Z</time>
      </trkpt>
      <trkpt lat="42.84246350" lon="13.45036391">
        <ele>409.00000</ele>
        <time>2024-02-02T13:30:39Z</time>
      </trkpt>
      <trkpt lat="42.84241321" lon="13.45041730">
        <ele>408.00000</ele>
        <time>2024-02-02T13:30:40Z</time>
      </trkpt>
      <trkpt lat="42.84235890" lon="13.45047011">
        <ele>407.00000</ele>
        <time>2024-02-02T13:30:41Z</time>
      </trkpt>
      <trkpt lat="42.84229754" lon="13.45052333">
        <ele>406.00000</ele>
        <time>2024-02-02T13:30:42Z</time>
      </trkpt>
      <trkpt lat="42.84223074" lon="13.45057387">
        <ele>405.00000</ele>
        <time>2024-02-02T13:30:43Z</time>
      </trkpt>
      <trkpt lat="42.84216578" lon="13.45062894">
        <ele>404.00000</ele>
        <time>2024-02-02T13:30:44Z</time>
      </trkpt>
      <trkpt lat="42.84210501" lon="13.45069306">
        <ele>402.00000</ele>
        <time>2024-02-02T13:30:45Z</time>
      </trkpt>
      <trkpt lat="42.84207927" lon="13.45078652">
        <ele>401.00000</ele>
        <time>2024-02-02T13:30:46Z</time>
      </trkpt>
      <trkpt lat="42.84208984" lon="13.45089381">
        <ele>400.00000</ele>
        <time>2024-02-02T13:30:47Z</time>
      </trkpt>
      <trkpt lat="42.84211314" lon="13.45099716">
        <ele>400.00000</ele>
        <time>2024-02-02T13:30:48Z</time>
      </trkpt>
      <trkpt lat="42.84218396" lon="13.45106304">
        <ele>400.00000</ele>
        <time>2024-02-02T13:30:49Z</time>
      </trkpt>
      <trkpt lat="42.84226041" lon="13.45112079">
        <ele>401.00000</ele>
        <time>2024-02-02T13:30:50Z</time>
      </trkpt>
      <trkpt lat="42.84236568" lon="13.45117041">
        <ele>401.00000</ele>
        <time>2024-02-02T13:30:51Z</time>
      </trkpt>
      <trkpt lat="42.84248513" lon="13.45121953">
        <ele>401.00000</ele>
        <time>2024-02-02T13:30:52Z</time>
      </trkpt>
      <trkpt lat="42.84261840" lon="13.45127309">
        <ele>402.00000</ele>
        <time>2024-02-02T13:30:53Z</time>
      </trkpt>
      <trkpt lat="42.84274262" lon="13.45133638">
        <ele>402.00000</ele>
        <time>2024-02-02T13:30:54Z</time>
      </trkpt>
      <trkpt lat="42.84285921" lon="13.45141064">
        <ele>401.00000</ele>
        <time>2024-02-02T13:30:55Z</time>
      </trkpt>
      <trkpt lat="42.84298243" lon="13.45149328">
        <ele>401.00000</ele>
        <time>2024-02-02T13:30:56Z</time>
      </trkpt>
      <trkpt lat="42.84310304" lon="13.45157668">
        <ele>400.00000</ele>
        <time>2024-02-02T13:30:57Z</time>
      </trkpt>
      <trkpt lat="42.84321804" lon="13.45166503">
        <ele>399.00000</ele>
        <time>2024-02-02T13:30:58Z</time>
      </trkpt>
      <trkpt lat="42.84333044" lon="13.45176058">
        <ele>398.00000</ele>
        <time>2024-02-02T13:30:59Z</time>
      </trkpt>
      <trkpt lat="42.84344611" lon="13.45185765">
        <ele>396.00000</ele>
        <time>2024-02-02T13:31:00Z</time>
      </trkpt>
      <trkpt lat="42.84356907" lon="13.45196695">
        <ele>394.00000</ele>
        <time>2024-02-02T13:31:01Z</time>
      </trkpt>
      <trkpt lat="42.84367913" lon="13.45209703">
        <ele>394.00000</ele>
        <time>2024-02-02T13:31:02Z</time>
      </trkpt>
      <trkpt lat="42.84375146" lon="13.45225746">
        <ele>395.00000</ele>
        <time>2024-02-02T13:31:03Z</time>
      </trkpt>
      <trkpt lat="42.84378902" lon="13.45242921">
        <ele>397.00000</ele>
        <time>2024-02-02T13:31:04Z</time>
      </trkpt>
      <trkpt lat="42.84380729" lon="13.45260623">
        <ele>398.00000</ele>
        <time>2024-02-02T13:31:05Z</time>
      </trkpt>
      <trkpt lat="42.84383411" lon="13.45277530">
        <ele>398.00000</ele>
        <time>2024-02-02T13:31:06Z</time>
      </trkpt>
      <trkpt lat="42.84386965" lon="13.45293757">
        <ele>395.00000</ele>
        <time>2024-02-02T13:31:07Z</time>
      </trkpt>
      <trkpt lat="42.84390603" lon="13.45309624">
        <ele>393.00000</ele>
        <time>2024-02-02T13:31:08Z</time>
      </trkpt>
      <trkpt lat="42.84392346" lon="13.45325365">
        <ele>390.00000</ele>
        <time>2024-02-02T13:31:09Z</time>
      </trkpt>
      <trkpt lat="42.84395012" lon="13.45341542">
        <ele>389.00000</ele>
        <time>2024-02-02T13:31:10Z</time>
      </trkpt>
      <trkpt lat="42.84397970" lon="13.45358340">
        <ele>388.00000</ele>
        <time>2024-02-02T13:31:11Z</time>
      </trkpt>
      <trkpt lat="42.84401424" lon="13.45375120">
        <ele>388.00000</ele>
        <time>2024-02-02T13:31:12Z</time>
      </trkpt>
      <trkpt lat="42.84406872" lon="13.45390459">
        <ele>389.00000</ele>
        <time>2024-02-02T13:31:13Z</time>
      </trkpt>
      <trkpt lat="42.84415111" lon="13.45403895">
        <ele>389.00000</ele>
        <time>2024-02-02T13:31:14Z</time>
      </trkpt>
      <trkpt lat="42.84425136" lon="13.45414666">
        <ele>389.00000</ele>
        <time>2024-02-02T13:31:15Z</time>
      </trkpt>
      <trkpt lat="42.84436460" lon="13.45423216">
        <ele>390.00000</ele>
        <time>2024-02-02T13:31:16Z</time>
      </trkpt>
      <trkpt lat="42.84448354" lon="13.45431203">
        <ele>390.00000</ele>
        <time>2024-02-02T13:31:17Z</time>
      </trkpt>
      <trkpt lat="42.84460550" lon="13.45439443">
        <ele>391.00000</ele>
        <time>2024-02-02T13:31:18Z</time>
      </trkpt>
      <trkpt lat="42.84472745" lon="13.45447967">
        <ele>390.00000</ele>
        <time>2024-02-02T13:31:19Z</time>
      </trkpt>
      <trkpt lat="42.84485117" lon="13.45456483">
        <ele>389.00000</ele>
        <time>2024-02-02T13:31:20Z</time>
      </trkpt>
      <trkpt lat="42.84497916" lon="13.45464522">
        <ele>388.00000</ele>
        <time>2024-02-02T13:31:21Z</time>
      </trkpt>
      <trkpt lat="42.84511000" lon="13.45472325">
        <ele>388.00000</ele>
        <time>2024-02-02T13:31:22Z</time>
      </trkpt>
      <trkpt lat="42.84524227" lon="13.45480707">
        <ele>388.00000</ele>
        <time>2024-02-02T13:31:23Z</time>
      </trkpt>
      <trkpt lat="42.84536750" lon="13.45490204">
        <ele>387.00000</ele>
        <time>2024-02-02T13:31:24Z</time>
      </trkpt>
      <trkpt lat="42.84549163" lon="13.45499910">
        <ele>387.00000</ele>
        <time>2024-02-02T13:31:25Z</time>
      </trkpt>
      <trkpt lat="42.84560806" lon="13.45510605">
        <ele>386.00000</ele>
        <time>2024-02-02T13:31:26Z</time>
      </trkpt>
      <trkpt lat="42.84572406" lon="13.45521560">
        <ele>386.00000</ele>
        <time>2024-02-02T13:31:27Z</time>
      </trkpt>
      <trkpt lat="42.84582607" lon="13.45534636">
        <ele>388.00000</ele>
        <time>2024-02-02T13:31:28Z</time>
      </trkpt>
      <trkpt lat="42.84589639" lon="13.45551366">
        <ele>390.00000</ele>
        <time>2024-02-02T13:31:29Z</time>
      </trkpt>
      <trkpt lat="42.84594618" lon="13.45569388">
        <ele>391.00000</ele>
        <time>2024-02-02T13:31:30Z</time>
      </trkpt>
      <trkpt lat="42.84594459" lon="13.45587417">
        <ele>390.00000</ele>
        <time>2024-02-02T13:31:31Z</time>
      </trkpt>
      <trkpt lat="42.84592481" lon="13.45604265">
        <ele>389.00000</ele>
        <time>2024-02-02T13:31:32Z</time>
      </trkpt>
      <trkpt lat="42.84588206" lon="13.45618824">
        <ele>387.00000</ele>
        <time>2024-02-02T13:31:33Z</time>
      </trkpt>
      <trkpt lat="42.84582808" lon="13.45631891">
        <ele>385.00000</ele>
        <time>2024-02-02T13:31:34Z</time>
      </trkpt>
      <trkpt lat="42.84575985" lon="13.45643760">
        <ele>383.00000</ele>
        <time>2024-02-02T13:31:35Z</time>
      </trkpt>
      <trkpt lat="42.84568676" lon="13.45654757">
        <ele>382.00000</ele>
        <time>2024-02-02T13:31:36Z</time>
      </trkpt>
      <trkpt lat="42.84561929" lon="13.45665520">
        <ele>381.00000</ele>
        <time>2024-02-02T13:31:37Z</time>
      </trkpt>
      <trkpt lat="42.84555307" lon="13.45675670">
        <ele>379.00000</ele>
        <time>2024-02-02T13:31:38Z</time>
      </trkpt>
      <trkpt lat="42.84548677" lon="13.45684982">
        <ele>378.00000</ele>
        <time>2024-02-02T13:31:39Z</time>
      </trkpt>
      <trkpt lat="42.84541460" lon="13.45693733">
        <ele>376.00000</ele>
        <time>2024-02-02T13:31:40Z</time>
      </trkpt>
      <trkpt lat="42.84535232" lon="13.45702677">
        <ele>375.00000</ele>
        <time>2024-02-02T13:31:41Z</time>
      </trkpt>
      <trkpt lat="42.84529533" lon="13.45712752">
        <ele>374.00000</ele>
        <time>2024-02-02T13:31:42Z</time>
      </trkpt>
      <trkpt lat="42.84523925" lon="13.45723983">
        <ele>373.00000</ele>
        <time>2024-02-02T13:31:43Z</time>
      </trkpt>
      <trkpt lat="42.84518896" lon="13.45736238">
        <ele>374.00000</ele>
        <time>2024-02-02T13:31:44Z</time>
      </trkpt>
      <trkpt lat="42.84514890" lon="13.45749330">
        <ele>374.00000</ele>
        <time>2024-02-02T13:31:45Z</time>
      </trkpt>
      <trkpt lat="42.84511428" lon="13.45763412">
        <ele>373.00000</ele>
        <time>2024-02-02T13:31:46Z</time>
      </trkpt>
      <trkpt lat="42.84511721" lon="13.45777577">
        <ele>373.00000</ele>
        <time>2024-02-02T13:31:47Z</time>
      </trkpt>
      <trkpt lat="42.84514831" lon="13.45791013">
        <ele>373.00000</ele>
        <time>2024-02-02T13:31:48Z</time>
      </trkpt>
      <trkpt lat="42.84518997" lon="13.45803754">
        <ele>373.00000</ele>
        <time>2024-02-02T13:31:49Z</time>
      </trkpt>
      <trkpt lat="42.84524738" lon="13.45814969">
        <ele>371.00000</ele>
        <time>2024-02-02T13:31:50Z</time>
      </trkpt>
      <trkpt lat="42.84531855" lon="13.45824290">
        <ele>370.00000</ele>
        <time>2024-02-02T13:31:51Z</time>
      </trkpt>
      <trkpt lat="42.84540471" lon="13.45831934">
        <ele>370.00000</ele>
        <time>2024-02-02T13:31:52Z</time>
      </trkpt>
      <trkpt lat="42.84549926" lon="13.45839394">
        <ele>369.00000</ele>
        <time>2024-02-02T13:31:53Z</time>
      </trkpt>
      <trkpt lat="42.84558291" lon="13.45849167">
        <ele>368.00000</ele>
        <time>2024-02-02T13:31:54Z</time>
      </trkpt>
      <trkpt lat="42.84563773" lon="13.45862142">
        <ele>366.00000</ele>
        <time>2024-02-02T13:31:55Z</time>
      </trkpt>
      <trkpt lat="42.84569456" lon="13.45875595">
        <ele>365.00000</ele>
        <time>2024-02-02T13:31:56Z</time>
      </trkpt>
      <trkpt lat="42.84573990" lon="13.45886483">
        <ele>363.00000</ele>
        <time>2024-02-02T13:31:57Z</time>
      </trkpt>
      <trkpt lat="42.84582003" lon="13.45901520">
        <ele>360.00000</ele>
        <time>2024-02-02T13:31:58Z</time>
      </trkpt>
      <trkpt lat="42.84590578" lon="13.45912107">
        <ele>360.00000</ele>
        <time>2024-02-02T13:31:59Z</time>
      </trkpt>
      <trkpt lat="42.84599253" lon="13.45922777">
        <ele>361.00000</ele>
        <time>2024-02-02T13:32:00Z</time>
      </trkpt>
      <trkpt lat="42.84606202" lon="13.45931259">
        <ele>361.00000</ele>
        <time>2024-02-02T13:32:01Z</time>
      </trkpt>
      <trkpt lat="42.84614316" lon="13.45942701">
        <ele>360.00000</ele>
        <time>2024-02-02T13:32:02Z</time>
      </trkpt>
      <trkpt lat="42.84621164" lon="13.45958190">
        <ele>359.00000</ele>
        <time>2024-02-02T13:32:03Z</time>
      </trkpt>
      <trkpt lat="42.84624257" lon="13.45970545">
        <ele>356.00000</ele>
        <time>2024-02-02T13:32:04Z</time>
      </trkpt>
      <trkpt lat="42.84627861" lon="13.45980964">
        <ele>355.00000</ele>
        <time>2024-02-02T13:32:05Z</time>
      </trkpt>
      <trkpt lat="42.84632295" lon="13.45986873">
        <ele>355.00000</ele>
        <time>2024-02-02T13:32:06Z</time>
      </trkpt>
      <trkpt lat="42.84640953" lon="13.45992271">
        <ele>355.00000</ele>
        <time>2024-02-02T13:32:07Z</time>
      </trkpt>
      <trkpt lat="42.84649780" lon="13.45994375">
        <ele>355.00000</ele>
        <time>2024-02-02T13:32:08Z</time>
      </trkpt>
      <trkpt lat="42.84658413" lon="13.45996093">
        <ele>356.00000</ele>
        <time>2024-02-02T13:32:09Z</time>
      </trkpt>
      <trkpt lat="42.84666057" lon="13.45998005">
        <ele>356.00000</ele>
        <time>2024-02-02T13:32:10Z</time>
      </trkpt>
      <trkpt lat="42.84671413" lon="13.45999362">
        <ele>356.00000</ele>
        <time>2024-02-02T13:32:11Z</time>
      </trkpt>
      <trkpt lat="42.84676803" lon="13.46003981">
        <ele>358.00000</ele>
        <time>2024-02-02T13:32:12Z</time>
      </trkpt>
      <trkpt lat="42.84678638" lon="13.46010225">
        <ele>359.00000</ele>
        <time>2024-02-02T13:32:13Z</time>
      </trkpt>
      <trkpt lat="42.84677758" lon="13.46016906">
        <ele>359.00000</ele>
        <time>2024-02-02T13:32:14Z</time>
      </trkpt>
      <trkpt lat="42.84673467" lon="13.46021776">
        <ele>359.00000</ele>
        <time>2024-02-02T13:32:15Z</time>
      </trkpt>
      <trkpt lat="42.84666493" lon="13.46023242">
        <ele>358.00000</ele>
        <time>2024-02-02T13:32:16Z</time>
      </trkpt>
      <trkpt lat="42.84661238" lon="13.46024039">
        <ele>357.00000</ele>
        <time>2024-02-02T13:32:17Z</time>
      </trkpt>
      <trkpt lat="42.84653090" lon="13.46025355">
        <ele>355.00000</ele>
        <time>2024-02-02T13:32:18Z</time>
      </trkpt>
      <trkpt lat="42.84644750" lon="13.46024936">
        <ele>352.00000</ele>
        <time>2024-02-02T13:32:19Z</time>
      </trkpt>
      <trkpt lat="42.84638841" lon="13.46026645">
        <ele>351.00000</ele>
        <time>2024-02-02T13:32:20Z</time>
      </trkpt>
      <trkpt lat="42.84634105" lon="13.46032479">
        <ele>351.00000</ele>
        <time>2024-02-02T13:32:21Z</time>
      </trkpt>
      <trkpt lat="42.84632597" lon="13.46040375">
        <ele>352.00000</ele>
        <time>2024-02-02T13:32:22Z</time>
      </trkpt>
      <trkpt lat="42.84633988" lon="13.46048036">
        <ele>353.00000</ele>
        <time>2024-02-02T13:32:23Z</time>
      </trkpt>
      <trkpt lat="42.84636645" lon="13.46056125">
        <ele>354.00000</ele>
        <time>2024-02-02T13:32:24Z</time>
      </trkpt>
      <trkpt lat="42.84639243" lon="13.46063132">
        <ele>356.00000</ele>
        <time>2024-02-02T13:32:25Z</time>
      </trkpt>
      <trkpt lat="42.84643049" lon="13.46073953">
        <ele>358.00000</ele>
        <time>2024-02-02T13:32:26Z</time>
      </trkpt>
      <trkpt lat="42.84645949" lon="13.46083106">
        <ele>360.00000</ele>
        <time>2024-02-02T13:32:27Z</time>
      </trkpt>
      <trkpt lat="42.84647944" lon="13.46092603">
        <ele>361.00000</ele>
        <time>2024-02-02T13:32:28Z</time>
      </trkpt>
      <trkpt lat="42.84648279" lon="13.46102208">
        <ele>361.00000</ele>
        <time>2024-02-02T13:32:29Z</time>
      </trkpt>
      <trkpt lat="42.84647692" lon="13.46109727">
        <ele>361.00000</ele>
        <time>2024-02-02T13:32:30Z</time>
      </trkpt>
      <trkpt lat="42.84645463" lon="13.46117832">
        <ele>360.00000</ele>
        <time>2024-02-02T13:32:31Z</time>
      </trkpt>
      <trkpt lat="42.84640962" lon="13.46125954">
        <ele>359.00000</ele>
        <time>2024-02-02T13:32:32Z</time>
      </trkpt>
      <trkpt lat="42.84635539" lon="13.46132190">
        <ele>358.00000</ele>
        <time>2024-02-02T13:32:33Z</time>
      </trkpt>
      <trkpt lat="42.84628506" lon="13.46137639">
        <ele>358.00000</ele>
        <time>2024-02-02T13:32:34Z</time>
      </trkpt>
      <trkpt lat="42.84623905" lon="13.46141788">
        <ele>357.00000</ele>
        <time>2024-02-02T13:32:35Z</time>
      </trkpt>
      <trkpt lat="42.84618607" lon="13.46147404">
        <ele>356.00000</ele>
        <time>2024-02-02T13:32:36Z</time>
      </trkpt>
      <trkpt lat="42.84613377" lon="13.46155484">
        <ele>355.00000</ele>
        <time>2024-02-02T13:32:37Z</time>
      </trkpt>
      <trkpt lat="42.84609697" lon="13.46163094">
        <ele>354.00000</ele>
        <time>2024-02-02T13:32:38Z</time>
      </trkpt>
      <trkpt lat="42.84606286" lon="13.46171041">
        <ele>354.00000</ele>
        <time>2024-02-02T13:32:39Z</time>
      </trkpt>
      <trkpt lat="42.84603947" lon="13.46177553">
        <ele>354.00000</ele>
        <time>2024-02-02T13:32:40Z</time>
      </trkpt>
      <trkpt lat="42.84600921" lon="13.46185608">
        <ele>354.00000</ele>
        <time>2024-02-02T13:32:41Z</time>
      </trkpt>
      <trkpt lat="42.84598499" lon="13.46193755">
        <ele>354.00000</ele>
        <time>2024-02-02T13:32:42Z</time>
      </trkpt>
      <trkpt lat="42.84596228" lon="13.46204325">
        <ele>354.00000</ele>
        <time>2024-02-02T13:32:43Z</time>
      </trkpt>
      <trkpt lat="42.84595951" lon="13.46211525">
        <ele>354.00000</ele>
        <time>2024-02-02T13:32:44Z</time>
      </trkpt>
      <trkpt lat="42.84597116" lon="13.46220527">
        <ele>354.00000</ele>
        <time>2024-02-02T13:32:45Z</time>
      </trkpt>
      <trkpt lat="42.84599253" lon="13.46229672">
        <ele>354.00000</ele>
        <time>2024-02-02T13:32:46Z</time>
      </trkpt>
      <trkpt lat="42.84602447" lon="13.46240242">
        <ele>354.00000</ele>
        <time>2024-02-02T13:32:47Z</time>
      </trkpt>
      <trkpt lat="42.84606177" lon="13.46247685">
        <ele>354.00000</ele>
        <time>2024-02-02T13:32:48Z</time>
      </trkpt>
      <trkpt lat="42.84610510" lon="13.46252538">
        <ele>354.00000</ele>
        <time>2024-02-02T13:32:49Z</time>
      </trkpt>
      <trkpt lat="42.84616487" lon="13.46257575">
        <ele>354.00000</ele>
        <time>2024-02-02T13:32:50Z</time>
      </trkpt>
      <trkpt lat="42.84622421" lon="13.46262705">
        <ele>355.00000</ele>
        <time>2024-02-02T13:32:51Z</time>
      </trkpt>
      <trkpt lat="42.84628272" lon="13.46270911">
        <ele>356.00000</ele>
        <time>2024-02-02T13:32:52Z</time>
      </trkpt>
      <trkpt lat="42.84630250" lon="13.46279854">
        <ele>355.00000</ele>
        <time>2024-02-02T13:32:53Z</time>
      </trkpt>
      <trkpt lat="42.84629235" lon="13.46288253">
        <ele>354.00000</ele>
        <time>2024-02-02T13:32:54Z</time>
      </trkpt>
      <trkpt lat="42.84627291" lon="13.46296375">
        <ele>353.00000</ele>
        <time>2024-02-02T13:32:55Z</time>
      </trkpt>
      <trkpt lat="42.84626017" lon="13.46305478">
        <ele>351.00000</ele>
        <time>2024-02-02T13:32:56Z</time>
      </trkpt>
      <trkpt lat="42.84625757" lon="13.46314824">
        <ele>351.00000</ele>
        <time>2024-02-02T13:32:57Z</time>
      </trkpt>
      <trkpt lat="42.84625346" lon="13.46324094">
        <ele>350.00000</ele>
        <time>2024-02-02T13:32:58Z</time>
      </trkpt>
      <trkpt lat="42.84625078" lon="13.46333356">
        <ele>350.00000</ele>
        <time>2024-02-02T13:32:59Z</time>
      </trkpt>
      <trkpt lat="42.84624634" lon="13.46341101">
        <ele>350.00000</ele>
        <time>2024-02-02T13:33:00Z</time>
      </trkpt>
      <trkpt lat="42.84624123" lon="13.46352056">
        <ele>350.00000</ele>
        <time>2024-02-02T13:33:01Z</time>
      </trkpt>
      <trkpt lat="42.84622656" lon="13.46361503">
        <ele>349.00000</ele>
        <time>2024-02-02T13:33:02Z</time>
      </trkpt>
      <trkpt lat="42.84620929" lon="13.46370915">
        <ele>349.00000</ele>
        <time>2024-02-02T13:33:03Z</time>
      </trkpt>
      <trkpt lat="42.84619093" lon="13.46377805">
        <ele>348.00000</ele>
        <time>2024-02-02T13:33:04Z</time>
      </trkpt>
      <trkpt lat="42.84616579" lon="13.46385508">
        <ele>347.00000</ele>
        <time>2024-02-02T13:33:05Z</time>
      </trkpt>
      <trkpt lat="42.84613930" lon="13.46392113">
        <ele>346.00000</ele>
        <time>2024-02-02T13:33:06Z</time>
      </trkpt>
      <trkpt lat="42.84611047" lon="13.46399573">
        <ele>345.00000</ele>
        <time>2024-02-02T13:33:07Z</time>
      </trkpt>
      <trkpt lat="42.84608599" lon="13.46405248">
        <ele>345.00000</ele>
        <time>2024-02-02T13:33:08Z</time>
      </trkpt>
      <trkpt lat="42.84607216" lon="13.46409380">
        <ele>345.00000</ele>
        <time>2024-02-02T13:33:09Z</time>
      </trkpt>
      <trkpt lat="42.84605615" lon="13.46413604">
        <ele>345.00000</ele>
        <time>2024-02-02T13:33:10Z</time>
      </trkpt>
      <trkpt lat="42.84605138" lon="13.46416748">
        <ele>345.00000</ele>
        <time>2024-02-02T13:33:11Z</time>
      </trkpt>
      <trkpt lat="42.84605171" lon="13.46418969">
        <ele>345.00000</ele>
        <time>2024-02-02T13:33:12Z</time>
      </trkpt>
      <trkpt lat="42.84605389" lon="13.46422079">
        <ele>345.00000</ele>
        <time>2024-02-02T13:33:13Z</time>
      </trkpt>
      <trkpt lat="42.84605389" lon="13.46425700">
        <ele>345.00000</ele>
        <time>2024-02-02T13:33:14Z</time>
      </trkpt>
      <trkpt lat="42.84605473" lon="13.46430821">
        <ele>345.00000</ele>
        <time>2024-02-02T13:33:15Z</time>
      </trkpt>
      <trkpt lat="42.84605833" lon="13.46438926">
        <ele>345.00000</ele>
        <time>2024-02-02T13:33:16Z</time>
      </trkpt>
      <trkpt lat="42.84606395" lon="13.46447266">
        <ele>345.00000</ele>
        <time>2024-02-02T13:33:17Z</time>
      </trkpt>
      <trkpt lat="42.84607267" lon="13.46455967">
        <ele>345.00000</ele>
        <time>2024-02-02T13:33:18Z</time>
      </trkpt>
      <trkpt lat="42.84609538" lon="13.46463460">
        <ele>344.00000</ele>
        <time>2024-02-02T13:33:19Z</time>
      </trkpt>
      <trkpt lat="42.84612061" lon="13.46472278">
        <ele>344.00000</ele>
        <time>2024-02-02T13:33:20Z</time>
      </trkpt>
      <trkpt lat="42.84615322" lon="13.46481238">
        <ele>344.00000</ele>
        <time>2024-02-02T13:33:21Z</time>
      </trkpt>
      <trkpt lat="42.84619865" lon="13.46492487">
        <ele>344.00000</ele>
        <time>2024-02-02T13:33:22Z</time>
      </trkpt>
      <trkpt lat="42.84623418" lon="13.46502645">
        <ele>344.00000</ele>
        <time>2024-02-02T13:33:23Z</time>
      </trkpt>
      <trkpt lat="42.84625614" lon="13.46511212">
        <ele>344.00000</ele>
        <time>2024-02-02T13:33:24Z</time>
      </trkpt>
      <trkpt lat="42.84627660" lon="13.46524665">
        <ele>344.00000</ele>
        <time>2024-02-02T13:33:25Z</time>
      </trkpt>
      <trkpt lat="42.84628305" lon="13.46536240">
        <ele>344.00000</ele>
        <time>2024-02-02T13:33:26Z</time>
      </trkpt>
      <trkpt lat="42.84627442" lon="13.46547799">
        <ele>344.00000</ele>
        <time>2024-02-02T13:33:27Z</time>
      </trkpt>
      <trkpt lat="42.84625489" lon="13.46559097">
        <ele>343.00000</ele>
        <time>2024-02-02T13:33:28Z</time>
      </trkpt>
      <trkpt lat="42.84623972" lon="13.46567823">
        <ele>342.00000</ele>
        <time>2024-02-02T13:33:29Z</time>
      </trkpt>
      <trkpt lat="42.84623251" lon="13.46581251">
        <ele>341.00000</ele>
        <time>2024-02-02T13:33:30Z</time>
      </trkpt>
      <trkpt lat="42.84623804" lon="13.46593153">
        <ele>339.00000</ele>
        <time>2024-02-02T13:33:31Z</time>
      </trkpt>
      <trkpt lat="42.84624609" lon="13.46605441">
        <ele>337.00000</ele>
        <time>2024-02-02T13:33:32Z</time>
      </trkpt>
      <trkpt lat="42.84625581" lon="13.46618508">
        <ele>336.00000</ele>
        <time>2024-02-02T13:33:33Z</time>
      </trkpt>
      <trkpt lat="42.84626872" lon="13.46629472">
        <ele>336.00000</ele>
        <time>2024-02-02T13:33:34Z</time>
      </trkpt>
      <trkpt lat="42.84627567" lon="13.46643679">
        <ele>336.00000</ele>
        <time>2024-02-02T13:33:35Z</time>
      </trkpt>
      <trkpt lat="42.84629152" lon="13.46661424">
        <ele>336.00000</ele>
        <time>2024-02-02T13:33:36Z</time>
      </trkpt>
      <trkpt lat="42.84630711" lon="13.46676285">
        <ele>336.00000</ele>
        <time>2024-02-02T13:33:37Z</time>
      </trkpt>
      <trkpt lat="42.84633242" lon="13.46691532">
        <ele>335.00000</ele>
        <time>2024-02-02T13:33:38Z</time>
      </trkpt>
      <trkpt lat="42.84636343" lon="13.46706820">
        <ele>334.00000</ele>
        <time>2024-02-02T13:33:39Z</time>
      </trkpt>
      <trkpt lat="42.84639135" lon="13.46722075">
        <ele>335.00000</ele>
        <time>2024-02-02T13:33:40Z</time>
      </trkpt>
      <trkpt lat="42.84643594" lon="13.46737003">
        <ele>334.00000</ele>
        <time>2024-02-02T13:33:41Z</time>
      </trkpt>
      <trkpt lat="42.84648749" lon="13.46751630">
        <ele>334.00000</ele>
        <time>2024-02-02T13:33:42Z</time>
      </trkpt>
      <trkpt lat="42.84653266" lon="13.46766424">
        <ele>332.00000</ele>
        <time>2024-02-02T13:33:43Z</time>
      </trkpt>
      <trkpt lat="42.84659109" lon="13.46781419">
        <ele>330.00000</ele>
        <time>2024-02-02T13:33:44Z</time>
      </trkpt>
      <trkpt lat="42.84665856" lon="13.46796247">
        <ele>327.00000</ele>
        <time>2024-02-02T13:33:45Z</time>
      </trkpt>
      <trkpt lat="42.84673601" lon="13.46809314">
        <ele>326.00000</ele>
        <time>2024-02-02T13:33:46Z</time>
      </trkpt>
      <trkpt lat="42.84681572" lon="13.46822566">
        <ele>327.00000</ele>
        <time>2024-02-02T13:33:47Z</time>
      </trkpt>
      <trkpt lat="42.84689057" lon="13.46836396">
        <ele>327.00000</ele>
        <time>2024-02-02T13:33:48Z</time>
      </trkpt>
      <trkpt lat="42.84695025" lon="13.46851408">
        <ele>326.00000</ele>
        <time>2024-02-02T13:33:49Z</time>
      </trkpt>
      <trkpt lat="42.84699501" lon="13.46867870">
        <ele>325.00000</ele>
        <time>2024-02-02T13:33:50Z</time>
      </trkpt>
      <trkpt lat="42.84702183" lon="13.46885447">
        <ele>323.00000</ele>
        <time>2024-02-02T13:33:51Z</time>
      </trkpt>
      <trkpt lat="42.84703893" lon="13.46902932">
        <ele>322.00000</ele>
        <time>2024-02-02T13:33:52Z</time>
      </trkpt>
      <trkpt lat="42.84706768" lon="13.46919628">
        <ele>321.00000</ele>
        <time>2024-02-02T13:33:53Z</time>
      </trkpt>
      <trkpt lat="42.84710372" lon="13.46932486">
        <ele>321.00000</ele>
        <time>2024-02-02T13:33:54Z</time>
      </trkpt>
      <trkpt lat="42.84717572" lon="13.46950247">
        <ele>320.00000</ele>
        <time>2024-02-02T13:33:55Z</time>
      </trkpt>
      <trkpt lat="42.84725359" lon="13.46963508">
        <ele>320.00000</ele>
        <time>2024-02-02T13:33:56Z</time>
      </trkpt>
      <trkpt lat="42.84733691" lon="13.46975628">
        <ele>322.00000</ele>
        <time>2024-02-02T13:33:57Z</time>
      </trkpt>
      <trkpt lat="42.84741997" lon="13.46987572">
        <ele>324.00000</ele>
        <time>2024-02-02T13:33:58Z</time>
      </trkpt>
      <trkpt lat="42.84750605" lon="13.46999776">
        <ele>324.00000</ele>
        <time>2024-02-02T13:33:59Z</time>
      </trkpt>
      <trkpt lat="42.84758384" lon="13.47012978">
        <ele>323.00000</ele>
        <time>2024-02-02T13:34:00Z</time>
      </trkpt>
      <trkpt lat="42.84764980" lon="13.47027235">
        <ele>323.00000</ele>
        <time>2024-02-02T13:34:01Z</time>
      </trkpt>
      <trkpt lat="42.84768509" lon="13.47039104">
        <ele>321.00000</ele>
        <time>2024-02-02T13:34:02Z</time>
      </trkpt>
      <trkpt lat="42.84772189" lon="13.47055071">
        <ele>319.00000</ele>
        <time>2024-02-02T13:34:03Z</time>
      </trkpt>
      <trkpt lat="42.84776086" lon="13.47073051">
        <ele>316.00000</ele>
        <time>2024-02-02T13:34:04Z</time>
      </trkpt>
      <trkpt lat="42.84780965" lon="13.47086512">
        <ele>315.00000</ele>
        <time>2024-02-02T13:34:05Z</time>
      </trkpt>
      <trkpt lat="42.84788014" lon="13.47096855">
        <ele>315.00000</ele>
        <time>2024-02-02T13:34:06Z</time>
      </trkpt>
      <trkpt lat="42.84796731" lon="13.47103938">
        <ele>314.00000</ele>
        <time>2024-02-02T13:34:07Z</time>
      </trkpt>
      <trkpt lat="42.84805054" lon="13.47106637">
        <ele>314.00000</ele>
        <time>2024-02-02T13:34:08Z</time>
      </trkpt>
      <trkpt lat="42.84817879" lon="13.47109680">
        <ele>315.00000</ele>
        <time>2024-02-02T13:34:09Z</time>
      </trkpt>
      <trkpt lat="42.84829035" lon="13.47111524">
        <ele>316.00000</ele>
        <time>2024-02-02T13:34:10Z</time>
      </trkpt>
      <trkpt lat="42.84838188" lon="13.47112638">
        <ele>317.00000</ele>
        <time>2024-02-02T13:34:11Z</time>
      </trkpt>
      <trkpt lat="42.84848749" lon="13.47114608">
        <ele>317.00000</ele>
        <time>2024-02-02T13:34:12Z</time>
      </trkpt>
      <trkpt lat="42.84858833" lon="13.47119042">
        <ele>317.00000</ele>
        <time>2024-02-02T13:34:13Z</time>
      </trkpt>
      <trkpt lat="42.84869260" lon="13.47127491">
        <ele>318.00000</ele>
        <time>2024-02-02T13:34:14Z</time>
      </trkpt>
      <trkpt lat="42.84875219" lon="13.47137809">
        <ele>319.00000</ele>
        <time>2024-02-02T13:34:15Z</time>
      </trkpt>
      <trkpt lat="42.84877834" lon="13.47150793">
        <ele>318.00000</ele>
        <time>2024-02-02T13:34:16Z</time>
      </trkpt>
      <trkpt lat="42.84878388" lon="13.47165042">
        <ele>317.00000</ele>
        <time>2024-02-02T13:34:17Z</time>
      </trkpt>
      <trkpt lat="42.84878287" lon="13.47176467">
        <ele>316.00000</ele>
        <time>2024-02-02T13:34:18Z</time>
      </trkpt>
      <trkpt lat="42.84878966" lon="13.47189844">
        <ele>317.00000</ele>
        <time>2024-02-02T13:34:19Z</time>
      </trkpt>
      <trkpt lat="42.84880575" lon="13.47205409">
        <ele>317.00000</ele>
        <time>2024-02-02T13:34:20Z</time>
      </trkpt>
      <trkpt lat="42.84881522" lon="13.47215970">
        <ele>318.00000</ele>
        <time>2024-02-02T13:34:21Z</time>
      </trkpt>
      <trkpt lat="42.84881589" lon="13.47228862">
        <ele>319.00000</ele>
        <time>2024-02-02T13:34:22Z</time>
      </trkpt>
      <trkpt lat="42.84879435" lon="13.47241393">
        <ele>319.00000</ele>
        <time>2024-02-02T13:34:23Z</time>
      </trkpt>
      <trkpt lat="42.84875680" lon="13.47255701">
        <ele>318.00000</ele>
        <time>2024-02-02T13:34:24Z</time>
      </trkpt>
      <trkpt lat="42.84872260" lon="13.47267276">
        <ele>318.00000</ele>
        <time>2024-02-02T13:34:25Z</time>
      </trkpt>
      <trkpt lat="42.84867483" lon="13.47278768">
        <ele>317.00000</ele>
        <time>2024-02-02T13:34:26Z</time>
      </trkpt>
      <trkpt lat="42.84862177" lon="13.47289966">
        <ele>316.00000</ele>
        <time>2024-02-02T13:34:27Z</time>
      </trkpt>
      <trkpt lat="42.84856821" lon="13.47301835">
        <ele>315.00000</ele>
        <time>2024-02-02T13:34:28Z</time>
      </trkpt>
      <trkpt lat="42.84852152" lon="13.47313737">
        <ele>315.00000</ele>
        <time>2024-02-02T13:34:29Z</time>
      </trkpt>
      <trkpt lat="42.84848758" lon="13.47323653">
        <ele>315.00000</ele>
        <time>2024-02-02T13:34:30Z</time>
      </trkpt>
      <trkpt lat="42.84844743" lon="13.47335907">
        <ele>315.00000</ele>
        <time>2024-02-02T13:34:31Z</time>
      </trkpt>
      <trkpt lat="42.84840049" lon="13.47347265">
        <ele>316.00000</ele>
        <time>2024-02-02T13:34:32Z</time>
      </trkpt>
      <trkpt lat="42.84834818" lon="13.47358463">
        <ele>316.00000</ele>
        <time>2024-02-02T13:34:33Z</time>
      </trkpt>
      <trkpt lat="42.84828272" lon="13.47371337">
        <ele>318.00000</ele>
        <time>2024-02-02T13:34:34Z</time>
      </trkpt>
      <trkpt lat="42.84823084" lon="13.47382167">
        <ele>319.00000</ele>
        <time>2024-02-02T13:34:35Z</time>
      </trkpt>
      <trkpt lat="42.84818197" lon="13.47391303">
        <ele>319.00000</ele>
        <time>2024-02-02T13:34:36Z</time>
      </trkpt>
      <trkpt lat="42.84810762" lon="13.47402392">
        <ele>319.00000</ele>
        <time>2024-02-02T13:34:37Z</time>
      </trkpt>
      <trkpt lat="42.84804887" lon="13.47413557">
        <ele>319.00000</ele>
        <time>2024-02-02T13:34:38Z</time>
      </trkpt>
      <trkpt lat="42.84797812" lon="13.47427178">
        <ele>317.00000</ele>
        <time>2024-02-02T13:34:39Z</time>
      </trkpt>
      <trkpt lat="42.84792590" lon="13.47438954">
        <ele>316.00000</ele>
        <time>2024-02-02T13:34:40Z</time>
      </trkpt>
      <trkpt lat="42.84789154" lon="13.47448862">
        <ele>315.00000</ele>
        <time>2024-02-02T13:34:41Z</time>
      </trkpt>
      <trkpt lat="42.84786321" lon="13.47461736">
        <ele>314.00000</ele>
        <time>2024-02-02T13:34:42Z</time>
      </trkpt>
      <trkpt lat="42.84785449" lon="13.47474678">
        <ele>313.00000</ele>
        <time>2024-02-02T13:34:43Z</time>
      </trkpt>
      <trkpt lat="42.84785130" lon="13.47490075">
        <ele>312.00000</ele>
        <time>2024-02-02T13:34:44Z</time>
      </trkpt>
      <trkpt lat="42.84785072" lon="13.47502556">
        <ele>312.00000</ele>
        <time>2024-02-02T13:34:45Z</time>
      </trkpt>
      <trkpt lat="42.84785122" lon="13.47514593">
        <ele>311.00000</ele>
        <time>2024-02-02T13:34:46Z</time>
      </trkpt>
      <trkpt lat="42.84784904" lon="13.47526445">
        <ele>311.00000</ele>
        <time>2024-02-02T13:34:47Z</time>
      </trkpt>
      <trkpt lat="42.84785063" lon="13.47537970">
        <ele>310.00000</ele>
        <time>2024-02-02T13:34:48Z</time>
      </trkpt>
      <trkpt lat="42.84786053" lon="13.47549042">
        <ele>308.00000</ele>
        <time>2024-02-02T13:34:49Z</time>
      </trkpt>
      <trkpt lat="42.84787712" lon="13.47560056">
        <ele>307.00000</ele>
        <time>2024-02-02T13:34:50Z</time>
      </trkpt>
      <trkpt lat="42.84791015" lon="13.47569419">
        <ele>306.00000</ele>
        <time>2024-02-02T13:34:51Z</time>
      </trkpt>
      <trkpt lat="42.84796161" lon="13.47576627">
        <ele>305.00000</ele>
        <time>2024-02-02T13:34:52Z</time>
      </trkpt>
      <trkpt lat="42.84802783" lon="13.47581958">
        <ele>305.00000</ele>
        <time>2024-02-02T13:34:53Z</time>
      </trkpt>
      <trkpt lat="42.84810679" lon="13.47585629">
        <ele>304.00000</ele>
        <time>2024-02-02T13:34:54Z</time>
      </trkpt>
      <trkpt lat="42.84819169" lon="13.47589007">
        <ele>302.00000</ele>
        <time>2024-02-02T13:34:55Z</time>
      </trkpt>
      <trkpt lat="42.84827752" lon="13.47592259">
        <ele>301.00000</ele>
        <time>2024-02-02T13:34:56Z</time>
      </trkpt>
      <trkpt lat="42.84836746" lon="13.47595972">
        <ele>300.00000</ele>
        <time>2024-02-02T13:34:57Z</time>
      </trkpt>
      <trkpt lat="42.84846251" lon="13.47600029">
        <ele>299.00000</ele>
        <time>2024-02-02T13:34:58Z</time>
      </trkpt>
      <trkpt lat="42.84855907" lon="13.47604095">
        <ele>298.00000</ele>
        <time>2024-02-02T13:34:59Z</time>
      </trkpt>
      <trkpt lat="42.84865530" lon="13.47608562">
        <ele>296.00000</ele>
        <time>2024-02-02T13:35:00Z</time>
      </trkpt>
      <trkpt lat="42.84875471" lon="13.47613331">
        <ele>296.00000</ele>
        <time>2024-02-02T13:35:01Z</time>
      </trkpt>
      <trkpt lat="42.84885353" lon="13.47617874">
        <ele>295.00000</ele>
        <time>2024-02-02T13:35:02Z</time>
      </trkpt>
      <trkpt lat="42.84895101" lon="13.47622895">
        <ele>295.00000</ele>
        <time>2024-02-02T13:35:03Z</time>
      </trkpt>
      <trkpt lat="42.84905763" lon="13.47627539">
        <ele>295.00000</ele>
        <time>2024-02-02T13:35:04Z</time>
      </trkpt>
      <trkpt lat="42.84916039" lon="13.47631637">
        <ele>295.00000</ele>
        <time>2024-02-02T13:35:05Z</time>
      </trkpt>
      <trkpt lat="42.84925754" lon="13.47635644">
        <ele>296.00000</ele>
        <time>2024-02-02T13:35:06Z</time>
      </trkpt>
      <trkpt lat="42.84935502" lon="13.47639835">
        <ele>296.00000</ele>
        <time>2024-02-02T13:35:07Z</time>
      </trkpt>
      <trkpt lat="42.84944931" lon="13.47644411">
        <ele>296.00000</ele>
        <time>2024-02-02T13:35:08Z</time>
      </trkpt>
      <trkpt lat="42.84954453" lon="13.47648804">
        <ele>295.00000</ele>
        <time>2024-02-02T13:35:09Z</time>
      </trkpt>
      <trkpt lat="42.84962257" lon="13.47652156">
        <ele>294.00000</ele>
        <time>2024-02-02T13:35:10Z</time>
      </trkpt>
      <trkpt lat="42.84971703" lon="13.47656666">
        <ele>293.00000</ele>
        <time>2024-02-02T13:35:11Z</time>
      </trkpt>
      <trkpt lat="42.84983404" lon="13.47661443">
        <ele>291.00000</ele>
        <time>2024-02-02T13:35:12Z</time>
      </trkpt>
      <trkpt lat="42.84992884" lon="13.47665341">
        <ele>290.00000</ele>
        <time>2024-02-02T13:35:13Z</time>
      </trkpt>
      <trkpt lat="42.85000277" lon="13.47668442">
        <ele>289.00000</ele>
        <time>2024-02-02T13:35:14Z</time>
      </trkpt>
      <trkpt lat="42.85011861" lon="13.47673312">
        <ele>289.00000</ele>
        <time>2024-02-02T13:35:15Z</time>
      </trkpt>
      <trkpt lat="42.85019740" lon="13.47676808">
        <ele>288.00000</ele>
        <time>2024-02-02T13:35:16Z</time>
      </trkpt>
      <trkpt lat="42.85028323" lon="13.47680713">
        <ele>288.00000</ele>
        <time>2024-02-02T13:35:17Z</time>
      </trkpt>
      <trkpt lat="42.85039303" lon="13.47686556">
        <ele>288.00000</ele>
        <time>2024-02-02T13:35:18Z</time>
      </trkpt>
      <trkpt lat="42.85046487" lon="13.47690336">
        <ele>289.00000</ele>
        <time>2024-02-02T13:35:19Z</time>
      </trkpt>
      <trkpt lat="42.85055656" lon="13.47695055">
        <ele>289.00000</ele>
        <time>2024-02-02T13:35:20Z</time>
      </trkpt>
      <trkpt lat="42.85065530" lon="13.47701794">
        <ele>291.00000</ele>
        <time>2024-02-02T13:35:21Z</time>
      </trkpt>
      <trkpt lat="42.85072370" lon="13.47708684">
        <ele>291.00000</ele>
        <time>2024-02-02T13:35:22Z</time>
      </trkpt>
      <trkpt lat="42.85078254" lon="13.47717661">
        <ele>291.00000</ele>
        <time>2024-02-02T13:35:23Z</time>
      </trkpt>
      <trkpt lat="42.85083325" lon="13.47727585">
        <ele>290.00000</ele>
        <time>2024-02-02T13:35:24Z</time>
      </trkpt>
      <trkpt lat="42.85086770" lon="13.47735942">
        <ele>290.00000</ele>
        <time>2024-02-02T13:35:25Z</time>
      </trkpt>
      <trkpt lat="42.85091648" lon="13.47748565">
        <ele>289.00000</ele>
        <time>2024-02-02T13:35:26Z</time>
      </trkpt>
      <trkpt lat="42.85095462" lon="13.47759671">
        <ele>289.00000</ele>
        <time>2024-02-02T13:35:27Z</time>
      </trkpt>
      <trkpt lat="42.85099619" lon="13.47770995">
        <ele>288.00000</ele>
        <time>2024-02-02T13:35:28Z</time>
      </trkpt>
      <trkpt lat="42.85105302" lon="13.47782260">
        <ele>288.00000</ele>
        <time>2024-02-02T13:35:29Z</time>
      </trkpt>
      <trkpt lat="42.85112184" lon="13.47793031">
        <ele>287.00000</ele>
        <time>2024-02-02T13:35:30Z</time>
      </trkpt>
      <trkpt lat="42.85119057" lon="13.47803391">
        <ele>286.00000</ele>
        <time>2024-02-02T13:35:31Z</time>
      </trkpt>
      <trkpt lat="42.85126157" lon="13.47813349">
        <ele>285.00000</ele>
        <time>2024-02-02T13:35:32Z</time>
      </trkpt>
      <trkpt lat="42.85132963" lon="13.47823382">
        <ele>285.00000</ele>
        <time>2024-02-02T13:35:33Z</time>
      </trkpt>
      <trkpt lat="42.85138654" lon="13.47830967">
        <ele>285.00000</ele>
        <time>2024-02-02T13:35:34Z</time>
      </trkpt>
      <trkpt lat="42.85148276" lon="13.47840229">
        <ele>286.00000</ele>
        <time>2024-02-02T13:35:35Z</time>
      </trkpt>
      <trkpt lat="42.85155443" lon="13.47844286">
        <ele>287.00000</ele>
        <time>2024-02-02T13:35:36Z</time>
      </trkpt>
      <trkpt lat="42.85166356" lon="13.47847874">
        <ele>288.00000</ele>
        <time>2024-02-02T13:35:37Z</time>
      </trkpt>
      <trkpt lat="42.85173028" lon="13.47848637">
        <ele>290.00000</ele>
        <time>2024-02-02T13:35:38Z</time>
      </trkpt>
      <trkpt lat="42.85177043" lon="13.47848201">
        <ele>292.00000</ele>
        <time>2024-02-02T13:35:39Z</time>
      </trkpt>
      <trkpt lat="42.85181460" lon="13.47847647">
        <ele>293.00000</ele>
        <time>2024-02-02T13:35:40Z</time>
      </trkpt>
      <trkpt lat="42.85185433" lon="13.47847002">
        <ele>294.00000</ele>
        <time>2024-02-02T13:35:41Z</time>
      </trkpt>
      <trkpt lat="42.85187982" lon="13.47846482">
        <ele>295.00000</ele>
        <time>2024-02-02T13:35:42Z</time>
      </trkpt>
      <trkpt lat="42.85190303" lon="13.47846164">
        <ele>295.00000</ele>
        <time>2024-02-02T13:35:43Z</time>
      </trkpt>
      <trkpt lat="42.85192131" lon="13.47845929">
        <ele>296.00000</ele>
        <time>2024-02-02T13:35:44Z</time>
      </trkpt>
      <trkpt lat="42.85194234" lon="13.47845544">
        <ele>296.00000</ele>
        <time>2024-02-02T13:35:45Z</time>
      </trkpt>
      <trkpt lat="42.85196891" lon="13.47845141">
        <ele>297.00000</ele>
        <time>2024-02-02T13:35:46Z</time>
      </trkpt>
      <trkpt lat="42.85199255" lon="13.47844823">
        <ele>298.00000</ele>
        <time>2024-02-02T13:35:47Z</time>
      </trkpt>
      <trkpt lat="42.85201049" lon="13.47844311">
        <ele>298.00000</ele>
        <time>2024-02-02T13:35:48Z</time>
      </trkpt>
      <trkpt lat="42.85203756" lon="13.47843909">
        <ele>299.00000</ele>
        <time>2024-02-02T13:35:49Z</time>
      </trkpt>
      <trkpt lat="42.85206237" lon="13.47843574">
        <ele>299.00000</ele>
        <time>2024-02-02T13:35:50Z</time>
      </trkpt>
      <trkpt lat="42.85208676" lon="13.47843306">
        <ele>300.00000</ele>
        <time>2024-02-02T13:35:51Z</time>
      </trkpt>
      <trkpt lat="42.85211233" lon="13.47842845">
        <ele>300.00000</ele>
        <time>2024-02-02T13:35:52Z</time>
      </trkpt>
      <trkpt lat="42.85213605" lon="13.47842367">
        <ele>301.00000</ele>
        <time>2024-02-02T13:35:53Z</time>
      </trkpt>
      <trkpt lat="42.85215927" lon="13.47842250">
        <ele>301.00000</ele>
        <time>2024-02-02T13:35:54Z</time>
      </trkpt>
      <trkpt lat="42.85218316" lon="13.47841990">
        <ele>302.00000</ele>
        <time>2024-02-02T13:35:55Z</time>
      </trkpt>
      <trkpt lat="42.85221015" lon="13.47841537">
        <ele>303.00000</ele>
        <time>2024-02-02T13:35:56Z</time>
      </trkpt>
      <trkpt lat="42.85223035" lon="13.47841118">
        <ele>303.00000</ele>
        <time>2024-02-02T13:35:57Z</time>
      </trkpt>
      <trkpt lat="42.85224133" lon="13.47840808">
        <ele>303.00000</ele>
        <time>2024-02-02T13:35:58Z</time>
      </trkpt>
      <trkpt lat="42.85226237" lon="13.47840263">
        <ele>304.00000</ele>
        <time>2024-02-02T13:35:59Z</time>
      </trkpt>
      <trkpt lat="42.85229539" lon="13.47839609">
        <ele>304.00000</ele>
        <time>2024-02-02T13:36:00Z</time>
      </trkpt>
      <trkpt lat="42.85231810" lon="13.47839559">
        <ele>304.00000</ele>
        <time>2024-02-02T13:36:01Z</time>
      </trkpt>
      <trkpt lat="42.85234015" lon="13.47839416">
        <ele>305.00000</ele>
        <time>2024-02-02T13:36:02Z</time>
      </trkpt>
      <trkpt lat="42.85236261" lon="13.47839081">
        <ele>305.00000</ele>
        <time>2024-02-02T13:36:03Z</time>
      </trkpt>
      <trkpt lat="42.85238466" lon="13.47838997">
        <ele>306.00000</ele>
        <time>2024-02-02T13:36:04Z</time>
      </trkpt>
      <trkpt lat="42.85240536" lon="13.47839031">
        <ele>306.00000</ele>
        <time>2024-02-02T13:36:05Z</time>
      </trkpt>
      <trkpt lat="42.85242891" lon="13.47839048">
        <ele>307.00000</ele>
        <time>2024-02-02T13:36:06Z</time>
      </trkpt>
      <trkpt lat="42.85244459" lon="13.47839375">
        <ele>307.00000</ele>
        <time>2024-02-02T13:36:07Z</time>
      </trkpt>
      <trkpt lat="42.85246504" lon="13.47839785">
        <ele>307.00000</ele>
        <time>2024-02-02T13:36:08Z</time>
      </trkpt>
      <trkpt lat="42.85248851" lon="13.47840397">
        <ele>308.00000</ele>
        <time>2024-02-02T13:36:09Z</time>
      </trkpt>
      <trkpt lat="42.85251039" lon="13.47840297">
        <ele>308.00000</ele>
        <time>2024-02-02T13:36:10Z</time>
      </trkpt>
      <trkpt lat="42.85253486" lon="13.47840003">
        <ele>309.00000</ele>
        <time>2024-02-02T13:36:11Z</time>
      </trkpt>
      <trkpt lat="42.85255590" lon="13.47839676">
        <ele>309.00000</ele>
        <time>2024-02-02T13:36:12Z</time>
      </trkpt>
      <trkpt lat="42.85257677" lon="13.47839090">
        <ele>309.00000</ele>
        <time>2024-02-02T13:36:13Z</time>
      </trkpt>
      <trkpt lat="42.85259923" lon="13.47838268">
        <ele>309.00000</ele>
        <time>2024-02-02T13:36:14Z</time>
      </trkpt>
      <trkpt lat="42.85261943" lon="13.47837539">
        <ele>309.00000</ele>
        <time>2024-02-02T13:36:15Z</time>
      </trkpt>
      <trkpt lat="42.85264081" lon="13.47837237">
        <ele>309.00000</ele>
        <time>2024-02-02T13:36:16Z</time>
      </trkpt>
      <trkpt lat="42.85265925" lon="13.47837070">
        <ele>310.00000</ele>
        <time>2024-02-02T13:36:17Z</time>
      </trkpt>
      <trkpt lat="42.85268012" lon="13.47836986">
        <ele>310.00000</ele>
        <time>2024-02-02T13:36:18Z</time>
      </trkpt>
      <trkpt lat="42.85270920" lon="13.47836877">
        <ele>310.00000</ele>
        <time>2024-02-02T13:36:19Z</time>
      </trkpt>
      <trkpt lat="42.85273200" lon="13.47836592">
        <ele>310.00000</ele>
        <time>2024-02-02T13:36:20Z</time>
      </trkpt>
      <trkpt lat="42.85275287" lon="13.47836399">
        <ele>311.00000</ele>
        <time>2024-02-02T13:36:21Z</time>
      </trkpt>
      <trkpt lat="42.85276846" lon="13.47836567">
        <ele>311.00000</ele>
        <time>2024-02-02T13:36:22Z</time>
      </trkpt>
      <trkpt lat="42.85279093" lon="13.47836634">
        <ele>311.00000</ele>
        <time>2024-02-02T13:36:23Z</time>
      </trkpt>
      <trkpt lat="42.85281775" lon="13.47836902">
        <ele>312.00000</ele>
        <time>2024-02-02T13:36:24Z</time>
      </trkpt>
      <trkpt lat="42.85284256" lon="13.47836969">
        <ele>312.00000</ele>
        <time>2024-02-02T13:36:25Z</time>
      </trkpt>
      <trkpt lat="42.85286821" lon="13.47836776">
        <ele>312.00000</ele>
        <time>2024-02-02T13:36:26Z</time>
      </trkpt>
      <trkpt lat="42.85288539" lon="13.47836256">
        <ele>312.00000</ele>
        <time>2024-02-02T13:36:27Z</time>
      </trkpt>
      <trkpt lat="42.85290576" lon="13.47835385">
        <ele>312.00000</ele>
        <time>2024-02-02T13:36:28Z</time>
      </trkpt>
      <trkpt lat="42.85292655" lon="13.47835016">
        <ele>313.00000</ele>
        <time>2024-02-02T13:36:29Z</time>
      </trkpt>
      <trkpt lat="42.85295303" lon="13.47835376">
        <ele>313.00000</ele>
        <time>2024-02-02T13:36:30Z</time>
      </trkpt>
      <trkpt lat="42.85297164" lon="13.47836541">
        <ele>313.00000</ele>
        <time>2024-02-02T13:36:31Z</time>
      </trkpt>
      <trkpt lat="42.85299201" lon="13.47837908">
        <ele>314.00000</ele>
        <time>2024-02-02T13:36:32Z</time>
      </trkpt>
      <trkpt lat="42.85301263" lon="13.47838620">
        <ele>314.00000</ele>
        <time>2024-02-02T13:36:33Z</time>
      </trkpt>
      <trkpt lat="42.85303568" lon="13.47838134">
        <ele>315.00000</ele>
        <time>2024-02-02T13:36:34Z</time>
      </trkpt>
      <trkpt lat="42.85306418" lon="13.47837287">
        <ele>315.00000</ele>
        <time>2024-02-02T13:36:35Z</time>
      </trkpt>
      <trkpt lat="42.85308714" lon="13.47837237">
        <ele>315.00000</ele>
        <time>2024-02-02T13:36:36Z</time>
      </trkpt>
      <trkpt lat="42.85310785" lon="13.47837430">
        <ele>315.00000</ele>
        <time>2024-02-02T13:36:37Z</time>
      </trkpt>
      <trkpt lat="42.85312461" lon="13.47837757">
        <ele>315.00000</ele>
        <time>2024-02-02T13:36:38Z</time>
      </trkpt>
      <trkpt lat="42.85314833" lon="13.47837841">
        <ele>315.00000</ele>
        <time>2024-02-02T13:36:39Z</time>
      </trkpt>
      <trkpt lat="42.85316367" lon="13.47838402">
        <ele>315.00000</ele>
        <time>2024-02-02T13:36:40Z</time>
      </trkpt>
      <trkpt lat="42.85317909" lon="13.47839014">
        <ele>315.00000</ele>
        <time>2024-02-02T13:36:41Z</time>
      </trkpt>
      <trkpt lat="42.85319846" lon="13.47839324">
        <ele>315.00000</ele>
        <time>2024-02-02T13:36:42Z</time>
      </trkpt>
      <trkpt lat="42.85321941" lon="13.47839232">
        <ele>315.00000</ele>
        <time>2024-02-02T13:36:43Z</time>
      </trkpt>
      <trkpt lat="42.85323726" lon="13.47839056">
        <ele>315.00000</ele>
        <time>2024-02-02T13:36:44Z</time>
      </trkpt>
      <trkpt lat="42.85325788" lon="13.47838402">
        <ele>315.00000</ele>
        <time>2024-02-02T13:36:45Z</time>
      </trkpt>
      <trkpt lat="42.85327490" lon="13.47838201">
        <ele>315.00000</ele>
        <time>2024-02-02T13:36:46Z</time>
      </trkpt>
      <trkpt lat="42.85328839" lon="13.47838629">
        <ele>315.00000</ele>
        <time>2024-02-02T13:36:47Z</time>
      </trkpt>
      <trkpt lat="42.85331002" lon="13.47838947">
        <ele>315.00000</ele>
        <time>2024-02-02T13:36:48Z</time>
      </trkpt>
      <trkpt lat="42.85332879" lon="13.47839324">
        <ele>316.00000</ele>
        <time>2024-02-02T13:36:49Z</time>
      </trkpt>
      <trkpt lat="42.85334346" lon="13.47839785">
        <ele>316.00000</ele>
        <time>2024-02-02T13:36:50Z</time>
      </trkpt>
      <trkpt lat="42.85336207" lon="13.47840330">
        <ele>316.00000</ele>
        <time>2024-02-02T13:36:51Z</time>
      </trkpt>
      <trkpt lat="42.85338579" lon="13.47840908">
        <ele>316.00000</ele>
        <time>2024-02-02T13:36:52Z</time>
      </trkpt>
      <trkpt lat="42.85339954" lon="13.47841126">
        <ele>317.00000</ele>
        <time>2024-02-02T13:36:53Z</time>
      </trkpt>
      <trkpt lat="42.85341831" lon="13.47841311">
        <ele>317.00000</ele>
        <time>2024-02-02T13:36:54Z</time>
      </trkpt>
      <trkpt lat="42.85344019" lon="13.47841436">
        <ele>317.00000</ele>
        <time>2024-02-02T13:36:55Z</time>
      </trkpt>
      <trkpt lat="42.85346659" lon="13.47841931">
        <ele>317.00000</ele>
        <time>2024-02-02T13:36:56Z</time>
      </trkpt>
      <trkpt lat="42.85348478" lon="13.47842467">
        <ele>317.00000</ele>
        <time>2024-02-02T13:36:57Z</time>
      </trkpt>
      <trkpt lat="42.85351160" lon="13.47842811">
        <ele>318.00000</ele>
        <time>2024-02-02T13:36:58Z</time>
      </trkpt>
      <trkpt lat="42.85353457" lon="13.47842568">
        <ele>318.00000</ele>
        <time>2024-02-02T13:36:59Z</time>
      </trkpt>
      <trkpt lat="42.85354857" lon="13.47844429">
        <ele>318.00000</ele>
        <time>2024-02-02T13:37:00Z</time>
      </trkpt>
      <trkpt lat="42.85355661" lon="13.47846776">
        <ele>318.00000</ele>
        <time>2024-02-02T13:37:01Z</time>
      </trkpt>
      <trkpt lat="42.85357405" lon="13.47851034">
        <ele>318.00000</ele>
        <time>2024-02-02T13:37:02Z</time>
      </trkpt>
      <trkpt lat="42.85359358" lon="13.47855325">
        <ele>318.00000</ele>
        <time>2024-02-02T13:37:03Z</time>
      </trkpt>
      <trkpt lat="42.85362166" lon="13.47859432">
        <ele>319.00000</ele>
        <time>2024-02-02T13:37:04Z</time>
      </trkpt>
      <trkpt lat="42.85365007" lon="13.47861662">
        <ele>319.00000</ele>
        <time>2024-02-02T13:37:05Z</time>
      </trkpt>
      <trkpt lat="42.85369299" lon="13.47864730">
        <ele>319.00000</ele>
        <time>2024-02-02T13:37:06Z</time>
      </trkpt>
      <trkpt lat="42.85374915" lon="13.47868275">
        <ele>320.00000</ele>
        <time>2024-02-02T13:37:07Z</time>
      </trkpt>
      <trkpt lat="42.85379139" lon="13.47870321">
        <ele>320.00000</ele>
        <time>2024-02-02T13:37:08Z</time>
      </trkpt>
      <trkpt lat="42.85384747" lon="13.47872475">
        <ele>320.00000</ele>
        <time>2024-02-02T13:37:09Z</time>
      </trkpt>
      <trkpt lat="42.85390539" lon="13.47875383">
        <ele>320.00000</ele>
        <time>2024-02-02T13:37:10Z</time>
      </trkpt>
      <trkpt lat="42.85398074" lon="13.47880454">
        <ele>320.00000</ele>
        <time>2024-02-02T13:37:11Z</time>
      </trkpt>
      <trkpt lat="42.85403229" lon="13.47885282">
        <ele>319.00000</ele>
        <time>2024-02-02T13:37:12Z</time>
      </trkpt>
      <trkpt lat="42.85408954" lon="13.47892893">
        <ele>318.00000</ele>
        <time>2024-02-02T13:37:13Z</time>
      </trkpt>
      <trkpt lat="42.85413413" lon="13.47902071">
        <ele>317.00000</ele>
        <time>2024-02-02T13:37:14Z</time>
      </trkpt>
      <trkpt lat="42.85415508" lon="13.47913915">
        <ele>315.00000</ele>
        <time>2024-02-02T13:37:15Z</time>
      </trkpt>
      <trkpt lat="42.85415600" lon="13.47927619">
        <ele>313.00000</ele>
        <time>2024-02-02T13:37:16Z</time>
      </trkpt>
      <trkpt lat="42.85415198" lon="13.47942170">
        <ele>311.00000</ele>
        <time>2024-02-02T13:37:17Z</time>
      </trkpt>
      <trkpt lat="42.85414536" lon="13.47957174">
        <ele>309.00000</ele>
        <time>2024-02-02T13:37:18Z</time>
      </trkpt>
      <trkpt lat="42.85413865" lon="13.47972781">
        <ele>307.00000</ele>
        <time>2024-02-02T13:37:19Z</time>
      </trkpt>
      <trkpt lat="42.85412994" lon="13.47988505">
        <ele>305.00000</ele>
        <time>2024-02-02T13:37:20Z</time>
      </trkpt>
      <trkpt lat="42.85411485" lon="13.48003878">
        <ele>303.00000</ele>
        <time>2024-02-02T13:37:21Z</time>
      </trkpt>
      <trkpt lat="42.85408216" lon="13.48020935">
        <ele>302.00000</ele>
        <time>2024-02-02T13:37:22Z</time>
      </trkpt>
      <trkpt lat="42.85404612" lon="13.48032963">
        <ele>301.00000</ele>
        <time>2024-02-02T13:37:23Z</time>
      </trkpt>
      <trkpt lat="42.85401267" lon="13.48041898">
        <ele>301.00000</ele>
        <time>2024-02-02T13:37:24Z</time>
      </trkpt>
      <trkpt lat="42.85398636" lon="13.48047799">
        <ele>301.00000</ele>
        <time>2024-02-02T13:37:25Z</time>
      </trkpt>
      <trkpt lat="42.85397076" lon="13.48055150">
        <ele>300.00000</ele>
        <time>2024-02-02T13:37:26Z</time>
      </trkpt>
      <trkpt lat="42.85398711" lon="13.48062593">
        <ele>300.00000</ele>
        <time>2024-02-02T13:37:27Z</time>
      </trkpt>
      <trkpt lat="42.85402885" lon="13.48069299">
        <ele>298.00000</ele>
        <time>2024-02-02T13:37:28Z</time>
      </trkpt>
      <trkpt lat="42.85409549" lon="13.48070262">
        <ele>297.00000</ele>
        <time>2024-02-02T13:37:29Z</time>
      </trkpt>
      <trkpt lat="42.85415936" lon="13.48068167">
        <ele>297.00000</ele>
        <time>2024-02-02T13:37:30Z</time>
      </trkpt>
      <trkpt lat="42.85424779" lon="13.48064102">
        <ele>296.00000</ele>
        <time>2024-02-02T13:37:31Z</time>
      </trkpt>
      <trkpt lat="42.85434979" lon="13.48059123">
        <ele>295.00000</ele>
        <time>2024-02-02T13:37:32Z</time>
      </trkpt>
      <trkpt lat="42.85443806" lon="13.48054546">
        <ele>294.00000</ele>
        <time>2024-02-02T13:37:33Z</time>
      </trkpt>
      <trkpt lat="42.85453202" lon="13.48050305">
        <ele>293.00000</ele>
        <time>2024-02-02T13:37:34Z</time>
      </trkpt>
      <trkpt lat="42.85462589" lon="13.48046508">
        <ele>292.00000</ele>
        <time>2024-02-02T13:37:35Z</time>
      </trkpt>
      <trkpt lat="42.85472304" lon="13.48042627">
        <ele>291.00000</ele>
        <time>2024-02-02T13:37:36Z</time>
      </trkpt>
      <trkpt lat="42.85482086" lon="13.48037808">
        <ele>290.00000</ele>
        <time>2024-02-02T13:37:37Z</time>
      </trkpt>
      <trkpt lat="42.85491918" lon="13.48032888">
        <ele>290.00000</ele>
        <time>2024-02-02T13:37:38Z</time>
      </trkpt>
      <trkpt lat="42.85501825" lon="13.48028764">
        <ele>289.00000</ele>
        <time>2024-02-02T13:37:39Z</time>
      </trkpt>
      <trkpt lat="42.85510458" lon="13.48025076">
        <ele>288.00000</ele>
        <time>2024-02-02T13:37:40Z</time>
      </trkpt>
      <trkpt lat="42.85517918" lon="13.48021740">
        <ele>287.00000</ele>
        <time>2024-02-02T13:37:41Z</time>
      </trkpt>
      <trkpt lat="42.85524708" lon="13.48018898">
        <ele>286.00000</ele>
        <time>2024-02-02T13:37:42Z</time>
      </trkpt>
      <trkpt lat="42.85530458" lon="13.48016509">
        <ele>285.00000</ele>
        <time>2024-02-02T13:37:43Z</time>
      </trkpt>
      <trkpt lat="42.85535822" lon="13.48014883">
        <ele>285.00000</ele>
        <time>2024-02-02T13:37:44Z</time>
      </trkpt>
      <trkpt lat="42.85540407" lon="13.48015294">
        <ele>284.00000</ele>
        <time>2024-02-02T13:37:45Z</time>
      </trkpt>
      <trkpt lat="42.85545101" lon="13.48017750">
        <ele>283.00000</ele>
        <time>2024-02-02T13:37:46Z</time>
      </trkpt>
      <trkpt lat="42.85548219" lon="13.48021094">
        <ele>282.00000</ele>
        <time>2024-02-02T13:37:47Z</time>
      </trkpt>
      <trkpt lat="42.85548998" lon="13.48024941">
        <ele>282.00000</ele>
        <time>2024-02-02T13:37:48Z</time>
      </trkpt>
      <trkpt lat="42.85550373" lon="13.48029359">
        <ele>281.00000</ele>
        <time>2024-02-02T13:37:49Z</time>
      </trkpt>
      <trkpt lat="42.85551295" lon="13.48032929">
        <ele>281.00000</ele>
        <time>2024-02-02T13:37:50Z</time>
      </trkpt>
      <trkpt lat="42.85551941" lon="13.48035360">
        <ele>280.00000</ele>
        <time>2024-02-02T13:37:51Z</time>
      </trkpt>
      <trkpt lat="42.85552284" lon="13.48036743">
        <ele>280.00000</ele>
        <time>2024-02-02T13:37:52Z</time>
      </trkpt>
      <trkpt lat="42.85552318" lon="13.48037682">
        <ele>280.00000</ele>
        <time>2024-02-02T13:37:53Z</time>
      </trkpt>
      <trkpt lat="42.85552997" lon="13.48038059">
        <ele>280.00000</ele>
        <time>2024-02-02T13:37:54Z</time>
      </trkpt>
      <trkpt lat="42.85553894" lon="13.48039593">
        <ele>280.00000</ele>
        <time>2024-02-02T13:37:55Z</time>
      </trkpt>
      <trkpt lat="42.85555905" lon="13.48040624">
        <ele>280.00000</ele>
        <time>2024-02-02T13:37:56Z</time>
      </trkpt>
      <trkpt lat="42.85558328" lon="13.48039635">
        <ele>279.00000</ele>
        <time>2024-02-02T13:37:57Z</time>
      </trkpt>
      <trkpt lat="42.85560373" lon="13.48036441">
        <ele>280.00000</ele>
        <time>2024-02-02T13:37:58Z</time>
      </trkpt>
      <trkpt lat="42.85562720" lon="13.48032552">
        <ele>280.00000</ele>
        <time>2024-02-02T13:37:59Z</time>
      </trkpt>
      <trkpt lat="42.85565159" lon="13.48029300">
        <ele>280.00000</ele>
        <time>2024-02-02T13:38:00Z</time>
      </trkpt>
      <trkpt lat="42.85569299" lon="13.48024397">
        <ele>280.00000</ele>
        <time>2024-02-02T13:38:01Z</time>
      </trkpt>
      <trkpt lat="42.85573289" lon="13.48019904">
        <ele>280.00000</ele>
        <time>2024-02-02T13:38:02Z</time>
      </trkpt>
      <trkpt lat="42.85577698" lon="13.48014850">
        <ele>280.00000</ele>
        <time>2024-02-02T13:38:03Z</time>
      </trkpt>
      <trkpt lat="42.85581478" lon="13.48009737">
        <ele>280.00000</ele>
        <time>2024-02-02T13:38:04Z</time>
      </trkpt>
      <trkpt lat="42.85585594" lon="13.48004724">
        <ele>280.00000</ele>
        <time>2024-02-02T13:38:05Z</time>
      </trkpt>
      <trkpt lat="42.85589785" lon="13.47999787">
        <ele>280.00000</ele>
        <time>2024-02-02T13:38:06Z</time>
      </trkpt>
      <trkpt lat="42.85594160" lon="13.47994968">
        <ele>280.00000</ele>
        <time>2024-02-02T13:38:07Z</time>
      </trkpt>
      <trkpt lat="42.85598720" lon="13.47990081">
        <ele>280.00000</ele>
        <time>2024-02-02T13:38:08Z</time>
      </trkpt>
      <trkpt lat="42.85602542" lon="13.47986041">
        <ele>280.00000</ele>
        <time>2024-02-02T13:38:09Z</time>
      </trkpt>
      <trkpt lat="42.85607102" lon="13.47980878">
        <ele>280.00000</ele>
        <time>2024-02-02T13:38:10Z</time>
      </trkpt>
      <trkpt lat="42.85611569" lon="13.47975706">
        <ele>281.00000</ele>
        <time>2024-02-02T13:38:11Z</time>
      </trkpt>
      <trkpt lat="42.85616364" lon="13.47970032">
        <ele>281.00000</ele>
        <time>2024-02-02T13:38:12Z</time>
      </trkpt>
      <trkpt lat="42.85619691" lon="13.47966318">
        <ele>281.00000</ele>
        <time>2024-02-02T13:38:13Z</time>
      </trkpt>
      <trkpt lat="42.85623958" lon="13.47961591">
        <ele>281.00000</ele>
        <time>2024-02-02T13:38:14Z</time>
      </trkpt>
      <trkpt lat="42.85628166" lon="13.47957350">
        <ele>281.00000</ele>
        <time>2024-02-02T13:38:15Z</time>
      </trkpt>
      <trkpt lat="42.85632398" lon="13.47952807">
        <ele>281.00000</ele>
        <time>2024-02-02T13:38:16Z</time>
      </trkpt>
      <trkpt lat="42.85636648" lon="13.47948113">
        <ele>281.00000</ele>
        <time>2024-02-02T13:38:17Z</time>
      </trkpt>
      <trkpt lat="42.85640839" lon="13.47943260">
        <ele>282.00000</ele>
        <time>2024-02-02T13:38:18Z</time>
      </trkpt>
      <trkpt lat="42.85645877" lon="13.47937141">
        <ele>282.00000</ele>
        <time>2024-02-02T13:38:19Z</time>
      </trkpt>
      <trkpt lat="42.85650344" lon="13.47931919">
        <ele>282.00000</ele>
        <time>2024-02-02T13:38:20Z</time>
      </trkpt>
      <trkpt lat="42.85654770" lon="13.47926446">
        <ele>282.00000</ele>
        <time>2024-02-02T13:38:21Z</time>
      </trkpt>
      <trkpt lat="42.85659397" lon="13.47921350">
        <ele>282.00000</ele>
        <time>2024-02-02T13:38:22Z</time>
      </trkpt>
      <trkpt lat="42.85663973" lon="13.47916538">
        <ele>282.00000</ele>
        <time>2024-02-02T13:38:23Z</time>
      </trkpt>
      <trkpt lat="42.85668600" lon="13.47911719">
        <ele>282.00000</ele>
        <time>2024-02-02T13:38:24Z</time>
      </trkpt>
      <trkpt lat="42.85673336" lon="13.47906815">
        <ele>282.00000</ele>
        <time>2024-02-02T13:38:25Z</time>
      </trkpt>
      <trkpt lat="42.85677937" lon="13.47901786">
        <ele>282.00000</ele>
        <time>2024-02-02T13:38:26Z</time>
      </trkpt>
      <trkpt lat="42.85682179" lon="13.47896891">
        <ele>282.00000</ele>
        <time>2024-02-02T13:38:27Z</time>
      </trkpt>
      <trkpt lat="42.85686663" lon="13.47892172">
        <ele>282.00000</ele>
        <time>2024-02-02T13:38:28Z</time>
      </trkpt>
      <trkpt lat="42.85691466" lon="13.47887570">
        <ele>281.00000</ele>
        <time>2024-02-02T13:38:29Z</time>
      </trkpt>
      <trkpt lat="42.85696453" lon="13.47882919">
        <ele>281.00000</ele>
        <time>2024-02-02T13:38:30Z</time>
      </trkpt>
      <trkpt lat="42.85701289" lon="13.47878728">
        <ele>282.00000</ele>
        <time>2024-02-02T13:38:31Z</time>
      </trkpt>
      <trkpt lat="42.85706050" lon="13.47874729">
        <ele>282.00000</ele>
        <time>2024-02-02T13:38:32Z</time>
      </trkpt>
      <trkpt lat="42.85710819" lon="13.47870958">
        <ele>282.00000</ele>
        <time>2024-02-02T13:38:33Z</time>
      </trkpt>
      <trkpt lat="42.85715606" lon="13.47867437">
        <ele>282.00000</ele>
        <time>2024-02-02T13:38:34Z</time>
      </trkpt>
      <trkpt lat="42.85720249" lon="13.47864160">
        <ele>282.00000</ele>
        <time>2024-02-02T13:38:35Z</time>
      </trkpt>
      <trkpt lat="42.85724633" lon="13.47860732">
        <ele>283.00000</ele>
        <time>2024-02-02T13:38:36Z</time>
      </trkpt>
      <trkpt lat="42.85729042" lon="13.47857236">
        <ele>283.00000</ele>
        <time>2024-02-02T13:38:37Z</time>
      </trkpt>
      <trkpt lat="42.85733015" lon="13.47853800">
        <ele>284.00000</ele>
        <time>2024-02-02T13:38:38Z</time>
      </trkpt>
      <trkpt lat="42.85736761" lon="13.47850405">
        <ele>284.00000</ele>
        <time>2024-02-02T13:38:39Z</time>
      </trkpt>
      <trkpt lat="42.85740240" lon="13.47847446">
        <ele>284.00000</ele>
        <time>2024-02-02T13:38:40Z</time>
      </trkpt>
      <trkpt lat="42.85743626" lon="13.47844948">
        <ele>285.00000</ele>
        <time>2024-02-02T13:38:41Z</time>
      </trkpt>
      <trkpt lat="42.85746811" lon="13.47842535">
        <ele>285.00000</ele>
        <time>2024-02-02T13:38:42Z</time>
      </trkpt>
      <trkpt lat="42.85749116" lon="13.47840674">
        <ele>285.00000</ele>
        <time>2024-02-02T13:38:43Z</time>
      </trkpt>
      <trkpt lat="42.85751866" lon="13.47838453">
        <ele>285.00000</ele>
        <time>2024-02-02T13:38:44Z</time>
      </trkpt>
      <trkpt lat="42.85753291" lon="13.47836156">
        <ele>285.00000</ele>
        <time>2024-02-02T13:38:45Z</time>
      </trkpt>
      <trkpt lat="42.85753877" lon="13.47833775">
        <ele>285.00000</ele>
        <time>2024-02-02T13:38:46Z</time>
      </trkpt>
      <trkpt lat="42.85753282" lon="13.47832166">
        <ele>286.00000</ele>
        <time>2024-02-02T13:38:47Z</time>
      </trkpt>
      <trkpt lat="42.85751941" lon="13.47830196">
        <ele>286.00000</ele>
        <time>2024-02-02T13:38:48Z</time>
      </trkpt>
      <trkpt lat="42.85749619" lon="13.47827866">
        <ele>286.00000</ele>
        <time>2024-02-02T13:38:49Z</time>
      </trkpt>
      <trkpt lat="42.85747616" lon="13.47826416">
        <ele>286.00000</ele>
        <time>2024-02-02T13:38:50Z</time>
      </trkpt>
      <trkpt lat="42.85745772" lon="13.47825469">
        <ele>286.00000</ele>
        <time>2024-02-02T13:38:51Z</time>
      </trkpt>
      <trkpt lat="42.85744196" lon="13.47824363">
        <ele>286.00000</ele>
        <time>2024-02-02T13:38:52Z</time>
      </trkpt>
      <trkpt lat="42.85743216" lon="13.47823097">
        <ele>286.00000</ele>
        <time>2024-02-02T13:38:53Z</time>
      </trkpt>
      <trkpt lat="42.85742017" lon="13.47821010">
        <ele>286.00000</ele>
        <time>2024-02-02T13:38:54Z</time>
      </trkpt>
      <trkpt lat="42.85741170" lon="13.47819191">
        <ele>287.00000</ele>
        <time>2024-02-02T13:38:55Z</time>
      </trkpt>
      <trkpt lat="42.85740366" lon="13.47817372">
        <ele>287.00000</ele>
        <time>2024-02-02T13:38:56Z</time>
      </trkpt>
      <trkpt lat="42.85739326" lon="13.47815562">
        <ele>287.00000</ele>
        <time>2024-02-02T13:38:57Z</time>
      </trkpt>
      <trkpt lat="42.85738840" lon="13.47814849">
        <ele>287.00000</ele>
        <time>2024-02-02T13:38:58Z</time>
      </trkpt>
      <trkpt lat="42.85739410" lon="13.47814497">
        <ele>287.00000</ele>
        <time>2024-02-02T13:38:59Z</time>
      </trkpt>
      <trkpt lat="42.85740240" lon="13.47814681">
        <ele>287.00000</ele>
        <time>2024-02-02T13:39:00Z</time>
      </trkpt>
      <trkpt lat="42.85740567" lon="13.47814707">
        <ele>287.00000</ele>
        <time>2024-02-02T13:39:01Z</time>
      </trkpt>
      <trkpt lat="42.85747951" lon="13.47827388">
        <ele>286.00000</ele>
        <time>2024-02-02T13:45:49Z</time>
      </trkpt>
      <trkpt lat="42.85749041" lon="13.47829844">
        <ele>286.00000</ele>
        <time>2024-02-02T13:45:50Z</time>
      </trkpt>
      <trkpt lat="42.85750466" lon="13.47831730">
        <ele>286.00000</ele>
        <time>2024-02-02T13:45:51Z</time>
      </trkpt>
      <trkpt lat="42.85751882" lon="13.47833415">
        <ele>285.00000</ele>
        <time>2024-02-02T13:45:52Z</time>
      </trkpt>
      <trkpt lat="42.85753274" lon="13.47836785">
        <ele>285.00000</ele>
        <time>2024-02-02T13:45:54Z</time>
      </trkpt>
      <trkpt lat="42.85749393" lon="13.47840607">
        <ele>285.00000</ele>
        <time>2024-02-02T13:45:56Z</time>
      </trkpt>
      <trkpt lat="42.85746434" lon="13.47842509">
        <ele>285.00000</ele>
        <time>2024-02-02T13:45:58Z</time>
      </trkpt>
      <trkpt lat="42.85739905" lon="13.47846625">
        <ele>284.00000</ele>
        <time>2024-02-02T13:45:59Z</time>
      </trkpt>
      <trkpt lat="42.85736644" lon="13.47849014">
        <ele>284.00000</ele>
        <time>2024-02-02T13:46:00Z</time>
      </trkpt>
      <trkpt lat="42.85733174" lon="13.47851159">
        <ele>284.00000</ele>
        <time>2024-02-02T13:46:01Z</time>
      </trkpt>
      <trkpt lat="42.85725496" lon="13.47857144">
        <ele>283.00000</ele>
        <time>2024-02-02T13:46:03Z</time>
      </trkpt>
      <trkpt lat="42.85721020" lon="13.47860505">
        <ele>283.00000</ele>
        <time>2024-02-02T13:46:04Z</time>
      </trkpt>
      <trkpt lat="42.85710853" lon="13.47867412">
        <ele>283.00000</ele>
        <time>2024-02-02T13:46:06Z</time>
      </trkpt>
      <trkpt lat="42.85705195" lon="13.47871595">
        <ele>282.00000</ele>
        <time>2024-02-02T13:46:07Z</time>
      </trkpt>
      <trkpt lat="42.85694777" lon="13.47879893">
        <ele>282.00000</ele>
        <time>2024-02-02T13:46:09Z</time>
      </trkpt>
      <trkpt lat="42.85689638" lon="13.47884385">
        <ele>282.00000</ele>
        <time>2024-02-02T13:46:10Z</time>
      </trkpt>
      <trkpt lat="42.85684417" lon="13.47888853">
        <ele>283.00000</ele>
        <time>2024-02-02T13:46:11Z</time>
      </trkpt>
      <trkpt lat="42.85678926" lon="13.47893446">
        <ele>283.00000</ele>
        <time>2024-02-02T13:46:12Z</time>
      </trkpt>
      <trkpt lat="42.85668223" lon="13.47903404">
        <ele>284.00000</ele>
        <time>2024-02-02T13:46:14Z</time>
      </trkpt>
      <trkpt lat="42.85663101" lon="13.47908332">
        <ele>284.00000</ele>
        <time>2024-02-02T13:46:15Z</time>
      </trkpt>
      <trkpt lat="42.85658542" lon="13.47913303">
        <ele>284.00000</ele>
        <time>2024-02-02T13:46:16Z</time>
      </trkpt>
      <trkpt lat="42.85653353" lon="13.47918776">
        <ele>284.00000</ele>
        <time>2024-02-02T13:46:17Z</time>
      </trkpt>
      <trkpt lat="42.85647813" lon="13.47925306">
        <ele>284.00000</ele>
        <time>2024-02-02T13:46:18Z</time>
      </trkpt>
      <trkpt lat="42.85642566" lon="13.47930578">
        <ele>283.00000</ele>
        <time>2024-02-02T13:46:19Z</time>
      </trkpt>
      <trkpt lat="42.85637562" lon="13.47935825">
        <ele>283.00000</ele>
        <time>2024-02-02T13:46:20Z</time>
      </trkpt>
      <trkpt lat="42.85632641" lon="13.47940787">
        <ele>283.00000</ele>
        <time>2024-02-02T13:46:21Z</time>
      </trkpt>
      <trkpt lat="42.85628786" lon="13.47945858">
        <ele>282.00000</ele>
        <time>2024-02-02T13:46:22Z</time>
      </trkpt>
      <trkpt lat="42.85625039" lon="13.47951265">
        <ele>282.00000</ele>
        <time>2024-02-02T13:46:23Z</time>
      </trkpt>
      <trkpt lat="42.85620119" lon="13.47956637">
        <ele>282.00000</ele>
        <time>2024-02-02T13:46:24Z</time>
      </trkpt>
      <trkpt lat="42.85615995" lon="13.47961960">
        <ele>282.00000</ele>
        <time>2024-02-02T13:46:25Z</time>
      </trkpt>
      <trkpt lat="42.85611519" lon="13.47967215">
        <ele>282.00000</ele>
        <time>2024-02-02T13:46:26Z</time>
      </trkpt>
      <trkpt lat="42.85607202" lon="13.47972747">
        <ele>282.00000</ele>
        <time>2024-02-02T13:46:27Z</time>
      </trkpt>
      <trkpt lat="42.85602659" lon="13.47978464">
        <ele>281.00000</ele>
        <time>2024-02-02T13:46:28Z</time>
      </trkpt>
      <trkpt lat="42.85598100" lon="13.47983853">
        <ele>281.00000</ele>
        <time>2024-02-02T13:46:29Z</time>
      </trkpt>
      <trkpt lat="42.85593858" lon="13.47989352">
        <ele>281.00000</ele>
        <time>2024-02-02T13:46:30Z</time>
      </trkpt>
      <trkpt lat="42.85589491" lon="13.47994641">
        <ele>280.00000</ele>
        <time>2024-02-02T13:46:31Z</time>
      </trkpt>
      <trkpt lat="42.85580615" lon="13.48005697">
        <ele>280.00000</ele>
        <time>2024-02-02T13:46:33Z</time>
      </trkpt>
      <trkpt lat="42.85576784" lon="13.48010734">
        <ele>280.00000</ele>
        <time>2024-02-02T13:46:34Z</time>
      </trkpt>
      <trkpt lat="42.85572644" lon="13.48015269">
        <ele>280.00000</ele>
        <time>2024-02-02T13:46:35Z</time>
      </trkpt>
      <trkpt lat="42.85568369" lon="13.48019644">
        <ele>280.00000</ele>
        <time>2024-02-02T13:46:36Z</time>
      </trkpt>
      <trkpt lat="42.85564262" lon="13.48024254">
        <ele>280.00000</ele>
        <time>2024-02-02T13:46:37Z</time>
      </trkpt>
      <trkpt lat="42.85559568" lon="13.48029434">
        <ele>280.00000</ele>
        <time>2024-02-02T13:46:38Z</time>
      </trkpt>
      <trkpt lat="42.85555000" lon="13.48034346">
        <ele>280.00000</ele>
        <time>2024-02-02T13:46:39Z</time>
      </trkpt>
      <trkpt lat="42.85550105" lon="13.48039618">
        <ele>280.00000</ele>
        <time>2024-02-02T13:46:40Z</time>
      </trkpt>
      <trkpt lat="42.85545445" lon="13.48045058">
        <ele>280.00000</ele>
        <time>2024-02-02T13:46:41Z</time>
      </trkpt>
      <trkpt lat="42.85540793" lon="13.48050490">
        <ele>280.00000</ele>
        <time>2024-02-02T13:46:42Z</time>
      </trkpt>
      <trkpt lat="42.85536400" lon="13.48055779">
        <ele>280.00000</ele>
        <time>2024-02-02T13:46:43Z</time>
      </trkpt>
      <trkpt lat="42.85532034" lon="13.48061235">
        <ele>280.00000</ele>
        <time>2024-02-02T13:46:44Z</time>
      </trkpt>
      <trkpt lat="42.85528077" lon="13.48066491">
        <ele>280.00000</ele>
        <time>2024-02-02T13:46:45Z</time>
      </trkpt>
      <trkpt lat="42.85523551" lon="13.48072123">
        <ele>280.00000</ele>
        <time>2024-02-02T13:46:46Z</time>
      </trkpt>
      <trkpt lat="42.85519092" lon="13.48078074">
        <ele>280.00000</ele>
        <time>2024-02-02T13:46:47Z</time>
      </trkpt>
      <trkpt lat="42.85514733" lon="13.48083984">
        <ele>280.00000</ele>
        <time>2024-02-02T13:46:48Z</time>
      </trkpt>
      <trkpt lat="42.85510852" lon="13.48089465">
        <ele>280.00000</ele>
        <time>2024-02-02T13:46:49Z</time>
      </trkpt>
      <trkpt lat="42.85506905" lon="13.48094821">
        <ele>280.00000</ele>
        <time>2024-02-02T13:46:50Z</time>
      </trkpt>
      <trkpt lat="42.85502722" lon="13.48100555">
        <ele>280.00000</ele>
        <time>2024-02-02T13:46:51Z</time>
      </trkpt>
      <trkpt lat="42.85499009" lon="13.48106673">
        <ele>280.00000</ele>
        <time>2024-02-02T13:46:52Z</time>
      </trkpt>
      <trkpt lat="42.85495363" lon="13.48113236">
        <ele>280.00000</ele>
        <time>2024-02-02T13:46:53Z</time>
      </trkpt>
      <trkpt lat="42.85491138" lon="13.48120269">
        <ele>280.00000</ele>
        <time>2024-02-02T13:46:54Z</time>
      </trkpt>
      <trkpt lat="42.85486939" lon="13.48127385">
        <ele>279.00000</ele>
        <time>2024-02-02T13:46:55Z</time>
      </trkpt>
      <trkpt lat="42.85482329" lon="13.48134610">
        <ele>279.00000</ele>
        <time>2024-02-02T13:46:56Z</time>
      </trkpt>
      <trkpt lat="42.85478071" lon="13.48141551">
        <ele>278.00000</ele>
        <time>2024-02-02T13:46:57Z</time>
      </trkpt>
      <trkpt lat="42.85474215" lon="13.48148432">
        <ele>278.00000</ele>
        <time>2024-02-02T13:46:58Z</time>
      </trkpt>
      <trkpt lat="42.85470611" lon="13.48155431">
        <ele>278.00000</ele>
        <time>2024-02-02T13:46:59Z</time>
      </trkpt>
      <trkpt lat="42.85466722" lon="13.48162799">
        <ele>279.00000</ele>
        <time>2024-02-02T13:47:00Z</time>
      </trkpt>
      <trkpt lat="42.85463009" lon="13.48170644">
        <ele>279.00000</ele>
        <time>2024-02-02T13:47:01Z</time>
      </trkpt>
      <trkpt lat="42.85459153" lon="13.48178733">
        <ele>279.00000</ele>
        <time>2024-02-02T13:47:02Z</time>
      </trkpt>
      <trkpt lat="42.85455591" lon="13.48187358">
        <ele>279.00000</ele>
        <time>2024-02-02T13:47:03Z</time>
      </trkpt>
      <trkpt lat="42.85452498" lon="13.48196603">
        <ele>279.00000</ele>
        <time>2024-02-02T13:47:04Z</time>
      </trkpt>
      <trkpt lat="42.85449748" lon="13.48206175">
        <ele>279.00000</ele>
        <time>2024-02-02T13:47:05Z</time>
      </trkpt>
      <trkpt lat="42.85447544" lon="13.48216015">
        <ele>279.00000</ele>
        <time>2024-02-02T13:47:06Z</time>
      </trkpt>
      <trkpt lat="42.85445365" lon="13.48226266">
        <ele>279.00000</ele>
        <time>2024-02-02T13:47:07Z</time>
      </trkpt>
      <trkpt lat="42.85443512" lon="13.48236626">
        <ele>279.00000</ele>
        <time>2024-02-02T13:47:08Z</time>
      </trkpt>
      <trkpt lat="42.85441643" lon="13.48247112">
        <ele>279.00000</ele>
        <time>2024-02-02T13:47:09Z</time>
      </trkpt>
      <trkpt lat="42.85439556" lon="13.48257296">
        <ele>279.00000</ele>
        <time>2024-02-02T13:47:10Z</time>
      </trkpt>
      <trkpt lat="42.85437528" lon="13.48267832">
        <ele>279.00000</ele>
        <time>2024-02-02T13:47:11Z</time>
      </trkpt>
      <trkpt lat="42.85435223" lon="13.48278251">
        <ele>279.00000</ele>
        <time>2024-02-02T13:47:12Z</time>
      </trkpt>
      <trkpt lat="42.85432674" lon="13.48288661">
        <ele>279.00000</ele>
        <time>2024-02-02T13:47:13Z</time>
      </trkpt>
      <trkpt lat="42.85429925" lon="13.48299055">
        <ele>279.00000</ele>
        <time>2024-02-02T13:47:14Z</time>
      </trkpt>
      <trkpt lat="42.85426321" lon="13.48309574">
        <ele>279.00000</ele>
        <time>2024-02-02T13:47:15Z</time>
      </trkpt>
      <trkpt lat="42.85423153" lon="13.48320160">
        <ele>278.00000</ele>
        <time>2024-02-02T13:47:16Z</time>
      </trkpt>
      <trkpt lat="42.85419481" lon="13.48330789">
        <ele>277.00000</ele>
        <time>2024-02-02T13:47:17Z</time>
      </trkpt>
      <trkpt lat="42.85415751" lon="13.48341023">
        <ele>277.00000</ele>
        <time>2024-02-02T13:47:18Z</time>
      </trkpt>
      <trkpt lat="42.85411510" lon="13.48350939">
        <ele>276.00000</ele>
        <time>2024-02-02T13:47:19Z</time>
      </trkpt>
      <trkpt lat="42.85406364" lon="13.48360377">
        <ele>276.00000</ele>
        <time>2024-02-02T13:47:20Z</time>
      </trkpt>
      <trkpt lat="42.85400236" lon="13.48368725">
        <ele>276.00000</ele>
        <time>2024-02-02T13:47:21Z</time>
      </trkpt>
      <trkpt lat="42.85393338" lon="13.48375665">
        <ele>276.00000</ele>
        <time>2024-02-02T13:47:22Z</time>
      </trkpt>
      <trkpt lat="42.85386054" lon="13.48381265">
        <ele>277.00000</ele>
        <time>2024-02-02T13:47:23Z</time>
      </trkpt>
      <trkpt lat="42.85378293" lon="13.48386051">
        <ele>277.00000</ele>
        <time>2024-02-02T13:47:24Z</time>
      </trkpt>
      <trkpt lat="42.85370187" lon="13.48390300">
        <ele>277.00000</ele>
        <time>2024-02-02T13:47:25Z</time>
      </trkpt>
      <trkpt lat="42.85361805" lon="13.48394365">
        <ele>277.00000</ele>
        <time>2024-02-02T13:47:26Z</time>
      </trkpt>
      <trkpt lat="42.85353055" lon="13.48398548">
        <ele>277.00000</ele>
        <time>2024-02-02T13:47:27Z</time>
      </trkpt>
      <trkpt lat="42.85343969" lon="13.48402580">
        <ele>277.00000</ele>
        <time>2024-02-02T13:47:28Z</time>
      </trkpt>
      <trkpt lat="42.85334757" lon="13.48406083">
        <ele>277.00000</ele>
        <time>2024-02-02T13:47:29Z</time>
      </trkpt>
      <trkpt lat="42.85325554" lon="13.48409151">
        <ele>276.00000</ele>
        <time>2024-02-02T13:47:30Z</time>
      </trkpt>
      <trkpt lat="42.85315973" lon="13.48411817">
        <ele>276.00000</ele>
        <time>2024-02-02T13:47:31Z</time>
      </trkpt>
      <trkpt lat="42.85306150" lon="13.48414055">
        <ele>276.00000</ele>
        <time>2024-02-02T13:47:32Z</time>
      </trkpt>
      <trkpt lat="42.85296100" lon="13.48415220">
        <ele>275.00000</ele>
        <time>2024-02-02T13:47:33Z</time>
      </trkpt>
      <trkpt lat="42.85286033" lon="13.48414809">
        <ele>273.00000</ele>
        <time>2024-02-02T13:47:34Z</time>
      </trkpt>
      <trkpt lat="42.85275757" lon="13.48413267">
        <ele>272.00000</ele>
        <time>2024-02-02T13:47:35Z</time>
      </trkpt>
      <trkpt lat="42.85265523" lon="13.48410937">
        <ele>271.00000</ele>
        <time>2024-02-02T13:47:36Z</time>
      </trkpt>
      <trkpt lat="42.85255372" lon="13.48408087">
        <ele>270.00000</ele>
        <time>2024-02-02T13:47:37Z</time>
      </trkpt>
      <trkpt lat="42.85244844" lon="13.48405438">
        <ele>268.00000</ele>
        <time>2024-02-02T13:47:38Z</time>
      </trkpt>
      <trkpt lat="42.85233990" lon="13.48403099">
        <ele>267.00000</ele>
        <time>2024-02-02T13:47:39Z</time>
      </trkpt>
      <trkpt lat="42.85222859" lon="13.48401549">
        <ele>266.00000</ele>
        <time>2024-02-02T13:47:40Z</time>
      </trkpt>
      <trkpt lat="42.85212658" lon="13.48401524">
        <ele>267.00000</ele>
        <time>2024-02-02T13:47:41Z</time>
      </trkpt>
      <trkpt lat="42.85202801" lon="13.48403502">
        <ele>267.00000</ele>
        <time>2024-02-02T13:47:42Z</time>
      </trkpt>
      <trkpt lat="42.85192625" lon="13.48407944">
        <ele>269.00000</ele>
        <time>2024-02-02T13:47:43Z</time>
      </trkpt>
      <trkpt lat="42.85182709" lon="13.48414356">
        <ele>270.00000</ele>
        <time>2024-02-02T13:47:44Z</time>
      </trkpt>
      <trkpt lat="42.85173741" lon="13.48422638">
        <ele>271.00000</ele>
        <time>2024-02-02T13:47:45Z</time>
      </trkpt>
      <trkpt lat="42.85165367" lon="13.48432771">
        <ele>272.00000</ele>
        <time>2024-02-02T13:47:46Z</time>
      </trkpt>
      <trkpt lat="42.85157371" lon="13.48443609">
        <ele>274.00000</ele>
        <time>2024-02-02T13:47:47Z</time>
      </trkpt>
      <trkpt lat="42.85149852" lon="13.48454799">
        <ele>274.00000</ele>
        <time>2024-02-02T13:47:48Z</time>
      </trkpt>
      <trkpt lat="42.85142459" lon="13.48466190">
        <ele>273.00000</ele>
        <time>2024-02-02T13:47:49Z</time>
      </trkpt>
      <trkpt lat="42.85135092" lon="13.48477330">
        <ele>273.00000</ele>
        <time>2024-02-02T13:47:50Z</time>
      </trkpt>
      <trkpt lat="42.85127464" lon="13.48488385">
        <ele>273.00000</ele>
        <time>2024-02-02T13:47:51Z</time>
      </trkpt>
      <trkpt lat="42.85120113" lon="13.48499332">
        <ele>273.00000</ele>
        <time>2024-02-02T13:47:52Z</time>
      </trkpt>
      <trkpt lat="42.85112679" lon="13.48510455">
        <ele>273.00000</ele>
        <time>2024-02-02T13:47:53Z</time>
      </trkpt>
      <trkpt lat="42.85105495" lon="13.48521678">
        <ele>272.00000</ele>
        <time>2024-02-02T13:47:54Z</time>
      </trkpt>
      <trkpt lat="42.85098354" lon="13.48532684">
        <ele>271.00000</ele>
        <time>2024-02-02T13:47:55Z</time>
      </trkpt>
      <trkpt lat="42.85091145" lon="13.48543454">
        <ele>270.00000</ele>
        <time>2024-02-02T13:47:56Z</time>
      </trkpt>
      <trkpt lat="42.85083920" lon="13.48554192">
        <ele>269.00000</ele>
        <time>2024-02-02T13:47:57Z</time>
      </trkpt>
      <trkpt lat="42.85076653" lon="13.48565172">
        <ele>268.00000</ele>
        <time>2024-02-02T13:47:58Z</time>
      </trkpt>
      <trkpt lat="42.85069403" lon="13.48576177">
        <ele>268.00000</ele>
        <time>2024-02-02T13:47:59Z</time>
      </trkpt>
      <trkpt lat="42.85061993" lon="13.48587107">
        <ele>268.00000</ele>
        <time>2024-02-02T13:48:00Z</time>
      </trkpt>
      <trkpt lat="42.85054726" lon="13.48597744">
        <ele>268.00000</ele>
        <time>2024-02-02T13:48:01Z</time>
      </trkpt>
      <trkpt lat="42.85047484" lon="13.48608741">
        <ele>267.00000</ele>
        <time>2024-02-02T13:48:02Z</time>
      </trkpt>
      <trkpt lat="42.85040250" lon="13.48619763">
        <ele>266.00000</ele>
        <time>2024-02-02T13:48:03Z</time>
      </trkpt>
      <trkpt lat="42.85033092" lon="13.48630551">
        <ele>265.00000</ele>
        <time>2024-02-02T13:48:04Z</time>
      </trkpt>
      <trkpt lat="42.85026010" lon="13.48641883">
        <ele>264.00000</ele>
        <time>2024-02-02T13:48:05Z</time>
      </trkpt>
      <trkpt lat="42.85018826" lon="13.48653266">
        <ele>264.00000</ele>
        <time>2024-02-02T13:48:06Z</time>
      </trkpt>
      <trkpt lat="42.85011811" lon="13.48664682">
        <ele>266.00000</ele>
        <time>2024-02-02T13:48:07Z</time>
      </trkpt>
      <trkpt lat="42.85005172" lon="13.48676207">
        <ele>267.00000</ele>
        <time>2024-02-02T13:48:08Z</time>
      </trkpt>
      <trkpt lat="42.84998894" lon="13.48687606">
        <ele>268.00000</ele>
        <time>2024-02-02T13:48:09Z</time>
      </trkpt>
      <trkpt lat="42.84993270" lon="13.48699760">
        <ele>268.00000</ele>
        <time>2024-02-02T13:48:10Z</time>
      </trkpt>
      <trkpt lat="42.84987302" lon="13.48715116">
        <ele>269.00000</ele>
        <time>2024-02-02T13:48:11Z</time>
      </trkpt>
      <trkpt lat="42.84983564" lon="13.48725182">
        <ele>270.00000</ele>
        <time>2024-02-02T13:48:12Z</time>
      </trkpt>
      <trkpt lat="42.84979289" lon="13.48737982">
        <ele>271.00000</ele>
        <time>2024-02-02T13:48:13Z</time>
      </trkpt>
      <trkpt lat="42.84976020" lon="13.48751309">
        <ele>271.00000</ele>
        <time>2024-02-02T13:48:14Z</time>
      </trkpt>
      <trkpt lat="42.84973313" lon="13.48765432">
        <ele>269.00000</ele>
        <time>2024-02-02T13:48:15Z</time>
      </trkpt>
      <trkpt lat="42.84970387" lon="13.48779715">
        <ele>268.00000</ele>
        <time>2024-02-02T13:48:16Z</time>
      </trkpt>
      <trkpt lat="42.84966045" lon="13.48793948">
        <ele>267.00000</ele>
        <time>2024-02-02T13:48:17Z</time>
      </trkpt>
      <trkpt lat="42.84961343" lon="13.48808029">
        <ele>265.00000</ele>
        <time>2024-02-02T13:48:18Z</time>
      </trkpt>
      <trkpt lat="42.84956255" lon="13.48821893">
        <ele>264.00000</ele>
        <time>2024-02-02T13:48:19Z</time>
      </trkpt>
      <trkpt lat="42.84950346" lon="13.48835295">
        <ele>263.00000</ele>
        <time>2024-02-02T13:48:20Z</time>
      </trkpt>
      <trkpt lat="42.84944077" lon="13.48848480">
        <ele>263.00000</ele>
        <time>2024-02-02T13:48:21Z</time>
      </trkpt>
      <trkpt lat="42.84936994" lon="13.48861070">
        <ele>263.00000</ele>
        <time>2024-02-02T13:48:22Z</time>
      </trkpt>
      <trkpt lat="42.84928930" lon="13.48873534">
        <ele>263.00000</ele>
        <time>2024-02-02T13:48:23Z</time>
      </trkpt>
      <trkpt lat="42.84921848" lon="13.48886224">
        <ele>264.00000</ele>
        <time>2024-02-02T13:48:24Z</time>
      </trkpt>
      <trkpt lat="42.84915050" lon="13.48898772">
        <ele>264.00000</ele>
        <time>2024-02-02T13:48:25Z</time>
      </trkpt>
      <trkpt lat="42.84908546" lon="13.48911261">
        <ele>263.00000</ele>
        <time>2024-02-02T13:48:26Z</time>
      </trkpt>
      <trkpt lat="42.84902276" lon="13.48923800">
        <ele>262.00000</ele>
        <time>2024-02-02T13:48:27Z</time>
      </trkpt>
      <trkpt lat="42.84896249" lon="13.48936306">
        <ele>261.00000</ele>
        <time>2024-02-02T13:48:28Z</time>
      </trkpt>
      <trkpt lat="42.84889167" lon="13.48947680">
        <ele>260.00000</ele>
        <time>2024-02-02T13:48:29Z</time>
      </trkpt>
      <trkpt lat="42.84880869" lon="13.48957420">
        <ele>258.00000</ele>
        <time>2024-02-02T13:48:30Z</time>
      </trkpt>
      <trkpt lat="42.84872956" lon="13.48965466">
        <ele>256.00000</ele>
        <time>2024-02-02T13:48:31Z</time>
      </trkpt>
      <trkpt lat="42.84865664" lon="13.48972356">
        <ele>255.00000</ele>
        <time>2024-02-02T13:48:32Z</time>
      </trkpt>
      <trkpt lat="42.84856787" lon="13.48977310">
        <ele>254.00000</ele>
        <time>2024-02-02T13:48:33Z</time>
      </trkpt>
      <trkpt lat="42.84846595" lon="13.48977461">
        <ele>253.00000</ele>
        <time>2024-02-02T13:48:34Z</time>
      </trkpt>
      <trkpt lat="42.84836503" lon="13.48967587">
        <ele>253.00000</ele>
        <time>2024-02-02T13:48:35Z</time>
      </trkpt>
      <trkpt lat="42.84826571" lon="13.48955450">
        <ele>255.00000</ele>
        <time>2024-02-02T13:48:36Z</time>
      </trkpt>
      <trkpt lat="42.84817677" lon="13.48942559">
        <ele>255.00000</ele>
        <time>2024-02-02T13:48:37Z</time>
      </trkpt>
      <trkpt lat="42.84808742" lon="13.48930740">
        <ele>256.00000</ele>
        <time>2024-02-02T13:48:38Z</time>
      </trkpt>
      <trkpt lat="42.84801375" lon="13.48921964">
        <ele>256.00000</ele>
        <time>2024-02-02T13:48:39Z</time>
      </trkpt>
      <trkpt lat="42.84789774" lon="13.48908889">
        <ele>255.00000</ele>
        <time>2024-02-02T13:48:40Z</time>
      </trkpt>
      <trkpt lat="42.84781359" lon="13.48898135">
        <ele>255.00000</ele>
        <time>2024-02-02T13:48:41Z</time>
      </trkpt>
      <trkpt lat="42.84773136" lon="13.48887330">
        <ele>255.00000</ele>
        <time>2024-02-02T13:48:42Z</time>
      </trkpt>
      <trkpt lat="42.84764913" lon="13.48876425">
        <ele>256.00000</ele>
        <time>2024-02-02T13:48:43Z</time>
      </trkpt>
      <trkpt lat="42.84756188" lon="13.48866166">
        <ele>257.00000</ele>
        <time>2024-02-02T13:48:44Z</time>
      </trkpt>
      <trkpt lat="42.84747068" lon="13.48855823">
        <ele>258.00000</ele>
        <time>2024-02-02T13:48:45Z</time>
      </trkpt>
      <trkpt lat="42.84738712" lon="13.48846469">
        <ele>259.00000</ele>
        <time>2024-02-02T13:48:46Z</time>
      </trkpt>
      <trkpt lat="42.84730187" lon="13.48838087">
        <ele>259.00000</ele>
        <time>2024-02-02T13:48:47Z</time>
      </trkpt>
      <trkpt lat="42.84721856" lon="13.48830736">
        <ele>259.00000</ele>
        <time>2024-02-02T13:48:48Z</time>
      </trkpt>
      <trkpt lat="42.84713616" lon="13.48823896">
        <ele>259.00000</ele>
        <time>2024-02-02T13:48:49Z</time>
      </trkpt>
      <trkpt lat="42.84704857" lon="13.48816989">
        <ele>259.00000</ele>
        <time>2024-02-02T13:48:50Z</time>
      </trkpt>
      <trkpt lat="42.84695268" lon="13.48809697">
        <ele>259.00000</ele>
        <time>2024-02-02T13:48:51Z</time>
      </trkpt>
      <trkpt lat="42.84678345" lon="13.48795347">
        <ele>259.00000</ele>
        <time>2024-02-02T13:48:53Z</time>
      </trkpt>
      <trkpt lat="42.84669963" lon="13.48788382">
        <ele>259.00000</ele>
        <time>2024-02-02T13:48:54Z</time>
      </trkpt>
      <trkpt lat="42.84651741" lon="13.48775147">
        <ele>260.00000</ele>
        <time>2024-02-02T13:48:56Z</time>
      </trkpt>
      <trkpt lat="42.84642554" lon="13.48770948">
        <ele>262.00000</ele>
        <time>2024-02-02T13:48:57Z</time>
      </trkpt>
      <trkpt lat="42.84633477" lon="13.48768249">
        <ele>262.00000</ele>
        <time>2024-02-02T13:48:58Z</time>
      </trkpt>
      <trkpt lat="42.84623611" lon="13.48766757">
        <ele>262.00000</ele>
        <time>2024-02-02T13:48:59Z</time>
      </trkpt>
      <trkpt lat="42.84613788" lon="13.48765960">
        <ele>261.00000</ele>
        <time>2024-02-02T13:49:00Z</time>
      </trkpt>
      <trkpt lat="42.84603738" lon="13.48765751">
        <ele>260.00000</ele>
        <time>2024-02-02T13:49:01Z</time>
      </trkpt>
      <trkpt lat="42.84593646" lon="13.48765307">
        <ele>259.00000</ele>
        <time>2024-02-02T13:49:02Z</time>
      </trkpt>
      <trkpt lat="42.84583839" lon="13.48764913">
        <ele>257.00000</ele>
        <time>2024-02-02T13:49:03Z</time>
      </trkpt>
      <trkpt lat="42.84573957" lon="13.48764494">
        <ele>257.00000</ele>
        <time>2024-02-02T13:49:04Z</time>
      </trkpt>
      <trkpt lat="42.84563966" lon="13.48764192">
        <ele>256.00000</ele>
        <time>2024-02-02T13:49:05Z</time>
      </trkpt>
      <trkpt lat="42.84553840" lon="13.48764435">
        <ele>255.00000</ele>
        <time>2024-02-02T13:49:06Z</time>
      </trkpt>
      <trkpt lat="42.84543430" lon="13.48765223">
        <ele>255.00000</ele>
        <time>2024-02-02T13:49:07Z</time>
      </trkpt>
      <trkpt lat="42.84533095" lon="13.48766765">
        <ele>255.00000</ele>
        <time>2024-02-02T13:49:08Z</time>
      </trkpt>
      <trkpt lat="42.84522785" lon="13.48768617">
        <ele>255.00000</ele>
        <time>2024-02-02T13:49:09Z</time>
      </trkpt>
      <trkpt lat="42.84501872" lon="13.48774066">
        <ele>256.00000</ele>
        <time>2024-02-02T13:49:11Z</time>
      </trkpt>
      <trkpt lat="42.84491261" lon="13.48777418">
        <ele>256.00000</ele>
        <time>2024-02-02T13:49:12Z</time>
      </trkpt>
      <trkpt lat="42.84480323" lon="13.48780847">
        <ele>256.00000</ele>
        <time>2024-02-02T13:49:13Z</time>
      </trkpt>
      <trkpt lat="42.84469367" lon="13.48783990">
        <ele>256.00000</ele>
        <time>2024-02-02T13:49:14Z</time>
      </trkpt>
      <trkpt lat="42.84458689" lon="13.48787049">
        <ele>256.00000</ele>
        <time>2024-02-02T13:49:15Z</time>
      </trkpt>
      <trkpt lat="42.84447792" lon="13.48790226">
        <ele>256.00000</ele>
        <time>2024-02-02T13:49:16Z</time>
      </trkpt>
      <trkpt lat="42.84436670" lon="13.48793470">
        <ele>255.00000</ele>
        <time>2024-02-02T13:49:17Z</time>
      </trkpt>
      <trkpt lat="42.84425673" lon="13.48796781">
        <ele>255.00000</ele>
        <time>2024-02-02T13:49:18Z</time>
      </trkpt>
      <trkpt lat="42.84414667" lon="13.48799882">
        <ele>255.00000</ele>
        <time>2024-02-02T13:49:19Z</time>
      </trkpt>
      <trkpt lat="42.84403544" lon="13.48803084">
        <ele>255.00000</ele>
        <time>2024-02-02T13:49:20Z</time>
      </trkpt>
      <trkpt lat="42.84392480" lon="13.48806571">
        <ele>255.00000</ele>
        <time>2024-02-02T13:49:21Z</time>
      </trkpt>
      <trkpt lat="42.84381433" lon="13.48809815">
        <ele>255.00000</ele>
        <time>2024-02-02T13:49:22Z</time>
      </trkpt>
      <trkpt lat="42.84370411" lon="13.48812773">
        <ele>255.00000</ele>
        <time>2024-02-02T13:49:23Z</time>
      </trkpt>
      <trkpt lat="42.84359280" lon="13.48815942">
        <ele>255.00000</ele>
        <time>2024-02-02T13:49:24Z</time>
      </trkpt>
      <trkpt lat="42.84347805" lon="13.48819269">
        <ele>255.00000</ele>
        <time>2024-02-02T13:49:25Z</time>
      </trkpt>
      <trkpt lat="42.84336389" lon="13.48822438">
        <ele>255.00000</ele>
        <time>2024-02-02T13:49:26Z</time>
      </trkpt>
      <trkpt lat="42.84324889" lon="13.48825212">
        <ele>256.00000</ele>
        <time>2024-02-02T13:49:27Z</time>
      </trkpt>
      <trkpt lat="42.84313397" lon="13.48828003">
        <ele>257.00000</ele>
        <time>2024-02-02T13:49:28Z</time>
      </trkpt>
      <trkpt lat="42.84301696" lon="13.48831314">
        <ele>257.00000</ele>
        <time>2024-02-02T13:49:29Z</time>
      </trkpt>
      <trkpt lat="42.84278729" lon="13.48838556">
        <ele>256.00000</ele>
        <time>2024-02-02T13:49:31Z</time>
      </trkpt>
      <trkpt lat="42.84267263" lon="13.48841909">
        <ele>255.00000</ele>
        <time>2024-02-02T13:49:32Z</time>
      </trkpt>
      <trkpt lat="42.84255612" lon="13.48845161">
        <ele>253.00000</ele>
        <time>2024-02-02T13:49:33Z</time>
      </trkpt>
      <trkpt lat="42.84243827" lon="13.48848665">
        <ele>253.00000</ele>
        <time>2024-02-02T13:49:34Z</time>
      </trkpt>
      <trkpt lat="42.84232160" lon="13.48851808">
        <ele>253.00000</ele>
        <time>2024-02-02T13:49:35Z</time>
      </trkpt>
      <trkpt lat="42.84220383" lon="13.48854850">
        <ele>254.00000</ele>
        <time>2024-02-02T13:49:36Z</time>
      </trkpt>
      <trkpt lat="42.84208212" lon="13.48858178">
        <ele>254.00000</ele>
        <time>2024-02-02T13:49:37Z</time>
      </trkpt>
      <trkpt lat="42.84184073" lon="13.48865822">
        <ele>252.00000</ele>
        <time>2024-02-02T13:49:39Z</time>
      </trkpt>
      <trkpt lat="42.84171810" lon="13.48869586">
        <ele>250.00000</ele>
        <time>2024-02-02T13:49:40Z</time>
      </trkpt>
      <trkpt lat="42.84159924" lon="13.48873919">
        <ele>250.00000</ele>
        <time>2024-02-02T13:49:41Z</time>
      </trkpt>
      <trkpt lat="42.84148550" lon="13.48879368">
        <ele>251.00000</ele>
        <time>2024-02-02T13:49:42Z</time>
      </trkpt>
      <trkpt lat="42.84137184" lon="13.48885587">
        <ele>252.00000</ele>
        <time>2024-02-02T13:49:43Z</time>
      </trkpt>
      <trkpt lat="42.84126246" lon="13.48892058">
        <ele>253.00000</ele>
        <time>2024-02-02T13:49:44Z</time>
      </trkpt>
      <trkpt lat="42.84115534" lon="13.48898604">
        <ele>254.00000</ele>
        <time>2024-02-02T13:49:45Z</time>
      </trkpt>
      <trkpt lat="42.84105040" lon="13.48905226">
        <ele>255.00000</ele>
        <time>2024-02-02T13:49:46Z</time>
      </trkpt>
      <trkpt lat="42.84094529" lon="13.48911646">
        <ele>255.00000</ele>
        <time>2024-02-02T13:49:47Z</time>
      </trkpt>
      <trkpt lat="42.84083934" lon="13.48918352">
        <ele>256.00000</ele>
        <time>2024-02-02T13:49:48Z</time>
      </trkpt>
      <trkpt lat="42.84073431" lon="13.48925191">
        <ele>255.00000</ele>
        <time>2024-02-02T13:49:49Z</time>
      </trkpt>
      <trkpt lat="42.84063683" lon="13.48932643">
        <ele>255.00000</ele>
        <time>2024-02-02T13:49:50Z</time>
      </trkpt>
      <trkpt lat="42.84054597" lon="13.48941293">
        <ele>256.00000</ele>
        <time>2024-02-02T13:49:51Z</time>
      </trkpt>
      <trkpt lat="42.84046249" lon="13.48950899">
        <ele>256.00000</ele>
        <time>2024-02-02T13:49:52Z</time>
      </trkpt>
      <trkpt lat="42.84039627" lon="13.48961108">
        <ele>255.00000</ele>
        <time>2024-02-02T13:49:53Z</time>
      </trkpt>
      <trkpt lat="42.84027088" lon="13.48988047">
        <ele>251.00000</ele>
        <time>2024-02-02T13:49:55Z</time>
      </trkpt>
      <trkpt lat="42.84021413" lon="13.49002095">
        <ele>249.00000</ele>
        <time>2024-02-02T13:49:56Z</time>
      </trkpt>
      <trkpt lat="42.84016242" lon="13.49016001">
        <ele>249.00000</ele>
        <time>2024-02-02T13:49:57Z</time>
      </trkpt>
      <trkpt lat="42.84010559" lon="13.49029546">
        <ele>248.00000</ele>
        <time>2024-02-02T13:49:58Z</time>
      </trkpt>
      <trkpt lat="42.84004976" lon="13.49043049">
        <ele>249.00000</ele>
        <time>2024-02-02T13:49:59Z</time>
      </trkpt>
      <trkpt lat="42.83998849" lon="13.49056100">
        <ele>249.00000</ele>
        <time>2024-02-02T13:50:00Z</time>
      </trkpt>
      <trkpt lat="42.83992731" lon="13.49068673">
        <ele>247.00000</ele>
        <time>2024-02-02T13:50:01Z</time>
      </trkpt>
      <trkpt lat="42.83986520" lon="13.49080407">
        <ele>246.00000</ele>
        <time>2024-02-02T13:50:02Z</time>
      </trkpt>
      <trkpt lat="42.83979764" lon="13.49090835">
        <ele>246.00000</ele>
        <time>2024-02-02T13:50:03Z</time>
      </trkpt>
      <trkpt lat="42.83972463" lon="13.49100943">
        <ele>246.00000</ele>
        <time>2024-02-02T13:50:04Z</time>
      </trkpt>
      <trkpt lat="42.83964995" lon="13.49110591">
        <ele>246.00000</ele>
        <time>2024-02-02T13:50:05Z</time>
      </trkpt>
      <trkpt lat="42.83957334" lon="13.49120087">
        <ele>247.00000</ele>
        <time>2024-02-02T13:50:06Z</time>
      </trkpt>
      <trkpt lat="42.83950134" lon="13.49129525">
        <ele>247.00000</ele>
        <time>2024-02-02T13:50:07Z</time>
      </trkpt>
      <trkpt lat="42.83942900" lon="13.49139408">
        <ele>248.00000</ele>
        <time>2024-02-02T13:50:08Z</time>
      </trkpt>
      <trkpt lat="42.83935457" lon="13.49150195">
        <ele>247.00000</ele>
        <time>2024-02-02T13:50:09Z</time>
      </trkpt>
      <trkpt lat="42.83927804" lon="13.49161142">
        <ele>245.00000</ele>
        <time>2024-02-02T13:50:10Z</time>
      </trkpt>
      <trkpt lat="42.83919909" lon="13.49171854">
        <ele>245.00000</ele>
        <time>2024-02-02T13:50:11Z</time>
      </trkpt>
      <trkpt lat="42.83912658" lon="13.49182591">
        <ele>245.00000</ele>
        <time>2024-02-02T13:50:12Z</time>
      </trkpt>
      <trkpt lat="42.83904578" lon="13.49192968">
        <ele>244.00000</ele>
        <time>2024-02-02T13:50:13Z</time>
      </trkpt>
      <trkpt lat="42.83896179" lon="13.49202188">
        <ele>244.00000</ele>
        <time>2024-02-02T13:50:14Z</time>
      </trkpt>
      <trkpt lat="42.83887244" lon="13.49210335">
        <ele>245.00000</ele>
        <time>2024-02-02T13:50:15Z</time>
      </trkpt>
      <trkpt lat="42.83877622" lon="13.49217988">
        <ele>245.00000</ele>
        <time>2024-02-02T13:50:16Z</time>
      </trkpt>
      <trkpt lat="42.83867840" lon="13.49225515">
        <ele>245.00000</ele>
        <time>2024-02-02T13:50:17Z</time>
      </trkpt>
      <trkpt lat="42.83858285" lon="13.49232715">
        <ele>245.00000</ele>
        <time>2024-02-02T13:50:18Z</time>
      </trkpt>
      <trkpt lat="42.83848394" lon="13.49239605">
        <ele>245.00000</ele>
        <time>2024-02-02T13:50:19Z</time>
      </trkpt>
      <trkpt lat="42.83838110" lon="13.49246269">
        <ele>245.00000</ele>
        <time>2024-02-02T13:50:20Z</time>
      </trkpt>
      <trkpt lat="42.83827641" lon="13.49252438">
        <ele>245.00000</ele>
        <time>2024-02-02T13:50:21Z</time>
      </trkpt>
      <trkpt lat="42.83816870" lon="13.49258204">
        <ele>246.00000</ele>
        <time>2024-02-02T13:50:22Z</time>
      </trkpt>
      <trkpt lat="42.83805781" lon="13.49263552">
        <ele>247.00000</ele>
        <time>2024-02-02T13:50:23Z</time>
      </trkpt>
      <trkpt lat="42.83794859" lon="13.49268866">
        <ele>247.00000</ele>
        <time>2024-02-02T13:50:24Z</time>
      </trkpt>
      <trkpt lat="42.83784197" lon="13.49274122">
        <ele>247.00000</ele>
        <time>2024-02-02T13:50:25Z</time>
      </trkpt>
      <trkpt lat="42.83773452" lon="13.49279318">
        <ele>246.00000</ele>
        <time>2024-02-02T13:50:26Z</time>
      </trkpt>
      <trkpt lat="42.83762731" lon="13.49284691">
        <ele>245.00000</ele>
        <time>2024-02-02T13:50:27Z</time>
      </trkpt>
      <trkpt lat="42.83751617" lon="13.49290039">
        <ele>244.00000</ele>
        <time>2024-02-02T13:50:28Z</time>
      </trkpt>
      <trkpt lat="42.83740527" lon="13.49294892">
        <ele>244.00000</ele>
        <time>2024-02-02T13:50:29Z</time>
      </trkpt>
      <trkpt lat="42.83729606" lon="13.49299284">
        <ele>244.00000</ele>
        <time>2024-02-02T13:50:30Z</time>
      </trkpt>
      <trkpt lat="42.83707955" lon="13.49307306">
        <ele>244.00000</ele>
        <time>2024-02-02T13:50:32Z</time>
      </trkpt>
      <trkpt lat="42.83696363" lon="13.49310549">
        <ele>244.00000</ele>
        <time>2024-02-02T13:50:33Z</time>
      </trkpt>
      <trkpt lat="42.83684092" lon="13.49312553">
        <ele>242.00000</ele>
        <time>2024-02-02T13:50:34Z</time>
      </trkpt>
      <trkpt lat="42.83672676" lon="13.49312863">
        <ele>240.00000</ele>
        <time>2024-02-02T13:50:35Z</time>
      </trkpt>
      <trkpt lat="42.83661092" lon="13.49313550">
        <ele>239.00000</ele>
        <time>2024-02-02T13:50:36Z</time>
      </trkpt>
      <trkpt lat="42.83649131" lon="13.49314589">
        <ele>238.00000</ele>
        <time>2024-02-02T13:50:37Z</time>
      </trkpt>
      <trkpt lat="42.83637388" lon="13.49315528">
        <ele>238.00000</ele>
        <time>2024-02-02T13:50:38Z</time>
      </trkpt>
      <trkpt lat="42.83625729" lon="13.49315537">
        <ele>238.00000</ele>
        <time>2024-02-02T13:50:39Z</time>
      </trkpt>
      <trkpt lat="42.83614003" lon="13.49314430">
        <ele>237.00000</ele>
        <time>2024-02-02T13:50:40Z</time>
      </trkpt>
      <trkpt lat="42.83602771" lon="13.49312678">
        <ele>237.00000</ele>
        <time>2024-02-02T13:50:41Z</time>
      </trkpt>
      <trkpt lat="42.83591690" lon="13.49311119">
        <ele>236.00000</ele>
        <time>2024-02-02T13:50:42Z</time>
      </trkpt>
      <trkpt lat="42.83580617" lon="13.49310080">
        <ele>236.00000</ele>
        <time>2024-02-02T13:50:43Z</time>
      </trkpt>
      <trkpt lat="42.83569537" lon="13.49309150">
        <ele>235.00000</ele>
        <time>2024-02-02T13:50:44Z</time>
      </trkpt>
      <trkpt lat="42.83558472" lon="13.49308211">
        <ele>235.00000</ele>
        <time>2024-02-02T13:50:45Z</time>
      </trkpt>
      <trkpt lat="42.83547216" lon="13.49307054">
        <ele>236.00000</ele>
        <time>2024-02-02T13:50:46Z</time>
      </trkpt>
      <trkpt lat="42.83536034" lon="13.49306149">
        <ele>237.00000</ele>
        <time>2024-02-02T13:50:47Z</time>
      </trkpt>
      <trkpt lat="42.83525213" lon="13.49305369">
        <ele>239.00000</ele>
        <time>2024-02-02T13:50:48Z</time>
      </trkpt>
      <trkpt lat="42.83514359" lon="13.49304682">
        <ele>240.00000</ele>
        <time>2024-02-02T13:50:49Z</time>
      </trkpt>
      <trkpt lat="42.83503387" lon="13.49303743">
        <ele>241.00000</ele>
        <time>2024-02-02T13:50:50Z</time>
      </trkpt>
      <trkpt lat="42.83492507" lon="13.49303366">
        <ele>241.00000</ele>
        <time>2024-02-02T13:50:51Z</time>
      </trkpt>
      <trkpt lat="42.83481652" lon="13.49304003">
        <ele>242.00000</ele>
        <time>2024-02-02T13:50:52Z</time>
      </trkpt>
      <trkpt lat="42.83470882" lon="13.49305252">
        <ele>243.00000</ele>
        <time>2024-02-02T13:50:53Z</time>
      </trkpt>
      <trkpt lat="42.83460597" lon="13.49307113">
        <ele>243.00000</ele>
        <time>2024-02-02T13:50:54Z</time>
      </trkpt>
      <trkpt lat="42.83450857" lon="13.49310130">
        <ele>244.00000</ele>
        <time>2024-02-02T13:50:55Z</time>
      </trkpt>
      <trkpt lat="42.83441344" lon="13.49315101">
        <ele>244.00000</ele>
        <time>2024-02-02T13:50:56Z</time>
      </trkpt>
      <trkpt lat="42.83432878" lon="13.49321873">
        <ele>244.00000</ele>
        <time>2024-02-02T13:50:57Z</time>
      </trkpt>
      <trkpt lat="42.83425158" lon="13.49329845">
        <ele>243.00000</ele>
        <time>2024-02-02T13:50:58Z</time>
      </trkpt>
      <trkpt lat="42.83417589" lon="13.49338243">
        <ele>243.00000</ele>
        <time>2024-02-02T13:50:59Z</time>
      </trkpt>
      <trkpt lat="42.83409669" lon="13.49346717">
        <ele>242.00000</ele>
        <time>2024-02-02T13:51:00Z</time>
      </trkpt>
      <trkpt lat="42.83401697" lon="13.49355233">
        <ele>241.00000</ele>
        <time>2024-02-02T13:51:01Z</time>
      </trkpt>
      <trkpt lat="42.83393944" lon="13.49363666">
        <ele>240.00000</ele>
        <time>2024-02-02T13:51:02Z</time>
      </trkpt>
      <trkpt lat="42.83386342" lon="13.49372156">
        <ele>240.00000</ele>
        <time>2024-02-02T13:51:03Z</time>
      </trkpt>
      <trkpt lat="42.83378806" lon="13.49380706">
        <ele>239.00000</ele>
        <time>2024-02-02T13:51:04Z</time>
      </trkpt>
      <trkpt lat="42.83371414" lon="13.49389524">
        <ele>238.00000</ele>
        <time>2024-02-02T13:51:05Z</time>
      </trkpt>
      <trkpt lat="42.83363861" lon="13.49398015">
        <ele>237.00000</ele>
        <time>2024-02-02T13:51:06Z</time>
      </trkpt>
      <trkpt lat="42.83356033" lon="13.49406313">
        <ele>236.00000</ele>
        <time>2024-02-02T13:51:07Z</time>
      </trkpt>
      <trkpt lat="42.83348254" lon="13.49414845">
        <ele>235.00000</ele>
        <time>2024-02-02T13:51:08Z</time>
      </trkpt>
      <trkpt lat="42.83340384" lon="13.49423479">
        <ele>234.00000</ele>
        <time>2024-02-02T13:51:09Z</time>
      </trkpt>
      <trkpt lat="42.83332538" lon="13.49432003">
        <ele>233.00000</ele>
        <time>2024-02-02T13:51:10Z</time>
      </trkpt>
      <trkpt lat="42.83324810" lon="13.49440461">
        <ele>233.00000</ele>
        <time>2024-02-02T13:51:11Z</time>
      </trkpt>
      <trkpt lat="42.83316831" lon="13.49449178">
        <ele>233.00000</ele>
        <time>2024-02-02T13:51:12Z</time>
      </trkpt>
      <trkpt lat="42.83308918" lon="13.49458180">
        <ele>233.00000</ele>
        <time>2024-02-02T13:51:13Z</time>
      </trkpt>
      <trkpt lat="42.83300771" lon="13.49467366">
        <ele>233.00000</ele>
        <time>2024-02-02T13:51:14Z</time>
      </trkpt>
      <trkpt lat="42.83292825" lon="13.49476687">
        <ele>233.00000</ele>
        <time>2024-02-02T13:51:15Z</time>
      </trkpt>
      <trkpt lat="42.83285046" lon="13.49485740">
        <ele>233.00000</ele>
        <time>2024-02-02T13:51:16Z</time>
      </trkpt>
      <trkpt lat="42.83276933" lon="13.49494608">
        <ele>233.00000</ele>
        <time>2024-02-02T13:51:17Z</time>
      </trkpt>
      <trkpt lat="42.83268903" lon="13.49503367">
        <ele>233.00000</ele>
        <time>2024-02-02T13:51:18Z</time>
      </trkpt>
      <trkpt lat="42.83253304" lon="13.49520709">
        <ele>233.00000</ele>
        <time>2024-02-02T13:51:20Z</time>
      </trkpt>
      <trkpt lat="42.83245568" lon="13.49529661">
        <ele>233.00000</ele>
        <time>2024-02-02T13:51:21Z</time>
      </trkpt>
      <trkpt lat="42.83237613" lon="13.49538395">
        <ele>233.00000</ele>
        <time>2024-02-02T13:51:22Z</time>
      </trkpt>
      <trkpt lat="42.83229416" lon="13.49547204">
        <ele>233.00000</ele>
        <time>2024-02-02T13:51:23Z</time>
      </trkpt>
      <trkpt lat="42.83220908" lon="13.49555779">
        <ele>232.00000</ele>
        <time>2024-02-02T13:51:24Z</time>
      </trkpt>
      <trkpt lat="42.83212166" lon="13.49563742">
        <ele>232.00000</ele>
        <time>2024-02-02T13:51:25Z</time>
      </trkpt>
      <trkpt lat="42.83203281" lon="13.49570925">
        <ele>232.00000</ele>
        <time>2024-02-02T13:51:26Z</time>
      </trkpt>
      <trkpt lat="42.83194120" lon="13.49576633">
        <ele>232.00000</ele>
        <time>2024-02-02T13:51:27Z</time>
      </trkpt>
      <trkpt lat="42.83186517" lon="13.49579893">
        <ele>232.00000</ele>
        <time>2024-02-02T13:51:28Z</time>
      </trkpt>
      <trkpt lat="42.83174632" lon="13.49583799">
        <ele>232.00000</ele>
        <time>2024-02-02T13:51:29Z</time>
      </trkpt>
      <trkpt lat="42.83164154" lon="13.49586356">
        <ele>232.00000</ele>
        <time>2024-02-02T13:51:30Z</time>
      </trkpt>
      <trkpt lat="42.83153417" lon="13.49589382">
        <ele>232.00000</ele>
        <time>2024-02-02T13:51:31Z</time>
      </trkpt>
      <trkpt lat="42.83142118" lon="13.49592072">
        <ele>232.00000</ele>
        <time>2024-02-02T13:51:32Z</time>
      </trkpt>
      <trkpt lat="42.83130962" lon="13.49594604">
        <ele>232.00000</ele>
        <time>2024-02-02T13:51:33Z</time>
      </trkpt>
      <trkpt lat="42.83119579" lon="13.49597495">
        <ele>231.00000</ele>
        <time>2024-02-02T13:51:34Z</time>
      </trkpt>
      <trkpt lat="42.83108222" lon="13.49600329">
        <ele>231.00000</ele>
        <time>2024-02-02T13:51:35Z</time>
      </trkpt>
      <trkpt lat="42.83097107" lon="13.49602734">
        <ele>231.00000</ele>
        <time>2024-02-02T13:51:36Z</time>
      </trkpt>
      <trkpt lat="42.83085809" lon="13.49604662">
        <ele>231.00000</ele>
        <time>2024-02-02T13:51:37Z</time>
      </trkpt>
      <trkpt lat="42.83074233" lon="13.49606732">
        <ele>231.00000</ele>
        <time>2024-02-02T13:51:38Z</time>
      </trkpt>
      <trkpt lat="42.83061660" lon="13.49608912">
        <ele>231.00000</ele>
        <time>2024-02-02T13:51:39Z</time>
      </trkpt>
      <trkpt lat="42.83037940" lon="13.49611284">
        <ele>230.00000</ele>
        <time>2024-02-02T13:51:41Z</time>
      </trkpt>
      <trkpt lat="42.83026272" lon="13.49611661">
        <ele>230.00000</ele>
        <time>2024-02-02T13:51:42Z</time>
      </trkpt>
      <trkpt lat="42.83014579" lon="13.49611108">
        <ele>230.00000</ele>
        <time>2024-02-02T13:51:43Z</time>
      </trkpt>
      <trkpt lat="42.83002828" lon="13.49610211">
        <ele>230.00000</ele>
        <time>2024-02-02T13:51:44Z</time>
      </trkpt>
      <trkpt lat="42.82991160" lon="13.49609121">
        <ele>229.00000</ele>
        <time>2024-02-02T13:51:45Z</time>
      </trkpt>
      <trkpt lat="42.82979551" lon="13.49608258">
        <ele>228.00000</ele>
        <time>2024-02-02T13:51:46Z</time>
      </trkpt>
      <trkpt lat="42.82967867" lon="13.49607110">
        <ele>228.00000</ele>
        <time>2024-02-02T13:51:47Z</time>
      </trkpt>
      <trkpt lat="42.82956610" lon="13.49605601">
        <ele>228.00000</ele>
        <time>2024-02-02T13:51:48Z</time>
      </trkpt>
      <trkpt lat="42.82945219" lon="13.49604251">
        <ele>228.00000</ele>
        <time>2024-02-02T13:51:49Z</time>
      </trkpt>
      <trkpt lat="42.82933744" lon="13.49603254">
        <ele>228.00000</ele>
        <time>2024-02-02T13:51:50Z</time>
      </trkpt>
      <trkpt lat="42.82922328" lon="13.49602022">
        <ele>228.00000</ele>
        <time>2024-02-02T13:51:51Z</time>
      </trkpt>
      <trkpt lat="42.82911138" lon="13.49600882">
        <ele>228.00000</ele>
        <time>2024-02-02T13:51:52Z</time>
      </trkpt>
      <trkpt lat="42.82899898" lon="13.49599339">
        <ele>227.00000</ele>
        <time>2024-02-02T13:51:53Z</time>
      </trkpt>
      <trkpt lat="42.82889152" lon="13.49598225">
        <ele>226.00000</ele>
        <time>2024-02-02T13:51:54Z</time>
      </trkpt>
      <trkpt lat="42.82878306" lon="13.49597236">
        <ele>226.00000</ele>
        <time>2024-02-02T13:51:55Z</time>
      </trkpt>
      <trkpt lat="42.82867871" lon="13.49596322">
        <ele>226.00000</ele>
        <time>2024-02-02T13:51:56Z</time>
      </trkpt>
      <trkpt lat="42.82857301" lon="13.49595786">
        <ele>226.00000</ele>
        <time>2024-02-02T13:51:57Z</time>
      </trkpt>
      <trkpt lat="42.82846790" lon="13.49595853">
        <ele>227.00000</ele>
        <time>2024-02-02T13:51:58Z</time>
      </trkpt>
      <trkpt lat="42.82836112" lon="13.49596599">
        <ele>227.00000</ele>
        <time>2024-02-02T13:51:59Z</time>
      </trkpt>
      <trkpt lat="42.82825777" lon="13.49597831">
        <ele>228.00000</ele>
        <time>2024-02-02T13:52:00Z</time>
      </trkpt>
      <trkpt lat="42.82815258" lon="13.49599633">
        <ele>229.00000</ele>
        <time>2024-02-02T13:52:01Z</time>
      </trkpt>
      <trkpt lat="42.82794764" lon="13.49604276">
        <ele>229.00000</ele>
        <time>2024-02-02T13:52:03Z</time>
      </trkpt>
      <trkpt lat="42.82784848" lon="13.49606875">
        <ele>228.00000</ele>
        <time>2024-02-02T13:52:04Z</time>
      </trkpt>
      <trkpt lat="42.82764782" lon="13.49613052">
        <ele>229.00000</ele>
        <time>2024-02-02T13:52:06Z</time>
      </trkpt>
      <trkpt lat="42.82754656" lon="13.49616615">
        <ele>230.00000</ele>
        <time>2024-02-02T13:52:07Z</time>
      </trkpt>
      <trkpt lat="42.82744422" lon="13.49620747">
        <ele>231.00000</ele>
        <time>2024-02-02T13:52:08Z</time>
      </trkpt>
      <trkpt lat="42.82734573" lon="13.49625030">
        <ele>233.00000</ele>
        <time>2024-02-02T13:52:09Z</time>
      </trkpt>
      <trkpt lat="42.82724331" lon="13.49629204">
        <ele>233.00000</ele>
        <time>2024-02-02T13:52:10Z</time>
      </trkpt>
      <trkpt lat="42.82713702" lon="13.49632976">
        <ele>234.00000</ele>
        <time>2024-02-02T13:52:11Z</time>
      </trkpt>
      <trkpt lat="42.82703250" lon="13.49637134">
        <ele>234.00000</ele>
        <time>2024-02-02T13:52:12Z</time>
      </trkpt>
      <trkpt lat="42.82692924" lon="13.49641324">
        <ele>234.00000</ele>
        <time>2024-02-02T13:52:13Z</time>
      </trkpt>
      <trkpt lat="42.82682689" lon="13.49645826">
        <ele>236.00000</ele>
        <time>2024-02-02T13:52:14Z</time>
      </trkpt>
      <trkpt lat="42.82672723" lon="13.49650645">
        <ele>237.00000</ele>
        <time>2024-02-02T13:52:15Z</time>
      </trkpt>
      <trkpt lat="42.82662665" lon="13.49655574">
        <ele>238.00000</ele>
        <time>2024-02-02T13:52:16Z</time>
      </trkpt>
      <trkpt lat="42.82652783" lon="13.49660729">
        <ele>237.00000</ele>
        <time>2024-02-02T13:52:17Z</time>
      </trkpt>
      <trkpt lat="42.82643144" lon="13.49665976">
        <ele>237.00000</ele>
        <time>2024-02-02T13:52:18Z</time>
      </trkpt>
      <trkpt lat="42.82633840" lon="13.49671550">
        <ele>236.00000</ele>
        <time>2024-02-02T13:52:19Z</time>
      </trkpt>
      <trkpt lat="42.82624921" lon="13.49677928">
        <ele>235.00000</ele>
        <time>2024-02-02T13:52:20Z</time>
      </trkpt>
      <trkpt lat="42.82616984" lon="13.49685522">
        <ele>233.00000</ele>
        <time>2024-02-02T13:52:21Z</time>
      </trkpt>
      <trkpt lat="42.82609012" lon="13.49694164">
        <ele>229.00000</ele>
        <time>2024-02-02T13:52:22Z</time>
      </trkpt>
      <trkpt lat="42.82600731" lon="13.49703560">
        <ele>229.00000</ele>
        <time>2024-02-02T13:52:23Z</time>
      </trkpt>
      <trkpt lat="42.82592366" lon="13.49713970">
        <ele>228.00000</ele>
        <time>2024-02-02T13:52:24Z</time>
      </trkpt>
      <trkpt lat="42.82576633" lon="13.49735629">
        <ele>227.00000</ele>
        <time>2024-02-02T13:52:26Z</time>
      </trkpt>
      <trkpt lat="42.82568687" lon="13.49746677">
        <ele>226.00000</ele>
        <time>2024-02-02T13:52:27Z</time>
      </trkpt>
      <trkpt lat="42.82560515" lon="13.49757615">
        <ele>225.00000</ele>
        <time>2024-02-02T13:52:28Z</time>
      </trkpt>
      <trkpt lat="42.82552334" lon="13.49768704">
        <ele>224.00000</ele>
        <time>2024-02-02T13:52:29Z</time>
      </trkpt>
      <trkpt lat="42.82543759" lon="13.49780447">
        <ele>224.00000</ele>
        <time>2024-02-02T13:52:30Z</time>
      </trkpt>
      <trkpt lat="42.82535436" lon="13.49791746">
        <ele>224.00000</ele>
        <time>2024-02-02T13:52:31Z</time>
      </trkpt>
      <trkpt lat="42.82527264" lon="13.49802953">
        <ele>225.00000</ele>
        <time>2024-02-02T13:52:32Z</time>
      </trkpt>
      <trkpt lat="42.82519686" lon="13.49814495">
        <ele>224.00000</ele>
        <time>2024-02-02T13:52:33Z</time>
      </trkpt>
      <trkpt lat="42.82511657" lon="13.49825944">
        <ele>222.00000</ele>
        <time>2024-02-02T13:52:34Z</time>
      </trkpt>
      <trkpt lat="42.82503040" lon="13.49837335">
        <ele>221.00000</ele>
        <time>2024-02-02T13:52:35Z</time>
      </trkpt>
      <trkpt lat="42.82494549" lon="13.49848634">
        <ele>219.00000</ele>
        <time>2024-02-02T13:52:36Z</time>
      </trkpt>
      <trkpt lat="42.82486318" lon="13.49860218">
        <ele>216.00000</ele>
        <time>2024-02-02T13:52:37Z</time>
      </trkpt>
      <trkpt lat="42.82471356" lon="13.49886118">
        <ele>214.00000</ele>
        <time>2024-02-02T13:52:39Z</time>
      </trkpt>
      <trkpt lat="42.82464710" lon="13.49899915">
        <ele>214.00000</ele>
        <time>2024-02-02T13:52:40Z</time>
      </trkpt>
      <trkpt lat="42.82459010" lon="13.49914038">
        <ele>215.00000</ele>
        <time>2024-02-02T13:52:41Z</time>
      </trkpt>
      <trkpt lat="42.82453763" lon="13.49928346">
        <ele>216.00000</ele>
        <time>2024-02-02T13:52:42Z</time>
      </trkpt>
      <trkpt lat="42.82448968" lon="13.49942595">
        <ele>216.00000</ele>
        <time>2024-02-02T13:52:43Z</time>
      </trkpt>
      <trkpt lat="42.82443948" lon="13.49956903">
        <ele>215.00000</ele>
        <time>2024-02-02T13:52:44Z</time>
      </trkpt>
      <trkpt lat="42.82439229" lon="13.49971211">
        <ele>215.00000</ele>
        <time>2024-02-02T13:52:45Z</time>
      </trkpt>
      <trkpt lat="42.82429254" lon="13.49999726">
        <ele>215.00000</ele>
        <time>2024-02-02T13:52:47Z</time>
      </trkpt>
      <trkpt lat="42.82423881" lon="13.50013330">
        <ele>215.00000</ele>
        <time>2024-02-02T13:52:48Z</time>
      </trkpt>
      <trkpt lat="42.82417821" lon="13.50026800">
        <ele>215.00000</ele>
        <time>2024-02-02T13:52:49Z</time>
      </trkpt>
      <trkpt lat="42.82411116" lon="13.50039498">
        <ele>216.00000</ele>
        <time>2024-02-02T13:52:50Z</time>
      </trkpt>
      <trkpt lat="42.82403362" lon="13.50050806">
        <ele>216.00000</ele>
        <time>2024-02-02T13:52:51Z</time>
      </trkpt>
      <trkpt lat="42.82394779" lon="13.50060562">
        <ele>216.00000</ele>
        <time>2024-02-02T13:52:52Z</time>
      </trkpt>
      <trkpt lat="42.82385308" lon="13.50068609">
        <ele>217.00000</ele>
        <time>2024-02-02T13:52:53Z</time>
      </trkpt>
      <trkpt lat="42.82375350" lon="13.50074987">
        <ele>218.00000</ele>
        <time>2024-02-02T13:52:54Z</time>
      </trkpt>
      <trkpt lat="42.82365359" lon="13.50080737">
        <ele>218.00000</ele>
        <time>2024-02-02T13:52:55Z</time>
      </trkpt>
      <trkpt lat="42.82355703" lon="13.50086370">
        <ele>219.00000</ele>
        <time>2024-02-02T13:52:56Z</time>
      </trkpt>
      <trkpt lat="42.82345846" lon="13.50092212">
        <ele>219.00000</ele>
        <time>2024-02-02T13:52:57Z</time>
      </trkpt>
      <trkpt lat="42.82336433" lon="13.50098406">
        <ele>219.00000</ele>
        <time>2024-02-02T13:52:58Z</time>
      </trkpt>
      <trkpt lat="42.82327230" lon="13.50104978">
        <ele>219.00000</ele>
        <time>2024-02-02T13:52:59Z</time>
      </trkpt>
      <trkpt lat="42.82318261" lon="13.50111952">
        <ele>220.00000</ele>
        <time>2024-02-02T13:53:00Z</time>
      </trkpt>
      <trkpt lat="42.82309594" lon="13.50119168">
        <ele>220.00000</ele>
        <time>2024-02-02T13:53:01Z</time>
      </trkpt>
      <trkpt lat="42.82300994" lon="13.50126259">
        <ele>221.00000</ele>
        <time>2024-02-02T13:53:02Z</time>
      </trkpt>
      <trkpt lat="42.82292621" lon="13.50133594">
        <ele>221.00000</ele>
        <time>2024-02-02T13:53:03Z</time>
      </trkpt>
      <trkpt lat="42.82284432" lon="13.50140852">
        <ele>222.00000</ele>
        <time>2024-02-02T13:53:04Z</time>
      </trkpt>
      <trkpt lat="42.82276075" lon="13.50147767">
        <ele>222.00000</ele>
        <time>2024-02-02T13:53:05Z</time>
      </trkpt>
      <trkpt lat="42.82267458" lon="13.50154456">
        <ele>223.00000</ele>
        <time>2024-02-02T13:53:06Z</time>
      </trkpt>
      <trkpt lat="42.82258548" lon="13.50160994">
        <ele>225.00000</ele>
        <time>2024-02-02T13:53:07Z</time>
      </trkpt>
      <trkpt lat="42.82250074" lon="13.50167666">
        <ele>226.00000</ele>
        <time>2024-02-02T13:53:08Z</time>
      </trkpt>
      <trkpt lat="42.82241684" lon="13.50173986">
        <ele>228.00000</ele>
        <time>2024-02-02T13:53:09Z</time>
      </trkpt>
      <trkpt lat="42.82232908" lon="13.50179267">
        <ele>229.00000</ele>
        <time>2024-02-02T13:53:10Z</time>
      </trkpt>
      <trkpt lat="42.82224149" lon="13.50184212">
        <ele>229.00000</ele>
        <time>2024-02-02T13:53:11Z</time>
      </trkpt>
      <trkpt lat="42.82215499" lon="13.50189425">
        <ele>228.00000</ele>
        <time>2024-02-02T13:53:12Z</time>
      </trkpt>
      <trkpt lat="42.82206715" lon="13.50194346">
        <ele>227.00000</ele>
        <time>2024-02-02T13:53:13Z</time>
      </trkpt>
      <trkpt lat="42.82197847" lon="13.50198822">
        <ele>226.00000</ele>
        <time>2024-02-02T13:53:14Z</time>
      </trkpt>
      <trkpt lat="42.82188962" lon="13.50203281">
        <ele>226.00000</ele>
        <time>2024-02-02T13:53:15Z</time>
      </trkpt>
      <trkpt lat="42.82179960" lon="13.50207606">
        <ele>226.00000</ele>
        <time>2024-02-02T13:53:16Z</time>
      </trkpt>
      <trkpt lat="42.82171812" lon="13.50212543">
        <ele>227.00000</ele>
        <time>2024-02-02T13:53:17Z</time>
      </trkpt>
      <trkpt lat="42.82164478" lon="13.50219215">
        <ele>228.00000</ele>
        <time>2024-02-02T13:53:18Z</time>
      </trkpt>
      <trkpt lat="42.82151989" lon="13.50237630">
        <ele>232.00000</ele>
        <time>2024-02-02T13:53:20Z</time>
      </trkpt>
      <trkpt lat="42.82146348" lon="13.50247319">
        <ele>236.00000</ele>
        <time>2024-02-02T13:53:21Z</time>
      </trkpt>
      <trkpt lat="42.82140741" lon="13.50257604">
        <ele>239.00000</ele>
        <time>2024-02-02T13:53:22Z</time>
      </trkpt>
      <trkpt lat="42.82135829" lon="13.50268810">
        <ele>240.00000</ele>
        <time>2024-02-02T13:53:23Z</time>
      </trkpt>
      <trkpt lat="42.82132091" lon="13.50280688">
        <ele>241.00000</ele>
        <time>2024-02-02T13:53:24Z</time>
      </trkpt>
      <trkpt lat="42.82128671" lon="13.50292623">
        <ele>241.00000</ele>
        <time>2024-02-02T13:53:25Z</time>
      </trkpt>
      <trkpt lat="42.82126491" lon="13.50304844">
        <ele>239.00000</ele>
        <time>2024-02-02T13:53:26Z</time>
      </trkpt>
      <trkpt lat="42.82126458" lon="13.50317635">
        <ele>238.00000</ele>
        <time>2024-02-02T13:53:27Z</time>
      </trkpt>
      <trkpt lat="42.82127522" lon="13.50330568">
        <ele>236.00000</ele>
        <time>2024-02-02T13:53:28Z</time>
      </trkpt>
      <trkpt lat="42.82128537" lon="13.50343678">
        <ele>234.00000</ele>
        <time>2024-02-02T13:53:29Z</time>
      </trkpt>
      <trkpt lat="42.82130070" lon="13.50354457">
        <ele>232.00000</ele>
        <time>2024-02-02T13:53:30Z</time>
      </trkpt>
      <trkpt lat="42.82131998" lon="13.50369905">
        <ele>228.00000</ele>
        <time>2024-02-02T13:53:31Z</time>
      </trkpt>
      <trkpt lat="42.82133968" lon="13.50382771">
        <ele>226.00000</ele>
        <time>2024-02-02T13:53:32Z</time>
      </trkpt>
      <trkpt lat="42.82136768" lon="13.50395721">
        <ele>223.00000</ele>
        <time>2024-02-02T13:53:33Z</time>
      </trkpt>
      <trkpt lat="42.82138880" lon="13.50408109">
        <ele>222.00000</ele>
        <time>2024-02-02T13:53:34Z</time>
      </trkpt>
      <trkpt lat="42.82141227" lon="13.50420355">
        <ele>221.00000</ele>
        <time>2024-02-02T13:53:35Z</time>
      </trkpt>
      <trkpt lat="42.82143373" lon="13.50433037">
        <ele>222.00000</ele>
        <time>2024-02-02T13:53:36Z</time>
      </trkpt>
      <trkpt lat="42.82145200" lon="13.50445912">
        <ele>223.00000</ele>
        <time>2024-02-02T13:53:37Z</time>
      </trkpt>
      <trkpt lat="42.82146759" lon="13.50457780">
        <ele>224.00000</ele>
        <time>2024-02-02T13:53:38Z</time>
      </trkpt>
      <trkpt lat="42.82149299" lon="13.50481602">
        <ele>224.00000</ele>
        <time>2024-02-02T13:53:40Z</time>
      </trkpt>
      <trkpt lat="42.82150262" lon="13.50493730">
        <ele>223.00000</ele>
        <time>2024-02-02T13:53:41Z</time>
      </trkpt>
      <trkpt lat="42.82151771" lon="13.50506412">
        <ele>222.00000</ele>
        <time>2024-02-02T13:53:42Z</time>
      </trkpt>
      <trkpt lat="42.82151369" lon="13.50518298">
        <ele>221.00000</ele>
        <time>2024-02-02T13:53:43Z</time>
      </trkpt>
      <trkpt lat="42.82149307" lon="13.50529295">
        <ele>220.00000</ele>
        <time>2024-02-02T13:53:44Z</time>
      </trkpt>
      <trkpt lat="42.82146407" lon="13.50539429">
        <ele>220.00000</ele>
        <time>2024-02-02T13:53:45Z</time>
      </trkpt>
      <trkpt lat="42.82144915" lon="13.50549730">
        <ele>219.00000</ele>
        <time>2024-02-02T13:53:46Z</time>
      </trkpt>
      <trkpt lat="42.82145124" lon="13.50560677">
        <ele>219.00000</ele>
        <time>2024-02-02T13:53:47Z</time>
      </trkpt>
      <trkpt lat="42.82146994" lon="13.50571950">
        <ele>218.00000</ele>
        <time>2024-02-02T13:53:48Z</time>
      </trkpt>
      <trkpt lat="42.82150665" lon="13.50582746">
        <ele>218.00000</ele>
        <time>2024-02-02T13:53:49Z</time>
      </trkpt>
      <trkpt lat="42.82155401" lon="13.50593224">
        <ele>217.00000</ele>
        <time>2024-02-02T13:53:50Z</time>
      </trkpt>
      <trkpt lat="42.82159298" lon="13.50603642">
        <ele>216.00000</ele>
        <time>2024-02-02T13:53:51Z</time>
      </trkpt>
      <trkpt lat="42.82162961" lon="13.50614396">
        <ele>215.00000</ele>
        <time>2024-02-02T13:53:52Z</time>
      </trkpt>
      <trkpt lat="42.82166096" lon="13.50625846">
        <ele>214.00000</ele>
        <time>2024-02-02T13:53:53Z</time>
      </trkpt>
      <trkpt lat="42.82168284" lon="13.50635435">
        <ele>214.00000</ele>
        <time>2024-02-02T13:53:54Z</time>
      </trkpt>
      <trkpt lat="42.82170865" lon="13.50647664">
        <ele>213.00000</ele>
        <time>2024-02-02T13:53:55Z</time>
      </trkpt>
      <trkpt lat="42.82173447" lon="13.50660413">
        <ele>212.00000</ele>
        <time>2024-02-02T13:53:56Z</time>
      </trkpt>
      <trkpt lat="42.82176355" lon="13.50676188">
        <ele>210.00000</ele>
        <time>2024-02-02T13:53:57Z</time>
      </trkpt>
      <trkpt lat="42.82178350" lon="13.50687009">
        <ele>209.00000</ele>
        <time>2024-02-02T13:53:58Z</time>
      </trkpt>
      <trkpt lat="42.82181058" lon="13.50700755">
        <ele>208.00000</ele>
        <time>2024-02-02T13:53:59Z</time>
      </trkpt>
      <trkpt lat="42.82183958" lon="13.50714560">
        <ele>207.00000</ele>
        <time>2024-02-02T13:54:00Z</time>
      </trkpt>
      <trkpt lat="42.82187587" lon="13.50731215">
        <ele>207.00000</ele>
        <time>2024-02-02T13:54:01Z</time>
      </trkpt>
      <trkpt lat="42.82190714" lon="13.50745188">
        <ele>207.00000</ele>
        <time>2024-02-02T13:54:02Z</time>
      </trkpt>
      <trkpt lat="42.82194276" lon="13.50759001">
        <ele>208.00000</ele>
        <time>2024-02-02T13:54:03Z</time>
      </trkpt>
      <trkpt lat="42.82198048" lon="13.50772236">
        <ele>209.00000</ele>
        <time>2024-02-02T13:54:04Z</time>
      </trkpt>
      <trkpt lat="42.82201820" lon="13.50782512">
        <ele>209.00000</ele>
        <time>2024-02-02T13:54:05Z</time>
      </trkpt>
      <trkpt lat="42.82208743" lon="13.50796761">
        <ele>209.00000</ele>
        <time>2024-02-02T13:54:06Z</time>
      </trkpt>
      <trkpt lat="42.82215918" lon="13.50807038">
        <ele>209.00000</ele>
        <time>2024-02-02T13:54:07Z</time>
      </trkpt>
      <trkpt lat="42.82224400" lon="13.50814749">
        <ele>209.00000</ele>
        <time>2024-02-02T13:54:08Z</time>
      </trkpt>
      <trkpt lat="42.82233319" lon="13.50820021">
        <ele>209.00000</ele>
        <time>2024-02-02T13:54:09Z</time>
      </trkpt>
      <trkpt lat="42.82240728" lon="13.50823206">
        <ele>208.00000</ele>
        <time>2024-02-02T13:54:10Z</time>
      </trkpt>
      <trkpt lat="42.82251776" lon="13.50827942">
        <ele>208.00000</ele>
        <time>2024-02-02T13:54:11Z</time>
      </trkpt>
      <trkpt lat="42.82270920" lon="13.50835134">
        <ele>207.00000</ele>
        <time>2024-02-02T13:54:13Z</time>
      </trkpt>
      <trkpt lat="42.82280408" lon="13.50838445">
        <ele>206.00000</ele>
        <time>2024-02-02T13:54:14Z</time>
      </trkpt>
      <trkpt lat="42.82290056" lon="13.50841462">
        <ele>206.00000</ele>
        <time>2024-02-02T13:54:15Z</time>
      </trkpt>
      <trkpt lat="42.82299821" lon="13.50844572">
        <ele>206.00000</ele>
        <time>2024-02-02T13:54:16Z</time>
      </trkpt>
      <trkpt lat="42.82309368" lon="13.50847790">
        <ele>206.00000</ele>
        <time>2024-02-02T13:54:17Z</time>
      </trkpt>
      <trkpt lat="42.82318772" lon="13.50851135">
        <ele>206.00000</ele>
        <time>2024-02-02T13:54:18Z</time>
      </trkpt>
      <trkpt lat="42.82327967" lon="13.50854404">
        <ele>205.00000</ele>
        <time>2024-02-02T13:54:19Z</time>
      </trkpt>
      <trkpt lat="42.82336785" lon="13.50857798">
        <ele>205.00000</ele>
        <time>2024-02-02T13:54:20Z</time>
      </trkpt>
      <trkpt lat="42.82345200" lon="13.50861336">
        <ele>204.00000</ele>
        <time>2024-02-02T13:54:21Z</time>
      </trkpt>
      <trkpt lat="42.82353976" lon="13.50864378">
        <ele>204.00000</ele>
        <time>2024-02-02T13:54:22Z</time>
      </trkpt>
      <trkpt lat="42.82362274" lon="13.50867077">
        <ele>204.00000</ele>
        <time>2024-02-02T13:54:23Z</time>
      </trkpt>
      <trkpt lat="42.82370237" lon="13.50869374">
        <ele>205.00000</ele>
        <time>2024-02-02T13:54:24Z</time>
      </trkpt>
      <trkpt lat="42.82377932" lon="13.50872123">
        <ele>205.00000</ele>
        <time>2024-02-02T13:54:25Z</time>
      </trkpt>
      <trkpt lat="42.82385811" lon="13.50874369">
        <ele>206.00000</ele>
        <time>2024-02-02T13:54:26Z</time>
      </trkpt>
      <trkpt lat="42.82393287" lon="13.50876180">
        <ele>206.00000</ele>
        <time>2024-02-02T13:54:27Z</time>
      </trkpt>
      <trkpt lat="42.82401225" lon="13.50877814">
        <ele>206.00000</ele>
        <time>2024-02-02T13:54:28Z</time>
      </trkpt>
      <trkpt lat="42.82409238" lon="13.50879868">
        <ele>207.00000</ele>
        <time>2024-02-02T13:54:29Z</time>
      </trkpt>
      <trkpt lat="42.82416455" lon="13.50882936">
        <ele>207.00000</ele>
        <time>2024-02-02T13:54:30Z</time>
      </trkpt>
      <trkpt lat="42.82424124" lon="13.50886699">
        <ele>206.00000</ele>
        <time>2024-02-02T13:54:31Z</time>
      </trkpt>
      <trkpt lat="42.82431827" lon="13.50890111">
        <ele>206.00000</ele>
        <time>2024-02-02T13:54:32Z</time>
      </trkpt>
      <trkpt lat="42.82439748" lon="13.50893187">
        <ele>206.00000</ele>
        <time>2024-02-02T13:54:33Z</time>
      </trkpt>
      <trkpt lat="42.82447485" lon="13.50895727">
        <ele>206.00000</ele>
        <time>2024-02-02T13:54:34Z</time>
      </trkpt>
      <trkpt lat="42.82455397" lon="13.50898501">
        <ele>206.00000</ele>
        <time>2024-02-02T13:54:35Z</time>
      </trkpt>
      <trkpt lat="42.82463234" lon="13.50901426">
        <ele>206.00000</ele>
        <time>2024-02-02T13:54:36Z</time>
      </trkpt>
      <trkpt lat="42.82471231" lon="13.50904276">
        <ele>206.00000</ele>
        <time>2024-02-02T13:54:37Z</time>
      </trkpt>
      <trkpt lat="42.82479328" lon="13.50906950">
        <ele>206.00000</ele>
        <time>2024-02-02T13:54:38Z</time>
      </trkpt>
      <trkpt lat="42.82487450" lon="13.50909263">
        <ele>206.00000</ele>
        <time>2024-02-02T13:54:39Z</time>
      </trkpt>
      <trkpt lat="42.82495630" lon="13.50911644">
        <ele>206.00000</ele>
        <time>2024-02-02T13:54:40Z</time>
      </trkpt>
      <trkpt lat="42.82503945" lon="13.50914418">
        <ele>207.00000</ele>
        <time>2024-02-02T13:54:41Z</time>
      </trkpt>
      <trkpt lat="42.82511774" lon="13.50916991">
        <ele>208.00000</ele>
        <time>2024-02-02T13:54:42Z</time>
      </trkpt>
      <trkpt lat="42.82519888" lon="13.50919389">
        <ele>209.00000</ele>
        <time>2024-02-02T13:54:43Z</time>
      </trkpt>
      <trkpt lat="42.82528370" lon="13.50922012">
        <ele>211.00000</ele>
        <time>2024-02-02T13:54:44Z</time>
      </trkpt>
      <trkpt lat="42.82536744" lon="13.50924694">
        <ele>211.00000</ele>
        <time>2024-02-02T13:54:45Z</time>
      </trkpt>
      <trkpt lat="42.82545100" lon="13.50927351">
        <ele>212.00000</ele>
        <time>2024-02-02T13:54:46Z</time>
      </trkpt>
      <trkpt lat="42.82553868" lon="13.50930419">
        <ele>212.00000</ele>
        <time>2024-02-02T13:54:47Z</time>
      </trkpt>
      <trkpt lat="42.82562828" lon="13.50933814">
        <ele>212.00000</ele>
        <time>2024-02-02T13:54:48Z</time>
      </trkpt>
      <trkpt lat="42.82569584" lon="13.50936127">
        <ele>211.00000</ele>
        <time>2024-02-02T13:54:49Z</time>
      </trkpt>
      <trkpt lat="42.82580028" lon="13.50939405">
        <ele>209.00000</ele>
        <time>2024-02-02T13:54:50Z</time>
      </trkpt>
      <trkpt lat="42.82588804" lon="13.50942330">
        <ele>208.00000</ele>
        <time>2024-02-02T13:54:51Z</time>
      </trkpt>
      <trkpt lat="42.82597747" lon="13.50945599">
        <ele>206.00000</ele>
        <time>2024-02-02T13:54:52Z</time>
      </trkpt>
      <trkpt lat="42.82606096" lon="13.50948323">
        <ele>205.00000</ele>
        <time>2024-02-02T13:54:53Z</time>
      </trkpt>
      <trkpt lat="42.82614536" lon="13.50951106">
        <ele>205.00000</ele>
        <time>2024-02-02T13:54:54Z</time>
      </trkpt>
      <trkpt lat="42.82622952" lon="13.50954014">
        <ele>205.00000</ele>
        <time>2024-02-02T13:54:55Z</time>
      </trkpt>
      <trkpt lat="42.82631325" lon="13.50957099">
        <ele>205.00000</ele>
        <time>2024-02-02T13:54:56Z</time>
      </trkpt>
      <trkpt lat="42.82639548" lon="13.50959798">
        <ele>206.00000</ele>
        <time>2024-02-02T13:54:57Z</time>
      </trkpt>
      <trkpt lat="42.82647452" lon="13.50962413">
        <ele>206.00000</ele>
        <time>2024-02-02T13:54:58Z</time>
      </trkpt>
      <trkpt lat="42.82655683" lon="13.50965606">
        <ele>207.00000</ele>
        <time>2024-02-02T13:54:59Z</time>
      </trkpt>
      <trkpt lat="42.82664065" lon="13.50968917">
        <ele>207.00000</ele>
        <time>2024-02-02T13:55:00Z</time>
      </trkpt>
      <trkpt lat="42.82672748" lon="13.50972396">
        <ele>207.00000</ele>
        <time>2024-02-02T13:55:01Z</time>
      </trkpt>
      <trkpt lat="42.82681340" lon="13.50975941">
        <ele>207.00000</ele>
        <time>2024-02-02T13:55:02Z</time>
      </trkpt>
      <trkpt lat="42.82688456" lon="13.50978590">
        <ele>207.00000</ele>
        <time>2024-02-02T13:55:03Z</time>
      </trkpt>
      <trkpt lat="42.82699260" lon="13.50981943">
        <ele>206.00000</ele>
        <time>2024-02-02T13:55:04Z</time>
      </trkpt>
      <trkpt lat="42.82708397" lon="13.50984097">
        <ele>205.00000</ele>
        <time>2024-02-02T13:55:05Z</time>
      </trkpt>
      <trkpt lat="42.82717172" lon="13.50986243">
        <ele>204.00000</ele>
        <time>2024-02-02T13:55:06Z</time>
      </trkpt>
      <trkpt lat="42.82725504" lon="13.50989009">
        <ele>203.00000</ele>
        <time>2024-02-02T13:55:07Z</time>
      </trkpt>
      <trkpt lat="42.82733567" lon="13.50992110">
        <ele>203.00000</ele>
        <time>2024-02-02T13:55:08Z</time>
      </trkpt>
      <trkpt lat="42.82741614" lon="13.50995714">
        <ele>203.00000</ele>
        <time>2024-02-02T13:55:09Z</time>
      </trkpt>
      <trkpt lat="42.82749837" lon="13.50999176">
        <ele>203.00000</ele>
        <time>2024-02-02T13:55:10Z</time>
      </trkpt>
      <trkpt lat="42.82758160" lon="13.51002219">
        <ele>203.00000</ele>
        <time>2024-02-02T13:55:11Z</time>
      </trkpt>
      <trkpt lat="42.82766710" lon="13.51005018">
        <ele>203.00000</ele>
        <time>2024-02-02T13:55:12Z</time>
      </trkpt>
      <trkpt lat="42.82773717" lon="13.51007617">
        <ele>203.00000</ele>
        <time>2024-02-02T13:55:13Z</time>
      </trkpt>
      <trkpt lat="42.82782266" lon="13.51011137">
        <ele>203.00000</ele>
        <time>2024-02-02T13:55:14Z</time>
      </trkpt>
      <trkpt lat="42.82792484" lon="13.51014942">
        <ele>203.00000</ele>
        <time>2024-02-02T13:55:15Z</time>
      </trkpt>
      <trkpt lat="42.82800983" lon="13.51017499">
        <ele>204.00000</ele>
        <time>2024-02-02T13:55:16Z</time>
      </trkpt>
      <trkpt lat="42.82809558" lon="13.51020332">
        <ele>204.00000</ele>
        <time>2024-02-02T13:55:17Z</time>
      </trkpt>
      <trkpt lat="42.82818200" lon="13.51023098">
        <ele>203.00000</ele>
        <time>2024-02-02T13:55:18Z</time>
      </trkpt>
      <trkpt lat="42.82826422" lon="13.51025730">
        <ele>202.00000</ele>
        <time>2024-02-02T13:55:19Z</time>
      </trkpt>
      <trkpt lat="42.82834854" lon="13.51028739">
        <ele>202.00000</ele>
        <time>2024-02-02T13:55:20Z</time>
      </trkpt>
      <trkpt lat="42.82843463" lon="13.51031036">
        <ele>202.00000</ele>
        <time>2024-02-02T13:55:21Z</time>
      </trkpt>
      <trkpt lat="42.82852473" lon="13.51033852">
        <ele>202.00000</ele>
        <time>2024-02-02T13:55:22Z</time>
      </trkpt>
      <trkpt lat="42.82859950" lon="13.51036367">
        <ele>202.00000</ele>
        <time>2024-02-02T13:55:23Z</time>
      </trkpt>
      <trkpt lat="42.82870360" lon="13.51039703">
        <ele>201.00000</ele>
        <time>2024-02-02T13:55:24Z</time>
      </trkpt>
      <trkpt lat="42.82878885" lon="13.51042242">
        <ele>201.00000</ele>
        <time>2024-02-02T13:55:25Z</time>
      </trkpt>
      <trkpt lat="42.82887233" lon="13.51045008">
        <ele>200.00000</ele>
        <time>2024-02-02T13:55:26Z</time>
      </trkpt>
      <trkpt lat="42.82895129" lon="13.51047548">
        <ele>200.00000</ele>
        <time>2024-02-02T13:55:27Z</time>
      </trkpt>
      <trkpt lat="42.82901725" lon="13.51049778">
        <ele>200.00000</ele>
        <time>2024-02-02T13:55:28Z</time>
      </trkpt>
      <trkpt lat="42.82911834" lon="13.51052929">
        <ele>200.00000</ele>
        <time>2024-02-02T13:55:29Z</time>
      </trkpt>
      <trkpt lat="42.82920283" lon="13.51056005">
        <ele>200.00000</ele>
        <time>2024-02-02T13:55:30Z</time>
      </trkpt>
      <trkpt lat="42.82929059" lon="13.51058847">
        <ele>200.00000</ele>
        <time>2024-02-02T13:55:31Z</time>
      </trkpt>
      <trkpt lat="42.82937935" lon="13.51061839">
        <ele>201.00000</ele>
        <time>2024-02-02T13:55:32Z</time>
      </trkpt>
      <trkpt lat="42.82946912" lon="13.51064530">
        <ele>201.00000</ele>
        <time>2024-02-02T13:55:33Z</time>
      </trkpt>
      <trkpt lat="42.82955545" lon="13.51068033">
        <ele>200.00000</ele>
        <time>2024-02-02T13:55:34Z</time>
      </trkpt>
      <trkpt lat="42.82964087" lon="13.51071973">
        <ele>200.00000</ele>
        <time>2024-02-02T13:55:35Z</time>
      </trkpt>
      <trkpt lat="42.82973047" lon="13.51075896">
        <ele>200.00000</ele>
        <time>2024-02-02T13:55:36Z</time>
      </trkpt>
      <trkpt lat="42.82982099" lon="13.51080472">
        <ele>200.00000</ele>
        <time>2024-02-02T13:55:37Z</time>
      </trkpt>
      <trkpt lat="42.82991127" lon="13.51085929">
        <ele>201.00000</ele>
        <time>2024-02-02T13:55:38Z</time>
      </trkpt>
      <trkpt lat="42.82999517" lon="13.51092617">
        <ele>201.00000</ele>
        <time>2024-02-02T13:55:39Z</time>
      </trkpt>
      <trkpt lat="42.83006457" lon="13.51100924">
        <ele>200.00000</ele>
        <time>2024-02-02T13:55:40Z</time>
      </trkpt>
      <trkpt lat="42.83011738" lon="13.51111586">
        <ele>199.00000</ele>
        <time>2024-02-02T13:55:41Z</time>
      </trkpt>
      <trkpt lat="42.83015518" lon="13.51123999">
        <ele>196.00000</ele>
        <time>2024-02-02T13:55:42Z</time>
      </trkpt>
      <trkpt lat="42.83017965" lon="13.51137008">
        <ele>194.00000</ele>
        <time>2024-02-02T13:55:43Z</time>
      </trkpt>
      <trkpt lat="42.83019524" lon="13.51150226">
        <ele>193.00000</ele>
        <time>2024-02-02T13:55:44Z</time>
      </trkpt>
      <trkpt lat="42.83020815" lon="13.51163981">
        <ele>193.00000</ele>
        <time>2024-02-02T13:55:45Z</time>
      </trkpt>
      <trkpt lat="42.83021603" lon="13.51177627">
        <ele>194.00000</ele>
        <time>2024-02-02T13:55:46Z</time>
      </trkpt>
      <trkpt lat="42.83022701" lon="13.51191440">
        <ele>196.00000</ele>
        <time>2024-02-02T13:55:47Z</time>
      </trkpt>
      <trkpt lat="42.83023824" lon="13.51204918">
        <ele>197.00000</ele>
        <time>2024-02-02T13:55:48Z</time>
      </trkpt>
      <trkpt lat="42.83024746" lon="13.51217868">
        <ele>198.00000</ele>
        <time>2024-02-02T13:55:49Z</time>
      </trkpt>
      <trkpt lat="42.83025735" lon="13.51230860">
        <ele>199.00000</ele>
        <time>2024-02-02T13:55:50Z</time>
      </trkpt>
      <trkpt lat="42.83026926" lon="13.51243576">
        <ele>200.00000</ele>
        <time>2024-02-02T13:55:51Z</time>
      </trkpt>
      <trkpt lat="42.83028284" lon="13.51255780">
        <ele>201.00000</ele>
        <time>2024-02-02T13:55:52Z</time>
      </trkpt>
      <trkpt lat="42.83030119" lon="13.51266835">
        <ele>201.00000</ele>
        <time>2024-02-02T13:55:53Z</time>
      </trkpt>
      <trkpt lat="42.83031469" lon="13.51278109">
        <ele>201.00000</ele>
        <time>2024-02-02T13:55:54Z</time>
      </trkpt>
      <trkpt lat="42.83032550" lon="13.51288720">
        <ele>202.00000</ele>
        <time>2024-02-02T13:55:55Z</time>
      </trkpt>
      <trkpt lat="42.83034193" lon="13.51299164">
        <ele>202.00000</ele>
        <time>2024-02-02T13:55:56Z</time>
      </trkpt>
      <trkpt lat="42.83036649" lon="13.51309508">
        <ele>202.00000</ele>
        <time>2024-02-02T13:55:57Z</time>
      </trkpt>
      <trkpt lat="42.83038627" lon="13.51319273">
        <ele>203.00000</ele>
        <time>2024-02-02T13:55:58Z</time>
      </trkpt>
      <trkpt lat="42.83039482" lon="13.51326590">
        <ele>203.00000</ele>
        <time>2024-02-02T13:55:59Z</time>
      </trkpt>
      <trkpt lat="42.83041183" lon="13.51337545">
        <ele>203.00000</ele>
        <time>2024-02-02T13:56:00Z</time>
      </trkpt>
      <trkpt lat="42.83043229" lon="13.51347310">
        <ele>203.00000</ele>
        <time>2024-02-02T13:56:01Z</time>
      </trkpt>
      <trkpt lat="42.83045953" lon="13.51357008">
        <ele>203.00000</ele>
        <time>2024-02-02T13:56:02Z</time>
      </trkpt>
      <trkpt lat="42.83047956" lon="13.51365683">
        <ele>203.00000</ele>
        <time>2024-02-02T13:56:03Z</time>
      </trkpt>
      <trkpt lat="42.83050202" lon="13.51374451">
        <ele>204.00000</ele>
        <time>2024-02-02T13:56:04Z</time>
      </trkpt>
      <trkpt lat="42.83052625" lon="13.51383402">
        <ele>204.00000</ele>
        <time>2024-02-02T13:56:05Z</time>
      </trkpt>
      <trkpt lat="42.83055374" lon="13.51392329">
        <ele>205.00000</ele>
        <time>2024-02-02T13:56:06Z</time>
      </trkpt>
      <trkpt lat="42.83057863" lon="13.51401097">
        <ele>205.00000</ele>
        <time>2024-02-02T13:56:07Z</time>
      </trkpt>
      <trkpt lat="42.83060562" lon="13.51409680">
        <ele>206.00000</ele>
        <time>2024-02-02T13:56:08Z</time>
      </trkpt>
      <trkpt lat="42.83063077" lon="13.51417877">
        <ele>206.00000</ele>
        <time>2024-02-02T13:56:09Z</time>
      </trkpt>
      <trkpt lat="42.83065742" lon="13.51425840">
        <ele>207.00000</ele>
        <time>2024-02-02T13:56:10Z</time>
      </trkpt>
      <trkpt lat="42.83068332" lon="13.51433669">
        <ele>207.00000</ele>
        <time>2024-02-02T13:56:11Z</time>
      </trkpt>
      <trkpt lat="42.83070520" lon="13.51441824">
        <ele>207.00000</ele>
        <time>2024-02-02T13:56:12Z</time>
      </trkpt>
      <trkpt lat="42.83072766" lon="13.51449921">
        <ele>208.00000</ele>
        <time>2024-02-02T13:56:13Z</time>
      </trkpt>
      <trkpt lat="42.83075281" lon="13.51458001">
        <ele>208.00000</ele>
        <time>2024-02-02T13:56:14Z</time>
      </trkpt>
      <trkpt lat="42.83077645" lon="13.51465771">
        <ele>208.00000</ele>
        <time>2024-02-02T13:56:15Z</time>
      </trkpt>
      <trkpt lat="42.83079992" lon="13.51473810">
        <ele>208.00000</ele>
        <time>2024-02-02T13:56:16Z</time>
      </trkpt>
      <trkpt lat="42.83082389" lon="13.51482066">
        <ele>207.00000</ele>
        <time>2024-02-02T13:56:17Z</time>
      </trkpt>
      <trkpt lat="42.83085079" lon="13.51490238">
        <ele>207.00000</ele>
        <time>2024-02-02T13:56:18Z</time>
      </trkpt>
      <trkpt lat="42.83087309" lon="13.51498117">
        <ele>207.00000</ele>
        <time>2024-02-02T13:56:19Z</time>
      </trkpt>
      <trkpt lat="42.83089270" lon="13.51505845">
        <ele>207.00000</ele>
        <time>2024-02-02T13:56:20Z</time>
      </trkpt>
      <trkpt lat="42.83091366" lon="13.51513389">
        <ele>207.00000</ele>
        <time>2024-02-02T13:56:21Z</time>
      </trkpt>
      <trkpt lat="42.83093922" lon="13.51521125">
        <ele>207.00000</ele>
        <time>2024-02-02T13:56:22Z</time>
      </trkpt>
      <trkpt lat="42.83096672" lon="13.51528921">
        <ele>207.00000</ele>
        <time>2024-02-02T13:56:23Z</time>
      </trkpt>
      <trkpt lat="42.83099362" lon="13.51536775">
        <ele>208.00000</ele>
        <time>2024-02-02T13:56:24Z</time>
      </trkpt>
      <trkpt lat="42.83102522" lon="13.51544637">
        <ele>208.00000</ele>
        <time>2024-02-02T13:56:25Z</time>
      </trkpt>
      <trkpt lat="42.83106445" lon="13.51552273">
        <ele>208.00000</ele>
        <time>2024-02-02T13:56:26Z</time>
      </trkpt>
      <trkpt lat="42.83110301" lon="13.51559355">
        <ele>208.00000</ele>
        <time>2024-02-02T13:56:27Z</time>
      </trkpt>
      <trkpt lat="42.83114391" lon="13.51566296">
        <ele>208.00000</ele>
        <time>2024-02-02T13:56:28Z</time>
      </trkpt>
      <trkpt lat="42.83119269" lon="13.51573060">
        <ele>207.00000</ele>
        <time>2024-02-02T13:56:29Z</time>
      </trkpt>
      <trkpt lat="42.83124080" lon="13.51579405">
        <ele>206.00000</ele>
        <time>2024-02-02T13:56:30Z</time>
      </trkpt>
      <trkpt lat="42.83129151" lon="13.51585339">
        <ele>206.00000</ele>
        <time>2024-02-02T13:56:31Z</time>
      </trkpt>
      <trkpt lat="42.83134524" lon="13.51591140">
        <ele>205.00000</ele>
        <time>2024-02-02T13:56:32Z</time>
      </trkpt>
      <trkpt lat="42.83140098" lon="13.51596730">
        <ele>205.00000</ele>
        <time>2024-02-02T13:56:33Z</time>
      </trkpt>
      <trkpt lat="42.83151020" lon="13.51607233">
        <ele>205.00000</ele>
        <time>2024-02-02T13:56:35Z</time>
      </trkpt>
      <trkpt lat="42.83156535" lon="13.51612337">
        <ele>205.00000</ele>
        <time>2024-02-02T13:56:36Z</time>
      </trkpt>
      <trkpt lat="42.83161849" lon="13.51617408">
        <ele>205.00000</ele>
        <time>2024-02-02T13:56:37Z</time>
      </trkpt>
      <trkpt lat="42.83167264" lon="13.51622345">
        <ele>205.00000</ele>
        <time>2024-02-02T13:56:38Z</time>
      </trkpt>
      <trkpt lat="42.83172796" lon="13.51627157">
        <ele>206.00000</ele>
        <time>2024-02-02T13:56:39Z</time>
      </trkpt>
      <trkpt lat="42.83177884" lon="13.51632085">
        <ele>207.00000</ele>
        <time>2024-02-02T13:56:40Z</time>
      </trkpt>
      <trkpt lat="42.83182687" lon="13.51637081">
        <ele>207.00000</ele>
        <time>2024-02-02T13:56:41Z</time>
      </trkpt>
      <trkpt lat="42.83187515" lon="13.51642294">
        <ele>208.00000</ele>
        <time>2024-02-02T13:56:42Z</time>
      </trkpt>
      <trkpt lat="42.83192460" lon="13.51647567">
        <ele>209.00000</ele>
        <time>2024-02-02T13:56:43Z</time>
      </trkpt>
      <trkpt lat="42.83197556" lon="13.51652520">
        <ele>210.00000</ele>
        <time>2024-02-02T13:56:44Z</time>
      </trkpt>
      <trkpt lat="42.83202770" lon="13.51657155">
        <ele>211.00000</ele>
        <time>2024-02-02T13:56:45Z</time>
      </trkpt>
      <trkpt lat="42.83208268" lon="13.51662168">
        <ele>212.00000</ele>
        <time>2024-02-02T13:56:46Z</time>
      </trkpt>
      <trkpt lat="42.83213884" lon="13.51667272">
        <ele>213.00000</ele>
        <time>2024-02-02T13:56:47Z</time>
      </trkpt>
      <trkpt lat="42.83219366" lon="13.51672310">
        <ele>213.00000</ele>
        <time>2024-02-02T13:56:48Z</time>
      </trkpt>
      <trkpt lat="42.83224814" lon="13.51677347">
        <ele>213.00000</ele>
        <time>2024-02-02T13:56:49Z</time>
      </trkpt>
      <trkpt lat="42.83231226" lon="13.51683164">
        <ele>214.00000</ele>
        <time>2024-02-02T13:56:50Z</time>
      </trkpt>
      <trkpt lat="42.83235266" lon="13.51687246">
        <ele>214.00000</ele>
        <time>2024-02-02T13:56:51Z</time>
      </trkpt>
      <trkpt lat="42.83240773" lon="13.51692426">
        <ele>215.00000</ele>
        <time>2024-02-02T13:56:52Z</time>
      </trkpt>
      <trkpt lat="42.83246523" lon="13.51697447">
        <ele>215.00000</ele>
        <time>2024-02-02T13:56:53Z</time>
      </trkpt>
      <trkpt lat="42.83251862" lon="13.51702317">
        <ele>215.00000</ele>
        <time>2024-02-02T13:56:54Z</time>
      </trkpt>
      <trkpt lat="42.83257219" lon="13.51707531">
        <ele>216.00000</ele>
        <time>2024-02-02T13:56:55Z</time>
      </trkpt>
      <trkpt lat="42.83262692" lon="13.51712585">
        <ele>216.00000</ele>
        <time>2024-02-02T13:56:56Z</time>
      </trkpt>
      <trkpt lat="42.83268576" lon="13.51717622">
        <ele>217.00000</ele>
        <time>2024-02-02T13:56:57Z</time>
      </trkpt>
      <trkpt lat="42.83274837" lon="13.51722459">
        <ele>218.00000</ele>
        <time>2024-02-02T13:56:58Z</time>
      </trkpt>
      <trkpt lat="42.83281342" lon="13.51727236">
        <ele>218.00000</ele>
        <time>2024-02-02T13:56:59Z</time>
      </trkpt>
      <trkpt lat="42.83287737" lon="13.51731570">
        <ele>218.00000</ele>
        <time>2024-02-02T13:57:00Z</time>
      </trkpt>
      <trkpt lat="42.83294334" lon="13.51736247">
        <ele>219.00000</ele>
        <time>2024-02-02T13:57:01Z</time>
      </trkpt>
      <trkpt lat="42.83301358" lon="13.51741218">
        <ele>219.00000</ele>
        <time>2024-02-02T13:57:02Z</time>
      </trkpt>
      <trkpt lat="42.83308767" lon="13.51747102">
        <ele>219.00000</ele>
        <time>2024-02-02T13:57:03Z</time>
      </trkpt>
      <trkpt lat="42.83315816" lon="13.51751653">
        <ele>219.00000</ele>
        <time>2024-02-02T13:57:04Z</time>
      </trkpt>
      <trkpt lat="42.83323452" lon="13.51756003">
        <ele>219.00000</ele>
        <time>2024-02-02T13:57:05Z</time>
      </trkpt>
      <trkpt lat="42.83331725" lon="13.51760957">
        <ele>218.00000</ele>
        <time>2024-02-02T13:57:06Z</time>
      </trkpt>
      <trkpt lat="42.83339177" lon="13.51765223">
        <ele>218.00000</ele>
        <time>2024-02-02T13:57:07Z</time>
      </trkpt>
      <trkpt lat="42.83346352" lon="13.51770244">
        <ele>218.00000</ele>
        <time>2024-02-02T13:57:08Z</time>
      </trkpt>
      <trkpt lat="42.83353476" lon="13.51774728">
        <ele>218.00000</ele>
        <time>2024-02-02T13:57:09Z</time>
      </trkpt>
      <trkpt lat="42.83360886" lon="13.51778014">
        <ele>218.00000</ele>
        <time>2024-02-02T13:57:10Z</time>
      </trkpt>
      <trkpt lat="42.83368974" lon="13.51781191">
        <ele>218.00000</ele>
        <time>2024-02-02T13:57:11Z</time>
      </trkpt>
      <trkpt lat="42.83376929" lon="13.51783890">
        <ele>217.00000</ele>
        <time>2024-02-02T13:57:12Z</time>
      </trkpt>
      <trkpt lat="42.83384908" lon="13.51786958">
        <ele>217.00000</ele>
        <time>2024-02-02T13:57:13Z</time>
      </trkpt>
      <trkpt lat="42.83392243" lon="13.51790193">
        <ele>218.00000</ele>
        <time>2024-02-02T13:57:14Z</time>
      </trkpt>
      <trkpt lat="42.83399309" lon="13.51793915">
        <ele>218.00000</ele>
        <time>2024-02-02T13:57:15Z</time>
      </trkpt>
      <trkpt lat="42.83406274" lon="13.51798508">
        <ele>219.00000</ele>
        <time>2024-02-02T13:57:16Z</time>
      </trkpt>
      <trkpt lat="42.83412544" lon="13.51803470">
        <ele>220.00000</ele>
        <time>2024-02-02T13:57:17Z</time>
      </trkpt>
      <trkpt lat="42.83420163" lon="13.51808264">
        <ele>220.00000</ele>
        <time>2024-02-02T13:57:18Z</time>
      </trkpt>
      <trkpt lat="42.83426701" lon="13.51813646">
        <ele>220.00000</ele>
        <time>2024-02-02T13:57:19Z</time>
      </trkpt>
      <trkpt lat="42.83433591" lon="13.51819689">
        <ele>220.00000</ele>
        <time>2024-02-02T13:57:20Z</time>
      </trkpt>
      <trkpt lat="42.83440397" lon="13.51825774">
        <ele>220.00000</ele>
        <time>2024-02-02T13:57:21Z</time>
      </trkpt>
      <trkpt lat="42.83446725" lon="13.51831038">
        <ele>220.00000</ele>
        <time>2024-02-02T13:57:22Z</time>
      </trkpt>
      <trkpt lat="42.83453104" lon="13.51835791">
        <ele>220.00000</ele>
        <time>2024-02-02T13:57:23Z</time>
      </trkpt>
      <trkpt lat="42.83459449" lon="13.51840820">
        <ele>220.00000</ele>
        <time>2024-02-02T13:57:24Z</time>
      </trkpt>
      <trkpt lat="42.83465869" lon="13.51846603">
        <ele>220.00000</ele>
        <time>2024-02-02T13:57:25Z</time>
      </trkpt>
      <trkpt lat="42.83471954" lon="13.51854910">
        <ele>220.00000</ele>
        <time>2024-02-02T13:57:26Z</time>
      </trkpt>
      <trkpt lat="42.83476623" lon="13.51862646">
        <ele>220.00000</ele>
        <time>2024-02-02T13:57:27Z</time>
      </trkpt>
      <trkpt lat="42.83482742" lon="13.51871707">
        <ele>221.00000</ele>
        <time>2024-02-02T13:57:28Z</time>
      </trkpt>
      <trkpt lat="42.83489950" lon="13.51882897">
        <ele>221.00000</ele>
        <time>2024-02-02T13:57:29Z</time>
      </trkpt>
      <trkpt lat="42.83495281" lon="13.51893223">
        <ele>222.00000</ele>
        <time>2024-02-02T13:57:30Z</time>
      </trkpt>
      <trkpt lat="42.83500554" lon="13.51903064">
        <ele>223.00000</ele>
        <time>2024-02-02T13:57:31Z</time>
      </trkpt>
      <trkpt lat="42.83505482" lon="13.51910968">
        <ele>224.00000</ele>
        <time>2024-02-02T13:57:32Z</time>
      </trkpt>
      <trkpt lat="42.83510981" lon="13.51918134">
        <ele>224.00000</ele>
        <time>2024-02-02T13:57:33Z</time>
      </trkpt>
      <trkpt lat="42.83516613" lon="13.51924119">
        <ele>225.00000</ele>
        <time>2024-02-02T13:57:34Z</time>
      </trkpt>
      <trkpt lat="42.83521818" lon="13.51929827">
        <ele>225.00000</ele>
        <time>2024-02-02T13:57:35Z</time>
      </trkpt>
      <trkpt lat="42.83525909" lon="13.51935854">
        <ele>227.00000</ele>
        <time>2024-02-02T13:57:36Z</time>
      </trkpt>
      <trkpt lat="42.83529027" lon="13.51942098">
        <ele>228.00000</ele>
        <time>2024-02-02T13:57:37Z</time>
      </trkpt>
      <trkpt lat="42.83532472" lon="13.51947957">
        <ele>229.00000</ele>
        <time>2024-02-02T13:57:38Z</time>
      </trkpt>
      <trkpt lat="42.83537283" lon="13.51955384">
        <ele>230.00000</ele>
        <time>2024-02-02T13:57:39Z</time>
      </trkpt>
      <trkpt lat="42.83674813" lon="13.51975223">
        <ele>216.00000</ele>
        <time>2024-02-02T13:57:54Z</time>
      </trkpt>
      <trkpt lat="42.83683916" lon="13.51982281">
        <ele>217.00000</ele>
        <time>2024-02-02T13:57:55Z</time>
      </trkpt>
      <trkpt lat="42.83691250" lon="13.51990671">
        <ele>218.00000</ele>
        <time>2024-02-02T13:57:56Z</time>
      </trkpt>
      <trkpt lat="42.83697780" lon="13.52002213">
        <ele>219.00000</ele>
        <time>2024-02-02T13:57:57Z</time>
      </trkpt>
      <trkpt lat="42.83709120" lon="13.52016949">
        <ele>219.00000</ele>
        <time>2024-02-02T13:57:58Z</time>
      </trkpt>
      <trkpt lat="42.83718508" lon="13.52028373">
        <ele>220.00000</ele>
        <time>2024-02-02T13:57:59Z</time>
      </trkpt>
      <trkpt lat="42.83728893" lon="13.52038247">
        <ele>220.00000</ele>
        <time>2024-02-02T13:58:00Z</time>
      </trkpt>
      <trkpt lat="42.83739044" lon="13.52045682">
        <ele>220.00000</ele>
        <time>2024-02-02T13:58:01Z</time>
      </trkpt>
      <trkpt lat="42.83749261" lon="13.52051792">
        <ele>220.00000</ele>
        <time>2024-02-02T13:58:02Z</time>
      </trkpt>
      <trkpt lat="42.83759982" lon="13.52055581">
        <ele>219.00000</ele>
        <time>2024-02-02T13:58:03Z</time>
      </trkpt>
      <trkpt lat="42.83770191" lon="13.52059897">
        <ele>218.00000</ele>
        <time>2024-02-02T13:58:04Z</time>
      </trkpt>
      <trkpt lat="42.83780233" lon="13.52063485">
        <ele>216.00000</ele>
        <time>2024-02-02T13:58:05Z</time>
      </trkpt>
      <trkpt lat="42.83790794" lon="13.52068556">
        <ele>214.00000</ele>
        <time>2024-02-02T13:58:06Z</time>
      </trkpt>
      <trkpt lat="42.83800014" lon="13.52076552">
        <ele>212.00000</ele>
        <time>2024-02-02T13:58:07Z</time>
      </trkpt>
      <trkpt lat="42.83806669" lon="13.52088513">
        <ele>210.00000</ele>
        <time>2024-02-02T13:58:08Z</time>
      </trkpt>
      <trkpt lat="42.83810466" lon="13.52103986">
        <ele>209.00000</ele>
        <time>2024-02-02T13:58:09Z</time>
      </trkpt>
      <trkpt lat="42.83813844" lon="13.52120599">
        <ele>209.00000</ele>
        <time>2024-02-02T13:58:10Z</time>
      </trkpt>
      <trkpt lat="42.83817054" lon="13.52137153">
        <ele>208.00000</ele>
        <time>2024-02-02T13:58:11Z</time>
      </trkpt>
      <trkpt lat="42.83819426" lon="13.52150028">
        <ele>208.00000</ele>
        <time>2024-02-02T13:58:12Z</time>
      </trkpt>
      <trkpt lat="42.83824380" lon="13.52167446">
        <ele>206.00000</ele>
        <time>2024-02-02T13:58:13Z</time>
      </trkpt>
      <trkpt lat="42.83830423" lon="13.52180572">
        <ele>206.00000</ele>
        <time>2024-02-02T13:58:14Z</time>
      </trkpt>
      <trkpt lat="42.83838042" lon="13.52192776">
        <ele>205.00000</ele>
        <time>2024-02-02T13:58:15Z</time>
      </trkpt>
      <trkpt lat="42.83846626" lon="13.52204645">
        <ele>206.00000</ele>
        <time>2024-02-02T13:58:16Z</time>
      </trkpt>
      <trkpt lat="42.83854991" lon="13.52216186">
        <ele>206.00000</ele>
        <time>2024-02-02T13:58:17Z</time>
      </trkpt>
      <trkpt lat="42.83863339" lon="13.52227913">
        <ele>206.00000</ele>
        <time>2024-02-02T13:58:18Z</time>
      </trkpt>
      <trkpt lat="42.83871277" lon="13.52239849">
        <ele>206.00000</ele>
        <time>2024-02-02T13:58:19Z</time>
      </trkpt>
      <trkpt lat="42.83879198" lon="13.52251717">
        <ele>206.00000</ele>
        <time>2024-02-02T13:58:20Z</time>
      </trkpt>
      <trkpt lat="42.83887596" lon="13.52263033">
        <ele>207.00000</ele>
        <time>2024-02-02T13:58:21Z</time>
      </trkpt>
      <trkpt lat="42.83896045" lon="13.52273971">
        <ele>207.00000</ele>
        <time>2024-02-02T13:58:22Z</time>
      </trkpt>
      <trkpt lat="42.83904930" lon="13.52284708">
        <ele>207.00000</ele>
        <time>2024-02-02T13:58:23Z</time>
      </trkpt>
      <trkpt lat="42.83913941" lon="13.52294289">
        <ele>206.00000</ele>
        <time>2024-02-02T13:58:24Z</time>
      </trkpt>
      <trkpt lat="42.83924368" lon="13.52302168">
        <ele>206.00000</ele>
        <time>2024-02-02T13:58:25Z</time>
      </trkpt>
      <trkpt lat="42.83935105" lon="13.52306694">
        <ele>205.00000</ele>
        <time>2024-02-02T13:58:26Z</time>
      </trkpt>
      <trkpt lat="42.83945976" lon="13.52307792">
        <ele>204.00000</ele>
        <time>2024-02-02T13:58:27Z</time>
      </trkpt>
      <trkpt lat="42.83957325" lon="13.52307884">
        <ele>202.00000</ele>
        <time>2024-02-02T13:58:28Z</time>
      </trkpt>
      <trkpt lat="42.83968565" lon="13.52307851">
        <ele>201.00000</ele>
        <time>2024-02-02T13:58:29Z</time>
      </trkpt>
      <trkpt lat="42.83979839" lon="13.52307725">
        <ele>200.00000</ele>
        <time>2024-02-02T13:58:30Z</time>
      </trkpt>
      <trkpt lat="42.83991448" lon="13.52308086">
        <ele>198.00000</ele>
        <time>2024-02-02T13:58:31Z</time>
      </trkpt>
      <trkpt lat="42.84003032" lon="13.52308320">
        <ele>197.00000</ele>
        <time>2024-02-02T13:58:32Z</time>
      </trkpt>
      <trkpt lat="42.84014314" lon="13.52308413">
        <ele>197.00000</ele>
        <time>2024-02-02T13:58:33Z</time>
      </trkpt>
      <trkpt lat="42.84025378" lon="13.52308513">
        <ele>198.00000</ele>
        <time>2024-02-02T13:58:34Z</time>
      </trkpt>
      <trkpt lat="42.84036090" lon="13.52308563">
        <ele>199.00000</ele>
        <time>2024-02-02T13:58:35Z</time>
      </trkpt>
      <trkpt lat="42.84046635" lon="13.52308765">
        <ele>200.00000</ele>
        <time>2024-02-02T13:58:36Z</time>
      </trkpt>
      <trkpt lat="42.84056953" lon="13.52308924">
        <ele>201.00000</ele>
        <time>2024-02-02T13:58:37Z</time>
      </trkpt>
      <trkpt lat="42.84067321" lon="13.52309259">
        <ele>201.00000</ele>
        <time>2024-02-02T13:58:38Z</time>
      </trkpt>
      <trkpt lat="42.84077371" lon="13.52309980">
        <ele>201.00000</ele>
        <time>2024-02-02T13:58:39Z</time>
      </trkpt>
      <trkpt lat="42.84087128" lon="13.52310810">
        <ele>201.00000</ele>
        <time>2024-02-02T13:58:40Z</time>
      </trkpt>
      <trkpt lat="42.84096909" lon="13.52312411">
        <ele>200.00000</ele>
        <time>2024-02-02T13:58:41Z</time>
      </trkpt>
      <trkpt lat="42.84106398" lon="13.52314758">
        <ele>200.00000</ele>
        <time>2024-02-02T13:58:42Z</time>
      </trkpt>
      <trkpt lat="42.84115668" lon="13.52318102">
        <ele>200.00000</ele>
        <time>2024-02-02T13:58:43Z</time>
      </trkpt>
      <trkpt lat="42.84124796" lon="13.52322963">
        <ele>200.00000</ele>
        <time>2024-02-02T13:58:44Z</time>
      </trkpt>
      <trkpt lat="42.84133454" lon="13.52328982">
        <ele>199.00000</ele>
        <time>2024-02-02T13:58:45Z</time>
      </trkpt>
      <trkpt lat="42.84141082" lon="13.52336668">
        <ele>198.00000</ele>
        <time>2024-02-02T13:58:46Z</time>
      </trkpt>
      <trkpt lat="42.84148106" lon="13.52345377">
        <ele>197.00000</ele>
        <time>2024-02-02T13:58:47Z</time>
      </trkpt>
      <trkpt lat="42.84154040" lon="13.52355100">
        <ele>196.00000</ele>
        <time>2024-02-02T13:58:48Z</time>
      </trkpt>
      <trkpt lat="42.84159807" lon="13.52365803">
        <ele>195.00000</ele>
        <time>2024-02-02T13:58:49Z</time>
      </trkpt>
      <trkpt lat="42.84164275" lon="13.52377530">
        <ele>195.00000</ele>
        <time>2024-02-02T13:58:50Z</time>
      </trkpt>
      <trkpt lat="42.84168289" lon="13.52389725">
        <ele>195.00000</ele>
        <time>2024-02-02T13:58:51Z</time>
      </trkpt>
      <trkpt lat="42.84172363" lon="13.52402416">
        <ele>197.00000</ele>
        <time>2024-02-02T13:58:52Z</time>
      </trkpt>
      <trkpt lat="42.84177484" lon="13.52414930">
        <ele>198.00000</ele>
        <time>2024-02-02T13:58:53Z</time>
      </trkpt>
      <trkpt lat="42.84183033" lon="13.52426924">
        <ele>198.00000</ele>
        <time>2024-02-02T13:58:54Z</time>
      </trkpt>
      <trkpt lat="42.84189127" lon="13.52437888">
        <ele>199.00000</ele>
        <time>2024-02-02T13:58:55Z</time>
      </trkpt>
      <trkpt lat="42.84196461" lon="13.52447678">
        <ele>200.00000</ele>
        <time>2024-02-02T13:58:56Z</time>
      </trkpt>
      <trkpt lat="42.84204709" lon="13.52456060">
        <ele>200.00000</ele>
        <time>2024-02-02T13:58:57Z</time>
      </trkpt>
      <trkpt lat="42.84213895" lon="13.52462883">
        <ele>199.00000</ele>
        <time>2024-02-02T13:58:58Z</time>
      </trkpt>
      <trkpt lat="42.84223711" lon="13.52467996">
        <ele>197.00000</ele>
        <time>2024-02-02T13:58:59Z</time>
      </trkpt>
      <trkpt lat="42.84233953" lon="13.52472865">
        <ele>195.00000</ele>
        <time>2024-02-02T13:59:00Z</time>
      </trkpt>
      <trkpt lat="42.84242067" lon="13.52476503">
        <ele>193.00000</ele>
        <time>2024-02-02T13:59:01Z</time>
      </trkpt>
      <trkpt lat="42.84254372" lon="13.52481977">
        <ele>192.00000</ele>
        <time>2024-02-02T13:59:02Z</time>
      </trkpt>
      <trkpt lat="42.84264489" lon="13.52487467">
        <ele>192.00000</ele>
        <time>2024-02-02T13:59:03Z</time>
      </trkpt>
      <trkpt lat="42.84274279" lon="13.52494021">
        <ele>193.00000</ele>
        <time>2024-02-02T13:59:04Z</time>
      </trkpt>
      <trkpt lat="42.84281613" lon="13.52499889">
        <ele>194.00000</ele>
        <time>2024-02-02T13:59:05Z</time>
      </trkpt>
      <trkpt lat="42.84292057" lon="13.52509494">
        <ele>197.00000</ele>
        <time>2024-02-02T13:59:06Z</time>
      </trkpt>
      <trkpt lat="42.84301059" lon="13.52518086">
        <ele>198.00000</ele>
        <time>2024-02-02T13:59:07Z</time>
      </trkpt>
      <trkpt lat="42.84310061" lon="13.52526686">
        <ele>197.00000</ele>
        <time>2024-02-02T13:59:08Z</time>
      </trkpt>
      <trkpt lat="42.84318728" lon="13.52535537">
        <ele>195.00000</ele>
        <time>2024-02-02T13:59:09Z</time>
      </trkpt>
      <trkpt lat="42.84325425" lon="13.52543123">
        <ele>194.00000</ele>
        <time>2024-02-02T13:59:10Z</time>
      </trkpt>
      <trkpt lat="42.84333958" lon="13.52552175">
        <ele>191.00000</ele>
        <time>2024-02-02T13:59:11Z</time>
      </trkpt>
      <trkpt lat="42.84344293" lon="13.52562602">
        <ele>190.00000</ele>
        <time>2024-02-02T13:59:12Z</time>
      </trkpt>
      <trkpt lat="42.84353060" lon="13.52571194">
        <ele>189.00000</ele>
        <time>2024-02-02T13:59:13Z</time>
      </trkpt>
      <trkpt lat="42.84362062" lon="13.52579860">
        <ele>188.00000</ele>
        <time>2024-02-02T13:59:14Z</time>
      </trkpt>
      <trkpt lat="42.84371123" lon="13.52587832">
        <ele>189.00000</ele>
        <time>2024-02-02T13:59:15Z</time>
      </trkpt>
      <trkpt lat="42.84379731" lon="13.52595694">
        <ele>191.00000</ele>
        <time>2024-02-02T13:59:16Z</time>
      </trkpt>
      <trkpt lat="42.84388365" lon="13.52603464">
        <ele>191.00000</ele>
        <time>2024-02-02T13:59:17Z</time>
      </trkpt>
      <trkpt lat="42.84397199" lon="13.52610379">
        <ele>192.00000</ele>
        <time>2024-02-02T13:59:18Z</time>
      </trkpt>
      <trkpt lat="42.84406151" lon="13.52617059">
        <ele>193.00000</ele>
        <time>2024-02-02T13:59:19Z</time>
      </trkpt>
      <trkpt lat="42.84415011" lon="13.52623597">
        <ele>193.00000</ele>
        <time>2024-02-02T13:59:20Z</time>
      </trkpt>
      <trkpt lat="42.84421783" lon="13.52629104">
        <ele>193.00000</ele>
        <time>2024-02-02T13:59:21Z</time>
      </trkpt>
      <trkpt lat="42.84432101" lon="13.52636975">
        <ele>192.00000</ele>
        <time>2024-02-02T13:59:22Z</time>
      </trkpt>
      <trkpt lat="42.84440626" lon="13.52643211">
        <ele>191.00000</ele>
        <time>2024-02-02T13:59:23Z</time>
      </trkpt>
      <trkpt lat="42.84449050" lon="13.52649539">
        <ele>190.00000</ele>
        <time>2024-02-02T13:59:24Z</time>
      </trkpt>
      <trkpt lat="42.84457943" lon="13.52655951">
        <ele>190.00000</ele>
        <time>2024-02-02T13:59:25Z</time>
      </trkpt>
      <trkpt lat="42.84466912" lon="13.52662640">
        <ele>190.00000</ele>
        <time>2024-02-02T13:59:26Z</time>
      </trkpt>
      <trkpt lat="42.84475763" lon="13.52669295">
        <ele>190.00000</ele>
        <time>2024-02-02T13:59:27Z</time>
      </trkpt>
      <trkpt lat="42.84484011" lon="13.52676202">
        <ele>190.00000</ele>
        <time>2024-02-02T13:59:28Z</time>
      </trkpt>
      <trkpt lat="42.84492376" lon="13.52682941">
        <ele>189.00000</ele>
        <time>2024-02-02T13:59:29Z</time>
      </trkpt>
      <trkpt lat="42.84501001" lon="13.52689454">
        <ele>189.00000</ele>
        <time>2024-02-02T13:59:30Z</time>
      </trkpt>
      <trkpt lat="42.84508310" lon="13.52694659">
        <ele>189.00000</ele>
        <time>2024-02-02T13:59:31Z</time>
      </trkpt>
      <trkpt lat="42.84519181" lon="13.52702680">
        <ele>188.00000</ele>
        <time>2024-02-02T13:59:32Z</time>
      </trkpt>
      <trkpt lat="42.84527932" lon="13.52709788">
        <ele>188.00000</ele>
        <time>2024-02-02T13:59:33Z</time>
      </trkpt>
      <trkpt lat="42.84536406" lon="13.52717701">
        <ele>188.00000</ele>
        <time>2024-02-02T13:59:34Z</time>
      </trkpt>
      <trkpt lat="42.84543103" lon="13.52725161">
        <ele>188.00000</ele>
        <time>2024-02-02T13:59:35Z</time>
      </trkpt>
      <trkpt lat="42.84552332" lon="13.52738027">
        <ele>188.00000</ele>
        <time>2024-02-02T13:59:36Z</time>
      </trkpt>
      <trkpt lat="42.84559439" lon="13.52750164">
        <ele>187.00000</ele>
        <time>2024-02-02T13:59:37Z</time>
      </trkpt>
      <trkpt lat="42.84565902" lon="13.52762904">
        <ele>186.00000</ele>
        <time>2024-02-02T13:59:38Z</time>
      </trkpt>
      <trkpt lat="42.84571987" lon="13.52775980">
        <ele>185.00000</ele>
        <time>2024-02-02T13:59:39Z</time>
      </trkpt>
      <trkpt lat="42.84578709" lon="13.52788176">
        <ele>184.00000</ele>
        <time>2024-02-02T13:59:40Z</time>
      </trkpt>
      <trkpt lat="42.84586345" lon="13.52799399">
        <ele>183.00000</ele>
        <time>2024-02-02T13:59:41Z</time>
      </trkpt>
      <trkpt lat="42.84594199" lon="13.52809709">
        <ele>185.00000</ele>
        <time>2024-02-02T13:59:42Z</time>
      </trkpt>
      <trkpt lat="42.84602581" lon="13.52818795">
        <ele>185.00000</ele>
        <time>2024-02-02T13:59:43Z</time>
      </trkpt>
      <trkpt lat="42.84611726" lon="13.52826640">
        <ele>185.00000</ele>
        <time>2024-02-02T13:59:44Z</time>
      </trkpt>
      <trkpt lat="42.84621373" lon="13.52833916">
        <ele>185.00000</ele>
        <time>2024-02-02T13:59:45Z</time>
      </trkpt>
      <trkpt lat="42.84631004" lon="13.52841728">
        <ele>185.00000</ele>
        <time>2024-02-02T13:59:46Z</time>
      </trkpt>
      <trkpt lat="42.84640727" lon="13.52849381">
        <ele>184.00000</ele>
        <time>2024-02-02T13:59:47Z</time>
      </trkpt>
      <trkpt lat="42.84650006" lon="13.52856949">
        <ele>184.00000</ele>
        <time>2024-02-02T13:59:48Z</time>
      </trkpt>
      <trkpt lat="42.84659025" lon="13.52864518">
        <ele>184.00000</ele>
        <time>2024-02-02T13:59:49Z</time>
      </trkpt>
      <trkpt lat="42.84668069" lon="13.52871819">
        <ele>184.00000</ele>
        <time>2024-02-02T13:59:50Z</time>
      </trkpt>
      <trkpt lat="42.84677088" lon="13.52879136">
        <ele>184.00000</ele>
        <time>2024-02-02T13:59:51Z</time>
      </trkpt>
      <trkpt lat="42.84685906" lon="13.52886755">
        <ele>184.00000</ele>
        <time>2024-02-02T13:59:52Z</time>
      </trkpt>
      <trkpt lat="42.84694598" lon="13.52894693">
        <ele>185.00000</ele>
        <time>2024-02-02T13:59:53Z</time>
      </trkpt>
      <trkpt lat="42.84703457" lon="13.52902011">
        <ele>185.00000</ele>
        <time>2024-02-02T13:59:54Z</time>
      </trkpt>
      <trkpt lat="42.84710297" lon="13.52907811">
        <ele>185.00000</ele>
        <time>2024-02-02T13:59:55Z</time>
      </trkpt>
      <trkpt lat="42.84720657" lon="13.52916536">
        <ele>186.00000</ele>
        <time>2024-02-02T13:59:56Z</time>
      </trkpt>
      <trkpt lat="42.84729248" lon="13.52923837">
        <ele>186.00000</ele>
        <time>2024-02-02T13:59:57Z</time>
      </trkpt>
      <trkpt lat="42.84737982" lon="13.52930526">
        <ele>185.00000</ele>
        <time>2024-02-02T13:59:58Z</time>
      </trkpt>
      <trkpt lat="42.84744839" lon="13.52935798">
        <ele>185.00000</ele>
        <time>2024-02-02T13:59:59Z</time>
      </trkpt>
      <trkpt lat="42.84753304" lon="13.52942604">
        <ele>186.00000</ele>
        <time>2024-02-02T14:00:00Z</time>
      </trkpt>
      <trkpt lat="42.84763413" lon="13.52950575">
        <ele>187.00000</ele>
        <time>2024-02-02T14:00:01Z</time>
      </trkpt>
      <trkpt lat="42.84771728" lon="13.52957063">
        <ele>189.00000</ele>
        <time>2024-02-02T14:00:02Z</time>
      </trkpt>
      <trkpt lat="42.84779925" lon="13.52963215">
        <ele>189.00000</ele>
        <time>2024-02-02T14:00:03Z</time>
      </trkpt>
      <trkpt lat="42.84787980" lon="13.52968580">
        <ele>189.00000</ele>
        <time>2024-02-02T14:00:04Z</time>
      </trkpt>
      <trkpt lat="42.84795616" lon="13.52973341">
        <ele>188.00000</ele>
        <time>2024-02-02T14:00:05Z</time>
      </trkpt>
      <trkpt lat="42.84803076" lon="13.52978177">
        <ele>188.00000</ele>
        <time>2024-02-02T14:00:06Z</time>
      </trkpt>
      <trkpt lat="42.84810645" lon="13.52983080">
        <ele>188.00000</ele>
        <time>2024-02-02T14:00:07Z</time>
      </trkpt>
      <trkpt lat="42.84818046" lon="13.52987715">
        <ele>189.00000</ele>
        <time>2024-02-02T14:00:08Z</time>
      </trkpt>
      <trkpt lat="42.84825213" lon="13.52991621">
        <ele>190.00000</ele>
        <time>2024-02-02T14:00:09Z</time>
      </trkpt>
      <trkpt lat="42.84832254" lon="13.52995377">
        <ele>190.00000</ele>
        <time>2024-02-02T14:00:10Z</time>
      </trkpt>
      <trkpt lat="42.84839512" lon="13.52999115">
        <ele>191.00000</ele>
        <time>2024-02-02T14:00:11Z</time>
      </trkpt>
      <trkpt lat="42.84846813" lon="13.53001940">
        <ele>192.00000</ele>
        <time>2024-02-02T14:00:12Z</time>
      </trkpt>
      <trkpt lat="42.84852596" lon="13.53004437">
        <ele>192.00000</ele>
        <time>2024-02-02T14:00:13Z</time>
      </trkpt>
      <trkpt lat="42.84859838" lon="13.53007379">
        <ele>193.00000</ele>
        <time>2024-02-02T14:00:14Z</time>
      </trkpt>
      <trkpt lat="42.84867315" lon="13.53009668">
        <ele>193.00000</ele>
        <time>2024-02-02T14:00:15Z</time>
      </trkpt>
      <trkpt lat="42.84874767" lon="13.53011721">
        <ele>193.00000</ele>
        <time>2024-02-02T14:00:16Z</time>
      </trkpt>
      <trkpt lat="42.84883869" lon="13.53014839">
        <ele>194.00000</ele>
        <time>2024-02-02T14:00:17Z</time>
      </trkpt>
      <trkpt lat="42.84891019" lon="13.53018083">
        <ele>194.00000</ele>
        <time>2024-02-02T14:00:18Z</time>
      </trkpt>
      <trkpt lat="42.84897951" lon="13.53021218">
        <ele>193.00000</ele>
        <time>2024-02-02T14:00:19Z</time>
      </trkpt>
      <trkpt lat="42.84905008" lon="13.53024780">
        <ele>193.00000</ele>
        <time>2024-02-02T14:00:20Z</time>
      </trkpt>
      <trkpt lat="42.84912158" lon="13.53029273">
        <ele>193.00000</ele>
        <time>2024-02-02T14:00:21Z</time>
      </trkpt>
      <trkpt lat="42.84918705" lon="13.53034956">
        <ele>192.00000</ele>
        <time>2024-02-02T14:00:22Z</time>
      </trkpt>
      <trkpt lat="42.84924949" lon="13.53041200">
        <ele>191.00000</ele>
        <time>2024-02-02T14:00:23Z</time>
      </trkpt>
      <trkpt lat="42.84931043" lon="13.53048224">
        <ele>191.00000</ele>
        <time>2024-02-02T14:00:24Z</time>
      </trkpt>
      <trkpt lat="42.84936793" lon="13.53055743">
        <ele>191.00000</ele>
        <time>2024-02-02T14:00:25Z</time>
      </trkpt>
      <trkpt lat="42.84942425" lon="13.53064041">
        <ele>192.00000</ele>
        <time>2024-02-02T14:00:26Z</time>
      </trkpt>
      <trkpt lat="42.84948066" lon="13.53073362">
        <ele>193.00000</ele>
        <time>2024-02-02T14:00:27Z</time>
      </trkpt>
      <trkpt lat="42.84952919" lon="13.53082900">
        <ele>194.00000</ele>
        <time>2024-02-02T14:00:28Z</time>
      </trkpt>
      <trkpt lat="42.84956524" lon="13.53090846">
        <ele>195.00000</ele>
        <time>2024-02-02T14:00:29Z</time>
      </trkpt>
      <trkpt lat="42.84960597" lon="13.53101273">
        <ele>196.00000</ele>
        <time>2024-02-02T14:00:30Z</time>
      </trkpt>
      <trkpt lat="42.84964738" lon="13.53114182">
        <ele>197.00000</ele>
        <time>2024-02-02T14:00:31Z</time>
      </trkpt>
      <trkpt lat="42.84967571" lon="13.53125045">
        <ele>197.00000</ele>
        <time>2024-02-02T14:00:32Z</time>
      </trkpt>
      <trkpt lat="42.84970756" lon="13.53136117">
        <ele>197.00000</ele>
        <time>2024-02-02T14:00:33Z</time>
      </trkpt>
      <trkpt lat="42.84973271" lon="13.53147324">
        <ele>197.00000</ele>
        <time>2024-02-02T14:00:34Z</time>
      </trkpt>
      <trkpt lat="42.84975710" lon="13.53158455">
        <ele>197.00000</ele>
        <time>2024-02-02T14:00:35Z</time>
      </trkpt>
      <trkpt lat="42.84978317" lon="13.53169905">
        <ele>196.00000</ele>
        <time>2024-02-02T14:00:36Z</time>
      </trkpt>
      <trkpt lat="42.84980622" lon="13.53181673">
        <ele>195.00000</ele>
        <time>2024-02-02T14:00:37Z</time>
      </trkpt>
      <trkpt lat="42.84982197" lon="13.53193558">
        <ele>194.00000</ele>
        <time>2024-02-02T14:00:38Z</time>
      </trkpt>
      <trkpt lat="42.84983480" lon="13.53203365">
        <ele>194.00000</ele>
        <time>2024-02-02T14:00:39Z</time>
      </trkpt>
      <trkpt lat="42.84985559" lon="13.53217933">
        <ele>194.00000</ele>
        <time>2024-02-02T14:00:40Z</time>
      </trkpt>
      <trkpt lat="42.84986740" lon="13.53230539">
        <ele>195.00000</ele>
        <time>2024-02-02T14:00:41Z</time>
      </trkpt>
      <trkpt lat="42.84987134" lon="13.53243204">
        <ele>197.00000</ele>
        <time>2024-02-02T14:00:42Z</time>
      </trkpt>
      <trkpt lat="42.84987553" lon="13.53255534">
        <ele>198.00000</ele>
        <time>2024-02-02T14:00:43Z</time>
      </trkpt>
      <trkpt lat="42.84988316" lon="13.53268149">
        <ele>198.00000</ele>
        <time>2024-02-02T14:00:44Z</time>
      </trkpt>
      <trkpt lat="42.84988543" lon="13.53281032">
        <ele>198.00000</ele>
        <time>2024-02-02T14:00:45Z</time>
      </trkpt>
      <trkpt lat="42.84989280" lon="13.53294527">
        <ele>197.00000</ele>
        <time>2024-02-02T14:00:46Z</time>
      </trkpt>
      <trkpt lat="42.84989699" lon="13.53307963">
        <ele>195.00000</ele>
        <time>2024-02-02T14:00:47Z</time>
      </trkpt>
      <trkpt lat="42.84989674" lon="13.53321382">
        <ele>194.00000</ele>
        <time>2024-02-02T14:00:48Z</time>
      </trkpt>
      <trkpt lat="42.84989641" lon="13.53334827">
        <ele>192.00000</ele>
        <time>2024-02-02T14:00:49Z</time>
      </trkpt>
      <trkpt lat="42.84989582" lon="13.53348456">
        <ele>190.00000</ele>
        <time>2024-02-02T14:00:50Z</time>
      </trkpt>
      <trkpt lat="42.84989708" lon="13.53362219">
        <ele>189.00000</ele>
        <time>2024-02-02T14:00:51Z</time>
      </trkpt>
      <trkpt lat="42.84989867" lon="13.53376200">
        <ele>187.00000</ele>
        <time>2024-02-02T14:00:52Z</time>
      </trkpt>
      <trkpt lat="42.84990068" lon="13.53390399">
        <ele>186.00000</ele>
        <time>2024-02-02T14:00:53Z</time>
      </trkpt>
      <trkpt lat="42.84990345" lon="13.53404581">
        <ele>185.00000</ele>
        <time>2024-02-02T14:00:54Z</time>
      </trkpt>
      <trkpt lat="42.84990177" lon="13.53418604">
        <ele>183.00000</ele>
        <time>2024-02-02T14:00:55Z</time>
      </trkpt>
      <trkpt lat="42.84989573" lon="13.53432602">
        <ele>183.00000</ele>
        <time>2024-02-02T14:00:56Z</time>
      </trkpt>
      <trkpt lat="42.84989213" lon="13.53446700">
        <ele>183.00000</ele>
        <time>2024-02-02T14:00:57Z</time>
      </trkpt>
      <trkpt lat="42.84988853" lon="13.53460539">
        <ele>183.00000</ele>
        <time>2024-02-02T14:00:58Z</time>
      </trkpt>
      <trkpt lat="42.84987998" lon="13.53474603">
        <ele>183.00000</ele>
        <time>2024-02-02T14:00:59Z</time>
      </trkpt>
      <trkpt lat="42.84987671" lon="13.53488467">
        <ele>183.00000</ele>
        <time>2024-02-02T14:01:00Z</time>
      </trkpt>
      <trkpt lat="42.84987000" lon="13.53502306">
        <ele>183.00000</ele>
        <time>2024-02-02T14:01:01Z</time>
      </trkpt>
      <trkpt lat="42.84985877" lon="13.53515935">
        <ele>185.00000</ele>
        <time>2024-02-02T14:01:02Z</time>
      </trkpt>
      <trkpt lat="42.84984477" lon="13.53529178">
        <ele>186.00000</ele>
        <time>2024-02-02T14:01:03Z</time>
      </trkpt>
      <trkpt lat="42.84982927" lon="13.53539404">
        <ele>187.00000</ele>
        <time>2024-02-02T14:01:04Z</time>
      </trkpt>
      <trkpt lat="42.84980982" lon="13.53554910">
        <ele>189.00000</ele>
        <time>2024-02-02T14:01:05Z</time>
      </trkpt>
      <trkpt lat="42.84979398" lon="13.53567760">
        <ele>191.00000</ele>
        <time>2024-02-02T14:01:06Z</time>
      </trkpt>
      <trkpt lat="42.84977696" lon="13.53580676">
        <ele>192.00000</ele>
        <time>2024-02-02T14:01:07Z</time>
      </trkpt>
      <trkpt lat="42.84975634" lon="13.53593501">
        <ele>191.00000</ele>
        <time>2024-02-02T14:01:08Z</time>
      </trkpt>
      <trkpt lat="42.84973648" lon="13.53606342">
        <ele>189.00000</ele>
        <time>2024-02-02T14:01:09Z</time>
      </trkpt>
      <trkpt lat="42.84971762" lon="13.53619585">
        <ele>189.00000</ele>
        <time>2024-02-02T14:01:10Z</time>
      </trkpt>
      <trkpt lat="42.84969968" lon="13.53632720">
        <ele>191.00000</ele>
        <time>2024-02-02T14:01:11Z</time>
      </trkpt>
      <trkpt lat="42.84968325" lon="13.53645988">
        <ele>191.00000</ele>
        <time>2024-02-02T14:01:12Z</time>
      </trkpt>
      <trkpt lat="42.84966993" lon="13.53656818">
        <ele>189.00000</ele>
        <time>2024-02-02T14:01:13Z</time>
      </trkpt>
      <trkpt lat="42.84964730" lon="13.53673188">
        <ele>188.00000</ele>
        <time>2024-02-02T14:01:14Z</time>
      </trkpt>
      <trkpt lat="42.84962374" lon="13.53686976">
        <ele>188.00000</ele>
        <time>2024-02-02T14:01:15Z</time>
      </trkpt>
      <trkpt lat="42.84959843" lon="13.53700471">
        <ele>188.00000</ele>
        <time>2024-02-02T14:01:16Z</time>
      </trkpt>
      <trkpt lat="42.84956976" lon="13.53713748">
        <ele>189.00000</ele>
        <time>2024-02-02T14:01:17Z</time>
      </trkpt>
      <trkpt lat="42.84954747" lon="13.53726999">
        <ele>190.00000</ele>
        <time>2024-02-02T14:01:18Z</time>
      </trkpt>
      <trkpt lat="42.84952391" lon="13.53740050">
        <ele>189.00000</ele>
        <time>2024-02-02T14:01:19Z</time>
      </trkpt>
      <trkpt lat="42.84949877" lon="13.53753159">
        <ele>189.00000</ele>
        <time>2024-02-02T14:01:20Z</time>
      </trkpt>
      <trkpt lat="42.84947999" lon="13.53766604">
        <ele>189.00000</ele>
        <time>2024-02-02T14:01:21Z</time>
      </trkpt>
      <trkpt lat="42.84946398" lon="13.53780342">
        <ele>189.00000</ele>
        <time>2024-02-02T14:01:22Z</time>
      </trkpt>
      <trkpt lat="42.84945049" lon="13.53791347">
        <ele>187.00000</ele>
        <time>2024-02-02T14:01:23Z</time>
      </trkpt>
      <trkpt lat="42.84942953" lon="13.53805035">
        <ele>186.00000</ele>
        <time>2024-02-02T14:01:24Z</time>
      </trkpt>
      <trkpt lat="42.84940430" lon="13.53821530">
        <ele>184.00000</ele>
        <time>2024-02-02T14:01:25Z</time>
      </trkpt>
      <trkpt lat="42.84938394" lon="13.53834883">
        <ele>183.00000</ele>
        <time>2024-02-02T14:01:26Z</time>
      </trkpt>
      <trkpt lat="42.84936499" lon="13.53848160">
        <ele>183.00000</ele>
        <time>2024-02-02T14:01:27Z</time>
      </trkpt>
      <trkpt lat="42.84934429" lon="13.53861495">
        <ele>183.00000</ele>
        <time>2024-02-02T14:01:28Z</time>
      </trkpt>
      <trkpt lat="42.84932769" lon="13.53874881">
        <ele>183.00000</ele>
        <time>2024-02-02T14:01:29Z</time>
      </trkpt>
      <trkpt lat="42.84931160" lon="13.53888250">
        <ele>183.00000</ele>
        <time>2024-02-02T14:01:30Z</time>
      </trkpt>
      <trkpt lat="42.84929953" lon="13.53901846">
        <ele>184.00000</ele>
        <time>2024-02-02T14:01:31Z</time>
      </trkpt>
      <trkpt lat="42.84929039" lon="13.53914980">
        <ele>185.00000</ele>
        <time>2024-02-02T14:01:32Z</time>
      </trkpt>
      <trkpt lat="42.84928319" lon="13.53928048">
        <ele>187.00000</ele>
        <time>2024-02-02T14:01:33Z</time>
      </trkpt>
      <trkpt lat="42.84928067" lon="13.53938793">
        <ele>187.00000</ele>
        <time>2024-02-02T14:01:34Z</time>
      </trkpt>
      <trkpt lat="42.84927975" lon="13.53954912">
        <ele>188.00000</ele>
        <time>2024-02-02T14:01:35Z</time>
      </trkpt>
      <trkpt lat="42.84928377" lon="13.53968515">
        <ele>188.00000</ele>
        <time>2024-02-02T14:01:36Z</time>
      </trkpt>
      <trkpt lat="42.84929391" lon="13.53982455">
        <ele>188.00000</ele>
        <time>2024-02-02T14:01:37Z</time>
      </trkpt>
      <trkpt lat="42.84930129" lon="13.53993418">
        <ele>188.00000</ele>
        <time>2024-02-02T14:01:38Z</time>
      </trkpt>
      <trkpt lat="42.84931059" lon="13.54007139">
        <ele>188.00000</ele>
        <time>2024-02-02T14:01:39Z</time>
      </trkpt>
      <trkpt lat="42.84933096" lon="13.54023945">
        <ele>187.00000</ele>
        <time>2024-02-02T14:01:40Z</time>
      </trkpt>
      <trkpt lat="42.84934580" lon="13.54038077">
        <ele>186.00000</ele>
        <time>2024-02-02T14:01:41Z</time>
      </trkpt>
      <trkpt lat="42.84935619" lon="13.54052133">
        <ele>185.00000</ele>
        <time>2024-02-02T14:01:42Z</time>
      </trkpt>
      <trkpt lat="42.84936147" lon="13.54066190">
        <ele>185.00000</ele>
        <time>2024-02-02T14:01:43Z</time>
      </trkpt>
      <trkpt lat="42.84935787" lon="13.54077438">
        <ele>184.00000</ele>
        <time>2024-02-02T14:01:44Z</time>
      </trkpt>
      <trkpt lat="42.84934647" lon="13.54094269">
        <ele>183.00000</ele>
        <time>2024-02-02T14:01:45Z</time>
      </trkpt>
      <trkpt lat="42.84932937" lon="13.54108024">
        <ele>182.00000</ele>
        <time>2024-02-02T14:01:46Z</time>
      </trkpt>
      <trkpt lat="42.84930548" lon="13.54121385">
        <ele>182.00000</ele>
        <time>2024-02-02T14:01:47Z</time>
      </trkpt>
      <trkpt lat="42.84927950" lon="13.54131761">
        <ele>182.00000</ele>
        <time>2024-02-02T14:01:48Z</time>
      </trkpt>
      <trkpt lat="42.84923532" lon="13.54147260">
        <ele>182.00000</ele>
        <time>2024-02-02T14:01:49Z</time>
      </trkpt>
      <trkpt lat="42.84919098" lon="13.54159774">
        <ele>182.00000</ele>
        <time>2024-02-02T14:01:50Z</time>
      </trkpt>
      <trkpt lat="42.84914078" lon="13.54172196">
        <ele>182.00000</ele>
        <time>2024-02-02T14:01:51Z</time>
      </trkpt>
      <trkpt lat="42.84909124" lon="13.54184919">
        <ele>182.00000</ele>
        <time>2024-02-02T14:01:52Z</time>
      </trkpt>
      <trkpt lat="42.84903869" lon="13.54197333">
        <ele>182.00000</ele>
        <time>2024-02-02T14:01:53Z</time>
      </trkpt>
      <trkpt lat="42.84898647" lon="13.54209747">
        <ele>182.00000</ele>
        <time>2024-02-02T14:01:54Z</time>
      </trkpt>
      <trkpt lat="42.84894422" lon="13.54222848">
        <ele>181.00000</ele>
        <time>2024-02-02T14:01:55Z</time>
      </trkpt>
      <trkpt lat="42.84890885" lon="13.54236208">
        <ele>180.00000</ele>
        <time>2024-02-02T14:01:56Z</time>
      </trkpt>
      <trkpt lat="42.84887884" lon="13.54249703">
        <ele>180.00000</ele>
        <time>2024-02-02T14:01:57Z</time>
      </trkpt>
      <trkpt lat="42.84886023" lon="13.54263575">
        <ele>179.00000</ele>
        <time>2024-02-02T14:01:58Z</time>
      </trkpt>
      <trkpt lat="42.84885219" lon="13.54277598">
        <ele>178.00000</ele>
        <time>2024-02-02T14:01:59Z</time>
      </trkpt>
      <trkpt lat="42.84885512" lon="13.54291839">
        <ele>177.00000</ele>
        <time>2024-02-02T14:02:00Z</time>
      </trkpt>
      <trkpt lat="42.84886501" lon="13.54306030">
        <ele>176.00000</ele>
        <time>2024-02-02T14:02:01Z</time>
      </trkpt>
      <trkpt lat="42.84888119" lon="13.54319818">
        <ele>175.00000</ele>
        <time>2024-02-02T14:02:02Z</time>
      </trkpt>
      <trkpt lat="42.84889846" lon="13.54330823">
        <ele>175.00000</ele>
        <time>2024-02-02T14:02:03Z</time>
      </trkpt>
      <trkpt lat="42.84893265" lon="13.54347059">
        <ele>173.00000</ele>
        <time>2024-02-02T14:02:04Z</time>
      </trkpt>
      <trkpt lat="42.84896451" lon="13.54360789">
        <ele>171.00000</ele>
        <time>2024-02-02T14:02:05Z</time>
      </trkpt>
      <trkpt lat="42.84899854" lon="13.54374292">
        <ele>170.00000</ele>
        <time>2024-02-02T14:02:06Z</time>
      </trkpt>
      <trkpt lat="42.84903869" lon="13.54387938">
        <ele>169.00000</ele>
        <time>2024-02-02T14:02:07Z</time>
      </trkpt>
      <trkpt lat="42.84907674" lon="13.54401642">
        <ele>169.00000</ele>
        <time>2024-02-02T14:02:08Z</time>
      </trkpt>
      <trkpt lat="42.84911664" lon="13.54415263">
        <ele>168.00000</ele>
        <time>2024-02-02T14:02:09Z</time>
      </trkpt>
      <trkpt lat="42.84914807" lon="13.54428657">
        <ele>168.00000</ele>
        <time>2024-02-02T14:02:10Z</time>
      </trkpt>
      <trkpt lat="42.84917741" lon="13.54442034">
        <ele>168.00000</ele>
        <time>2024-02-02T14:02:11Z</time>
      </trkpt>
      <trkpt lat="42.84921202" lon="13.54455496">
        <ele>168.00000</ele>
        <time>2024-02-02T14:02:12Z</time>
      </trkpt>
      <trkpt lat="42.84924899" lon="13.54468714">
        <ele>169.00000</ele>
        <time>2024-02-02T14:02:13Z</time>
      </trkpt>
      <trkpt lat="42.84928813" lon="13.54481882">
        <ele>169.00000</ele>
        <time>2024-02-02T14:02:14Z</time>
      </trkpt>
      <trkpt lat="42.84932937" lon="13.54494916">
        <ele>170.00000</ele>
        <time>2024-02-02T14:02:15Z</time>
      </trkpt>
      <trkpt lat="42.84937631" lon="13.54507748">
        <ele>170.00000</ele>
        <time>2024-02-02T14:02:16Z</time>
      </trkpt>
      <trkpt lat="42.84942199" lon="13.54520330">
        <ele>170.00000</ele>
        <time>2024-02-02T14:02:17Z</time>
      </trkpt>
      <trkpt lat="42.84946775" lon="13.54533263">
        <ele>170.00000</ele>
        <time>2024-02-02T14:02:18Z</time>
      </trkpt>
      <trkpt lat="42.84951360" lon="13.54546322">
        <ele>170.00000</ele>
        <time>2024-02-02T14:02:19Z</time>
      </trkpt>
      <trkpt lat="42.84956088" lon="13.54559691">
        <ele>170.00000</ele>
        <time>2024-02-02T14:02:20Z</time>
      </trkpt>
      <trkpt lat="42.84960195" lon="13.54573186">
        <ele>170.00000</ele>
        <time>2024-02-02T14:02:21Z</time>
      </trkpt>
      <trkpt lat="42.84962785" lon="13.54584141">
        <ele>170.00000</ele>
        <time>2024-02-02T14:02:22Z</time>
      </trkpt>
      <trkpt lat="42.84965517" lon="13.54597837">
        <ele>170.00000</ele>
        <time>2024-02-02T14:02:23Z</time>
      </trkpt>
      <trkpt lat="42.84967864" lon="13.54613981">
        <ele>170.00000</ele>
        <time>2024-02-02T14:02:24Z</time>
      </trkpt>
      <trkpt lat="42.84969130" lon="13.54627048">
        <ele>169.00000</ele>
        <time>2024-02-02T14:02:25Z</time>
      </trkpt>
      <trkpt lat="42.84970069" lon="13.54639763">
        <ele>168.00000</ele>
        <time>2024-02-02T14:02:26Z</time>
      </trkpt>
      <trkpt lat="42.84970798" lon="13.54649922">
        <ele>167.00000</ele>
        <time>2024-02-02T14:02:27Z</time>
      </trkpt>
      <trkpt lat="42.84971863" lon="13.54662713">
        <ele>167.00000</ele>
        <time>2024-02-02T14:02:28Z</time>
      </trkpt>
      <trkpt lat="42.84972818" lon="13.54675278">
        <ele>166.00000</ele>
        <time>2024-02-02T14:02:29Z</time>
      </trkpt>
      <trkpt lat="42.84973614" lon="13.54687557">
        <ele>166.00000</ele>
        <time>2024-02-02T14:02:30Z</time>
      </trkpt>
      <trkpt lat="42.84974746" lon="13.54699837">
        <ele>166.00000</ele>
        <time>2024-02-02T14:02:31Z</time>
      </trkpt>
      <trkpt lat="42.84976230" lon="13.54712317">
        <ele>166.00000</ele>
        <time>2024-02-02T14:02:32Z</time>
      </trkpt>
      <trkpt lat="42.84977755" lon="13.54724974">
        <ele>166.00000</ele>
        <time>2024-02-02T14:02:33Z</time>
      </trkpt>
      <trkpt lat="42.84978769" lon="13.54737647">
        <ele>167.00000</ele>
        <time>2024-02-02T14:02:34Z</time>
      </trkpt>
      <trkpt lat="42.84980018" lon="13.54752433">
        <ele>168.00000</ele>
        <time>2024-02-02T14:02:35Z</time>
      </trkpt>
      <trkpt lat="42.84981451" lon="13.54764746">
        <ele>169.00000</ele>
        <time>2024-02-02T14:02:36Z</time>
      </trkpt>
      <trkpt lat="42.84982675" lon="13.54774620">
        <ele>169.00000</ele>
        <time>2024-02-02T14:02:37Z</time>
      </trkpt>
      <trkpt lat="42.84983773" lon="13.54786589">
        <ele>170.00000</ele>
        <time>2024-02-02T14:02:38Z</time>
      </trkpt>
      <trkpt lat="42.84985165" lon="13.54800771">
        <ele>170.00000</ele>
        <time>2024-02-02T14:02:39Z</time>
      </trkpt>
      <trkpt lat="42.84986598" lon="13.54812724">
        <ele>171.00000</ele>
        <time>2024-02-02T14:02:40Z</time>
      </trkpt>
      <trkpt lat="42.84988224" lon="13.54824400">
        <ele>171.00000</ele>
        <time>2024-02-02T14:02:41Z</time>
      </trkpt>
      <trkpt lat="42.84990428" lon="13.54833486">
        <ele>172.00000</ele>
        <time>2024-02-02T14:02:42Z</time>
      </trkpt>
      <trkpt lat="42.84994728" lon="13.54846369">
        <ele>172.00000</ele>
        <time>2024-02-02T14:02:43Z</time>
      </trkpt>
      <trkpt lat="42.85000160" lon="13.54856201">
        <ele>172.00000</ele>
        <time>2024-02-02T14:02:44Z</time>
      </trkpt>
      <trkpt lat="42.85006530" lon="13.54864952">
        <ele>172.00000</ele>
        <time>2024-02-02T14:02:45Z</time>
      </trkpt>
      <trkpt lat="42.85013378" lon="13.54872588">
        <ele>172.00000</ele>
        <time>2024-02-02T14:02:46Z</time>
      </trkpt>
      <trkpt lat="42.85018935" lon="13.54877717">
        <ele>171.00000</ele>
        <time>2024-02-02T14:02:47Z</time>
      </trkpt>
      <trkpt lat="42.85026622" lon="13.54883786">
        <ele>171.00000</ele>
        <time>2024-02-02T14:02:48Z</time>
      </trkpt>
      <trkpt lat="42.85034953" lon="13.54890123">
        <ele>171.00000</ele>
        <time>2024-02-02T14:02:49Z</time>
      </trkpt>
      <trkpt lat="42.85044098" lon="13.54898354">
        <ele>171.00000</ele>
        <time>2024-02-02T14:02:50Z</time>
      </trkpt>
      <trkpt lat="42.85050258" lon="13.54904104">
        <ele>172.00000</ele>
        <time>2024-02-02T14:02:51Z</time>
      </trkpt>
      <trkpt lat="42.85057459" lon="13.54911019">
        <ele>172.00000</ele>
        <time>2024-02-02T14:02:52Z</time>
      </trkpt>
      <trkpt lat="42.85064332" lon="13.54918562">
        <ele>171.00000</ele>
        <time>2024-02-02T14:02:53Z</time>
      </trkpt>
      <trkpt lat="42.85071842" lon="13.54929551">
        <ele>170.00000</ele>
        <time>2024-02-02T14:02:54Z</time>
      </trkpt>
      <trkpt lat="42.85076444" lon="13.54939710">
        <ele>170.00000</ele>
        <time>2024-02-02T14:02:55Z</time>
      </trkpt>
      <trkpt lat="42.85079847" lon="13.54950699">
        <ele>171.00000</ele>
        <time>2024-02-02T14:02:56Z</time>
      </trkpt>
      <trkpt lat="42.85081825" lon="13.54960120">
        <ele>172.00000</ele>
        <time>2024-02-02T14:02:57Z</time>
      </trkpt>
      <trkpt lat="42.85083929" lon="13.54972181">
        <ele>173.00000</ele>
        <time>2024-02-02T14:02:58Z</time>
      </trkpt>
      <trkpt lat="42.85086410" lon="13.54986397">
        <ele>175.00000</ele>
        <time>2024-02-02T14:02:59Z</time>
      </trkpt>
      <trkpt lat="42.85088513" lon="13.54998383">
        <ele>176.00000</ele>
        <time>2024-02-02T14:03:00Z</time>
      </trkpt>
      <trkpt lat="42.85090911" lon="13.55010369">
        <ele>176.00000</ele>
        <time>2024-02-02T14:03:01Z</time>
      </trkpt>
      <trkpt lat="42.85092763" lon="13.55019883">
        <ele>177.00000</ele>
        <time>2024-02-02T14:03:02Z</time>
      </trkpt>
      <trkpt lat="42.85094724" lon="13.55031525">
        <ele>177.00000</ele>
        <time>2024-02-02T14:03:03Z</time>
      </trkpt>
      <trkpt lat="42.85096535" lon="13.55045448">
        <ele>176.00000</ele>
        <time>2024-02-02T14:03:04Z</time>
      </trkpt>
      <trkpt lat="42.85098069" lon="13.55054919">
        <ele>176.00000</ele>
        <time>2024-02-02T14:03:05Z</time>
      </trkpt>
      <trkpt lat="42.85100198" lon="13.55066796">
        <ele>175.00000</ele>
        <time>2024-02-02T14:03:06Z</time>
      </trkpt>
      <trkpt lat="42.85102126" lon="13.55078682">
        <ele>174.00000</ele>
        <time>2024-02-02T14:03:07Z</time>
      </trkpt>
      <trkpt lat="42.85104406" lon="13.55090299">
        <ele>174.00000</ele>
        <time>2024-02-02T14:03:08Z</time>
      </trkpt>
      <trkpt lat="42.85107381" lon="13.55104213">
        <ele>174.00000</ele>
        <time>2024-02-02T14:03:09Z</time>
      </trkpt>
      <trkpt lat="42.85109376" lon="13.55113509">
        <ele>174.00000</ele>
        <time>2024-02-02T14:03:10Z</time>
      </trkpt>
      <trkpt lat="42.85112041" lon="13.55125126">
        <ele>174.00000</ele>
        <time>2024-02-02T14:03:11Z</time>
      </trkpt>
      <trkpt lat="42.85114564" lon="13.55136735">
        <ele>175.00000</ele>
        <time>2024-02-02T14:03:12Z</time>
      </trkpt>
      <trkpt lat="42.85116828" lon="13.55148352">
        <ele>176.00000</ele>
        <time>2024-02-02T14:03:13Z</time>
      </trkpt>
      <trkpt lat="42.85119401" lon="13.55160271">
        <ele>177.00000</ele>
        <time>2024-02-02T14:03:14Z</time>
      </trkpt>
      <trkpt lat="42.85122854" lon="13.55174370">
        <ele>178.00000</ele>
        <time>2024-02-02T14:03:15Z</time>
      </trkpt>
      <trkpt lat="42.85125570" lon="13.55183321">
        <ele>178.00000</ele>
        <time>2024-02-02T14:03:16Z</time>
      </trkpt>
      <trkpt lat="42.85129291" lon="13.55194143">
        <ele>179.00000</ele>
        <time>2024-02-02T14:03:17Z</time>
      </trkpt>
      <trkpt lat="42.85133709" lon="13.55204486">
        <ele>179.00000</ele>
        <time>2024-02-02T14:03:18Z</time>
      </trkpt>
      <trkpt lat="42.85140054" lon="13.55216179">
        <ele>179.00000</ele>
        <time>2024-02-02T14:03:19Z</time>
      </trkpt>
      <trkpt lat="42.85145829" lon="13.55225005">
        <ele>179.00000</ele>
        <time>2024-02-02T14:03:20Z</time>
      </trkpt>
      <trkpt lat="42.85152551" lon="13.55233261">
        <ele>178.00000</ele>
        <time>2024-02-02T14:03:21Z</time>
      </trkpt>
      <trkpt lat="42.85158410" lon="13.55239531">
        <ele>177.00000</ele>
        <time>2024-02-02T14:03:22Z</time>
      </trkpt>
      <trkpt lat="42.85165593" lon="13.55247627">
        <ele>175.00000</ele>
        <time>2024-02-02T14:03:23Z</time>
      </trkpt>
      <trkpt lat="42.85173187" lon="13.55258926">
        <ele>174.00000</ele>
        <time>2024-02-02T14:03:24Z</time>
      </trkpt>
      <trkpt lat="42.85177219" lon="13.55270083">
        <ele>174.00000</ele>
        <time>2024-02-02T14:03:25Z</time>
      </trkpt>
      <trkpt lat="42.85179281" lon="13.55281943">
        <ele>175.00000</ele>
        <time>2024-02-02T14:03:26Z</time>
      </trkpt>
      <trkpt lat="42.85179851" lon="13.55291825">
        <ele>176.00000</ele>
        <time>2024-02-02T14:03:27Z</time>
      </trkpt>
      <trkpt lat="42.85179994" lon="13.55304482">
        <ele>178.00000</ele>
        <time>2024-02-02T14:03:28Z</time>
      </trkpt>
      <trkpt lat="42.85179709" lon="13.55317038">
        <ele>179.00000</ele>
        <time>2024-02-02T14:03:29Z</time>
      </trkpt>
      <trkpt lat="42.85179482" lon="13.55332008">
        <ele>181.00000</ele>
        <time>2024-02-02T14:03:30Z</time>
      </trkpt>
      <trkpt lat="42.85179667" lon="13.55342226">
        <ele>181.00000</ele>
        <time>2024-02-02T14:03:31Z</time>
      </trkpt>
      <trkpt lat="42.85180522" lon="13.55355142">
        <ele>180.00000</ele>
        <time>2024-02-02T14:03:32Z</time>
      </trkpt>
      <trkpt lat="42.85181955" lon="13.55367681">
        <ele>180.00000</ele>
        <time>2024-02-02T14:03:33Z</time>
      </trkpt>
      <trkpt lat="42.85183799" lon="13.55380036">
        <ele>180.00000</ele>
        <time>2024-02-02T14:03:34Z</time>
      </trkpt>
      <trkpt lat="42.85186699" lon="13.55394654">
        <ele>179.00000</ele>
        <time>2024-02-02T14:03:35Z</time>
      </trkpt>
      <trkpt lat="42.85190664" lon="13.55406674">
        <ele>179.00000</ele>
        <time>2024-02-02T14:03:36Z</time>
      </trkpt>
      <trkpt lat="42.85195400" lon="13.55418107">
        <ele>178.00000</ele>
        <time>2024-02-02T14:03:37Z</time>
      </trkpt>
      <trkpt lat="42.85199708" lon="13.55426941">
        <ele>179.00000</ele>
        <time>2024-02-02T14:03:38Z</time>
      </trkpt>
      <trkpt lat="42.85204896" lon="13.55438056">
        <ele>179.00000</ele>
        <time>2024-02-02T14:03:39Z</time>
      </trkpt>
      <trkpt lat="42.85209850" lon="13.55449204">
        <ele>179.00000</ele>
        <time>2024-02-02T14:03:40Z</time>
      </trkpt>
      <trkpt lat="42.85215726" lon="13.55462866">
        <ele>179.00000</ele>
        <time>2024-02-02T14:03:41Z</time>
      </trkpt>
      <trkpt lat="42.85221224" lon="13.55474626">
        <ele>179.00000</ele>
        <time>2024-02-02T14:03:42Z</time>
      </trkpt>
      <trkpt lat="42.85226773" lon="13.55486604">
        <ele>178.00000</ele>
        <time>2024-02-02T14:03:43Z</time>
      </trkpt>
      <trkpt lat="42.85232179" lon="13.55498624">
        <ele>177.00000</ele>
        <time>2024-02-02T14:03:44Z</time>
      </trkpt>
      <trkpt lat="42.85237812" lon="13.55510668">
        <ele>176.00000</ele>
        <time>2024-02-02T14:03:45Z</time>
      </trkpt>
      <trkpt lat="42.85243151" lon="13.55522369">
        <ele>175.00000</ele>
        <time>2024-02-02T14:03:46Z</time>
      </trkpt>
      <trkpt lat="42.85248851" lon="13.55534012">
        <ele>174.00000</ele>
        <time>2024-02-02T14:03:47Z</time>
      </trkpt>
      <trkpt lat="42.85254534" lon="13.55545654">
        <ele>174.00000</ele>
        <time>2024-02-02T14:03:48Z</time>
      </trkpt>
      <trkpt lat="42.85260275" lon="13.55557213">
        <ele>175.00000</ele>
        <time>2024-02-02T14:03:49Z</time>
      </trkpt>
      <trkpt lat="42.85266051" lon="13.55568470">
        <ele>175.00000</ele>
        <time>2024-02-02T14:03:50Z</time>
      </trkpt>
      <trkpt lat="42.85271625" lon="13.55580012">
        <ele>175.00000</ele>
        <time>2024-02-02T14:03:51Z</time>
      </trkpt>
      <trkpt lat="42.85277366" lon="13.55591369">
        <ele>175.00000</ele>
        <time>2024-02-02T14:03:52Z</time>
      </trkpt>
      <trkpt lat="42.85283116" lon="13.55602710">
        <ele>175.00000</ele>
        <time>2024-02-02T14:03:53Z</time>
      </trkpt>
      <trkpt lat="42.85288690" lon="13.55613808">
        <ele>174.00000</ele>
        <time>2024-02-02T14:03:54Z</time>
      </trkpt>
      <trkpt lat="42.85293920" lon="13.55625090">
        <ele>174.00000</ele>
        <time>2024-02-02T14:03:55Z</time>
      </trkpt>
      <trkpt lat="42.85299159" lon="13.55636506">
        <ele>174.00000</ele>
        <time>2024-02-02T14:03:56Z</time>
      </trkpt>
      <trkpt lat="42.85304356" lon="13.55647947">
        <ele>174.00000</ele>
        <time>2024-02-02T14:03:57Z</time>
      </trkpt>
      <trkpt lat="42.85309603" lon="13.55659313">
        <ele>175.00000</ele>
        <time>2024-02-02T14:03:58Z</time>
      </trkpt>
      <trkpt lat="42.85315034" lon="13.55670528">
        <ele>176.00000</ele>
        <time>2024-02-02T14:03:59Z</time>
      </trkpt>
      <trkpt lat="42.85320265" lon="13.55681953">
        <ele>177.00000</ele>
        <time>2024-02-02T14:04:00Z</time>
      </trkpt>
      <trkpt lat="42.85325646" lon="13.55693587">
        <ele>178.00000</ele>
        <time>2024-02-02T14:04:01Z</time>
      </trkpt>
      <trkpt lat="42.85331027" lon="13.55705506">
        <ele>177.00000</ele>
        <time>2024-02-02T14:04:02Z</time>
      </trkpt>
      <trkpt lat="42.85335486" lon="13.55717534">
        <ele>176.00000</ele>
        <time>2024-02-02T14:04:03Z</time>
      </trkpt>
      <trkpt lat="42.85339292" lon="13.55730316">
        <ele>175.00000</ele>
        <time>2024-02-02T14:04:04Z</time>
      </trkpt>
      <trkpt lat="42.85342745" lon="13.55743300">
        <ele>172.00000</ele>
        <time>2024-02-02T14:04:05Z</time>
      </trkpt>
      <trkpt lat="42.85345410" lon="13.55756593">
        <ele>170.00000</ele>
        <time>2024-02-02T14:04:06Z</time>
      </trkpt>
      <trkpt lat="42.85347891" lon="13.55770155">
        <ele>169.00000</ele>
        <time>2024-02-02T14:04:07Z</time>
      </trkpt>
      <trkpt lat="42.85349660" lon="13.55783709">
        <ele>168.00000</ele>
        <time>2024-02-02T14:04:08Z</time>
      </trkpt>
      <trkpt lat="42.85351336" lon="13.55797447">
        <ele>168.00000</ele>
        <time>2024-02-02T14:04:09Z</time>
      </trkpt>
      <trkpt lat="42.85352979" lon="13.55811042">
        <ele>167.00000</ele>
        <time>2024-02-02T14:04:10Z</time>
      </trkpt>
      <trkpt lat="42.85354396" lon="13.55821796">
        <ele>166.00000</ele>
        <time>2024-02-02T14:04:11Z</time>
      </trkpt>
      <trkpt lat="42.85356240" lon="13.55835224">
        <ele>165.00000</ele>
        <time>2024-02-02T14:04:12Z</time>
      </trkpt>
      <trkpt lat="42.85358042" lon="13.55848652">
        <ele>165.00000</ele>
        <time>2024-02-02T14:04:13Z</time>
      </trkpt>
      <trkpt lat="42.85360473" lon="13.55864821">
        <ele>164.00000</ele>
        <time>2024-02-02T14:04:14Z</time>
      </trkpt>
      <trkpt lat="42.85362593" lon="13.55878131">
        <ele>164.00000</ele>
        <time>2024-02-02T14:04:15Z</time>
      </trkpt>
      <trkpt lat="42.85364471" lon="13.55891098">
        <ele>165.00000</ele>
        <time>2024-02-02T14:04:16Z</time>
      </trkpt>
      <trkpt lat="42.85366072" lon="13.55903821">
        <ele>166.00000</ele>
        <time>2024-02-02T14:04:17Z</time>
      </trkpt>
      <trkpt lat="42.85367379" lon="13.55914198">
        <ele>166.00000</ele>
        <time>2024-02-02T14:04:18Z</time>
      </trkpt>
      <trkpt lat="42.85369064" lon="13.55929462">
        <ele>166.00000</ele>
        <time>2024-02-02T14:04:19Z</time>
      </trkpt>
      <trkpt lat="42.85370456" lon="13.55942051">
        <ele>166.00000</ele>
        <time>2024-02-02T14:04:20Z</time>
      </trkpt>
      <trkpt lat="42.85371554" lon="13.55954297">
        <ele>167.00000</ele>
        <time>2024-02-02T14:04:21Z</time>
      </trkpt>
      <trkpt lat="42.85372777" lon="13.55966443">
        <ele>167.00000</ele>
        <time>2024-02-02T14:04:22Z</time>
      </trkpt>
      <trkpt lat="42.85374202" lon="13.55978806">
        <ele>168.00000</ele>
        <time>2024-02-02T14:04:23Z</time>
      </trkpt>
      <trkpt lat="42.85376097" lon="13.55991840">
        <ele>168.00000</ele>
        <time>2024-02-02T14:04:24Z</time>
      </trkpt>
      <trkpt lat="42.85377790" lon="13.56004991">
        <ele>168.00000</ele>
        <time>2024-02-02T14:04:25Z</time>
      </trkpt>
      <trkpt lat="42.85379013" lon="13.56017891">
        <ele>167.00000</ele>
        <time>2024-02-02T14:04:26Z</time>
      </trkpt>
      <trkpt lat="42.85380581" lon="13.56031034">
        <ele>167.00000</ele>
        <time>2024-02-02T14:04:27Z</time>
      </trkpt>
      <trkpt lat="42.85381947" lon="13.56043766">
        <ele>166.00000</ele>
        <time>2024-02-02T14:04:28Z</time>
      </trkpt>
      <trkpt lat="42.85383565" lon="13.56056364">
        <ele>166.00000</ele>
        <time>2024-02-02T14:04:29Z</time>
      </trkpt>
      <trkpt lat="42.85385333" lon="13.56066288">
        <ele>166.00000</ele>
        <time>2024-02-02T14:04:30Z</time>
      </trkpt>
      <trkpt lat="42.85387027" lon="13.56078081">
        <ele>166.00000</ele>
        <time>2024-02-02T14:04:31Z</time>
      </trkpt>
      <trkpt lat="42.85388510" lon="13.56089497">
        <ele>165.00000</ele>
        <time>2024-02-02T14:04:32Z</time>
      </trkpt>
      <trkpt lat="42.85390254" lon="13.56100293">
        <ele>165.00000</ele>
        <time>2024-02-02T14:04:33Z</time>
      </trkpt>
      <trkpt lat="42.85392081" lon="13.56113059">
        <ele>164.00000</ele>
        <time>2024-02-02T14:04:34Z</time>
      </trkpt>
      <trkpt lat="42.85392902" lon="13.56121147">
        <ele>164.00000</ele>
        <time>2024-02-02T14:04:35Z</time>
      </trkpt>
      <trkpt lat="42.85393975" lon="13.56131407">
        <ele>164.00000</ele>
        <time>2024-02-02T14:04:36Z</time>
      </trkpt>
      <trkpt lat="42.85395543" lon="13.56142739">
        <ele>163.00000</ele>
        <time>2024-02-02T14:04:37Z</time>
      </trkpt>
      <trkpt lat="42.85397923" lon="13.56154516">
        <ele>163.00000</ele>
        <time>2024-02-02T14:04:38Z</time>
      </trkpt>
      <trkpt lat="42.85400421" lon="13.56168572">
        <ele>163.00000</ele>
        <time>2024-02-02T14:04:39Z</time>
      </trkpt>
      <trkpt lat="42.85402525" lon="13.56180793">
        <ele>163.00000</ele>
        <time>2024-02-02T14:04:40Z</time>
      </trkpt>
      <trkpt lat="42.85404704" lon="13.56192880">
        <ele>162.00000</ele>
        <time>2024-02-02T14:04:41Z</time>
      </trkpt>
      <trkpt lat="42.85406799" lon="13.56202460">
        <ele>162.00000</ele>
        <time>2024-02-02T14:04:42Z</time>
      </trkpt>
      <trkpt lat="42.85408442" lon="13.56214354">
        <ele>162.00000</ele>
        <time>2024-02-02T14:04:43Z</time>
      </trkpt>
      <trkpt lat="42.85409700" lon="13.56229182">
        <ele>162.00000</ele>
        <time>2024-02-02T14:04:44Z</time>
      </trkpt>
      <trkpt lat="42.85411116" lon="13.56240363">
        <ele>162.00000</ele>
        <time>2024-02-02T14:04:45Z</time>
      </trkpt>
      <trkpt lat="42.85412935" lon="13.56253883">
        <ele>162.00000</ele>
        <time>2024-02-02T14:04:46Z</time>
      </trkpt>
      <trkpt lat="42.85414377" lon="13.56267051">
        <ele>161.00000</ele>
        <time>2024-02-02T14:04:47Z</time>
      </trkpt>
      <trkpt lat="42.85415709" lon="13.56280362">
        <ele>160.00000</ele>
        <time>2024-02-02T14:04:48Z</time>
      </trkpt>
      <trkpt lat="42.85417947" lon="13.56294167">
        <ele>160.00000</ele>
        <time>2024-02-02T14:04:49Z</time>
      </trkpt>
      <trkpt lat="42.85421476" lon="13.56307880">
        <ele>159.00000</ele>
        <time>2024-02-02T14:04:50Z</time>
      </trkpt>
      <trkpt lat="42.85422910" lon="13.56320796">
        <ele>159.00000</ele>
        <time>2024-02-02T14:04:51Z</time>
      </trkpt>
      <trkpt lat="42.85424485" lon="13.56335951">
        <ele>159.00000</ele>
        <time>2024-02-02T14:04:52Z</time>
      </trkpt>
      <trkpt lat="42.85425458" lon="13.56346076">
        <ele>159.00000</ele>
        <time>2024-02-02T14:04:53Z</time>
      </trkpt>
      <trkpt lat="42.85427452" lon="13.56361255">
        <ele>160.00000</ele>
        <time>2024-02-02T14:04:54Z</time>
      </trkpt>
      <trkpt lat="42.85429464" lon="13.56374113">
        <ele>161.00000</ele>
        <time>2024-02-02T14:04:55Z</time>
      </trkpt>
      <trkpt lat="42.85431593" lon="13.56386611">
        <ele>162.00000</ele>
        <time>2024-02-02T14:04:56Z</time>
      </trkpt>
      <trkpt lat="42.85433337" lon="13.56397180">
        <ele>163.00000</ele>
        <time>2024-02-02T14:04:57Z</time>
      </trkpt>
      <trkpt lat="42.85435549" lon="13.56410290">
        <ele>164.00000</ele>
        <time>2024-02-02T14:04:58Z</time>
      </trkpt>
      <trkpt lat="42.85439045" lon="13.56426299">
        <ele>164.00000</ele>
        <time>2024-02-02T14:04:59Z</time>
      </trkpt>
      <trkpt lat="42.85441157" lon="13.56439685">
        <ele>164.00000</ele>
        <time>2024-02-02T14:05:00Z</time>
      </trkpt>
      <trkpt lat="42.85442758" lon="13.56453272">
        <ele>164.00000</ele>
        <time>2024-02-02T14:05:01Z</time>
      </trkpt>
      <trkpt lat="42.85443780" lon="13.56463087">
        <ele>164.00000</ele>
        <time>2024-02-02T14:05:02Z</time>
      </trkpt>
      <trkpt lat="42.85445197" lon="13.56475266">
        <ele>164.00000</ele>
        <time>2024-02-02T14:05:03Z</time>
      </trkpt>
      <trkpt lat="42.85446220" lon="13.56490479">
        <ele>163.00000</ele>
        <time>2024-02-02T14:05:04Z</time>
      </trkpt>
      <trkpt lat="42.85448592" lon="13.56503077">
        <ele>162.00000</ele>
        <time>2024-02-02T14:05:05Z</time>
      </trkpt>
      <trkpt lat="42.85450067" lon="13.56512675">
        <ele>161.00000</ele>
        <time>2024-02-02T14:05:06Z</time>
      </trkpt>
      <trkpt lat="42.85451517" lon="13.56525323">
        <ele>160.00000</ele>
        <time>2024-02-02T14:05:07Z</time>
      </trkpt>
      <trkpt lat="42.85452917" lon="13.56538399">
        <ele>160.00000</ele>
        <time>2024-02-02T14:05:08Z</time>
      </trkpt>
      <trkpt lat="42.85454518" lon="13.56551072">
        <ele>159.00000</ele>
        <time>2024-02-02T14:05:09Z</time>
      </trkpt>
      <trkpt lat="42.85457074" lon="13.56566327">
        <ele>159.00000</ele>
        <time>2024-02-02T14:05:10Z</time>
      </trkpt>
      <trkpt lat="42.85458248" lon="13.56575790">
        <ele>159.00000</ele>
        <time>2024-02-02T14:05:11Z</time>
      </trkpt>
      <trkpt lat="42.85460008" lon="13.56587726">
        <ele>159.00000</ele>
        <time>2024-02-02T14:05:12Z</time>
      </trkpt>
      <trkpt lat="42.85461475" lon="13.56599553">
        <ele>159.00000</ele>
        <time>2024-02-02T14:05:13Z</time>
      </trkpt>
      <trkpt lat="42.85462941" lon="13.56611045">
        <ele>159.00000</ele>
        <time>2024-02-02T14:05:14Z</time>
      </trkpt>
      <trkpt lat="42.85464744" lon="13.56622142">
        <ele>159.00000</ele>
        <time>2024-02-02T14:05:15Z</time>
      </trkpt>
      <trkpt lat="42.85466453" lon="13.56633231">
        <ele>159.00000</ele>
        <time>2024-02-02T14:05:16Z</time>
      </trkpt>
      <trkpt lat="42.85468415" lon="13.56644706">
        <ele>160.00000</ele>
        <time>2024-02-02T14:05:17Z</time>
      </trkpt>
      <trkpt lat="42.85470569" lon="13.56655863">
        <ele>160.00000</ele>
        <time>2024-02-02T14:05:18Z</time>
      </trkpt>
      <trkpt lat="42.85472623" lon="13.56667622">
        <ele>159.00000</ele>
        <time>2024-02-02T14:05:19Z</time>
      </trkpt>
      <trkpt lat="42.85474039" lon="13.56679919">
        <ele>159.00000</ele>
        <time>2024-02-02T14:05:20Z</time>
      </trkpt>
      <trkpt lat="42.85474483" lon="13.56692139">
        <ele>159.00000</ele>
        <time>2024-02-02T14:05:21Z</time>
      </trkpt>
      <trkpt lat="42.85473645" lon="13.56704453">
        <ele>159.00000</ele>
        <time>2024-02-02T14:05:22Z</time>
      </trkpt>
      <trkpt lat="42.85471801" lon="13.56715634">
        <ele>159.00000</ele>
        <time>2024-02-02T14:05:23Z</time>
      </trkpt>
      <trkpt lat="42.85468725" lon="13.56725843">
        <ele>159.00000</ele>
        <time>2024-02-02T14:05:24Z</time>
      </trkpt>
      <trkpt lat="42.85465188" lon="13.56735927">
        <ele>159.00000</ele>
        <time>2024-02-02T14:05:25Z</time>
      </trkpt>
      <trkpt lat="42.85460955" lon="13.56745859">
        <ele>159.00000</ele>
        <time>2024-02-02T14:05:26Z</time>
      </trkpt>
      <trkpt lat="42.85456529" lon="13.56755515">
        <ele>158.00000</ele>
        <time>2024-02-02T14:05:27Z</time>
      </trkpt>
      <trkpt lat="42.85451442" lon="13.56764341">
        <ele>158.00000</ele>
        <time>2024-02-02T14:05:28Z</time>
      </trkpt>
      <trkpt lat="42.85446178" lon="13.56772229">
        <ele>157.00000</ele>
        <time>2024-02-02T14:05:29Z</time>
      </trkpt>
      <trkpt lat="42.85441107" lon="13.56780342">
        <ele>156.00000</ele>
        <time>2024-02-02T14:05:30Z</time>
      </trkpt>
      <trkpt lat="42.85436438" lon="13.56788665">
        <ele>156.00000</ele>
        <time>2024-02-02T14:05:31Z</time>
      </trkpt>
      <trkpt lat="42.85432029" lon="13.56797332">
        <ele>155.00000</ele>
        <time>2024-02-02T14:05:32Z</time>
      </trkpt>
      <trkpt lat="42.85428014" lon="13.56806083">
        <ele>154.00000</ele>
        <time>2024-02-02T14:05:33Z</time>
      </trkpt>
      <trkpt lat="42.85423949" lon="13.56814851">
        <ele>154.00000</ele>
        <time>2024-02-02T14:05:34Z</time>
      </trkpt>
      <trkpt lat="42.85420588" lon="13.56824054">
        <ele>154.00000</ele>
        <time>2024-02-02T14:05:35Z</time>
      </trkpt>
      <trkpt lat="42.85417688" lon="13.56833349">
        <ele>155.00000</ele>
        <time>2024-02-02T14:05:36Z</time>
      </trkpt>
      <trkpt lat="42.85415215" lon="13.56842838">
        <ele>155.00000</ele>
        <time>2024-02-02T14:05:37Z</time>
      </trkpt>
      <trkpt lat="42.85412977" lon="13.56852259">
        <ele>155.00000</ele>
        <time>2024-02-02T14:05:38Z</time>
      </trkpt>
      <trkpt lat="42.85410764" lon="13.56861957">
        <ele>156.00000</ele>
        <time>2024-02-02T14:05:39Z</time>
      </trkpt>
      <trkpt lat="42.85408191" lon="13.56871370">
        <ele>156.00000</ele>
        <time>2024-02-02T14:05:40Z</time>
      </trkpt>
      <trkpt lat="42.85406556" lon="13.56880984">
        <ele>157.00000</ele>
        <time>2024-02-02T14:05:41Z</time>
      </trkpt>
      <trkpt lat="42.85404964" lon="13.56890506">
        <ele>158.00000</ele>
        <time>2024-02-02T14:05:42Z</time>
      </trkpt>
      <trkpt lat="42.85403463" lon="13.56899927">
        <ele>158.00000</ele>
        <time>2024-02-02T14:05:43Z</time>
      </trkpt>
      <trkpt lat="42.85401376" lon="13.56910974">
        <ele>159.00000</ele>
        <time>2024-02-02T14:05:44Z</time>
      </trkpt>
      <trkpt lat="42.85398879" lon="13.56919876">
        <ele>160.00000</ele>
        <time>2024-02-02T14:05:45Z</time>
      </trkpt>
      <trkpt lat="42.85396104" lon="13.56927176">
        <ele>160.00000</ele>
        <time>2024-02-02T14:05:46Z</time>
      </trkpt>
      <trkpt lat="42.85393204" lon="13.56936262">
        <ele>161.00000</ele>
        <time>2024-02-02T14:05:47Z</time>
      </trkpt>
      <trkpt lat="42.85390865" lon="13.56946002">
        <ele>161.00000</ele>
        <time>2024-02-02T14:05:48Z</time>
      </trkpt>
      <trkpt lat="42.85389943" lon="13.56955432">
        <ele>162.00000</ele>
        <time>2024-02-02T14:05:49Z</time>
      </trkpt>
      <trkpt lat="42.85389499" lon="13.56966496">
        <ele>162.00000</ele>
        <time>2024-02-02T14:05:50Z</time>
      </trkpt>
      <trkpt lat="42.85389424" lon="13.56975775">
        <ele>163.00000</ele>
        <time>2024-02-02T14:05:51Z</time>
      </trkpt>
      <trkpt lat="42.85390254" lon="13.56983486">
        <ele>163.00000</ele>
        <time>2024-02-02T14:05:52Z</time>
      </trkpt>
      <trkpt lat="42.85389206" lon="13.56992807">
        <ele>163.00000</ele>
        <time>2024-02-02T14:05:53Z</time>
      </trkpt>
      <trkpt lat="42.85388527" lon="13.57002588">
        <ele>164.00000</ele>
        <time>2024-02-02T14:05:54Z</time>
      </trkpt>
      <trkpt lat="42.85386708" lon="13.57013778">
        <ele>164.00000</ele>
        <time>2024-02-02T14:05:55Z</time>
      </trkpt>
      <trkpt lat="42.85385543" lon="13.57021163">
        <ele>164.00000</ele>
        <time>2024-02-02T14:05:56Z</time>
      </trkpt>
      <trkpt lat="42.85384546" lon="13.57030265">
        <ele>164.00000</ele>
        <time>2024-02-02T14:05:57Z</time>
      </trkpt>
      <trkpt lat="42.85382911" lon="13.57039201">
        <ele>164.00000</ele>
        <time>2024-02-02T14:05:58Z</time>
      </trkpt>
      <trkpt lat="42.85381243" lon="13.57050189">
        <ele>164.00000</ele>
        <time>2024-02-02T14:05:59Z</time>
      </trkpt>
      <trkpt lat="42.85381486" lon="13.57059460">
        <ele>163.00000</ele>
        <time>2024-02-02T14:06:00Z</time>
      </trkpt>
      <trkpt lat="42.85381771" lon="13.57068696">
        <ele>163.00000</ele>
        <time>2024-02-02T14:06:01Z</time>
      </trkpt>
      <trkpt lat="42.85381997" lon="13.57078051">
        <ele>163.00000</ele>
        <time>2024-02-02T14:06:02Z</time>
      </trkpt>
      <trkpt lat="42.85381402" lon="13.57085527">
        <ele>163.00000</ele>
        <time>2024-02-02T14:06:03Z</time>
      </trkpt>
      <trkpt lat="42.85380983" lon="13.57094253">
        <ele>163.00000</ele>
        <time>2024-02-02T14:06:04Z</time>
      </trkpt>
      <trkpt lat="42.85379659" lon="13.57104387">
        <ele>164.00000</ele>
        <time>2024-02-02T14:06:05Z</time>
      </trkpt>
      <trkpt lat="42.85378175" lon="13.57111117">
        <ele>164.00000</ele>
        <time>2024-02-02T14:06:06Z</time>
      </trkpt>
      <trkpt lat="42.85377320" lon="13.57119466">
        <ele>165.00000</ele>
        <time>2024-02-02T14:06:07Z</time>
      </trkpt>
      <trkpt lat="42.85376893" lon="13.57127286">
        <ele>165.00000</ele>
        <time>2024-02-02T14:06:08Z</time>
      </trkpt>
      <trkpt lat="42.85376491" lon="13.57135844">
        <ele>165.00000</ele>
        <time>2024-02-02T14:06:09Z</time>
      </trkpt>
      <trkpt lat="42.85374948" lon="13.57144494">
        <ele>166.00000</ele>
        <time>2024-02-02T14:06:10Z</time>
      </trkpt>
      <trkpt lat="42.85373465" lon="13.57153815">
        <ele>166.00000</ele>
        <time>2024-02-02T14:06:11Z</time>
      </trkpt>
      <trkpt lat="42.85372065" lon="13.57163152">
        <ele>166.00000</ele>
        <time>2024-02-02T14:06:12Z</time>
      </trkpt>
      <trkpt lat="42.85371084" lon="13.57174744">
        <ele>166.00000</ele>
        <time>2024-02-02T14:06:13Z</time>
      </trkpt>
      <trkpt lat="42.85370179" lon="13.57184526">
        <ele>165.00000</ele>
        <time>2024-02-02T14:06:14Z</time>
      </trkpt>
      <trkpt lat="42.85369047" lon="13.57194232">
        <ele>165.00000</ele>
        <time>2024-02-02T14:06:15Z</time>
      </trkpt>
      <trkpt lat="42.85368301" lon="13.57204240">
        <ele>164.00000</ele>
        <time>2024-02-02T14:06:16Z</time>
      </trkpt>
      <trkpt lat="42.85367497" lon="13.57212480">
        <ele>164.00000</ele>
        <time>2024-02-02T14:06:17Z</time>
      </trkpt>
      <trkpt lat="42.85363255" lon="13.57222697">
        <ele>163.00000</ele>
        <time>2024-02-02T14:06:18Z</time>
      </trkpt>
      <trkpt lat="42.85363214" lon="13.57234423">
        <ele>163.00000</ele>
        <time>2024-02-02T14:06:19Z</time>
      </trkpt>
      <trkpt lat="42.85363331" lon="13.57243702">
        <ele>162.00000</ele>
        <time>2024-02-02T14:06:20Z</time>
      </trkpt>
      <trkpt lat="42.85364982" lon="13.57251799">
        <ele>162.00000</ele>
        <time>2024-02-02T14:06:21Z</time>
      </trkpt>
      <trkpt lat="42.85364563" lon="13.57261447">
        <ele>162.00000</ele>
        <time>2024-02-02T14:06:22Z</time>
      </trkpt>
      <trkpt lat="42.85363490" lon="13.57272603">
        <ele>162.00000</ele>
        <time>2024-02-02T14:06:23Z</time>
      </trkpt>
      <trkpt lat="42.85362090" lon="13.57282661">
        <ele>163.00000</ele>
        <time>2024-02-02T14:06:24Z</time>
      </trkpt>
      <trkpt lat="42.85360766" lon="13.57292644">
        <ele>163.00000</ele>
        <time>2024-02-02T14:06:25Z</time>
      </trkpt>
      <trkpt lat="42.85359718" lon="13.57302837">
        <ele>163.00000</ele>
        <time>2024-02-02T14:06:26Z</time>
      </trkpt>
      <trkpt lat="42.85358939" lon="13.57310900">
        <ele>164.00000</ele>
        <time>2024-02-02T14:06:27Z</time>
      </trkpt>
      <trkpt lat="42.85357916" lon="13.57323037">
        <ele>164.00000</ele>
        <time>2024-02-02T14:06:28Z</time>
      </trkpt>
      <trkpt lat="42.85355469" lon="13.57332844">
        <ele>164.00000</ele>
        <time>2024-02-02T14:06:29Z</time>
      </trkpt>
      <trkpt lat="42.85351823" lon="13.57342500">
        <ele>164.00000</ele>
        <time>2024-02-02T14:06:30Z</time>
      </trkpt>
      <trkpt lat="42.85348864" lon="13.57352466">
        <ele>164.00000</ele>
        <time>2024-02-02T14:06:31Z</time>
      </trkpt>
      <trkpt lat="42.85347246" lon="13.57362725">
        <ele>164.00000</ele>
        <time>2024-02-02T14:06:32Z</time>
      </trkpt>
      <trkpt lat="42.85345603" lon="13.57372784">
        <ele>163.00000</ele>
        <time>2024-02-02T14:06:33Z</time>
      </trkpt>
      <trkpt lat="42.85344153" lon="13.57382607">
        <ele>163.00000</ele>
        <time>2024-02-02T14:06:34Z</time>
      </trkpt>
      <trkpt lat="42.85342913" lon="13.57391878">
        <ele>162.00000</ele>
        <time>2024-02-02T14:06:35Z</time>
      </trkpt>
      <trkpt lat="42.85342996" lon="13.57401936">
        <ele>162.00000</ele>
        <time>2024-02-02T14:06:36Z</time>
      </trkpt>
      <trkpt lat="42.85342510" lon="13.57412220">
        <ele>161.00000</ele>
        <time>2024-02-02T14:06:37Z</time>
      </trkpt>
      <trkpt lat="42.85342284" lon="13.57420041">
        <ele>161.00000</ele>
        <time>2024-02-02T14:06:38Z</time>
      </trkpt>
      <trkpt lat="42.85341689" lon="13.57430820">
        <ele>160.00000</ele>
        <time>2024-02-02T14:06:39Z</time>
      </trkpt>
      <trkpt lat="42.85342066" lon="13.57440166">
        <ele>160.00000</ele>
        <time>2024-02-02T14:06:40Z</time>
      </trkpt>
      <trkpt lat="42.85342426" lon="13.57447391">
        <ele>160.00000</ele>
        <time>2024-02-02T14:06:41Z</time>
      </trkpt>
      <trkpt lat="42.85342938" lon="13.57455764">
        <ele>161.00000</ele>
        <time>2024-02-02T14:06:42Z</time>
      </trkpt>
      <trkpt lat="42.85342879" lon="13.57463509">
        <ele>161.00000</ele>
        <time>2024-02-02T14:06:43Z</time>
      </trkpt>
      <trkpt lat="42.85343030" lon="13.57471137">
        <ele>162.00000</ele>
        <time>2024-02-02T14:06:44Z</time>
      </trkpt>
      <trkpt lat="42.85342544" lon="13.57478605">
        <ele>162.00000</ele>
        <time>2024-02-02T14:06:45Z</time>
      </trkpt>
      <trkpt lat="42.85341697" lon="13.57486090">
        <ele>162.00000</ele>
        <time>2024-02-02T14:06:46Z</time>
      </trkpt>
      <trkpt lat="42.85342393" lon="13.57493332">
        <ele>163.00000</ele>
        <time>2024-02-02T14:06:47Z</time>
      </trkpt>
      <trkpt lat="42.85344681" lon="13.57499795">
        <ele>163.00000</ele>
        <time>2024-02-02T14:06:48Z</time>
      </trkpt>
      <trkpt lat="42.85344908" lon="13.57503952">
        <ele>163.00000</ele>
        <time>2024-02-02T14:06:49Z</time>
      </trkpt>
      <trkpt lat="42.85345620" lon="13.57507036">
        <ele>163.00000</ele>
        <time>2024-02-02T14:06:50Z</time>
      </trkpt>
      <trkpt lat="42.85345846" lon="13.57509794">
        <ele>163.00000</ele>
        <time>2024-02-02T14:06:51Z</time>
      </trkpt>
      <trkpt lat="42.85347087" lon="13.57512627">
        <ele>163.00000</ele>
        <time>2024-02-02T14:06:52Z</time>
      </trkpt>
      <trkpt lat="42.85348017" lon="13.57517112">
        <ele>163.00000</ele>
        <time>2024-02-02T14:06:53Z</time>
      </trkpt>
      <trkpt lat="42.85347422" lon="13.57520976">
        <ele>163.00000</ele>
        <time>2024-02-02T14:06:54Z</time>
      </trkpt>
      <trkpt lat="42.85348210" lon="13.57525871">
        <ele>163.00000</ele>
        <time>2024-02-02T14:06:55Z</time>
      </trkpt>
      <trkpt lat="42.85349937" lon="13.57531277">
        <ele>163.00000</ele>
        <time>2024-02-02T14:06:56Z</time>
      </trkpt>
      <trkpt lat="42.85351789" lon="13.57537815">
        <ele>163.00000</ele>
        <time>2024-02-02T14:06:57Z</time>
      </trkpt>
      <trkpt lat="42.85352334" lon="13.57544554">
        <ele>163.00000</ele>
        <time>2024-02-02T14:06:58Z</time>
      </trkpt>
      <trkpt lat="42.85352535" lon="13.57553020">
        <ele>162.00000</ele>
        <time>2024-02-02T14:06:59Z</time>
      </trkpt>
      <trkpt lat="42.85352476" lon="13.57559775">
        <ele>162.00000</ele>
        <time>2024-02-02T14:07:00Z</time>
      </trkpt>
      <trkpt lat="42.85352057" lon="13.57566473">
        <ele>162.00000</ele>
        <time>2024-02-02T14:07:01Z</time>
      </trkpt>
      <trkpt lat="42.85351873" lon="13.57571686">
        <ele>162.00000</ele>
        <time>2024-02-02T14:07:02Z</time>
      </trkpt>
      <trkpt lat="42.85351730" lon="13.57578543">
        <ele>161.00000</ele>
        <time>2024-02-02T14:07:03Z</time>
      </trkpt>
      <trkpt lat="42.85350196" lon="13.57587033">
        <ele>161.00000</ele>
        <time>2024-02-02T14:07:04Z</time>
      </trkpt>
      <trkpt lat="42.85350842" lon="13.57595080">
        <ele>161.00000</ele>
        <time>2024-02-02T14:07:05Z</time>
      </trkpt>
      <trkpt lat="42.85351135" lon="13.57601375">
        <ele>161.00000</ele>
        <time>2024-02-02T14:07:06Z</time>
      </trkpt>
      <trkpt lat="42.85351303" lon="13.57609044">
        <ele>161.00000</ele>
        <time>2024-02-02T14:07:07Z</time>
      </trkpt>
      <trkpt lat="42.85351538" lon="13.57616839">
        <ele>161.00000</ele>
        <time>2024-02-02T14:07:08Z</time>
      </trkpt>
      <trkpt lat="42.85351638" lon="13.57624392">
        <ele>161.00000</ele>
        <time>2024-02-02T14:07:09Z</time>
      </trkpt>
      <trkpt lat="42.85351496" lon="13.57631893">
        <ele>162.00000</ele>
        <time>2024-02-02T14:07:10Z</time>
      </trkpt>
      <trkpt lat="42.85351387" lon="13.57639311">
        <ele>162.00000</ele>
        <time>2024-02-02T14:07:11Z</time>
      </trkpt>
      <trkpt lat="42.85350515" lon="13.57646537">
        <ele>162.00000</ele>
        <time>2024-02-02T14:07:12Z</time>
      </trkpt>
      <trkpt lat="42.85347598" lon="13.57653074">
        <ele>162.00000</ele>
        <time>2024-02-02T14:07:13Z</time>
      </trkpt>
      <trkpt lat="42.85345536" lon="13.57659989">
        <ele>162.00000</ele>
        <time>2024-02-02T14:07:14Z</time>
      </trkpt>
      <trkpt lat="42.85344447" lon="13.57668271">
        <ele>161.00000</ele>
        <time>2024-02-02T14:07:15Z</time>
      </trkpt>
      <trkpt lat="42.85344036" lon="13.57673778">
        <ele>161.00000</ele>
        <time>2024-02-02T14:07:16Z</time>
      </trkpt>
      <trkpt lat="42.85343734" lon="13.57681003">
        <ele>160.00000</ele>
        <time>2024-02-02T14:07:17Z</time>
      </trkpt>
      <trkpt lat="42.85343583" lon="13.57688547">
        <ele>160.00000</ele>
        <time>2024-02-02T14:07:18Z</time>
      </trkpt>
      <trkpt lat="42.85343022" lon="13.57695839">
        <ele>159.00000</ele>
        <time>2024-02-02T14:07:19Z</time>
      </trkpt>
      <trkpt lat="42.85342544" lon="13.57703399">
        <ele>159.00000</ele>
        <time>2024-02-02T14:07:20Z</time>
      </trkpt>
      <trkpt lat="42.85342611" lon="13.57710951">
        <ele>159.00000</ele>
        <time>2024-02-02T14:07:21Z</time>
      </trkpt>
      <trkpt lat="42.85342820" lon="13.57718235">
        <ele>158.00000</ele>
        <time>2024-02-02T14:07:22Z</time>
      </trkpt>
      <trkpt lat="42.85343441" lon="13.57726936">
        <ele>158.00000</ele>
        <time>2024-02-02T14:07:23Z</time>
      </trkpt>
      <trkpt lat="42.85343843" lon="13.57732837">
        <ele>157.00000</ele>
        <time>2024-02-02T14:07:24Z</time>
      </trkpt>
      <trkpt lat="42.85344740" lon="13.57739835">
        <ele>157.00000</ele>
        <time>2024-02-02T14:07:25Z</time>
      </trkpt>
      <trkpt lat="42.85346492" lon="13.57747337">
        <ele>157.00000</ele>
        <time>2024-02-02T14:07:26Z</time>
      </trkpt>
      <trkpt lat="42.85348227" lon="13.57755040">
        <ele>157.00000</ele>
        <time>2024-02-02T14:07:27Z</time>
      </trkpt>
      <trkpt lat="42.85350238" lon="13.57764311">
        <ele>157.00000</ele>
        <time>2024-02-02T14:07:28Z</time>
      </trkpt>
      <trkpt lat="42.85351311" lon="13.57770622">
        <ele>157.00000</ele>
        <time>2024-02-02T14:07:29Z</time>
      </trkpt>
      <trkpt lat="42.85352644" lon="13.57779666">
        <ele>157.00000</ele>
        <time>2024-02-02T14:07:30Z</time>
      </trkpt>
      <trkpt lat="42.85353331" lon="13.57785852">
        <ele>157.00000</ele>
        <time>2024-02-02T14:07:31Z</time>
      </trkpt>
      <trkpt lat="42.85354589" lon="13.57793739">
        <ele>157.00000</ele>
        <time>2024-02-02T14:07:32Z</time>
      </trkpt>
      <trkpt lat="42.85355444" lon="13.57801820">
        <ele>157.00000</ele>
        <time>2024-02-02T14:07:33Z</time>
      </trkpt>
      <trkpt lat="42.85357539" lon="13.57810880">
        <ele>157.00000</ele>
        <time>2024-02-02T14:07:34Z</time>
      </trkpt>
      <trkpt lat="42.85359433" lon="13.57816304">
        <ele>157.00000</ele>
        <time>2024-02-02T14:07:35Z</time>
      </trkpt>
      <trkpt lat="42.85361680" lon="13.57823110">
        <ele>158.00000</ele>
        <time>2024-02-02T14:07:36Z</time>
      </trkpt>
      <trkpt lat="42.85363440" lon="13.57829974">
        <ele>158.00000</ele>
        <time>2024-02-02T14:07:37Z</time>
      </trkpt>
      <trkpt lat="42.85365234" lon="13.57836244">
        <ele>158.00000</ele>
        <time>2024-02-02T14:07:38Z</time>
      </trkpt>
      <trkpt lat="42.85366591" lon="13.57843562">
        <ele>158.00000</ele>
        <time>2024-02-02T14:07:39Z</time>
      </trkpt>
      <trkpt lat="42.85367203" lon="13.57850150">
        <ele>158.00000</ele>
        <time>2024-02-02T14:07:40Z</time>
      </trkpt>
      <trkpt lat="42.85366843" lon="13.57855523">
        <ele>158.00000</ele>
        <time>2024-02-02T14:07:41Z</time>
      </trkpt>
      <trkpt lat="42.85367069" lon="13.57862907">
        <ele>158.00000</ele>
        <time>2024-02-02T14:07:42Z</time>
      </trkpt>
      <trkpt lat="42.85366918" lon="13.57870367">
        <ele>158.00000</ele>
        <time>2024-02-02T14:07:43Z</time>
      </trkpt>
      <trkpt lat="42.85365770" lon="13.57875413">
        <ele>159.00000</ele>
        <time>2024-02-02T14:07:44Z</time>
      </trkpt>
      <trkpt lat="42.85366994" lon="13.57882219">
        <ele>159.00000</ele>
        <time>2024-02-02T14:07:45Z</time>
      </trkpt>
      <trkpt lat="42.85368008" lon="13.57889872">
        <ele>158.00000</ele>
        <time>2024-02-02T14:07:46Z</time>
      </trkpt>
      <trkpt lat="42.85368838" lon="13.57897365">
        <ele>158.00000</ele>
        <time>2024-02-02T14:07:47Z</time>
      </trkpt>
      <trkpt lat="42.85368452" lon="13.57904339">
        <ele>158.00000</ele>
        <time>2024-02-02T14:07:48Z</time>
      </trkpt>
      <trkpt lat="42.85367103" lon="13.57911405">
        <ele>157.00000</ele>
        <time>2024-02-02T14:07:49Z</time>
      </trkpt>
      <trkpt lat="42.85366558" lon="13.57918303">
        <ele>157.00000</ele>
        <time>2024-02-02T14:07:50Z</time>
      </trkpt>
      <trkpt lat="42.85366281" lon="13.57925059">
        <ele>157.00000</ele>
        <time>2024-02-02T14:07:51Z</time>
      </trkpt>
      <trkpt lat="42.85366533" lon="13.57932301">
        <ele>157.00000</ele>
        <time>2024-02-02T14:07:52Z</time>
      </trkpt>
      <trkpt lat="42.85367572" lon="13.57940029">
        <ele>157.00000</ele>
        <time>2024-02-02T14:07:53Z</time>
      </trkpt>
      <trkpt lat="42.85368897" lon="13.57947891">
        <ele>157.00000</ele>
        <time>2024-02-02T14:07:54Z</time>
      </trkpt>
      <trkpt lat="42.85370472" lon="13.57955267">
        <ele>156.00000</ele>
        <time>2024-02-02T14:07:55Z</time>
      </trkpt>
      <trkpt lat="42.85371939" lon="13.57962886">
        <ele>156.00000</ele>
        <time>2024-02-02T14:07:56Z</time>
      </trkpt>
      <trkpt lat="42.85372652" lon="13.57970640">
        <ele>156.00000</ele>
        <time>2024-02-02T14:07:57Z</time>
      </trkpt>
      <trkpt lat="42.85373020" lon="13.57978016">
        <ele>156.00000</ele>
        <time>2024-02-02T14:07:58Z</time>
      </trkpt>
      <trkpt lat="42.85373188" lon="13.57985207">
        <ele>156.00000</ele>
        <time>2024-02-02T14:07:59Z</time>
      </trkpt>
      <trkpt lat="42.85373942" lon="13.57994411">
        <ele>157.00000</ele>
        <time>2024-02-02T14:08:00Z</time>
      </trkpt>
      <trkpt lat="42.85374362" lon="13.58000580">
        <ele>157.00000</ele>
        <time>2024-02-02T14:08:01Z</time>
      </trkpt>
      <trkpt lat="42.85374077" lon="13.58008249">
        <ele>157.00000</ele>
        <time>2024-02-02T14:08:02Z</time>
      </trkpt>
      <trkpt lat="42.85374051" lon="13.58015039">
        <ele>157.00000</ele>
        <time>2024-02-02T14:08:03Z</time>
      </trkpt>
      <trkpt lat="42.85373984" lon="13.58020436">
        <ele>158.00000</ele>
        <time>2024-02-02T14:08:04Z</time>
      </trkpt>
      <trkpt lat="42.85373951" lon="13.58025809">
        <ele>158.00000</ele>
        <time>2024-02-02T14:08:05Z</time>
      </trkpt>
      <trkpt lat="42.85374630" lon="13.58032029">
        <ele>158.00000</ele>
        <time>2024-02-02T14:08:06Z</time>
      </trkpt>
      <trkpt lat="42.85375552" lon="13.58038818">
        <ele>159.00000</ele>
        <time>2024-02-02T14:08:07Z</time>
      </trkpt>
      <trkpt lat="42.85377630" lon="13.58047300">
        <ele>159.00000</ele>
        <time>2024-02-02T14:08:08Z</time>
      </trkpt>
      <trkpt lat="42.85379055" lon="13.58054794">
        <ele>160.00000</ele>
        <time>2024-02-02T14:08:09Z</time>
      </trkpt>
      <trkpt lat="42.85380061" lon="13.58061349">
        <ele>160.00000</ele>
        <time>2024-02-02T14:08:10Z</time>
      </trkpt>
      <trkpt lat="42.85382316" lon="13.58069898">
        <ele>160.00000</ele>
        <time>2024-02-02T14:08:11Z</time>
      </trkpt>
      <trkpt lat="42.85384872" lon="13.58078473">
        <ele>159.00000</ele>
        <time>2024-02-02T14:08:12Z</time>
      </trkpt>
      <trkpt lat="42.85385233" lon="13.58086402">
        <ele>159.00000</ele>
        <time>2024-02-02T14:08:13Z</time>
      </trkpt>
      <trkpt lat="42.85386423" lon="13.58094658">
        <ele>159.00000</ele>
        <time>2024-02-02T14:08:14Z</time>
      </trkpt>
      <trkpt lat="42.85387010" lon="13.58102722">
        <ele>159.00000</ele>
        <time>2024-02-02T14:08:15Z</time>
      </trkpt>
      <trkpt lat="42.85389600" lon="13.58112185">
        <ele>158.00000</ele>
        <time>2024-02-02T14:08:16Z</time>
      </trkpt>
      <trkpt lat="42.85389767" lon="13.58121329">
        <ele>158.00000</ele>
        <time>2024-02-02T14:08:17Z</time>
      </trkpt>
      <trkpt lat="42.85388074" lon="13.58131639">
        <ele>158.00000</ele>
        <time>2024-02-02T14:08:18Z</time>
      </trkpt>
      <trkpt lat="42.85387873" lon="13.58141111">
        <ele>158.00000</ele>
        <time>2024-02-02T14:08:19Z</time>
      </trkpt>
      <trkpt lat="42.85384428" lon="13.58151420">
        <ele>158.00000</ele>
        <time>2024-02-02T14:08:20Z</time>
      </trkpt>
      <trkpt lat="42.85383892" lon="13.58160833">
        <ele>157.00000</ele>
        <time>2024-02-02T14:08:21Z</time>
      </trkpt>
      <trkpt lat="42.85381310" lon="13.58170573">
        <ele>157.00000</ele>
        <time>2024-02-02T14:08:22Z</time>
      </trkpt>
      <trkpt lat="42.85373850" lon="13.58181503">
        <ele>158.00000</ele>
        <time>2024-02-02T14:08:23Z</time>
      </trkpt>
      <trkpt lat="42.85372082" lon="13.58191025">
        <ele>157.00000</ele>
        <time>2024-02-02T14:08:24Z</time>
      </trkpt>
      <trkpt lat="42.85375979" lon="13.58199809">
        <ele>156.00000</ele>
        <time>2024-02-02T14:08:25Z</time>
      </trkpt>
      <trkpt lat="42.85378879" lon="13.58208803">
        <ele>155.00000</ele>
        <time>2024-02-02T14:08:26Z</time>
      </trkpt>
      <trkpt lat="42.85382475" lon="13.58218744">
        <ele>153.00000</ele>
        <time>2024-02-02T14:08:27Z</time>
      </trkpt>
      <trkpt lat="42.85383297" lon="13.58227679">
        <ele>152.00000</ele>
        <time>2024-02-02T14:08:28Z</time>
      </trkpt>
      <trkpt lat="42.85383489" lon="13.58238626">
        <ele>151.00000</ele>
        <time>2024-02-02T14:08:29Z</time>
      </trkpt>
      <trkpt lat="42.85383749" lon="13.58245868">
        <ele>151.00000</ele>
        <time>2024-02-02T14:08:30Z</time>
      </trkpt>
      <trkpt lat="42.85384378" lon="13.58255021">
        <ele>150.00000</ele>
        <time>2024-02-02T14:08:31Z</time>
      </trkpt>
      <trkpt lat="42.85385426" lon="13.58264015">
        <ele>150.00000</ele>
        <time>2024-02-02T14:08:32Z</time>
      </trkpt>
      <trkpt lat="42.85385694" lon="13.58272556">
        <ele>150.00000</ele>
        <time>2024-02-02T14:08:33Z</time>
      </trkpt>
      <trkpt lat="42.85385367" lon="13.58280686">
        <ele>150.00000</ele>
        <time>2024-02-02T14:08:34Z</time>
      </trkpt>
      <trkpt lat="42.85385468" lon="13.58289345">
        <ele>150.00000</ele>
        <time>2024-02-02T14:08:35Z</time>
      </trkpt>
      <trkpt lat="42.85385736" lon="13.58298079">
        <ele>150.00000</ele>
        <time>2024-02-02T14:08:36Z</time>
      </trkpt>
      <trkpt lat="42.85386105" lon="13.58306930">
        <ele>150.00000</ele>
        <time>2024-02-02T14:08:37Z</time>
      </trkpt>
      <trkpt lat="42.85386214" lon="13.58315681">
        <ele>150.00000</ele>
        <time>2024-02-02T14:08:38Z</time>
      </trkpt>
      <trkpt lat="42.85386373" lon="13.58324322">
        <ele>150.00000</ele>
        <time>2024-02-02T14:08:39Z</time>
      </trkpt>
      <trkpt lat="42.85386809" lon="13.58333157">
        <ele>151.00000</ele>
        <time>2024-02-02T14:08:40Z</time>
      </trkpt>
      <trkpt lat="42.85387454" lon="13.58341933">
        <ele>151.00000</ele>
        <time>2024-02-02T14:08:41Z</time>
      </trkpt>
      <trkpt lat="42.85387747" lon="13.58350172">
        <ele>152.00000</ele>
        <time>2024-02-02T14:08:42Z</time>
      </trkpt>
      <trkpt lat="42.85388141" lon="13.58358076">
        <ele>152.00000</ele>
        <time>2024-02-02T14:08:43Z</time>
      </trkpt>
      <trkpt lat="42.85388393" lon="13.58365503">
        <ele>153.00000</ele>
        <time>2024-02-02T14:08:44Z</time>
      </trkpt>
      <trkpt lat="42.85388602" lon="13.58372946">
        <ele>154.00000</ele>
        <time>2024-02-02T14:08:45Z</time>
      </trkpt>
      <trkpt lat="42.85388862" lon="13.58379903">
        <ele>155.00000</ele>
        <time>2024-02-02T14:08:46Z</time>
      </trkpt>
      <trkpt lat="42.85389248" lon="13.58387170">
        <ele>155.00000</ele>
        <time>2024-02-02T14:08:47Z</time>
      </trkpt>
      <trkpt lat="42.85389407" lon="13.58394999">
        <ele>156.00000</ele>
        <time>2024-02-02T14:08:48Z</time>
      </trkpt>
      <trkpt lat="42.85389298" lon="13.58403171">
        <ele>158.00000</ele>
        <time>2024-02-02T14:08:49Z</time>
      </trkpt>
      <trkpt lat="42.85389474" lon="13.58411368">
        <ele>159.00000</ele>
        <time>2024-02-02T14:08:50Z</time>
      </trkpt>
      <trkpt lat="42.85388527" lon="13.58419901">
        <ele>160.00000</ele>
        <time>2024-02-02T14:08:51Z</time>
      </trkpt>
      <trkpt lat="42.85389122" lon="13.58428300">
        <ele>160.00000</ele>
        <time>2024-02-02T14:08:52Z</time>
      </trkpt>
      <trkpt lat="42.85390622" lon="13.58437160">
        <ele>161.00000</ele>
        <time>2024-02-02T14:08:53Z</time>
      </trkpt>
      <trkpt lat="42.85392148" lon="13.58446715">
        <ele>161.00000</ele>
        <time>2024-02-02T14:08:54Z</time>
      </trkpt>
      <trkpt lat="42.85394160" lon="13.58456891">
        <ele>158.00000</ele>
        <time>2024-02-02T14:08:55Z</time>
      </trkpt>
      <trkpt lat="42.85395015" lon="13.58466932">
        <ele>156.00000</ele>
        <time>2024-02-02T14:08:56Z</time>
      </trkpt>
      <trkpt lat="42.85395811" lon="13.58476873">
        <ele>153.00000</ele>
        <time>2024-02-02T14:08:57Z</time>
      </trkpt>
      <trkpt lat="42.85396909" lon="13.58486638">
        <ele>150.00000</ele>
        <time>2024-02-02T14:08:58Z</time>
      </trkpt>
      <trkpt lat="42.85398962" lon="13.58496705">
        <ele>147.00000</ele>
        <time>2024-02-02T14:08:59Z</time>
      </trkpt>
      <trkpt lat="42.85399583" lon="13.58507568">
        <ele>144.00000</ele>
        <time>2024-02-02T14:09:00Z</time>
      </trkpt>
      <trkpt lat="42.85399616" lon="13.58518137">
        <ele>140.00000</ele>
        <time>2024-02-02T14:09:01Z</time>
      </trkpt>
      <trkpt lat="42.85399750" lon="13.58528464">
        <ele>136.00000</ele>
        <time>2024-02-02T14:09:02Z</time>
      </trkpt>
      <trkpt lat="42.85399935" lon="13.58538975">
        <ele>133.00000</ele>
        <time>2024-02-02T14:09:03Z</time>
      </trkpt>
      <trkpt lat="42.85400144" lon="13.58549536">
        <ele>131.00000</ele>
        <time>2024-02-02T14:09:04Z</time>
      </trkpt>
      <trkpt lat="42.85400723" lon="13.58559762">
        <ele>130.00000</ele>
        <time>2024-02-02T14:09:05Z</time>
      </trkpt>
      <trkpt lat="42.85401209" lon="13.58569962">
        <ele>131.00000</ele>
        <time>2024-02-02T14:09:06Z</time>
      </trkpt>
      <trkpt lat="42.85401443" lon="13.58580322">
        <ele>132.00000</ele>
        <time>2024-02-02T14:09:07Z</time>
      </trkpt>
      <trkpt lat="42.85401804" lon="13.58590649">
        <ele>133.00000</ele>
        <time>2024-02-02T14:09:08Z</time>
      </trkpt>
      <trkpt lat="42.85402189" lon="13.58600741">
        <ele>135.00000</ele>
        <time>2024-02-02T14:09:09Z</time>
      </trkpt>
      <trkpt lat="42.85402751" lon="13.58610866">
        <ele>136.00000</ele>
        <time>2024-02-02T14:09:10Z</time>
      </trkpt>
      <trkpt lat="42.85402592" lon="13.58620958">
        <ele>138.00000</ele>
        <time>2024-02-02T14:09:11Z</time>
      </trkpt>
      <trkpt lat="42.85402047" lon="13.58631050">
        <ele>139.00000</ele>
        <time>2024-02-02T14:09:12Z</time>
      </trkpt>
      <trkpt lat="42.85401846" lon="13.58641007">
        <ele>141.00000</ele>
        <time>2024-02-02T14:09:13Z</time>
      </trkpt>
      <trkpt lat="42.85402298" lon="13.58651384">
        <ele>143.00000</ele>
        <time>2024-02-02T14:09:14Z</time>
      </trkpt>
      <trkpt lat="42.85403011" lon="13.58661778">
        <ele>145.00000</ele>
        <time>2024-02-02T14:09:15Z</time>
      </trkpt>
      <trkpt lat="42.85403665" lon="13.58672146">
        <ele>147.00000</ele>
        <time>2024-02-02T14:09:16Z</time>
      </trkpt>
      <trkpt lat="42.85404251" lon="13.58682640">
        <ele>149.00000</ele>
        <time>2024-02-02T14:09:17Z</time>
      </trkpt>
      <trkpt lat="42.85404847" lon="13.58693160">
        <ele>151.00000</ele>
        <time>2024-02-02T14:09:18Z</time>
      </trkpt>
      <trkpt lat="42.85404955" lon="13.58703101">
        <ele>151.00000</ele>
        <time>2024-02-02T14:09:19Z</time>
      </trkpt>
      <trkpt lat="42.85404763" lon="13.58712899">
        <ele>151.00000</ele>
        <time>2024-02-02T14:09:20Z</time>
      </trkpt>
      <trkpt lat="42.85404897" lon="13.58722354">
        <ele>151.00000</ele>
        <time>2024-02-02T14:09:21Z</time>
      </trkpt>
      <trkpt lat="42.85405157" lon="13.58731498">
        <ele>151.00000</ele>
        <time>2024-02-02T14:09:22Z</time>
      </trkpt>
      <trkpt lat="42.85404997" lon="13.58740492">
        <ele>150.00000</ele>
        <time>2024-02-02T14:09:23Z</time>
      </trkpt>
      <trkpt lat="42.85405140" lon="13.58749276">
        <ele>150.00000</ele>
        <time>2024-02-02T14:09:24Z</time>
      </trkpt>
      <trkpt lat="42.85405986" lon="13.58757667">
        <ele>149.00000</ele>
        <time>2024-02-02T14:09:25Z</time>
      </trkpt>
      <trkpt lat="42.85406255" lon="13.58765814">
        <ele>149.00000</ele>
        <time>2024-02-02T14:09:26Z</time>
      </trkpt>
      <trkpt lat="42.85404796" lon="13.58773198">
        <ele>149.00000</ele>
        <time>2024-02-02T14:09:27Z</time>
      </trkpt>
      <trkpt lat="42.85401569" lon="13.58779485">
        <ele>149.00000</ele>
        <time>2024-02-02T14:09:28Z</time>
      </trkpt>
      <trkpt lat="42.85397512" lon="13.58785134">
        <ele>149.00000</ele>
        <time>2024-02-02T14:09:29Z</time>
      </trkpt>
      <trkpt lat="42.85392944" lon="13.58790373">
        <ele>149.00000</ele>
        <time>2024-02-02T14:09:30Z</time>
      </trkpt>
      <trkpt lat="42.85388904" lon="13.58794941">
        <ele>149.00000</ele>
        <time>2024-02-02T14:09:31Z</time>
      </trkpt>
      <trkpt lat="42.85384671" lon="13.58798311">
        <ele>149.00000</ele>
        <time>2024-02-02T14:09:32Z</time>
      </trkpt>
      <trkpt lat="42.85380179" lon="13.58799283">
        <ele>149.00000</ele>
        <time>2024-02-02T14:09:33Z</time>
      </trkpt>
      <trkpt lat="42.85375585" lon="13.58799191">
        <ele>150.00000</ele>
        <time>2024-02-02T14:09:34Z</time>
      </trkpt>
      <trkpt lat="42.85370229" lon="13.58799333">
        <ele>150.00000</ele>
        <time>2024-02-02T14:09:35Z</time>
      </trkpt>
      <trkpt lat="42.85364077" lon="13.58800021">
        <ele>150.00000</ele>
        <time>2024-02-02T14:09:36Z</time>
      </trkpt>
      <trkpt lat="42.85357564" lon="13.58800507">
        <ele>151.00000</ele>
        <time>2024-02-02T14:09:37Z</time>
      </trkpt>
      <trkpt lat="42.85350037" lon="13.58800272">
        <ele>152.00000</ele>
        <time>2024-02-02T14:09:38Z</time>
      </trkpt>
      <trkpt lat="42.85342577" lon="13.58799912">
        <ele>153.00000</ele>
        <time>2024-02-02T14:09:39Z</time>
      </trkpt>
      <trkpt lat="42.85335285" lon="13.58800071">
        <ele>153.00000</ele>
        <time>2024-02-02T14:09:40Z</time>
      </trkpt>
      <trkpt lat="42.85328663" lon="13.58800683">
        <ele>154.00000</ele>
        <time>2024-02-02T14:09:41Z</time>
      </trkpt>
      <trkpt lat="42.85322201" lon="13.58801848">
        <ele>154.00000</ele>
        <time>2024-02-02T14:09:42Z</time>
      </trkpt>
      <trkpt lat="42.85315772" lon="13.58802217">
        <ele>154.00000</ele>
        <time>2024-02-02T14:09:43Z</time>
      </trkpt>
      <trkpt lat="42.85309192" lon="13.58802812">
        <ele>154.00000</ele>
        <time>2024-02-02T14:09:44Z</time>
      </trkpt>
      <trkpt lat="42.85301757" lon="13.58802678">
        <ele>154.00000</ele>
        <time>2024-02-02T14:09:45Z</time>
      </trkpt>
      <trkpt lat="42.85296854" lon="13.58802988">
        <ele>154.00000</ele>
        <time>2024-02-02T14:09:46Z</time>
      </trkpt>
      <trkpt lat="42.85290601" lon="13.58803533">
        <ele>154.00000</ele>
        <time>2024-02-02T14:09:47Z</time>
      </trkpt>
      <trkpt lat="42.85284407" lon="13.58804287">
        <ele>154.00000</ele>
        <time>2024-02-02T14:09:48Z</time>
      </trkpt>
      <trkpt lat="42.85278297" lon="13.58804731">
        <ele>154.00000</ele>
        <time>2024-02-02T14:09:49Z</time>
      </trkpt>
      <trkpt lat="42.85271775" lon="13.58805175">
        <ele>153.00000</ele>
        <time>2024-02-02T14:09:50Z</time>
      </trkpt>
      <trkpt lat="42.85265271" lon="13.58805142">
        <ele>153.00000</ele>
        <time>2024-02-02T14:09:51Z</time>
      </trkpt>
      <trkpt lat="42.85258985" lon="13.58804597">
        <ele>153.00000</ele>
        <time>2024-02-02T14:09:52Z</time>
      </trkpt>
      <trkpt lat="42.85252564" lon="13.58803977">
        <ele>153.00000</ele>
        <time>2024-02-02T14:09:53Z</time>
      </trkpt>
      <trkpt lat="42.85245389" lon="13.58804136">
        <ele>152.00000</ele>
        <time>2024-02-02T14:09:54Z</time>
      </trkpt>
      <trkpt lat="42.85238441" lon="13.58804899">
        <ele>152.00000</ele>
        <time>2024-02-02T14:09:55Z</time>
      </trkpt>
      <trkpt lat="42.85232255" lon="13.58805150">
        <ele>151.00000</ele>
        <time>2024-02-02T14:09:56Z</time>
      </trkpt>
      <trkpt lat="42.85226052" lon="13.58805402">
        <ele>151.00000</ele>
        <time>2024-02-02T14:09:57Z</time>
      </trkpt>
      <trkpt lat="42.85220076" lon="13.58805905">
        <ele>151.00000</ele>
        <time>2024-02-02T14:09:58Z</time>
      </trkpt>
      <trkpt lat="42.85214208" lon="13.58808310">
        <ele>151.00000</ele>
        <time>2024-02-02T14:09:59Z</time>
      </trkpt>
      <trkpt lat="42.85206656" lon="13.58813432">
        <ele>151.00000</ele>
        <time>2024-02-02T14:10:00Z</time>
      </trkpt>
      <trkpt lat="42.85198937" lon="13.58819584">
        <ele>151.00000</ele>
        <time>2024-02-02T14:10:01Z</time>
      </trkpt>
      <trkpt lat="42.85192105" lon="13.58828502">
        <ele>151.00000</ele>
        <time>2024-02-02T14:10:02Z</time>
      </trkpt>
      <trkpt lat="42.85188174" lon="13.58837479">
        <ele>151.00000</ele>
        <time>2024-02-02T14:10:03Z</time>
      </trkpt>
      <trkpt lat="42.85184268" lon="13.58847387">
        <ele>152.00000</ele>
        <time>2024-02-02T14:10:04Z</time>
      </trkpt>
      <trkpt lat="42.85182458" lon="13.58856774">
        <ele>152.00000</ele>
        <time>2024-02-02T14:10:05Z</time>
      </trkpt>
      <trkpt lat="42.85180488" lon="13.58866799">
        <ele>152.00000</ele>
        <time>2024-02-02T14:10:06Z</time>
      </trkpt>
      <trkpt lat="42.85177906" lon="13.58876933">
        <ele>153.00000</ele>
        <time>2024-02-02T14:10:07Z</time>
      </trkpt>
      <trkpt lat="42.85179164" lon="13.58887100">
        <ele>154.00000</ele>
        <time>2024-02-02T14:10:08Z</time>
      </trkpt>
      <trkpt lat="42.85176792" lon="13.58897100">
        <ele>154.00000</ele>
        <time>2024-02-02T14:10:09Z</time>
      </trkpt>
      <trkpt lat="42.85174612" lon="13.58907200">
        <ele>154.00000</ele>
        <time>2024-02-02T14:10:10Z</time>
      </trkpt>
      <trkpt lat="42.85172291" lon="13.58916160">
        <ele>154.00000</ele>
        <time>2024-02-02T14:10:11Z</time>
      </trkpt>
      <trkpt lat="42.85168385" lon="13.58925665">
        <ele>154.00000</ele>
        <time>2024-02-02T14:10:12Z</time>
      </trkpt>
      <trkpt lat="42.85165979" lon="13.58935371">
        <ele>155.00000</ele>
        <time>2024-02-02T14:10:13Z</time>
      </trkpt>
      <trkpt lat="42.85166013" lon="13.58945522">
        <ele>154.00000</ele>
        <time>2024-02-02T14:10:14Z</time>
      </trkpt>
      <trkpt lat="42.85164361" lon="13.58955756">
        <ele>154.00000</ele>
        <time>2024-02-02T14:10:15Z</time>
      </trkpt>
      <trkpt lat="42.85162760" lon="13.58966544">
        <ele>154.00000</ele>
        <time>2024-02-02T14:10:16Z</time>
      </trkpt>
      <trkpt lat="42.85161864" lon="13.58977801">
        <ele>154.00000</ele>
        <time>2024-02-02T14:10:17Z</time>
      </trkpt>
      <trkpt lat="42.85160397" lon="13.58988186">
        <ele>153.00000</ele>
        <time>2024-02-02T14:10:18Z</time>
      </trkpt>
      <trkpt lat="42.85155141" lon="13.58999082">
        <ele>153.00000</ele>
        <time>2024-02-02T14:10:19Z</time>
      </trkpt>
      <trkpt lat="42.85151386" lon="13.59009199">
        <ele>154.00000</ele>
        <time>2024-02-02T14:10:20Z</time>
      </trkpt>
      <trkpt lat="42.85150892" lon="13.59019878">
        <ele>154.00000</ele>
        <time>2024-02-02T14:10:21Z</time>
      </trkpt>
      <trkpt lat="42.85149986" lon="13.59030313">
        <ele>155.00000</ele>
        <time>2024-02-02T14:10:22Z</time>
      </trkpt>
      <trkpt lat="42.85146910" lon="13.59040372">
        <ele>155.00000</ele>
        <time>2024-02-02T14:10:23Z</time>
      </trkpt>
      <trkpt lat="42.85141043" lon="13.59051142">
        <ele>155.00000</ele>
        <time>2024-02-02T14:10:24Z</time>
      </trkpt>
      <trkpt lat="42.85138361" lon="13.59061880">
        <ele>155.00000</ele>
        <time>2024-02-02T14:10:25Z</time>
      </trkpt>
      <trkpt lat="42.85135595" lon="13.59072164">
        <ele>155.00000</ele>
        <time>2024-02-02T14:10:26Z</time>
      </trkpt>
      <trkpt lat="42.85118252" lon="13.59080278">
        <ele>155.00000</ele>
        <time>2024-02-02T14:10:27Z</time>
      </trkpt>
      <trkpt lat="42.85113852" lon="13.59089523">
        <ele>155.00000</ele>
        <time>2024-02-02T14:10:28Z</time>
      </trkpt>
      <trkpt lat="42.85112511" lon="13.59098500">
        <ele>155.00000</ele>
        <time>2024-02-02T14:10:29Z</time>
      </trkpt>
      <trkpt lat="42.85112452" lon="13.59108139">
        <ele>155.00000</ele>
        <time>2024-02-02T14:10:30Z</time>
      </trkpt>
      <trkpt lat="42.85111170" lon="13.59116312">
        <ele>154.00000</ele>
        <time>2024-02-02T14:10:31Z</time>
      </trkpt>
      <trkpt lat="42.85107985" lon="13.59123302">
        <ele>154.00000</ele>
        <time>2024-02-02T14:10:32Z</time>
      </trkpt>
      <trkpt lat="42.85111027" lon="13.59130653">
        <ele>154.00000</ele>
        <time>2024-02-02T14:10:33Z</time>
      </trkpt>
      <trkpt lat="42.85120742" lon="13.59138423">
        <ele>154.00000</ele>
        <time>2024-02-02T14:10:34Z</time>
      </trkpt>
      <trkpt lat="42.85126693" lon="13.59145808">
        <ele>153.00000</ele>
        <time>2024-02-02T14:10:35Z</time>
      </trkpt>
      <trkpt lat="42.85127322" lon="13.59153033">
        <ele>153.00000</ele>
        <time>2024-02-02T14:10:36Z</time>
      </trkpt>
      <trkpt lat="42.85127498" lon="13.59157240">
        <ele>153.00000</ele>
        <time>2024-02-02T14:10:37Z</time>
      </trkpt>
      <trkpt lat="42.85127724" lon="13.59162446">
        <ele>152.00000</ele>
        <time>2024-02-02T14:10:38Z</time>
      </trkpt>
      <trkpt lat="42.85127640" lon="13.59167299">
        <ele>152.00000</ele>
        <time>2024-02-02T14:10:39Z</time>
      </trkpt>
      <trkpt lat="42.85128177" lon="13.59171942">
        <ele>152.00000</ele>
        <time>2024-02-02T14:10:40Z</time>
      </trkpt>
      <trkpt lat="42.85128847" lon="13.59176628">
        <ele>152.00000</ele>
        <time>2024-02-02T14:10:41Z</time>
      </trkpt>
      <trkpt lat="42.85128411" lon="13.59179863">
        <ele>151.00000</ele>
        <time>2024-02-02T14:10:42Z</time>
      </trkpt>
      <trkpt lat="42.85127104" lon="13.59182084">
        <ele>151.00000</ele>
        <time>2024-02-02T14:10:43Z</time>
      </trkpt>
      <trkpt lat="42.85126165" lon="13.59183736">
        <ele>151.00000</ele>
        <time>2024-02-02T14:10:44Z</time>
      </trkpt>
      <trkpt lat="42.85126190" lon="13.59185219">
        <ele>151.00000</ele>
        <time>2024-02-02T14:10:45Z</time>
      </trkpt>
      <trkpt lat="42.85125704" lon="13.59186787">
        <ele>151.00000</ele>
        <time>2024-02-02T14:10:46Z</time>
      </trkpt>
      <trkpt lat="42.85125486" lon="13.59188304">
        <ele>151.00000</ele>
        <time>2024-02-02T14:10:47Z</time>
      </trkpt>
      <trkpt lat="42.85125520" lon="13.59189955">
        <ele>151.00000</ele>
        <time>2024-02-02T14:10:48Z</time>
      </trkpt>
      <trkpt lat="42.85125411" lon="13.59191204">
        <ele>151.00000</ele>
        <time>2024-02-02T14:10:49Z</time>
      </trkpt>
      <trkpt lat="42.85125394" lon="13.59191539">
        <ele>151.00000</ele>
        <time>2024-02-02T14:10:50Z</time>
      </trkpt>
      <trkpt lat="42.85122527" lon="13.59199318">
        <ele>150.00000</ele>
        <time>2024-02-02T14:10:58Z</time>
      </trkpt>
      <trkpt lat="42.85121731" lon="13.59202888">
        <ele>150.00000</ele>
        <time>2024-02-02T14:10:59Z</time>
      </trkpt>
      <trkpt lat="42.85120876" lon="13.59207213">
        <ele>150.00000</ele>
        <time>2024-02-02T14:11:00Z</time>
      </trkpt>
      <trkpt lat="42.85119744" lon="13.59211748">
        <ele>150.00000</ele>
        <time>2024-02-02T14:11:01Z</time>
      </trkpt>
      <trkpt lat="42.85119493" lon="13.59217733">
        <ele>150.00000</ele>
        <time>2024-02-02T14:11:02Z</time>
      </trkpt>
      <trkpt lat="42.85120013" lon="13.59224145">
        <ele>149.00000</ele>
        <time>2024-02-02T14:11:03Z</time>
      </trkpt>
      <trkpt lat="42.85120239" lon="13.59230951">
        <ele>149.00000</ele>
        <time>2024-02-02T14:11:04Z</time>
      </trkpt>
      <trkpt lat="42.85120742" lon="13.59238277">
        <ele>149.00000</ele>
        <time>2024-02-02T14:11:05Z</time>
      </trkpt>
      <trkpt lat="42.85121211" lon="13.59245971">
        <ele>149.00000</ele>
        <time>2024-02-02T14:11:06Z</time>
      </trkpt>
      <trkpt lat="42.85120817" lon="13.59253398">
        <ele>149.00000</ele>
        <time>2024-02-02T14:11:07Z</time>
      </trkpt>
      <trkpt lat="42.85121060" lon="13.59261193">
        <ele>149.00000</ele>
        <time>2024-02-02T14:11:08Z</time>
      </trkpt>
      <trkpt lat="42.85121287" lon="13.59269491">
        <ele>148.00000</ele>
        <time>2024-02-02T14:11:09Z</time>
      </trkpt>
      <trkpt lat="42.85120683" lon="13.59278233">
        <ele>148.00000</ele>
        <time>2024-02-02T14:11:10Z</time>
      </trkpt>
      <trkpt lat="42.85119929" lon="13.59287403">
        <ele>148.00000</ele>
        <time>2024-02-02T14:11:11Z</time>
      </trkpt>
      <trkpt lat="42.85119753" lon="13.59296891">
        <ele>148.00000</ele>
        <time>2024-02-02T14:11:12Z</time>
      </trkpt>
      <trkpt lat="42.85119535" lon="13.59306388">
        <ele>147.00000</ele>
        <time>2024-02-02T14:11:13Z</time>
      </trkpt>
      <trkpt lat="42.85119426" lon="13.59316446">
        <ele>147.00000</ele>
        <time>2024-02-02T14:11:14Z</time>
      </trkpt>
      <trkpt lat="42.85119334" lon="13.59326538">
        <ele>146.00000</ele>
        <time>2024-02-02T14:11:15Z</time>
      </trkpt>
      <trkpt lat="42.85118764" lon="13.59335985">
        <ele>146.00000</ele>
        <time>2024-02-02T14:11:16Z</time>
      </trkpt>
      <trkpt lat="42.85119216" lon="13.59346051">
        <ele>146.00000</ele>
        <time>2024-02-02T14:11:17Z</time>
      </trkpt>
      <trkpt lat="42.85118554" lon="13.59355783">
        <ele>146.00000</ele>
        <time>2024-02-02T14:11:18Z</time>
      </trkpt>
      <trkpt lat="42.85116090" lon="13.59365439">
        <ele>145.00000</ele>
        <time>2024-02-02T14:11:19Z</time>
      </trkpt>
      <trkpt lat="42.85114221" lon="13.59375061">
        <ele>145.00000</ele>
        <time>2024-02-02T14:11:20Z</time>
      </trkpt>
      <trkpt lat="42.85111974" lon="13.59384876">
        <ele>145.00000</ele>
        <time>2024-02-02T14:11:21Z</time>
      </trkpt>
      <trkpt lat="42.85103165" lon="13.59395110">
        <ele>144.00000</ele>
        <time>2024-02-02T14:11:22Z</time>
      </trkpt>
      <trkpt lat="42.85100231" lon="13.59405328">
        <ele>144.00000</ele>
        <time>2024-02-02T14:11:23Z</time>
      </trkpt>
      <trkpt lat="42.85098161" lon="13.59415839">
        <ele>144.00000</ele>
        <time>2024-02-02T14:11:24Z</time>
      </trkpt>
      <trkpt lat="42.85096158" lon="13.59425738">
        <ele>144.00000</ele>
        <time>2024-02-02T14:11:25Z</time>
      </trkpt>
      <trkpt lat="42.85095462" lon="13.59435411">
        <ele>143.00000</ele>
        <time>2024-02-02T14:11:26Z</time>
      </trkpt>
      <trkpt lat="42.85096661" lon="13.59445486">
        <ele>143.00000</ele>
        <time>2024-02-02T14:11:27Z</time>
      </trkpt>
      <trkpt lat="42.85097549" lon="13.59455586">
        <ele>143.00000</ele>
        <time>2024-02-02T14:11:28Z</time>
      </trkpt>
      <trkpt lat="42.85097700" lon="13.59466155">
        <ele>142.00000</ele>
        <time>2024-02-02T14:11:29Z</time>
      </trkpt>
      <trkpt lat="42.85101539" lon="13.59477262">
        <ele>142.00000</ele>
        <time>2024-02-02T14:11:30Z</time>
      </trkpt>
      <trkpt lat="42.85100986" lon="13.59487320">
        <ele>142.00000</ele>
        <time>2024-02-02T14:11:31Z</time>
      </trkpt>
      <trkpt lat="42.85100910" lon="13.59497579">
        <ele>141.00000</ele>
        <time>2024-02-02T14:11:32Z</time>
      </trkpt>
      <trkpt lat="42.85099368" lon="13.59507470">
        <ele>141.00000</ele>
        <time>2024-02-02T14:11:33Z</time>
      </trkpt>
      <trkpt lat="42.85097851" lon="13.59517327">
        <ele>140.00000</ele>
        <time>2024-02-02T14:11:34Z</time>
      </trkpt>
      <trkpt lat="42.85096124" lon="13.59527394">
        <ele>140.00000</ele>
        <time>2024-02-02T14:11:35Z</time>
      </trkpt>
      <trkpt lat="42.85094632" lon="13.59537519">
        <ele>139.00000</ele>
        <time>2024-02-02T14:11:36Z</time>
      </trkpt>
      <trkpt lat="42.85092998" lon="13.59547669">
        <ele>139.00000</ele>
        <time>2024-02-02T14:11:37Z</time>
      </trkpt>
      <trkpt lat="42.85091145" lon="13.59557887">
        <ele>139.00000</ele>
        <time>2024-02-02T14:11:38Z</time>
      </trkpt>
      <trkpt lat="42.85089452" lon="13.59568155">
        <ele>139.00000</ele>
        <time>2024-02-02T14:11:39Z</time>
      </trkpt>
      <trkpt lat="42.85087784" lon="13.59578448">
        <ele>139.00000</ele>
        <time>2024-02-02T14:11:40Z</time>
      </trkpt>
      <trkpt lat="42.85085882" lon="13.59588766">
        <ele>139.00000</ele>
        <time>2024-02-02T14:11:41Z</time>
      </trkpt>
      <trkpt lat="42.85083836" lon="13.59599176">
        <ele>139.00000</ele>
        <time>2024-02-02T14:11:42Z</time>
      </trkpt>
      <trkpt lat="42.85082344" lon="13.59609075">
        <ele>140.00000</ele>
        <time>2024-02-02T14:11:43Z</time>
      </trkpt>
      <trkpt lat="42.85080316" lon="13.59619125">
        <ele>140.00000</ele>
        <time>2024-02-02T14:11:44Z</time>
      </trkpt>
      <trkpt lat="42.85078547" lon="13.59629360">
        <ele>140.00000</ele>
        <time>2024-02-02T14:11:45Z</time>
      </trkpt>
      <trkpt lat="42.85076804" lon="13.59639619">
        <ele>140.00000</ele>
        <time>2024-02-02T14:11:46Z</time>
      </trkpt>
      <trkpt lat="42.85074432" lon="13.59649878">
        <ele>140.00000</ele>
        <time>2024-02-02T14:11:47Z</time>
      </trkpt>
      <trkpt lat="42.85072479" lon="13.59659803">
        <ele>140.00000</ele>
        <time>2024-02-02T14:11:48Z</time>
      </trkpt>
      <trkpt lat="42.85070761" lon="13.59669718">
        <ele>140.00000</ele>
        <time>2024-02-02T14:11:49Z</time>
      </trkpt>
      <trkpt lat="42.85069403" lon="13.59679592">
        <ele>140.00000</ele>
        <time>2024-02-02T14:11:50Z</time>
      </trkpt>
      <trkpt lat="42.85068640" lon="13.59689491">
        <ele>140.00000</ele>
        <time>2024-02-02T14:11:51Z</time>
      </trkpt>
      <trkpt lat="42.85067886" lon="13.59699089">
        <ele>139.00000</ele>
        <time>2024-02-02T14:11:52Z</time>
      </trkpt>
      <trkpt lat="42.85065899" lon="13.59707915">
        <ele>139.00000</ele>
        <time>2024-02-02T14:11:53Z</time>
      </trkpt>
      <trkpt lat="42.85063167" lon="13.59716448">
        <ele>139.00000</ele>
        <time>2024-02-02T14:11:54Z</time>
      </trkpt>
      <trkpt lat="42.85060526" lon="13.59724737">
        <ele>139.00000</ele>
        <time>2024-02-02T14:11:55Z</time>
      </trkpt>
      <trkpt lat="42.85057350" lon="13.59732474">
        <ele>138.00000</ele>
        <time>2024-02-02T14:11:56Z</time>
      </trkpt>
      <trkpt lat="42.85054600" lon="13.59740386">
        <ele>138.00000</ele>
        <time>2024-02-02T14:11:57Z</time>
      </trkpt>
      <trkpt lat="42.85052069" lon="13.59748391">
        <ele>137.00000</ele>
        <time>2024-02-02T14:11:58Z</time>
      </trkpt>
      <trkpt lat="42.85049881" lon="13.59756379">
        <ele>137.00000</ele>
        <time>2024-02-02T14:11:59Z</time>
      </trkpt>
      <trkpt lat="42.85047593" lon="13.59764166">
        <ele>136.00000</ele>
        <time>2024-02-02T14:12:00Z</time>
      </trkpt>
      <trkpt lat="42.85045439" lon="13.59771550">
        <ele>136.00000</ele>
        <time>2024-02-02T14:12:01Z</time>
      </trkpt>
      <trkpt lat="42.85043838" lon="13.59778943">
        <ele>136.00000</ele>
        <time>2024-02-02T14:12:02Z</time>
      </trkpt>
      <trkpt lat="42.85042346" lon="13.59786855">
        <ele>135.00000</ele>
        <time>2024-02-02T14:12:03Z</time>
      </trkpt>
      <trkpt lat="42.85039965" lon="13.59794667">
        <ele>135.00000</ele>
        <time>2024-02-02T14:12:04Z</time>
      </trkpt>
      <trkpt lat="42.85037350" lon="13.59802236">
        <ele>135.00000</ele>
        <time>2024-02-02T14:12:05Z</time>
      </trkpt>
      <trkpt lat="42.85034735" lon="13.59810006">
        <ele>135.00000</ele>
        <time>2024-02-02T14:12:06Z</time>
      </trkpt>
      <trkpt lat="42.85032179" lon="13.59817810">
        <ele>135.00000</ele>
        <time>2024-02-02T14:12:07Z</time>
      </trkpt>
      <trkpt lat="42.85029371" lon="13.59825161">
        <ele>134.00000</ele>
        <time>2024-02-02T14:12:08Z</time>
      </trkpt>
      <trkpt lat="42.85026814" lon="13.59831900">
        <ele>135.00000</ele>
        <time>2024-02-02T14:12:09Z</time>
      </trkpt>
      <trkpt lat="42.85022749" lon="13.59836904">
        <ele>135.00000</ele>
        <time>2024-02-02T14:12:10Z</time>
      </trkpt>
      <trkpt lat="42.85019430" lon="13.59839485">
        <ele>135.00000</ele>
        <time>2024-02-02T14:12:11Z</time>
      </trkpt>
      <trkpt lat="42.85014518" lon="13.59840332">
        <ele>135.00000</ele>
        <time>2024-02-02T14:12:12Z</time>
      </trkpt>
      <trkpt lat="42.85009028" lon="13.59841187">
        <ele>135.00000</ele>
        <time>2024-02-02T14:12:13Z</time>
      </trkpt>
      <trkpt lat="42.85004602" lon="13.59844791">
        <ele>135.00000</ele>
        <time>2024-02-02T14:12:14Z</time>
      </trkpt>
      <trkpt lat="42.85001258" lon="13.59851572">
        <ele>134.00000</ele>
        <time>2024-02-02T14:12:15Z</time>
      </trkpt>
      <trkpt lat="42.84998634" lon="13.59859870">
        <ele>134.00000</ele>
        <time>2024-02-02T14:12:16Z</time>
      </trkpt>
      <trkpt lat="42.84996413" lon="13.59868914">
        <ele>133.00000</ele>
        <time>2024-02-02T14:12:17Z</time>
      </trkpt>
      <trkpt lat="42.84993773" lon="13.59878067">
        <ele>132.00000</ele>
        <time>2024-02-02T14:12:18Z</time>
      </trkpt>
      <trkpt lat="42.84990437" lon="13.59886667">
        <ele>132.00000</ele>
        <time>2024-02-02T14:12:19Z</time>
      </trkpt>
      <trkpt lat="42.84987134" lon="13.59895393">
        <ele>131.00000</ele>
        <time>2024-02-02T14:12:20Z</time>
      </trkpt>
      <trkpt lat="42.84982843" lon="13.59904303">
        <ele>131.00000</ele>
        <time>2024-02-02T14:12:21Z</time>
      </trkpt>
      <trkpt lat="42.84978811" lon="13.59913598">
        <ele>130.00000</ele>
        <time>2024-02-02T14:12:22Z</time>
      </trkpt>
      <trkpt lat="42.84975408" lon="13.59922684">
        <ele>130.00000</ele>
        <time>2024-02-02T14:12:23Z</time>
      </trkpt>
      <trkpt lat="42.84971452" lon="13.59931326">
        <ele>130.00000</ele>
        <time>2024-02-02T14:12:24Z</time>
      </trkpt>
      <trkpt lat="42.84967739" lon="13.59939876">
        <ele>130.00000</ele>
        <time>2024-02-02T14:12:25Z</time>
      </trkpt>
      <trkpt lat="42.84964051" lon="13.59947905">
        <ele>130.00000</ele>
        <time>2024-02-02T14:12:26Z</time>
      </trkpt>
      <trkpt lat="42.84960983" lon="13.59956312">
        <ele>129.00000</ele>
        <time>2024-02-02T14:12:27Z</time>
      </trkpt>
      <trkpt lat="42.84957932" lon="13.59965792">
        <ele>129.00000</ele>
        <time>2024-02-02T14:12:28Z</time>
      </trkpt>
      <trkpt lat="42.84952928" lon="13.59975423">
        <ele>129.00000</ele>
        <time>2024-02-02T14:12:29Z</time>
      </trkpt>
      <trkpt lat="42.84949634" lon="13.59985096">
        <ele>129.00000</ele>
        <time>2024-02-02T14:12:30Z</time>
      </trkpt>
      <trkpt lat="42.84945946" lon="13.59995481">
        <ele>129.00000</ele>
        <time>2024-02-02T14:12:31Z</time>
      </trkpt>
      <trkpt lat="42.84943222" lon="13.60004131">
        <ele>128.00000</ele>
        <time>2024-02-02T14:12:32Z</time>
      </trkpt>
      <trkpt lat="42.84940875" lon="13.60013100">
        <ele>128.00000</ele>
        <time>2024-02-02T14:12:33Z</time>
      </trkpt>
      <trkpt lat="42.84937597" lon="13.60021071">
        <ele>128.00000</ele>
        <time>2024-02-02T14:12:34Z</time>
      </trkpt>
      <trkpt lat="42.84936717" lon="13.60030509">
        <ele>128.00000</ele>
        <time>2024-02-02T14:12:35Z</time>
      </trkpt>
      <trkpt lat="42.84934052" lon="13.60039402">
        <ele>128.00000</ele>
        <time>2024-02-02T14:12:36Z</time>
      </trkpt>
      <trkpt lat="42.84931034" lon="13.60047876">
        <ele>128.00000</ele>
        <time>2024-02-02T14:12:37Z</time>
      </trkpt>
      <trkpt lat="42.84928092" lon="13.60056753">
        <ele>128.00000</ele>
        <time>2024-02-02T14:12:38Z</time>
      </trkpt>
      <trkpt lat="42.84925075" lon="13.60065881">
        <ele>128.00000</ele>
        <time>2024-02-02T14:12:39Z</time>
      </trkpt>
      <trkpt lat="42.84922535" lon="13.60075696">
        <ele>128.00000</ele>
        <time>2024-02-02T14:12:40Z</time>
      </trkpt>
      <trkpt lat="42.84919719" lon="13.60085880">
        <ele>127.00000</ele>
        <time>2024-02-02T14:12:41Z</time>
      </trkpt>
      <trkpt lat="42.84917665" lon="13.60096139">
        <ele>127.00000</ele>
        <time>2024-02-02T14:12:42Z</time>
      </trkpt>
      <trkpt lat="42.84915402" lon="13.60106340">
        <ele>127.00000</ele>
        <time>2024-02-02T14:12:43Z</time>
      </trkpt>
      <trkpt lat="42.84913407" lon="13.60116398">
        <ele>126.00000</ele>
        <time>2024-02-02T14:12:44Z</time>
      </trkpt>
      <trkpt lat="42.84910968" lon="13.60126130">
        <ele>126.00000</ele>
        <time>2024-02-02T14:12:45Z</time>
      </trkpt>
      <trkpt lat="42.84908931" lon="13.60135987">
        <ele>125.00000</ele>
        <time>2024-02-02T14:12:46Z</time>
      </trkpt>
      <trkpt lat="42.84906978" lon="13.60145852">
        <ele>125.00000</ele>
        <time>2024-02-02T14:12:47Z</time>
      </trkpt>
      <trkpt lat="42.84905193" lon="13.60155676">
        <ele>125.00000</ele>
        <time>2024-02-02T14:12:48Z</time>
      </trkpt>
      <trkpt lat="42.84903584" lon="13.60165449">
        <ele>125.00000</ele>
        <time>2024-02-02T14:12:49Z</time>
      </trkpt>
      <trkpt lat="42.84901589" lon="13.60174871">
        <ele>126.00000</ele>
        <time>2024-02-02T14:12:50Z</time>
      </trkpt>
      <trkpt lat="42.84899636" lon="13.60184024">
        <ele>126.00000</ele>
        <time>2024-02-02T14:12:51Z</time>
      </trkpt>
      <trkpt lat="42.84897859" lon="13.60192590">
        <ele>126.00000</ele>
        <time>2024-02-02T14:12:52Z</time>
      </trkpt>
      <trkpt lat="42.84896224" lon="13.60200913">
        <ele>127.00000</ele>
        <time>2024-02-02T14:12:53Z</time>
      </trkpt>
      <trkpt lat="42.84894690" lon="13.60208692">
        <ele>127.00000</ele>
        <time>2024-02-02T14:12:54Z</time>
      </trkpt>
      <trkpt lat="42.84893542" lon="13.60215288">
        <ele>128.00000</ele>
        <time>2024-02-02T14:12:55Z</time>
      </trkpt>
      <trkpt lat="42.84892134" lon="13.60221315">
        <ele>128.00000</ele>
        <time>2024-02-02T14:12:56Z</time>
      </trkpt>
      <trkpt lat="42.84890173" lon="13.60225564">
        <ele>128.00000</ele>
        <time>2024-02-02T14:12:57Z</time>
      </trkpt>
      <trkpt lat="42.84888253" lon="13.60228288">
        <ele>128.00000</ele>
        <time>2024-02-02T14:12:58Z</time>
      </trkpt>
      <trkpt lat="42.84886049" lon="13.60230878">
        <ele>128.00000</ele>
        <time>2024-02-02T14:12:59Z</time>
      </trkpt>
      <trkpt lat="42.84883987" lon="13.60234810">
        <ele>128.00000</ele>
        <time>2024-02-02T14:13:00Z</time>
      </trkpt>
      <trkpt lat="42.84882729" lon="13.60239554">
        <ele>128.00000</ele>
        <time>2024-02-02T14:13:01Z</time>
      </trkpt>
      <trkpt lat="42.84883635" lon="13.60245052">
        <ele>128.00000</ele>
        <time>2024-02-02T14:13:02Z</time>
      </trkpt>
      <trkpt lat="42.84886049" lon="13.60250341">
        <ele>128.00000</ele>
        <time>2024-02-02T14:13:03Z</time>
      </trkpt>
      <trkpt lat="42.84888563" lon="13.60255924">
        <ele>128.00000</ele>
        <time>2024-02-02T14:13:04Z</time>
      </trkpt>
      <trkpt lat="42.84889435" lon="13.60262051">
        <ele>127.00000</ele>
        <time>2024-02-02T14:13:05Z</time>
      </trkpt>
      <trkpt lat="42.84888714" lon="13.60269066">
        <ele>128.00000</ele>
        <time>2024-02-02T14:13:06Z</time>
      </trkpt>
      <trkpt lat="42.84887256" lon="13.60276686">
        <ele>128.00000</ele>
        <time>2024-02-02T14:13:07Z</time>
      </trkpt>
      <trkpt lat="42.84885386" lon="13.60284724">
        <ele>127.00000</ele>
        <time>2024-02-02T14:13:08Z</time>
      </trkpt>
      <trkpt lat="42.84883299" lon="13.60293525">
        <ele>127.00000</ele>
        <time>2024-02-02T14:13:09Z</time>
      </trkpt>
      <trkpt lat="42.84880944" lon="13.60302426">
        <ele>127.00000</ele>
        <time>2024-02-02T14:13:10Z</time>
      </trkpt>
      <trkpt lat="42.84878312" lon="13.60311353">
        <ele>127.00000</ele>
        <time>2024-02-02T14:13:11Z</time>
      </trkpt>
      <trkpt lat="42.84876032" lon="13.60320364">
        <ele>127.00000</ele>
        <time>2024-02-02T14:13:12Z</time>
      </trkpt>
      <trkpt lat="42.84873903" lon="13.60329709">
        <ele>127.00000</ele>
        <time>2024-02-02T14:13:13Z</time>
      </trkpt>
      <trkpt lat="42.84871565" lon="13.60338988">
        <ele>127.00000</ele>
        <time>2024-02-02T14:13:14Z</time>
      </trkpt>
      <trkpt lat="42.84869796" lon="13.60348602">
        <ele>127.00000</ele>
        <time>2024-02-02T14:13:15Z</time>
      </trkpt>
      <trkpt lat="42.84867919" lon="13.60358367">
        <ele>127.00000</ele>
        <time>2024-02-02T14:13:16Z</time>
      </trkpt>
      <trkpt lat="42.84866142" lon="13.60367906">
        <ele>127.00000</ele>
        <time>2024-02-02T14:13:17Z</time>
      </trkpt>
      <trkpt lat="42.84864147" lon="13.60377268">
        <ele>127.00000</ele>
        <time>2024-02-02T14:13:18Z</time>
      </trkpt>
      <trkpt lat="42.84862345" lon="13.60386882">
        <ele>127.00000</ele>
        <time>2024-02-02T14:13:19Z</time>
      </trkpt>
      <trkpt lat="42.84860509" lon="13.60396672">
        <ele>127.00000</ele>
        <time>2024-02-02T14:13:20Z</time>
      </trkpt>
      <trkpt lat="42.84858472" lon="13.60406253">
        <ele>127.00000</ele>
        <time>2024-02-02T14:13:21Z</time>
      </trkpt>
      <trkpt lat="42.84856385" lon="13.60415423">
        <ele>127.00000</ele>
        <time>2024-02-02T14:13:22Z</time>
      </trkpt>
      <trkpt lat="42.84853678" lon="13.60424919">
        <ele>127.00000</ele>
        <time>2024-02-02T14:13:23Z</time>
      </trkpt>
      <trkpt lat="42.84851498" lon="13.60434466">
        <ele>127.00000</ele>
        <time>2024-02-02T14:13:24Z</time>
      </trkpt>
      <trkpt lat="42.84849453" lon="13.60444399">
        <ele>127.00000</ele>
        <time>2024-02-02T14:13:25Z</time>
      </trkpt>
      <trkpt lat="42.84847576" lon="13.60454298">
        <ele>126.00000</ele>
        <time>2024-02-02T14:13:26Z</time>
      </trkpt>
      <trkpt lat="42.84845916" lon="13.60464189">
        <ele>126.00000</ele>
        <time>2024-02-02T14:13:27Z</time>
      </trkpt>
      <trkpt lat="42.84844156" lon="13.60474180">
        <ele>125.00000</ele>
        <time>2024-02-02T14:13:28Z</time>
      </trkpt>
      <trkpt lat="42.84842412" lon="13.60484037">
        <ele>125.00000</ele>
        <time>2024-02-02T14:13:29Z</time>
      </trkpt>
      <trkpt lat="42.84840350" lon="13.60493869">
        <ele>125.00000</ele>
        <time>2024-02-02T14:13:30Z</time>
      </trkpt>
      <trkpt lat="42.84838230" lon="13.60503969">
        <ele>124.00000</ele>
        <time>2024-02-02T14:13:31Z</time>
      </trkpt>
      <trkpt lat="42.84835690" lon="13.60513734">
        <ele>124.00000</ele>
        <time>2024-02-02T14:13:32Z</time>
      </trkpt>
      <trkpt lat="42.84832681" lon="13.60523038">
        <ele>124.00000</ele>
        <time>2024-02-02T14:13:33Z</time>
      </trkpt>
      <trkpt lat="42.84829186" lon="13.60531738">
        <ele>124.00000</ele>
        <time>2024-02-02T14:13:34Z</time>
      </trkpt>
      <trkpt lat="42.84825565" lon="13.60540305">
        <ele>124.00000</ele>
        <time>2024-02-02T14:13:35Z</time>
      </trkpt>
      <trkpt lat="42.84821768" lon="13.60548620">
        <ele>124.00000</ele>
        <time>2024-02-02T14:13:36Z</time>
      </trkpt>
      <trkpt lat="42.84817937" lon="13.60557010">
        <ele>125.00000</ele>
        <time>2024-02-02T14:13:37Z</time>
      </trkpt>
      <trkpt lat="42.84814216" lon="13.60565903">
        <ele>125.00000</ele>
        <time>2024-02-02T14:13:38Z</time>
      </trkpt>
      <trkpt lat="42.84810100" lon="13.60574830">
        <ele>125.00000</ele>
        <time>2024-02-02T14:13:39Z</time>
      </trkpt>
      <trkpt lat="42.84806379" lon="13.60583555">
        <ele>125.00000</ele>
        <time>2024-02-02T14:13:40Z</time>
      </trkpt>
      <trkpt lat="42.84802288" lon="13.60592113">
        <ele>125.00000</ele>
        <time>2024-02-02T14:13:41Z</time>
      </trkpt>
      <trkpt lat="42.84798047" lon="13.60600193">
        <ele>125.00000</ele>
        <time>2024-02-02T14:13:42Z</time>
      </trkpt>
      <trkpt lat="42.84794434" lon="13.60608466">
        <ele>125.00000</ele>
        <time>2024-02-02T14:13:43Z</time>
      </trkpt>
      <trkpt lat="42.84790419" lon="13.60616739">
        <ele>124.00000</ele>
        <time>2024-02-02T14:13:44Z</time>
      </trkpt>
      <trkpt lat="42.84786857" lon="13.60625054">
        <ele>124.00000</ele>
        <time>2024-02-02T14:13:45Z</time>
      </trkpt>
      <trkpt lat="42.84783094" lon="13.60633159">
        <ele>124.00000</ele>
        <time>2024-02-02T14:13:46Z</time>
      </trkpt>
      <trkpt lat="42.84779565" lon="13.60641726">
        <ele>124.00000</ele>
        <time>2024-02-02T14:13:47Z</time>
      </trkpt>
      <trkpt lat="42.84776204" lon="13.60650334">
        <ele>123.00000</ele>
        <time>2024-02-02T14:13:48Z</time>
      </trkpt>
      <trkpt lat="42.84772004" lon="13.60658934">
        <ele>123.00000</ele>
        <time>2024-02-02T14:13:49Z</time>
      </trkpt>
      <trkpt lat="42.84768316" lon="13.60667601">
        <ele>123.00000</ele>
        <time>2024-02-02T14:13:50Z</time>
      </trkpt>
      <trkpt lat="42.84764922" lon="13.60676318">
        <ele>123.00000</ele>
        <time>2024-02-02T14:13:51Z</time>
      </trkpt>
      <trkpt lat="42.84761368" lon="13.60685429">
        <ele>123.00000</ele>
        <time>2024-02-02T14:13:52Z</time>
      </trkpt>
      <trkpt lat="42.84757395" lon="13.60694020">
        <ele>123.00000</ele>
        <time>2024-02-02T14:13:53Z</time>
      </trkpt>
      <trkpt lat="42.84753673" lon="13.60702813">
        <ele>123.00000</ele>
        <time>2024-02-02T14:13:54Z</time>
      </trkpt>
      <trkpt lat="42.84750228" lon="13.60711706">
        <ele>123.00000</ele>
        <time>2024-02-02T14:13:55Z</time>
      </trkpt>
      <trkpt lat="42.84746423" lon="13.60720667">
        <ele>122.00000</ele>
        <time>2024-02-02T14:13:56Z</time>
      </trkpt>
      <trkpt lat="42.84743296" lon="13.60729996">
        <ele>122.00000</ele>
        <time>2024-02-02T14:13:57Z</time>
      </trkpt>
      <trkpt lat="42.84740472" lon="13.60739593">
        <ele>121.00000</ele>
        <time>2024-02-02T14:13:58Z</time>
      </trkpt>
      <trkpt lat="42.84738007" lon="13.60749425">
        <ele>121.00000</ele>
        <time>2024-02-02T14:13:59Z</time>
      </trkpt>
      <trkpt lat="42.84735199" lon="13.60759232">
        <ele>121.00000</ele>
        <time>2024-02-02T14:14:00Z</time>
      </trkpt>
      <trkpt lat="42.84732475" lon="13.60769147">
        <ele>121.00000</ele>
        <time>2024-02-02T14:14:01Z</time>
      </trkpt>
      <trkpt lat="42.84729919" lon="13.60779197">
        <ele>121.00000</ele>
        <time>2024-02-02T14:14:02Z</time>
      </trkpt>
      <trkpt lat="42.84727044" lon="13.60789256">
        <ele>121.00000</ele>
        <time>2024-02-02T14:14:03Z</time>
      </trkpt>
      <trkpt lat="42.84724261" lon="13.60799582">
        <ele>121.00000</ele>
        <time>2024-02-02T14:14:04Z</time>
      </trkpt>
      <trkpt lat="42.84721688" lon="13.60810018">
        <ele>121.00000</ele>
        <time>2024-02-02T14:14:05Z</time>
      </trkpt>
      <trkpt lat="42.84718846" lon="13.60820168">
        <ele>121.00000</ele>
        <time>2024-02-02T14:14:06Z</time>
      </trkpt>
      <trkpt lat="42.84715284" lon="13.60830126">
        <ele>122.00000</ele>
        <time>2024-02-02T14:14:07Z</time>
      </trkpt>
      <trkpt lat="42.84712107" lon="13.60840620">
        <ele>122.00000</ele>
        <time>2024-02-02T14:14:08Z</time>
      </trkpt>
      <trkpt lat="42.84708729" lon="13.60851106">
        <ele>122.00000</ele>
        <time>2024-02-02T14:14:09Z</time>
      </trkpt>
      <trkpt lat="42.84705528" lon="13.60861734">
        <ele>122.00000</ele>
        <time>2024-02-02T14:14:10Z</time>
      </trkpt>
      <trkpt lat="42.84702552" lon="13.60872387">
        <ele>122.00000</ele>
        <time>2024-02-02T14:14:11Z</time>
      </trkpt>
      <trkpt lat="42.84699778" lon="13.60883242">
        <ele>122.00000</ele>
        <time>2024-02-02T14:14:12Z</time>
      </trkpt>
      <trkpt lat="42.84697045" lon="13.60894298">
        <ele>123.00000</ele>
        <time>2024-02-02T14:14:13Z</time>
      </trkpt>
      <trkpt lat="42.84694438" lon="13.60905043">
        <ele>123.00000</ele>
        <time>2024-02-02T14:14:14Z</time>
      </trkpt>
      <trkpt lat="42.84691957" lon="13.60915915">
        <ele>123.00000</ele>
        <time>2024-02-02T14:14:15Z</time>
      </trkpt>
      <trkpt lat="42.84689770" lon="13.60926912">
        <ele>123.00000</ele>
        <time>2024-02-02T14:14:16Z</time>
      </trkpt>
      <trkpt lat="42.84688177" lon="13.60938018">
        <ele>123.00000</ele>
        <time>2024-02-02T14:14:17Z</time>
      </trkpt>
      <trkpt lat="42.84685914" lon="13.60948914">
        <ele>123.00000</ele>
        <time>2024-02-02T14:14:18Z</time>
      </trkpt>
      <trkpt lat="42.84683735" lon="13.60959936">
        <ele>123.00000</ele>
        <time>2024-02-02T14:14:19Z</time>
      </trkpt>
      <trkpt lat="42.84681874" lon="13.60970824">
        <ele>122.00000</ele>
        <time>2024-02-02T14:14:20Z</time>
      </trkpt>
      <trkpt lat="42.84680072" lon="13.60981939">
        <ele>122.00000</ele>
        <time>2024-02-02T14:14:21Z</time>
      </trkpt>
      <trkpt lat="42.84678018" lon="13.60992835">
        <ele>121.00000</ele>
        <time>2024-02-02T14:14:22Z</time>
      </trkpt>
      <trkpt lat="42.84675680" lon="13.61003556">
        <ele>121.00000</ele>
        <time>2024-02-02T14:14:23Z</time>
      </trkpt>
      <trkpt lat="42.84673173" lon="13.61014100">
        <ele>120.00000</ele>
        <time>2024-02-02T14:14:24Z</time>
      </trkpt>
      <trkpt lat="42.84670617" lon="13.61024829">
        <ele>120.00000</ele>
        <time>2024-02-02T14:14:25Z</time>
      </trkpt>
      <trkpt lat="42.84668354" lon="13.61035591">
        <ele>119.00000</ele>
        <time>2024-02-02T14:14:26Z</time>
      </trkpt>
      <trkpt lat="42.84666325" lon="13.61046572">
        <ele>119.00000</ele>
        <time>2024-02-02T14:14:27Z</time>
      </trkpt>
      <trkpt lat="42.84664029" lon="13.61057586">
        <ele>119.00000</ele>
        <time>2024-02-02T14:14:28Z</time>
      </trkpt>
      <trkpt lat="42.84660953" lon="13.61068440">
        <ele>119.00000</ele>
        <time>2024-02-02T14:14:29Z</time>
      </trkpt>
      <trkpt lat="42.84659276" lon="13.61079588">
        <ele>119.00000</ele>
        <time>2024-02-02T14:14:30Z</time>
      </trkpt>
      <trkpt lat="42.84657122" lon="13.61090702">
        <ele>118.00000</ele>
        <time>2024-02-02T14:14:31Z</time>
      </trkpt>
      <trkpt lat="42.84656066" lon="13.61102085">
        <ele>118.00000</ele>
        <time>2024-02-02T14:14:32Z</time>
      </trkpt>
      <trkpt lat="42.84654851" lon="13.61113451">
        <ele>118.00000</ele>
        <time>2024-02-02T14:14:33Z</time>
      </trkpt>
      <trkpt lat="42.84653375" lon="13.61124775">
        <ele>118.00000</ele>
        <time>2024-02-02T14:14:34Z</time>
      </trkpt>
      <trkpt lat="42.84651339" lon="13.61135847">
        <ele>119.00000</ele>
        <time>2024-02-02T14:14:35Z</time>
      </trkpt>
      <trkpt lat="42.84649754" lon="13.61147213">
        <ele>119.00000</ele>
        <time>2024-02-02T14:14:36Z</time>
      </trkpt>
      <trkpt lat="42.84648380" lon="13.61158571">
        <ele>119.00000</ele>
        <time>2024-02-02T14:14:37Z</time>
      </trkpt>
      <trkpt lat="42.84646695" lon="13.61169744">
        <ele>119.00000</ele>
        <time>2024-02-02T14:14:38Z</time>
      </trkpt>
      <trkpt lat="42.84645010" lon="13.61180934">
        <ele>119.00000</ele>
        <time>2024-02-02T14:14:39Z</time>
      </trkpt>
      <trkpt lat="42.84643225" lon="13.61192040">
        <ele>119.00000</ele>
        <time>2024-02-02T14:14:40Z</time>
      </trkpt>
      <trkpt lat="42.84641716" lon="13.61203087">
        <ele>120.00000</ele>
        <time>2024-02-02T14:14:41Z</time>
      </trkpt>
      <trkpt lat="42.84640090" lon="13.61214084">
        <ele>120.00000</ele>
        <time>2024-02-02T14:14:42Z</time>
      </trkpt>
      <trkpt lat="42.84638397" lon="13.61224922">
        <ele>121.00000</ele>
        <time>2024-02-02T14:14:43Z</time>
      </trkpt>
      <trkpt lat="42.84636419" lon="13.61235718">
        <ele>121.00000</ele>
        <time>2024-02-02T14:14:44Z</time>
      </trkpt>
      <trkpt lat="42.84634516" lon="13.61246396">
        <ele>121.00000</ele>
        <time>2024-02-02T14:14:45Z</time>
      </trkpt>
      <trkpt lat="42.84632471" lon="13.61257217">
        <ele>121.00000</ele>
        <time>2024-02-02T14:14:46Z</time>
      </trkpt>
      <trkpt lat="42.84630660" lon="13.61268105">
        <ele>121.00000</ele>
        <time>2024-02-02T14:14:47Z</time>
      </trkpt>
      <trkpt lat="42.84629118" lon="13.61279077">
        <ele>121.00000</ele>
        <time>2024-02-02T14:14:48Z</time>
      </trkpt>
      <trkpt lat="42.84627266" lon="13.61289957">
        <ele>121.00000</ele>
        <time>2024-02-02T14:14:49Z</time>
      </trkpt>
      <trkpt lat="42.84625581" lon="13.61300594">
        <ele>121.00000</ele>
        <time>2024-02-02T14:14:50Z</time>
      </trkpt>
      <trkpt lat="42.84623879" lon="13.61311364">
        <ele>120.00000</ele>
        <time>2024-02-02T14:14:51Z</time>
      </trkpt>
      <trkpt lat="42.84622329" lon="13.61322194">
        <ele>120.00000</ele>
        <time>2024-02-02T14:14:52Z</time>
      </trkpt>
      <trkpt lat="42.84620543" lon="13.61332939">
        <ele>120.00000</ele>
        <time>2024-02-02T14:14:53Z</time>
      </trkpt>
      <trkpt lat="42.84618758" lon="13.61343802">
        <ele>119.00000</ele>
        <time>2024-02-02T14:14:54Z</time>
      </trkpt>
      <trkpt lat="42.84616218" lon="13.61356451">
        <ele>119.00000</ele>
        <time>2024-02-02T14:14:55Z</time>
      </trkpt>
      <trkpt lat="42.84614416" lon="13.61364824">
        <ele>119.00000</ele>
        <time>2024-02-02T14:14:56Z</time>
      </trkpt>
      <trkpt lat="42.84611918" lon="13.61375461">
        <ele>118.00000</ele>
        <time>2024-02-02T14:14:57Z</time>
      </trkpt>
      <trkpt lat="42.84608918" lon="13.61386014">
        <ele>118.00000</ele>
        <time>2024-02-02T14:14:58Z</time>
      </trkpt>
      <trkpt lat="42.84605934" lon="13.61396474">
        <ele>117.00000</ele>
        <time>2024-02-02T14:14:59Z</time>
      </trkpt>
      <trkpt lat="42.84602992" lon="13.61406859">
        <ele>117.00000</ele>
        <time>2024-02-02T14:15:00Z</time>
      </trkpt>
      <trkpt lat="42.84599756" lon="13.61417069">
        <ele>116.00000</ele>
        <time>2024-02-02T14:15:01Z</time>
      </trkpt>
      <trkpt lat="42.84596001" lon="13.61426859">
        <ele>116.00000</ele>
        <time>2024-02-02T14:15:02Z</time>
      </trkpt>
      <trkpt lat="42.84591861" lon="13.61436255">
        <ele>116.00000</ele>
        <time>2024-02-02T14:15:03Z</time>
      </trkpt>
      <trkpt lat="42.84587812" lon="13.61445534">
        <ele>116.00000</ele>
        <time>2024-02-02T14:15:04Z</time>
      </trkpt>
      <trkpt lat="42.84584409" lon="13.61455366">
        <ele>116.00000</ele>
        <time>2024-02-02T14:15:05Z</time>
      </trkpt>
      <trkpt lat="42.84580922" lon="13.61465482">
        <ele>117.00000</ele>
        <time>2024-02-02T14:15:06Z</time>
      </trkpt>
      <trkpt lat="42.84577025" lon="13.61475423">
        <ele>117.00000</ele>
        <time>2024-02-02T14:15:07Z</time>
      </trkpt>
      <trkpt lat="42.84572792" lon="13.61485021">
        <ele>117.00000</ele>
        <time>2024-02-02T14:15:08Z</time>
      </trkpt>
      <trkpt lat="42.84568089" lon="13.61494509">
        <ele>117.00000</ele>
        <time>2024-02-02T14:15:09Z</time>
      </trkpt>
      <trkpt lat="42.84563044" lon="13.61503805">
        <ele>117.00000</ele>
        <time>2024-02-02T14:15:10Z</time>
      </trkpt>
      <trkpt lat="42.84558216" lon="13.61512916">
        <ele>117.00000</ele>
        <time>2024-02-02T14:15:11Z</time>
      </trkpt>
      <trkpt lat="42.84553597" lon="13.61522312">
        <ele>117.00000</ele>
        <time>2024-02-02T14:15:12Z</time>
      </trkpt>
      <trkpt lat="42.84548954" lon="13.61531658">
        <ele>117.00000</ele>
        <time>2024-02-02T14:15:13Z</time>
      </trkpt>
      <trkpt lat="42.84544561" lon="13.61540953">
        <ele>117.00000</ele>
        <time>2024-02-02T14:15:14Z</time>
      </trkpt>
      <trkpt lat="42.84540354" lon="13.61550257">
        <ele>117.00000</ele>
        <time>2024-02-02T14:15:15Z</time>
      </trkpt>
      <trkpt lat="42.84535895" lon="13.61559276">
        <ele>117.00000</ele>
        <time>2024-02-02T14:15:16Z</time>
      </trkpt>
      <trkpt lat="42.84530891" lon="13.61567750">
        <ele>117.00000</ele>
        <time>2024-02-02T14:15:17Z</time>
      </trkpt>
      <trkpt lat="42.84526373" lon="13.61576400">
        <ele>117.00000</ele>
        <time>2024-02-02T14:15:18Z</time>
      </trkpt>
      <trkpt lat="42.84521511" lon="13.61585184">
        <ele>117.00000</ele>
        <time>2024-02-02T14:15:19Z</time>
      </trkpt>
      <trkpt lat="42.84516616" lon="13.61594027">
        <ele>118.00000</ele>
        <time>2024-02-02T14:15:20Z</time>
      </trkpt>
      <trkpt lat="42.84512090" lon="13.61603004">
        <ele>118.00000</ele>
        <time>2024-02-02T14:15:21Z</time>
      </trkpt>
      <trkpt lat="42.84507622" lon="13.61611822">
        <ele>119.00000</ele>
        <time>2024-02-02T14:15:22Z</time>
      </trkpt>
      <trkpt lat="42.84503147" lon="13.61620388">
        <ele>119.00000</ele>
        <time>2024-02-02T14:15:23Z</time>
      </trkpt>
      <trkpt lat="42.84499048" lon="13.61629131">
        <ele>119.00000</ele>
        <time>2024-02-02T14:15:24Z</time>
      </trkpt>
      <trkpt lat="42.84494941" lon="13.61638083">
        <ele>119.00000</ele>
        <time>2024-02-02T14:15:25Z</time>
      </trkpt>
      <trkpt lat="42.84490406" lon="13.61647118">
        <ele>119.00000</ele>
        <time>2024-02-02T14:15:26Z</time>
      </trkpt>
      <trkpt lat="42.84486223" lon="13.61655592">
        <ele>119.00000</ele>
        <time>2024-02-02T14:15:27Z</time>
      </trkpt>
      <trkpt lat="42.84482066" lon="13.61664192">
        <ele>118.00000</ele>
        <time>2024-02-02T14:15:28Z</time>
      </trkpt>
      <trkpt lat="42.84477741" lon="13.61672809">
        <ele>118.00000</ele>
        <time>2024-02-02T14:15:29Z</time>
      </trkpt>
      <trkpt lat="42.84473215" lon="13.61680805">
        <ele>118.00000</ele>
        <time>2024-02-02T14:15:30Z</time>
      </trkpt>
      <trkpt lat="42.84468253" lon="13.61688483">
        <ele>118.00000</ele>
        <time>2024-02-02T14:15:31Z</time>
      </trkpt>
      <trkpt lat="42.84462997" lon="13.61695901">
        <ele>118.00000</ele>
        <time>2024-02-02T14:15:32Z</time>
      </trkpt>
      <trkpt lat="42.84457532" lon="13.61702615">
        <ele>119.00000</ele>
        <time>2024-02-02T14:15:33Z</time>
      </trkpt>
      <trkpt lat="42.84451866" lon="13.61708901">
        <ele>120.00000</ele>
        <time>2024-02-02T14:15:34Z</time>
      </trkpt>
      <trkpt lat="42.84446083" lon="13.61715498">
        <ele>120.00000</ele>
        <time>2024-02-02T14:15:35Z</time>
      </trkpt>
      <trkpt lat="42.84440936" lon="13.61723293">
        <ele>121.00000</ele>
        <time>2024-02-02T14:15:36Z</time>
      </trkpt>
      <trkpt lat="42.84437072" lon="13.61732329">
        <ele>120.00000</ele>
        <time>2024-02-02T14:15:37Z</time>
      </trkpt>
      <trkpt lat="42.84434851" lon="13.61742102">
        <ele>120.00000</ele>
        <time>2024-02-02T14:15:38Z</time>
      </trkpt>
      <trkpt lat="42.84434574" lon="13.61752806">
        <ele>119.00000</ele>
        <time>2024-02-02T14:15:39Z</time>
      </trkpt>
      <trkpt lat="42.84435865" lon="13.61763996">
        <ele>118.00000</ele>
        <time>2024-02-02T14:15:40Z</time>
      </trkpt>
      <trkpt lat="42.84436804" lon="13.61775110">
        <ele>118.00000</ele>
        <time>2024-02-02T14:15:41Z</time>
      </trkpt>
      <trkpt lat="42.84437743" lon="13.61786551">
        <ele>117.00000</ele>
        <time>2024-02-02T14:15:42Z</time>
      </trkpt>
      <trkpt lat="42.84437810" lon="13.61798001">
        <ele>115.00000</ele>
        <time>2024-02-02T14:15:43Z</time>
      </trkpt>
      <trkpt lat="42.84437005" lon="13.61809442">
        <ele>115.00000</ele>
        <time>2024-02-02T14:15:44Z</time>
      </trkpt>
      <trkpt lat="42.84435865" lon="13.61820967">
        <ele>114.00000</ele>
        <time>2024-02-02T14:15:45Z</time>
      </trkpt>
      <trkpt lat="42.84434515" lon="13.61832467">
        <ele>113.00000</ele>
        <time>2024-02-02T14:15:46Z</time>
      </trkpt>
      <trkpt lat="42.84432973" lon="13.61843992">
        <ele>113.00000</ele>
        <time>2024-02-02T14:15:47Z</time>
      </trkpt>
      <trkpt lat="42.84431699" lon="13.61855618">
        <ele>113.00000</ele>
        <time>2024-02-02T14:15:48Z</time>
      </trkpt>
      <trkpt lat="42.84430048" lon="13.61867059">
        <ele>113.00000</ele>
        <time>2024-02-02T14:15:49Z</time>
      </trkpt>
      <trkpt lat="42.84428095" lon="13.61878266">
        <ele>114.00000</ele>
        <time>2024-02-02T14:15:50Z</time>
      </trkpt>
      <trkpt lat="42.84426134" lon="13.61889448">
        <ele>115.00000</ele>
        <time>2024-02-02T14:15:51Z</time>
      </trkpt>
      <trkpt lat="42.84424507" lon="13.61900646">
        <ele>115.00000</ele>
        <time>2024-02-02T14:15:52Z</time>
      </trkpt>
      <trkpt lat="42.84422890" lon="13.61911601">
        <ele>115.00000</ele>
        <time>2024-02-02T14:15:53Z</time>
      </trkpt>
      <trkpt lat="42.84420954" lon="13.61921978">
        <ele>116.00000</ele>
        <time>2024-02-02T14:15:54Z</time>
      </trkpt>
      <trkpt lat="42.84418917" lon="13.61934148">
        <ele>116.00000</ele>
        <time>2024-02-02T14:15:55Z</time>
      </trkpt>
      <trkpt lat="42.84417785" lon="13.61941935">
        <ele>116.00000</ele>
        <time>2024-02-02T14:15:56Z</time>
      </trkpt>
      <trkpt lat="42.84416251" lon="13.61951541">
        <ele>117.00000</ele>
        <time>2024-02-02T14:15:57Z</time>
      </trkpt>
      <trkpt lat="42.84414751" lon="13.61960786">
        <ele>117.00000</ele>
        <time>2024-02-02T14:15:58Z</time>
      </trkpt>
      <trkpt lat="42.84413200" lon="13.61969981">
        <ele>117.00000</ele>
        <time>2024-02-02T14:15:59Z</time>
      </trkpt>
      <trkpt lat="42.84411499" lon="13.61978991">
        <ele>117.00000</ele>
        <time>2024-02-02T14:16:00Z</time>
      </trkpt>
      <trkpt lat="42.84409479" lon="13.61987759">
        <ele>117.00000</ele>
        <time>2024-02-02T14:16:01Z</time>
      </trkpt>
      <trkpt lat="42.84407341" lon="13.61996434">
        <ele>117.00000</ele>
        <time>2024-02-02T14:16:02Z</time>
      </trkpt>
      <trkpt lat="42.84405263" lon="13.62004783">
        <ele>117.00000</ele>
        <time>2024-02-02T14:16:03Z</time>
      </trkpt>
      <trkpt lat="42.84403159" lon="13.62012838">
        <ele>117.00000</ele>
        <time>2024-02-02T14:16:04Z</time>
      </trkpt>
      <trkpt lat="42.84401114" lon="13.62020591">
        <ele>117.00000</ele>
        <time>2024-02-02T14:16:05Z</time>
      </trkpt>
      <trkpt lat="42.84398750" lon="13.62028285">
        <ele>118.00000</ele>
        <time>2024-02-02T14:16:06Z</time>
      </trkpt>
      <trkpt lat="42.84395942" lon="13.62035796">
        <ele>118.00000</ele>
        <time>2024-02-02T14:16:07Z</time>
      </trkpt>
      <trkpt lat="42.84393360" lon="13.62043130">
        <ele>118.00000</ele>
        <time>2024-02-02T14:16:08Z</time>
      </trkpt>
      <trkpt lat="42.84390703" lon="13.62050246">
        <ele>118.00000</ele>
        <time>2024-02-02T14:16:09Z</time>
      </trkpt>
      <trkpt lat="42.84388449" lon="13.62057555">
        <ele>119.00000</ele>
        <time>2024-02-02T14:16:10Z</time>
      </trkpt>
      <trkpt lat="42.84386378" lon="13.62065115">
        <ele>119.00000</ele>
        <time>2024-02-02T14:16:11Z</time>
      </trkpt>
      <trkpt lat="42.84384006" lon="13.62072559">
        <ele>120.00000</ele>
        <time>2024-02-02T14:16:12Z</time>
      </trkpt>
      <trkpt lat="42.84381475" lon="13.62080153">
        <ele>121.00000</ele>
        <time>2024-02-02T14:16:13Z</time>
      </trkpt>
      <trkpt lat="42.84379002" lon="13.62087763">
        <ele>121.00000</ele>
        <time>2024-02-02T14:16:14Z</time>
      </trkpt>
      <trkpt lat="42.84376781" lon="13.62095307">
        <ele>122.00000</ele>
        <time>2024-02-02T14:16:15Z</time>
      </trkpt>
      <trkpt lat="42.84374820" lon="13.62102809">
        <ele>122.00000</ele>
        <time>2024-02-02T14:16:16Z</time>
      </trkpt>
      <trkpt lat="42.84372791" lon="13.62110202">
        <ele>123.00000</ele>
        <time>2024-02-02T14:16:17Z</time>
      </trkpt>
      <trkpt lat="42.84370863" lon="13.62117628">
        <ele>123.00000</ele>
        <time>2024-02-02T14:16:18Z</time>
      </trkpt>
      <trkpt lat="42.84368759" lon="13.62124870">
        <ele>123.00000</ele>
        <time>2024-02-02T14:16:19Z</time>
      </trkpt>
      <trkpt lat="42.84367066" lon="13.62132229">
        <ele>123.00000</ele>
        <time>2024-02-02T14:16:20Z</time>
      </trkpt>
      <trkpt lat="42.84365532" lon="13.62140041">
        <ele>123.00000</ele>
        <time>2024-02-02T14:16:21Z</time>
      </trkpt>
      <trkpt lat="42.84363320" lon="13.62147652">
        <ele>123.00000</ele>
        <time>2024-02-02T14:16:22Z</time>
      </trkpt>
      <trkpt lat="42.84360310" lon="13.62155011">
        <ele>122.00000</ele>
        <time>2024-02-02T14:16:23Z</time>
      </trkpt>
      <trkpt lat="42.84358056" lon="13.62162723">
        <ele>122.00000</ele>
        <time>2024-02-02T14:16:24Z</time>
      </trkpt>
      <trkpt lat="42.84355818" lon="13.62170669">
        <ele>122.00000</ele>
        <time>2024-02-02T14:16:25Z</time>
      </trkpt>
      <trkpt lat="42.84353588" lon="13.62178673">
        <ele>122.00000</ele>
        <time>2024-02-02T14:16:26Z</time>
      </trkpt>
      <trkpt lat="42.84351535" lon="13.62186988">
        <ele>121.00000</ele>
        <time>2024-02-02T14:16:27Z</time>
      </trkpt>
      <trkpt lat="42.84349590" lon="13.62195295">
        <ele>121.00000</ele>
        <time>2024-02-02T14:16:28Z</time>
      </trkpt>
      <trkpt lat="42.84347545" lon="13.62203400">
        <ele>121.00000</ele>
        <time>2024-02-02T14:16:29Z</time>
      </trkpt>
      <trkpt lat="42.84345651" lon="13.62211598">
        <ele>121.00000</ele>
        <time>2024-02-02T14:16:30Z</time>
      </trkpt>
      <trkpt lat="42.84343790" lon="13.62220030">
        <ele>120.00000</ele>
        <time>2024-02-02T14:16:31Z</time>
      </trkpt>
      <trkpt lat="42.84342348" lon="13.62228722">
        <ele>121.00000</ele>
        <time>2024-02-02T14:16:32Z</time>
      </trkpt>
      <trkpt lat="42.84340881" lon="13.62237003">
        <ele>121.00000</ele>
        <time>2024-02-02T14:16:33Z</time>
      </trkpt>
      <trkpt lat="42.84339641" lon="13.62245368">
        <ele>122.00000</ele>
        <time>2024-02-02T14:16:34Z</time>
      </trkpt>
      <trkpt lat="42.84337034" lon="13.62253474">
        <ele>122.00000</ele>
        <time>2024-02-02T14:16:35Z</time>
      </trkpt>
      <trkpt lat="42.84334662" lon="13.62261788">
        <ele>122.00000</ele>
        <time>2024-02-02T14:16:36Z</time>
      </trkpt>
      <trkpt lat="42.84331795" lon="13.62269793">
        <ele>123.00000</ele>
        <time>2024-02-02T14:16:37Z</time>
      </trkpt>
      <trkpt lat="42.84328904" lon="13.62277387">
        <ele>123.00000</ele>
        <time>2024-02-02T14:16:38Z</time>
      </trkpt>
      <trkpt lat="42.84326842" lon="13.62285308">
        <ele>123.00000</ele>
        <time>2024-02-02T14:16:39Z</time>
      </trkpt>
      <trkpt lat="42.84327353" lon="13.62293581">
        <ele>123.00000</ele>
        <time>2024-02-02T14:16:40Z</time>
      </trkpt>
      <trkpt lat="42.84330890" lon="13.62301242">
        <ele>123.00000</ele>
        <time>2024-02-02T14:16:41Z</time>
      </trkpt>
      <trkpt lat="42.84336087" lon="13.62307939">
        <ele>122.00000</ele>
        <time>2024-02-02T14:16:42Z</time>
      </trkpt>
      <trkpt lat="42.84341703" lon="13.62310286">
        <ele>121.00000</ele>
        <time>2024-02-02T14:16:43Z</time>
      </trkpt>
      <trkpt lat="42.84347696" lon="13.62308266">
        <ele>121.00000</ele>
        <time>2024-02-02T14:16:44Z</time>
      </trkpt>
      <trkpt lat="42.84353085" lon="13.62303958">
        <ele>120.00000</ele>
        <time>2024-02-02T14:16:45Z</time>
      </trkpt>
      <trkpt lat="42.84358768" lon="13.62300110">
        <ele>120.00000</ele>
        <time>2024-02-02T14:16:46Z</time>
      </trkpt>
      <trkpt lat="42.84364786" lon="13.62297847">
        <ele>119.00000</ele>
        <time>2024-02-02T14:16:47Z</time>
      </trkpt>
      <trkpt lat="42.84371224" lon="13.62297403">
        <ele>118.00000</ele>
        <time>2024-02-02T14:16:48Z</time>
      </trkpt>
      <trkpt lat="42.84377653" lon="13.62297873">
        <ele>117.00000</ele>
        <time>2024-02-02T14:16:49Z</time>
      </trkpt>
      <trkpt lat="42.84383964" lon="13.62299088">
        <ele>116.00000</ele>
        <time>2024-02-02T14:16:50Z</time>
      </trkpt>
      <trkpt lat="42.84389840" lon="13.62301200">
        <ele>116.00000</ele>
        <time>2024-02-02T14:16:51Z</time>
      </trkpt>
      <trkpt lat="42.84395716" lon="13.62304595">
        <ele>116.00000</ele>
        <time>2024-02-02T14:16:52Z</time>
      </trkpt>
      <trkpt lat="42.84400602" lon="13.62309657">
        <ele>116.00000</ele>
        <time>2024-02-02T14:16:53Z</time>
      </trkpt>
      <trkpt lat="42.84402010" lon="13.62315994">
        <ele>116.00000</ele>
        <time>2024-02-02T14:16:54Z</time>
      </trkpt>
      <trkpt lat="42.84401097" lon="13.62323286">
        <ele>116.00000</ele>
        <time>2024-02-02T14:16:55Z</time>
      </trkpt>
      <trkpt lat="42.84399605" lon="13.62331517">
        <ele>116.00000</ele>
        <time>2024-02-02T14:16:56Z</time>
      </trkpt>
      <trkpt lat="42.84398322" lon="13.62340000">
        <ele>116.00000</ele>
        <time>2024-02-02T14:16:57Z</time>
      </trkpt>
      <trkpt lat="42.84397677" lon="13.62348943">
        <ele>116.00000</ele>
        <time>2024-02-02T14:16:58Z</time>
      </trkpt>
      <trkpt lat="42.84396504" lon="13.62357920">
        <ele>116.00000</ele>
        <time>2024-02-02T14:16:59Z</time>
      </trkpt>
      <trkpt lat="42.84395590" lon="13.62367065">
        <ele>116.00000</ele>
        <time>2024-02-02T14:17:00Z</time>
      </trkpt>
      <trkpt lat="42.84395020" lon="13.62376562">
        <ele>115.00000</ele>
        <time>2024-02-02T14:17:01Z</time>
      </trkpt>
      <trkpt lat="42.84394534" lon="13.62385924">
        <ele>114.00000</ele>
        <time>2024-02-02T14:17:02Z</time>
      </trkpt>
      <trkpt lat="42.84393880" lon="13.62395362">
        <ele>114.00000</ele>
        <time>2024-02-02T14:17:03Z</time>
      </trkpt>
      <trkpt lat="42.84393092" lon="13.62406787">
        <ele>113.00000</ele>
        <time>2024-02-02T14:17:04Z</time>
      </trkpt>
      <trkpt lat="42.84392531" lon="13.62414431">
        <ele>113.00000</ele>
        <time>2024-02-02T14:17:05Z</time>
      </trkpt>
      <trkpt lat="42.84392028" lon="13.62424422">
        <ele>113.00000</ele>
        <time>2024-02-02T14:17:06Z</time>
      </trkpt>
      <trkpt lat="42.84391676" lon="13.62434833">
        <ele>113.00000</ele>
        <time>2024-02-02T14:17:07Z</time>
      </trkpt>
      <trkpt lat="42.84391500" lon="13.62445210">
        <ele>113.00000</ele>
        <time>2024-02-02T14:17:08Z</time>
      </trkpt>
      <trkpt lat="42.84391583" lon="13.62457732">
        <ele>113.00000</ele>
        <time>2024-02-02T14:17:09Z</time>
      </trkpt>
      <trkpt lat="42.84391634" lon="13.62466164">
        <ele>113.00000</ele>
        <time>2024-02-02T14:17:10Z</time>
      </trkpt>
      <trkpt lat="42.84392002" lon="13.62476902">
        <ele>113.00000</ele>
        <time>2024-02-02T14:17:11Z</time>
      </trkpt>
      <trkpt lat="42.84392472" lon="13.62487840">
        <ele>112.00000</ele>
        <time>2024-02-02T14:17:12Z</time>
      </trkpt>
      <trkpt lat="42.84392950" lon="13.62498686">
        <ele>112.00000</ele>
        <time>2024-02-02T14:17:13Z</time>
      </trkpt>
      <trkpt lat="42.84393453" lon="13.62509583">
        <ele>112.00000</ele>
        <time>2024-02-02T14:17:14Z</time>
      </trkpt>
      <trkpt lat="42.84393855" lon="13.62520588">
        <ele>112.00000</ele>
        <time>2024-02-02T14:17:15Z</time>
      </trkpt>
      <trkpt lat="42.84394693" lon="13.62531853">
        <ele>112.00000</ele>
        <time>2024-02-02T14:17:16Z</time>
      </trkpt>
      <trkpt lat="42.84395531" lon="13.62542951">
        <ele>111.00000</ele>
        <time>2024-02-02T14:17:17Z</time>
      </trkpt>
      <trkpt lat="42.84396193" lon="13.62554292">
        <ele>111.00000</ele>
        <time>2024-02-02T14:17:18Z</time>
      </trkpt>
      <trkpt lat="42.84396713" lon="13.62565741">
        <ele>111.00000</ele>
        <time>2024-02-02T14:17:19Z</time>
      </trkpt>
      <trkpt lat="42.84397359" lon="13.62577308">
        <ele>110.00000</ele>
        <time>2024-02-02T14:17:20Z</time>
      </trkpt>
      <trkpt lat="42.84397945" lon="13.62588758">
        <ele>110.00000</ele>
        <time>2024-02-02T14:17:21Z</time>
      </trkpt>
      <trkpt lat="42.84398574" lon="13.62600107">
        <ele>110.00000</ele>
        <time>2024-02-02T14:17:22Z</time>
      </trkpt>
      <trkpt lat="42.84399144" lon="13.62611314">
        <ele>110.00000</ele>
        <time>2024-02-02T14:17:23Z</time>
      </trkpt>
      <trkpt lat="42.84400057" lon="13.62622814">
        <ele>110.00000</ele>
        <time>2024-02-02T14:17:24Z</time>
      </trkpt>
      <trkpt lat="42.84400695" lon="13.62634121">
        <ele>110.00000</ele>
        <time>2024-02-02T14:17:25Z</time>
      </trkpt>
      <trkpt lat="42.84401164" lon="13.62644959">
        <ele>110.00000</ele>
        <time>2024-02-02T14:17:26Z</time>
      </trkpt>
      <trkpt lat="42.84401860" lon="13.62656258">
        <ele>110.00000</ele>
        <time>2024-02-02T14:17:27Z</time>
      </trkpt>
      <trkpt lat="42.84402832" lon="13.62667632">
        <ele>110.00000</ele>
        <time>2024-02-02T14:17:28Z</time>
      </trkpt>
      <trkpt lat="42.84403754" lon="13.62678981">
        <ele>110.00000</ele>
        <time>2024-02-02T14:17:29Z</time>
      </trkpt>
      <trkpt lat="42.84404659" lon="13.62690380">
        <ele>111.00000</ele>
        <time>2024-02-02T14:17:30Z</time>
      </trkpt>
      <trkpt lat="42.84405564" lon="13.62701704">
        <ele>111.00000</ele>
        <time>2024-02-02T14:17:31Z</time>
      </trkpt>
      <trkpt lat="42.84406411" lon="13.62712877">
        <ele>111.00000</ele>
        <time>2024-02-02T14:17:32Z</time>
      </trkpt>
      <trkpt lat="42.84406830" lon="13.62723506">
        <ele>112.00000</ele>
        <time>2024-02-02T14:17:33Z</time>
      </trkpt>
      <trkpt lat="42.84407350" lon="13.62734352">
        <ele>112.00000</ele>
        <time>2024-02-02T14:17:34Z</time>
      </trkpt>
      <trkpt lat="42.84407836" lon="13.62745022">
        <ele>112.00000</ele>
        <time>2024-02-02T14:17:35Z</time>
      </trkpt>
      <trkpt lat="42.84408129" lon="13.62755793">
        <ele>111.00000</ele>
        <time>2024-02-02T14:17:36Z</time>
      </trkpt>
      <trkpt lat="42.84408674" lon="13.62766689">
        <ele>111.00000</ele>
        <time>2024-02-02T14:17:37Z</time>
      </trkpt>
      <trkpt lat="42.84409370" lon="13.62777862">
        <ele>111.00000</ele>
        <time>2024-02-02T14:17:38Z</time>
      </trkpt>
      <trkpt lat="42.84410267" lon="13.62789153">
        <ele>111.00000</ele>
        <time>2024-02-02T14:17:39Z</time>
      </trkpt>
      <trkpt lat="42.84411105" lon="13.62800426">
        <ele>110.00000</ele>
        <time>2024-02-02T14:17:40Z</time>
      </trkpt>
      <trkpt lat="42.84412178" lon="13.62811658">
        <ele>110.00000</ele>
        <time>2024-02-02T14:17:41Z</time>
      </trkpt>
      <trkpt lat="42.84413376" lon="13.62822613">
        <ele>111.00000</ele>
        <time>2024-02-02T14:17:42Z</time>
      </trkpt>
      <trkpt lat="42.84414323" lon="13.62833568">
        <ele>111.00000</ele>
        <time>2024-02-02T14:17:43Z</time>
      </trkpt>
      <trkpt lat="42.84415455" lon="13.62844599">
        <ele>112.00000</ele>
        <time>2024-02-02T14:17:44Z</time>
      </trkpt>
      <trkpt lat="42.84416637" lon="13.62855680">
        <ele>112.00000</ele>
        <time>2024-02-02T14:17:45Z</time>
      </trkpt>
      <trkpt lat="42.84418095" lon="13.62866937">
        <ele>112.00000</ele>
        <time>2024-02-02T14:17:46Z</time>
      </trkpt>
      <trkpt lat="42.84419369" lon="13.62878093">
        <ele>112.00000</ele>
        <time>2024-02-02T14:17:47Z</time>
      </trkpt>
      <trkpt lat="42.84420602" lon="13.62889325">
        <ele>112.00000</ele>
        <time>2024-02-02T14:17:48Z</time>
      </trkpt>
      <trkpt lat="42.84421909" lon="13.62900682">
        <ele>111.00000</ele>
        <time>2024-02-02T14:17:49Z</time>
      </trkpt>
      <trkpt lat="42.84423435" lon="13.62911906">
        <ele>110.00000</ele>
        <time>2024-02-02T14:17:50Z</time>
      </trkpt>
      <trkpt lat="42.84424918" lon="13.62923179">
        <ele>109.00000</ele>
        <time>2024-02-02T14:17:51Z</time>
      </trkpt>
      <trkpt lat="42.84426620" lon="13.62934595">
        <ele>107.00000</ele>
        <time>2024-02-02T14:17:52Z</time>
      </trkpt>
      <trkpt lat="42.84428372" lon="13.62945651">
        <ele>106.00000</ele>
        <time>2024-02-02T14:17:53Z</time>
      </trkpt>
      <trkpt lat="42.84430048" lon="13.62956665">
        <ele>106.00000</ele>
        <time>2024-02-02T14:17:54Z</time>
      </trkpt>
      <trkpt lat="42.84431867" lon="13.62967754">
        <ele>107.00000</ele>
        <time>2024-02-02T14:17:55Z</time>
      </trkpt>
      <trkpt lat="42.84433728" lon="13.62978869">
        <ele>107.00000</ele>
        <time>2024-02-02T14:17:56Z</time>
      </trkpt>
      <trkpt lat="42.84435739" lon="13.62990042">
        <ele>107.00000</ele>
        <time>2024-02-02T14:17:57Z</time>
      </trkpt>
      <trkpt lat="42.84437634" lon="13.63001181">
        <ele>108.00000</ele>
        <time>2024-02-02T14:17:58Z</time>
      </trkpt>
      <trkpt lat="42.84439628" lon="13.63012312">
        <ele>108.00000</ele>
        <time>2024-02-02T14:17:59Z</time>
      </trkpt>
      <trkpt lat="42.84441598" lon="13.63023075">
        <ele>108.00000</ele>
        <time>2024-02-02T14:18:00Z</time>
      </trkpt>
      <trkpt lat="42.84443409" lon="13.63033988">
        <ele>108.00000</ele>
        <time>2024-02-02T14:18:01Z</time>
      </trkpt>
      <trkpt lat="42.84445278" lon="13.63044767">
        <ele>109.00000</ele>
        <time>2024-02-02T14:18:02Z</time>
      </trkpt>
      <trkpt lat="42.84447172" lon="13.63055831">
        <ele>109.00000</ele>
        <time>2024-02-02T14:18:03Z</time>
      </trkpt>
      <trkpt lat="42.84448966" lon="13.63066879">
        <ele>108.00000</ele>
        <time>2024-02-02T14:18:04Z</time>
      </trkpt>
      <trkpt lat="42.84451631" lon="13.63080206">
        <ele>108.00000</ele>
        <time>2024-02-02T14:18:05Z</time>
      </trkpt>
      <trkpt lat="42.84453651" lon="13.63091027">
        <ele>108.00000</ele>
        <time>2024-02-02T14:18:06Z</time>
      </trkpt>
      <trkpt lat="42.84455562" lon="13.63101714">
        <ele>108.00000</ele>
        <time>2024-02-02T14:18:07Z</time>
      </trkpt>
      <trkpt lat="42.84457323" lon="13.63112309">
        <ele>109.00000</ele>
        <time>2024-02-02T14:18:08Z</time>
      </trkpt>
      <trkpt lat="42.84459083" lon="13.63122861">
        <ele>109.00000</ele>
        <time>2024-02-02T14:18:09Z</time>
      </trkpt>
      <trkpt lat="42.84460701" lon="13.63131453">
        <ele>109.00000</ele>
        <time>2024-02-02T14:18:10Z</time>
      </trkpt>
      <trkpt lat="42.84463039" lon="13.63144143">
        <ele>109.00000</ele>
        <time>2024-02-02T14:18:11Z</time>
      </trkpt>
      <trkpt lat="42.84464799" lon="13.63154620">
        <ele>109.00000</ele>
        <time>2024-02-02T14:18:12Z</time>
      </trkpt>
      <trkpt lat="42.84466392" lon="13.63164838">
        <ele>109.00000</ele>
        <time>2024-02-02T14:18:13Z</time>
      </trkpt>
      <trkpt lat="42.84468387" lon="13.63175416">
        <ele>109.00000</ele>
        <time>2024-02-02T14:18:14Z</time>
      </trkpt>
      <trkpt lat="42.84469862" lon="13.63183831">
        <ele>109.00000</ele>
        <time>2024-02-02T14:18:15Z</time>
      </trkpt>
      <trkpt lat="42.84472008" lon="13.63196329">
        <ele>109.00000</ele>
        <time>2024-02-02T14:18:16Z</time>
      </trkpt>
      <trkpt lat="42.84473894" lon="13.63206756">
        <ele>109.00000</ele>
        <time>2024-02-02T14:18:17Z</time>
      </trkpt>
      <trkpt lat="42.84475637" lon="13.63217024">
        <ele>108.00000</ele>
        <time>2024-02-02T14:18:18Z</time>
      </trkpt>
      <trkpt lat="42.84477205" lon="13.63227233">
        <ele>108.00000</ele>
        <time>2024-02-02T14:18:19Z</time>
      </trkpt>
      <trkpt lat="42.84478881" lon="13.63237492">
        <ele>108.00000</ele>
        <time>2024-02-02T14:18:20Z</time>
      </trkpt>
      <trkpt lat="42.84480289" lon="13.63245824">
        <ele>107.00000</ele>
        <time>2024-02-02T14:18:21Z</time>
      </trkpt>
      <trkpt lat="42.84482334" lon="13.63258204">
        <ele>107.00000</ele>
        <time>2024-02-02T14:18:22Z</time>
      </trkpt>
      <trkpt lat="42.84484011" lon="13.63268581">
        <ele>106.00000</ele>
        <time>2024-02-02T14:18:23Z</time>
      </trkpt>
      <trkpt lat="42.84485880" lon="13.63279083">
        <ele>106.00000</ele>
        <time>2024-02-02T14:18:24Z</time>
      </trkpt>
      <trkpt lat="42.84487313" lon="13.63287532">
        <ele>106.00000</ele>
        <time>2024-02-02T14:18:25Z</time>
      </trkpt>
      <trkpt lat="42.84489258" lon="13.63297951">
        <ele>105.00000</ele>
        <time>2024-02-02T14:18:26Z</time>
      </trkpt>
      <trkpt lat="42.84491638" lon="13.63310515">
        <ele>105.00000</ele>
        <time>2024-02-02T14:18:27Z</time>
      </trkpt>
      <trkpt lat="42.84493708" lon="13.63321077">
        <ele>105.00000</ele>
        <time>2024-02-02T14:18:28Z</time>
      </trkpt>
      <trkpt lat="42.84495594" lon="13.63331453">
        <ele>105.00000</ele>
        <time>2024-02-02T14:18:29Z</time>
      </trkpt>
      <trkpt lat="42.84496986" lon="13.63339911">
        <ele>105.00000</ele>
        <time>2024-02-02T14:18:30Z</time>
      </trkpt>
      <trkpt lat="42.84498671" lon="13.63350346">
        <ele>105.00000</ele>
        <time>2024-02-02T14:18:31Z</time>
      </trkpt>
      <trkpt lat="42.84500624" lon="13.63362726">
        <ele>106.00000</ele>
        <time>2024-02-02T14:18:32Z</time>
      </trkpt>
      <trkpt lat="42.84502233" lon="13.63372969">
        <ele>106.00000</ele>
        <time>2024-02-02T14:18:33Z</time>
      </trkpt>
      <trkpt lat="42.84503515" lon="13.63383497">
        <ele>106.00000</ele>
        <time>2024-02-02T14:18:34Z</time>
      </trkpt>
      <trkpt lat="42.84504731" lon="13.63394016">
        <ele>106.00000</ele>
        <time>2024-02-02T14:18:35Z</time>
      </trkpt>
      <trkpt lat="42.84505795" lon="13.63404552">
        <ele>107.00000</ele>
        <time>2024-02-02T14:18:36Z</time>
      </trkpt>
      <trkpt lat="42.84506449" lon="13.63412867">
        <ele>107.00000</ele>
        <time>2024-02-02T14:18:37Z</time>
      </trkpt>
      <trkpt lat="42.84507354" lon="13.63425440">
        <ele>107.00000</ele>
        <time>2024-02-02T14:18:38Z</time>
      </trkpt>
      <trkpt lat="42.84507639" lon="13.63435733">
        <ele>108.00000</ele>
        <time>2024-02-02T14:18:39Z</time>
      </trkpt>
      <trkpt lat="42.84507857" lon="13.63446076">
        <ele>108.00000</ele>
        <time>2024-02-02T14:18:40Z</time>
      </trkpt>
      <trkpt lat="42.84507773" lon="13.63454123">
        <ele>108.00000</ele>
        <time>2024-02-02T14:18:41Z</time>
      </trkpt>
      <trkpt lat="42.84507555" lon="13.63464323">
        <ele>108.00000</ele>
        <time>2024-02-02T14:18:42Z</time>
      </trkpt>
      <trkpt lat="42.84507958" lon="13.63477005">
        <ele>108.00000</ele>
        <time>2024-02-02T14:18:43Z</time>
      </trkpt>
      <trkpt lat="42.84508268" lon="13.63487801">
        <ele>107.00000</ele>
        <time>2024-02-02T14:18:44Z</time>
      </trkpt>
      <trkpt lat="42.84508486" lon="13.63498630">
        <ele>107.00000</ele>
        <time>2024-02-02T14:18:45Z</time>
      </trkpt>
      <trkpt lat="42.84508377" lon="13.63507146">
        <ele>107.00000</ele>
        <time>2024-02-02T14:18:46Z</time>
      </trkpt>
      <trkpt lat="42.84508427" lon="13.63520172">
        <ele>107.00000</ele>
        <time>2024-02-02T14:18:47Z</time>
      </trkpt>
      <trkpt lat="42.84508259" lon="13.63531010">
        <ele>107.00000</ele>
        <time>2024-02-02T14:18:48Z</time>
      </trkpt>
      <trkpt lat="42.84507715" lon="13.63541814">
        <ele>107.00000</ele>
        <time>2024-02-02T14:18:49Z</time>
      </trkpt>
      <trkpt lat="42.84507254" lon="13.63552710">
        <ele>107.00000</ele>
        <time>2024-02-02T14:18:50Z</time>
      </trkpt>
      <trkpt lat="42.84506726" lon="13.63561511">
        <ele>107.00000</ele>
        <time>2024-02-02T14:18:51Z</time>
      </trkpt>
      <trkpt lat="42.84506080" lon="13.63572333">
        <ele>107.00000</ele>
        <time>2024-02-02T14:18:52Z</time>
      </trkpt>
      <trkpt lat="42.84506214" lon="13.63585693">
        <ele>107.00000</ele>
        <time>2024-02-02T14:18:53Z</time>
      </trkpt>
      <trkpt lat="42.84505804" lon="13.63596808">
        <ele>107.00000</ele>
        <time>2024-02-02T14:18:54Z</time>
      </trkpt>
      <trkpt lat="42.84505401" lon="13.63607746">
        <ele>107.00000</ele>
        <time>2024-02-02T14:18:55Z</time>
      </trkpt>
      <trkpt lat="42.84504865" lon="13.63618508">
        <ele>106.00000</ele>
        <time>2024-02-02T14:18:56Z</time>
      </trkpt>
      <trkpt lat="42.84504169" lon="13.63629070">
        <ele>106.00000</ele>
        <time>2024-02-02T14:18:57Z</time>
      </trkpt>
      <trkpt lat="42.84503633" lon="13.63637736">
        <ele>105.00000</ele>
        <time>2024-02-02T14:18:58Z</time>
      </trkpt>
      <trkpt lat="42.84502954" lon="13.63650728">
        <ele>105.00000</ele>
        <time>2024-02-02T14:18:59Z</time>
      </trkpt>
      <trkpt lat="42.84502300" lon="13.63661432">
        <ele>105.00000</ele>
        <time>2024-02-02T14:19:00Z</time>
      </trkpt>
      <trkpt lat="42.84501797" lon="13.63672337">
        <ele>104.00000</ele>
        <time>2024-02-02T14:19:01Z</time>
      </trkpt>
      <trkpt lat="42.84501445" lon="13.63681197">
        <ele>104.00000</ele>
        <time>2024-02-02T14:19:02Z</time>
      </trkpt>
      <trkpt lat="42.84500766" lon="13.63692034">
        <ele>104.00000</ele>
        <time>2024-02-02T14:19:03Z</time>
      </trkpt>
      <trkpt lat="42.84499752" lon="13.63705018">
        <ele>104.00000</ele>
        <time>2024-02-02T14:19:04Z</time>
      </trkpt>
      <trkpt lat="42.84498863" lon="13.63715722">
        <ele>104.00000</ele>
        <time>2024-02-02T14:19:05Z</time>
      </trkpt>
      <trkpt lat="42.84498360" lon="13.63726668">
        <ele>104.00000</ele>
        <time>2024-02-02T14:19:06Z</time>
      </trkpt>
      <trkpt lat="42.84498017" lon="13.63735461">
        <ele>104.00000</ele>
        <time>2024-02-02T14:19:07Z</time>
      </trkpt>
      <trkpt lat="42.84497489" lon="13.63748554">
        <ele>104.00000</ele>
        <time>2024-02-02T14:19:08Z</time>
      </trkpt>
      <trkpt lat="42.84496927" lon="13.63759458">
        <ele>104.00000</ele>
        <time>2024-02-02T14:19:09Z</time>
      </trkpt>
      <trkpt lat="42.84496466" lon="13.63770405">
        <ele>104.00000</ele>
        <time>2024-02-02T14:19:10Z</time>
      </trkpt>
      <trkpt lat="42.84496005" lon="13.63781075">
        <ele>104.00000</ele>
        <time>2024-02-02T14:19:11Z</time>
      </trkpt>
      <trkpt lat="42.84495544" lon="13.63789617">
        <ele>104.00000</ele>
        <time>2024-02-02T14:19:12Z</time>
      </trkpt>
      <trkpt lat="42.84494857" lon="13.63802500">
        <ele>104.00000</ele>
        <time>2024-02-02T14:19:13Z</time>
      </trkpt>
      <trkpt lat="42.84494396" lon="13.63813363">
        <ele>104.00000</ele>
        <time>2024-02-02T14:19:14Z</time>
      </trkpt>
      <trkpt lat="42.84493868" lon="13.63824125">
        <ele>104.00000</ele>
        <time>2024-02-02T14:19:15Z</time>
      </trkpt>
      <trkpt lat="42.84493382" lon="13.63834988">
        <ele>104.00000</ele>
        <time>2024-02-02T14:19:16Z</time>
      </trkpt>
      <trkpt lat="42.84492912" lon="13.63845918">
        <ele>104.00000</ele>
        <time>2024-02-02T14:19:17Z</time>
      </trkpt>
      <trkpt lat="42.84492711" lon="13.63854627">
        <ele>104.00000</ele>
        <time>2024-02-02T14:19:18Z</time>
      </trkpt>
      <trkpt lat="42.84492342" lon="13.63867627">
        <ele>104.00000</ele>
        <time>2024-02-02T14:19:19Z</time>
      </trkpt>
      <trkpt lat="42.84491848" lon="13.63878163">
        <ele>104.00000</ele>
        <time>2024-02-02T14:19:20Z</time>
      </trkpt>
      <trkpt lat="42.84491403" lon="13.63888791">
        <ele>104.00000</ele>
        <time>2024-02-02T14:19:21Z</time>
      </trkpt>
      <trkpt lat="42.84490850" lon="13.63899436">
        <ele>104.00000</ele>
        <time>2024-02-02T14:19:22Z</time>
      </trkpt>
      <trkpt lat="42.84490440" lon="13.63909972">
        <ele>104.00000</ele>
        <time>2024-02-02T14:19:23Z</time>
      </trkpt>
      <trkpt lat="42.84489878" lon="13.63917935">
        <ele>104.00000</ele>
        <time>2024-02-02T14:19:24Z</time>
      </trkpt>
      <trkpt lat="42.84488998" lon="13.63929611">
        <ele>104.00000</ele>
        <time>2024-02-02T14:19:25Z</time>
      </trkpt>
      <trkpt lat="42.84488336" lon="13.63939351">
        <ele>104.00000</ele>
        <time>2024-02-02T14:19:26Z</time>
      </trkpt>
      <trkpt lat="42.84488528" lon="13.63949652">
        <ele>104.00000</ele>
        <time>2024-02-02T14:19:27Z</time>
      </trkpt>
      <trkpt lat="42.84488260" lon="13.63957523">
        <ele>105.00000</ele>
        <time>2024-02-02T14:19:28Z</time>
      </trkpt>
      <trkpt lat="42.84487556" lon="13.63968864">
        <ele>105.00000</ele>
        <time>2024-02-02T14:19:29Z</time>
      </trkpt>
      <trkpt lat="42.84487238" lon="13.63978629">
        <ele>105.00000</ele>
        <time>2024-02-02T14:19:30Z</time>
      </trkpt>
      <trkpt lat="42.84487028" lon="13.63988880">
        <ele>105.00000</ele>
        <time>2024-02-02T14:19:31Z</time>
      </trkpt>
      <trkpt lat="42.84486609" lon="13.63999038">
        <ele>105.00000</ele>
        <time>2024-02-02T14:19:32Z</time>
      </trkpt>
      <trkpt lat="42.84486542" lon="13.64009482">
        <ele>105.00000</ele>
        <time>2024-02-02T14:19:33Z</time>
      </trkpt>
      <trkpt lat="42.84486198" lon="13.64017646">
        <ele>105.00000</ele>
        <time>2024-02-02T14:19:34Z</time>
      </trkpt>
      <trkpt lat="42.84486148" lon="13.64029549">
        <ele>105.00000</ele>
        <time>2024-02-02T14:19:35Z</time>
      </trkpt>
      <trkpt lat="42.84485997" lon="13.64038945">
        <ele>105.00000</ele>
        <time>2024-02-02T14:19:36Z</time>
      </trkpt>
      <trkpt lat="42.84485905" lon="13.64047871">
        <ele>105.00000</ele>
        <time>2024-02-02T14:19:37Z</time>
      </trkpt>
      <trkpt lat="42.84485972" lon="13.64056454">
        <ele>105.00000</ele>
        <time>2024-02-02T14:19:38Z</time>
      </trkpt>
      <trkpt lat="42.84486282" lon="13.64065054">
        <ele>105.00000</ele>
        <time>2024-02-02T14:19:39Z</time>
      </trkpt>
      <trkpt lat="42.84486559" lon="13.64073143">
        <ele>105.00000</ele>
        <time>2024-02-02T14:19:40Z</time>
      </trkpt>
      <trkpt lat="42.84486978" lon="13.64080796">
        <ele>105.00000</ele>
        <time>2024-02-02T14:19:41Z</time>
      </trkpt>
      <trkpt lat="42.84487850" lon="13.64088448">
        <ele>105.00000</ele>
        <time>2024-02-02T14:19:42Z</time>
      </trkpt>
      <trkpt lat="42.84488755" lon="13.64096109">
        <ele>105.00000</ele>
        <time>2024-02-02T14:19:43Z</time>
      </trkpt>
      <trkpt lat="42.84489559" lon="13.64103913">
        <ele>105.00000</ele>
        <time>2024-02-02T14:19:44Z</time>
      </trkpt>
      <trkpt lat="42.84490205" lon="13.64112203">
        <ele>105.00000</ele>
        <time>2024-02-02T14:19:45Z</time>
      </trkpt>
      <trkpt lat="42.84490926" lon="13.64120584">
        <ele>105.00000</ele>
        <time>2024-02-02T14:19:46Z</time>
      </trkpt>
      <trkpt lat="42.84492116" lon="13.64128413">
        <ele>105.00000</ele>
        <time>2024-02-02T14:19:47Z</time>
      </trkpt>
      <trkpt lat="42.84494119" lon="13.64136041">
        <ele>105.00000</ele>
        <time>2024-02-02T14:19:48Z</time>
      </trkpt>
      <trkpt lat="42.84496860" lon="13.64142847">
        <ele>106.00000</ele>
        <time>2024-02-02T14:19:49Z</time>
      </trkpt>
      <trkpt lat="42.84500330" lon="13.64148848">
        <ele>106.00000</ele>
        <time>2024-02-02T14:19:50Z</time>
      </trkpt>
      <trkpt lat="42.84504001" lon="13.64155009">
        <ele>106.00000</ele>
        <time>2024-02-02T14:19:51Z</time>
      </trkpt>
      <trkpt lat="42.84506390" lon="13.64161647">
        <ele>106.00000</ele>
        <time>2024-02-02T14:19:52Z</time>
      </trkpt>
      <trkpt lat="42.84507622" lon="13.64168227">
        <ele>107.00000</ele>
        <time>2024-02-02T14:19:53Z</time>
      </trkpt>
      <trkpt lat="42.84508486" lon="13.64173550">
        <ele>107.00000</ele>
        <time>2024-02-02T14:19:54Z</time>
      </trkpt>
      <trkpt lat="42.84510028" lon="13.64176760">
        <ele>107.00000</ele>
        <time>2024-02-02T14:19:55Z</time>
      </trkpt>
      <trkpt lat="42.84512953" lon="13.64179090">
        <ele>107.00000</ele>
        <time>2024-02-02T14:19:56Z</time>
      </trkpt>
      <trkpt lat="42.84515451" lon="13.64178436">
        <ele>107.00000</ele>
        <time>2024-02-02T14:19:57Z</time>
      </trkpt>
      <trkpt lat="42.84517010" lon="13.64177414">
        <ele>107.00000</ele>
        <time>2024-02-02T14:19:58Z</time>
      </trkpt>
      <trkpt lat="42.84517429" lon="13.64177053">
        <ele>107.00000</ele>
        <time>2024-02-02T14:19:59Z</time>
      </trkpt>
      <trkpt lat="42.84521821" lon="13.64177456">
        <ele>107.00000</ele>
        <time>2024-02-02T14:20:26Z</time>
      </trkpt>
      <trkpt lat="42.84524202" lon="13.64177648">
        <ele>107.00000</ele>
        <time>2024-02-02T14:20:27Z</time>
      </trkpt>
      <trkpt lat="42.84527781" lon="13.64177741">
        <ele>107.00000</ele>
        <time>2024-02-02T14:20:28Z</time>
      </trkpt>
      <trkpt lat="42.84530522" lon="13.64177590">
        <ele>107.00000</ele>
        <time>2024-02-02T14:20:29Z</time>
      </trkpt>
      <trkpt lat="42.84533187" lon="13.64177028">
        <ele>107.00000</ele>
        <time>2024-02-02T14:20:30Z</time>
      </trkpt>
      <trkpt lat="42.84535920" lon="13.64176064">
        <ele>107.00000</ele>
        <time>2024-02-02T14:20:31Z</time>
      </trkpt>
      <trkpt lat="42.84538677" lon="13.64175628">
        <ele>106.00000</ele>
        <time>2024-02-02T14:20:32Z</time>
      </trkpt>
      <trkpt lat="42.84541418" lon="13.64174773">
        <ele>106.00000</ele>
        <time>2024-02-02T14:20:33Z</time>
      </trkpt>
      <trkpt lat="42.84543950" lon="13.64174271">
        <ele>106.00000</ele>
        <time>2024-02-02T14:20:34Z</time>
      </trkpt>
      <trkpt lat="42.84546364" lon="13.64173877">
        <ele>106.00000</ele>
        <time>2024-02-02T14:20:35Z</time>
      </trkpt>
      <trkpt lat="42.84548752" lon="13.64172921">
        <ele>106.00000</ele>
        <time>2024-02-02T14:20:36Z</time>
      </trkpt>
      <trkpt lat="42.84550789" lon="13.64172158">
        <ele>106.00000</ele>
        <time>2024-02-02T14:20:37Z</time>
      </trkpt>
      <trkpt lat="42.84553019" lon="13.64171756">
        <ele>106.00000</ele>
        <time>2024-02-02T14:20:38Z</time>
      </trkpt>
      <trkpt lat="42.84555215" lon="13.64171739">
        <ele>106.00000</ele>
        <time>2024-02-02T14:20:39Z</time>
      </trkpt>
      <trkpt lat="42.84557813" lon="13.64171647">
        <ele>106.00000</ele>
        <time>2024-02-02T14:20:40Z</time>
      </trkpt>
      <trkpt lat="42.84560127" lon="13.64170976">
        <ele>105.00000</ele>
        <time>2024-02-02T14:20:41Z</time>
      </trkpt>
      <trkpt lat="42.84562448" lon="13.64169962">
        <ele>105.00000</ele>
        <time>2024-02-02T14:20:42Z</time>
      </trkpt>
      <trkpt lat="42.84564292" lon="13.64168705">
        <ele>105.00000</ele>
        <time>2024-02-02T14:20:43Z</time>
      </trkpt>
      <trkpt lat="42.84565960" lon="13.64167716">
        <ele>105.00000</ele>
        <time>2024-02-02T14:20:44Z</time>
      </trkpt>
      <trkpt lat="42.84568073" lon="13.64167121">
        <ele>105.00000</ele>
        <time>2024-02-02T14:20:45Z</time>
      </trkpt>
      <trkpt lat="42.84569766" lon="13.64166970">
        <ele>105.00000</ele>
        <time>2024-02-02T14:20:46Z</time>
      </trkpt>
      <trkpt lat="42.84570353" lon="13.64166844">
        <ele>105.00000</ele>
        <time>2024-02-02T14:20:47Z</time>
      </trkpt>
    </trkseg>
  </trk>
</gpx>

